<?xml version='1.0' encoding='UTF-8'?><gpx version="1.1" creator="JPX - https://github.com/jenetics/jpx" xmlns="http://www.topografix.com/GPX/1/1"><trk><trkseg><trkpt lat="45.46158271478366" lon="7.907184680743738"><ele>238.0</ele><time>2026-05-03T12:41:52.001Z</time></trkpt><trkpt lat="45.4615659979238" lon="7.90705387737347"><ele>238.0</ele><time>2026-05-03T12:41:55.001Z</time></trkpt><trkpt lat="45.46153734877959" lon="7.90694924836468"><ele>238.0</ele><time>2026-05-03T12:41:57.001Z</time></trkpt><trkpt lat="45.461505769229824" lon="7.906821781490233"><ele>238.0</ele><time>2026-05-03T12:41:59.001Z</time></trkpt><trkpt lat="45.46146288331321" lon="7.9066718258912605"><ele>238.0</ele><time>2026-05-03T12:42:01.001Z</time></trkpt><trkpt lat="45.461428519351266" lon="7.906513938291147"><ele>238.2</ele><time>2026-05-03T12:42:03.001Z</time></trkpt><trkpt lat="45.461390487986655" lon="7.9064058918495705"><ele>238.4</ele><time>2026-05-03T12:42:05.001Z</time></trkpt><trkpt lat="45.46121028606691" lon="7.906404968275645"><ele>238.59999999999997</ele><time>2026-05-03T12:42:09.001Z</time></trkpt><trkpt lat="45.46114819706594" lon="7.906454094671263"><ele>238.79999999999998</ele><time>2026-05-03T12:42:10.001Z</time></trkpt><trkpt lat="45.46107483481991" lon="7.906512140748041"><ele>239.0</ele><time>2026-05-03T12:42:11.001Z</time></trkpt><trkpt lat="45.461002312778255" lon="7.906569522179346"><ele>238.33333333333334</ele><time>2026-05-03T12:42:12.001Z</time></trkpt><trkpt lat="45.46093348054566" lon="7.906626709925153"><ele>237.66666666666669</ele><time>2026-05-03T12:42:13.001Z</time></trkpt><trkpt lat="45.46087016612669" lon="7.906678406087082"><ele>237.0</ele><time>2026-05-03T12:42:14.001Z</time></trkpt><trkpt lat="45.46080790217864" lon="7.906719361539034"><ele>236.33333333333331</ele><time>2026-05-03T12:42:15.001Z</time></trkpt><trkpt lat="45.460733864228665" lon="7.906753161494646"><ele>235.66666666666666</ele><time>2026-05-03T12:42:16.001Z</time></trkpt><trkpt lat="45.46064705290295" lon="7.906786248650032"><ele>235.0</ele><time>2026-05-03T12:42:17.001Z</time></trkpt><trkpt lat="45.460553006848365" lon="7.906818485404998"><ele>235.0</ele><time>2026-05-03T12:42:18.001Z</time></trkpt><trkpt lat="45.460449981568225" lon="7.9068540503182145"><ele>235.0</ele><time>2026-05-03T12:42:19.001Z</time></trkpt><trkpt lat="45.46034878152309" lon="7.906890985504254"><ele>235.0</ele><time>2026-05-03T12:42:20.001Z</time></trkpt><trkpt lat="45.460247892289324" lon="7.90692747818597"><ele>235.0</ele><time>2026-05-03T12:42:21.001Z</time></trkpt><trkpt lat="45.46016059830461" lon="7.906959402158132"><ele>235.0</ele><time>2026-05-03T12:42:22.001Z</time></trkpt><trkpt lat="45.460086151582125" lon="7.906984366189825"><ele>234.8</ele><time>2026-05-03T12:42:23.001Z</time></trkpt><trkpt lat="45.45997526242654" lon="7.9069729946195055"><ele>234.6</ele><time>2026-05-03T12:42:25.001Z</time></trkpt><trkpt lat="45.45989027930667" lon="7.906794743897759"><ele>234.39999999999998</ele><time>2026-05-03T12:42:27.001Z</time></trkpt><trkpt lat="45.45984448901035" lon="7.90669562934101"><ele>234.2</ele><time>2026-05-03T12:42:28.001Z</time></trkpt><trkpt lat="45.459793514912754" lon="7.9066199675471625"><ele>234.0</ele><time>2026-05-03T12:42:29.001Z</time></trkpt><trkpt lat="45.45974376895958" lon="7.906554248254334"><ele>234.0</ele><time>2026-05-03T12:42:30.001Z</time></trkpt><trkpt lat="45.45970145381691" lon="7.906481420238985"><ele>234.0</ele><time>2026-05-03T12:42:32.001Z</time></trkpt><trkpt lat="45.459549720035795" lon="7.906686176374065"><ele>234.0</ele><time>2026-05-03T12:42:33.001Z</time></trkpt><trkpt lat="45.45947115773382" lon="7.90675160277448"><ele>234.0</ele><time>2026-05-03T12:42:34.001Z</time></trkpt><trkpt lat="45.45939197990826" lon="7.906850786758605"><ele>233.6</ele><time>2026-05-03T12:42:35.001Z</time></trkpt><trkpt lat="45.45932614310717" lon="7.906966268178325"><ele>233.2</ele><time>2026-05-03T12:42:36.001Z</time></trkpt><trkpt lat="45.4592549832118" lon="7.907070026748062"><ele>232.79999999999998</ele><time>2026-05-03T12:42:37.001Z</time></trkpt><trkpt lat="45.45918220595948" lon="7.907162155573461"><ele>232.39999999999998</ele><time>2026-05-03T12:42:38.001Z</time></trkpt><trkpt lat="45.459122399436765" lon="7.9072895320099175"><ele>232.0</ele><time>2026-05-03T12:42:39.001Z</time></trkpt><trkpt lat="45.459048817950745" lon="7.907406477490164"><ele>232.0</ele><time>2026-05-03T12:42:40.001Z</time></trkpt><trkpt lat="45.45897180302508" lon="7.907520886631994"><ele>232.0</ele><time>2026-05-03T12:42:41.001Z</time></trkpt><trkpt lat="45.45889991419135" lon="7.907649711121536"><ele>232.0</ele><time>2026-05-03T12:42:42.001Z</time></trkpt><trkpt lat="45.45880998370085" lon="7.907755519362123"><ele>232.0</ele><time>2026-05-03T12:42:43.001Z</time></trkpt><trkpt lat="45.45873912583676" lon="7.907890695626354"><ele>232.25</ele><time>2026-05-03T12:42:44.001Z</time></trkpt><trkpt lat="45.45865346504139" lon="7.908005268799058"><ele>232.5</ele><time>2026-05-03T12:42:45.001Z</time></trkpt><trkpt lat="45.45856797016234" lon="7.908129382575709"><ele>232.75</ele><time>2026-05-03T12:42:46.001Z</time></trkpt><trkpt lat="45.45847750884573" lon="7.908235577931692"><ele>233.0</ele><time>2026-05-03T12:42:47.001Z</time></trkpt><trkpt lat="45.458398303512" lon="7.908350487672235"><ele>232.60000000000002</ele><time>2026-05-03T12:42:48.001Z</time></trkpt><trkpt lat="45.45832792458241" lon="7.908454685054578"><ele>232.20000000000002</ele><time>2026-05-03T12:42:49.001Z</time></trkpt><trkpt lat="45.45826300073719" lon="7.90856861097465"><ele>231.8</ele><time>2026-05-03T12:42:50.001Z</time></trkpt><trkpt lat="45.45820791503583" lon="7.908679400257267"><ele>231.4</ele><time>2026-05-03T12:42:51.001Z</time></trkpt><trkpt lat="45.45814701939745" lon="7.908786298957644"><ele>231.0</ele><time>2026-05-03T12:42:52.002Z</time></trkpt><trkpt lat="45.45806780684161" lon="7.9088750134554475"><ele>231.0</ele><time>2026-05-03T12:42:53.002Z</time></trkpt><trkpt lat="45.45800512071123" lon="7.909003376628073"><ele>231.00000000000003</ele><time>2026-05-03T12:42:54.002Z</time></trkpt><trkpt lat="45.45793146868074" lon="7.909113425144234"><ele>231.00000000000003</ele><time>2026-05-03T12:42:55.002Z</time></trkpt><trkpt lat="45.45785779458764" lon="7.909232737166139"><ele>231.0</ele><time>2026-05-03T12:42:56.002Z</time></trkpt><trkpt lat="45.45778156095128" lon="7.909326871579112"><ele>231.0</ele><time>2026-05-03T12:42:57.002Z</time></trkpt><trkpt lat="45.457713569524294" lon="7.909432833920682"><ele>231.20000000000002</ele><time>2026-05-03T12:42:58.002Z</time></trkpt><trkpt lat="45.45766108994162" lon="7.909547576836707"><ele>231.40000000000003</ele><time>2026-05-03T12:42:59.002Z</time></trkpt><trkpt lat="45.45759551458861" lon="7.909648370401534"><ele>231.6</ele><time>2026-05-03T12:43:00.002Z</time></trkpt><trkpt lat="45.45752460291812" lon="7.90976061878162"><ele>231.8</ele><time>2026-05-03T12:43:01.002Z</time></trkpt><trkpt lat="45.457453307923515" lon="7.909870126272224"><ele>232.0</ele><time>2026-05-03T12:43:02.002Z</time></trkpt><trkpt lat="45.45738822748634" lon="7.909988421218473"><ele>232.0</ele><time>2026-05-03T12:43:03.002Z</time></trkpt><trkpt lat="45.457325900163404" lon="7.910103712647942"><ele>232.0</ele><time>2026-05-03T12:43:04.002Z</time></trkpt><trkpt lat="45.45731450235394" lon="7.910248534132805"><ele>232.0</ele><time>2026-05-03T12:43:05.002Z</time></trkpt><trkpt lat="45.45724661918997" lon="7.910359380839671"><ele>232.0</ele><time>2026-05-03T12:43:06.002Z</time></trkpt><trkpt lat="45.45710722059588" lon="7.910425588815879"><ele>232.0</ele><time>2026-05-03T12:43:07.002Z</time></trkpt><trkpt lat="45.45703200823325" lon="7.910540838124449"><ele>232.0</ele><time>2026-05-03T12:43:08.002Z</time></trkpt><trkpt lat="45.456955687133835" lon="7.910662500282808"><ele>232.0</ele><time>2026-05-03T12:43:09.002Z</time></trkpt><trkpt lat="45.45688087254135" lon="7.910786383172898"><ele>232.0</ele><time>2026-05-03T12:43:10.002Z</time></trkpt><trkpt lat="45.456810483700856" lon="7.910912523409322"><ele>232.0</ele><time>2026-05-03T12:43:11.002Z</time></trkpt><trkpt lat="45.45674310673884" lon="7.911036414281174"><ele>232.0</ele><time>2026-05-03T12:43:12.002Z</time></trkpt><trkpt lat="45.45667479585836" lon="7.911158560169584"><ele>232.0</ele><time>2026-05-03T12:43:13.002Z</time></trkpt><trkpt lat="45.45660250356756" lon="7.911287775156176"><ele>232.0</ele><time>2026-05-03T12:43:14.002Z</time></trkpt><trkpt lat="45.456523366261415" lon="7.911430804031539"><ele>232.0</ele><time>2026-05-03T12:43:15.002Z</time></trkpt><trkpt lat="45.456445490020485" lon="7.911557373685639"><ele>232.0</ele><time>2026-05-03T12:43:16.002Z</time></trkpt><trkpt lat="45.45635826198352" lon="7.911688079261695"><ele>232.0</ele><time>2026-05-03T12:43:17.002Z</time></trkpt><trkpt lat="45.456274633382904" lon="7.911825917095022"><ele>232.0</ele><time>2026-05-03T12:43:18.002Z</time></trkpt><trkpt lat="45.456187453964375" lon="7.911957054459925"><ele>231.5</ele><time>2026-05-03T12:43:19.002Z</time></trkpt><trkpt lat="45.45610001215392" lon="7.912092077994651"><ele>231.0</ele><time>2026-05-03T12:43:20.002Z</time></trkpt><trkpt lat="45.45602343103151" lon="7.912226929518477"><ele>230.5</ele><time>2026-05-03T12:43:21.002Z</time></trkpt><trkpt lat="45.45593892939589" lon="7.912354451393152"><ele>230.0</ele><time>2026-05-03T12:43:22.002Z</time></trkpt><trkpt lat="45.45585561127743" lon="7.912483034873028"><ele>230.0</ele><time>2026-05-03T12:43:23.002Z</time></trkpt><trkpt lat="45.45576743943039" lon="7.912614884076996"><ele>230.0</ele><time>2026-05-03T12:43:24.002Z</time></trkpt><trkpt lat="45.45567985178141" lon="7.912749768797188"><ele>230.0</ele><time>2026-05-03T12:43:25.002Z</time></trkpt><trkpt lat="45.45559616965519" lon="7.912889863926495"><ele>230.0</ele><time>2026-05-03T12:43:26.002Z</time></trkpt><trkpt lat="45.455507468021494" lon="7.913027195729126"><ele>230.5</ele><time>2026-05-03T12:43:27.002Z</time></trkpt><trkpt lat="45.45541844508707" lon="7.913160306675376"><ele>231.0</ele><time>2026-05-03T12:43:28.002Z</time></trkpt><trkpt lat="45.45533255513019" lon="7.913295910337431"><ele>231.5</ele><time>2026-05-03T12:43:29.002Z</time></trkpt><trkpt lat="45.45524268932412" lon="7.913430449755653"><ele>232.0</ele><time>2026-05-03T12:43:30.002Z</time></trkpt><trkpt lat="45.455151980275886" lon="7.913570425185651"><ele>232.0</ele><time>2026-05-03T12:43:31.002Z</time></trkpt><trkpt lat="45.45506994707705" lon="7.913699623514443"><ele>232.0</ele><time>2026-05-03T12:43:32.002Z</time></trkpt><trkpt lat="45.45499517669286" lon="7.913827060172562"><ele>232.0</ele><time>2026-05-03T12:43:33.002Z</time></trkpt><trkpt lat="45.45492850629142" lon="7.913951635666059"><ele>232.0</ele><time>2026-05-03T12:43:34.002Z</time></trkpt><trkpt lat="45.45486019535916" lon="7.914065111296798"><ele>232.0</ele><time>2026-05-03T12:43:35.002Z</time></trkpt><trkpt lat="45.45466366323682" lon="7.914005075177844"><ele>232.0</ele><time>2026-05-03T12:43:36.002Z</time></trkpt><trkpt lat="45.45460491853597" lon="7.914104547079958"><ele>232.0</ele><time>2026-05-03T12:43:37.002Z</time></trkpt><trkpt lat="45.45455109093106" lon="7.914201943693022"><ele>232.0</ele><time>2026-05-03T12:43:38.002Z</time></trkpt><trkpt lat="45.45450960344575" lon="7.914293047641017"><ele>232.2</ele><time>2026-05-03T12:43:39.002Z</time></trkpt><trkpt lat="45.45457344358489" lon="7.914403608227877"><ele>232.39999999999998</ele><time>2026-05-03T12:43:42.002Z</time></trkpt><trkpt lat="45.454508284873775" lon="7.914338955321441"><ele>232.60000000000002</ele><time>2026-05-03T12:43:44.002Z</time></trkpt><trkpt lat="45.45442854739502" lon="7.914452889365387"><ele>232.8</ele><time>2026-05-03T12:43:46.002Z</time></trkpt><trkpt lat="45.454375321018134" lon="7.914531582630196"><ele>233.0</ele><time>2026-05-03T12:43:47.002Z</time></trkpt><trkpt lat="45.45431884955296" lon="7.914654054823052"><ele>233.0</ele><time>2026-05-03T12:43:48.002Z</time></trkpt><trkpt lat="45.45424884091712" lon="7.9147330035055825"><ele>233.0</ele><time>2026-05-03T12:43:49.002Z</time></trkpt><trkpt lat="45.45418953827634" lon="7.9148386964766315"><ele>233.0</ele><time>2026-05-03T12:43:50.002Z</time></trkpt><trkpt lat="45.45412368211692" lon="7.914950156627702"><ele>233.0</ele><time>2026-05-03T12:43:51.002Z</time></trkpt><trkpt lat="45.45405161268527" lon="7.915067483104549"><ele>233.0</ele><time>2026-05-03T12:43:52.002Z</time></trkpt><trkpt lat="45.453986736501214" lon="7.915173689070705"><ele>233.0</ele><time>2026-05-03T12:43:53.002Z</time></trkpt><trkpt lat="45.45392081889859" lon="7.91528641233935"><ele>233.0</ele><time>2026-05-03T12:43:54.002Z</time></trkpt><trkpt lat="45.45384977419717" lon="7.915394834356298"><ele>233.0</ele><time>2026-05-03T12:43:55.002Z</time></trkpt><trkpt lat="45.45377684317747" lon="7.915517431362545"><ele>233.0</ele><time>2026-05-03T12:43:56.002Z</time></trkpt><trkpt lat="45.45370532585001" lon="7.915639150455228"><ele>233.0</ele><time>2026-05-03T12:43:57.002Z</time></trkpt><trkpt lat="45.453639571479556" lon="7.915749491501267"><ele>233.0</ele><time>2026-05-03T12:43:58.002Z</time></trkpt><trkpt lat="45.453571666234104" lon="7.915865950122692"><ele>233.0</ele><time>2026-05-03T12:43:59.002Z</time></trkpt><trkpt lat="45.45350924109244" lon="7.915976685571322"><ele>233.0</ele><time>2026-05-03T12:44:00.002Z</time></trkpt><trkpt lat="45.45344046063479" lon="7.91609023815176"><ele>233.0</ele><time>2026-05-03T12:44:01.002Z</time></trkpt><trkpt lat="45.453371864909776" lon="7.916216920199847"><ele>233.0</ele><time>2026-05-03T12:44:02.002Z</time></trkpt><trkpt lat="45.45330169394309" lon="7.916330927409543"><ele>232.8</ele><time>2026-05-03T12:44:03.002Z</time></trkpt><trkpt lat="45.453236761559964" lon="7.916445133861557"><ele>232.60000000000002</ele><time>2026-05-03T12:44:04.002Z</time></trkpt><trkpt lat="45.45316559271487" lon="7.916554967506651"><ele>232.39999999999998</ele><time>2026-05-03T12:44:05.002Z</time></trkpt><trkpt lat="45.45309652271538" lon="7.916666418758379"><ele>232.2</ele><time>2026-05-03T12:44:06.002Z</time></trkpt><trkpt lat="45.453026909673916" lon="7.91677673684982"><ele>232.0</ele><time>2026-05-03T12:44:07.002Z</time></trkpt><trkpt lat="45.45295757658625" lon="7.916898190890966"><ele>231.8</ele><time>2026-05-03T12:44:08.002Z</time></trkpt><trkpt lat="45.452888399736096" lon="7.917013482133664"><ele>231.6</ele><time>2026-05-03T12:44:09.002Z</time></trkpt><trkpt lat="45.45282025280904" lon="7.917128020049898"><ele>231.40000000000003</ele><time>2026-05-03T12:44:10.002Z</time></trkpt><trkpt lat="45.452750327430806" lon="7.917256940961999"><ele>231.20000000000002</ele><time>2026-05-03T12:44:11.002Z</time></trkpt><trkpt lat="45.452679495192534" lon="7.917379352544036"><ele>231.0</ele><time>2026-05-03T12:44:12.002Z</time></trkpt><trkpt lat="45.45259768000628" lon="7.917488729673136"><ele>230.75</ele><time>2026-05-03T12:44:13.002Z</time></trkpt><trkpt lat="45.452525515033386" lon="7.917616648308571"><ele>230.5</ele><time>2026-05-03T12:44:14.002Z</time></trkpt><trkpt lat="45.45245657548791" lon="7.917738591330263"><ele>230.25</ele><time>2026-05-03T12:44:15.002Z</time></trkpt><trkpt lat="45.452384194810215" lon="7.9178701971673595"><ele>230.0</ele><time>2026-05-03T12:44:16.002Z</time></trkpt><trkpt lat="45.452317747789074" lon="7.917998893796955"><ele>230.0</ele><time>2026-05-03T12:44:17.002Z</time></trkpt><trkpt lat="45.45225184545923" lon="7.918117322486364"><ele>230.0</ele><time>2026-05-03T12:44:18.002Z</time></trkpt><trkpt lat="45.452183526603264" lon="7.918247821982335"><ele>230.0</ele><time>2026-05-03T12:44:19.002Z</time></trkpt><trkpt lat="45.45212072352191" lon="7.918369624054088"><ele>230.0</ele><time>2026-05-03T12:44:20.002Z</time></trkpt><trkpt lat="45.45205747154934" lon="7.918488746310982"><ele>230.0</ele><time>2026-05-03T12:44:21.002Z</time></trkpt><trkpt lat="45.45199105370589" lon="7.918609631121384"><ele>230.2</ele><time>2026-05-03T12:44:22.002Z</time></trkpt><trkpt lat="45.45192455512402" lon="7.91871931471773"><ele>230.4</ele><time>2026-05-03T12:44:23.002Z</time></trkpt><trkpt lat="45.451867056757756" lon="7.918830075069336"><ele>230.60000000000002</ele><time>2026-05-03T12:44:24.002Z</time></trkpt><trkpt lat="45.45181333140744" lon="7.918936815227936"><ele>230.8</ele><time>2026-05-03T12:44:25.002Z</time></trkpt><trkpt lat="45.45175846440532" lon="7.919043635845416"><ele>231.0</ele><time>2026-05-03T12:44:26.002Z</time></trkpt><trkpt lat="45.45170366514053" lon="7.919141190796653"><ele>231.0</ele><time>2026-05-03T12:44:27.002Z</time></trkpt><trkpt lat="45.451657233528245" lon="7.919235036018463"><ele>231.0</ele><time>2026-05-03T12:44:28.002Z</time></trkpt><trkpt lat="45.45157633642673" lon="7.919307922910543"><ele>231.0</ele><time>2026-05-03T12:44:30.002Z</time></trkpt><trkpt lat="45.45157463660835" lon="7.919180571306138"><ele>231.0</ele><time>2026-05-03T12:44:32.002Z</time></trkpt><trkpt lat="45.451503759338706" lon="7.919080983009917"><ele>231.0</ele><time>2026-05-03T12:44:34.002Z</time></trkpt><trkpt lat="45.45144155781591" lon="7.9190203718902"><ele>231.0</ele><time>2026-05-03T12:44:36.002Z</time></trkpt><trkpt lat="45.45135965111515" lon="7.919093332524605"><ele>231.66666666666666</ele><time>2026-05-03T12:44:38.002Z</time></trkpt><trkpt lat="45.45126455629471" lon="7.919122112447327"><ele>232.33333333333331</ele><time>2026-05-03T12:44:40.002Z</time></trkpt><trkpt lat="45.45119119994972" lon="7.9190653607657175"><ele>233.0</ele><time>2026-05-03T12:44:42.002Z</time></trkpt><trkpt lat="45.45115538726704" lon="7.918972071837937"><ele>233.66666666666666</ele><time>2026-05-03T12:44:43.002Z</time></trkpt><trkpt lat="45.45110378773594" lon="7.9188703282507165"><ele>234.33333333333331</ele><time>2026-05-03T12:44:44.002Z</time></trkpt><trkpt lat="45.451045795893265" lon="7.9187742207346234"><ele>235.0</ele><time>2026-05-03T12:44:45.002Z</time></trkpt><trkpt lat="45.45098146422349" lon="7.91867659217498"><ele>235.0</ele><time>2026-05-03T12:44:46.002Z</time></trkpt><trkpt lat="45.45091457306544" lon="7.918576116354308"><ele>235.0</ele><time>2026-05-03T12:44:47.002Z</time></trkpt><trkpt lat="45.450843977894756" lon="7.918483773674962"><ele>235.0</ele><time>2026-05-03T12:44:48.002Z</time></trkpt><trkpt lat="45.45078116672838" lon="7.918372823169938"><ele>235.0</ele><time>2026-05-03T12:44:49.002Z</time></trkpt><trkpt lat="45.450725510635074" lon="7.918243293697609"><ele>235.0</ele><time>2026-05-03T12:44:50.002Z</time></trkpt><trkpt lat="45.45064164996545" lon="7.918167773625818"><ele>235.0</ele><time>2026-05-03T12:44:51.002Z</time></trkpt><trkpt lat="45.450570340654444" lon="7.918066707777932"><ele>235.0</ele><time>2026-05-03T12:44:52.002Z</time></trkpt><trkpt lat="45.45052228568664" lon="7.91793662018677"><ele>235.0</ele><time>2026-05-03T12:44:53.002Z</time></trkpt><trkpt lat="45.450466669788476" lon="7.91781588541583"><ele>235.0</ele><time>2026-05-03T12:44:54.002Z</time></trkpt><trkpt lat="45.450417908175986" lon="7.917712149660515"><ele>235.0</ele><time>2026-05-03T12:44:55.002Z</time></trkpt><trkpt lat="45.45036776979566" lon="7.917593526738584"><ele>234.83333333333331</ele><time>2026-05-03T12:44:56.002Z</time></trkpt><trkpt lat="45.450324646952076" lon="7.917473088599343"><ele>234.66666666666666</ele><time>2026-05-03T12:44:57.002Z</time></trkpt><trkpt lat="45.45029041065152" lon="7.917358230235339"><ele>234.5</ele><time>2026-05-03T12:44:58.002Z</time></trkpt><trkpt lat="45.450256323423595" lon="7.917234047544677"><ele>234.33333333333331</ele><time>2026-05-03T12:44:59.002Z</time></trkpt><trkpt lat="45.450227702386286" lon="7.917122545926074"><ele>234.16666666666666</ele><time>2026-05-03T12:45:00.002Z</time></trkpt><trkpt lat="45.45018622501718" lon="7.917010540417004"><ele>234.0</ele><time>2026-05-03T12:45:01.002Z</time></trkpt><trkpt lat="45.45014250005294" lon="7.91689439889867"><ele>234.0</ele><time>2026-05-03T12:45:02.002Z</time></trkpt><trkpt lat="45.45009754062474" lon="7.916779807446995"><ele>234.0</ele><time>2026-05-03T12:45:03.002Z</time></trkpt><trkpt lat="45.45005361393117" lon="7.916680513010727"><ele>234.0</ele><time>2026-05-03T12:45:04.002Z</time></trkpt><trkpt lat="45.45002754677819" lon="7.916568682129251"><ele>234.0</ele><time>2026-05-03T12:45:05.002Z</time></trkpt><trkpt lat="45.44998856183286" lon="7.916466824632685"><ele>234.0</ele><time>2026-05-03T12:45:06.002Z</time></trkpt><trkpt lat="45.44993602562504" lon="7.916380290375146"><ele>234.0</ele><time>2026-05-03T12:45:07.002Z</time></trkpt><trkpt lat="45.44991340871906" lon="7.916280656386623"><ele>234.0</ele><time>2026-05-03T12:45:08.002Z</time></trkpt><trkpt lat="45.449852339608576" lon="7.916155128439025"><ele>233.99999999999997</ele><time>2026-05-03T12:45:10.002Z</time></trkpt><trkpt lat="45.44979544859204" lon="7.916063427008609"><ele>233.99999999999997</ele><time>2026-05-03T12:45:16.002Z</time></trkpt><trkpt lat="45.449770085964765" lon="7.9159661270522905"><ele>234.0</ele><time>2026-05-03T12:45:18.002Z</time></trkpt><trkpt lat="45.449710409448564" lon="7.915859211086666"><ele>234.0</ele><time>2026-05-03T12:45:20.002Z</time></trkpt><trkpt lat="45.449583339614215" lon="7.9158729650749144"><ele>234.2</ele><time>2026-05-03T12:45:22.002Z</time></trkpt><trkpt lat="45.44949437702015" lon="7.915879278032354"><ele>234.39999999999998</ele><time>2026-05-03T12:45:23.002Z</time></trkpt><trkpt lat="45.44940873275932" lon="7.915867893294979"><ele>234.6</ele><time>2026-05-03T12:45:24.002Z</time></trkpt><trkpt lat="45.449310629141834" lon="7.91586455021259"><ele>234.8</ele><time>2026-05-03T12:45:25.002Z</time></trkpt><trkpt lat="45.44919976071919" lon="7.915874584400024"><ele>235.0</ele><time>2026-05-03T12:45:26.002Z</time></trkpt><trkpt lat="45.44908614526571" lon="7.915856597115604"><ele>235.0</ele><time>2026-05-03T12:45:27.002Z</time></trkpt><trkpt lat="45.44897502557893" lon="7.915864861189373"><ele>235.0</ele><time>2026-05-03T12:45:28.002Z</time></trkpt><trkpt lat="45.44885502770079" lon="7.91587878834943"><ele>235.0</ele><time>2026-05-03T12:45:29.002Z</time></trkpt><trkpt lat="45.44873238576545" lon="7.9158922713073565"><ele>235.0</ele><time>2026-05-03T12:45:30.002Z</time></trkpt><trkpt lat="45.44860880611211" lon="7.915901809848005"><ele>234.75</ele><time>2026-05-03T12:45:31.002Z</time></trkpt><trkpt lat="45.44848625053139" lon="7.915897988379009"><ele>234.5</ele><time>2026-05-03T12:45:32.002Z</time></trkpt><trkpt lat="45.4483686005082" lon="7.915905639627908"><ele>234.25</ele><time>2026-05-03T12:45:33.002Z</time></trkpt><trkpt lat="45.44824784369341" lon="7.91591899783268"><ele>234.0</ele><time>2026-05-03T12:45:34.002Z</time></trkpt><trkpt lat="45.4481286425918" lon="7.915936890762848"><ele>233.6</ele><time>2026-05-03T12:45:35.002Z</time></trkpt><trkpt lat="45.44801175074818" lon="7.9159453176718"><ele>233.2</ele><time>2026-05-03T12:45:36.002Z</time></trkpt><trkpt lat="45.44789728177127" lon="7.9159547523710625"><ele>232.79999999999998</ele><time>2026-05-03T12:45:37.002Z</time></trkpt><trkpt lat="45.44779087164881" lon="7.915952541993024"><ele>232.39999999999998</ele><time>2026-05-03T12:45:38.003Z</time></trkpt><trkpt lat="45.44769567793017" lon="7.915951933809183"><ele>232.0</ele><time>2026-05-03T12:45:39.003Z</time></trkpt><trkpt lat="45.44760634090957" lon="7.9159413640724585"><ele>232.0</ele><time>2026-05-03T12:45:40.003Z</time></trkpt><trkpt lat="45.44751607233491" lon="7.915953566133697"><ele>232.0</ele><time>2026-05-03T12:45:41.003Z</time></trkpt><trkpt lat="45.44743953107424" lon="7.915948520303174"><ele>232.0</ele><time>2026-05-03T12:45:42.003Z</time></trkpt><trkpt lat="45.44746353212147" lon="7.915700324248977"><ele>232.0</ele><time>2026-05-03T12:45:43.003Z</time></trkpt><trkpt lat="45.44744334811708" lon="7.9155803394322195"><ele>232.0</ele><time>2026-05-03T12:45:44.003Z</time></trkpt><trkpt lat="45.44741327016688" lon="7.915455113380063"><ele>232.25</ele><time>2026-05-03T12:45:45.003Z</time></trkpt><trkpt lat="45.447373972113276" lon="7.915310171270356"><ele>232.5</ele><time>2026-05-03T12:45:46.003Z</time></trkpt><trkpt lat="45.44733770724082" lon="7.915143990101374"><ele>232.75</ele><time>2026-05-03T12:45:47.003Z</time></trkpt><trkpt lat="45.447288719249826" lon="7.914977240875062"><ele>233.0</ele><time>2026-05-03T12:45:48.003Z</time></trkpt><trkpt lat="45.44723359669813" lon="7.914814672395676"><ele>233.0</ele><time>2026-05-03T12:45:49.003Z</time></trkpt><trkpt lat="45.44718282195762" lon="7.914659964534716"><ele>233.0</ele><time>2026-05-03T12:45:50.003Z</time></trkpt><trkpt lat="45.44714181084628" lon="7.914505631853041"><ele>233.0</ele><time>2026-05-03T12:45:51.003Z</time></trkpt><trkpt lat="45.44709988216006" lon="7.914355092999948"><ele>233.0</ele><time>2026-05-03T12:45:52.003Z</time></trkpt><trkpt lat="45.44706554939452" lon="7.914226521840562"><ele>233.0</ele><time>2026-05-03T12:45:53.003Z</time></trkpt><trkpt lat="45.447028341556674" lon="7.914101571692435"><ele>233.00000000000003</ele><time>2026-05-03T12:45:54.003Z</time></trkpt><trkpt lat="45.4469974578807" lon="7.91398546525994"><ele>233.0</ele><time>2026-05-03T12:45:55.003Z</time></trkpt><trkpt lat="45.44696434473113" lon="7.913875224661179"><ele>233.0</ele><time>2026-05-03T12:45:56.003Z</time></trkpt><trkpt lat="45.446929646196146" lon="7.91376545852426"><ele>233.0</ele><time>2026-05-03T12:45:57.003Z</time></trkpt><trkpt lat="45.446891560728965" lon="7.913659079723651"><ele>233.00000000000003</ele><time>2026-05-03T12:45:58.003Z</time></trkpt><trkpt lat="45.44685626889624" lon="7.913581522284691"><ele>233.0</ele><time>2026-05-03T12:45:59.003Z</time></trkpt><trkpt lat="45.44670249114921" lon="7.913643736653266"><ele>233.0</ele><time>2026-05-03T12:46:02.003Z</time></trkpt><trkpt lat="45.44661878984204" lon="7.913694234407496"><ele>233.0</ele><time>2026-05-03T12:46:03.003Z</time></trkpt><trkpt lat="45.44650128417285" lon="7.913724838220231"><ele>233.0</ele><time>2026-05-03T12:46:04.003Z</time></trkpt><trkpt lat="45.44638696600926" lon="7.913765163029775"><ele>233.0</ele><time>2026-05-03T12:46:05.003Z</time></trkpt><trkpt lat="45.44625736744312" lon="7.913800032790051"><ele>232.75</ele><time>2026-05-03T12:46:06.003Z</time></trkpt><trkpt lat="45.44613651765771" lon="7.913880139756898"><ele>232.5</ele><time>2026-05-03T12:46:07.003Z</time></trkpt><trkpt lat="45.446023848014065" lon="7.913989384916403"><ele>232.25</ele><time>2026-05-03T12:46:08.003Z</time></trkpt><trkpt lat="45.44589223365569" lon="7.914096882521391"><ele>232.0</ele><time>2026-05-03T12:46:09.003Z</time></trkpt><trkpt lat="45.44578752405936" lon="7.914174455766982"><ele>232.5</ele><time>2026-05-03T12:46:10.003Z</time></trkpt><trkpt lat="45.44566880664936" lon="7.914258391772331"><ele>233.0</ele><time>2026-05-03T12:46:11.003Z</time></trkpt><trkpt lat="45.44533379740599" lon="7.913850067961697"><ele>232.0</ele><time>2026-05-03T12:46:12.003Z</time></trkpt><trkpt lat="45.44519969517231" lon="7.913861170108218"><ele>231.0</ele><time>2026-05-03T12:46:13.003Z</time></trkpt><trkpt lat="45.44506788240944" lon="7.913878063844536"><ele>230.0</ele><time>2026-05-03T12:46:14.003Z</time></trkpt><trkpt lat="45.444935839381984" lon="7.913918675485639"><ele>229.0</ele><time>2026-05-03T12:46:15.003Z</time></trkpt><trkpt lat="45.44480522939292" lon="7.9139598525673085"><ele>229.0</ele><time>2026-05-03T12:46:16.003Z</time></trkpt><trkpt lat="45.44468251313272" lon="7.914015776062537"><ele>228.99999999999997</ele><time>2026-05-03T12:46:17.003Z</time></trkpt><trkpt lat="45.44458046144604" lon="7.914068916163984"><ele>228.99999999999997</ele><time>2026-05-03T12:46:18.003Z</time></trkpt><trkpt lat="45.44449313374816" lon="7.914079623922477"><ele>229.0</ele><time>2026-05-03T12:46:19.003Z</time></trkpt><trkpt lat="45.44437587374741" lon="7.914087745987783"><ele>229.0</ele><time>2026-05-03T12:46:20.003Z</time></trkpt><trkpt lat="45.44423935811464" lon="7.914111208498452"><ele>229.2</ele><time>2026-05-03T12:46:21.003Z</time></trkpt><trkpt lat="45.44411478935188" lon="7.914162743544002"><ele>229.39999999999998</ele><time>2026-05-03T12:46:22.003Z</time></trkpt><trkpt lat="45.444010671732215" lon="7.91420452636862"><ele>229.6</ele><time>2026-05-03T12:46:23.003Z</time></trkpt><trkpt lat="45.44391030318705" lon="7.914211810771591"><ele>229.8</ele><time>2026-05-03T12:46:24.003Z</time></trkpt><trkpt lat="45.443805680927625" lon="7.914186666254609"><ele>230.0</ele><time>2026-05-03T12:46:25.003Z</time></trkpt><trkpt lat="45.44369876169707" lon="7.914181440786394"><ele>230.25</ele><time>2026-05-03T12:46:26.003Z</time></trkpt><trkpt lat="45.44359392300715" lon="7.914213364543439"><ele>230.5</ele><time>2026-05-03T12:46:27.003Z</time></trkpt><trkpt lat="45.44347852468228" lon="7.914255540474011"><ele>230.75</ele><time>2026-05-03T12:46:28.003Z</time></trkpt><trkpt lat="45.44335474487394" lon="7.914278384019363"><ele>231.0</ele><time>2026-05-03T12:46:29.003Z</time></trkpt><trkpt lat="45.443233283677635" lon="7.914286690024334"><ele>231.0</ele><time>2026-05-03T12:46:30.003Z</time></trkpt><trkpt lat="45.443106048905115" lon="7.914297627330262"><ele>231.0</ele><time>2026-05-03T12:46:31.003Z</time></trkpt><trkpt lat="45.44295508350895" lon="7.9143550533033356"><ele>231.0</ele><time>2026-05-03T12:46:32.003Z</time></trkpt><trkpt lat="45.442784891877984" lon="7.91442709522061"><ele>230.0</ele><time>2026-05-03T12:46:33.003Z</time></trkpt><trkpt lat="45.442629461525215" lon="7.914516179345704"><ele>229.0</ele><time>2026-05-03T12:46:34.003Z</time></trkpt><trkpt lat="45.442489755960366" lon="7.9145837518772275"><ele>228.0</ele><time>2026-05-03T12:46:35.003Z</time></trkpt><trkpt lat="45.44235032946988" lon="7.914650089445364"><ele>228.0</ele><time>2026-05-03T12:46:36.003Z</time></trkpt><trkpt lat="45.44220077823864" lon="7.914721162438514"><ele>228.0</ele><time>2026-05-03T12:46:37.003Z</time></trkpt><trkpt lat="45.44205885041903" lon="7.914789943491682"><ele>228.0</ele><time>2026-05-03T12:46:38.003Z</time></trkpt><trkpt lat="45.441926525665096" lon="7.914833163295121"><ele>228.0</ele><time>2026-05-03T12:46:39.003Z</time></trkpt><trkpt lat="45.44179667702592" lon="7.914875766412628"><ele>228.25</ele><time>2026-05-03T12:46:40.003Z</time></trkpt><trkpt lat="45.441676697595824" lon="7.91491495342114"><ele>228.5</ele><time>2026-05-03T12:46:41.003Z</time></trkpt><trkpt lat="45.44154863103504" lon="7.914932968064583"><ele>228.75</ele><time>2026-05-03T12:46:42.003Z</time></trkpt><trkpt lat="45.44140680969673" lon="7.914918976301054"><ele>229.0</ele><time>2026-05-03T12:46:43.003Z</time></trkpt><trkpt lat="45.441266577657395" lon="7.914865901573183"><ele>229.0</ele><time>2026-05-03T12:46:44.003Z</time></trkpt><trkpt lat="45.44111472914793" lon="7.914853386933598"><ele>229.0</ele><time>2026-05-03T12:46:45.003Z</time></trkpt><trkpt lat="45.440976124320485" lon="7.914860623523629"><ele>229.0</ele><time>2026-05-03T12:46:46.003Z</time></trkpt><trkpt lat="45.44086491047582" lon="7.91483932458938"><ele>229.0</ele><time>2026-05-03T12:46:47.003Z</time></trkpt><trkpt lat="45.440759729189935" lon="7.914780790310853"><ele>229.0</ele><time>2026-05-03T12:46:48.003Z</time></trkpt><trkpt lat="45.44064057650251" lon="7.914710052763285"><ele>229.0</ele><time>2026-05-03T12:46:49.003Z</time></trkpt><trkpt lat="45.44053987063561" lon="7.914644729741777"><ele>229.0</ele><time>2026-05-03T12:46:50.003Z</time></trkpt><trkpt lat="45.440477042780024" lon="7.914540980443143"><ele>229.0</ele><time>2026-05-03T12:46:51.003Z</time></trkpt><trkpt lat="45.440418007216515" lon="7.914392764631336"><ele>228.6</ele><time>2026-05-03T12:46:52.003Z</time></trkpt><trkpt lat="45.44037540142102" lon="7.914230144683849"><ele>228.2</ele><time>2026-05-03T12:46:53.003Z</time></trkpt><trkpt lat="45.44033221889039" lon="7.9140752666483865"><ele>227.79999999999998</ele><time>2026-05-03T12:46:54.003Z</time></trkpt><trkpt lat="45.44028641855189" lon="7.913950536013411"><ele>227.39999999999998</ele><time>2026-05-03T12:46:55.003Z</time></trkpt><trkpt lat="45.44024361061852" lon="7.91384642465717"><ele>227.0</ele><time>2026-05-03T12:46:56.003Z</time></trkpt><trkpt lat="45.440201655728025" lon="7.913760139896433"><ele>227.0</ele><time>2026-05-03T12:46:57.003Z</time></trkpt><trkpt lat="45.44007579063623" lon="7.913761397917332"><ele>227.0</ele><time>2026-05-03T12:46:59.003Z</time></trkpt><trkpt lat="45.4399999830196" lon="7.913752885291155"><ele>227.0</ele><time>2026-05-03T12:47:00.003Z</time></trkpt><trkpt lat="45.43989524528806" lon="7.913731399244892"><ele>227.0</ele><time>2026-05-03T12:47:01.003Z</time></trkpt><trkpt lat="45.439768562494855" lon="7.913723398328296"><ele>227.0</ele><time>2026-05-03T12:47:02.003Z</time></trkpt><trkpt lat="45.43963426496948" lon="7.913724183303461"><ele>227.0</ele><time>2026-05-03T12:47:03.003Z</time></trkpt><trkpt lat="45.439525584050344" lon="7.913720191325122"><ele>227.0</ele><time>2026-05-03T12:47:04.003Z</time></trkpt><trkpt lat="45.439426401347184" lon="7.913686883992883"><ele>227.0</ele><time>2026-05-03T12:47:05.003Z</time></trkpt><trkpt lat="45.43933046292085" lon="7.91365210273052"><ele>227.0</ele><time>2026-05-03T12:47:06.003Z</time></trkpt><trkpt lat="45.43924457993078" lon="7.913584690521448"><ele>227.0</ele><time>2026-05-03T12:47:07.003Z</time></trkpt><trkpt lat="45.4391387000295" lon="7.91353785377868"><ele>227.00000000000003</ele><time>2026-05-03T12:47:08.003Z</time></trkpt><trkpt lat="45.43903828872782" lon="7.913499818101401"><ele>227.0</ele><time>2026-05-03T12:47:09.003Z</time></trkpt><trkpt lat="45.4389523980703" lon="7.91345864311966"><ele>227.0</ele><time>2026-05-03T12:47:10.003Z</time></trkpt><trkpt lat="45.43886996666673" lon="7.913414027047445"><ele>227.0</ele><time>2026-05-03T12:47:11.003Z</time></trkpt><trkpt lat="45.43879582725673" lon="7.913382111988998"><ele>227.00000000000003</ele><time>2026-05-03T12:47:12.003Z</time></trkpt><trkpt lat="45.43871419232129" lon="7.913382665288431"><ele>227.0</ele><time>2026-05-03T12:47:13.003Z</time></trkpt><trkpt lat="45.438613677795075" lon="7.91342532301099"><ele>226.75</ele><time>2026-05-03T12:47:14.003Z</time></trkpt><trkpt lat="45.43850669132783" lon="7.913487648343566"><ele>226.5</ele><time>2026-05-03T12:47:15.003Z</time></trkpt><trkpt lat="45.43840446311303" lon="7.9135376373314195"><ele>226.25</ele><time>2026-05-03T12:47:16.003Z</time></trkpt><trkpt lat="45.438291559512066" lon="7.913584214218718"><ele>226.0</ele><time>2026-05-03T12:47:17.003Z</time></trkpt><trkpt lat="45.43818536393272" lon="7.913631982982008"><ele>226.0</ele><time>2026-05-03T12:47:18.003Z</time></trkpt><trkpt lat="45.438077236991205" lon="7.913687574437544"><ele>226.00000000000003</ele><time>2026-05-03T12:47:19.003Z</time></trkpt><trkpt lat="45.43798369826138" lon="7.913747764464"><ele>226.00000000000003</ele><time>2026-05-03T12:47:20.003Z</time></trkpt><trkpt lat="45.43789510917484" lon="7.91381058547755"><ele>226.0</ele><time>2026-05-03T12:47:21.003Z</time></trkpt><trkpt lat="45.43780201094219" lon="7.913907540027904"><ele>226.0</ele><time>2026-05-03T12:47:22.003Z</time></trkpt><trkpt lat="45.43772281765797" lon="7.914013417998363"><ele>226.20000000000002</ele><time>2026-05-03T12:47:23.003Z</time></trkpt><trkpt lat="45.437639450806614" lon="7.914085682779022"><ele>226.40000000000003</ele><time>2026-05-03T12:47:24.003Z</time></trkpt><trkpt lat="45.43756022778164" lon="7.914148326859557"><ele>226.6</ele><time>2026-05-03T12:47:25.003Z</time></trkpt><trkpt lat="45.43746451375585" lon="7.914193759837924"><ele>226.8</ele><time>2026-05-03T12:47:26.003Z</time></trkpt><trkpt lat="45.437370431386825" lon="7.914243258732262"><ele>227.0</ele><time>2026-05-03T12:47:27.003Z</time></trkpt><trkpt lat="45.437274607861156" lon="7.914300105802311"><ele>227.39999999999998</ele><time>2026-05-03T12:47:28.003Z</time></trkpt><trkpt lat="45.43717606308624" lon="7.914354860430877"><ele>227.79999999999998</ele><time>2026-05-03T12:47:29.003Z</time></trkpt><trkpt lat="45.43709028837339" lon="7.9144040649062495"><ele>228.2</ele><time>2026-05-03T12:47:30.003Z</time></trkpt><trkpt lat="45.437000771429304" lon="7.914456918939651"><ele>228.6</ele><time>2026-05-03T12:47:31.003Z</time></trkpt><trkpt lat="45.43690777446762" lon="7.91452334819504"><ele>229.0</ele><time>2026-05-03T12:47:32.003Z</time></trkpt><trkpt lat="45.43681550436029" lon="7.914587781944105"><ele>229.0</ele><time>2026-05-03T12:47:33.003Z</time></trkpt><trkpt lat="45.43671569565304" lon="7.914648035486346"><ele>228.99999999999997</ele><time>2026-05-03T12:47:34.003Z</time></trkpt><trkpt lat="45.43663136655638" lon="7.914729314827382"><ele>228.99999999999997</ele><time>2026-05-03T12:47:35.003Z</time></trkpt><trkpt lat="45.43653389482707" lon="7.914794252276358"><ele>229.0</ele><time>2026-05-03T12:47:36.003Z</time></trkpt><trkpt lat="45.436444482035334" lon="7.914847124314812"><ele>229.0</ele><time>2026-05-03T12:47:37.003Z</time></trkpt><trkpt lat="45.43635721756881" lon="7.914901245674029"><ele>228.79999999999998</ele><time>2026-05-03T12:47:38.003Z</time></trkpt><trkpt lat="45.43626546060567" lon="7.914959828509991"><ele>228.59999999999997</ele><time>2026-05-03T12:47:39.003Z</time></trkpt><trkpt lat="45.43617384245922" lon="7.915016085059644"><ele>228.4</ele><time>2026-05-03T12:47:40.003Z</time></trkpt><trkpt lat="45.43608051603532" lon="7.915074150402631"><ele>228.2</ele><time>2026-05-03T12:47:41.003Z</time></trkpt><trkpt lat="45.435984163220404" lon="7.915106218131245"><ele>228.0</ele><time>2026-05-03T12:47:42.003Z</time></trkpt><trkpt lat="45.43589307673058" lon="7.915182407634784"><ele>227.8</ele><time>2026-05-03T12:47:43.003Z</time></trkpt><trkpt lat="45.43579253934149" lon="7.915244400223273"><ele>227.60000000000002</ele><time>2026-05-03T12:47:44.003Z</time></trkpt><trkpt lat="45.4356957605823" lon="7.9152842325032635"><ele>227.39999999999998</ele><time>2026-05-03T12:47:45.003Z</time></trkpt><trkpt lat="45.43560785404511" lon="7.915356436214057"><ele>227.2</ele><time>2026-05-03T12:47:46.003Z</time></trkpt><trkpt lat="45.43551372150191" lon="7.915416230238743"><ele>227.0</ele><time>2026-05-03T12:47:47.003Z</time></trkpt><trkpt lat="45.43542592166759" lon="7.915476984158051"><ele>227.39999999999998</ele><time>2026-05-03T12:47:48.003Z</time></trkpt><trkpt lat="45.435334287079" lon="7.915537113177789"><ele>227.79999999999998</ele><time>2026-05-03T12:47:49.003Z</time></trkpt><trkpt lat="45.43524368960866" lon="7.915602785563875"><ele>228.2</ele><time>2026-05-03T12:47:50.003Z</time></trkpt><trkpt lat="45.4351486483011" lon="7.915655387846701"><ele>228.6</ele><time>2026-05-03T12:47:51.003Z</time></trkpt><trkpt lat="45.43506109382851" lon="7.915717925630977"><ele>229.0</ele><time>2026-05-03T12:47:52.003Z</time></trkpt><trkpt lat="45.43496607608456" lon="7.915772860755272"><ele>229.0</ele><time>2026-05-03T12:47:53.003Z</time></trkpt><trkpt lat="45.4348746337289" lon="7.915831996456159"><ele>228.99999999999997</ele><time>2026-05-03T12:47:54.003Z</time></trkpt><trkpt lat="45.43477898474736" lon="7.915892256838809"><ele>228.99999999999997</ele><time>2026-05-03T12:47:55.003Z</time></trkpt><trkpt lat="45.434693237616266" lon="7.915948212298893"><ele>229.0</ele><time>2026-05-03T12:47:56.003Z</time></trkpt><trkpt lat="45.43459804577021" lon="7.915991199351035"><ele>229.0</ele><time>2026-05-03T12:47:57.003Z</time></trkpt><trkpt lat="45.434514106514655" lon="7.91607035064601"><ele>228.6</ele><time>2026-05-03T12:47:58.003Z</time></trkpt><trkpt lat="45.43442427024393" lon="7.916135647036805"><ele>228.2</ele><time>2026-05-03T12:47:59.003Z</time></trkpt><trkpt lat="45.43433179125398" lon="7.91619750468434"><ele>227.79999999999998</ele><time>2026-05-03T12:48:00.003Z</time></trkpt><trkpt lat="45.434249217901986" lon="7.916271400807586"><ele>227.39999999999998</ele><time>2026-05-03T12:48:01.003Z</time></trkpt><trkpt lat="45.43417310912316" lon="7.9163485260964706"><ele>227.0</ele><time>2026-05-03T12:48:02.003Z</time></trkpt><trkpt lat="45.43409652987194" lon="7.916435629973717"><ele>227.0</ele><time>2026-05-03T12:48:03.003Z</time></trkpt><trkpt lat="45.434010475838726" lon="7.916505129939329"><ele>227.0</ele><time>2026-05-03T12:48:04.003Z</time></trkpt><trkpt lat="45.433923923482" lon="7.916590129603701"><ele>227.0</ele><time>2026-05-03T12:48:05.003Z</time></trkpt><trkpt lat="45.43383625683853" lon="7.9166664887888185"><ele>227.0</ele><time>2026-05-03T12:48:06.003Z</time></trkpt><trkpt lat="45.43375135481949" lon="7.916739044885392"><ele>227.0</ele><time>2026-05-03T12:48:07.003Z</time></trkpt><trkpt lat="45.43367153202739" lon="7.916830234856334"><ele>226.6</ele><time>2026-05-03T12:48:08.003Z</time></trkpt><trkpt lat="45.43357500005221" lon="7.91690190370727"><ele>226.2</ele><time>2026-05-03T12:48:09.003Z</time></trkpt><trkpt lat="45.433476323423534" lon="7.916949269783906"><ele>225.8</ele><time>2026-05-03T12:48:10.003Z</time></trkpt><trkpt lat="45.43338323225772" lon="7.917008118938429"><ele>225.4</ele><time>2026-05-03T12:48:11.003Z</time></trkpt><trkpt lat="45.433285902814596" lon="7.917063288374861"><ele>225.0</ele><time>2026-05-03T12:48:12.003Z</time></trkpt><trkpt lat="45.43319311904018" lon="7.91711289785562"><ele>225.0</ele><time>2026-05-03T12:48:13.003Z</time></trkpt><trkpt lat="45.43310123721084" lon="7.917162024971353"><ele>225.0</ele><time>2026-05-03T12:48:14.003Z</time></trkpt><trkpt lat="45.433006564608455" lon="7.917234675958582"><ele>225.0</ele><time>2026-05-03T12:48:15.003Z</time></trkpt><trkpt lat="45.43291938436782" lon="7.9172852099991395"><ele>225.0</ele><time>2026-05-03T12:48:16.003Z</time></trkpt><trkpt lat="45.43282845866584" lon="7.91733529872229"><ele>225.0</ele><time>2026-05-03T12:48:17.003Z</time></trkpt><trkpt lat="45.432739990337446" lon="7.917390293856305"><ele>225.16666666666666</ele><time>2026-05-03T12:48:18.003Z</time></trkpt><trkpt lat="45.43265563451729" lon="7.917444097493376"><ele>225.33333333333331</ele><time>2026-05-03T12:48:19.003Z</time></trkpt><trkpt lat="45.43256549085712" lon="7.9174907034146065"><ele>225.5</ele><time>2026-05-03T12:48:20.003Z</time></trkpt><trkpt lat="45.43247316207077" lon="7.91752591151831"><ele>225.66666666666666</ele><time>2026-05-03T12:48:21.003Z</time></trkpt><trkpt lat="45.43239366110315" lon="7.917568957464616"><ele>225.83333333333331</ele><time>2026-05-03T12:48:22.003Z</time></trkpt><trkpt lat="45.43232165182735" lon="7.917604469917335"><ele>226.0</ele><time>2026-05-03T12:48:23.003Z</time></trkpt><trkpt lat="45.43225594851857" lon="7.917636025072883"><ele>226.0</ele><time>2026-05-03T12:48:24.003Z</time></trkpt><trkpt lat="45.43219763472443" lon="7.917688992425942"><ele>226.00000000000003</ele><time>2026-05-03T12:48:25.003Z</time></trkpt><trkpt lat="45.432118566948816" lon="7.917691201546969"><ele>226.00000000000003</ele><time>2026-05-03T12:48:27.003Z</time></trkpt><trkpt lat="45.43212576711532" lon="7.917499291303534"><ele>226.0</ele><time>2026-05-03T12:48:34.003Z</time></trkpt><trkpt lat="45.432113377602384" lon="7.917365133247399"><ele>226.0</ele><time>2026-05-03T12:48:37.003Z</time></trkpt><trkpt lat="45.43210261934434" lon="7.917249565883021"><ele>225.99999999999997</ele><time>2026-05-03T12:48:39.003Z</time></trkpt><trkpt lat="45.43208988868157" lon="7.917141584622993"><ele>226.0</ele><time>2026-05-03T12:48:41.003Z</time></trkpt><trkpt lat="45.43205770950536" lon="7.917016918723887"><ele>226.0</ele><time>2026-05-03T12:48:44.003Z</time></trkpt><trkpt lat="45.432042081220985" lon="7.916920654379027"><ele>226.0</ele><time>2026-05-03T12:48:46.003Z</time></trkpt><trkpt lat="45.432026140291406" lon="7.916811432301831"><ele>225.99999999999997</ele><time>2026-05-03T12:48:48.003Z</time></trkpt><trkpt lat="45.43202991446052" lon="7.916718843287465"><ele>226.0</ele><time>2026-05-03T12:48:50.003Z</time></trkpt><trkpt lat="45.432015290419834" lon="7.916582623081219"><ele>226.16666666666666</ele><time>2026-05-03T12:49:20.004Z</time></trkpt><trkpt lat="45.43198505915687" lon="7.916452633560677"><ele>226.33333333333331</ele><time>2026-05-03T12:49:22.004Z</time></trkpt><trkpt lat="45.43190187372508" lon="7.916371659325272"><ele>226.5</ele><time>2026-05-03T12:49:24.004Z</time></trkpt><trkpt lat="45.43182087404471" lon="7.9163315806417405"><ele>226.66666666666669</ele><time>2026-05-03T12:49:26.004Z</time></trkpt><trkpt lat="45.43175433439185" lon="7.916303907312312"><ele>226.83333333333334</ele><time>2026-05-03T12:49:28.004Z</time></trkpt><trkpt lat="45.4316751334463" lon="7.916261957792951"><ele>227.0</ele><time>2026-05-03T12:49:30.004Z</time></trkpt><trkpt lat="45.43157308051257" lon="7.916178305545421"><ele>227.00000000000003</ele><time>2026-05-03T12:49:32.004Z</time></trkpt><trkpt lat="45.431520279147826" lon="7.916121231693289"><ele>227.0</ele><time>2026-05-03T12:49:33.004Z</time></trkpt><trkpt lat="45.43147703870626" lon="7.9160540011258975"><ele>227.0</ele><time>2026-05-03T12:49:34.004Z</time></trkpt><trkpt lat="45.4314411136598" lon="7.915930917401901"><ele>227.0</ele><time>2026-05-03T12:49:35.004Z</time></trkpt><trkpt lat="45.4313822691256" lon="7.915815792759369"><ele>227.00000000000003</ele><time>2026-05-03T12:49:36.004Z</time></trkpt><trkpt lat="45.43132579736561" lon="7.915673946283161"><ele>227.0</ele><time>2026-05-03T12:49:37.004Z</time></trkpt><trkpt lat="45.43124467991717" lon="7.915533909559097"><ele>226.75</ele><time>2026-05-03T12:49:38.004Z</time></trkpt><trkpt lat="45.43118573132965" lon="7.915367216808521"><ele>226.5</ele><time>2026-05-03T12:49:39.004Z</time></trkpt><trkpt lat="45.43112210637657" lon="7.9151959670650305"><ele>226.25</ele><time>2026-05-03T12:49:40.004Z</time></trkpt><trkpt lat="45.431073007726354" lon="7.915010420141331"><ele>226.0</ele><time>2026-05-03T12:49:41.004Z</time></trkpt><trkpt lat="45.43104790492177" lon="7.914833786036329"><ele>226.0</ele><time>2026-05-03T12:49:42.004Z</time></trkpt><trkpt lat="45.4310445450533" lon="7.914638150078987"><ele>226.0</ele><time>2026-05-03T12:49:43.004Z</time></trkpt><trkpt lat="45.43104239091836" lon="7.914428797011009"><ele>226.0</ele><time>2026-05-03T12:49:44.004Z</time></trkpt><trkpt lat="45.43102096269081" lon="7.914189958965225"><ele>225.25</ele><time>2026-05-03T12:49:45.004Z</time></trkpt><trkpt lat="45.43098896650817" lon="7.91396784101689"><ele>224.5</ele><time>2026-05-03T12:49:46.004Z</time></trkpt><trkpt lat="45.43096198042979" lon="7.913782668287579"><ele>223.75</ele><time>2026-05-03T12:49:47.004Z</time></trkpt><trkpt lat="45.43093960120671" lon="7.913635546853424"><ele>223.0</ele><time>2026-05-03T12:49:48.004Z</time></trkpt><trkpt lat="45.430909604346716" lon="7.913526776324111"><ele>223.0</ele><time>2026-05-03T12:49:49.004Z</time></trkpt><trkpt lat="45.430826317337754" lon="7.913423273420432"><ele>223.0</ele><time>2026-05-03T12:49:51.004Z</time></trkpt><trkpt lat="45.4306810129409" lon="7.913451874397342"><ele>223.0</ele><time>2026-05-03T12:49:52.004Z</time></trkpt><trkpt lat="45.43055442255906" lon="7.913484115036253"><ele>223.0</ele><time>2026-05-03T12:49:53.004Z</time></trkpt><trkpt lat="45.43040802624547" lon="7.913537983055384"><ele>221.33333333333331</ele><time>2026-05-03T12:49:54.004Z</time></trkpt><trkpt lat="45.43025296170929" lon="7.913581687138421"><ele>219.66666666666669</ele><time>2026-05-03T12:49:55.004Z</time></trkpt><trkpt lat="45.43009770318004" lon="7.913622604335751"><ele>218.0</ele><time>2026-05-03T12:49:56.004Z</time></trkpt><trkpt lat="45.42992416297974" lon="7.913663035402355"><ele>218.0</ele><time>2026-05-03T12:49:57.004Z</time></trkpt><trkpt lat="45.42976619638454" lon="7.9137032922558275"><ele>218.0</ele><time>2026-05-03T12:49:58.004Z</time></trkpt><trkpt lat="45.42959716263594" lon="7.913773880697141"><ele>218.0</ele><time>2026-05-03T12:49:59.004Z</time></trkpt><trkpt lat="45.429435783820146" lon="7.913842304434891"><ele>219.33333333333334</ele><time>2026-05-03T12:50:00.004Z</time></trkpt><trkpt lat="45.42926751247446" lon="7.913921397208739"><ele>220.66666666666669</ele><time>2026-05-03T12:50:01.004Z</time></trkpt><trkpt lat="45.42910144473409" lon="7.914016523952149"><ele>222.0</ele><time>2026-05-03T12:50:02.004Z</time></trkpt><trkpt lat="45.42893200386879" lon="7.914126957100116"><ele>223.0</ele><time>2026-05-03T12:50:03.004Z</time></trkpt><trkpt lat="45.428762540695914" lon="7.914228721199668"><ele>224.0</ele><time>2026-05-03T12:50:04.004Z</time></trkpt><trkpt lat="45.428592042050234" lon="7.914309746506989"><ele>225.0</ele><time>2026-05-03T12:50:05.004Z</time></trkpt><trkpt lat="45.42842534539996" lon="7.91437617645341"><ele>225.0</ele><time>2026-05-03T12:50:06.004Z</time></trkpt><trkpt lat="45.428251278688975" lon="7.914442021665943"><ele>225.0</ele><time>2026-05-03T12:50:07.004Z</time></trkpt><trkpt lat="45.42808170005309" lon="7.914506169121128"><ele>225.0</ele><time>2026-05-03T12:50:08.004Z</time></trkpt><trkpt lat="45.42791740745733" lon="7.914572566017454"><ele>224.66666666666669</ele><time>2026-05-03T12:50:09.004Z</time></trkpt><trkpt lat="45.42775224247017" lon="7.914649908059414"><ele>224.33333333333334</ele><time>2026-05-03T12:50:10.004Z</time></trkpt><trkpt lat="45.42758657502556" lon="7.914719249038504"><ele>224.0</ele><time>2026-05-03T12:50:11.004Z</time></trkpt><trkpt lat="45.42743295316427" lon="7.914831882978986"><ele>224.0</ele><time>2026-05-03T12:50:12.004Z</time></trkpt><trkpt lat="45.42726146085748" lon="7.914913839075353"><ele>224.0</ele><time>2026-05-03T12:50:13.004Z</time></trkpt><trkpt lat="45.42711415935498" lon="7.915015792063064"><ele>224.0</ele><time>2026-05-03T12:50:14.004Z</time></trkpt><trkpt lat="45.42696792650508" lon="7.915112221332933"><ele>224.0</ele><time>2026-05-03T12:50:15.004Z</time></trkpt><trkpt lat="45.42681614482467" lon="7.915192505732902"><ele>224.0</ele><time>2026-05-03T12:50:16.004Z</time></trkpt><trkpt lat="45.42665440833692" lon="7.915288335636338"><ele>224.0</ele><time>2026-05-03T12:50:17.004Z</time></trkpt><trkpt lat="45.426496979468915" lon="7.9153832975485905"><ele>224.0</ele><time>2026-05-03T12:50:18.004Z</time></trkpt><trkpt lat="45.4263396636903" lon="7.915472492955037"><ele>224.0</ele><time>2026-05-03T12:50:19.004Z</time></trkpt><trkpt lat="45.426178299398394" lon="7.91556872956942"><ele>224.0</ele><time>2026-05-03T12:50:20.004Z</time></trkpt><trkpt lat="45.426021171366436" lon="7.915664607827975"><ele>224.0</ele><time>2026-05-03T12:50:21.004Z</time></trkpt><trkpt lat="45.42586787436161" lon="7.915767148171778"><ele>224.0</ele><time>2026-05-03T12:50:22.004Z</time></trkpt><trkpt lat="45.42572546501421" lon="7.915898585757649"><ele>224.0</ele><time>2026-05-03T12:50:23.004Z</time></trkpt><trkpt lat="45.42557069207954" lon="7.916010639127555"><ele>224.0</ele><time>2026-05-03T12:50:24.004Z</time></trkpt><trkpt lat="45.425429333500645" lon="7.9161501407356365"><ele>224.0</ele><time>2026-05-03T12:50:25.004Z</time></trkpt><trkpt lat="45.425284208780326" lon="7.916286324925831"><ele>224.0</ele><time>2026-05-03T12:50:26.004Z</time></trkpt><trkpt lat="45.42514636950119" lon="7.91642307898821"><ele>224.0</ele><time>2026-05-03T12:50:27.004Z</time></trkpt><trkpt lat="45.42499611231513" lon="7.916563544732439"><ele>224.0</ele><time>2026-05-03T12:50:28.004Z</time></trkpt><trkpt lat="45.424835535495504" lon="7.916648526271046"><ele>224.0</ele><time>2026-05-03T12:50:29.004Z</time></trkpt><trkpt lat="45.42468168669055" lon="7.916724918905337"><ele>223.33333333333334</ele><time>2026-05-03T12:50:30.004Z</time></trkpt><trkpt lat="45.42452135672662" lon="7.916796059001278"><ele>222.66666666666669</ele><time>2026-05-03T12:50:31.004Z</time></trkpt><trkpt lat="45.424365217364624" lon="7.916868153478545"><ele>222.0</ele><time>2026-05-03T12:50:32.004Z</time></trkpt><trkpt lat="45.42420127326755" lon="7.9169507383490725"><ele>222.0</ele><time>2026-05-03T12:50:33.004Z</time></trkpt><trkpt lat="45.424048092087645" lon="7.917063672661514"><ele>222.0</ele><time>2026-05-03T12:50:34.004Z</time></trkpt><trkpt lat="45.42389955988182" lon="7.917156845010445"><ele>222.0</ele><time>2026-05-03T12:50:35.004Z</time></trkpt><trkpt lat="45.423807850658044" lon="7.917290354230018"><ele>222.0</ele><time>2026-05-03T12:50:36.004Z</time></trkpt><trkpt lat="45.423743457605546" lon="7.917418834227239"><ele>222.0</ele><time>2026-05-03T12:50:37.004Z</time></trkpt><trkpt lat="45.42366468419847" lon="7.917588633540618"><ele>222.0</ele><time>2026-05-03T12:50:38.004Z</time></trkpt><trkpt lat="45.4235800783175" lon="7.917759173578601"><ele>222.0</ele><time>2026-05-03T12:50:39.004Z</time></trkpt><trkpt lat="45.42347137071743" lon="7.9178873650554795"><ele>222.25</ele><time>2026-05-03T12:50:40.004Z</time></trkpt><trkpt lat="45.423368561481865" lon="7.917971881593625"><ele>222.5</ele><time>2026-05-03T12:50:41.004Z</time></trkpt><trkpt lat="45.423258249162615" lon="7.918071129149853"><ele>222.75</ele><time>2026-05-03T12:50:42.004Z</time></trkpt><trkpt lat="45.42315590281542" lon="7.918165219052701"><ele>223.0</ele><time>2026-05-03T12:50:43.004Z</time></trkpt><trkpt lat="45.42304840937258" lon="7.91824913744503"><ele>223.0</ele><time>2026-05-03T12:50:44.004Z</time></trkpt><trkpt lat="45.42294027896724" lon="7.918325084424699"><ele>223.0</ele><time>2026-05-03T12:50:45.004Z</time></trkpt><trkpt lat="45.422834082234125" lon="7.918404220173098"><ele>223.0</ele><time>2026-05-03T12:50:46.004Z</time></trkpt><trkpt lat="45.42272121957645" lon="7.918449683050592"><ele>223.0</ele><time>2026-05-03T12:50:47.004Z</time></trkpt><trkpt lat="45.42261846515777" lon="7.918511854084596"><ele>223.0</ele><time>2026-05-03T12:50:48.004Z</time></trkpt><trkpt lat="45.422508845655805" lon="7.918575951586554"><ele>223.0</ele><time>2026-05-03T12:50:49.004Z</time></trkpt><trkpt lat="45.42239410832346" lon="7.918626008065778"><ele>223.0</ele><time>2026-05-03T12:50:50.004Z</time></trkpt><trkpt lat="45.422275246588555" lon="7.918701353176814"><ele>223.0</ele><time>2026-05-03T12:50:51.004Z</time></trkpt><trkpt lat="45.42215507961285" lon="7.918753429076101"><ele>223.0</ele><time>2026-05-03T12:50:52.004Z</time></trkpt><trkpt lat="45.42203086162757" lon="7.91881638528851"><ele>223.0</ele><time>2026-05-03T12:50:53.004Z</time></trkpt><trkpt lat="45.421934322336924" lon="7.918938446648971"><ele>223.0</ele><time>2026-05-03T12:50:54.004Z</time></trkpt><trkpt lat="45.42184966171085" lon="7.919044242558073"><ele>223.0</ele><time>2026-05-03T12:50:55.004Z</time></trkpt><trkpt lat="45.421741001170396" lon="7.919141194279834"><ele>223.0</ele><time>2026-05-03T12:50:56.004Z</time></trkpt><trkpt lat="45.42162139984515" lon="7.919233416128926"><ele>223.0</ele><time>2026-05-03T12:50:57.004Z</time></trkpt><trkpt lat="45.42151436368361" lon="7.91935766728505"><ele>223.0</ele><time>2026-05-03T12:50:58.004Z</time></trkpt><trkpt lat="45.42139936971313" lon="7.919470460962826"><ele>223.0</ele><time>2026-05-03T12:50:59.004Z</time></trkpt><trkpt lat="45.421301416994716" lon="7.91960540830557"><ele>223.0</ele><time>2026-05-03T12:51:00.004Z</time></trkpt><trkpt lat="45.4212167625916" lon="7.919756519443815"><ele>223.0</ele><time>2026-05-03T12:51:01.004Z</time></trkpt><trkpt lat="45.42114673519878" lon="7.919912627039323"><ele>223.0</ele><time>2026-05-03T12:51:02.004Z</time></trkpt><trkpt lat="45.42107006557037" lon="7.920069425778861"><ele>223.0</ele><time>2026-05-03T12:51:03.004Z</time></trkpt><trkpt lat="45.42097941634796" lon="7.920220681491996"><ele>223.0</ele><time>2026-05-03T12:51:04.004Z</time></trkpt><trkpt lat="45.420916457100965" lon="7.920387816379602"><ele>223.0</ele><time>2026-05-03T12:51:05.004Z</time></trkpt><trkpt lat="45.42083430251228" lon="7.920548522221926"><ele>223.0</ele><time>2026-05-03T12:51:06.004Z</time></trkpt><trkpt lat="45.420750526913636" lon="7.920719910693145"><ele>223.0</ele><time>2026-05-03T12:51:07.004Z</time></trkpt><trkpt lat="45.42066405497024" lon="7.920886543210851"><ele>223.0</ele><time>2026-05-03T12:51:08.004Z</time></trkpt><trkpt lat="45.420553917018275" lon="7.921010224137539"><ele>223.0</ele><time>2026-05-03T12:51:09.004Z</time></trkpt><trkpt lat="45.420463377063854" lon="7.9211096289008145"><ele>223.0</ele><time>2026-05-03T12:51:10.004Z</time></trkpt><trkpt lat="45.420371267117176" lon="7.9211950554293"><ele>223.0</ele><time>2026-05-03T12:51:11.004Z</time></trkpt><trkpt lat="45.42027369340931" lon="7.921244474764039"><ele>223.2</ele><time>2026-05-03T12:51:12.004Z</time></trkpt><trkpt lat="45.42017637494972" lon="7.921267334518285"><ele>223.4</ele><time>2026-05-03T12:51:13.004Z</time></trkpt><trkpt lat="45.420070211042194" lon="7.921293268082825"><ele>223.59999999999997</ele><time>2026-05-03T12:51:14.004Z</time></trkpt><trkpt lat="45.41998104700703" lon="7.9213177262620595"><ele>223.79999999999998</ele><time>2026-05-03T12:51:15.004Z</time></trkpt><trkpt lat="45.4198752089309" lon="7.921343854490485"><ele>224.0</ele><time>2026-05-03T12:51:16.004Z</time></trkpt><trkpt lat="45.41976745596393" lon="7.921369549894188"><ele>224.0</ele><time>2026-05-03T12:51:17.004Z</time></trkpt><trkpt lat="45.41965355917827" lon="7.92142068141838"><ele>224.0</ele><time>2026-05-03T12:51:18.004Z</time></trkpt><trkpt lat="45.41953987948683" lon="7.921447791636368"><ele>224.0</ele><time>2026-05-03T12:51:19.004Z</time></trkpt><trkpt lat="45.41942549508258" lon="7.921475058641427"><ele>224.0</ele><time>2026-05-03T12:51:20.004Z</time></trkpt><trkpt lat="45.419309034794345" lon="7.921555186336145"><ele>224.0</ele><time>2026-05-03T12:51:21.004Z</time></trkpt><trkpt lat="45.419207812339366" lon="7.921642683903824"><ele>224.0</ele><time>2026-05-03T12:51:22.004Z</time></trkpt><trkpt lat="45.41911489725867" lon="7.9217451473633655"><ele>224.0</ele><time>2026-05-03T12:51:23.004Z</time></trkpt><trkpt lat="45.419028997441686" lon="7.9218688401339"><ele>224.0</ele><time>2026-05-03T12:51:24.004Z</time></trkpt><trkpt lat="45.418960557252255" lon="7.921992868791638"><ele>224.0</ele><time>2026-05-03T12:51:25.004Z</time></trkpt><trkpt lat="45.418906466938026" lon="7.922124796470007"><ele>224.0</ele><time>2026-05-03T12:51:26.004Z</time></trkpt><trkpt lat="45.41884528341979" lon="7.922271237524962"><ele>224.0</ele><time>2026-05-03T12:51:27.004Z</time></trkpt><trkpt lat="45.41877690486878" lon="7.922410800594568"><ele>224.0</ele><time>2026-05-03T12:51:28.004Z</time></trkpt><trkpt lat="45.41870630011895" lon="7.922548909446626"><ele>224.0</ele><time>2026-05-03T12:51:29.004Z</time></trkpt><trkpt lat="45.41863698659057" lon="7.922704379210681"><ele>224.0</ele><time>2026-05-03T12:51:30.004Z</time></trkpt><trkpt lat="45.41857065209094" lon="7.922852814177732"><ele>224.0</ele><time>2026-05-03T12:51:31.004Z</time></trkpt><trkpt lat="45.418488598350855" lon="7.922973478969027"><ele>224.0</ele><time>2026-05-03T12:51:32.004Z</time></trkpt><trkpt lat="45.41841736999433" lon="7.9231054790236115"><ele>224.0</ele><time>2026-05-03T12:51:33.004Z</time></trkpt><trkpt lat="45.41835019362755" lon="7.9232261389864265"><ele>223.99999999999997</ele><time>2026-05-03T12:51:34.004Z</time></trkpt><trkpt lat="45.4182771449324" lon="7.923351406575177"><ele>223.99999999999997</ele><time>2026-05-03T12:51:35.004Z</time></trkpt><trkpt lat="45.41820214434293" lon="7.923467822099378"><ele>224.0</ele><time>2026-05-03T12:51:36.005Z</time></trkpt><trkpt lat="45.41812262417633" lon="7.9235726938981115"><ele>224.0</ele><time>2026-05-03T12:51:37.005Z</time></trkpt><trkpt lat="45.418035380019326" lon="7.923666613309179"><ele>223.6</ele><time>2026-05-03T12:51:38.005Z</time></trkpt><trkpt lat="45.41794439277674" lon="7.92374757850331"><ele>223.2</ele><time>2026-05-03T12:51:39.005Z</time></trkpt><trkpt lat="45.41785656043251" lon="7.92384942890288"><ele>222.79999999999998</ele><time>2026-05-03T12:51:40.005Z</time></trkpt><trkpt lat="45.41776831832807" lon="7.923943723475907"><ele>222.39999999999998</ele><time>2026-05-03T12:51:41.005Z</time></trkpt><trkpt lat="45.41767071779596" lon="7.924030972571758"><ele>222.0</ele><time>2026-05-03T12:51:42.005Z</time></trkpt><trkpt lat="45.41757502507396" lon="7.924121329259157"><ele>222.0</ele><time>2026-05-03T12:51:43.005Z</time></trkpt><trkpt lat="45.41748564153974" lon="7.924224903648677"><ele>222.0</ele><time>2026-05-03T12:51:44.005Z</time></trkpt><trkpt lat="45.417385335686724" lon="7.9242985356548665"><ele>222.0</ele><time>2026-05-03T12:51:45.005Z</time></trkpt><trkpt lat="45.417292971482155" lon="7.924386982402536"><ele>222.0</ele><time>2026-05-03T12:51:46.005Z</time></trkpt><trkpt lat="45.41720067816286" lon="7.924475359605665"><ele>222.0</ele><time>2026-05-03T12:51:47.005Z</time></trkpt><trkpt lat="45.417114804980734" lon="7.924585944869761"><ele>222.0</ele><time>2026-05-03T12:51:48.005Z</time></trkpt><trkpt lat="45.41701821756394" lon="7.924661022184412"><ele>222.0</ele><time>2026-05-03T12:51:49.005Z</time></trkpt><trkpt lat="45.41693148757228" lon="7.924752638146995"><ele>222.0</ele><time>2026-05-03T12:51:50.005Z</time></trkpt><trkpt lat="45.416844322796884" lon="7.924837492336447"><ele>222.0</ele><time>2026-05-03T12:51:51.005Z</time></trkpt><trkpt lat="45.41674602082274" lon="7.924911906675492"><ele>222.0</ele><time>2026-05-03T12:51:52.005Z</time></trkpt><trkpt lat="45.41666223014703" lon="7.925019403662179"><ele>222.0</ele><time>2026-05-03T12:51:53.005Z</time></trkpt><trkpt lat="45.416576445319734" lon="7.925101572128632"><ele>222.0</ele><time>2026-05-03T12:51:54.005Z</time></trkpt><trkpt lat="45.4165096910911" lon="7.925195097737709"><ele>222.0</ele><time>2026-05-03T12:51:55.005Z</time></trkpt><trkpt lat="45.41643610357777" lon="7.925288760967419"><ele>222.0</ele><time>2026-05-03T12:51:56.005Z</time></trkpt><trkpt lat="45.41637577251372" lon="7.925390178058384"><ele>222.0</ele><time>2026-05-03T12:51:57.005Z</time></trkpt><trkpt lat="45.416309012240745" lon="7.925493330407411"><ele>222.0</ele><time>2026-05-03T12:51:58.005Z</time></trkpt><trkpt lat="45.41623543888677" lon="7.925593656473304"><ele>222.0</ele><time>2026-05-03T12:51:59.005Z</time></trkpt><trkpt lat="45.41616549129843" lon="7.925706193663764"><ele>222.0</ele><time>2026-05-03T12:52:00.005Z</time></trkpt><trkpt lat="45.41607688755383" lon="7.925805274544655"><ele>222.0</ele><time>2026-05-03T12:52:01.005Z</time></trkpt><trkpt lat="45.416008055740846" lon="7.92590765066268"><ele>222.0</ele><time>2026-05-03T12:52:02.005Z</time></trkpt><trkpt lat="45.41593886828356" lon="7.926010555779771"><ele>222.0</ele><time>2026-05-03T12:52:03.005Z</time></trkpt><trkpt lat="45.41587075997739" lon="7.926134065014107"><ele>222.0</ele><time>2026-05-03T12:52:04.005Z</time></trkpt><trkpt lat="45.415792207456676" lon="7.926254133691316"><ele>222.0</ele><time>2026-05-03T12:52:05.005Z</time></trkpt><trkpt lat="45.415708836971234" lon="7.926366755072595"><ele>222.0</ele><time>2026-05-03T12:52:06.005Z</time></trkpt><trkpt lat="45.41563473342952" lon="7.926476866166808"><ele>222.0</ele><time>2026-05-03T12:52:07.005Z</time></trkpt><trkpt lat="45.41555256430834" lon="7.926579654400139"><ele>222.0</ele><time>2026-05-03T12:52:08.005Z</time></trkpt><trkpt lat="45.41547501009192" lon="7.926685736111585"><ele>222.0</ele><time>2026-05-03T12:52:09.005Z</time></trkpt><trkpt lat="45.415398194225716" lon="7.926791240989175"><ele>222.0</ele><time>2026-05-03T12:52:10.005Z</time></trkpt><trkpt lat="45.41531542338918" lon="7.9269031748691745"><ele>222.0</ele><time>2026-05-03T12:52:11.005Z</time></trkpt><trkpt lat="45.41522813553906" lon="7.926996461018129"><ele>222.39999999999998</ele><time>2026-05-03T12:52:12.005Z</time></trkpt><trkpt lat="45.41514825786507" lon="7.927104404743744"><ele>222.79999999999998</ele><time>2026-05-03T12:52:13.005Z</time></trkpt><trkpt lat="45.41508342785341" lon="7.927222141001756"><ele>223.2</ele><time>2026-05-03T12:52:14.005Z</time></trkpt><trkpt lat="45.41501639965976" lon="7.927318618720402"><ele>223.6</ele><time>2026-05-03T12:52:15.005Z</time></trkpt><trkpt lat="45.41495654862487" lon="7.927405660054873"><ele>224.0</ele><time>2026-05-03T12:52:16.005Z</time></trkpt><trkpt lat="45.41490680053309" lon="7.927480387595749"><ele>224.0</ele><time>2026-05-03T12:52:17.005Z</time></trkpt><trkpt lat="45.41477684552439" lon="7.927495615547542"><ele>223.99999999999997</ele><time>2026-05-03T12:52:19.005Z</time></trkpt><trkpt lat="45.41470326315611" lon="7.927466139875608"><ele>223.99999999999997</ele><time>2026-05-03T12:52:20.005Z</time></trkpt><trkpt lat="45.41463402673182" lon="7.92747092752582"><ele>224.0</ele><time>2026-05-03T12:52:21.005Z</time></trkpt><trkpt lat="45.41454563812499" lon="7.927441226625015"><ele>224.0</ele><time>2026-05-03T12:52:22.005Z</time></trkpt><trkpt lat="45.41445966070818" lon="7.927220853373656"><ele>223.6</ele><time>2026-05-03T12:52:23.005Z</time></trkpt><trkpt lat="45.41436475995063" lon="7.9271735950834215"><ele>223.2</ele><time>2026-05-03T12:52:24.005Z</time></trkpt><trkpt lat="45.41426768341305" lon="7.92713420368207"><ele>222.79999999999998</ele><time>2026-05-03T12:52:25.005Z</time></trkpt><trkpt lat="45.4141694421218" lon="7.9271040181969"><ele>222.39999999999998</ele><time>2026-05-03T12:52:26.005Z</time></trkpt><trkpt lat="45.414067656531785" lon="7.927082803474526"><ele>222.0</ele><time>2026-05-03T12:52:27.005Z</time></trkpt><trkpt lat="45.41396717858251" lon="7.927066615751865"><ele>222.0</ele><time>2026-05-03T12:52:28.005Z</time></trkpt><trkpt lat="45.413865099138384" lon="7.927058236356018"><ele>222.0</ele><time>2026-05-03T12:52:29.005Z</time></trkpt><trkpt lat="45.41375767724399" lon="7.927073448081811"><ele>222.0</ele><time>2026-05-03T12:52:30.005Z</time></trkpt><trkpt lat="45.41365746887326" lon="7.927110149326124"><ele>222.0</ele><time>2026-05-03T12:52:31.005Z</time></trkpt><trkpt lat="45.413556470715406" lon="7.927149616140846"><ele>222.0</ele><time>2026-05-03T12:52:32.005Z</time></trkpt><trkpt lat="45.41344681993432" lon="7.927186918590681"><ele>221.75</ele><time>2026-05-03T12:52:33.005Z</time></trkpt><trkpt lat="45.413327124075735" lon="7.927226515799831"><ele>221.5</ele><time>2026-05-03T12:52:34.005Z</time></trkpt><trkpt lat="45.41320483406832" lon="7.927257142572572"><ele>221.25</ele><time>2026-05-03T12:52:35.005Z</time></trkpt><trkpt lat="45.413086302830386" lon="7.927293271631789"><ele>221.0</ele><time>2026-05-03T12:52:36.005Z</time></trkpt><trkpt lat="45.412968211140985" lon="7.927335969745212"><ele>221.0</ele><time>2026-05-03T12:52:37.005Z</time></trkpt><trkpt lat="45.41284824751266" lon="7.927367419723448"><ele>221.0</ele><time>2026-05-03T12:52:38.005Z</time></trkpt><trkpt lat="45.41271959106657" lon="7.927413718937716"><ele>221.0</ele><time>2026-05-03T12:52:39.005Z</time></trkpt><trkpt lat="45.41259200891848" lon="7.927452889647313"><ele>221.0</ele><time>2026-05-03T12:52:40.005Z</time></trkpt><trkpt lat="45.412461196407655" lon="7.927487672833289"><ele>221.0</ele><time>2026-05-03T12:52:41.005Z</time></trkpt><trkpt lat="45.41232519828272" lon="7.927528831623226"><ele>221.0</ele><time>2026-05-03T12:52:42.005Z</time></trkpt><trkpt lat="45.41218957221361" lon="7.9275677948711625"><ele>221.0</ele><time>2026-05-03T12:52:43.005Z</time></trkpt><trkpt lat="45.412053925489104" lon="7.927607156965609"><ele>221.0</ele><time>2026-05-03T12:52:44.005Z</time></trkpt><trkpt lat="45.411926859927014" lon="7.927631192761939"><ele>221.25</ele><time>2026-05-03T12:52:45.005Z</time></trkpt><trkpt lat="45.41180203950634" lon="7.927667338766098"><ele>221.5</ele><time>2026-05-03T12:52:46.005Z</time></trkpt><trkpt lat="45.411679253522585" lon="7.927713810161264"><ele>221.75</ele><time>2026-05-03T12:52:47.005Z</time></trkpt><trkpt lat="45.41154942279823" lon="7.927764011930663"><ele>222.0</ele><time>2026-05-03T12:52:48.005Z</time></trkpt><trkpt lat="45.41141734973129" lon="7.927810409216529"><ele>222.0</ele><time>2026-05-03T12:52:49.005Z</time></trkpt><trkpt lat="45.41129289592204" lon="7.927845706517875"><ele>222.0</ele><time>2026-05-03T12:52:50.005Z</time></trkpt><trkpt lat="45.411169337713346" lon="7.927873341418557"><ele>222.0</ele><time>2026-05-03T12:52:51.005Z</time></trkpt><trkpt lat="45.411046909954635" lon="7.9279100106073415"><ele>222.0</ele><time>2026-05-03T12:52:52.005Z</time></trkpt><trkpt lat="45.41092206528065" lon="7.927947313966467"><ele>222.0</ele><time>2026-05-03T12:52:53.005Z</time></trkpt><trkpt lat="45.410798708548825" lon="7.92798179357419"><ele>222.0</ele><time>2026-05-03T12:52:54.005Z</time></trkpt><trkpt lat="45.41067699012577" lon="7.92802068970609"><ele>222.0</ele><time>2026-05-03T12:52:55.005Z</time></trkpt><trkpt lat="45.41055088285" lon="7.928064555827784"><ele>222.0</ele><time>2026-05-03T12:52:56.005Z</time></trkpt><trkpt lat="45.410426574387905" lon="7.928101864356057"><ele>221.75</ele><time>2026-05-03T12:52:57.005Z</time></trkpt><trkpt lat="45.41030359041832" lon="7.928139646255927"><ele>221.5</ele><time>2026-05-03T12:52:58.005Z</time></trkpt><trkpt lat="45.41018785631919" lon="7.928171455575781"><ele>221.25</ele><time>2026-05-03T12:52:59.005Z</time></trkpt><trkpt lat="45.410075816451425" lon="7.928208555795955"><ele>221.0</ele><time>2026-05-03T12:53:00.005Z</time></trkpt><trkpt lat="45.40998015658983" lon="7.928227212482934"><ele>221.00000000000003</ele><time>2026-05-03T12:53:01.005Z</time></trkpt><trkpt lat="45.40989361297021" lon="7.928243260352922"><ele>221.0</ele><time>2026-05-03T12:53:02.005Z</time></trkpt><trkpt lat="45.40982103391123" lon="7.928242891311458"><ele>221.0</ele><time>2026-05-03T12:53:03.005Z</time></trkpt><trkpt lat="45.40973652931161" lon="7.928209038319194"><ele>221.0</ele><time>2026-05-03T12:53:05.005Z</time></trkpt><trkpt lat="45.40968138514223" lon="7.928150022736445"><ele>221.00000000000003</ele><time>2026-05-03T12:53:10.005Z</time></trkpt><trkpt lat="45.40961492376393" lon="7.928125471277649"><ele>221.0</ele><time>2026-05-03T12:53:12.005Z</time></trkpt><trkpt lat="45.40953950099648" lon="7.928167738328248"><ele>221.20000000000002</ele><time>2026-05-03T12:53:14.005Z</time></trkpt><trkpt lat="45.40940336450877" lon="7.928197924143148"><ele>221.40000000000003</ele><time>2026-05-03T12:53:16.005Z</time></trkpt><trkpt lat="45.40932278653158" lon="7.9282185370421745"><ele>221.6</ele><time>2026-05-03T12:53:17.005Z</time></trkpt><trkpt lat="45.40924275235159" lon="7.928245692354008"><ele>221.8</ele><time>2026-05-03T12:53:18.005Z</time></trkpt><trkpt lat="45.409146479715154" lon="7.928273001727238"><ele>222.0</ele><time>2026-05-03T12:53:19.005Z</time></trkpt><trkpt lat="45.40903287861353" lon="7.928307108076513"><ele>222.0</ele><time>2026-05-03T12:53:20.005Z</time></trkpt><trkpt lat="45.408907994843524" lon="7.928347360946741"><ele>222.0</ele><time>2026-05-03T12:53:21.005Z</time></trkpt><trkpt lat="45.40877944850555" lon="7.928372604852608"><ele>222.0</ele><time>2026-05-03T12:53:22.005Z</time></trkpt><trkpt lat="45.40864160829844" lon="7.928398558239771"><ele>222.0</ele><time>2026-05-03T12:53:23.005Z</time></trkpt><trkpt lat="45.40848891944872" lon="7.928444054680526"><ele>221.75</ele><time>2026-05-03T12:53:24.005Z</time></trkpt><trkpt lat="45.408330936573364" lon="7.92849871648435"><ele>221.5</ele><time>2026-05-03T12:53:25.005Z</time></trkpt><trkpt lat="45.408185391851056" lon="7.92853889978267"><ele>221.25</ele><time>2026-05-03T12:53:26.005Z</time></trkpt><trkpt lat="45.40806375375906" lon="7.928564629307134"><ele>221.0</ele><time>2026-05-03T12:53:27.005Z</time></trkpt><trkpt lat="45.40795004250863" lon="7.92860923640095"><ele>221.4</ele><time>2026-05-03T12:53:28.005Z</time></trkpt><trkpt lat="45.4078531141841" lon="7.928649227561007"><ele>221.8</ele><time>2026-05-03T12:53:29.005Z</time></trkpt><trkpt lat="45.407759729563" lon="7.928675563024246"><ele>222.20000000000002</ele><time>2026-05-03T12:53:30.005Z</time></trkpt><trkpt lat="45.4076822224051" lon="7.928673530268465"><ele>222.60000000000002</ele><time>2026-05-03T12:53:31.005Z</time></trkpt><trkpt lat="45.40760870600883" lon="7.928670922667834"><ele>223.0</ele><time>2026-05-03T12:53:32.005Z</time></trkpt><trkpt lat="45.40752948398856" lon="7.928571589919107"><ele>223.0</ele><time>2026-05-03T12:53:34.005Z</time></trkpt><trkpt lat="45.40752219659366" lon="7.928448703164917"><ele>223.0</ele><time>2026-05-03T12:53:35.005Z</time></trkpt><trkpt lat="45.407506687719376" lon="7.928289843413721"><ele>223.0</ele><time>2026-05-03T12:53:36.005Z</time></trkpt><trkpt lat="45.407470581881064" lon="7.928103372489114"><ele>223.0</ele><time>2026-05-03T12:53:37.005Z</time></trkpt><trkpt lat="45.407440351977655" lon="7.927922093040021"><ele>223.0</ele><time>2026-05-03T12:53:38.005Z</time></trkpt><trkpt lat="45.40741761573478" lon="7.927744068558131"><ele>223.0</ele><time>2026-05-03T12:53:39.005Z</time></trkpt><trkpt lat="45.40740827861664" lon="7.927569659694749"><ele>223.0</ele><time>2026-05-03T12:53:40.005Z</time></trkpt><trkpt lat="45.40741201825815" lon="7.927386418201831"><ele>223.0</ele><time>2026-05-03T12:53:41.005Z</time></trkpt><trkpt lat="45.40743314484532" lon="7.927208450488506"><ele>222.75</ele><time>2026-05-03T12:53:42.005Z</time></trkpt><trkpt lat="45.40744230117438" lon="7.927035340866894"><ele>222.5</ele><time>2026-05-03T12:53:43.005Z</time></trkpt><trkpt lat="45.40745082588465" lon="7.926876632197878"><ele>222.25</ele><time>2026-05-03T12:53:44.005Z</time></trkpt><trkpt lat="45.40746555249773" lon="7.926713088690517"><ele>222.0</ele><time>2026-05-03T12:53:45.005Z</time></trkpt><trkpt lat="45.40748527049933" lon="7.926555473621137"><ele>222.0</ele><time>2026-05-03T12:53:46.005Z</time></trkpt><trkpt lat="45.407496743379006" lon="7.926405788414697"><ele>222.0</ele><time>2026-05-03T12:53:47.005Z</time></trkpt><trkpt lat="45.40748929612129" lon="7.926250088784257"><ele>222.0</ele><time>2026-05-03T12:53:48.005Z</time></trkpt><trkpt lat="45.40746509941103" lon="7.9260896102892175"><ele>222.0</ele><time>2026-05-03T12:53:49.005Z</time></trkpt><trkpt lat="45.40743357312432" lon="7.9259273594713004"><ele>222.0</ele><time>2026-05-03T12:53:50.005Z</time></trkpt><trkpt lat="45.40741201108891" lon="7.925801600105091"><ele>221.8</ele><time>2026-05-03T12:53:51.005Z</time></trkpt><trkpt lat="45.40737590263533" lon="7.92570178482434"><ele>221.6</ele><time>2026-05-03T12:53:52.005Z</time></trkpt><trkpt lat="45.40730672029115" lon="7.925620018588592"><ele>221.40000000000003</ele><time>2026-05-03T12:53:53.005Z</time></trkpt><trkpt lat="45.40721460242703" lon="7.925561930996065"><ele>221.20000000000002</ele><time>2026-05-03T12:53:54.005Z</time></trkpt><trkpt lat="45.40709352039603" lon="7.925536404379324"><ele>221.0</ele><time>2026-05-03T12:53:55.005Z</time></trkpt><trkpt lat="45.40696840966476" lon="7.925523064243902"><ele>221.5</ele><time>2026-05-03T12:53:56.005Z</time></trkpt><trkpt lat="45.40684034775404" lon="7.92550664816677"><ele>222.0</ele><time>2026-05-03T12:53:57.005Z</time></trkpt><trkpt lat="45.40670564783676" lon="7.925471346353237"><ele>222.5</ele><time>2026-05-03T12:53:58.005Z</time></trkpt><trkpt lat="45.406574460753525" lon="7.925438959797904"><ele>223.0</ele><time>2026-05-03T12:53:59.005Z</time></trkpt><trkpt lat="45.40643340216361" lon="7.925407052674262"><ele>222.25</ele><time>2026-05-03T12:54:00.005Z</time></trkpt><trkpt lat="45.406298674173925" lon="7.925366829805151"><ele>221.5</ele><time>2026-05-03T12:54:01.005Z</time></trkpt><trkpt lat="45.4061710641852" lon="7.925304175104968"><ele>220.75</ele><time>2026-05-03T12:54:02.005Z</time></trkpt><trkpt lat="45.40606034817955" lon="7.925205199948262"><ele>220.0</ele><time>2026-05-03T12:54:03.005Z</time></trkpt><trkpt lat="45.405979690285555" lon="7.92505514315654"><ele>220.0</ele><time>2026-05-03T12:54:04.005Z</time></trkpt><trkpt lat="45.40590903473419" lon="7.924867590465981"><ele>220.0</ele><time>2026-05-03T12:54:05.005Z</time></trkpt><trkpt lat="45.40581849605939" lon="7.924656854109279"><ele>220.0</ele><time>2026-05-03T12:54:06.005Z</time></trkpt><trkpt lat="45.405697434813426" lon="7.924461423498903"><ele>220.0</ele><time>2026-05-03T12:54:07.005Z</time></trkpt><trkpt lat="45.40555997983005" lon="7.924275701882761"><ele>220.0</ele><time>2026-05-03T12:54:08.005Z</time></trkpt><trkpt lat="45.40543446634329" lon="7.924094828582146"><ele>220.0</ele><time>2026-05-03T12:54:09.005Z</time></trkpt><trkpt lat="45.40534163959223" lon="7.923946863438831"><ele>220.2</ele><time>2026-05-03T12:54:10.005Z</time></trkpt><trkpt lat="45.40526657493972" lon="7.923826503679263"><ele>220.4</ele><time>2026-05-03T12:54:11.005Z</time></trkpt><trkpt lat="45.405206340839655" lon="7.9237134353877545"><ele>220.60000000000002</ele><time>2026-05-03T12:54:12.005Z</time></trkpt><trkpt lat="45.405179327342765" lon="7.923595824145715"><ele>220.8</ele><time>2026-05-03T12:54:13.005Z</time></trkpt><trkpt lat="45.40518595347566" lon="7.923467718641795"><ele>221.0</ele><time>2026-05-03T12:54:14.005Z</time></trkpt><trkpt lat="45.405220637581046" lon="7.92332415882188"><ele>221.0</ele><time>2026-05-03T12:54:15.005Z</time></trkpt><trkpt lat="45.40525017695342" lon="7.923178311314368"><ele>221.00000000000003</ele><time>2026-05-03T12:54:16.005Z</time></trkpt><trkpt lat="45.40526909140083" lon="7.9230467697279"><ele>221.00000000000003</ele><time>2026-05-03T12:54:17.005Z</time></trkpt><trkpt lat="45.40529202630783" lon="7.9229110398536715"><ele>221.0</ele><time>2026-05-03T12:54:18.005Z</time></trkpt><trkpt lat="45.40530797641111" lon="7.9227814972611945"><ele>221.0</ele><time>2026-05-03T12:54:19.005Z</time></trkpt><trkpt lat="45.405292207772156" lon="7.922664402260869"><ele>221.0</ele><time>2026-05-03T12:54:20.005Z</time></trkpt><trkpt lat="45.4052445080322" lon="7.922564272867771"><ele>221.00000000000003</ele><time>2026-05-03T12:54:21.006Z</time></trkpt><trkpt lat="45.405177385363935" lon="7.922460668475395"><ele>221.00000000000003</ele><time>2026-05-03T12:54:22.006Z</time></trkpt><trkpt lat="45.405093365081626" lon="7.922371409913401"><ele>221.0</ele><time>2026-05-03T12:54:23.006Z</time></trkpt><trkpt lat="45.40499884858822" lon="7.9223096110604025"><ele>221.0</ele><time>2026-05-03T12:54:24.006Z</time></trkpt><trkpt lat="45.404892500604824" lon="7.922295120661422"><ele>221.0</ele><time>2026-05-03T12:54:25.006Z</time></trkpt><trkpt lat="45.40478042091722" lon="7.92230901619257"><ele>221.00000000000003</ele><time>2026-05-03T12:54:26.006Z</time></trkpt><trkpt lat="45.404672448121275" lon="7.922341136008158"><ele>221.00000000000003</ele><time>2026-05-03T12:54:27.006Z</time></trkpt><trkpt lat="45.40457457694005" lon="7.922364931367225"><ele>221.0</ele><time>2026-05-03T12:54:28.006Z</time></trkpt><trkpt lat="45.40448239832667" lon="7.92236191204217"><ele>221.0</ele><time>2026-05-03T12:54:29.006Z</time></trkpt><trkpt lat="45.40437695546061" lon="7.922322937958434"><ele>220.75</ele><time>2026-05-03T12:54:30.006Z</time></trkpt><trkpt lat="45.4042681489629" lon="7.922257224961434"><ele>220.5</ele><time>2026-05-03T12:54:31.006Z</time></trkpt><trkpt lat="45.40416805306506" lon="7.922164833957232"><ele>220.25</ele><time>2026-05-03T12:54:32.006Z</time></trkpt><trkpt lat="45.40406347913431" lon="7.922075259285381"><ele>220.0</ele><time>2026-05-03T12:54:33.006Z</time></trkpt><trkpt lat="45.403945977682305" lon="7.922016755399608"><ele>220.0</ele><time>2026-05-03T12:54:34.006Z</time></trkpt><trkpt lat="45.40383096067238" lon="7.921962706551116"><ele>220.0</ele><time>2026-05-03T12:54:35.006Z</time></trkpt><trkpt lat="45.40371607908654" lon="7.921914447459773"><ele>220.0</ele><time>2026-05-03T12:54:36.006Z</time></trkpt><trkpt lat="45.40359806850311" lon="7.921867393051278"><ele>220.0</ele><time>2026-05-03T12:54:37.006Z</time></trkpt><trkpt lat="45.403479813996796" lon="7.9218380833538715"><ele>220.0</ele><time>2026-05-03T12:54:38.006Z</time></trkpt><trkpt lat="45.40335792409826" lon="7.921834731675664"><ele>220.0</ele><time>2026-05-03T12:54:39.006Z</time></trkpt><trkpt lat="45.403239301841296" lon="7.921832389428458"><ele>220.0</ele><time>2026-05-03T12:54:40.006Z</time></trkpt><trkpt lat="45.40313640758245" lon="7.921827250187446"><ele>220.0</ele><time>2026-05-03T12:54:41.006Z</time></trkpt><trkpt lat="45.4030525589403" lon="7.921822625848753"><ele>220.0</ele><time>2026-05-03T12:54:42.006Z</time></trkpt><trkpt lat="45.40296906646604" lon="7.921904412781761"><ele>220.0</ele><time>2026-05-03T12:54:44.006Z</time></trkpt><trkpt lat="45.40295807083604" lon="7.922022667231679"><ele>220.0</ele><time>2026-05-03T12:54:45.006Z</time></trkpt><trkpt lat="45.40294616857683" lon="7.922148019014534"><ele>220.0</ele><time>2026-05-03T12:54:46.006Z</time></trkpt><trkpt lat="45.402929729176904" lon="7.922294401811516"><ele>220.0</ele><time>2026-05-03T12:54:47.006Z</time></trkpt><trkpt lat="45.40291438190843" lon="7.922435085713663"><ele>220.0</ele><time>2026-05-03T12:54:48.006Z</time></trkpt><trkpt lat="45.40288670075353" lon="7.922583239216888"><ele>220.0</ele><time>2026-05-03T12:54:49.006Z</time></trkpt><trkpt lat="45.40287162751231" lon="7.922724711958397"><ele>220.0</ele><time>2026-05-03T12:54:50.006Z</time></trkpt><trkpt lat="45.40285103266944" lon="7.922864239483271"><ele>220.0</ele><time>2026-05-03T12:54:51.006Z</time></trkpt><trkpt lat="45.402828407771985" lon="7.9230093878092065"><ele>220.0</ele><time>2026-05-03T12:54:52.006Z</time></trkpt><trkpt lat="45.40280515853294" lon="7.923155768996109"><ele>220.0</ele><time>2026-05-03T12:54:53.006Z</time></trkpt><trkpt lat="45.40278564176436" lon="7.923308419693879"><ele>219.8</ele><time>2026-05-03T12:54:54.006Z</time></trkpt><trkpt lat="45.40276702498165" lon="7.923465417036969"><ele>219.6</ele><time>2026-05-03T12:54:55.006Z</time></trkpt><trkpt lat="45.40274816611615" lon="7.92361739296239"><ele>219.39999999999998</ele><time>2026-05-03T12:54:56.006Z</time></trkpt><trkpt lat="45.40273043799644" lon="7.92377370756004"><ele>219.2</ele><time>2026-05-03T12:54:57.006Z</time></trkpt><trkpt lat="45.40270603660391" lon="7.923922348157937"><ele>219.0</ele><time>2026-05-03T12:54:58.006Z</time></trkpt><trkpt lat="45.40268040129096" lon="7.924065376189507"><ele>219.0</ele><time>2026-05-03T12:54:59.006Z</time></trkpt><trkpt lat="45.40266289841788" lon="7.924204187527335"><ele>218.99999999999997</ele><time>2026-05-03T12:55:00.006Z</time></trkpt><trkpt lat="45.402646993548814" lon="7.92435091820687"><ele>218.99999999999997</ele><time>2026-05-03T12:55:01.006Z</time></trkpt><trkpt lat="45.402623911353444" lon="7.9244936364396255"><ele>219.0</ele><time>2026-05-03T12:55:02.006Z</time></trkpt><trkpt lat="45.40259590091315" lon="7.924629257851758"><ele>219.0</ele><time>2026-05-03T12:55:03.006Z</time></trkpt><trkpt lat="45.40256292693914" lon="7.924773702470754"><ele>219.0</ele><time>2026-05-03T12:55:04.006Z</time></trkpt><trkpt lat="45.40252605171915" lon="7.924910154936693"><ele>218.99999999999997</ele><time>2026-05-03T12:55:05.006Z</time></trkpt><trkpt lat="45.40249587622725" lon="7.92505022810503"><ele>218.99999999999997</ele><time>2026-05-03T12:55:06.006Z</time></trkpt><trkpt lat="45.4024694310074" lon="7.925176539822872"><ele>219.0</ele><time>2026-05-03T12:55:07.006Z</time></trkpt><trkpt lat="45.40243949127253" lon="7.925282930661893"><ele>219.0</ele><time>2026-05-03T12:55:08.006Z</time></trkpt><trkpt lat="45.402416324783104" lon="7.925395864594905"><ele>219.0</ele><time>2026-05-03T12:55:09.006Z</time></trkpt><trkpt lat="45.40239787773139" lon="7.925488021746413"><ele>219.0</ele><time>2026-05-03T12:55:10.006Z</time></trkpt><trkpt lat="45.40236699314725" lon="7.925624467361193"><ele>219.0</ele><time>2026-05-03T12:55:12.006Z</time></trkpt><trkpt lat="45.40233658951671" lon="7.9257092484358695"><ele>219.0</ele><time>2026-05-03T12:55:14.006Z</time></trkpt><trkpt lat="45.402274896879725" lon="7.9257726236511346"><ele>219.0</ele><time>2026-05-03T12:55:18.006Z</time></trkpt><trkpt lat="45.402228945592306" lon="7.925690214098931"><ele>219.0</ele><time>2026-05-03T12:55:34.006Z</time></trkpt><trkpt lat="45.40217414430561" lon="7.925613983109039"><ele>219.0</ele><time>2026-05-03T12:55:37.006Z</time></trkpt><trkpt lat="45.40210730423226" lon="7.92555897318627"><ele>219.0</ele><time>2026-05-03T12:55:40.006Z</time></trkpt><trkpt lat="45.402046790051486" lon="7.925510909589577"><ele>219.0</ele><time>2026-05-03T12:55:42.006Z</time></trkpt><trkpt lat="45.401969480025286" lon="7.925473704436464"><ele>219.0</ele><time>2026-05-03T12:55:45.006Z</time></trkpt><trkpt lat="45.40185997395807" lon="7.925402606427914"><ele>219.0</ele><time>2026-05-03T12:55:47.006Z</time></trkpt><trkpt lat="45.401771007660564" lon="7.9253431616812415"><ele>219.0</ele><time>2026-05-03T12:55:48.006Z</time></trkpt><trkpt lat="45.4016605058351" lon="7.925260696954322"><ele>219.0</ele><time>2026-05-03T12:55:49.006Z</time></trkpt><trkpt lat="45.40152439022922" lon="7.925156390557742"><ele>219.0</ele><time>2026-05-03T12:55:50.006Z</time></trkpt><trkpt lat="45.4013727957263" lon="7.925045406635879"><ele>219.0</ele><time>2026-05-03T12:55:51.006Z</time></trkpt><trkpt lat="45.40122841435189" lon="7.924921532755772"><ele>219.25</ele><time>2026-05-03T12:55:52.006Z</time></trkpt><trkpt lat="45.401111955886755" lon="7.924792645731001"><ele>219.5</ele><time>2026-05-03T12:55:53.006Z</time></trkpt><trkpt lat="45.40101616450765" lon="7.924680171552081"><ele>219.75</ele><time>2026-05-03T12:55:54.006Z</time></trkpt><trkpt lat="45.40092798215017" lon="7.92460955001289"><ele>220.0</ele><time>2026-05-03T12:55:55.006Z</time></trkpt><trkpt lat="45.4008296864226" lon="7.9245875878199294"><ele>220.0</ele><time>2026-05-03T12:55:56.006Z</time></trkpt><trkpt lat="45.40073280045479" lon="7.924592712468896"><ele>220.0</ele><time>2026-05-03T12:55:57.006Z</time></trkpt><trkpt lat="45.40062653366165" lon="7.924618572519836"><ele>220.0</ele><time>2026-05-03T12:55:58.006Z</time></trkpt><trkpt lat="45.400517055370486" lon="7.92458298975354"><ele>220.0</ele><time>2026-05-03T12:55:59.006Z</time></trkpt><trkpt lat="45.40038360061853" lon="7.924501748769625"><ele>220.0</ele><time>2026-05-03T12:56:00.006Z</time></trkpt><trkpt lat="45.40026091017139" lon="7.924396766556934"><ele>220.0</ele><time>2026-05-03T12:56:01.006Z</time></trkpt><trkpt lat="45.40016106226887" lon="7.924263891040887"><ele>220.0</ele><time>2026-05-03T12:56:02.006Z</time></trkpt><trkpt lat="45.40006265764702" lon="7.924132851363056"><ele>220.0</ele><time>2026-05-03T12:56:03.006Z</time></trkpt><trkpt lat="45.39995964947623" lon="7.924009931641421"><ele>220.0</ele><time>2026-05-03T12:56:04.006Z</time></trkpt><trkpt lat="45.399846377358706" lon="7.923911041656971"><ele>220.0</ele><time>2026-05-03T12:56:05.006Z</time></trkpt><trkpt lat="45.39969653085294" lon="7.9238044497189"><ele>220.0</ele><time>2026-05-03T12:56:06.006Z</time></trkpt><trkpt lat="45.39954331983378" lon="7.923680709981967"><ele>220.0</ele><time>2026-05-03T12:56:07.006Z</time></trkpt><trkpt lat="45.399403032472904" lon="7.92354647815731"><ele>220.0</ele><time>2026-05-03T12:56:08.006Z</time></trkpt><trkpt lat="45.39926069480898" lon="7.923425972535668"><ele>220.0</ele><time>2026-05-03T12:56:09.006Z</time></trkpt><trkpt lat="45.39912665192777" lon="7.923334159138266"><ele>220.0</ele><time>2026-05-03T12:56:10.006Z</time></trkpt><trkpt lat="45.39901955862406" lon="7.923234594594721"><ele>220.0</ele><time>2026-05-03T12:56:11.006Z</time></trkpt><trkpt lat="45.39892236887081" lon="7.923106372974727"><ele>220.0</ele><time>2026-05-03T12:56:12.006Z</time></trkpt><trkpt lat="45.39884565055318" lon="7.923007860976212"><ele>220.0</ele><time>2026-05-03T12:56:13.006Z</time></trkpt><trkpt lat="45.39877336755201" lon="7.922945284230935"><ele>220.0</ele><time>2026-05-03T12:56:14.006Z</time></trkpt><trkpt lat="45.39867566424206" lon="7.92296974715871"><ele>220.0</ele><time>2026-05-03T12:56:15.006Z</time></trkpt><trkpt lat="45.39855669629878" lon="7.923053865526806"><ele>220.0</ele><time>2026-05-03T12:56:16.006Z</time></trkpt><trkpt lat="45.398428647666975" lon="7.923117209050683"><ele>220.0</ele><time>2026-05-03T12:56:17.006Z</time></trkpt><trkpt lat="45.39830371433016" lon="7.923171817930116"><ele>220.0</ele><time>2026-05-03T12:56:18.006Z</time></trkpt><trkpt lat="45.39816410847685" lon="7.923179674710279"><ele>220.0</ele><time>2026-05-03T12:56:19.006Z</time></trkpt><trkpt lat="45.398009105772545" lon="7.923132638849579"><ele>220.0</ele><time>2026-05-03T12:56:20.006Z</time></trkpt><trkpt lat="45.39786269859655" lon="7.923074940579979"><ele>220.0</ele><time>2026-05-03T12:56:21.006Z</time></trkpt><trkpt lat="45.39772536997226" lon="7.922999357418108"><ele>220.0</ele><time>2026-05-03T12:56:22.006Z</time></trkpt><trkpt lat="45.39761307574823" lon="7.922891754106408"><ele>220.0</ele><time>2026-05-03T12:56:23.006Z</time></trkpt><trkpt lat="45.397528724314164" lon="7.92281427323609"><ele>220.0</ele><time>2026-05-03T12:56:24.006Z</time></trkpt><trkpt lat="45.39745404117892" lon="7.922816702028956"><ele>220.0</ele><time>2026-05-03T12:56:25.006Z</time></trkpt><trkpt lat="45.39735328062719" lon="7.92286444456405"><ele>220.0</ele><time>2026-05-03T12:56:26.006Z</time></trkpt><trkpt lat="45.39722641321273" lon="7.922905399412161"><ele>220.0</ele><time>2026-05-03T12:56:27.006Z</time></trkpt><trkpt lat="45.39710251834181" lon="7.922903098241177"><ele>220.0</ele><time>2026-05-03T12:56:28.006Z</time></trkpt><trkpt lat="45.39696312821418" lon="7.922860938774592"><ele>220.0</ele><time>2026-05-03T12:56:29.006Z</time></trkpt><trkpt lat="45.39682305525285" lon="7.922843014570428"><ele>220.0</ele><time>2026-05-03T12:56:30.006Z</time></trkpt><trkpt lat="45.39666376440482" lon="7.922863996390966"><ele>220.0</ele><time>2026-05-03T12:56:31.006Z</time></trkpt><trkpt lat="45.396508985282246" lon="7.922892358297741"><ele>220.0</ele><time>2026-05-03T12:56:32.006Z</time></trkpt><trkpt lat="45.39634573636599" lon="7.922912197963502"><ele>220.0</ele><time>2026-05-03T12:56:33.006Z</time></trkpt><trkpt lat="45.39618477730049" lon="7.922933290942693"><ele>219.33333333333331</ele><time>2026-05-03T12:56:34.006Z</time></trkpt><trkpt lat="45.39602392163853" lon="7.9229638091759345"><ele>218.66666666666669</ele><time>2026-05-03T12:56:35.006Z</time></trkpt><trkpt lat="45.39586127306359" lon="7.923018981543131"><ele>218.0</ele><time>2026-05-03T12:56:36.006Z</time></trkpt><trkpt lat="45.39569592581644" lon="7.923078556324637"><ele>218.0</ele><time>2026-05-03T12:56:37.006Z</time></trkpt><trkpt lat="45.395526546497535" lon="7.9231494177531205"><ele>218.0</ele><time>2026-05-03T12:56:38.006Z</time></trkpt><trkpt lat="45.3953704766537" lon="7.923215257915746"><ele>218.0</ele><time>2026-05-03T12:56:39.006Z</time></trkpt><trkpt lat="45.39521367568327" lon="7.923258927049187"><ele>219.0</ele><time>2026-05-03T12:56:40.006Z</time></trkpt><trkpt lat="45.39505371561952" lon="7.923289281853511"><ele>220.0</ele><time>2026-05-03T12:56:41.006Z</time></trkpt><trkpt lat="45.39489258513131" lon="7.923319198888311"><ele>221.0</ele><time>2026-05-03T12:56:42.006Z</time></trkpt><trkpt lat="45.394732266840904" lon="7.923348790801149"><ele>221.33333333333334</ele><time>2026-05-03T12:56:43.006Z</time></trkpt><trkpt lat="45.3945723351561" lon="7.92338205822923"><ele>221.66666666666669</ele><time>2026-05-03T12:56:44.006Z</time></trkpt><trkpt lat="45.39441483081091" lon="7.923402569725817"><ele>222.0</ele><time>2026-05-03T12:56:45.006Z</time></trkpt><trkpt lat="45.394246567795776" lon="7.923422976500299"><ele>221.5</ele><time>2026-05-03T12:56:46.006Z</time></trkpt><trkpt lat="45.394098259236834" lon="7.9234629486045005"><ele>221.0</ele><time>2026-05-03T12:56:47.006Z</time></trkpt><trkpt lat="45.39396407819745" lon="7.923518817441857"><ele>220.5</ele><time>2026-05-03T12:56:48.006Z</time></trkpt><trkpt lat="45.39384144911533" lon="7.9235975404647165"><ele>220.0</ele><time>2026-05-03T12:56:49.006Z</time></trkpt><trkpt lat="45.39372611578995" lon="7.923658938457445"><ele>219.8</ele><time>2026-05-03T12:56:50.006Z</time></trkpt><trkpt lat="45.39361781613068" lon="7.923695820294885"><ele>219.6</ele><time>2026-05-03T12:56:51.006Z</time></trkpt><trkpt lat="45.39352038636884" lon="7.92372721284794"><ele>219.39999999999998</ele><time>2026-05-03T12:56:52.006Z</time></trkpt><trkpt lat="45.393431068892724" lon="7.923775530606916"><ele>219.2</ele><time>2026-05-03T12:56:53.006Z</time></trkpt><trkpt lat="45.39335417823419" lon="7.9238300756703115"><ele>219.0</ele><time>2026-05-03T12:56:54.006Z</time></trkpt><trkpt lat="45.39329655969537" lon="7.923883743251012"><ele>219.0</ele><time>2026-05-03T12:56:55.006Z</time></trkpt><trkpt lat="45.39325616577808" lon="7.9239655676123295"><ele>219.0</ele><time>2026-05-03T12:56:56.006Z</time></trkpt><trkpt lat="45.393240714311084" lon="7.924055968024747"><ele>219.0</ele><time>2026-05-03T12:56:57.006Z</time></trkpt><trkpt lat="45.39324414382149" lon="7.924153856542513"><ele>219.0</ele><time>2026-05-03T12:56:58.006Z</time></trkpt><trkpt lat="45.39313521708301" lon="7.924262704287779"><ele>219.0</ele><time>2026-05-03T12:56:59.006Z</time></trkpt><trkpt lat="45.39315205888202" lon="7.924412422982454"><ele>219.0</ele><time>2026-05-03T12:57:01.006Z</time></trkpt><trkpt lat="45.39316874549557" lon="7.924535525520271"><ele>219.2</ele><time>2026-05-03T12:57:03.006Z</time></trkpt><trkpt lat="45.393185939837906" lon="7.924637191377555"><ele>219.39999999999998</ele><time>2026-05-03T12:57:06.007Z</time></trkpt><trkpt lat="45.393204413839065" lon="7.924747651386907"><ele>219.6</ele><time>2026-05-03T12:57:09.007Z</time></trkpt><trkpt lat="45.3931856124974" lon="7.924599558030019"><ele>219.8</ele><time>2026-05-03T12:57:47.007Z</time></trkpt><trkpt lat="45.393181489687414" lon="7.924386076504739"><ele>220.0</ele><time>2026-05-03T12:57:48.007Z</time></trkpt><trkpt lat="45.39316589980556" lon="7.924237398912887"><ele>219.75</ele><time>2026-05-03T12:57:49.007Z</time></trkpt><trkpt lat="45.393144223994184" lon="7.924071594703238"><ele>219.5</ele><time>2026-05-03T12:57:50.007Z</time></trkpt><trkpt lat="45.39312934709585" lon="7.923894647233517"><ele>219.25</ele><time>2026-05-03T12:57:51.007Z</time></trkpt><trkpt lat="45.39311561201121" lon="7.923712220998734"><ele>219.0</ele><time>2026-05-03T12:57:52.007Z</time></trkpt><trkpt lat="45.39310012004104" lon="7.9235245377999295"><ele>219.25</ele><time>2026-05-03T12:57:53.007Z</time></trkpt><trkpt lat="45.393089437866976" lon="7.923338681859185"><ele>219.5</ele><time>2026-05-03T12:57:54.007Z</time></trkpt><trkpt lat="45.39307727093637" lon="7.923153698650448"><ele>219.75</ele><time>2026-05-03T12:57:55.007Z</time></trkpt><trkpt lat="45.393062330427064" lon="7.922958690134174"><ele>220.0</ele><time>2026-05-03T12:57:56.007Z</time></trkpt><trkpt lat="45.39304884587427" lon="7.922759355789798"><ele>219.75</ele><time>2026-05-03T12:57:57.007Z</time></trkpt><trkpt lat="45.39303806922186" lon="7.922558341026745"><ele>219.5</ele><time>2026-05-03T12:57:58.007Z</time></trkpt><trkpt lat="45.39302449159045" lon="7.92236588924572"><ele>219.25</ele><time>2026-05-03T12:57:59.007Z</time></trkpt><trkpt lat="45.39300750459805" lon="7.922168556408013"><ele>219.0</ele><time>2026-05-03T12:58:00.007Z</time></trkpt><trkpt lat="45.39299817049622" lon="7.921974981102184"><ele>219.5</ele><time>2026-05-03T12:58:01.007Z</time></trkpt><trkpt lat="45.3929892641419" lon="7.921775751326098"><ele>220.0</ele><time>2026-05-03T12:58:02.007Z</time></trkpt><trkpt lat="45.39298258908197" lon="7.921590745949372"><ele>220.5</ele><time>2026-05-03T12:58:03.007Z</time></trkpt><trkpt lat="45.392977296088304" lon="7.92142209672502"><ele>221.0</ele><time>2026-05-03T12:58:04.007Z</time></trkpt><trkpt lat="45.39297783901806" lon="7.921266018073486"><ele>221.0</ele><time>2026-05-03T12:58:04.973Z</time></trkpt><trkpt lat="45.39296728658515" lon="7.921111321388883"><ele>221.0</ele><time>2026-05-03T12:58:05.973Z</time></trkpt><trkpt lat="45.39295550472083" lon="7.920949930852877"><ele>221.0</ele><time>2026-05-03T12:58:06.973Z</time></trkpt><trkpt lat="45.39294319035553" lon="7.920781246082766"><ele>221.0</ele><time>2026-05-03T12:58:07.973Z</time></trkpt><trkpt lat="45.39292997138371" lon="7.920600169840847"><ele>220.75</ele><time>2026-05-03T12:58:08.973Z</time></trkpt><trkpt lat="45.39291687722504" lon="7.920420803477657"><ele>220.5</ele><time>2026-05-03T12:58:09.973Z</time></trkpt><trkpt lat="45.392903457604454" lon="7.920240802230714"><ele>220.25</ele><time>2026-05-03T12:58:10.973Z</time></trkpt><trkpt lat="45.39288924502379" lon="7.9200591524937085"><ele>220.0</ele><time>2026-05-03T12:58:11.973Z</time></trkpt><trkpt lat="45.392874522737415" lon="7.919870988263672"><ele>220.0</ele><time>2026-05-03T12:58:12.973Z</time></trkpt><trkpt lat="45.39287675238378" lon="7.919686957736583"><ele>220.0</ele><time>2026-05-03T12:58:13.973Z</time></trkpt><trkpt lat="45.392862420593154" lon="7.919511948518454"><ele>220.0</ele><time>2026-05-03T12:58:14.973Z</time></trkpt><trkpt lat="45.392832225218186" lon="7.919339216442735"><ele>220.0</ele><time>2026-05-03T12:58:15.973Z</time></trkpt><trkpt lat="45.392815554067624" lon="7.919162932619137"><ele>220.0</ele><time>2026-05-03T12:58:16.973Z</time></trkpt><trkpt lat="45.39280230367324" lon="7.918989226174551"><ele>220.0</ele><time>2026-05-03T12:58:17.973Z</time></trkpt><trkpt lat="45.39278680949528" lon="7.918821239173556"><ele>220.0</ele><time>2026-05-03T12:58:18.973Z</time></trkpt><trkpt lat="45.39277546895739" lon="7.91866968521798"><ele>220.0</ele><time>2026-05-03T12:58:19.973Z</time></trkpt><trkpt lat="45.39276549617435" lon="7.918530544005769"><ele>220.0</ele><time>2026-05-03T12:58:20.973Z</time></trkpt><trkpt lat="45.3927562351854" lon="7.918391663847672"><ele>220.0</ele><time>2026-05-03T12:58:21.973Z</time></trkpt><trkpt lat="45.39275552045382" lon="7.918251108426698"><ele>220.0</ele><time>2026-05-03T12:58:22.973Z</time></trkpt><trkpt lat="45.39274989049257" lon="7.918082929457115"><ele>220.0</ele><time>2026-05-03T12:58:23.973Z</time></trkpt><trkpt lat="45.39271649538961" lon="7.91792398765997"><ele>220.0</ele><time>2026-05-03T12:58:24.973Z</time></trkpt><trkpt lat="45.39270993154085" lon="7.9177823372496805"><ele>220.0</ele><time>2026-05-03T12:58:25.973Z</time></trkpt><trkpt lat="45.392699061148164" lon="7.917653043930113"><ele>219.83333333333331</ele><time>2026-05-03T12:58:26.973Z</time></trkpt><trkpt lat="45.39268621700172" lon="7.91752971896532"><ele>219.66666666666666</ele><time>2026-05-03T12:58:27.973Z</time></trkpt><trkpt lat="45.39267537207883" lon="7.917438198332743"><ele>219.5</ele><time>2026-05-03T12:58:28.973Z</time></trkpt><trkpt lat="45.392679002860405" lon="7.917341201516605"><ele>219.33333333333331</ele><time>2026-05-03T12:58:30.973Z</time></trkpt><trkpt lat="45.39277774557113" lon="7.917338328362982"><ele>219.16666666666666</ele><time>2026-05-03T12:58:31.973Z</time></trkpt><trkpt lat="45.392861664468704" lon="7.9173447428112915"><ele>219.0</ele><time>2026-05-03T12:58:32.973Z</time></trkpt><trkpt lat="45.39296648663288" lon="7.917350448436605"><ele>219.75</ele><time>2026-05-03T12:58:33.973Z</time></trkpt><trkpt lat="45.39307454189366" lon="7.917359783332992"><ele>220.5</ele><time>2026-05-03T12:58:34.973Z</time></trkpt><trkpt lat="45.39320166693116" lon="7.9173701394193605"><ele>221.25</ele><time>2026-05-03T12:58:35.973Z</time></trkpt><trkpt lat="45.393333504947506" lon="7.917365986477425"><ele>222.0</ele><time>2026-05-03T12:58:36.973Z</time></trkpt><trkpt lat="45.393467433993806" lon="7.9173483465724175"><ele>222.0</ele><time>2026-05-03T12:58:37.973Z</time></trkpt><trkpt lat="45.39360602527927" lon="7.917333542009131"><ele>222.0</ele><time>2026-05-03T12:58:38.973Z</time></trkpt><trkpt lat="45.39374298626705" lon="7.917305360794892"><ele>222.0</ele><time>2026-05-03T12:58:39.973Z</time></trkpt><trkpt lat="45.393884837290514" lon="7.917286274025428"><ele>222.0</ele><time>2026-05-03T12:58:40.973Z</time></trkpt><trkpt lat="45.394027450068236" lon="7.917279241416472"><ele>221.75</ele><time>2026-05-03T12:58:41.973Z</time></trkpt><trkpt lat="45.39416152864907" lon="7.917277845422585"><ele>221.5</ele><time>2026-05-03T12:58:42.973Z</time></trkpt><trkpt lat="45.39430958101482" lon="7.917295805573445"><ele>221.25</ele><time>2026-05-03T12:58:43.973Z</time></trkpt><trkpt lat="45.39447166863778" lon="7.917309407965888"><ele>221.0</ele><time>2026-05-03T12:58:44.973Z</time></trkpt><trkpt lat="45.394606098761095" lon="7.917304788741812"><ele>220.75</ele><time>2026-05-03T12:58:45.973Z</time></trkpt><trkpt lat="45.39474710972496" lon="7.917298188048063"><ele>220.5</ele><time>2026-05-03T12:58:46.973Z</time></trkpt><trkpt lat="45.394901914209115" lon="7.917305321456018"><ele>220.25</ele><time>2026-05-03T12:58:47.973Z</time></trkpt><trkpt lat="45.39504583249856" lon="7.917303425899361"><ele>220.0</ele><time>2026-05-03T12:58:48.973Z</time></trkpt><trkpt lat="45.39519312493322" lon="7.9172852926456825"><ele>220.0</ele><time>2026-05-03T12:58:49.973Z</time></trkpt><trkpt lat="45.3953489247797" lon="7.917274832957146"><ele>220.0</ele><time>2026-05-03T12:58:50.973Z</time></trkpt><trkpt lat="45.39550644502062" lon="7.917270601744637"><ele>220.0</ele><time>2026-05-03T12:58:51.97Z</time></trkpt><trkpt lat="45.395671381331276" lon="7.917264111930007"><ele>220.0</ele><time>2026-05-03T12:58:52.969Z</time></trkpt><trkpt lat="45.39582762411036" lon="7.917250943770991"><ele>220.0</ele><time>2026-05-03T12:58:53.969Z</time></trkpt><trkpt lat="45.395983852240036" lon="7.917242766337141"><ele>220.0</ele><time>2026-05-03T12:58:54.969Z</time></trkpt><trkpt lat="45.396140382526994" lon="7.9172285406993606"><ele>220.0</ele><time>2026-05-03T12:58:55.97Z</time></trkpt><trkpt lat="45.39629165770976" lon="7.91722294836505"><ele>220.0</ele><time>2026-05-03T12:58:56.97Z</time></trkpt><trkpt lat="45.3964370896542" lon="7.917213217171956"><ele>220.0</ele><time>2026-05-03T12:58:57.97Z</time></trkpt><trkpt lat="45.39658198117086" lon="7.9172035591019645"><ele>220.0</ele><time>2026-05-03T12:58:58.969Z</time></trkpt><trkpt lat="45.396722597439854" lon="7.91719761419165"><ele>219.75</ele><time>2026-05-03T12:58:59.969Z</time></trkpt><trkpt lat="45.39686193989434" lon="7.917192471045154"><ele>219.5</ele><time>2026-05-03T12:59:00.97Z</time></trkpt><trkpt lat="45.396983352511974" lon="7.917187993827236"><ele>219.25</ele><time>2026-05-03T12:59:01.969Z</time></trkpt><trkpt lat="45.39710857547691" lon="7.917183688861846"><ele>219.0</ele><time>2026-05-03T12:59:02.969Z</time></trkpt><trkpt lat="45.39723503155825" lon="7.9171771897562975"><ele>219.0</ele><time>2026-05-03T12:59:03.969Z</time></trkpt><trkpt lat="45.39737495481978" lon="7.917181327061677"><ele>219.0</ele><time>2026-05-03T12:59:04.969Z</time></trkpt><trkpt lat="45.39751368951106" lon="7.917179801002821"><ele>219.0</ele><time>2026-05-03T12:59:05.969Z</time></trkpt><trkpt lat="45.39764049027182" lon="7.917185383443565"><ele>219.0</ele><time>2026-05-03T12:59:06.969Z</time></trkpt><trkpt lat="45.39776211224979" lon="7.917191889821563"><ele>219.0</ele><time>2026-05-03T12:59:07.969Z</time></trkpt><trkpt lat="45.39787923776926" lon="7.917197888163519"><ele>219.0</ele><time>2026-05-03T12:59:08.969Z</time></trkpt><trkpt lat="45.39797373503306" lon="7.917192024994724"><ele>219.0</ele><time>2026-05-03T12:59:09.969Z</time></trkpt><trkpt lat="45.39804112192229" lon="7.91718401785824"><ele>219.0</ele><time>2026-05-03T12:59:10.969Z</time></trkpt><trkpt lat="45.3980828128525" lon="7.917072161137834"><ele>219.0</ele><time>2026-05-03T12:59:12.969Z</time></trkpt><trkpt lat="45.39805545916534" lon="7.916964941164988"><ele>219.0</ele><time>2026-05-03T12:59:13.969Z</time></trkpt><trkpt lat="45.3980349220223" lon="7.916838900339391"><ele>219.0</ele><time>2026-05-03T12:59:14.969Z</time></trkpt><trkpt lat="45.3980303972015" lon="7.916709336506742"><ele>218.99999999999997</ele><time>2026-05-03T12:59:15.969Z</time></trkpt><trkpt lat="45.39801827477867" lon="7.916571327849191"><ele>218.99999999999997</ele><time>2026-05-03T12:59:16.969Z</time></trkpt><trkpt lat="45.397999090413755" lon="7.916414110401589"><ele>219.0</ele><time>2026-05-03T12:59:17.969Z</time></trkpt><trkpt lat="45.39797839604175" lon="7.9162494508375545"><ele>219.0</ele><time>2026-05-03T12:59:18.969Z</time></trkpt><trkpt lat="45.3979594616552" lon="7.916093228306253"><ele>219.0</ele><time>2026-05-03T12:59:19.969Z</time></trkpt><trkpt lat="45.397939491186904" lon="7.915938216783962"><ele>218.99999999999997</ele><time>2026-05-03T12:59:20.969Z</time></trkpt><trkpt lat="45.39791834158379" lon="7.915791850179111"><ele>218.99999999999997</ele><time>2026-05-03T12:59:21.969Z</time></trkpt><trkpt lat="45.39789805273488" lon="7.915643920970107"><ele>219.0</ele><time>2026-05-03T12:59:22.969Z</time></trkpt><trkpt lat="45.39787762507826" lon="7.915485531414406"><ele>219.0</ele><time>2026-05-03T12:59:23.969Z</time></trkpt><trkpt lat="45.39785153898588" lon="7.915327644000071"><ele>219.25</ele><time>2026-05-03T12:59:24.969Z</time></trkpt><trkpt lat="45.39783377518816" lon="7.9151617233295966"><ele>219.5</ele><time>2026-05-03T12:59:25.969Z</time></trkpt><trkpt lat="45.39781712510972" lon="7.915005182530578"><ele>219.75</ele><time>2026-05-03T12:59:26.969Z</time></trkpt><trkpt lat="45.3977960813497" lon="7.914840280044622"><ele>220.0</ele><time>2026-05-03T12:59:27.969Z</time></trkpt><trkpt lat="45.397777475803565" lon="7.914677517068667"><ele>220.0</ele><time>2026-05-03T12:59:28.969Z</time></trkpt><trkpt lat="45.3977642612238" lon="7.91451111144926"><ele>220.0</ele><time>2026-05-03T12:59:29.969Z</time></trkpt><trkpt lat="45.39775410176292" lon="7.914349114884095"><ele>220.0</ele><time>2026-05-03T12:59:30.969Z</time></trkpt><trkpt lat="45.397740817838205" lon="7.914183211125548"><ele>220.0</ele><time>2026-05-03T12:59:31.969Z</time></trkpt><trkpt lat="45.397728758962096" lon="7.914025894071155"><ele>220.2</ele><time>2026-05-03T12:59:32.969Z</time></trkpt><trkpt lat="45.39770957070365" lon="7.913868896645661"><ele>220.4</ele><time>2026-05-03T12:59:33.969Z</time></trkpt><trkpt lat="45.397694291566076" lon="7.913712026049777"><ele>220.60000000000002</ele><time>2026-05-03T12:59:34.969Z</time></trkpt><trkpt lat="45.39768133598732" lon="7.913560551683357"><ele>220.8</ele><time>2026-05-03T12:59:35.969Z</time></trkpt><trkpt lat="45.39766354411205" lon="7.9133994742182745"><ele>221.0</ele><time>2026-05-03T12:59:36.969Z</time></trkpt><trkpt lat="45.3976425298868" lon="7.913237758282986"><ele>221.0</ele><time>2026-05-03T12:59:37.969Z</time></trkpt><trkpt lat="45.39762629406922" lon="7.913065696109866"><ele>221.00000000000003</ele><time>2026-05-03T12:59:38.969Z</time></trkpt><trkpt lat="45.397611579026126" lon="7.912908067533684"><ele>221.00000000000003</ele><time>2026-05-03T12:59:39.969Z</time></trkpt><trkpt lat="45.397601448199985" lon="7.91276764989155"><ele>221.0</ele><time>2026-05-03T12:59:40.969Z</time></trkpt><trkpt lat="45.39758523863185" lon="7.912636213641275"><ele>221.0</ele><time>2026-05-03T12:59:41.969Z</time></trkpt><trkpt lat="45.397564756637436" lon="7.912522363219991"><ele>220.8</ele><time>2026-05-03T12:59:42.969Z</time></trkpt><trkpt lat="45.39753523946867" lon="7.912408847162003"><ele>220.60000000000002</ele><time>2026-05-03T12:59:43.969Z</time></trkpt><trkpt lat="45.397489116028694" lon="7.91227306058832"><ele>220.4</ele><time>2026-05-03T12:59:44.969Z</time></trkpt><trkpt lat="45.39743120064954" lon="7.9121386879010505"><ele>220.2</ele><time>2026-05-03T12:59:45.969Z</time></trkpt><trkpt lat="45.39736085859156" lon="7.911997024860051"><ele>220.0</ele><time>2026-05-03T12:59:46.969Z</time></trkpt><trkpt lat="45.397287588404716" lon="7.911861495860669"><ele>220.16666666666666</ele><time>2026-05-03T12:59:47.969Z</time></trkpt><trkpt lat="45.39722070135131" lon="7.91172919491954"><ele>220.33333333333331</ele><time>2026-05-03T12:59:48.969Z</time></trkpt><trkpt lat="45.39716740373687" lon="7.911615114720162"><ele>220.5</ele><time>2026-05-03T12:59:49.969Z</time></trkpt><trkpt lat="45.397131437993174" lon="7.911534996985648"><ele>220.66666666666669</ele><time>2026-05-03T12:59:50.969Z</time></trkpt><trkpt lat="45.39714314526034" lon="7.9114112873212274"><ele>220.83333333333334</ele><time>2026-05-03T12:59:52.969Z</time></trkpt><trkpt lat="45.39718957232961" lon="7.911337456541836"><ele>221.0</ele><time>2026-05-03T12:59:53.969Z</time></trkpt><trkpt lat="45.39723490518958" lon="7.911229999986893"><ele>221.0</ele><time>2026-05-03T12:59:54.969Z</time></trkpt><trkpt lat="45.39727263979999" lon="7.9111248902101385"><ele>221.00000000000003</ele><time>2026-05-03T12:59:55.969Z</time></trkpt><trkpt lat="45.3973103003732" lon="7.911015915293155"><ele>221.00000000000003</ele><time>2026-05-03T12:59:56.97Z</time></trkpt><trkpt lat="45.397347615452595" lon="7.910898214812955"><ele>221.0</ele><time>2026-05-03T12:59:57.97Z</time></trkpt><trkpt lat="45.39739398541972" lon="7.910760115929603"><ele>221.0</ele><time>2026-05-03T12:59:58.97Z</time></trkpt><trkpt lat="45.39745636773568" lon="7.910594630779895"><ele>220.66666666666669</ele><time>2026-05-03T12:59:59.97Z</time></trkpt><trkpt lat="45.39753235370533" lon="7.910405213387674"><ele>220.33333333333331</ele><time>2026-05-03T13:00:00.97Z</time></trkpt><trkpt lat="45.39760339914863" lon="7.9101860409696"><ele>220.0</ele><time>2026-05-03T13:00:01.97Z</time></trkpt><trkpt lat="45.39768624220445" lon="7.909941425158056"><ele>220.0</ele><time>2026-05-03T13:00:02.97Z</time></trkpt><trkpt lat="45.397772758961246" lon="7.909696540595581"><ele>220.0</ele><time>2026-05-03T13:00:03.97Z</time></trkpt><trkpt lat="45.39785268326519" lon="7.909505645234646"><ele>220.0</ele><time>2026-05-03T13:00:04.97Z</time></trkpt><trkpt lat="45.39793482251549" lon="7.909308812915654"><ele>220.0</ele><time>2026-05-03T13:00:05.97Z</time></trkpt><trkpt lat="45.398014966861744" lon="7.9091232140242775"><ele>220.0</ele><time>2026-05-03T13:00:06.97Z</time></trkpt><trkpt lat="45.398097241061365" lon="7.908930358575176"><ele>220.0</ele><time>2026-05-03T13:00:07.97Z</time></trkpt><trkpt lat="45.39816694584323" lon="7.908739866548437"><ele>220.0</ele><time>2026-05-03T13:00:08.97Z</time></trkpt><trkpt lat="45.3982352696851" lon="7.908526316797888"><ele>220.0</ele><time>2026-05-03T13:00:09.97Z</time></trkpt><trkpt lat="45.39829797814175" lon="7.908341780453785"><ele>220.0</ele><time>2026-05-03T13:00:10.97Z</time></trkpt><trkpt lat="45.39835646672152" lon="7.9081699342732135"><ele>220.0</ele><time>2026-05-03T13:00:11.97Z</time></trkpt><trkpt lat="45.39842152471907" lon="7.90799518378428"><ele>220.25</ele><time>2026-05-03T13:00:12.97Z</time></trkpt><trkpt lat="45.3984897751682" lon="7.9078092738851"><ele>220.5</ele><time>2026-05-03T13:00:13.97Z</time></trkpt><trkpt lat="45.398551739290696" lon="7.9076169017688525"><ele>220.75</ele><time>2026-05-03T13:00:14.97Z</time></trkpt><trkpt lat="45.39861573269182" lon="7.907419874277028"><ele>221.0</ele><time>2026-05-03T13:00:15.97Z</time></trkpt><trkpt lat="45.39868002960325" lon="7.9072137644906855"><ele>221.0</ele><time>2026-05-03T13:00:16.97Z</time></trkpt><trkpt lat="45.398747827269204" lon="7.907013489265099"><ele>221.0</ele><time>2026-05-03T13:00:17.97Z</time></trkpt><trkpt lat="45.39881883187492" lon="7.906840764161516"><ele>221.0</ele><time>2026-05-03T13:00:18.97Z</time></trkpt><trkpt lat="45.39890634726101" lon="7.906681450856543"><ele>221.0</ele><time>2026-05-03T13:00:19.97Z</time></trkpt><trkpt lat="45.39899250934753" lon="7.906539829048797"><ele>221.25</ele><time>2026-05-03T13:00:20.97Z</time></trkpt><trkpt lat="45.39909165836558" lon="7.906409178706909"><ele>221.5</ele><time>2026-05-03T13:00:21.97Z</time></trkpt><trkpt lat="45.399212492273115" lon="7.906267902686809"><ele>221.75</ele><time>2026-05-03T13:00:22.97Z</time></trkpt><trkpt lat="45.39931506265248" lon="7.906130639721418"><ele>222.0</ele><time>2026-05-03T13:00:23.97Z</time></trkpt><trkpt lat="45.39940469202631" lon="7.905996437383929"><ele>222.0</ele><time>2026-05-03T13:00:24.97Z</time></trkpt><trkpt lat="45.39949283832198" lon="7.905858966933102"><ele>222.0</ele><time>2026-05-03T13:00:25.97Z</time></trkpt><trkpt lat="45.3995871028253" lon="7.905742727297006"><ele>222.0</ele><time>2026-05-03T13:00:26.97Z</time></trkpt><trkpt lat="45.39965540641306" lon="7.905663262195336"><ele>222.0</ele><time>2026-05-03T13:00:27.97Z</time></trkpt><trkpt lat="45.39971723081865" lon="7.905611955471374"><ele>222.0</ele><time>2026-05-03T13:00:28.97Z</time></trkpt><trkpt lat="45.39982793237265" lon="7.905677722682301"><ele>222.0</ele><time>2026-05-03T13:00:30.97Z</time></trkpt><trkpt lat="45.39989424444344" lon="7.9058038775217385"><ele>222.0</ele><time>2026-05-03T13:00:31.97Z</time></trkpt><trkpt lat="45.39997408800646" lon="7.90593703003568"><ele>222.0</ele><time>2026-05-03T13:00:32.97Z</time></trkpt><trkpt lat="45.40006592432164" lon="7.906075042967071"><ele>222.0</ele><time>2026-05-03T13:00:33.97Z</time></trkpt><trkpt lat="45.40016158108464" lon="7.906206602176311"><ele>222.0</ele><time>2026-05-03T13:00:34.97Z</time></trkpt><trkpt lat="45.40025444162971" lon="7.906328569526916"><ele>222.0</ele><time>2026-05-03T13:00:35.97Z</time></trkpt><trkpt lat="45.4003276382398" lon="7.906433503653367"><ele>222.0</ele><time>2026-05-03T13:00:36.97Z</time></trkpt><trkpt lat="45.4003821592995" lon="7.906504821224437"><ele>222.0</ele><time>2026-05-03T13:00:37.97Z</time></trkpt><trkpt lat="45.400476732169935" lon="7.906510028077468"><ele>222.0</ele><time>2026-05-03T13:00:39.97Z</time></trkpt><trkpt lat="45.40052700788049" lon="7.906433592120446"><ele>222.0</ele><time>2026-05-03T13:00:40.97Z</time></trkpt><trkpt lat="45.40057931261686" lon="7.9063606257637575"><ele>222.0</ele><time>2026-05-03T13:00:41.97Z</time></trkpt><trkpt lat="45.4006449047843" lon="7.906278741520575"><ele>222.0</ele><time>2026-05-03T13:00:42.97Z</time></trkpt><trkpt lat="45.40071921652574" lon="7.906185553131494"><ele>222.0</ele><time>2026-05-03T13:00:43.97Z</time></trkpt><trkpt lat="45.40080011471331" lon="7.906112263700273"><ele>222.0</ele><time>2026-05-03T13:00:44.97Z</time></trkpt><trkpt lat="45.40087159161507" lon="7.906020571877715"><ele>221.5</ele><time>2026-05-03T13:00:45.97Z</time></trkpt><trkpt lat="45.4009608542059" lon="7.905899661129592"><ele>221.0</ele><time>2026-05-03T13:00:46.97Z</time></trkpt><trkpt lat="45.40107356452443" lon="7.905786339073329"><ele>220.5</ele><time>2026-05-03T13:00:47.97Z</time></trkpt><trkpt lat="45.40118502220238" lon="7.905691657271295"><ele>220.0</ele><time>2026-05-03T13:00:48.97Z</time></trkpt><trkpt lat="45.401292405115186" lon="7.905616528959599"><ele>220.0</ele><time>2026-05-03T13:00:49.97Z</time></trkpt><trkpt lat="45.40140640662257" lon="7.90554895803284"><ele>220.0</ele><time>2026-05-03T13:00:50.97Z</time></trkpt><trkpt lat="45.40153679726352" lon="7.905460899188053"><ele>220.0</ele><time>2026-05-03T13:00:51.97Z</time></trkpt><trkpt lat="45.40164123923942" lon="7.905379830833719"><ele>220.0</ele><time>2026-05-03T13:00:52.97Z</time></trkpt><trkpt lat="45.401751775322225" lon="7.905310210727965"><ele>220.0</ele><time>2026-05-03T13:00:53.97Z</time></trkpt><trkpt lat="45.401868835627255" lon="7.905228516204147"><ele>220.0</ele><time>2026-05-03T13:00:54.97Z</time></trkpt><trkpt lat="45.40199472232597" lon="7.905141028266724"><ele>220.0</ele><time>2026-05-03T13:00:55.97Z</time></trkpt><trkpt lat="45.40212328834651" lon="7.905036818917485"><ele>220.0</ele><time>2026-05-03T13:00:56.97Z</time></trkpt><trkpt lat="45.402246900478616" lon="7.904937752181067"><ele>220.25</ele><time>2026-05-03T13:00:57.966Z</time></trkpt><trkpt lat="45.402363693462306" lon="7.904828416397469"><ele>220.5</ele><time>2026-05-03T13:00:58.966Z</time></trkpt><trkpt lat="45.402467927703725" lon="7.90472322530697"><ele>220.75</ele><time>2026-05-03T13:00:59.966Z</time></trkpt><trkpt lat="45.40255737288537" lon="7.904617253139034"><ele>221.0</ele><time>2026-05-03T13:01:00.966Z</time></trkpt><trkpt lat="45.40263570826671" lon="7.904508448399293"><ele>221.00000000000003</ele><time>2026-05-03T13:01:01.966Z</time></trkpt><trkpt lat="45.40271026642778" lon="7.904428515060758"><ele>221.0</ele><time>2026-05-03T13:01:02.966Z</time></trkpt><trkpt lat="45.4027784181893" lon="7.904384465865097"><ele>221.0</ele><time>2026-05-03T13:01:03.966Z</time></trkpt><trkpt lat="45.40285375596863" lon="7.904346964424529"><ele>221.0</ele><time>2026-05-03T13:01:05.965Z</time></trkpt><trkpt lat="45.40291258245241" lon="7.9043120561276465"><ele>221.00000000000003</ele><time>2026-05-03T13:01:07.966Z</time></trkpt><trkpt lat="45.40297571672442" lon="7.904272901863431"><ele>221.0</ele><time>2026-05-03T13:01:11.966Z</time></trkpt><trkpt lat="45.40305374181305" lon="7.904220710322312"><ele>221.33333333333334</ele><time>2026-05-03T13:02:18.966Z</time></trkpt><trkpt lat="45.40313414483737" lon="7.904168589243858"><ele>221.66666666666669</ele><time>2026-05-03T13:02:20.966Z</time></trkpt><trkpt lat="45.40319530733839" lon="7.904129129185506"><ele>222.0</ele><time>2026-05-03T13:02:21.966Z</time></trkpt><trkpt lat="45.40325250992723" lon="7.904088534236366"><ele>222.33333333333331</ele><time>2026-05-03T13:02:22.966Z</time></trkpt><trkpt lat="45.40331126711816" lon="7.904044791811805"><ele>222.66666666666666</ele><time>2026-05-03T13:02:23.966Z</time></trkpt><trkpt lat="45.403384482036834" lon="7.904002052419607"><ele>223.0</ele><time>2026-05-03T13:02:24.966Z</time></trkpt><trkpt lat="45.403462289348816" lon="7.903951468528368"><ele>223.0</ele><time>2026-05-03T13:02:25.966Z</time></trkpt><trkpt lat="45.4035436930351" lon="7.903898588557087"><ele>223.0</ele><time>2026-05-03T13:02:26.966Z</time></trkpt><trkpt lat="45.403627417459695" lon="7.903843828312248"><ele>223.0</ele><time>2026-05-03T13:02:27.966Z</time></trkpt><trkpt lat="45.403713760573176" lon="7.903787999328614"><ele>223.0</ele><time>2026-05-03T13:02:28.966Z</time></trkpt><trkpt lat="45.40379963402074" lon="7.903727161673351"><ele>223.0</ele><time>2026-05-03T13:02:29.966Z</time></trkpt><trkpt lat="45.40388543581499" lon="7.903670082641241"><ele>223.2</ele><time>2026-05-03T13:02:30.966Z</time></trkpt><trkpt lat="45.40397574819474" lon="7.903604950189889"><ele>223.4</ele><time>2026-05-03T13:02:31.966Z</time></trkpt><trkpt lat="45.404056415548055" lon="7.903539087803409"><ele>223.59999999999997</ele><time>2026-05-03T13:02:32.966Z</time></trkpt><trkpt lat="45.40414189494749" lon="7.903477867466298"><ele>223.79999999999998</ele><time>2026-05-03T13:02:33.966Z</time></trkpt><trkpt lat="45.404225186871074" lon="7.90342648160241"><ele>224.0</ele><time>2026-05-03T13:02:34.966Z</time></trkpt><trkpt lat="45.40430203777622" lon="7.9033654464661645"><ele>224.0</ele><time>2026-05-03T13:02:35.966Z</time></trkpt><trkpt lat="45.40437800156364" lon="7.903294960502653"><ele>223.99999999999997</ele><time>2026-05-03T13:02:36.966Z</time></trkpt><trkpt lat="45.4044552463978" lon="7.903230703726499"><ele>223.99999999999997</ele><time>2026-05-03T13:02:37.966Z</time></trkpt><trkpt lat="45.40452293948952" lon="7.9031765342065965"><ele>224.0</ele><time>2026-05-03T13:02:38.966Z</time></trkpt><trkpt lat="45.404613479915575" lon="7.90309180713707"><ele>224.0</ele><time>2026-05-03T13:02:40.966Z</time></trkpt><trkpt lat="45.40469249619669" lon="7.903045903650028"><ele>224.16666666666669</ele><time>2026-05-03T13:02:46.966Z</time></trkpt><trkpt lat="45.404743565278196" lon="7.903110968734221"><ele>224.33333333333334</ele><time>2026-05-03T13:02:48.966Z</time></trkpt><trkpt lat="45.40478681161451" lon="7.903199517710626"><ele>224.5</ele><time>2026-05-03T13:02:49.966Z</time></trkpt><trkpt lat="45.40481726280377" lon="7.903302376092589"><ele>224.66666666666669</ele><time>2026-05-03T13:02:50.966Z</time></trkpt><trkpt lat="45.404857314389304" lon="7.9034083662937"><ele>224.83333333333334</ele><time>2026-05-03T13:02:51.966Z</time></trkpt><trkpt lat="45.40489767004879" lon="7.903529527412582"><ele>225.0</ele><time>2026-05-03T13:02:52.966Z</time></trkpt><trkpt lat="45.404938611182544" lon="7.903642797247425"><ele>224.66666666666666</ele><time>2026-05-03T13:02:53.967Z</time></trkpt><trkpt lat="45.4049778041447" lon="7.903744467549719"><ele>224.33333333333331</ele><time>2026-05-03T13:02:54.967Z</time></trkpt><trkpt lat="45.40502410662263" lon="7.903841279689506"><ele>224.0</ele><time>2026-05-03T13:02:55.967Z</time></trkpt><trkpt lat="45.405060746897746" lon="7.9039243312880565"><ele>223.66666666666666</ele><time>2026-05-03T13:02:56.967Z</time></trkpt><trkpt lat="45.405099418497684" lon="7.904021072820809"><ele>223.33333333333331</ele><time>2026-05-03T13:02:57.967Z</time></trkpt><trkpt lat="45.40513626867989" lon="7.904122409166922"><ele>223.0</ele><time>2026-05-03T13:02:58.967Z</time></trkpt><trkpt lat="45.405178518925986" lon="7.904215128335204"><ele>222.66666666666666</ele><time>2026-05-03T13:02:59.967Z</time></trkpt><trkpt lat="45.40520708480057" lon="7.904298679740587"><ele>222.33333333333331</ele><time>2026-05-03T13:03:00.967Z</time></trkpt><trkpt lat="45.40526303663595" lon="7.904421047252587"><ele>222.0</ele><time>2026-05-03T13:03:02.967Z</time></trkpt><trkpt lat="45.40530324057221" lon="7.904532748562706"><ele>221.66666666666669</ele><time>2026-05-03T13:03:04.964Z</time></trkpt><trkpt lat="45.405366636436476" lon="7.904592417284412"><ele>221.33333333333334</ele><time>2026-05-03T13:03:06.963Z</time></trkpt><trkpt lat="45.40544178828602" lon="7.904555851807087"><ele>221.0</ele><time>2026-05-03T13:03:08.963Z</time></trkpt><trkpt lat="45.405513800095235" lon="7.904467552615417"><ele>221.00000000000003</ele><time>2026-05-03T13:03:10.963Z</time></trkpt><trkpt lat="45.4055858319077" lon="7.904360438772603"><ele>221.0</ele><time>2026-05-03T13:03:12.963Z</time></trkpt><trkpt lat="45.405636779012774" lon="7.904299559771622"><ele>221.0</ele><time>2026-05-03T13:03:13.962Z</time></trkpt><trkpt lat="45.405695885776275" lon="7.904230066623725"><ele>221.0</ele><time>2026-05-03T13:03:14.962Z</time></trkpt><trkpt lat="45.40575391736228" lon="7.90415092550911"><ele>221.00000000000003</ele><time>2026-05-03T13:03:15.963Z</time></trkpt><trkpt lat="45.40581052675688" lon="7.904072611915034"><ele>221.0</ele><time>2026-05-03T13:03:16.963Z</time></trkpt><trkpt lat="45.405860647597706" lon="7.903991252789035"><ele>221.33333333333334</ele><time>2026-05-03T13:03:17.963Z</time></trkpt><trkpt lat="45.4059082466824" lon="7.903914582012021"><ele>221.66666666666669</ele><time>2026-05-03T13:03:18.963Z</time></trkpt><trkpt lat="45.405995502004224" lon="7.903773379390355"><ele>222.0</ele><time>2026-05-03T13:03:20.963Z</time></trkpt><trkpt lat="45.40603371544569" lon="7.903700373781662"><ele>222.33333333333331</ele><time>2026-05-03T13:03:21.963Z</time></trkpt><trkpt lat="45.406075363525495" lon="7.903629130562464"><ele>222.66666666666666</ele><time>2026-05-03T13:03:22.963Z</time></trkpt><trkpt lat="45.40614158894903" lon="7.903500033805418"><ele>223.0</ele><time>2026-05-03T13:03:24.963Z</time></trkpt><trkpt lat="45.40618615950508" lon="7.903369423761189"><ele>222.83333333333331</ele><time>2026-05-03T13:03:26.963Z</time></trkpt><trkpt lat="45.40623937038619" lon="7.903230419447318"><ele>222.66666666666666</ele><time>2026-05-03T13:03:28.963Z</time></trkpt><trkpt lat="45.4062798455991" lon="7.903070327329689"><ele>222.5</ele><time>2026-05-03T13:03:30.963Z</time></trkpt><trkpt lat="45.40630011713074" lon="7.902984004494538"><ele>222.33333333333331</ele><time>2026-05-03T13:03:31.963Z</time></trkpt><trkpt lat="45.406320837283985" lon="7.902892050490998"><ele>222.16666666666666</ele><time>2026-05-03T13:03:32.963Z</time></trkpt><trkpt lat="45.40633653852427" lon="7.902786273117551"><ele>222.0</ele><time>2026-05-03T13:03:33.963Z</time></trkpt><trkpt lat="45.406358096022934" lon="7.902679310106597"><ele>222.0</ele><time>2026-05-03T13:03:34.963Z</time></trkpt><trkpt lat="45.40637244036028" lon="7.902567023080408"><ele>222.0</ele><time>2026-05-03T13:03:35.963Z</time></trkpt><trkpt lat="45.40637903951365" lon="7.902448412901506"><ele>222.0</ele><time>2026-05-03T13:03:36.963Z</time></trkpt><trkpt lat="45.40638624248303" lon="7.902316158532576"><ele>222.0</ele><time>2026-05-03T13:03:37.963Z</time></trkpt><trkpt lat="45.406404752291564" lon="7.902179273516269"><ele>222.0</ele><time>2026-05-03T13:03:38.963Z</time></trkpt><trkpt lat="45.40641289949549" lon="7.902033793418182"><ele>222.0</ele><time>2026-05-03T13:03:39.963Z</time></trkpt><trkpt lat="45.40643109804914" lon="7.901897714841981"><ele>222.0</ele><time>2026-05-03T13:03:40.963Z</time></trkpt><trkpt lat="45.40645242521691" lon="7.901755684244706"><ele>222.0</ele><time>2026-05-03T13:03:41.963Z</time></trkpt><trkpt lat="45.406478276793514" lon="7.901605355233389"><ele>222.0</ele><time>2026-05-03T13:03:42.963Z</time></trkpt><trkpt lat="45.40649708552139" lon="7.901451489488585"><ele>222.0</ele><time>2026-05-03T13:03:43.963Z</time></trkpt><trkpt lat="45.40651089926421" lon="7.901294460476677"><ele>221.8</ele><time>2026-05-03T13:03:44.963Z</time></trkpt><trkpt lat="45.40652193671983" lon="7.901137944233128"><ele>221.6</ele><time>2026-05-03T13:03:45.963Z</time></trkpt><trkpt lat="45.406531738317085" lon="7.900979753603013"><ele>221.40000000000003</ele><time>2026-05-03T13:03:46.963Z</time></trkpt><trkpt lat="45.40655010342484" lon="7.900831737757595"><ele>221.20000000000002</ele><time>2026-05-03T13:03:47.963Z</time></trkpt><trkpt lat="45.40656248451618" lon="7.900676097262413"><ele>221.0</ele><time>2026-05-03T13:03:48.963Z</time></trkpt><trkpt lat="45.406577114282186" lon="7.900514683165773"><ele>221.0</ele><time>2026-05-03T13:03:49.963Z</time></trkpt><trkpt lat="45.40659052684923" lon="7.900359632720178"><ele>221.00000000000003</ele><time>2026-05-03T13:03:50.963Z</time></trkpt><trkpt lat="45.406604795264805" lon="7.90019999979728"><ele>221.00000000000003</ele><time>2026-05-03T13:03:51.963Z</time></trkpt><trkpt lat="45.40662216317291" lon="7.9000487514172155"><ele>221.0</ele><time>2026-05-03T13:03:52.963Z</time></trkpt><trkpt lat="45.406637066567285" lon="7.899910703479011"><ele>221.0</ele><time>2026-05-03T13:03:53.963Z</time></trkpt><trkpt lat="45.40664772009915" lon="7.899766272924501"><ele>221.0</ele><time>2026-05-03T13:03:54.963Z</time></trkpt><trkpt lat="45.40666055509976" lon="7.899618812957565"><ele>221.00000000000003</ele><time>2026-05-03T13:03:55.963Z</time></trkpt><trkpt lat="45.406672021060366" lon="7.899466305174468"><ele>221.00000000000003</ele><time>2026-05-03T13:03:56.963Z</time></trkpt><trkpt lat="45.40668710828811" lon="7.899329287194668"><ele>221.0</ele><time>2026-05-03T13:03:57.963Z</time></trkpt><trkpt lat="45.40670370267985" lon="7.899211521713347"><ele>221.0</ele><time>2026-05-03T13:03:58.963Z</time></trkpt><trkpt lat="45.40673146582103" lon="7.899098976666878"><ele>221.4</ele><time>2026-05-03T13:03:59.963Z</time></trkpt><trkpt lat="45.406779678690185" lon="7.899021555461807"><ele>221.8</ele><time>2026-05-03T13:04:00.963Z</time></trkpt><trkpt lat="45.4068602797592" lon="7.898973945777797"><ele>222.20000000000002</ele><time>2026-05-03T13:04:01.963Z</time></trkpt><trkpt lat="45.406953070834334" lon="7.898944948051749"><ele>222.60000000000002</ele><time>2026-05-03T13:04:02.963Z</time></trkpt><trkpt lat="45.407054430064846" lon="7.898932359029305"><ele>223.0</ele><time>2026-05-03T13:04:03.963Z</time></trkpt><trkpt lat="45.40715569137783" lon="7.898922779813191"><ele>222.60000000000002</ele><time>2026-05-03T13:04:04.963Z</time></trkpt><trkpt lat="45.40726325864587" lon="7.898901587233082"><ele>222.20000000000002</ele><time>2026-05-03T13:04:05.963Z</time></trkpt><trkpt lat="45.407368791045116" lon="7.898864702148112"><ele>221.8</ele><time>2026-05-03T13:04:06.963Z</time></trkpt><trkpt lat="45.40748011508147" lon="7.898811733644529"><ele>221.4</ele><time>2026-05-03T13:04:07.963Z</time></trkpt><trkpt lat="45.407590793323074" lon="7.898768900170789"><ele>221.0</ele><time>2026-05-03T13:04:08.963Z</time></trkpt><trkpt lat="45.407700450863274" lon="7.898723372546895"><ele>221.0</ele><time>2026-05-03T13:04:09.963Z</time></trkpt><trkpt lat="45.40780607779928" lon="7.898677996257001"><ele>221.0</ele><time>2026-05-03T13:04:10.963Z</time></trkpt><trkpt lat="45.407925787232706" lon="7.898643729179653"><ele>221.0</ele><time>2026-05-03T13:04:11.963Z</time></trkpt><trkpt lat="45.408040453554506" lon="7.898599037493239"><ele>221.0</ele><time>2026-05-03T13:04:12.963Z</time></trkpt><trkpt lat="45.408155753829924" lon="7.898549646329316"><ele>221.25</ele><time>2026-05-03T13:04:13.963Z</time></trkpt><trkpt lat="45.40827379602459" lon="7.898502243096972"><ele>221.5</ele><time>2026-05-03T13:04:14.963Z</time></trkpt><trkpt lat="45.40839467639159" lon="7.898462381908757"><ele>221.75</ele><time>2026-05-03T13:04:15.963Z</time></trkpt><trkpt lat="45.408516601996226" lon="7.898423179166482"><ele>222.0</ele><time>2026-05-03T13:04:16.963Z</time></trkpt><trkpt lat="45.40863840662346" lon="7.898379011554096"><ele>222.0</ele><time>2026-05-03T13:04:17.963Z</time></trkpt><trkpt lat="45.40876475742977" lon="7.898336144820537"><ele>222.0</ele><time>2026-05-03T13:04:18.963Z</time></trkpt><trkpt lat="45.40888781856102" lon="7.898287825275954"><ele>222.0</ele><time>2026-05-03T13:04:19.963Z</time></trkpt><trkpt lat="45.409010168061016" lon="7.898214927478021"><ele>222.0</ele><time>2026-05-03T13:04:20.963Z</time></trkpt><trkpt lat="45.409135356761425" lon="7.898151536945579"><ele>222.25</ele><time>2026-05-03T13:04:21.963Z</time></trkpt><trkpt lat="45.40925510044087" lon="7.898103698667562"><ele>222.5</ele><time>2026-05-03T13:04:22.963Z</time></trkpt><trkpt lat="45.40938129467399" lon="7.898071225979358"><ele>222.75</ele><time>2026-05-03T13:04:23.963Z</time></trkpt><trkpt lat="45.40950772802742" lon="7.898057450545303"><ele>223.0</ele><time>2026-05-03T13:04:24.963Z</time></trkpt><trkpt lat="45.4096289978459" lon="7.8980659463638725"><ele>223.25</ele><time>2026-05-03T13:04:25.963Z</time></trkpt><trkpt lat="45.40975861890147" lon="7.898068319018716"><ele>223.5</ele><time>2026-05-03T13:04:26.963Z</time></trkpt><trkpt lat="45.40989754483816" lon="7.898064760457017"><ele>223.75</ele><time>2026-05-03T13:04:27.963Z</time></trkpt><trkpt lat="45.41002299495381" lon="7.898025244741537"><ele>224.0</ele><time>2026-05-03T13:04:28.963Z</time></trkpt><trkpt lat="45.410156328821834" lon="7.897967615836591"><ele>224.0</ele><time>2026-05-03T13:04:29.963Z</time></trkpt><trkpt lat="45.41028379884693" lon="7.897914805226952"><ele>224.0</ele><time>2026-05-03T13:04:30.963Z</time></trkpt><trkpt lat="45.410408135131334" lon="7.897851785027181"><ele>224.0</ele><time>2026-05-03T13:04:31.963Z</time></trkpt><trkpt lat="45.41053590626295" lon="7.897779953707339"><ele>224.0</ele><time>2026-05-03T13:04:32.963Z</time></trkpt><trkpt lat="45.41065990901004" lon="7.897698471973645"><ele>224.0</ele><time>2026-05-03T13:04:33.963Z</time></trkpt><trkpt lat="45.410777134647084" lon="7.897612638260964"><ele>224.0</ele><time>2026-05-03T13:04:34.963Z</time></trkpt><trkpt lat="45.41089646457232" lon="7.897512913794218"><ele>224.0</ele><time>2026-05-03T13:04:35.963Z</time></trkpt><trkpt lat="45.41101710895202" lon="7.897403674764208"><ele>224.0</ele><time>2026-05-03T13:04:36.963Z</time></trkpt><trkpt lat="45.41113724384407" lon="7.897314630866848"><ele>224.0</ele><time>2026-05-03T13:04:37.963Z</time></trkpt><trkpt lat="45.41125921209514" lon="7.897215671087702"><ele>224.0</ele><time>2026-05-03T13:04:38.963Z</time></trkpt><trkpt lat="45.411372261875286" lon="7.897126049782411"><ele>224.0</ele><time>2026-05-03T13:04:39.963Z</time></trkpt><trkpt lat="45.411495956589604" lon="7.897025487538912"><ele>224.0</ele><time>2026-05-03T13:04:40.963Z</time></trkpt><trkpt lat="45.41161567236851" lon="7.896939124957418"><ele>224.0</ele><time>2026-05-03T13:04:41.963Z</time></trkpt><trkpt lat="45.411729652063556" lon="7.896848509979393"><ele>224.0</ele><time>2026-05-03T13:04:42.963Z</time></trkpt><trkpt lat="45.41184796864222" lon="7.896764210208805"><ele>224.0</ele><time>2026-05-03T13:04:43.963Z</time></trkpt><trkpt lat="45.41197126169226" lon="7.896676932043553"><ele>224.0</ele><time>2026-05-03T13:04:44.963Z</time></trkpt><trkpt lat="45.412079940893584" lon="7.896583282279592"><ele>223.75</ele><time>2026-05-03T13:04:45.963Z</time></trkpt><trkpt lat="45.41217988931382" lon="7.896475022800819"><ele>223.5</ele><time>2026-05-03T13:04:46.963Z</time></trkpt><trkpt lat="45.41228191505425" lon="7.8963682047153725"><ele>223.25</ele><time>2026-05-03T13:04:47.963Z</time></trkpt><trkpt lat="45.412395258166256" lon="7.896283532804311"><ele>223.0</ele><time>2026-05-03T13:04:48.963Z</time></trkpt><trkpt lat="45.41250343866576" lon="7.896208458586257"><ele>223.0</ele><time>2026-05-03T13:04:49.963Z</time></trkpt><trkpt lat="45.41261412985859" lon="7.896093557578278"><ele>223.0</ele><time>2026-05-03T13:04:50.963Z</time></trkpt><trkpt lat="45.412720804076095" lon="7.895962821016983"><ele>223.0</ele><time>2026-05-03T13:04:51.963Z</time></trkpt><trkpt lat="45.41282626445335" lon="7.895837104633351"><ele>223.0</ele><time>2026-05-03T13:04:52.963Z</time></trkpt><trkpt lat="45.41293395757101" lon="7.895716537034825"><ele>222.75</ele><time>2026-05-03T13:04:53.963Z</time></trkpt><trkpt lat="45.41304321044997" lon="7.895602955954442"><ele>222.5</ele><time>2026-05-03T13:04:54.963Z</time></trkpt><trkpt lat="45.4131572034513" lon="7.895488604219948"><ele>222.25</ele><time>2026-05-03T13:04:55.963Z</time></trkpt><trkpt lat="45.41327118071056" lon="7.895405762889651"><ele>222.0</ele><time>2026-05-03T13:04:56.963Z</time></trkpt><trkpt lat="45.41337299139218" lon="7.895355719886168"><ele>222.0</ele><time>2026-05-03T13:04:57.963Z</time></trkpt><trkpt lat="45.41347837033183" lon="7.895320490713792"><ele>222.0</ele><time>2026-05-03T13:04:58.963Z</time></trkpt><trkpt lat="45.41356641800381" lon="7.89529215227571"><ele>222.0</ele><time>2026-05-03T13:04:59.963Z</time></trkpt><trkpt lat="45.413631185179554" lon="7.895254968931112"><ele>222.0</ele><time>2026-05-03T13:05:00.963Z</time></trkpt><trkpt lat="45.413675165460816" lon="7.895181385087252"><ele>222.0</ele><time>2026-05-03T13:05:01.963Z</time></trkpt><trkpt lat="45.41368932283363" lon="7.895086133657367"><ele>222.0</ele><time>2026-05-03T13:05:02.963Z</time></trkpt><trkpt lat="45.41366117885708" lon="7.894979389473495"><ele>222.5</ele><time>2026-05-03T13:05:03.963Z</time></trkpt><trkpt lat="45.41366458962455" lon="7.894860297925962"><ele>223.0</ele><time>2026-05-03T13:05:04.963Z</time></trkpt><trkpt lat="45.41365725026752" lon="7.894708424024505"><ele>223.5</ele><time>2026-05-03T13:05:05.963Z</time></trkpt><trkpt lat="45.41360095964482" lon="7.8944147133684375"><ele>224.0</ele><time>2026-05-03T13:05:07.963Z</time></trkpt><trkpt lat="45.41358846878562" lon="7.894271602940214"><ele>224.0</ele><time>2026-05-03T13:05:08.963Z</time></trkpt><trkpt lat="45.413554652149124" lon="7.894136062388194"><ele>223.99999999999997</ele><time>2026-05-03T13:05:09.96Z</time></trkpt><trkpt lat="45.41353291909775" lon="7.893996953033181"><ele>223.99999999999997</ele><time>2026-05-03T13:05:10.96Z</time></trkpt><trkpt lat="45.41353031713812" lon="7.893847918266023"><ele>224.0</ele><time>2026-05-03T13:05:11.96Z</time></trkpt><trkpt lat="45.41355837063348" lon="7.893692925630225"><ele>224.0</ele><time>2026-05-03T13:05:12.96Z</time></trkpt><trkpt lat="45.41361590806564" lon="7.893554436799879"><ele>224.2</ele><time>2026-05-03T13:05:13.959Z</time></trkpt><trkpt lat="45.4136646115756" lon="7.893415418446397"><ele>224.39999999999998</ele><time>2026-05-03T13:05:14.959Z</time></trkpt><trkpt lat="45.413708035179866" lon="7.893259140288811"><ele>224.6</ele><time>2026-05-03T13:05:15.959Z</time></trkpt><trkpt lat="45.41373389273251" lon="7.89310179697573"><ele>224.8</ele><time>2026-05-03T13:05:16.959Z</time></trkpt><trkpt lat="45.413746661913194" lon="7.892951211654578"><ele>225.0</ele><time>2026-05-03T13:05:17.959Z</time></trkpt><trkpt lat="45.413737074595424" lon="7.892812210863291"><ele>225.0</ele><time>2026-05-03T13:05:18.959Z</time></trkpt><trkpt lat="45.413696637253146" lon="7.892683050764199"><ele>225.0</ele><time>2026-05-03T13:05:19.959Z</time></trkpt><trkpt lat="45.41369309187467" lon="7.892533173971523"><ele>225.0</ele><time>2026-05-03T13:05:20.959Z</time></trkpt><trkpt lat="45.4137296993011" lon="7.8923897301468635"><ele>225.0</ele><time>2026-05-03T13:05:21.959Z</time></trkpt><trkpt lat="45.41377070164963" lon="7.892226864446569"><ele>225.0</ele><time>2026-05-03T13:05:22.959Z</time></trkpt><trkpt lat="45.4138014420395" lon="7.892030611405365"><ele>225.0</ele><time>2026-05-03T13:05:23.959Z</time></trkpt><trkpt lat="45.413846298984254" lon="7.8918616417759155"><ele>225.0</ele><time>2026-05-03T13:05:24.959Z</time></trkpt><trkpt lat="45.41389728348084" lon="7.891683515880859"><ele>225.0</ele><time>2026-05-03T13:05:25.959Z</time></trkpt><trkpt lat="45.41394581614264" lon="7.891510164429024"><ele>225.0</ele><time>2026-05-03T13:05:26.959Z</time></trkpt><trkpt lat="45.4139909323357" lon="7.891334615769978"><ele>224.75</ele><time>2026-05-03T13:05:27.959Z</time></trkpt><trkpt lat="45.414033535993795" lon="7.891153010526521"><ele>224.5</ele><time>2026-05-03T13:05:28.959Z</time></trkpt><trkpt lat="45.414095007804185" lon="7.890987615667763"><ele>224.25</ele><time>2026-05-03T13:05:29.959Z</time></trkpt><trkpt lat="45.41413219919362" lon="7.890818638917904"><ele>224.0</ele><time>2026-05-03T13:05:30.959Z</time></trkpt><trkpt lat="45.41417440095164" lon="7.890648603468453"><ele>223.75</ele><time>2026-05-03T13:05:31.959Z</time></trkpt><trkpt lat="45.41420817724683" lon="7.890478658570435"><ele>223.5</ele><time>2026-05-03T13:05:32.959Z</time></trkpt><trkpt lat="45.41423875887583" lon="7.890306066236193"><ele>223.25</ele><time>2026-05-03T13:05:33.959Z</time></trkpt><trkpt lat="45.41426690175062" lon="7.890134400533613"><ele>223.0</ele><time>2026-05-03T13:05:34.959Z</time></trkpt><trkpt lat="45.41428861941125" lon="7.889971316568337"><ele>222.8</ele><time>2026-05-03T13:05:35.959Z</time></trkpt><trkpt lat="45.41431629130731" lon="7.889825542311327"><ele>222.60000000000002</ele><time>2026-05-03T13:05:36.959Z</time></trkpt><trkpt lat="45.41434521574016" lon="7.889696054385751"><ele>222.39999999999998</ele><time>2026-05-03T13:05:37.959Z</time></trkpt><trkpt lat="45.41438146447498" lon="7.8896010635798035"><ele>222.2</ele><time>2026-05-03T13:05:38.959Z</time></trkpt><trkpt lat="45.41443167699962" lon="7.889522403525221"><ele>222.0</ele><time>2026-05-03T13:05:39.959Z</time></trkpt><trkpt lat="45.414546488190005" lon="7.889539888903161"><ele>222.75</ele><time>2026-05-03T13:05:40.959Z</time></trkpt><trkpt lat="45.414654814693904" lon="7.889567512117572"><ele>223.5</ele><time>2026-05-03T13:05:41.959Z</time></trkpt><trkpt lat="45.41477756239412" lon="7.889598049964923"><ele>224.25</ele><time>2026-05-03T13:05:42.959Z</time></trkpt><trkpt lat="45.414896413229606" lon="7.889598319652959"><ele>225.0</ele><time>2026-05-03T13:05:43.959Z</time></trkpt><trkpt lat="45.415015614106764" lon="7.889561056402259"><ele>225.0</ele><time>2026-05-03T13:05:44.959Z</time></trkpt><trkpt lat="45.41513212028303" lon="7.889493615783295"><ele>225.0</ele><time>2026-05-03T13:05:45.959Z</time></trkpt><trkpt lat="45.41524542252614" lon="7.889421951109066"><ele>225.0</ele><time>2026-05-03T13:05:46.959Z</time></trkpt><trkpt lat="45.41535600266898" lon="7.8893558942624376"><ele>225.0</ele><time>2026-05-03T13:05:47.959Z</time></trkpt><trkpt lat="45.41547487395273" lon="7.889302987059076"><ele>225.0</ele><time>2026-05-03T13:05:48.959Z</time></trkpt><trkpt lat="45.415586927157015" lon="7.889265722212567"><ele>225.0</ele><time>2026-05-03T13:05:49.959Z</time></trkpt><trkpt lat="45.41568764488271" lon="7.8892145306052095"><ele>225.0</ele><time>2026-05-03T13:05:50.959Z</time></trkpt><trkpt lat="45.415781731085936" lon="7.889156400092345"><ele>225.0</ele><time>2026-05-03T13:05:51.959Z</time></trkpt><trkpt lat="45.41585884123128" lon="7.8890924409480885"><ele>225.0</ele><time>2026-05-03T13:05:52.959Z</time></trkpt><trkpt lat="45.41591790872762" lon="7.889016977528782"><ele>225.0</ele><time>2026-05-03T13:05:53.959Z</time></trkpt><trkpt lat="45.41595228691737" lon="7.8889189599920595"><ele>225.0</ele><time>2026-05-03T13:05:54.959Z</time></trkpt><trkpt lat="45.41595812295759" lon="7.888799891258569"><ele>225.0</ele><time>2026-05-03T13:05:55.959Z</time></trkpt><trkpt lat="45.41593877356925" lon="7.888659652742671"><ele>225.0</ele><time>2026-05-03T13:05:56.959Z</time></trkpt><trkpt lat="45.415904718051124" lon="7.8885215326627875"><ele>225.0</ele><time>2026-05-03T13:05:57.959Z</time></trkpt><trkpt lat="45.4158818427296" lon="7.88838758305648"><ele>225.0</ele><time>2026-05-03T13:05:58.959Z</time></trkpt><trkpt lat="45.415833955405816" lon="7.888267638043482"><ele>225.0</ele><time>2026-05-03T13:05:59.959Z</time></trkpt><trkpt lat="45.41580542992298" lon="7.888121007364383"><ele>225.0</ele><time>2026-05-03T13:06:00.959Z</time></trkpt><trkpt lat="45.41575641409253" lon="7.887989926491455"><ele>225.0</ele><time>2026-05-03T13:06:01.959Z</time></trkpt><trkpt lat="45.4157055850556" lon="7.887854291537895"><ele>225.0</ele><time>2026-05-03T13:06:02.959Z</time></trkpt><trkpt lat="45.415657050493785" lon="7.887722950999234"><ele>225.0</ele><time>2026-05-03T13:06:03.959Z</time></trkpt><trkpt lat="45.41560638052031" lon="7.887582455285825"><ele>225.0</ele><time>2026-05-03T13:06:04.959Z</time></trkpt><trkpt lat="45.41555329465209" lon="7.887445602941866"><ele>225.0</ele><time>2026-05-03T13:06:05.959Z</time></trkpt><trkpt lat="45.415509199061304" lon="7.8872930272049855"><ele>225.0</ele><time>2026-05-03T13:06:06.959Z</time></trkpt><trkpt lat="45.41544141086587" lon="7.887161478170089"><ele>225.0</ele><time>2026-05-03T13:06:07.959Z</time></trkpt><trkpt lat="45.41536824752878" lon="7.887037167470221"><ele>225.0</ele><time>2026-05-03T13:06:08.959Z</time></trkpt><trkpt lat="45.415305360322826" lon="7.8869127623703275"><ele>225.0</ele><time>2026-05-03T13:06:09.959Z</time></trkpt><trkpt lat="45.41526070459933" lon="7.886772653326432"><ele>225.0</ele><time>2026-05-03T13:06:10.959Z</time></trkpt><trkpt lat="45.41524342809888" lon="7.886616273536207"><ele>225.0</ele><time>2026-05-03T13:06:11.959Z</time></trkpt><trkpt lat="45.415272329219995" lon="7.886470985619219"><ele>225.0</ele><time>2026-05-03T13:06:12.959Z</time></trkpt><trkpt lat="45.41530301700249" lon="7.886322495625779"><ele>225.0</ele><time>2026-05-03T13:06:13.959Z</time></trkpt><trkpt lat="45.41534133648495" lon="7.8862096777672175"><ele>225.0</ele><time>2026-05-03T13:06:14.959Z</time></trkpt><trkpt lat="45.4153850686027" lon="7.886103138529991"><ele>225.0</ele><time>2026-05-03T13:06:15.959Z</time></trkpt><trkpt lat="45.415437644756246" lon="7.885968425900373"><ele>225.0</ele><time>2026-05-03T13:06:16.959Z</time></trkpt><trkpt lat="45.41549489827472" lon="7.88582893695297"><ele>225.0</ele><time>2026-05-03T13:06:17.959Z</time></trkpt><trkpt lat="45.41555859959315" lon="7.885675565500613"><ele>225.0</ele><time>2026-05-03T13:06:18.959Z</time></trkpt><trkpt lat="45.4156268043079" lon="7.885535075223413"><ele>225.0</ele><time>2026-05-03T13:06:19.959Z</time></trkpt><trkpt lat="45.4156967483095" lon="7.885394129263463"><ele>225.0</ele><time>2026-05-03T13:06:20.959Z</time></trkpt><trkpt lat="45.4157653830326" lon="7.88526717097931"><ele>225.0</ele><time>2026-05-03T13:06:21.959Z</time></trkpt><trkpt lat="45.41582495653438" lon="7.885162223299009"><ele>225.0</ele><time>2026-05-03T13:06:22.959Z</time></trkpt><trkpt lat="45.4158769488653" lon="7.885073882938377"><ele>225.0</ele><time>2026-05-03T13:06:23.959Z</time></trkpt><trkpt lat="45.415929268115214" lon="7.884989975109706"><ele>225.0</ele><time>2026-05-03T13:06:24.959Z</time></trkpt><trkpt lat="45.4159856840021" lon="7.884880712247442"><ele>225.0</ele><time>2026-05-03T13:06:25.959Z</time></trkpt><trkpt lat="45.41603507569754" lon="7.884777072612688"><ele>225.0</ele><time>2026-05-03T13:06:26.959Z</time></trkpt><trkpt lat="45.416080151342136" lon="7.884672304214417"><ele>226.0</ele><time>2026-05-03T13:06:27.959Z</time></trkpt><trkpt lat="45.416124395511964" lon="7.88455945950837"><ele>227.0</ele><time>2026-05-03T13:06:28.959Z</time></trkpt><trkpt lat="45.415720680648036" lon="7.883855394942221"><ele>227.16666666666669</ele><time>2026-05-03T13:06:29.959Z</time></trkpt><trkpt lat="45.41571872114208" lon="7.883709693436576"><ele>227.33333333333334</ele><time>2026-05-03T13:06:30.959Z</time></trkpt><trkpt lat="45.41571976801879" lon="7.883582509516239"><ele>227.5</ele><time>2026-05-03T13:06:31.959Z</time></trkpt><trkpt lat="45.41572337899669" lon="7.883462708690111"><ele>227.66666666666669</ele><time>2026-05-03T13:06:32.959Z</time></trkpt><trkpt lat="45.415705868386446" lon="7.8833645326180655"><ele>227.83333333333334</ele><time>2026-05-03T13:06:33.959Z</time></trkpt><trkpt lat="45.41563918636839" lon="7.883291555925403"><ele>228.0</ele><time>2026-05-03T13:06:34.959Z</time></trkpt><trkpt lat="45.415554390797496" lon="7.883276773520689"><ele>227.8</ele><time>2026-05-03T13:06:35.959Z</time></trkpt><trkpt lat="45.415454822808194" lon="7.883300525165374"><ele>227.60000000000002</ele><time>2026-05-03T13:06:36.959Z</time></trkpt><trkpt lat="45.41533799439007" lon="7.883325909083446"><ele>227.39999999999998</ele><time>2026-05-03T13:06:37.959Z</time></trkpt><trkpt lat="45.415226091862465" lon="7.883344730158479"><ele>227.2</ele><time>2026-05-03T13:06:38.959Z</time></trkpt><trkpt lat="45.41511183572195" lon="7.883354386504357"><ele>227.0</ele><time>2026-05-03T13:06:39.959Z</time></trkpt><trkpt lat="45.41498853824506" lon="7.88336743373412"><ele>227.0</ele><time>2026-05-03T13:06:40.959Z</time></trkpt><trkpt lat="45.41485883087662" lon="7.883375570184504"><ele>227.0</ele><time>2026-05-03T13:06:41.959Z</time></trkpt><trkpt lat="45.41473050509495" lon="7.883375873842546"><ele>227.0</ele><time>2026-05-03T13:06:42.959Z</time></trkpt><trkpt lat="45.41460809007149" lon="7.883357814632532"><ele>227.0</ele><time>2026-05-03T13:06:43.959Z</time></trkpt><trkpt lat="45.41448677254608" lon="7.883329201300812"><ele>227.5</ele><time>2026-05-03T13:06:44.959Z</time></trkpt><trkpt lat="45.41437405195673" lon="7.883283018924309"><ele>228.0</ele><time>2026-05-03T13:06:45.959Z</time></trkpt><trkpt lat="45.41425908532971" lon="7.88320538513563"><ele>228.5</ele><time>2026-05-03T13:06:46.959Z</time></trkpt><trkpt lat="45.414160664717784" lon="7.8830776403246245"><ele>229.0</ele><time>2026-05-03T13:06:47.959Z</time></trkpt><trkpt lat="45.41405992786853" lon="7.882980338530233"><ele>229.0</ele><time>2026-05-03T13:06:48.959Z</time></trkpt><trkpt lat="45.4139436768141" lon="7.882904073277655"><ele>229.0</ele><time>2026-05-03T13:06:49.96Z</time></trkpt><trkpt lat="45.41384096226813" lon="7.882839030301878"><ele>229.0</ele><time>2026-05-03T13:06:50.96Z</time></trkpt><trkpt lat="45.4137365782423" lon="7.882776270859206"><ele>229.0</ele><time>2026-05-03T13:06:51.96Z</time></trkpt><trkpt lat="45.41364534252666" lon="7.882693058354285"><ele>228.39999999999998</ele><time>2026-05-03T13:06:52.96Z</time></trkpt><trkpt lat="45.41358424371081" lon="7.88256861453973"><ele>227.79999999999998</ele><time>2026-05-03T13:06:53.96Z</time></trkpt><trkpt lat="45.41353149800682" lon="7.882421934815487"><ele>227.20000000000002</ele><time>2026-05-03T13:06:54.96Z</time></trkpt><trkpt lat="45.41346814698182" lon="7.882299175632945"><ele>226.60000000000002</ele><time>2026-05-03T13:06:55.96Z</time></trkpt><trkpt lat="45.413398446332025" lon="7.882194094141602"><ele>226.0</ele><time>2026-05-03T13:06:56.96Z</time></trkpt><trkpt lat="45.41333987824337" lon="7.8821020163788935"><ele>225.99999999999997</ele><time>2026-05-03T13:06:57.96Z</time></trkpt><trkpt lat="45.4133090575955" lon="7.882010642849643"><ele>226.0</ele><time>2026-05-03T13:06:58.96Z</time></trkpt><trkpt lat="45.41330970535236" lon="7.8819077399699475"><ele>226.0</ele><time>2026-05-03T13:06:59.96Z</time></trkpt><trkpt lat="45.413318361836765" lon="7.881797898313383"><ele>226.0</ele><time>2026-05-03T13:07:00.96Z</time></trkpt><trkpt lat="45.41333457411674" lon="7.881663782657623"><ele>225.99999999999997</ele><time>2026-05-03T13:07:01.96Z</time></trkpt><trkpt lat="45.41336990067693" lon="7.881504331129185"><ele>226.0</ele><time>2026-05-03T13:07:02.96Z</time></trkpt><trkpt lat="45.413400583482755" lon="7.8813239247249385"><ele>225.75</ele><time>2026-05-03T13:07:03.96Z</time></trkpt><trkpt lat="45.41343538687321" lon="7.881122288775583"><ele>225.5</ele><time>2026-05-03T13:07:04.96Z</time></trkpt><trkpt lat="45.413459806018174" lon="7.880917455212663"><ele>225.25</ele><time>2026-05-03T13:07:05.96Z</time></trkpt><trkpt lat="45.413489815890124" lon="7.880710267784211"><ele>225.0</ele><time>2026-05-03T13:07:06.96Z</time></trkpt><trkpt lat="45.41349748926292" lon="7.8804652139672395"><ele>225.0</ele><time>2026-05-03T13:07:07.96Z</time></trkpt><trkpt lat="45.41347981412688" lon="7.880198604910495"><ele>225.0</ele><time>2026-05-03T13:07:08.96Z</time></trkpt><trkpt lat="45.41343929702495" lon="7.879931019166629"><ele>225.0</ele><time>2026-05-03T13:07:09.96Z</time></trkpt><trkpt lat="45.4134067468187" lon="7.879701305886988"><ele>225.0</ele><time>2026-05-03T13:07:10.96Z</time></trkpt><trkpt lat="45.41340398088702" lon="7.879519242362547"><ele>225.0</ele><time>2026-05-03T13:07:11.96Z</time></trkpt><trkpt lat="45.41339549120119" lon="7.879369567868301"><ele>225.0</ele><time>2026-05-03T13:07:12.96Z</time></trkpt><trkpt lat="45.413383789024635" lon="7.8792343207098625"><ele>225.0</ele><time>2026-05-03T13:07:13.96Z</time></trkpt><trkpt lat="45.413374150793175" lon="7.87911557473286"><ele>225.0</ele><time>2026-05-03T13:07:14.96Z</time></trkpt><trkpt lat="45.41337421692294" lon="7.879001795762905"><ele>225.0</ele><time>2026-05-03T13:07:15.956Z</time></trkpt><trkpt lat="45.413369229548685" lon="7.878900532334471"><ele>225.0</ele><time>2026-05-03T13:07:16.956Z</time></trkpt><trkpt lat="45.41334989691396" lon="7.878766440588864"><ele>225.0</ele><time>2026-05-03T13:07:18.956Z</time></trkpt><trkpt lat="45.41334218780293" lon="7.878625298722781"><ele>225.0</ele><time>2026-05-03T13:08:31.956Z</time></trkpt><trkpt lat="45.41334666503293" lon="7.878515248714905"><ele>225.0</ele><time>2026-05-03T13:08:32.956Z</time></trkpt><trkpt lat="45.41333929275088" lon="7.878392724157802"><ele>225.0</ele><time>2026-05-03T13:08:33.956Z</time></trkpt><trkpt lat="45.41333361115414" lon="7.878252461013845"><ele>224.8</ele><time>2026-05-03T13:08:34.956Z</time></trkpt><trkpt lat="45.41332772116414" lon="7.878120998091482"><ele>224.6</ele><time>2026-05-03T13:08:35.956Z</time></trkpt><trkpt lat="45.41332015116942" lon="7.877980288644725"><ele>224.39999999999998</ele><time>2026-05-03T13:08:36.956Z</time></trkpt><trkpt lat="45.4133127150132" lon="7.877825334575937"><ele>224.2</ele><time>2026-05-03T13:08:37.956Z</time></trkpt><trkpt lat="45.41331019282768" lon="7.877674883594552"><ele>224.0</ele><time>2026-05-03T13:08:38.956Z</time></trkpt><trkpt lat="45.413310590236954" lon="7.877511962725052"><ele>224.0</ele><time>2026-05-03T13:08:39.956Z</time></trkpt><trkpt lat="45.41331374884039" lon="7.877348871495673"><ele>224.0</ele><time>2026-05-03T13:08:40.956Z</time></trkpt><trkpt lat="45.41331438072773" lon="7.877177970536876"><ele>224.0</ele><time>2026-05-03T13:08:41.956Z</time></trkpt><trkpt lat="45.413312491926376" lon="7.877000237476061"><ele>224.0</ele><time>2026-05-03T13:08:42.956Z</time></trkpt><trkpt lat="45.41332514942335" lon="7.876829658987778"><ele>224.0</ele><time>2026-05-03T13:08:43.956Z</time></trkpt><trkpt lat="45.41335811264707" lon="7.876655443875481"><ele>224.0</ele><time>2026-05-03T13:08:44.956Z</time></trkpt><trkpt lat="45.41340613828151" lon="7.876498523459736"><ele>224.0</ele><time>2026-05-03T13:08:45.956Z</time></trkpt><trkpt lat="45.41346600801719" lon="7.876341599329422"><ele>224.0</ele><time>2026-05-03T13:08:46.956Z</time></trkpt><trkpt lat="45.41351177392872" lon="7.876191246834367"><ele>224.0</ele><time>2026-05-03T13:08:47.956Z</time></trkpt><trkpt lat="45.41355573111165" lon="7.876007991757995"><ele>223.99999999999997</ele><time>2026-05-03T13:08:48.956Z</time></trkpt><trkpt lat="45.41358389309947" lon="7.875834102740246"><ele>223.99999999999997</ele><time>2026-05-03T13:08:49.956Z</time></trkpt><trkpt lat="45.413620947257996" lon="7.875702690065793"><ele>224.0</ele><time>2026-05-03T13:08:50.956Z</time></trkpt><trkpt lat="45.413666369355866" lon="7.875611857134362"><ele>224.0</ele><time>2026-05-03T13:08:51.956Z</time></trkpt><trkpt lat="45.413711602146954" lon="7.87550804661018"><ele>224.0</ele><time>2026-05-03T13:08:52.956Z</time></trkpt><trkpt lat="45.41372868220937" lon="7.8753864090941"><ele>223.99999999999997</ele><time>2026-05-03T13:08:53.956Z</time></trkpt><trkpt lat="45.413701966892674" lon="7.875286874138175"><ele>223.99999999999997</ele><time>2026-05-03T13:08:54.956Z</time></trkpt><trkpt lat="45.41364956902848" lon="7.875182037392588"><ele>224.0</ele><time>2026-05-03T13:08:55.956Z</time></trkpt><trkpt lat="45.413606664862336" lon="7.875012046843702"><ele>224.0</ele><time>2026-05-03T13:08:56.956Z</time></trkpt><trkpt lat="45.413582254689864" lon="7.874834612081869"><ele>224.0</ele><time>2026-05-03T13:08:57.956Z</time></trkpt><trkpt lat="45.41360012477216" lon="7.874668060322264"><ele>224.0</ele><time>2026-05-03T13:08:58.956Z</time></trkpt><trkpt lat="45.413630099685975" lon="7.874491185044112"><ele>224.0</ele><time>2026-05-03T13:08:59.956Z</time></trkpt><trkpt lat="45.41366633930852" lon="7.874312067201555"><ele>224.0</ele><time>2026-05-03T13:09:00.956Z</time></trkpt><trkpt lat="45.41369287090482" lon="7.874133175553248"><ele>224.0</ele><time>2026-05-03T13:09:01.956Z</time></trkpt><trkpt lat="45.4137054902981" lon="7.873936756873182"><ele>224.0</ele><time>2026-05-03T13:09:02.956Z</time></trkpt><trkpt lat="45.41369698561048" lon="7.873742143400275"><ele>224.0</ele><time>2026-05-03T13:09:03.956Z</time></trkpt><trkpt lat="45.413690497274274" lon="7.873551196116185"><ele>224.0</ele><time>2026-05-03T13:09:04.956Z</time></trkpt><trkpt lat="45.413724424325885" lon="7.873353646776658"><ele>224.0</ele><time>2026-05-03T13:09:05.956Z</time></trkpt><trkpt lat="45.413780645015045" lon="7.8731643227727"><ele>224.0</ele><time>2026-05-03T13:09:06.956Z</time></trkpt><trkpt lat="45.413825296147735" lon="7.872954705978527"><ele>224.0</ele><time>2026-05-03T13:09:07.956Z</time></trkpt><trkpt lat="45.41387646445662" lon="7.872757212585712"><ele>224.0</ele><time>2026-05-03T13:09:08.956Z</time></trkpt><trkpt lat="45.413929468865085" lon="7.872561323169361"><ele>224.0</ele><time>2026-05-03T13:09:09.956Z</time></trkpt><trkpt lat="45.41397806290918" lon="7.872362110547969"><ele>224.0</ele><time>2026-05-03T13:09:10.956Z</time></trkpt><trkpt lat="45.41401969075762" lon="7.872146164347614"><ele>224.0</ele><time>2026-05-03T13:09:11.956Z</time></trkpt><trkpt lat="45.41406205602105" lon="7.871951604374114"><ele>224.0</ele><time>2026-05-03T13:09:12.956Z</time></trkpt><trkpt lat="45.41410668218994" lon="7.87176082250135"><ele>224.25</ele><time>2026-05-03T13:09:13.956Z</time></trkpt><trkpt lat="45.41415271251706" lon="7.871573724594593"><ele>224.5</ele><time>2026-05-03T13:09:14.956Z</time></trkpt><trkpt lat="45.41419213458329" lon="7.87138769282147"><ele>224.75</ele><time>2026-05-03T13:09:15.956Z</time></trkpt><trkpt lat="45.4142402947754" lon="7.871191798210192"><ele>225.0</ele><time>2026-05-03T13:09:16.956Z</time></trkpt><trkpt lat="45.41428494774806" lon="7.870994625280291"><ele>225.25</ele><time>2026-05-03T13:09:17.956Z</time></trkpt><trkpt lat="45.41434173435845" lon="7.870805179863804"><ele>225.5</ele><time>2026-05-03T13:09:18.956Z</time></trkpt><trkpt lat="45.41440501059522" lon="7.870623191202918"><ele>225.75</ele><time>2026-05-03T13:09:19.956Z</time></trkpt><trkpt lat="45.4144814827923" lon="7.870443867316546"><ele>226.0</ele><time>2026-05-03T13:09:20.956Z</time></trkpt><trkpt lat="45.41455523914823" lon="7.870272606791798"><ele>226.0</ele><time>2026-05-03T13:09:21.953Z</time></trkpt><trkpt lat="45.414634462670136" lon="7.8701157246093345"><ele>226.0</ele><time>2026-05-03T13:09:22.954Z</time></trkpt><trkpt lat="45.41470935159345" lon="7.869977888643899"><ele>226.0</ele><time>2026-05-03T13:09:23.954Z</time></trkpt><trkpt lat="45.41479568077814" lon="7.869857075843319"><ele>226.0</ele><time>2026-05-03T13:09:24.954Z</time></trkpt><trkpt lat="45.41490312242818" lon="7.869739963977099"><ele>225.75</ele><time>2026-05-03T13:09:25.954Z</time></trkpt><trkpt lat="45.41503043538745" lon="7.869650424752954"><ele>225.5</ele><time>2026-05-03T13:09:26.954Z</time></trkpt><trkpt lat="45.41516162611923" lon="7.869568589879628"><ele>225.25</ele><time>2026-05-03T13:09:27.953Z</time></trkpt><trkpt lat="45.41529216534668" lon="7.869503083348002"><ele>225.0</ele><time>2026-05-03T13:09:28.953Z</time></trkpt><trkpt lat="45.41542657248715" lon="7.86945014252121"><ele>225.25</ele><time>2026-05-03T13:09:29.953Z</time></trkpt><trkpt lat="45.41553914237041" lon="7.869386987868739"><ele>225.5</ele><time>2026-05-03T13:09:30.954Z</time></trkpt><trkpt lat="45.41563175914152" lon="7.869318257413299"><ele>225.75</ele><time>2026-05-03T13:09:31.953Z</time></trkpt><trkpt lat="45.4157196470731" lon="7.869206801820236"><ele>226.0</ele><time>2026-05-03T13:09:32.953Z</time></trkpt><trkpt lat="45.41579836500424" lon="7.86906598648464"><ele>226.0</ele><time>2026-05-03T13:09:33.953Z</time></trkpt><trkpt lat="45.415872249246135" lon="7.868930232376547"><ele>226.0</ele><time>2026-05-03T13:09:34.953Z</time></trkpt><trkpt lat="45.41592952825859" lon="7.86877529980209"><ele>226.0</ele><time>2026-05-03T13:09:35.953Z</time></trkpt><trkpt lat="45.41598887267701" lon="7.868606248474387"><ele>226.0</ele><time>2026-05-03T13:09:36.953Z</time></trkpt><trkpt lat="45.41604133215408" lon="7.86845722472502"><ele>225.60000000000002</ele><time>2026-05-03T13:09:37.953Z</time></trkpt><trkpt lat="45.416093032660164" lon="7.868308010853896"><ele>225.20000000000002</ele><time>2026-05-03T13:09:38.953Z</time></trkpt><trkpt lat="45.416152485492866" lon="7.86816476749994"><ele>224.79999999999998</ele><time>2026-05-03T13:09:39.953Z</time></trkpt><trkpt lat="45.416200459350584" lon="7.868022262769585"><ele>224.39999999999998</ele><time>2026-05-03T13:09:40.953Z</time></trkpt><trkpt lat="45.41624214086859" lon="7.867895838738966"><ele>224.0</ele><time>2026-05-03T13:09:41.953Z</time></trkpt><trkpt lat="45.41625734077408" lon="7.86774501156749"><ele>224.79999999999998</ele><time>2026-05-03T13:09:43.953Z</time></trkpt><trkpt lat="45.41635356582047" lon="7.867745456173171"><ele>225.59999999999997</ele><time>2026-05-03T13:09:45.953Z</time></trkpt><trkpt lat="45.41641211428368" lon="7.867825918177116"><ele>226.4</ele><time>2026-05-03T13:09:46.953Z</time></trkpt><trkpt lat="45.41648985918273" lon="7.867968076618287"><ele>227.2</ele><time>2026-05-03T13:09:47.953Z</time></trkpt><trkpt lat="45.41655956033088" lon="7.868085475428086"><ele>228.0</ele><time>2026-05-03T13:09:48.953Z</time></trkpt><trkpt lat="45.41661888022957" lon="7.868142512316536"><ele>228.0</ele><time>2026-05-03T13:09:49.953Z</time></trkpt><trkpt lat="45.41668586985884" lon="7.8681532766036755"><ele>228.0</ele><time>2026-05-03T13:09:50.953Z</time></trkpt><trkpt lat="45.41676299068942" lon="7.8681131768261885"><ele>228.0</ele><time>2026-05-03T13:09:51.953Z</time></trkpt><trkpt lat="45.41681799257037" lon="7.8680185962536"><ele>228.0</ele><time>2026-05-03T13:09:52.953Z</time></trkpt><trkpt lat="45.41686896052855" lon="7.867895264063519"><ele>228.0</ele><time>2026-05-03T13:09:53.953Z</time></trkpt><trkpt lat="45.416917108928665" lon="7.86776720046422"><ele>228.0</ele><time>2026-05-03T13:09:54.953Z</time></trkpt><trkpt lat="45.41696662386479" lon="7.867628438575838"><ele>228.5</ele><time>2026-05-03T13:09:55.953Z</time></trkpt><trkpt lat="45.417032902490114" lon="7.867472246921863"><ele>229.0</ele><time>2026-05-03T13:09:56.953Z</time></trkpt><trkpt lat="45.41710680110359" lon="7.867309052653778"><ele>229.5</ele><time>2026-05-03T13:09:57.953Z</time></trkpt><trkpt lat="45.41718400322205" lon="7.867168071371761"><ele>230.0</ele><time>2026-05-03T13:09:58.953Z</time></trkpt><trkpt lat="45.41726020193682" lon="7.867039317949644"><ele>229.6</ele><time>2026-05-03T13:09:59.953Z</time></trkpt><trkpt lat="45.41734396947244" lon="7.866919883595794"><ele>229.2</ele><time>2026-05-03T13:10:00.953Z</time></trkpt><trkpt lat="45.417409641655055" lon="7.866812455275298"><ele>228.8</ele><time>2026-05-03T13:10:01.953Z</time></trkpt><trkpt lat="45.41747870813168" lon="7.8666914258699725"><ele>228.4</ele><time>2026-05-03T13:10:02.953Z</time></trkpt><trkpt lat="45.41755865130853" lon="7.866591151428927"><ele>228.0</ele><time>2026-05-03T13:10:03.953Z</time></trkpt><trkpt lat="45.41766012357994" lon="7.866541748990897"><ele>228.0</ele><time>2026-05-03T13:10:04.953Z</time></trkpt><trkpt lat="45.4177647459998" lon="7.866507513721917"><ele>228.0</ele><time>2026-05-03T13:10:05.953Z</time></trkpt><trkpt lat="45.41788127659108" lon="7.8664899533674655"><ele>228.0</ele><time>2026-05-03T13:10:06.953Z</time></trkpt><trkpt lat="45.41800061238195" lon="7.866459066547332"><ele>228.0</ele><time>2026-05-03T13:10:07.953Z</time></trkpt><trkpt lat="45.4181219276247" lon="7.866426085174462"><ele>227.25</ele><time>2026-05-03T13:10:08.953Z</time></trkpt><trkpt lat="45.41823967904574" lon="7.866397950862185"><ele>226.5</ele><time>2026-05-03T13:10:09.953Z</time></trkpt><trkpt lat="45.418367794942206" lon="7.866378835986739"><ele>225.75</ele><time>2026-05-03T13:10:10.953Z</time></trkpt><trkpt lat="45.41849398990715" lon="7.866362540842237"><ele>225.0</ele><time>2026-05-03T13:10:11.953Z</time></trkpt><trkpt lat="45.41861742100866" lon="7.866340228709678"><ele>225.0</ele><time>2026-05-03T13:10:12.953Z</time></trkpt><trkpt lat="45.41873596196218" lon="7.866309667481041"><ele>225.0</ele><time>2026-05-03T13:10:13.953Z</time></trkpt><trkpt lat="45.41884744614116" lon="7.866258349688889"><ele>225.0</ele><time>2026-05-03T13:10:14.953Z</time></trkpt><trkpt lat="45.41895873766003" lon="7.866188274299317"><ele>225.0</ele><time>2026-05-03T13:10:15.953Z</time></trkpt><trkpt lat="45.41909002713411" lon="7.866135058691468"><ele>225.0</ele><time>2026-05-03T13:10:16.953Z</time></trkpt><trkpt lat="45.41922231304615" lon="7.8660893410597446"><ele>225.0</ele><time>2026-05-03T13:10:17.953Z</time></trkpt><trkpt lat="45.41934010036238" lon="7.866041148239574"><ele>225.0</ele><time>2026-05-03T13:10:18.953Z</time></trkpt><trkpt lat="45.41946741263578" lon="7.8659857462479925"><ele>225.0</ele><time>2026-05-03T13:10:19.953Z</time></trkpt><trkpt lat="45.41958923098454" lon="7.865932238198683"><ele>226.0</ele><time>2026-05-03T13:10:20.953Z</time></trkpt><trkpt lat="45.419716909234204" lon="7.865872393767199"><ele>227.0</ele><time>2026-05-03T13:10:21.953Z</time></trkpt><trkpt lat="45.419835096557065" lon="7.865832721591183"><ele>228.0</ele><time>2026-05-03T13:10:22.953Z</time></trkpt><trkpt lat="45.41995281690066" lon="7.865797135902187"><ele>229.0</ele><time>2026-05-03T13:10:23.953Z</time></trkpt><trkpt lat="45.42006950558162" lon="7.865752837115033"><ele>229.0</ele><time>2026-05-03T13:10:24.953Z</time></trkpt><trkpt lat="45.42018310477899" lon="7.86569977367089"><ele>229.0</ele><time>2026-05-03T13:10:25.953Z</time></trkpt><trkpt lat="45.42028882265036" lon="7.865649029543137"><ele>229.0</ele><time>2026-05-03T13:10:26.953Z</time></trkpt><trkpt lat="45.42040374397657" lon="7.8656111742381505"><ele>229.0</ele><time>2026-05-03T13:10:27.953Z</time></trkpt><trkpt lat="45.420523013250936" lon="7.8655835021706855"><ele>229.0</ele><time>2026-05-03T13:10:28.953Z</time></trkpt><trkpt lat="45.42064342194376" lon="7.865548546015372"><ele>229.0</ele><time>2026-05-03T13:10:29.953Z</time></trkpt><trkpt lat="45.420762260831886" lon="7.865526476088993"><ele>229.0</ele><time>2026-05-03T13:10:30.953Z</time></trkpt><trkpt lat="45.4208763598231" lon="7.865530881904153"><ele>229.0</ele><time>2026-05-03T13:10:31.953Z</time></trkpt><trkpt lat="45.42098353785472" lon="7.865545531872938"><ele>229.0</ele><time>2026-05-03T13:10:32.953Z</time></trkpt><trkpt lat="45.4211015306468" lon="7.865573142660023"><ele>229.0</ele><time>2026-05-03T13:10:33.953Z</time></trkpt><trkpt lat="45.42121425367452" lon="7.865589821859563"><ele>229.0</ele><time>2026-05-03T13:10:34.953Z</time></trkpt><trkpt lat="45.421332869982145" lon="7.86560529017649"><ele>229.0</ele><time>2026-05-03T13:10:35.953Z</time></trkpt><trkpt lat="45.421449117662796" lon="7.865605603976408"><ele>228.75</ele><time>2026-05-03T13:10:36.953Z</time></trkpt><trkpt lat="45.42156636165316" lon="7.865584480949606"><ele>228.5</ele><time>2026-05-03T13:10:37.953Z</time></trkpt><trkpt lat="45.4216874187902" lon="7.865561047441728"><ele>228.25</ele><time>2026-05-03T13:10:38.953Z</time></trkpt><trkpt lat="45.42181031027131" lon="7.865509355933287"><ele>228.0</ele><time>2026-05-03T13:10:39.953Z</time></trkpt><trkpt lat="45.421927837765494" lon="7.8654456984751695"><ele>228.0</ele><time>2026-05-03T13:10:40.953Z</time></trkpt><trkpt lat="45.42203954230203" lon="7.865365697913185"><ele>228.0</ele><time>2026-05-03T13:10:41.953Z</time></trkpt><trkpt lat="45.42214723483873" lon="7.865264271629203"><ele>228.0</ele><time>2026-05-03T13:10:42.953Z</time></trkpt><trkpt lat="45.42224853689934" lon="7.865148208227571"><ele>228.0</ele><time>2026-05-03T13:10:43.953Z</time></trkpt><trkpt lat="45.42234619831295" lon="7.865031477207538"><ele>228.5</ele><time>2026-05-03T13:10:44.953Z</time></trkpt><trkpt lat="45.42243596921682" lon="7.86491477763728"><ele>229.0</ele><time>2026-05-03T13:10:45.953Z</time></trkpt><trkpt lat="45.422528441291256" lon="7.864797147510259"><ele>229.5</ele><time>2026-05-03T13:10:46.953Z</time></trkpt><trkpt lat="45.42262903447251" lon="7.864676346764776"><ele>230.0</ele><time>2026-05-03T13:10:47.953Z</time></trkpt><trkpt lat="45.42272341958759" lon="7.864565419133392"><ele>230.00000000000003</ele><time>2026-05-03T13:10:48.953Z</time></trkpt><trkpt lat="45.422805315612244" lon="7.864452610337405"><ele>230.0</ele><time>2026-05-03T13:10:49.953Z</time></trkpt><trkpt lat="45.42287507084451" lon="7.864347558484254"><ele>230.0</ele><time>2026-05-03T13:10:50.953Z</time></trkpt><trkpt lat="45.42293087508564" lon="7.864254626798322"><ele>230.0</ele><time>2026-05-03T13:10:51.953Z</time></trkpt><trkpt lat="45.42298228871062" lon="7.864170780265587"><ele>230.00000000000003</ele><time>2026-05-03T13:10:53.953Z</time></trkpt><trkpt lat="45.42299672695719" lon="7.8640790755980925"><ele>230.0</ele><time>2026-05-03T13:10:55.953Z</time></trkpt><trkpt lat="45.422978155703056" lon="7.863990942804206"><ele>229.99999999999997</ele><time>2026-05-03T13:10:57.953Z</time></trkpt><trkpt lat="45.422963653561894" lon="7.863897574260647"><ele>230.0</ele><time>2026-05-03T13:10:59.953Z</time></trkpt><trkpt lat="45.42295423052524" lon="7.863808146134228"><ele>229.99999999999997</ele><time>2026-05-03T13:11:01.953Z</time></trkpt><trkpt lat="45.42294270730067" lon="7.863705882815724"><ele>229.99999999999997</ele><time>2026-05-03T13:11:04.953Z</time></trkpt><trkpt lat="45.42292543753643" lon="7.863597747498675"><ele>230.0</ele><time>2026-05-03T13:11:06.953Z</time></trkpt><trkpt lat="45.42293986087593" lon="7.8634828228658415"><ele>229.99999999999997</ele><time>2026-05-03T13:11:08.953Z</time></trkpt><trkpt lat="45.422942896014945" lon="7.863379983582725"><ele>229.99999999999997</ele><time>2026-05-03T13:11:10.953Z</time></trkpt><trkpt lat="45.422976236318775" lon="7.863297189563798"><ele>229.50000000000003</ele><time>2026-05-03T13:11:12.953Z</time></trkpt><trkpt lat="45.4230280984604" lon="7.863231209999655"><ele>229.0</ele><time>2026-05-03T13:11:15.954Z</time></trkpt><trkpt lat="45.4230726575908" lon="7.863147536824121"><ele>228.5</ele><time>2026-05-03T13:11:17.954Z</time></trkpt><trkpt lat="45.423121126504086" lon="7.863053751917574"><ele>228.0</ele><time>2026-05-03T13:11:19.954Z</time></trkpt><trkpt lat="45.423186882788904" lon="7.8629825808752285"><ele>227.50000000000003</ele><time>2026-05-03T13:11:21.954Z</time></trkpt><trkpt lat="45.42325966042782" lon="7.86295727167653"><ele>227.0</ele><time>2026-05-03T13:11:23.954Z</time></trkpt><trkpt lat="45.423338029253976" lon="7.8629242037506435"><ele>227.0</ele><time>2026-05-03T13:11:25.954Z</time></trkpt><trkpt lat="45.42342553202101" lon="7.862865489542758"><ele>227.0</ele><time>2026-05-03T13:11:27.95Z</time></trkpt><trkpt lat="45.42350061211213" lon="7.862756316731166"><ele>227.0</ele><time>2026-05-03T13:11:29.95Z</time></trkpt><trkpt lat="45.42352565406581" lon="7.8625986101418315"><ele>227.0</ele><time>2026-05-03T13:11:31.95Z</time></trkpt><trkpt lat="45.42353491403601" lon="7.862406127658415"><ele>226.8</ele><time>2026-05-03T13:11:33.95Z</time></trkpt><trkpt lat="45.42354583135461" lon="7.862279034531527"><ele>226.6</ele><time>2026-05-03T13:11:34.95Z</time></trkpt><trkpt lat="45.42355958242815" lon="7.862135281536659"><ele>226.40000000000003</ele><time>2026-05-03T13:11:35.95Z</time></trkpt><trkpt lat="45.423573435691615" lon="7.861984757671823"><ele>226.20000000000002</ele><time>2026-05-03T13:11:36.95Z</time></trkpt><trkpt lat="45.42358699098714" lon="7.861827833202867"><ele>226.0</ele><time>2026-05-03T13:11:37.95Z</time></trkpt><trkpt lat="45.42360584422683" lon="7.861674766567318"><ele>226.0</ele><time>2026-05-03T13:11:38.95Z</time></trkpt><trkpt lat="45.423630709080285" lon="7.861510524687364"><ele>226.0</ele><time>2026-05-03T13:11:39.949Z</time></trkpt><trkpt lat="45.423645368863234" lon="7.861348389228661"><ele>226.0</ele><time>2026-05-03T13:11:40.95Z</time></trkpt><trkpt lat="45.423665694334815" lon="7.861192588833606"><ele>226.0</ele><time>2026-05-03T13:11:41.95Z</time></trkpt><trkpt lat="45.42367944749678" lon="7.86102260074337"><ele>226.5</ele><time>2026-05-03T13:11:42.95Z</time></trkpt><trkpt lat="45.423692286996506" lon="7.860850133454387"><ele>227.0</ele><time>2026-05-03T13:11:43.95Z</time></trkpt><trkpt lat="45.42368315801752" lon="7.86068171982449"><ele>227.5</ele><time>2026-05-03T13:11:44.95Z</time></trkpt><trkpt lat="45.42366141770687" lon="7.860524673248395"><ele>228.0</ele><time>2026-05-03T13:11:45.95Z</time></trkpt><trkpt lat="45.42364365492204" lon="7.860377680547398"><ele>228.0</ele><time>2026-05-03T13:11:46.95Z</time></trkpt><trkpt lat="45.42363436626715" lon="7.860241694035521"><ele>228.0</ele><time>2026-05-03T13:11:47.95Z</time></trkpt><trkpt lat="45.423640450319986" lon="7.860069090198798"><ele>228.0</ele><time>2026-05-03T13:11:48.95Z</time></trkpt><trkpt lat="45.42364515027005" lon="7.8599155775561345"><ele>228.0</ele><time>2026-05-03T13:11:49.95Z</time></trkpt><trkpt lat="45.42362839428386" lon="7.859783723254352"><ele>228.0</ele><time>2026-05-03T13:11:50.95Z</time></trkpt><trkpt lat="45.4236066840696" lon="7.859652680435135"><ele>228.0</ele><time>2026-05-03T13:11:51.95Z</time></trkpt><trkpt lat="45.42359354404392" lon="7.859538218349905"><ele>227.99999999999997</ele><time>2026-05-03T13:11:52.95Z</time></trkpt><trkpt lat="45.42358954433185" lon="7.859439120770412"><ele>228.0</ele><time>2026-05-03T13:11:53.95Z</time></trkpt><trkpt lat="45.42359678908519" lon="7.859348390698891"><ele>228.0</ele><time>2026-05-03T13:11:54.95Z</time></trkpt><trkpt lat="45.42361870906109" lon="7.859263134097246"><ele>227.99999999999997</ele><time>2026-05-03T13:11:55.95Z</time></trkpt><trkpt lat="45.42366890569519" lon="7.859196550541775"><ele>228.0</ele><time>2026-05-03T13:11:56.95Z</time></trkpt><trkpt lat="45.42372797310242" lon="7.8591452355625595"><ele>228.0</ele><time>2026-05-03T13:11:57.95Z</time></trkpt><trkpt lat="45.42375639269393" lon="7.859042008165231"><ele>228.0</ele><time>2026-05-03T13:12:00.95Z</time></trkpt><trkpt lat="45.4237058530916" lon="7.8589597735081735"><ele>228.0</ele><time>2026-05-03T13:12:02.95Z</time></trkpt><trkpt lat="45.42363485733905" lon="7.858955419566206"><ele>228.0</ele><time>2026-05-03T13:12:03.95Z</time></trkpt><trkpt lat="45.42353728264955" lon="7.8589732609614265"><ele>228.0</ele><time>2026-05-03T13:12:04.95Z</time></trkpt><trkpt lat="45.42341882878964" lon="7.858993710441095"><ele>228.0</ele><time>2026-05-03T13:12:05.95Z</time></trkpt><trkpt lat="45.42329989158481" lon="7.859025639695907"><ele>228.0</ele><time>2026-05-03T13:12:06.95Z</time></trkpt><trkpt lat="45.423171252684554" lon="7.859042597387619"><ele>228.0</ele><time>2026-05-03T13:12:07.95Z</time></trkpt><trkpt lat="45.42304570468354" lon="7.85906785622287"><ele>228.0</ele><time>2026-05-03T13:12:08.95Z</time></trkpt><trkpt lat="45.42291663319018" lon="7.859088494489266"><ele>228.0</ele><time>2026-05-03T13:12:09.95Z</time></trkpt><trkpt lat="45.42278133198441" lon="7.859098681654205"><ele>227.5</ele><time>2026-05-03T13:12:10.95Z</time></trkpt><trkpt lat="45.42263533682908" lon="7.8591169774331755"><ele>227.0</ele><time>2026-05-03T13:12:11.95Z</time></trkpt><trkpt lat="45.42249510453862" lon="7.859140202363775"><ele>226.5</ele><time>2026-05-03T13:12:12.95Z</time></trkpt><trkpt lat="45.42235619115763" lon="7.859163222686085"><ele>226.0</ele><time>2026-05-03T13:12:13.95Z</time></trkpt><trkpt lat="45.422214699414134" lon="7.859185166943491"><ele>226.75</ele><time>2026-05-03T13:12:14.95Z</time></trkpt><trkpt lat="45.422073694434694" lon="7.859214502496435"><ele>227.5</ele><time>2026-05-03T13:12:15.95Z</time></trkpt><trkpt lat="45.42192933939986" lon="7.859240255551347"><ele>228.25</ele><time>2026-05-03T13:12:16.95Z</time></trkpt><trkpt lat="45.421784841614844" lon="7.859259789499224"><ele>229.0</ele><time>2026-05-03T13:12:17.95Z</time></trkpt><trkpt lat="45.42163951229021" lon="7.859280567272171"><ele>229.0</ele><time>2026-05-03T13:12:18.95Z</time></trkpt><trkpt lat="45.421494447274135" lon="7.8593043277923496"><ele>229.0</ele><time>2026-05-03T13:12:19.95Z</time></trkpt><trkpt lat="45.421359193970886" lon="7.859326818691617"><ele>229.0</ele><time>2026-05-03T13:12:20.95Z</time></trkpt><trkpt lat="45.42122970950512" lon="7.859351040513513"><ele>229.0</ele><time>2026-05-03T13:12:21.95Z</time></trkpt><trkpt lat="45.421116375600924" lon="7.859364562058778"><ele>229.0</ele><time>2026-05-03T13:12:22.95Z</time></trkpt><trkpt lat="45.42100367584318" lon="7.859377999850803"><ele>228.99999999999997</ele><time>2026-05-03T13:12:23.95Z</time></trkpt><trkpt lat="45.42090056059641" lon="7.859368155143054"><ele>228.99999999999997</ele><time>2026-05-03T13:12:24.95Z</time></trkpt><trkpt lat="45.420802106796344" lon="7.859320993528314"><ele>229.0</ele><time>2026-05-03T13:12:25.95Z</time></trkpt><trkpt lat="45.42072175351716" lon="7.859209202477099"><ele>229.0</ele><time>2026-05-03T13:12:26.95Z</time></trkpt><trkpt lat="45.420634449906885" lon="7.859168663906667"><ele>229.0</ele><time>2026-05-03T13:12:27.95Z</time></trkpt><trkpt lat="45.420668190536844" lon="7.858906009949472"><ele>229.0</ele><time>2026-05-03T13:12:28.95Z</time></trkpt><trkpt lat="45.420640598292735" lon="7.858738057828488"><ele>229.0</ele><time>2026-05-03T13:12:29.95Z</time></trkpt><trkpt lat="45.42061215182037" lon="7.85857039369986"><ele>229.0</ele><time>2026-05-03T13:12:30.95Z</time></trkpt><trkpt lat="45.42055541353238" lon="7.858382325020187"><ele>229.0</ele><time>2026-05-03T13:12:31.95Z</time></trkpt><trkpt lat="45.42050042023184" lon="7.858195251763528"><ele>229.0</ele><time>2026-05-03T13:12:32.95Z</time></trkpt><trkpt lat="45.420421763279535" lon="7.858029203397529"><ele>229.0</ele><time>2026-05-03T13:12:33.95Z</time></trkpt><trkpt lat="45.42032773595037" lon="7.857879223116193"><ele>229.0</ele><time>2026-05-03T13:12:34.95Z</time></trkpt><trkpt lat="45.42023580824978" lon="7.8577298700760565"><ele>229.75</ele><time>2026-05-03T13:12:35.95Z</time></trkpt><trkpt lat="45.420150307575035" lon="7.8575763144881385"><ele>230.5</ele><time>2026-05-03T13:12:36.95Z</time></trkpt><trkpt lat="45.42008226881861" lon="7.8574214050625315"><ele>231.25</ele><time>2026-05-03T13:12:37.95Z</time></trkpt><trkpt lat="45.420026594558024" lon="7.857236479067018"><ele>232.0</ele><time>2026-05-03T13:12:38.95Z</time></trkpt><trkpt lat="45.41998711081381" lon="7.857048564071968"><ele>232.0</ele><time>2026-05-03T13:12:39.95Z</time></trkpt><trkpt lat="45.419990323853526" lon="7.856857359933829"><ele>232.0</ele><time>2026-05-03T13:12:40.95Z</time></trkpt><trkpt lat="45.41997273224165" lon="7.856658824114068"><ele>232.0</ele><time>2026-05-03T13:12:41.95Z</time></trkpt><trkpt lat="45.419972425066426" lon="7.856449699784001"><ele>232.0</ele><time>2026-05-03T13:12:42.95Z</time></trkpt><trkpt lat="45.41996403455092" lon="7.856237538755131"><ele>232.0</ele><time>2026-05-03T13:12:43.95Z</time></trkpt><trkpt lat="45.41995602467957" lon="7.85602977056707"><ele>232.0</ele><time>2026-05-03T13:12:44.95Z</time></trkpt><trkpt lat="45.41994268884363" lon="7.855826996580525"><ele>232.0</ele><time>2026-05-03T13:12:45.95Z</time></trkpt><trkpt lat="45.41991480450282" lon="7.8556312007847415"><ele>232.0</ele><time>2026-05-03T13:12:46.95Z</time></trkpt><trkpt lat="45.419879475216945" lon="7.855438660962212"><ele>232.0</ele><time>2026-05-03T13:12:47.95Z</time></trkpt><trkpt lat="45.4198443212324" lon="7.855249590536676"><ele>232.0</ele><time>2026-05-03T13:12:48.95Z</time></trkpt><trkpt lat="45.419807608293134" lon="7.855050629126237"><ele>232.0</ele><time>2026-05-03T13:12:49.95Z</time></trkpt><trkpt lat="45.41976261950208" lon="7.854865047921457"><ele>232.0</ele><time>2026-05-03T13:12:50.95Z</time></trkpt><trkpt lat="45.41971823650656" lon="7.854686399515215"><ele>232.0</ele><time>2026-05-03T13:12:51.95Z</time></trkpt><trkpt lat="45.41967158520074" lon="7.854518306436853"><ele>232.0</ele><time>2026-05-03T13:12:52.95Z</time></trkpt><trkpt lat="45.41962515088993" lon="7.854346161075345"><ele>232.0</ele><time>2026-05-03T13:12:53.95Z</time></trkpt><trkpt lat="45.41959071185077" lon="7.854167575975126"><ele>232.0</ele><time>2026-05-03T13:12:54.95Z</time></trkpt><trkpt lat="45.419603378635884" lon="7.8539862171181"><ele>232.25</ele><time>2026-05-03T13:12:55.95Z</time></trkpt><trkpt lat="45.41962316414643" lon="7.853808155591647"><ele>232.5</ele><time>2026-05-03T13:12:56.95Z</time></trkpt><trkpt lat="45.41966239560695" lon="7.85363582724902"><ele>232.75</ele><time>2026-05-03T13:12:57.95Z</time></trkpt><trkpt lat="45.41970742585467" lon="7.853461976201946"><ele>233.0</ele><time>2026-05-03T13:12:58.95Z</time></trkpt><trkpt lat="45.41973248676044" lon="7.853285123181931"><ele>233.0</ele><time>2026-05-03T13:12:59.95Z</time></trkpt><trkpt lat="45.419771169871005" lon="7.85312537993707"><ele>233.0</ele><time>2026-05-03T13:13:00.95Z</time></trkpt><trkpt lat="45.419793442655916" lon="7.852977461178289"><ele>233.0</ele><time>2026-05-03T13:13:01.95Z</time></trkpt><trkpt lat="45.41980023689255" lon="7.852842221017045"><ele>233.0</ele><time>2026-05-03T13:13:02.95Z</time></trkpt><trkpt lat="45.41977684777651" lon="7.85271671485158"><ele>233.0</ele><time>2026-05-03T13:13:03.95Z</time></trkpt><trkpt lat="45.41975526020278" lon="7.852603520257147"><ele>233.0</ele><time>2026-05-03T13:13:04.95Z</time></trkpt><trkpt lat="45.4197255876704" lon="7.852509159221295"><ele>233.0</ele><time>2026-05-03T13:13:05.95Z</time></trkpt><trkpt lat="45.4197044845046" lon="7.852399371331538"><ele>233.0</ele><time>2026-05-03T13:13:07.95Z</time></trkpt><trkpt lat="45.41988846966285" lon="7.852270131389776"><ele>233.0</ele><time>2026-05-03T13:13:09.95Z</time></trkpt><trkpt lat="45.41992344060719" lon="7.852188004574932"><ele>233.0</ele><time>2026-05-03T13:13:11.95Z</time></trkpt><trkpt lat="45.41989172031567" lon="7.852068194828577"><ele>233.0</ele><time>2026-05-03T13:13:13.95Z</time></trkpt><trkpt lat="45.41986065769155" lon="7.8518627851417"><ele>233.0</ele><time>2026-05-03T13:13:15.95Z</time></trkpt><trkpt lat="45.41984150728329" lon="7.851727706848115"><ele>233.0</ele><time>2026-05-03T13:13:16.95Z</time></trkpt><trkpt lat="45.41979972413205" lon="7.851590889945573"><ele>233.0</ele><time>2026-05-03T13:13:17.95Z</time></trkpt><trkpt lat="45.419760372589444" lon="7.851461130837671"><ele>233.0</ele><time>2026-05-03T13:13:18.95Z</time></trkpt><trkpt lat="45.41971944763604" lon="7.851324062680654"><ele>233.4</ele><time>2026-05-03T13:13:19.95Z</time></trkpt><trkpt lat="45.41968644614623" lon="7.851192504019236"><ele>233.8</ele><time>2026-05-03T13:13:20.95Z</time></trkpt><trkpt lat="45.41966429600491" lon="7.851076914343778"><ele>234.2</ele><time>2026-05-03T13:13:21.95Z</time></trkpt><trkpt lat="45.41957599996327" lon="7.850989354731638"><ele>234.6</ele><time>2026-05-03T13:13:23.95Z</time></trkpt><trkpt lat="45.419486491782166" lon="7.850987934518762"><ele>235.0</ele><time>2026-05-03T13:13:24.95Z</time></trkpt><trkpt lat="45.419414662881465" lon="7.850959981045497"><ele>235.4</ele><time>2026-05-03T13:13:25.95Z</time></trkpt><trkpt lat="45.41934475694997" lon="7.850866562937596"><ele>235.8</ele><time>2026-05-03T13:13:26.95Z</time></trkpt><trkpt lat="45.41927923345446" lon="7.850745629439887"><ele>236.2</ele><time>2026-05-03T13:13:27.95Z</time></trkpt><trkpt lat="45.41922399294167" lon="7.8506045075679545"><ele>236.6</ele><time>2026-05-03T13:13:28.95Z</time></trkpt><trkpt lat="45.41917316543777" lon="7.850462025912751"><ele>237.0</ele><time>2026-05-03T13:13:29.95Z</time></trkpt><trkpt lat="45.419109702958345" lon="7.850325105202466"><ele>237.0</ele><time>2026-05-03T13:13:30.95Z</time></trkpt><trkpt lat="45.4190354653141" lon="7.850176330215056"><ele>237.0</ele><time>2026-05-03T13:13:31.95Z</time></trkpt><trkpt lat="45.41895360570829" lon="7.850021511914206"><ele>237.0</ele><time>2026-05-03T13:13:32.95Z</time></trkpt><trkpt lat="45.418862046473826" lon="7.849865850892204"><ele>237.0</ele><time>2026-05-03T13:13:33.946Z</time></trkpt><trkpt lat="45.41878135347742" lon="7.849712773342345"><ele>237.5</ele><time>2026-05-03T13:13:34.946Z</time></trkpt><trkpt lat="45.41870697505778" lon="7.849558062042038"><ele>238.0</ele><time>2026-05-03T13:13:35.946Z</time></trkpt><trkpt lat="45.41863924094431" lon="7.8493975211317295"><ele>238.5</ele><time>2026-05-03T13:13:36.946Z</time></trkpt><trkpt lat="45.41859303166997" lon="7.849214799026006"><ele>239.0</ele><time>2026-05-03T13:13:37.947Z</time></trkpt><trkpt lat="45.418551718613955" lon="7.84901616903191"><ele>239.0</ele><time>2026-05-03T13:13:38.947Z</time></trkpt><trkpt lat="45.41850732755185" lon="7.8488180181339775"><ele>239.0</ele><time>2026-05-03T13:13:39.946Z</time></trkpt><trkpt lat="45.4184569454782" lon="7.848626600928383"><ele>239.0</ele><time>2026-05-03T13:13:40.946Z</time></trkpt><trkpt lat="45.418408627017364" lon="7.848452577355586"><ele>239.0</ele><time>2026-05-03T13:13:41.946Z</time></trkpt><trkpt lat="45.41835639795648" lon="7.848276703355779"><ele>237.75</ele><time>2026-05-03T13:13:42.947Z</time></trkpt><trkpt lat="45.418313581096434" lon="7.848091692611618"><ele>236.5</ele><time>2026-05-03T13:13:43.946Z</time></trkpt><trkpt lat="45.418275797660264" lon="7.847919780003007"><ele>235.25</ele><time>2026-05-03T13:13:44.946Z</time></trkpt><trkpt lat="45.41824448048517" lon="7.84775864226339"><ele>234.0</ele><time>2026-05-03T13:13:45.947Z</time></trkpt><trkpt lat="45.41823025372497" lon="7.847620239571372"><ele>234.0</ele><time>2026-05-03T13:13:46.946Z</time></trkpt><trkpt lat="45.4182350376434" lon="7.847510946886174"><ele>233.99999999999997</ele><time>2026-05-03T13:13:47.946Z</time></trkpt><trkpt lat="45.418340632973745" lon="7.847424626798722"><ele>233.99999999999997</ele><time>2026-05-03T13:13:49.946Z</time></trkpt><trkpt lat="45.41842042603216" lon="7.84742438926148"><ele>234.0</ele><time>2026-05-03T13:13:50.946Z</time></trkpt><trkpt lat="45.41850859720973" lon="7.847284775145337"><ele>234.0</ele><time>2026-05-03T13:13:51.946Z</time></trkpt><trkpt lat="45.41861259417722" lon="7.847279918756907"><ele>234.0</ele><time>2026-05-03T13:13:52.946Z</time></trkpt><trkpt lat="45.418715287525444" lon="7.847275123226048"><ele>234.0</ele><time>2026-05-03T13:13:53.946Z</time></trkpt><trkpt lat="45.418791996013034" lon="7.847271541116929"><ele>234.0</ele><time>2026-05-03T13:13:54.946Z</time></trkpt><trkpt lat="45.41888352021549" lon="7.847267267183258"><ele>234.0</ele><time>2026-05-03T13:13:56.946Z</time></trkpt><trkpt lat="45.41893781674647" lon="7.847215324144489"><ele>234.0</ele><time>2026-05-03T13:13:58.946Z</time></trkpt><trkpt lat="45.4190123831155" lon="7.847181462809747"><ele>234.0</ele><time>2026-05-03T13:14:00.946Z</time></trkpt><trkpt lat="45.41912541343259" lon="7.847179172837094"><ele>234.14285714285717</ele><time>2026-05-03T13:14:02.946Z</time></trkpt><trkpt lat="45.41914919689096" lon="7.847087253887906"><ele>234.2857142857143</ele><time>2026-05-03T13:14:04.946Z</time></trkpt><trkpt lat="45.41921440874812" lon="7.847062631979186"><ele>234.42857142857144</ele><time>2026-05-03T13:14:11.946Z</time></trkpt><trkpt lat="45.419287157432194" lon="7.847059234797843"><ele>234.57142857142856</ele><time>2026-05-03T13:14:15.946Z</time></trkpt><trkpt lat="45.419356431060855" lon="7.847055658158561"><ele>234.7142857142857</ele><time>2026-05-03T13:14:17.946Z</time></trkpt><trkpt lat="45.419422676769905" lon="7.84705212739348"><ele>234.85714285714283</ele><time>2026-05-03T13:14:19.946Z</time></trkpt><trkpt lat="45.41951766679703" lon="7.84704706460647"><ele>235.0</ele><time>2026-05-03T13:14:22.946Z</time></trkpt><trkpt lat="45.41965196461965" lon="7.847024163997425"><ele>234.99999999999997</ele><time>2026-05-03T13:14:24.946Z</time></trkpt><trkpt lat="45.419731693749846" lon="7.847037596145636"><ele>235.0</ele><time>2026-05-03T13:14:25.946Z</time></trkpt><trkpt lat="45.41981961225108" lon="7.847024027673772"><ele>235.0</ele><time>2026-05-03T13:14:26.946Z</time></trkpt><trkpt lat="45.41990738776868" lon="7.84703725544893"><ele>235.0</ele><time>2026-05-03T13:14:27.946Z</time></trkpt><trkpt lat="45.419990789210566" lon="7.8470277038702445"><ele>234.99999999999997</ele><time>2026-05-03T13:14:28.946Z</time></trkpt><trkpt lat="45.42008051818345" lon="7.847020002596299"><ele>235.0</ele><time>2026-05-03T13:14:30.946Z</time></trkpt><trkpt lat="45.41997216572659" lon="7.846666743218649"><ele>235.0</ele><time>2026-05-03T13:14:35.946Z</time></trkpt><trkpt lat="45.41991575444113" lon="7.846486853712613"><ele>235.0</ele><time>2026-05-03T13:14:36.946Z</time></trkpt><trkpt lat="45.419857281803004" lon="7.846311502635058"><ele>235.0</ele><time>2026-05-03T13:14:37.946Z</time></trkpt><trkpt lat="45.41978775101154" lon="7.846136365745891"><ele>235.0</ele><time>2026-05-03T13:14:38.946Z</time></trkpt><trkpt lat="45.41972142228747" lon="7.845985441500292"><ele>234.5</ele><time>2026-05-03T13:14:39.946Z</time></trkpt><trkpt lat="45.41967767405086" lon="7.84587136607462"><ele>234.0</ele><time>2026-05-03T13:14:40.946Z</time></trkpt><trkpt lat="45.4196830783855" lon="7.845748966218761"><ele>233.5</ele><time>2026-05-03T13:14:41.946Z</time></trkpt><trkpt lat="45.41968682062966" lon="7.8455667076841005"><ele>233.0</ele><time>2026-05-03T13:14:42.946Z</time></trkpt><trkpt lat="45.41968862458148" lon="7.845329509157484"><ele>233.0</ele><time>2026-05-03T13:14:43.946Z</time></trkpt><trkpt lat="45.419704070362094" lon="7.845133489715597"><ele>233.0</ele><time>2026-05-03T13:14:44.946Z</time></trkpt><trkpt lat="45.41971457409892" lon="7.844959081500288"><ele>233.0</ele><time>2026-05-03T13:14:45.946Z</time></trkpt><trkpt lat="45.419696120825414" lon="7.8448104460130645"><ele>233.0</ele><time>2026-05-03T13:14:46.946Z</time></trkpt><trkpt lat="45.4196359417956" lon="7.844655649965618"><ele>232.66666666666669</ele><time>2026-05-03T13:14:47.946Z</time></trkpt><trkpt lat="45.41956018264056" lon="7.844460722602854"><ele>232.33333333333331</ele><time>2026-05-03T13:14:48.946Z</time></trkpt><trkpt lat="45.41950096401933" lon="7.84418255224838"><ele>232.0</ele><time>2026-05-03T13:14:49.946Z</time></trkpt><trkpt lat="45.41946645875035" lon="7.8439008622265876"><ele>232.0</ele><time>2026-05-03T13:14:50.946Z</time></trkpt><trkpt lat="45.4194277490679" lon="7.843598639615509"><ele>232.0</ele><time>2026-05-03T13:14:51.946Z</time></trkpt><trkpt lat="45.419391951553024" lon="7.843328023176896"><ele>232.0</ele><time>2026-05-03T13:14:52.946Z</time></trkpt><trkpt lat="45.41936504694397" lon="7.843115977347477"><ele>232.0</ele><time>2026-05-03T13:14:53.946Z</time></trkpt><trkpt lat="45.41934369673254" lon="7.842944105857437"><ele>232.0</ele><time>2026-05-03T13:14:54.946Z</time></trkpt><trkpt lat="45.41935476191069" lon="7.842781263990696"><ele>232.0</ele><time>2026-05-03T13:14:55.946Z</time></trkpt><trkpt lat="45.419387623173385" lon="7.842611581592862"><ele>232.0</ele><time>2026-05-03T13:14:56.946Z</time></trkpt><trkpt lat="45.41944228434806" lon="7.842424013499599"><ele>232.0</ele><time>2026-05-03T13:14:57.946Z</time></trkpt><trkpt lat="45.41946732045886" lon="7.842220784425131"><ele>232.0</ele><time>2026-05-03T13:14:58.946Z</time></trkpt><trkpt lat="45.419446920077334" lon="7.842020490708908"><ele>232.0</ele><time>2026-05-03T13:14:59.946Z</time></trkpt><trkpt lat="45.419412290223775" lon="7.841847278991976"><ele>232.0</ele><time>2026-05-03T13:15:00.946Z</time></trkpt><trkpt lat="45.41937607114046" lon="7.841697896431147"><ele>231.8</ele><time>2026-05-03T13:15:01.946Z</time></trkpt><trkpt lat="45.419338746228256" lon="7.841565778163839"><ele>231.6</ele><time>2026-05-03T13:15:02.946Z</time></trkpt><trkpt lat="45.41927678039128" lon="7.841472530565187"><ele>231.40000000000003</ele><time>2026-05-03T13:15:03.946Z</time></trkpt><trkpt lat="45.419171104701974" lon="7.841427676514237"><ele>231.20000000000002</ele><time>2026-05-03T13:15:04.947Z</time></trkpt><trkpt lat="45.41904947325913" lon="7.841412649203707"><ele>231.0</ele><time>2026-05-03T13:15:05.947Z</time></trkpt><trkpt lat="45.41891556752485" lon="7.841388354310718"><ele>231.4</ele><time>2026-05-03T13:15:06.947Z</time></trkpt><trkpt lat="45.41879101130717" lon="7.841347341718557"><ele>231.8</ele><time>2026-05-03T13:15:07.947Z</time></trkpt><trkpt lat="45.41868058244077" lon="7.841298089500795"><ele>232.20000000000002</ele><time>2026-05-03T13:15:08.947Z</time></trkpt><trkpt lat="45.418589877788946" lon="7.841240015258971"><ele>232.60000000000002</ele><time>2026-05-03T13:15:09.947Z</time></trkpt><trkpt lat="45.418506168748415" lon="7.841159398471582"><ele>233.0</ele><time>2026-05-03T13:15:10.947Z</time></trkpt><trkpt lat="45.41842767203677" lon="7.841039072971617"><ele>232.8</ele><time>2026-05-03T13:15:11.947Z</time></trkpt><trkpt lat="45.41836938774476" lon="7.84090767301819"><ele>232.60000000000002</ele><time>2026-05-03T13:15:12.947Z</time></trkpt><trkpt lat="45.41832079250835" lon="7.840783635517032"><ele>232.39999999999998</ele><time>2026-05-03T13:15:13.947Z</time></trkpt><trkpt lat="45.41826009029237" lon="7.840668251745996"><ele>232.2</ele><time>2026-05-03T13:15:14.947Z</time></trkpt><trkpt lat="45.41819066689146" lon="7.840576614880431"><ele>232.0</ele><time>2026-05-03T13:15:15.947Z</time></trkpt><trkpt lat="45.41812858184822" lon="7.840538884816466"><ele>231.99999999999997</ele><time>2026-05-03T13:15:16.947Z</time></trkpt><trkpt lat="45.418054255410176" lon="7.840508748769466"><ele>232.0</ele><time>2026-05-03T13:15:17.947Z</time></trkpt><trkpt lat="45.417983412773836" lon="7.840482677458727"><ele>232.0</ele><time>2026-05-03T13:15:18.947Z</time></trkpt><trkpt lat="45.41798199166531" lon="7.840386303718806"><ele>232.0</ele><time>2026-05-03T13:15:21.947Z</time></trkpt><trkpt lat="45.4180426273893" lon="7.84033558884625"><ele>231.99999999999997</ele><time>2026-05-03T13:15:23.947Z</time></trkpt><trkpt lat="45.4181429600725" lon="7.840249564105574"><ele>232.0</ele><time>2026-05-03T13:15:25.947Z</time></trkpt><trkpt lat="45.41821134563303" lon="7.840188539310745"><ele>231.8</ele><time>2026-05-03T13:15:26.947Z</time></trkpt><trkpt lat="45.4182918119649" lon="7.840117423790464"><ele>231.6</ele><time>2026-05-03T13:15:27.947Z</time></trkpt><trkpt lat="45.41836656496417" lon="7.8400399223534984"><ele>231.40000000000003</ele><time>2026-05-03T13:15:28.947Z</time></trkpt><trkpt lat="45.418419776464475" lon="7.839922369800633"><ele>231.20000000000002</ele><time>2026-05-03T13:15:29.947Z</time></trkpt><trkpt lat="45.41844285465523" lon="7.839777563612357"><ele>231.0</ele><time>2026-05-03T13:15:30.947Z</time></trkpt><trkpt lat="45.418484726009964" lon="7.839631548529184"><ele>231.0</ele><time>2026-05-03T13:15:31.947Z</time></trkpt><trkpt lat="45.418510776973285" lon="7.8394779365144736"><ele>231.00000000000003</ele><time>2026-05-03T13:15:32.947Z</time></trkpt><trkpt lat="45.4185487937041" lon="7.839328551099352"><ele>231.00000000000003</ele><time>2026-05-03T13:15:33.947Z</time></trkpt><trkpt lat="45.41859893131184" lon="7.839197174801888"><ele>231.0</ele><time>2026-05-03T13:15:34.947Z</time></trkpt><trkpt lat="45.41865839591466" lon="7.839079966396233"><ele>231.0</ele><time>2026-05-03T13:15:35.947Z</time></trkpt><trkpt lat="45.41872262524812" lon="7.838984682062561"><ele>230.8</ele><time>2026-05-03T13:15:36.947Z</time></trkpt><trkpt lat="45.4187916816042" lon="7.838871712822374"><ele>230.60000000000002</ele><time>2026-05-03T13:15:37.947Z</time></trkpt><trkpt lat="45.4188493181516" lon="7.8387479714860016"><ele>230.4</ele><time>2026-05-03T13:15:38.947Z</time></trkpt><trkpt lat="45.418912271000096" lon="7.838611383370011"><ele>230.2</ele><time>2026-05-03T13:15:39.944Z</time></trkpt><trkpt lat="45.418954694721016" lon="7.838473906406088"><ele>230.0</ele><time>2026-05-03T13:15:40.944Z</time></trkpt><trkpt lat="45.418976145810355" lon="7.838321501508849"><ele>230.25</ele><time>2026-05-03T13:15:41.944Z</time></trkpt><trkpt lat="45.418980932546674" lon="7.838148924609998"><ele>230.5</ele><time>2026-05-03T13:15:42.944Z</time></trkpt><trkpt lat="45.41898897875258" lon="7.837978124464476"><ele>230.75</ele><time>2026-05-03T13:15:43.944Z</time></trkpt><trkpt lat="45.418985725576476" lon="7.837783803507062"><ele>231.0</ele><time>2026-05-03T13:15:44.944Z</time></trkpt><trkpt lat="45.418953918287514" lon="7.83758506055675"><ele>231.0</ele><time>2026-05-03T13:15:45.943Z</time></trkpt><trkpt lat="45.41892195216749" lon="7.837410257332243"><ele>231.0</ele><time>2026-05-03T13:15:46.943Z</time></trkpt><trkpt lat="45.418894120860735" lon="7.837232320007372"><ele>231.0</ele><time>2026-05-03T13:15:47.943Z</time></trkpt><trkpt lat="45.41883525261978" lon="7.8370749045711685"><ele>231.0</ele><time>2026-05-03T13:15:48.943Z</time></trkpt><trkpt lat="45.41879025329106" lon="7.836900419691967"><ele>231.25</ele><time>2026-05-03T13:15:49.944Z</time></trkpt><trkpt lat="45.418726031142576" lon="7.83674321183224"><ele>231.5</ele><time>2026-05-03T13:15:50.944Z</time></trkpt><trkpt lat="45.41868152835216" lon="7.836577797525561"><ele>231.75</ele><time>2026-05-03T13:15:51.944Z</time></trkpt><trkpt lat="45.41863680826491" lon="7.836430007736913"><ele>232.0</ele><time>2026-05-03T13:15:52.943Z</time></trkpt><trkpt lat="45.418604380100966" lon="7.8362687830500315"><ele>232.0</ele><time>2026-05-03T13:15:53.943Z</time></trkpt><trkpt lat="45.41859192444778" lon="7.836110294435058"><ele>232.0</ele><time>2026-05-03T13:15:54.943Z</time></trkpt><trkpt lat="45.4185852044478" lon="7.835939443296198"><ele>232.0</ele><time>2026-05-03T13:15:55.943Z</time></trkpt><trkpt lat="45.41858290655107" lon="7.835769260179519"><ele>232.0</ele><time>2026-05-03T13:15:56.943Z</time></trkpt><trkpt lat="45.41858192159049" lon="7.835599143675223"><ele>232.25</ele><time>2026-05-03T13:15:57.943Z</time></trkpt><trkpt lat="45.41856838728717" lon="7.835417685195423"><ele>232.5</ele><time>2026-05-03T13:15:58.943Z</time></trkpt><trkpt lat="45.41859520683202" lon="7.835251043879776"><ele>232.75</ele><time>2026-05-03T13:15:59.943Z</time></trkpt><trkpt lat="45.41860457825396" lon="7.835081544118341"><ele>233.0</ele><time>2026-05-03T13:16:00.943Z</time></trkpt><trkpt lat="45.41859071879559" lon="7.834922366311526"><ele>233.0</ele><time>2026-05-03T13:16:01.943Z</time></trkpt><trkpt lat="45.418567856786076" lon="7.834761617492684"><ele>233.0</ele><time>2026-05-03T13:16:02.943Z</time></trkpt><trkpt lat="45.418570125987316" lon="7.834600725041115"><ele>233.0</ele><time>2026-05-03T13:16:03.943Z</time></trkpt><trkpt lat="45.418561380896755" lon="7.834429135860248"><ele>233.0</ele><time>2026-05-03T13:16:04.943Z</time></trkpt><trkpt lat="45.418577028136184" lon="7.834298584319981"><ele>233.0</ele><time>2026-05-03T13:16:05.943Z</time></trkpt><trkpt lat="45.4185480539409" lon="7.834152383263444"><ele>233.33333333333334</ele><time>2026-05-03T13:16:06.943Z</time></trkpt><trkpt lat="45.418496997047924" lon="7.834036217435772"><ele>233.66666666666669</ele><time>2026-05-03T13:16:07.943Z</time></trkpt><trkpt lat="45.41843799243544" lon="7.833928425972539"><ele>234.0</ele><time>2026-05-03T13:16:08.943Z</time></trkpt><trkpt lat="45.41838822224742" lon="7.833852335121962"><ele>234.33333333333331</ele><time>2026-05-03T13:16:09.943Z</time></trkpt><trkpt lat="45.41832739818329" lon="7.833788399492237"><ele>234.66666666666666</ele><time>2026-05-03T13:16:10.943Z</time></trkpt><trkpt lat="45.41830342134728" lon="7.833688072954244"><ele>235.0</ele><time>2026-05-03T13:16:11.943Z</time></trkpt><trkpt lat="45.41828244731731" lon="7.8335743576358965"><ele>234.8</ele><time>2026-05-03T13:16:12.943Z</time></trkpt><trkpt lat="45.418256219029495" lon="7.8334593131740595"><ele>234.6</ele><time>2026-05-03T13:16:13.943Z</time></trkpt><trkpt lat="45.41821764227944" lon="7.833350620965398"><ele>234.39999999999998</ele><time>2026-05-03T13:16:14.943Z</time></trkpt><trkpt lat="45.418168306657776" lon="7.833259086196689"><ele>234.2</ele><time>2026-05-03T13:16:15.943Z</time></trkpt><trkpt lat="45.41810894106484" lon="7.833146994294418"><ele>234.0</ele><time>2026-05-03T13:16:16.943Z</time></trkpt><trkpt lat="45.41805460995597" lon="7.833012568876419"><ele>234.0</ele><time>2026-05-03T13:16:17.943Z</time></trkpt><trkpt lat="45.41799610658103" lon="7.832850470614424"><ele>234.0</ele><time>2026-05-03T13:16:18.943Z</time></trkpt><trkpt lat="45.41794240929934" lon="7.832700093497826"><ele>234.0</ele><time>2026-05-03T13:16:19.943Z</time></trkpt><trkpt lat="45.41789461330395" lon="7.83254845644007"><ele>234.0</ele><time>2026-05-03T13:16:20.943Z</time></trkpt><trkpt lat="45.41786017761497" lon="7.832391604298988"><ele>234.0</ele><time>2026-05-03T13:16:21.943Z</time></trkpt><trkpt lat="45.41784483443226" lon="7.832217522424525"><ele>234.0</ele><time>2026-05-03T13:16:22.943Z</time></trkpt><trkpt lat="45.417849060840496" lon="7.832019555046248"><ele>234.0</ele><time>2026-05-03T13:16:23.943Z</time></trkpt><trkpt lat="45.41782509010352" lon="7.831817698354702"><ele>234.0</ele><time>2026-05-03T13:16:24.943Z</time></trkpt><trkpt lat="45.417794866963504" lon="7.831624604758487"><ele>234.0</ele><time>2026-05-03T13:16:25.943Z</time></trkpt><trkpt lat="45.41775861476423" lon="7.831427271328894"><ele>234.0</ele><time>2026-05-03T13:16:26.943Z</time></trkpt><trkpt lat="45.417729211641635" lon="7.831233947957364"><ele>234.0</ele><time>2026-05-03T13:16:27.943Z</time></trkpt><trkpt lat="45.41771445310352" lon="7.831045693136569"><ele>234.0</ele><time>2026-05-03T13:16:28.943Z</time></trkpt><trkpt lat="45.4177153937624" lon="7.830881796908723"><ele>233.79999999999998</ele><time>2026-05-03T13:16:29.943Z</time></trkpt><trkpt lat="45.41771671490885" lon="7.830730682913871"><ele>233.59999999999997</ele><time>2026-05-03T13:16:30.943Z</time></trkpt><trkpt lat="45.41769343747444" lon="7.830610805752392"><ele>233.4</ele><time>2026-05-03T13:16:31.943Z</time></trkpt><trkpt lat="45.417651686100385" lon="7.830494330538238"><ele>233.2</ele><time>2026-05-03T13:16:32.943Z</time></trkpt><trkpt lat="45.417577605912236" lon="7.830357757115976"><ele>233.0</ele><time>2026-05-03T13:16:33.943Z</time></trkpt><trkpt lat="45.41750674658166" lon="7.830201373439738"><ele>233.25</ele><time>2026-05-03T13:16:34.943Z</time></trkpt><trkpt lat="45.41743767130845" lon="7.83001469192121"><ele>233.5</ele><time>2026-05-03T13:16:35.943Z</time></trkpt><trkpt lat="45.41738811082131" lon="7.829835650173101"><ele>233.75</ele><time>2026-05-03T13:16:36.943Z</time></trkpt><trkpt lat="45.41734824609048" lon="7.829663954877292"><ele>234.0</ele><time>2026-05-03T13:16:37.943Z</time></trkpt><trkpt lat="45.417307351253854" lon="7.829494154757739"><ele>234.0</ele><time>2026-05-03T13:16:38.943Z</time></trkpt><trkpt lat="45.41726885799776" lon="7.829315950869517"><ele>234.0</ele><time>2026-05-03T13:16:39.943Z</time></trkpt><trkpt lat="45.41724269214025" lon="7.829142216820449"><ele>234.0</ele><time>2026-05-03T13:16:40.943Z</time></trkpt><trkpt lat="45.417216780407784" lon="7.828970417938768"><ele>234.0</ele><time>2026-05-03T13:16:41.943Z</time></trkpt><trkpt lat="45.4171832454682" lon="7.828803979386317"><ele>234.0</ele><time>2026-05-03T13:16:42.943Z</time></trkpt><trkpt lat="45.417133061859225" lon="7.828658630307585"><ele>234.0</ele><time>2026-05-03T13:16:43.943Z</time></trkpt><trkpt lat="45.41705791138455" lon="7.8285316228329"><ele>234.0</ele><time>2026-05-03T13:16:44.943Z</time></trkpt><trkpt lat="45.41696510874923" lon="7.828432108551845"><ele>234.0</ele><time>2026-05-03T13:16:45.943Z</time></trkpt><trkpt lat="45.416854320460175" lon="7.82832482178706"><ele>234.25</ele><time>2026-05-03T13:16:46.943Z</time></trkpt><trkpt lat="45.416739988775156" lon="7.828227381366976"><ele>234.5</ele><time>2026-05-03T13:16:47.943Z</time></trkpt><trkpt lat="45.41662238926485" lon="7.8281554344653195"><ele>234.75</ele><time>2026-05-03T13:16:48.943Z</time></trkpt><trkpt lat="45.41650577264108" lon="7.828116655870672"><ele>235.0</ele><time>2026-05-03T13:16:49.943Z</time></trkpt><trkpt lat="45.416381556744874" lon="7.828101825515067"><ele>234.75</ele><time>2026-05-03T13:16:50.943Z</time></trkpt><trkpt lat="45.416247505332976" lon="7.8280939681355"><ele>234.5</ele><time>2026-05-03T13:16:51.944Z</time></trkpt><trkpt lat="45.416119126068345" lon="7.828077272436608"><ele>234.25</ele><time>2026-05-03T13:16:52.944Z</time></trkpt><trkpt lat="45.415989169982495" lon="7.828057869922515"><ele>234.0</ele><time>2026-05-03T13:16:53.944Z</time></trkpt><trkpt lat="45.41585873380782" lon="7.828034651895022"><ele>234.0</ele><time>2026-05-03T13:16:54.944Z</time></trkpt><trkpt lat="45.41573271403817" lon="7.828010361645043"><ele>234.0</ele><time>2026-05-03T13:16:55.944Z</time></trkpt><trkpt lat="45.415605586940075" lon="7.8279786867956265"><ele>234.0</ele><time>2026-05-03T13:16:56.944Z</time></trkpt><trkpt lat="45.41547605020436" lon="7.827937078790441"><ele>234.0</ele><time>2026-05-03T13:16:57.944Z</time></trkpt><trkpt lat="45.41534884617626" lon="7.827901884419447"><ele>233.75</ele><time>2026-05-03T13:16:58.944Z</time></trkpt><trkpt lat="45.41522510844053" lon="7.8278851351468575"><ele>233.5</ele><time>2026-05-03T13:16:59.944Z</time></trkpt><trkpt lat="45.41509332071041" lon="7.827872376390457"><ele>233.25</ele><time>2026-05-03T13:17:00.944Z</time></trkpt><trkpt lat="45.41495882383151" lon="7.827873046067208"><ele>233.0</ele><time>2026-05-03T13:17:01.944Z</time></trkpt><trkpt lat="45.41482753818842" lon="7.827887086752959"><ele>233.0</ele><time>2026-05-03T13:17:02.944Z</time></trkpt><trkpt lat="45.4146883232122" lon="7.827911281900389"><ele>233.0</ele><time>2026-05-03T13:17:03.944Z</time></trkpt><trkpt lat="45.41455099468271" lon="7.827937794741703"><ele>233.0</ele><time>2026-05-03T13:17:04.944Z</time></trkpt><trkpt lat="45.414416630248766" lon="7.827955159550909"><ele>233.0</ele><time>2026-05-03T13:17:05.944Z</time></trkpt><trkpt lat="45.414285021279795" lon="7.827973431017072"><ele>233.0</ele><time>2026-05-03T13:17:06.944Z</time></trkpt><trkpt lat="45.41414862534437" lon="7.827987734893633"><ele>233.0</ele><time>2026-05-03T13:17:07.944Z</time></trkpt><trkpt lat="45.41401819418532" lon="7.828008978180562"><ele>233.0</ele><time>2026-05-03T13:17:08.944Z</time></trkpt><trkpt lat="45.41389203629434" lon="7.8280400951841065"><ele>233.0</ele><time>2026-05-03T13:17:09.944Z</time></trkpt><trkpt lat="45.41376813960115" lon="7.8280929270846284"><ele>233.4</ele><time>2026-05-03T13:17:10.944Z</time></trkpt><trkpt lat="45.41365608923584" lon="7.8281526930064445"><ele>233.8</ele><time>2026-05-03T13:17:11.944Z</time></trkpt><trkpt lat="45.41355708275691" lon="7.8281997736558475"><ele>234.2</ele><time>2026-05-03T13:17:12.944Z</time></trkpt><trkpt lat="45.41345897323035" lon="7.828239233121018"><ele>234.6</ele><time>2026-05-03T13:17:13.944Z</time></trkpt><trkpt lat="45.413372321771924" lon="7.828267799707881"><ele>235.0</ele><time>2026-05-03T13:17:14.944Z</time></trkpt><trkpt lat="45.41330163289481" lon="7.828260529802291"><ele>234.99999999999997</ele><time>2026-05-03T13:17:15.944Z</time></trkpt><trkpt lat="45.4132329488517" lon="7.828139957837085"><ele>235.0</ele><time>2026-05-03T13:17:17.944Z</time></trkpt><trkpt lat="45.41322605273274" lon="7.828044834392452"><ele>235.0</ele><time>2026-05-03T13:17:18.944Z</time></trkpt><trkpt lat="45.41321217204325" lon="7.827931248864367"><ele>235.0</ele><time>2026-05-03T13:17:19.944Z</time></trkpt><trkpt lat="45.41319535336733" lon="7.827822272417019"><ele>234.99999999999997</ele><time>2026-05-03T13:17:20.944Z</time></trkpt><trkpt lat="45.41316282112685" lon="7.827689278471528"><ele>235.0</ele><time>2026-05-03T13:17:21.944Z</time></trkpt><trkpt lat="45.41310822859041" lon="7.8275654704955935"><ele>234.75</ele><time>2026-05-03T13:17:22.944Z</time></trkpt><trkpt lat="45.41304237131788" lon="7.827443104877294"><ele>234.5</ele><time>2026-05-03T13:17:23.944Z</time></trkpt><trkpt lat="45.41297117332654" lon="7.8273200869717465"><ele>234.25</ele><time>2026-05-03T13:17:24.944Z</time></trkpt><trkpt lat="45.412892838628316" lon="7.827192052384951"><ele>234.0</ele><time>2026-05-03T13:17:25.944Z</time></trkpt><trkpt lat="45.41279897042688" lon="7.827085033753043"><ele>234.5</ele><time>2026-05-03T13:17:26.944Z</time></trkpt><trkpt lat="45.41269271362366" lon="7.827009117352177"><ele>235.0</ele><time>2026-05-03T13:17:27.944Z</time></trkpt><trkpt lat="45.412581579777225" lon="7.826930574526457"><ele>235.5</ele><time>2026-05-03T13:17:28.944Z</time></trkpt><trkpt lat="45.41246874168729" lon="7.826856747546356"><ele>236.0</ele><time>2026-05-03T13:17:29.944Z</time></trkpt><trkpt lat="45.41235857374475" lon="7.826774877030916"><ele>236.0</ele><time>2026-05-03T13:17:30.944Z</time></trkpt><trkpt lat="45.412248444672464" lon="7.826703598693237"><ele>236.0</ele><time>2026-05-03T13:17:31.944Z</time></trkpt><trkpt lat="45.412132656769884" lon="7.8266297716137885"><ele>236.0</ele><time>2026-05-03T13:17:32.944Z</time></trkpt><trkpt lat="45.412027126168724" lon="7.826560867948875"><ele>236.0</ele><time>2026-05-03T13:17:33.944Z</time></trkpt><trkpt lat="45.41191734740295" lon="7.826497809493859"><ele>236.75</ele><time>2026-05-03T13:17:34.944Z</time></trkpt><trkpt lat="45.41180587182104" lon="7.82641681453545"><ele>237.5</ele><time>2026-05-03T13:17:35.944Z</time></trkpt><trkpt lat="45.411700169583455" lon="7.826337350243176"><ele>238.25</ele><time>2026-05-03T13:17:36.944Z</time></trkpt><trkpt lat="45.41158979483636" lon="7.826267886655142"><ele>239.0</ele><time>2026-05-03T13:17:37.944Z</time></trkpt><trkpt lat="45.41147409597139" lon="7.826199995787835"><ele>239.0</ele><time>2026-05-03T13:17:38.944Z</time></trkpt><trkpt lat="45.41137612116941" lon="7.826132650720013"><ele>238.99999999999997</ele><time>2026-05-03T13:17:39.944Z</time></trkpt><trkpt lat="45.41128770285302" lon="7.826079726613782"><ele>238.99999999999997</ele><time>2026-05-03T13:17:40.944Z</time></trkpt><trkpt lat="45.411196206610725" lon="7.826026839950165"><ele>239.0</ele><time>2026-05-03T13:17:41.944Z</time></trkpt><trkpt lat="45.41111284145897" lon="7.825960955578856"><ele>239.0</ele><time>2026-05-03T13:17:42.944Z</time></trkpt><trkpt lat="45.411016618748214" lon="7.825896086799859"><ele>238.6</ele><time>2026-05-03T13:17:43.944Z</time></trkpt><trkpt lat="45.41092652959715" lon="7.825794022037682"><ele>238.2</ele><time>2026-05-03T13:17:44.944Z</time></trkpt><trkpt lat="45.41085183493735" lon="7.825691055339708"><ele>237.79999999999998</ele><time>2026-05-03T13:17:45.94Z</time></trkpt><trkpt lat="45.41080263957592" lon="7.825586144686509"><ele>237.39999999999998</ele><time>2026-05-03T13:17:46.941Z</time></trkpt><trkpt lat="45.41081856930936" lon="7.825414061105666"><ele>237.0</ele><time>2026-05-03T13:17:47.941Z</time></trkpt><trkpt lat="45.41077709397523" lon="7.825285496942761"><ele>236.83333333333334</ele><time>2026-05-03T13:17:49.94Z</time></trkpt><trkpt lat="45.41077141486138" lon="7.825139710241018"><ele>236.66666666666669</ele><time>2026-05-03T13:17:51.94Z</time></trkpt><trkpt lat="45.41076885207026" lon="7.824999440525688"><ele>236.5</ele><time>2026-05-03T13:17:53.94Z</time></trkpt><trkpt lat="45.41076325297452" lon="7.824893080923608"><ele>236.33333333333334</ele><time>2026-05-03T13:17:55.94Z</time></trkpt><trkpt lat="45.41073971299594" lon="7.8248007336658745"><ele>236.16666666666669</ele><time>2026-05-03T13:17:59.94Z</time></trkpt><trkpt lat="45.41072697030989" lon="7.824708022512865"><ele>236.0</ele><time>2026-05-03T13:18:22.94Z</time></trkpt><trkpt lat="45.41070968003211" lon="7.824615751210394"><ele>236.0</ele><time>2026-05-03T13:18:24.94Z</time></trkpt><trkpt lat="45.410707086163036" lon="7.824524103908013"><ele>236.00000000000003</ele><time>2026-05-03T13:18:35.94Z</time></trkpt><trkpt lat="45.41066605635394" lon="7.824403190356243"><ele>236.00000000000003</ele><time>2026-05-03T13:18:44.94Z</time></trkpt><trkpt lat="45.41070292881622" lon="7.824191239982473"><ele>236.0</ele><time>2026-05-03T13:18:46.94Z</time></trkpt><trkpt lat="45.410711904152784" lon="7.824076660846918"><ele>236.0</ele><time>2026-05-03T13:18:47.94Z</time></trkpt><trkpt lat="45.41071438085344" lon="7.823929461184997"><ele>236.0</ele><time>2026-05-03T13:18:48.94Z</time></trkpt><trkpt lat="45.41072845956881" lon="7.823785022136823"><ele>236.00000000000003</ele><time>2026-05-03T13:18:49.94Z</time></trkpt><trkpt lat="45.410738239228515" lon="7.823627707586451"><ele>236.00000000000003</ele><time>2026-05-03T13:18:50.94Z</time></trkpt><trkpt lat="45.41074134287486" lon="7.823457646114598"><ele>236.0</ele><time>2026-05-03T13:18:51.94Z</time></trkpt><trkpt lat="45.4107440526516" lon="7.823295233"><ele>236.0</ele><time>2026-05-03T13:18:52.94Z</time></trkpt><trkpt lat="45.41074402324804" lon="7.823126941680726"><ele>236.25</ele><time>2026-05-03T13:18:53.94Z</time></trkpt><trkpt lat="45.41074673076097" lon="7.822940107925928"><ele>236.5</ele><time>2026-05-03T13:18:54.94Z</time></trkpt><trkpt lat="45.41075140591599" lon="7.8227438660003115"><ele>236.75</ele><time>2026-05-03T13:18:55.94Z</time></trkpt><trkpt lat="45.410757091937015" lon="7.8225438848580895"><ele>237.0</ele><time>2026-05-03T13:18:56.94Z</time></trkpt><trkpt lat="45.41075776904344" lon="7.822342391496994"><ele>237.0</ele><time>2026-05-03T13:18:57.94Z</time></trkpt><trkpt lat="45.41075967336055" lon="7.822135778985552"><ele>237.0</ele><time>2026-05-03T13:18:58.94Z</time></trkpt><trkpt lat="45.41076444128357" lon="7.821924375240105"><ele>237.0</ele><time>2026-05-03T13:18:59.94Z</time></trkpt><trkpt lat="45.41076893428391" lon="7.821714522989391"><ele>237.0</ele><time>2026-05-03T13:19:00.941Z</time></trkpt><trkpt lat="45.41076945140065" lon="7.821498766131345"><ele>237.0</ele><time>2026-05-03T13:19:01.941Z</time></trkpt><trkpt lat="45.410774018500724" lon="7.8212877966156915"><ele>237.0</ele><time>2026-05-03T13:19:02.941Z</time></trkpt><trkpt lat="45.41077905907101" lon="7.8210783983324434"><ele>237.0</ele><time>2026-05-03T13:19:03.941Z</time></trkpt><trkpt lat="45.410780776363204" lon="7.820879030768399"><ele>237.0</ele><time>2026-05-03T13:19:04.941Z</time></trkpt><trkpt lat="45.41078371593828" lon="7.820671379504776"><ele>237.0</ele><time>2026-05-03T13:19:05.941Z</time></trkpt><trkpt lat="45.410780329824334" lon="7.820479487446084"><ele>237.0</ele><time>2026-05-03T13:19:06.941Z</time></trkpt><trkpt lat="45.410777628446404" lon="7.820289381777717"><ele>237.0</ele><time>2026-05-03T13:19:07.941Z</time></trkpt><trkpt lat="45.4107699870547" lon="7.820101549271674"><ele>237.0</ele><time>2026-05-03T13:19:08.941Z</time></trkpt><trkpt lat="45.410759343882845" lon="7.8199057723676715"><ele>237.5</ele><time>2026-05-03T13:19:09.941Z</time></trkpt><trkpt lat="45.41074832473656" lon="7.819708757415994"><ele>238.0</ele><time>2026-05-03T13:19:10.941Z</time></trkpt><trkpt lat="45.41072398120565" lon="7.8195076718618"><ele>238.5</ele><time>2026-05-03T13:19:11.941Z</time></trkpt><trkpt lat="45.410698611054386" lon="7.819315038663774"><ele>239.0</ele><time>2026-05-03T13:19:12.941Z</time></trkpt><trkpt lat="45.410670482149385" lon="7.819122788551813"><ele>239.25</ele><time>2026-05-03T13:19:13.941Z</time></trkpt><trkpt lat="45.41063941683757" lon="7.818934228946785"><ele>239.5</ele><time>2026-05-03T13:19:14.941Z</time></trkpt><trkpt lat="45.410607232910266" lon="7.818745724524114"><ele>239.75</ele><time>2026-05-03T13:19:15.941Z</time></trkpt><trkpt lat="45.410572349425934" lon="7.8185595887460435"><ele>240.0</ele><time>2026-05-03T13:19:16.941Z</time></trkpt><trkpt lat="45.410529587417415" lon="7.8183689931778755"><ele>241.5</ele><time>2026-05-03T13:19:17.941Z</time></trkpt><trkpt lat="45.41048218293761" lon="7.8181794658584325"><ele>243.0</ele><time>2026-05-03T13:19:18.941Z</time></trkpt><trkpt lat="45.41043404982044" lon="7.817995146405499"><ele>244.5</ele><time>2026-05-03T13:19:19.941Z</time></trkpt><trkpt lat="45.41038436926655" lon="7.817814512485447"><ele>246.0</ele><time>2026-05-03T13:19:20.941Z</time></trkpt><trkpt lat="45.41032840310782" lon="7.817635048798509"><ele>246.25</ele><time>2026-05-03T13:19:21.941Z</time></trkpt><trkpt lat="45.41026948795884" lon="7.817461369343088"><ele>246.5</ele><time>2026-05-03T13:19:22.941Z</time></trkpt><trkpt lat="45.410209997214324" lon="7.817288640798681"><ele>246.75</ele><time>2026-05-03T13:19:23.941Z</time></trkpt><trkpt lat="45.410144839154704" lon="7.8171173801622995"><ele>247.0</ele><time>2026-05-03T13:19:24.941Z</time></trkpt><trkpt lat="45.410075923282015" lon="7.81694339382365"><ele>247.25</ele><time>2026-05-03T13:19:25.941Z</time></trkpt><trkpt lat="45.410005010796894" lon="7.816765855914143"><ele>247.5</ele><time>2026-05-03T13:19:26.941Z</time></trkpt><trkpt lat="45.409937044505675" lon="7.816594119475879"><ele>247.75</ele><time>2026-05-03T13:19:27.941Z</time></trkpt><trkpt lat="45.40986828692368" lon="7.816429822245614"><ele>248.0</ele><time>2026-05-03T13:19:28.941Z</time></trkpt><trkpt lat="45.40981101411959" lon="7.8162756295040055"><ele>248.0</ele><time>2026-05-03T13:19:29.941Z</time></trkpt><trkpt lat="45.40974763922006" lon="7.81612982403152"><ele>248.0</ele><time>2026-05-03T13:19:30.941Z</time></trkpt><trkpt lat="45.40968603073005" lon="7.815988985358254"><ele>248.0</ele><time>2026-05-03T13:19:31.941Z</time></trkpt><trkpt lat="45.409630405834505" lon="7.81587238356064"><ele>248.0</ele><time>2026-05-03T13:19:32.941Z</time></trkpt><trkpt lat="45.40960733603735" lon="7.815765592126931"><ele>248.0</ele><time>2026-05-03T13:19:33.941Z</time></trkpt><trkpt lat="45.40947119940207" lon="7.815733107606999"><ele>249.25</ele><time>2026-05-03T13:19:34.941Z</time></trkpt><trkpt lat="45.4093769079135" lon="7.815649998484182"><ele>250.5</ele><time>2026-05-03T13:19:35.941Z</time></trkpt><trkpt lat="45.409279480669994" lon="7.815550533836578"><ele>251.75</ele><time>2026-05-03T13:19:36.941Z</time></trkpt><trkpt lat="45.409202305302784" lon="7.815419181956821"><ele>253.0</ele><time>2026-05-03T13:19:37.941Z</time></trkpt><trkpt lat="45.409099829527655" lon="7.81530260621677"><ele>253.0</ele><time>2026-05-03T13:19:38.941Z</time></trkpt><trkpt lat="45.408989374557535" lon="7.815198748602276"><ele>253.0</ele><time>2026-05-03T13:19:39.941Z</time></trkpt><trkpt lat="45.40887901422879" lon="7.815078589191684"><ele>253.0</ele><time>2026-05-03T13:19:40.941Z</time></trkpt><trkpt lat="45.40875475920247" lon="7.814979384952555"><ele>253.0</ele><time>2026-05-03T13:19:41.941Z</time></trkpt><trkpt lat="45.40861561670219" lon="7.814898271377707"><ele>254.0</ele><time>2026-05-03T13:19:42.941Z</time></trkpt><trkpt lat="45.40847855622836" lon="7.814772788618882"><ele>255.0</ele><time>2026-05-03T13:19:43.941Z</time></trkpt><trkpt lat="45.40835373635583" lon="7.814672517040929"><ele>256.0</ele><time>2026-05-03T13:19:44.941Z</time></trkpt><trkpt lat="45.40822393868032" lon="7.8145741607481725"><ele>256.0</ele><time>2026-05-03T13:19:45.941Z</time></trkpt><trkpt lat="45.408103594143746" lon="7.814461661655655"><ele>256.0</ele><time>2026-05-03T13:19:46.941Z</time></trkpt><trkpt lat="45.407985525040296" lon="7.814351808377465"><ele>256.0</ele><time>2026-05-03T13:19:47.941Z</time></trkpt><trkpt lat="45.40786603950876" lon="7.81424018424711"><ele>256.0</ele><time>2026-05-03T13:19:48.941Z</time></trkpt><trkpt lat="45.407759118884634" lon="7.81410570466991"><ele>256.75</ele><time>2026-05-03T13:19:49.941Z</time></trkpt><trkpt lat="45.4076483402286" lon="7.8139933211494075"><ele>257.5</ele><time>2026-05-03T13:19:50.941Z</time></trkpt><trkpt lat="45.407531171400436" lon="7.8138737840839365"><ele>258.25</ele><time>2026-05-03T13:19:51.938Z</time></trkpt><trkpt lat="45.40742815731036" lon="7.813778520959439"><ele>259.0</ele><time>2026-05-03T13:19:52.938Z</time></trkpt><trkpt lat="45.4073580928726" lon="7.813693929023014"><ele>259.0</ele><time>2026-05-03T13:19:53.938Z</time></trkpt><trkpt lat="45.40727163533287" lon="7.81360160872981"><ele>259.0</ele><time>2026-05-03T13:19:54.938Z</time></trkpt><trkpt lat="45.40717542259002" lon="7.813505216890249"><ele>259.0</ele><time>2026-05-03T13:19:55.938Z</time></trkpt><trkpt lat="45.407077190503955" lon="7.813371898832322"><ele>259.0</ele><time>2026-05-03T13:19:56.938Z</time></trkpt><trkpt lat="45.40696093974863" lon="7.813258758693607"><ele>259.5</ele><time>2026-05-03T13:19:57.937Z</time></trkpt><trkpt lat="45.40683737323121" lon="7.8131328659582575"><ele>260.0</ele><time>2026-05-03T13:19:58.937Z</time></trkpt><trkpt lat="45.40672939935586" lon="7.813021160395602"><ele>260.5</ele><time>2026-05-03T13:19:59.937Z</time></trkpt><trkpt lat="45.40664894002959" lon="7.812929276984431"><ele>261.0</ele><time>2026-05-03T13:20:00.938Z</time></trkpt><trkpt lat="45.4066032354993" lon="7.812817694700381"><ele>261.0</ele><time>2026-05-03T13:20:01.937Z</time></trkpt><trkpt lat="45.40656971332424" lon="7.81271047154925"><ele>261.0</ele><time>2026-05-03T13:20:02.937Z</time></trkpt><trkpt lat="45.406559087239124" lon="7.812590878370732"><ele>261.0</ele><time>2026-05-03T13:20:03.937Z</time></trkpt><trkpt lat="45.40654690908144" lon="7.812469431814474"><ele>261.0</ele><time>2026-05-03T13:20:04.937Z</time></trkpt><trkpt lat="45.406538774940636" lon="7.812344453394667"><ele>261.0</ele><time>2026-05-03T13:20:05.937Z</time></trkpt><trkpt lat="45.40653314362836" lon="7.812210522905475"><ele>261.0</ele><time>2026-05-03T13:20:06.937Z</time></trkpt><trkpt lat="45.4065283826315" lon="7.812056656365117"><ele>261.8</ele><time>2026-05-03T13:20:07.937Z</time></trkpt><trkpt lat="45.406509905155644" lon="7.811917771653285"><ele>262.6</ele><time>2026-05-03T13:20:08.937Z</time></trkpt><trkpt lat="45.40652383262051" lon="7.8117870178682285"><ele>263.4</ele><time>2026-05-03T13:20:09.937Z</time></trkpt><trkpt lat="45.40652451139809" lon="7.811654851341722"><ele>264.2</ele><time>2026-05-03T13:20:10.937Z</time></trkpt><trkpt lat="45.40653975262197" lon="7.8115323518703015"><ele>265.0</ele><time>2026-05-03T13:20:11.937Z</time></trkpt><trkpt lat="45.40656920704574" lon="7.81142875329894"><ele>265.16666666666663</ele><time>2026-05-03T13:20:12.937Z</time></trkpt><trkpt lat="45.40666022440884" lon="7.8113117234128495"><ele>265.3333333333333</ele><time>2026-05-03T13:20:14.937Z</time></trkpt><trkpt lat="45.40669905126322" lon="7.811214931150141"><ele>265.5</ele><time>2026-05-03T13:20:16.937Z</time></trkpt><trkpt lat="45.40667183847281" lon="7.811102860027344"><ele>265.6666666666667</ele><time>2026-05-03T13:20:18.937Z</time></trkpt><trkpt lat="45.406620861800285" lon="7.811026689741954"><ele>265.83333333333337</ele><time>2026-05-03T13:20:19.937Z</time></trkpt><trkpt lat="45.40655988927924" lon="7.810960896991358"><ele>266.0</ele><time>2026-05-03T13:20:20.937Z</time></trkpt><trkpt lat="45.406478637652995" lon="7.810867817471333"><ele>266.40000000000003</ele><time>2026-05-03T13:20:21.937Z</time></trkpt><trkpt lat="45.40639544463089" lon="7.810785189951134"><ele>266.8</ele><time>2026-05-03T13:20:22.937Z</time></trkpt><trkpt lat="45.406321248641596" lon="7.810669855124171"><ele>267.20000000000005</ele><time>2026-05-03T13:20:23.937Z</time></trkpt><trkpt lat="45.40623158055801" lon="7.810574877943891"><ele>267.6</ele><time>2026-05-03T13:20:24.937Z</time></trkpt><trkpt lat="45.406150227165305" lon="7.810480317795546"><ele>268.0</ele><time>2026-05-03T13:20:25.937Z</time></trkpt><trkpt lat="45.406069048298235" lon="7.810381073060357"><ele>268.6</ele><time>2026-05-03T13:20:26.937Z</time></trkpt><trkpt lat="45.40598184765475" lon="7.810288090116791"><ele>269.20000000000005</ele><time>2026-05-03T13:20:27.937Z</time></trkpt><trkpt lat="45.405902220897985" lon="7.810184465161577"><ele>269.8</ele><time>2026-05-03T13:20:28.937Z</time></trkpt><trkpt lat="45.4058176851687" lon="7.810080292602124"><ele>270.40000000000003</ele><time>2026-05-03T13:20:29.937Z</time></trkpt><trkpt lat="45.405739577269834" lon="7.809993154871767"><ele>271.0</ele><time>2026-05-03T13:20:30.937Z</time></trkpt><trkpt lat="45.405674137872005" lon="7.809915837082261"><ele>271.8</ele><time>2026-05-03T13:20:31.937Z</time></trkpt><trkpt lat="45.40562617939679" lon="7.809811172291166"><ele>272.6</ele><time>2026-05-03T13:20:33.937Z</time></trkpt><trkpt lat="45.405501816117464" lon="7.809816524199949"><ele>273.4</ele><time>2026-05-03T13:20:36.938Z</time></trkpt><trkpt lat="45.405421876360606" lon="7.809854159620498"><ele>274.2</ele><time>2026-05-03T13:20:37.938Z</time></trkpt><trkpt lat="45.40534233746219" lon="7.809878823390894"><ele>275.0</ele><time>2026-05-03T13:20:38.938Z</time></trkpt><trkpt lat="45.40527063062694" lon="7.809883911921052"><ele>276.0</ele><time>2026-05-03T13:20:39.938Z</time></trkpt><trkpt lat="45.405152616755885" lon="7.809626635581751"><ele>277.0</ele><time>2026-05-03T13:20:42.938Z</time></trkpt><trkpt lat="45.40510316795071" lon="7.809514463766496"><ele>278.0</ele><time>2026-05-03T13:20:43.938Z</time></trkpt><trkpt lat="45.405068696236896" lon="7.809399114158762"><ele>279.0</ele><time>2026-05-03T13:20:44.938Z</time></trkpt><trkpt lat="45.405030798575865" lon="7.80928349013547"><ele>279.3333333333333</ele><time>2026-05-03T13:20:45.938Z</time></trkpt><trkpt lat="45.40499125548469" lon="7.809177049433145"><ele>279.6666666666667</ele><time>2026-05-03T13:20:46.938Z</time></trkpt><trkpt lat="45.40494021266722" lon="7.8090797747317096"><ele>280.0</ele><time>2026-05-03T13:20:47.938Z</time></trkpt><trkpt lat="45.4048882434167" lon="7.808987493268167"><ele>280.33333333333337</ele><time>2026-05-03T13:20:48.938Z</time></trkpt><trkpt lat="45.40483632460349" lon="7.808904940811097"><ele>280.6666666666667</ele><time>2026-05-03T13:20:49.938Z</time></trkpt><trkpt lat="45.40478172011263" lon="7.808809261359911"><ele>281.0</ele><time>2026-05-03T13:20:50.938Z</time></trkpt><trkpt lat="45.40473459924992" lon="7.808723353289124"><ele>281.0</ele><time>2026-05-03T13:20:51.938Z</time></trkpt><trkpt lat="45.40466651511104" lon="7.808617288891119"><ele>281.0</ele><time>2026-05-03T13:20:52.938Z</time></trkpt><trkpt lat="45.40454384273322" lon="7.808518566957355"><ele>281.0</ele><time>2026-05-03T13:20:53.938Z</time></trkpt><trkpt lat="45.404413666731934" lon="7.808437683861358"><ele>281.0</ele><time>2026-05-03T13:20:54.938Z</time></trkpt><trkpt lat="45.40428253526721" lon="7.808366271840676"><ele>282.6</ele><time>2026-05-03T13:20:55.938Z</time></trkpt><trkpt lat="45.404169665464615" lon="7.808284474768874"><ele>284.20000000000005</ele><time>2026-05-03T13:20:56.938Z</time></trkpt><trkpt lat="45.40406662493898" lon="7.808218570369763"><ele>285.79999999999995</ele><time>2026-05-03T13:20:57.938Z</time></trkpt><trkpt lat="45.40397701527173" lon="7.808141686200289"><ele>287.4</ele><time>2026-05-03T13:20:58.938Z</time></trkpt><trkpt lat="45.40389262060118" lon="7.80807162712014"><ele>289.0</ele><time>2026-05-03T13:20:59.938Z</time></trkpt><trkpt lat="45.403808057041694" lon="7.808001496032834"><ele>290.2</ele><time>2026-05-03T13:21:00.938Z</time></trkpt><trkpt lat="45.40372168808165" lon="7.8079252448406775"><ele>291.4</ele><time>2026-05-03T13:21:01.938Z</time></trkpt><trkpt lat="45.40364574672414" lon="7.807812750082168"><ele>292.6</ele><time>2026-05-03T13:21:02.938Z</time></trkpt><trkpt lat="45.40357177755097" lon="7.807699530176534"><ele>293.8</ele><time>2026-05-03T13:21:03.938Z</time></trkpt><trkpt lat="45.40350451918941" lon="7.807592530459117"><ele>295.0</ele><time>2026-05-03T13:21:04.938Z</time></trkpt><trkpt lat="45.403443152190654" lon="7.807481743525545"><ele>295.0</ele><time>2026-05-03T13:21:05.938Z</time></trkpt><trkpt lat="45.40339032368448" lon="7.8073765446021515"><ele>295.0</ele><time>2026-05-03T13:21:06.938Z</time></trkpt><trkpt lat="45.403341820019236" lon="7.80726676405832"><ele>295.0</ele><time>2026-05-03T13:21:07.938Z</time></trkpt><trkpt lat="45.40329042868848" lon="7.807125028303653"><ele>295.0</ele><time>2026-05-03T13:21:08.938Z</time></trkpt><trkpt lat="45.40323659764025" lon="7.807005793011178"><ele>295.0</ele><time>2026-05-03T13:21:09.938Z</time></trkpt><trkpt lat="45.40319250273033" lon="7.806866902333274"><ele>297.6</ele><time>2026-05-03T13:21:10.938Z</time></trkpt><trkpt lat="45.403132729850626" lon="7.806735253776998"><ele>300.2</ele><time>2026-05-03T13:21:11.938Z</time></trkpt><trkpt lat="45.40306151004844" lon="7.806637825363114"><ele>302.8</ele><time>2026-05-03T13:21:12.938Z</time></trkpt><trkpt lat="45.402972430915625" lon="7.806612954304503"><ele>305.4</ele><time>2026-05-03T13:21:13.938Z</time></trkpt><trkpt lat="45.40286212222272" lon="7.80658877047171"><ele>308.0</ele><time>2026-05-03T13:21:14.938Z</time></trkpt><trkpt lat="45.40274071160459" lon="7.8065544839135494"><ele>308.0</ele><time>2026-05-03T13:21:15.938Z</time></trkpt><trkpt lat="45.40262143254678" lon="7.8065422900121195"><ele>308.0</ele><time>2026-05-03T13:21:16.938Z</time></trkpt><trkpt lat="45.40253945258237" lon="7.806522332370601"><ele>308.0</ele><time>2026-05-03T13:21:17.938Z</time></trkpt><trkpt lat="45.40247959460869" lon="7.806471709352036"><ele>308.0</ele><time>2026-05-03T13:21:18.938Z</time></trkpt><trkpt lat="45.402417485185325" lon="7.806371992598563"><ele>308.0</ele><time>2026-05-03T13:21:20.938Z</time></trkpt><trkpt lat="45.402342136307816" lon="7.806295724960693"><ele>308.0</ele><time>2026-05-03T13:21:22.938Z</time></trkpt><trkpt lat="45.402242175920215" lon="7.806122944460629"><ele>308.0</ele><time>2026-05-03T13:21:24.938Z</time></trkpt><trkpt lat="45.402197777020156" lon="7.806036816384714"><ele>308.0</ele><time>2026-05-03T13:21:25.938Z</time></trkpt><trkpt lat="45.4021552866841" lon="7.805966901314961"><ele>308.0</ele><time>2026-05-03T13:21:26.938Z</time></trkpt><trkpt lat="45.40209253023253" lon="7.805887001150669"><ele>308.0</ele><time>2026-05-03T13:21:27.938Z</time></trkpt><trkpt lat="45.40201962112566" lon="7.805790206363382"><ele>310.1666666666667</ele><time>2026-05-03T13:21:28.938Z</time></trkpt><trkpt lat="45.40193332082248" lon="7.805701151582209"><ele>312.33333333333337</ele><time>2026-05-03T13:21:29.938Z</time></trkpt><trkpt lat="45.40186393504134" lon="7.805630751258248"><ele>314.5</ele><time>2026-05-03T13:21:30.938Z</time></trkpt><trkpt lat="45.40180609428611" lon="7.805563964542482"><ele>316.6666666666667</ele><time>2026-05-03T13:21:31.938Z</time></trkpt><trkpt lat="45.40175956994236" lon="7.805501597369486"><ele>318.8333333333333</ele><time>2026-05-03T13:21:32.938Z</time></trkpt><trkpt lat="45.40172792023222" lon="7.805421796888817"><ele>321.0</ele><time>2026-05-03T13:21:33.938Z</time></trkpt><trkpt lat="45.40167590277667" lon="7.805324061568165"><ele>321.0</ele><time>2026-05-03T13:21:34.938Z</time></trkpt><trkpt lat="45.40164169985178" lon="7.805195760938534"><ele>321.0</ele><time>2026-05-03T13:21:35.938Z</time></trkpt><trkpt lat="45.40161289539643" lon="7.805078695124553"><ele>321.0</ele><time>2026-05-03T13:21:36.938Z</time></trkpt><trkpt lat="45.40159187837662" lon="7.804986643278227"><ele>321.0</ele><time>2026-05-03T13:21:37.938Z</time></trkpt><trkpt lat="45.401559794259235" lon="7.8048993847870545"><ele>321.0</ele><time>2026-05-03T13:21:38.938Z</time></trkpt><trkpt lat="45.40151747750131" lon="7.804791917080083"><ele>321.0</ele><time>2026-05-03T13:21:39.938Z</time></trkpt><trkpt lat="45.401491027072" lon="7.804708397279699"><ele>320.40000000000003</ele><time>2026-05-03T13:21:40.938Z</time></trkpt><trkpt lat="45.401503996027635" lon="7.804582996165499"><ele>319.8</ele><time>2026-05-03T13:21:41.938Z</time></trkpt><trkpt lat="45.401471245317" lon="7.804461637000615"><ele>319.20000000000005</ele><time>2026-05-03T13:21:42.938Z</time></trkpt><trkpt lat="45.40143634598431" lon="7.804312689487525"><ele>318.6</ele><time>2026-05-03T13:21:43.938Z</time></trkpt><trkpt lat="45.401404737313946" lon="7.804160189365896"><ele>318.0</ele><time>2026-05-03T13:21:44.938Z</time></trkpt><trkpt lat="45.40140010631878" lon="7.804020553900597"><ele>320.0</ele><time>2026-05-03T13:21:45.938Z</time></trkpt><trkpt lat="45.40139902611375" lon="7.80389023824981"><ele>322.0</ele><time>2026-05-03T13:21:46.938Z</time></trkpt><trkpt lat="45.40140556014145" lon="7.803747502556131"><ele>324.0</ele><time>2026-05-03T13:21:47.938Z</time></trkpt><trkpt lat="45.40142390026767" lon="7.803615934205916"><ele>326.0</ele><time>2026-05-03T13:21:48.938Z</time></trkpt><trkpt lat="45.40143149851306" lon="7.803494906514771"><ele>328.0</ele><time>2026-05-03T13:21:49.938Z</time></trkpt><trkpt lat="45.40141410713225" lon="7.803336219420855"><ele>328.0</ele><time>2026-05-03T13:21:51.938Z</time></trkpt><trkpt lat="45.401459533813636" lon="7.803186379739067"><ele>328.0</ele><time>2026-05-03T13:21:53.938Z</time></trkpt><trkpt lat="45.40153580280776" lon="7.803129978859303"><ele>328.0</ele><time>2026-05-03T13:21:54.938Z</time></trkpt><trkpt lat="45.40160942087306" lon="7.803080197407972"><ele>328.0</ele><time>2026-05-03T13:21:55.938Z</time></trkpt><trkpt lat="45.401696100855474" lon="7.8030196281079425"><ele>328.0</ele><time>2026-05-03T13:21:56.938Z</time></trkpt><trkpt lat="45.40175548205259" lon="7.8029544637795025"><ele>328.0</ele><time>2026-05-03T13:21:57.935Z</time></trkpt><trkpt lat="45.401804564281676" lon="7.8028637968798735"><ele>328.0</ele><time>2026-05-03T13:21:58.935Z</time></trkpt><trkpt lat="45.40184606472648" lon="7.802739864601729"><ele>328.0</ele><time>2026-05-03T13:21:59.935Z</time></trkpt><trkpt lat="45.4018742128985" lon="7.8026007110974005"><ele>328.0</ele><time>2026-05-03T13:22:00.935Z</time></trkpt><trkpt lat="45.401857350208736" lon="7.802453046497869"><ele>328.0</ele><time>2026-05-03T13:22:01.935Z</time></trkpt><trkpt lat="45.40182461577948" lon="7.802327078550601"><ele>329.5</ele><time>2026-05-03T13:22:02.935Z</time></trkpt><trkpt lat="45.40185031486512" lon="7.802233162577656"><ele>331.0</ele><time>2026-05-03T13:22:03.935Z</time></trkpt><trkpt lat="45.401860823168995" lon="7.8021116338684875"><ele>332.5</ele><time>2026-05-03T13:22:04.935Z</time></trkpt><trkpt lat="45.40190301512877" lon="7.8020442293473495"><ele>334.0</ele><time>2026-05-03T13:22:05.935Z</time></trkpt><trkpt lat="45.401974517163" lon="7.801955134724481"><ele>335.5</ele><time>2026-05-03T13:22:07.935Z</time></trkpt><trkpt lat="45.40203920083669" lon="7.801864650865587"><ele>337.0</ele><time>2026-05-03T13:22:09.935Z</time></trkpt><trkpt lat="45.40208104073937" lon="7.801751132470639"><ele>338.20000000000005</ele><time>2026-05-03T13:22:11.935Z</time></trkpt><trkpt lat="45.40210429392877" lon="7.80161688715642"><ele>339.4</ele><time>2026-05-03T13:22:13.935Z</time></trkpt><trkpt lat="45.40210636481746" lon="7.801486383936089"><ele>340.6</ele><time>2026-05-03T13:22:15.935Z</time></trkpt><trkpt lat="45.402135469314715" lon="7.801336130171107"><ele>341.79999999999995</ele><time>2026-05-03T13:22:17.935Z</time></trkpt><trkpt lat="45.40216557118398" lon="7.801165861943472"><ele>343.0</ele><time>2026-05-03T13:22:19.935Z</time></trkpt><trkpt lat="45.40219296205435" lon="7.801067775435423"><ele>342.79999999999995</ele><time>2026-05-03T13:22:20.935Z</time></trkpt><trkpt lat="45.402246966137206" lon="7.800946367948368"><ele>342.6</ele><time>2026-05-03T13:22:21.935Z</time></trkpt><trkpt lat="45.40228202516202" lon="7.800812866112642"><ele>342.4</ele><time>2026-05-03T13:22:22.935Z</time></trkpt><trkpt lat="45.402343181109885" lon="7.800667651208618"><ele>342.20000000000005</ele><time>2026-05-03T13:22:23.935Z</time></trkpt><trkpt lat="45.40236800547179" lon="7.80052435668724"><ele>342.0</ele><time>2026-05-03T13:22:24.935Z</time></trkpt><trkpt lat="45.40236176924926" lon="7.800402062741157"><ele>342.0</ele><time>2026-05-03T13:22:25.935Z</time></trkpt><trkpt lat="45.40233672342562" lon="7.800303875696659"><ele>342.0</ele><time>2026-05-03T13:22:26.935Z</time></trkpt><trkpt lat="45.40229230720418" lon="7.80021238015868"><ele>342.0</ele><time>2026-05-03T13:22:27.935Z</time></trkpt><trkpt lat="45.402252957929235" lon="7.800090654004322"><ele>342.0</ele><time>2026-05-03T13:22:28.935Z</time></trkpt><trkpt lat="45.402209944998326" lon="7.799980663914094"><ele>342.0</ele><time>2026-05-03T13:22:29.935Z</time></trkpt><trkpt lat="45.4021638559162" lon="7.799862912760121"><ele>342.0</ele><time>2026-05-03T13:22:30.935Z</time></trkpt><trkpt lat="45.40210007983886" lon="7.799731586819287"><ele>344.0</ele><time>2026-05-03T13:22:31.935Z</time></trkpt><trkpt lat="45.40205831020941" lon="7.799608362515212"><ele>346.0</ele><time>2026-05-03T13:22:32.935Z</time></trkpt><trkpt lat="45.40199072245327" lon="7.799487035849189"><ele>348.0</ele><time>2026-05-03T13:22:33.935Z</time></trkpt><trkpt lat="45.40193900713145" lon="7.799368175034994"><ele>350.0</ele><time>2026-05-03T13:22:34.935Z</time></trkpt><trkpt lat="45.401908739412185" lon="7.799267300888541"><ele>352.0</ele><time>2026-05-03T13:22:35.935Z</time></trkpt><trkpt lat="45.40185116265221" lon="7.799147180629753"><ele>352.0</ele><time>2026-05-03T13:22:36.935Z</time></trkpt><trkpt lat="45.401801800969444" lon="7.7990745007639655"><ele>352.0</ele><time>2026-05-03T13:22:37.935Z</time></trkpt><trkpt lat="45.40170576744282" lon="7.799037456628921"><ele>352.0</ele><time>2026-05-03T13:22:38.935Z</time></trkpt><trkpt lat="45.40164532452865" lon="7.799000422919141"><ele>352.0</ele><time>2026-05-03T13:22:39.935Z</time></trkpt><trkpt lat="45.401588079297234" lon="7.798951284227369"><ele>352.0</ele><time>2026-05-03T13:22:40.935Z</time></trkpt><trkpt lat="45.401521520897425" lon="7.7988745820459835"><ele>352.0</ele><time>2026-05-03T13:22:41.935Z</time></trkpt><trkpt lat="45.40144044705517" lon="7.798779565887203"><ele>352.0</ele><time>2026-05-03T13:22:42.935Z</time></trkpt><trkpt lat="45.40138385102615" lon="7.7986659418309054"><ele>352.0</ele><time>2026-05-03T13:22:43.935Z</time></trkpt><trkpt lat="45.40136097758716" lon="7.798539437306453"><ele>352.0</ele><time>2026-05-03T13:22:45.935Z</time></trkpt><trkpt lat="45.40131442936257" lon="7.798445962973971"><ele>352.0</ele><time>2026-05-03T13:22:47.935Z</time></trkpt><trkpt lat="45.401277131884136" lon="7.798364784909592"><ele>352.0</ele><time>2026-05-03T13:22:48.935Z</time></trkpt><trkpt lat="45.40121943990384" lon="7.798238392701393"><ele>352.0</ele><time>2026-05-03T13:22:50.935Z</time></trkpt><trkpt lat="45.401185047664576" lon="7.798163108682161"><ele>352.8571428571429</ele><time>2026-05-03T13:22:53.935Z</time></trkpt><trkpt lat="45.40115017007973" lon="7.798084786909555"><ele>353.7142857142857</ele><time>2026-05-03T13:23:01.935Z</time></trkpt><trkpt lat="45.40114583579916" lon="7.79799529583962"><ele>354.57142857142856</ele><time>2026-05-03T13:23:08.935Z</time></trkpt><trkpt lat="45.401092349871064" lon="7.797927078383785"><ele>355.42857142857144</ele><time>2026-05-03T13:23:23.935Z</time></trkpt><trkpt lat="45.40105310123437" lon="7.797800071897095"><ele>356.2857142857143</ele><time>2026-05-03T13:23:25.935Z</time></trkpt><trkpt lat="45.40102872894885" lon="7.797710361896288"><ele>357.14285714285717</ele><time>2026-05-03T13:23:26.935Z</time></trkpt><trkpt lat="45.40097618412403" lon="7.797621483367081"><ele>358.0</ele><time>2026-05-03T13:23:27.935Z</time></trkpt><trkpt lat="45.40091248871267" lon="7.797524811341395"><ele>359.2</ele><time>2026-05-03T13:23:28.935Z</time></trkpt><trkpt lat="45.400855135774705" lon="7.7974552256127145"><ele>360.4</ele><time>2026-05-03T13:23:29.935Z</time></trkpt><trkpt lat="45.40075078205411" lon="7.797337323955533"><ele>361.59999999999997</ele><time>2026-05-03T13:23:31.935Z</time></trkpt><trkpt lat="45.40069338287231" lon="7.7972859519591715"><ele>362.79999999999995</ele><time>2026-05-03T13:23:32.935Z</time></trkpt><trkpt lat="45.40059391924589" lon="7.797251301061911"><ele>364.0</ele><time>2026-05-03T13:23:33.935Z</time></trkpt><trkpt lat="45.40051602498694" lon="7.797210625372862"><ele>367.5</ele><time>2026-05-03T13:23:34.935Z</time></trkpt><trkpt lat="45.40039159465968" lon="7.797163122655668"><ele>371.0</ele><time>2026-05-03T13:23:35.935Z</time></trkpt><trkpt lat="45.400270264845275" lon="7.797117792212141"><ele>374.5</ele><time>2026-05-03T13:23:36.935Z</time></trkpt><trkpt lat="45.400164556623515" lon="7.7970904906869665"><ele>378.0</ele><time>2026-05-03T13:23:37.935Z</time></trkpt><trkpt lat="45.400044086180614" lon="7.797060423622322"><ele>378.0</ele><time>2026-05-03T13:23:38.935Z</time></trkpt><trkpt lat="45.39995263167467" lon="7.796974277738139"><ele>378.0</ele><time>2026-05-03T13:23:39.935Z</time></trkpt><trkpt lat="45.399880600400756" lon="7.796916887482086"><ele>378.0</ele><time>2026-05-03T13:23:40.935Z</time></trkpt><trkpt lat="45.39981760193066" lon="7.7969000441125385"><ele>378.0</ele><time>2026-05-03T13:23:41.935Z</time></trkpt><trkpt lat="45.39974732791678" lon="7.796872306549004"><ele>378.0</ele><time>2026-05-03T13:23:43.935Z</time></trkpt><trkpt lat="45.39977723057338" lon="7.796774863194828"><ele>378.0</ele><time>2026-05-03T13:23:46.935Z</time></trkpt><trkpt lat="45.39984542296806" lon="7.796687551643429"><ele>379.0</ele><time>2026-05-03T13:23:48.935Z</time></trkpt><trkpt lat="45.399954639478445" lon="7.79657725389297"><ele>380.0</ele><time>2026-05-03T13:23:50.935Z</time></trkpt><trkpt lat="45.400007397635214" lon="7.796512401880296"><ele>381.0</ele><time>2026-05-03T13:23:51.935Z</time></trkpt><trkpt lat="45.40005302018478" lon="7.7964478388003675"><ele>382.0</ele><time>2026-05-03T13:23:52.935Z</time></trkpt><trkpt lat="45.40009777486815" lon="7.796377473182829"><ele>383.0</ele><time>2026-05-03T13:23:53.935Z</time></trkpt><trkpt lat="45.40014937343761" lon="7.79623877429117"><ele>384.0</ele><time>2026-05-03T13:23:55.935Z</time></trkpt><trkpt lat="45.4001996277478" lon="7.796166082843188"><ele>384.0</ele><time>2026-05-03T13:23:56.935Z</time></trkpt><trkpt lat="45.40025245573467" lon="7.796099154156324"><ele>384.0</ele><time>2026-05-03T13:23:57.935Z</time></trkpt><trkpt lat="45.40030665078387" lon="7.79603165655866"><ele>384.0</ele><time>2026-05-03T13:23:58.935Z</time></trkpt><trkpt lat="45.40041487396934" lon="7.7959343094552365"><ele>384.0</ele><time>2026-05-03T13:24:00.935Z</time></trkpt><trkpt lat="45.40051798292509" lon="7.795860623964527"><ele>384.0</ele><time>2026-05-03T13:24:02.935Z</time></trkpt><trkpt lat="45.400631437371715" lon="7.795793664956342"><ele>385.8333333333333</ele><time>2026-05-03T13:24:04.932Z</time></trkpt><trkpt lat="45.40070458336597" lon="7.79576442678045"><ele>387.66666666666663</ele><time>2026-05-03T13:24:05.932Z</time></trkpt><trkpt lat="45.40076562075695" lon="7.795728262137998"><ele>389.5</ele><time>2026-05-03T13:24:06.932Z</time></trkpt><trkpt lat="45.40083098334452" lon="7.795708522867256"><ele>391.3333333333333</ele><time>2026-05-03T13:24:07.931Z</time></trkpt><trkpt lat="45.40094219150024" lon="7.795688183851349"><ele>393.16666666666663</ele><time>2026-05-03T13:24:09.932Z</time></trkpt><trkpt lat="45.40104734112451" lon="7.79565593150792"><ele>395.0</ele><time>2026-05-03T13:24:11.931Z</time></trkpt><trkpt lat="45.401090565727934" lon="7.795551369734906"><ele>394.99999999999994</ele><time>2026-05-03T13:24:13.931Z</time></trkpt><trkpt lat="45.40106384753987" lon="7.795441903400282"><ele>395.0</ele><time>2026-05-03T13:24:15.931Z</time></trkpt><trkpt lat="45.40104353798445" lon="7.795279189761177"><ele>395.0</ele><time>2026-05-03T13:24:17.931Z</time></trkpt><trkpt lat="45.401035940779565" lon="7.79518149093848"><ele>395.0</ele><time>2026-05-03T13:24:18.931Z</time></trkpt><trkpt lat="45.401035800949984" lon="7.795081633349755"><ele>394.99999999999994</ele><time>2026-05-03T13:24:19.931Z</time></trkpt><trkpt lat="45.40103772928298" lon="7.794985852463258"><ele>395.0</ele><time>2026-05-03T13:24:20.931Z</time></trkpt><trkpt lat="45.40102969140185" lon="7.794878020941172"><ele>394.49999999999994</ele><time>2026-05-03T13:24:21.931Z</time></trkpt><trkpt lat="45.40098421522839" lon="7.794751109502714"><ele>394.0</ele><time>2026-05-03T13:24:23.931Z</time></trkpt><trkpt lat="45.40089753896826" lon="7.794745495606767"><ele>393.5</ele><time>2026-05-03T13:24:25.931Z</time></trkpt><trkpt lat="45.4008269753301" lon="7.7947547740384655"><ele>393.0</ele><time>2026-05-03T13:24:26.931Z</time></trkpt><trkpt lat="45.40072070728259" lon="7.794737215501684"><ele>392.49999999999994</ele><time>2026-05-03T13:24:27.931Z</time></trkpt><trkpt lat="45.4006477100131" lon="7.794715884346987"><ele>392.0</ele><time>2026-05-03T13:24:28.931Z</time></trkpt><trkpt lat="45.40058449143671" lon="7.7946331107677"><ele>392.0</ele><time>2026-05-03T13:24:29.931Z</time></trkpt><trkpt lat="45.40051327491548" lon="7.794552847662532"><ele>392.0</ele><time>2026-05-03T13:24:30.931Z</time></trkpt><trkpt lat="45.400448277479434" lon="7.794469534149979"><ele>392.0</ele><time>2026-05-03T13:24:31.931Z</time></trkpt><trkpt lat="45.40037252569111" lon="7.794382796817308"><ele>392.0</ele><time>2026-05-03T13:24:32.931Z</time></trkpt><trkpt lat="45.40029820712541" lon="7.794292809980778"><ele>392.0</ele><time>2026-05-03T13:24:33.931Z</time></trkpt><trkpt lat="45.40021944980704" lon="7.79421126436769"><ele>392.8333333333333</ele><time>2026-05-03T13:24:34.931Z</time></trkpt><trkpt lat="45.40015131838805" lon="7.794152538281524"><ele>393.66666666666663</ele><time>2026-05-03T13:24:35.931Z</time></trkpt><trkpt lat="45.400082535472464" lon="7.794122471730507"><ele>394.5</ele><time>2026-05-03T13:24:36.931Z</time></trkpt><trkpt lat="45.40000437389837" lon="7.794089285957288"><ele>395.33333333333337</ele><time>2026-05-03T13:24:38.931Z</time></trkpt><trkpt lat="45.40000436754847" lon="7.793970385208838"><ele>396.1666666666667</ele><time>2026-05-03T13:26:52.929Z</time></trkpt><trkpt lat="45.4000935004573" lon="7.793922769652458"><ele>397.0</ele><time>2026-05-03T13:26:54.929Z</time></trkpt><trkpt lat="45.40014991132977" lon="7.793861108837787"><ele>397.00000000000006</ele><time>2026-05-03T13:26:55.929Z</time></trkpt><trkpt lat="45.40020478088678" lon="7.793777515722636"><ele>397.0</ele><time>2026-05-03T13:26:56.929Z</time></trkpt><trkpt lat="45.40027654945003" lon="7.793716899930942"><ele>397.0</ele><time>2026-05-03T13:26:57.929Z</time></trkpt><trkpt lat="45.40035172055895" lon="7.7936280241436595"><ele>397.0</ele><time>2026-05-03T13:26:58.929Z</time></trkpt><trkpt lat="45.400423443950125" lon="7.793540749319742"><ele>397.00000000000006</ele><time>2026-05-03T13:26:59.929Z</time></trkpt><trkpt lat="45.40049271280103" lon="7.793452455542093"><ele>397.0</ele><time>2026-05-03T13:27:00.929Z</time></trkpt><trkpt lat="45.40055657655114" lon="7.793337019080935"><ele>394.5</ele><time>2026-05-03T13:27:01.929Z</time></trkpt><trkpt lat="45.40064385393421" lon="7.793228806112639"><ele>392.0</ele><time>2026-05-03T13:27:02.929Z</time></trkpt><trkpt lat="45.40072271662212" lon="7.793111643737193"><ele>389.5</ele><time>2026-05-03T13:27:03.929Z</time></trkpt><trkpt lat="45.40079762509262" lon="7.792975972748065"><ele>387.0</ele><time>2026-05-03T13:27:04.929Z</time></trkpt><trkpt lat="45.40086924733361" lon="7.792835159978404"><ele>387.0</ele><time>2026-05-03T13:27:05.929Z</time></trkpt><trkpt lat="45.400938484832444" lon="7.792690457385167"><ele>387.0</ele><time>2026-05-03T13:27:06.929Z</time></trkpt><trkpt lat="45.40100223564462" lon="7.792546779286304"><ele>387.0</ele><time>2026-05-03T13:27:07.929Z</time></trkpt><trkpt lat="45.401071799460176" lon="7.792388320943591"><ele>387.0</ele><time>2026-05-03T13:27:08.929Z</time></trkpt><trkpt lat="45.40114006684551" lon="7.792238392051893"><ele>386.5</ele><time>2026-05-03T13:27:09.929Z</time></trkpt><trkpt lat="45.40120579573528" lon="7.792086132509592"><ele>386.0</ele><time>2026-05-03T13:27:10.929Z</time></trkpt><trkpt lat="45.401277643318565" lon="7.791931795834809"><ele>385.5</ele><time>2026-05-03T13:27:11.929Z</time></trkpt><trkpt lat="45.40134422184405" lon="7.791780893922662"><ele>385.0</ele><time>2026-05-03T13:27:12.929Z</time></trkpt><trkpt lat="45.401414349529944" lon="7.79162826922898"><ele>385.0</ele><time>2026-05-03T13:27:13.929Z</time></trkpt><trkpt lat="45.40148144813598" lon="7.7914812429100095"><ele>385.0</ele><time>2026-05-03T13:27:14.929Z</time></trkpt><trkpt lat="45.401539072665514" lon="7.7913357113546295"><ele>385.0</ele><time>2026-05-03T13:27:15.929Z</time></trkpt><trkpt lat="45.401600622116554" lon="7.7911946797211815"><ele>385.0</ele><time>2026-05-03T13:27:16.929Z</time></trkpt><trkpt lat="45.40165851593214" lon="7.7910505963762615"><ele>385.5</ele><time>2026-05-03T13:27:17.929Z</time></trkpt><trkpt lat="45.40172415064634" lon="7.790910293912187"><ele>386.0</ele><time>2026-05-03T13:27:18.929Z</time></trkpt><trkpt lat="45.40178737311517" lon="7.790771405683338"><ele>386.5</ele><time>2026-05-03T13:27:19.929Z</time></trkpt><trkpt lat="45.40184837134259" lon="7.790636281609272"><ele>387.0</ele><time>2026-05-03T13:27:20.929Z</time></trkpt><trkpt lat="45.401907316460004" lon="7.790492675091526"><ele>387.0</ele><time>2026-05-03T13:27:21.929Z</time></trkpt><trkpt lat="45.40196869173365" lon="7.790355268882329"><ele>387.0</ele><time>2026-05-03T13:27:22.929Z</time></trkpt><trkpt lat="45.40203303424701" lon="7.79021708585606"><ele>387.0</ele><time>2026-05-03T13:27:23.929Z</time></trkpt><trkpt lat="45.402093875746125" lon="7.790069507123779"><ele>387.0</ele><time>2026-05-03T13:27:24.929Z</time></trkpt><trkpt lat="45.4021566239935" lon="7.789925468882759"><ele>387.25</ele><time>2026-05-03T13:27:25.929Z</time></trkpt><trkpt lat="45.40221784545604" lon="7.789780641658718"><ele>387.5</ele><time>2026-05-03T13:27:26.929Z</time></trkpt><trkpt lat="45.40228034065279" lon="7.789624145348764"><ele>387.75</ele><time>2026-05-03T13:27:27.929Z</time></trkpt><trkpt lat="45.402341847859134" lon="7.789462103744999"><ele>388.0</ele><time>2026-05-03T13:27:28.929Z</time></trkpt><trkpt lat="45.402409813888404" lon="7.78930980917418"><ele>387.5</ele><time>2026-05-03T13:27:29.929Z</time></trkpt><trkpt lat="45.40247800939709" lon="7.789169116167753"><ele>387.0</ele><time>2026-05-03T13:27:30.929Z</time></trkpt><trkpt lat="45.40255517397677" lon="7.789048743754434"><ele>386.5</ele><time>2026-05-03T13:27:31.929Z</time></trkpt><trkpt lat="45.402643247651824" lon="7.78895256220408"><ele>386.0</ele><time>2026-05-03T13:27:32.929Z</time></trkpt><trkpt lat="45.40274792030012" lon="7.7888987268496255"><ele>386.0</ele><time>2026-05-03T13:27:33.929Z</time></trkpt><trkpt lat="45.40285569258406" lon="7.78886576588712"><ele>386.0</ele><time>2026-05-03T13:27:34.929Z</time></trkpt><trkpt lat="45.40296066890865" lon="7.788841927013892"><ele>386.0</ele><time>2026-05-03T13:27:35.929Z</time></trkpt><trkpt lat="45.4030718463928" lon="7.788813735686661"><ele>386.0</ele><time>2026-05-03T13:27:36.929Z</time></trkpt><trkpt lat="45.403184579378475" lon="7.788767613797926"><ele>386.0</ele><time>2026-05-03T13:27:37.929Z</time></trkpt><trkpt lat="45.4033036213241" lon="7.788732679628884"><ele>386.25</ele><time>2026-05-03T13:27:38.929Z</time></trkpt><trkpt lat="45.40342778606593" lon="7.78869483715396"><ele>386.5</ele><time>2026-05-03T13:27:39.929Z</time></trkpt><trkpt lat="45.40354755286279" lon="7.788652386578073"><ele>386.75</ele><time>2026-05-03T13:27:40.929Z</time></trkpt><trkpt lat="45.403665679613226" lon="7.788610450048447"><ele>387.0</ele><time>2026-05-03T13:27:41.929Z</time></trkpt><trkpt lat="45.40378338051578" lon="7.788571627959407"><ele>387.25</ele><time>2026-05-03T13:27:42.929Z</time></trkpt><trkpt lat="45.403901311676734" lon="7.788536348834635"><ele>387.5</ele><time>2026-05-03T13:27:43.929Z</time></trkpt><trkpt lat="45.40402264785593" lon="7.788500295501768"><ele>387.75</ele><time>2026-05-03T13:27:44.929Z</time></trkpt><trkpt lat="45.404147321117755" lon="7.788466232762853"><ele>388.0</ele><time>2026-05-03T13:27:45.929Z</time></trkpt><trkpt lat="45.40426836133479" lon="7.788444854469341"><ele>388.25</ele><time>2026-05-03T13:27:46.929Z</time></trkpt><trkpt lat="45.404385998067795" lon="7.788434414787945"><ele>388.5</ele><time>2026-05-03T13:27:47.929Z</time></trkpt><trkpt lat="45.4045126525674" lon="7.788454814303555"><ele>388.75</ele><time>2026-05-03T13:27:48.929Z</time></trkpt><trkpt lat="45.40464666647215" lon="7.788486998588969"><ele>389.0</ele><time>2026-05-03T13:27:49.929Z</time></trkpt><trkpt lat="45.404781643758994" lon="7.788513712893615"><ele>389.0</ele><time>2026-05-03T13:27:50.929Z</time></trkpt><trkpt lat="45.404913641253074" lon="7.788542533429691"><ele>389.0</ele><time>2026-05-03T13:27:51.929Z</time></trkpt><trkpt lat="45.405043160191795" lon="7.788579459657074"><ele>389.0</ele><time>2026-05-03T13:27:52.929Z</time></trkpt><trkpt lat="45.40516590057732" lon="7.788627032130141"><ele>389.0</ele><time>2026-05-03T13:27:53.929Z</time></trkpt><trkpt lat="45.40527971046631" lon="7.7886900947874524"><ele>389.0</ele><time>2026-05-03T13:27:54.929Z</time></trkpt><trkpt lat="45.40538648893337" lon="7.788773894268107"><ele>389.0</ele><time>2026-05-03T13:27:55.929Z</time></trkpt><trkpt lat="45.40548759827624" lon="7.788872460018997"><ele>389.0</ele><time>2026-05-03T13:27:56.929Z</time></trkpt><trkpt lat="45.405585333121245" lon="7.788958861231572"><ele>389.0</ele><time>2026-05-03T13:27:57.929Z</time></trkpt><trkpt lat="45.4056891701128" lon="7.789043582825927"><ele>390.4</ele><time>2026-05-03T13:27:58.929Z</time></trkpt><trkpt lat="45.40578496772207" lon="7.7891163732684"><ele>391.79999999999995</ele><time>2026-05-03T13:27:59.929Z</time></trkpt><trkpt lat="45.40586655399312" lon="7.789186998518262"><ele>393.20000000000005</ele><time>2026-05-03T13:28:00.929Z</time></trkpt><trkpt lat="45.40595257317947" lon="7.789184211492786"><ele>394.6</ele><time>2026-05-03T13:28:01.929Z</time></trkpt><trkpt lat="45.40601586257204" lon="7.789104909834575"><ele>396.0</ele><time>2026-05-03T13:28:02.929Z</time></trkpt><trkpt lat="45.40606692927205" lon="7.789012128444328"><ele>396.0</ele><time>2026-05-03T13:28:03.929Z</time></trkpt><trkpt lat="45.4061094752828" lon="7.788894214906321"><ele>396.0</ele><time>2026-05-03T13:28:04.929Z</time></trkpt><trkpt lat="45.40614944608444" lon="7.788763117805583"><ele>396.0</ele><time>2026-05-03T13:28:05.929Z</time></trkpt><trkpt lat="45.406198362987276" lon="7.788621278262697"><ele>396.0</ele><time>2026-05-03T13:28:06.929Z</time></trkpt><trkpt lat="45.4062569188183" lon="7.788484915045878"><ele>396.0</ele><time>2026-05-03T13:28:07.929Z</time></trkpt><trkpt lat="45.406318655418794" lon="7.788342469626634"><ele>396.25</ele><time>2026-05-03T13:28:08.929Z</time></trkpt><trkpt lat="45.40638003407586" lon="7.788194155372847"><ele>396.5</ele><time>2026-05-03T13:28:09.929Z</time></trkpt><trkpt lat="45.40644320630406" lon="7.788047470493399"><ele>396.75</ele><time>2026-05-03T13:28:10.929Z</time></trkpt><trkpt lat="45.406504838478455" lon="7.787911395613684"><ele>397.0</ele><time>2026-05-03T13:28:11.929Z</time></trkpt><trkpt lat="45.406573353826275" lon="7.78776491180785"><ele>396.75</ele><time>2026-05-03T13:28:12.929Z</time></trkpt><trkpt lat="45.40664348135786" lon="7.787629249650821"><ele>396.5</ele><time>2026-05-03T13:28:13.929Z</time></trkpt><trkpt lat="45.40670915423678" lon="7.787488158189855"><ele>396.25</ele><time>2026-05-03T13:28:14.929Z</time></trkpt><trkpt lat="45.40677963958085" lon="7.787352229022513"><ele>396.0</ele><time>2026-05-03T13:28:15.926Z</time></trkpt><trkpt lat="45.40685358950716" lon="7.787224114368653"><ele>396.0</ele><time>2026-05-03T13:28:16.926Z</time></trkpt><trkpt lat="45.40692913221988" lon="7.787101144378934"><ele>396.0</ele><time>2026-05-03T13:28:17.926Z</time></trkpt><trkpt lat="45.40700310037599" lon="7.786976112760634"><ele>396.0</ele><time>2026-05-03T13:28:18.926Z</time></trkpt><trkpt lat="45.40708049937254" lon="7.786869691715875"><ele>396.0</ele><time>2026-05-03T13:28:19.926Z</time></trkpt><trkpt lat="45.40716617776078" lon="7.786796813058254"><ele>396.0</ele><time>2026-05-03T13:28:20.926Z</time></trkpt><trkpt lat="45.407263199347575" lon="7.786738056926372"><ele>396.5</ele><time>2026-05-03T13:28:21.926Z</time></trkpt><trkpt lat="45.40738032079589" lon="7.786712635041992"><ele>397.0</ele><time>2026-05-03T13:28:22.926Z</time></trkpt><trkpt lat="45.40749843261048" lon="7.786677525615979"><ele>397.5</ele><time>2026-05-03T13:28:23.926Z</time></trkpt><trkpt lat="45.407613275555036" lon="7.786684267826755"><ele>398.0</ele><time>2026-05-03T13:28:24.926Z</time></trkpt><trkpt lat="45.40772243729662" lon="7.786684469637498"><ele>398.0</ele><time>2026-05-03T13:28:25.926Z</time></trkpt><trkpt lat="45.40783179352834" lon="7.786680420513751"><ele>398.0</ele><time>2026-05-03T13:28:26.926Z</time></trkpt><trkpt lat="45.407947242841985" lon="7.7866619817684715"><ele>398.0</ele><time>2026-05-03T13:28:27.926Z</time></trkpt><trkpt lat="45.408045855329455" lon="7.786636232613927"><ele>398.0</ele><time>2026-05-03T13:28:28.926Z</time></trkpt><trkpt lat="45.40812734388687" lon="7.786589656831093"><ele>398.0</ele><time>2026-05-03T13:28:29.926Z</time></trkpt><trkpt lat="45.40821881492462" lon="7.7865085080437515"><ele>398.4</ele><time>2026-05-03T13:28:30.926Z</time></trkpt><trkpt lat="45.40830709439482" lon="7.7864184487038814"><ele>398.79999999999995</ele><time>2026-05-03T13:28:31.926Z</time></trkpt><trkpt lat="45.40837985116971" lon="7.786322556851446"><ele>399.2</ele><time>2026-05-03T13:28:32.926Z</time></trkpt><trkpt lat="45.40846890113925" lon="7.786213953458196"><ele>399.6</ele><time>2026-05-03T13:28:33.926Z</time></trkpt><trkpt lat="45.40856313218621" lon="7.7861293575833646"><ele>400.0</ele><time>2026-05-03T13:28:34.926Z</time></trkpt><trkpt lat="45.408637645879836" lon="7.786013083980696"><ele>400.2</ele><time>2026-05-03T13:28:35.926Z</time></trkpt><trkpt lat="45.40873199078006" lon="7.785918392612665"><ele>400.4</ele><time>2026-05-03T13:28:36.926Z</time></trkpt><trkpt lat="45.40883232714357" lon="7.785868886779379"><ele>400.6</ele><time>2026-05-03T13:28:37.926Z</time></trkpt><trkpt lat="45.40891129764975" lon="7.7858088145828175"><ele>400.8</ele><time>2026-05-03T13:28:38.926Z</time></trkpt><trkpt lat="45.40897914888332" lon="7.785758043304552"><ele>401.0</ele><time>2026-05-03T13:28:39.926Z</time></trkpt><trkpt lat="45.40903742782255" lon="7.785721222674862"><ele>401.6</ele><time>2026-05-03T13:28:40.926Z</time></trkpt><trkpt lat="45.40910405219051" lon="7.785676360076559"><ele>402.20000000000005</ele><time>2026-05-03T13:28:41.926Z</time></trkpt><trkpt lat="45.40919448399526" lon="7.785771652488244"><ele>402.79999999999995</ele><time>2026-05-03T13:28:43.926Z</time></trkpt><trkpt lat="45.40921119344853" lon="7.785873400850087"><ele>403.4</ele><time>2026-05-03T13:28:44.926Z</time></trkpt><trkpt lat="45.40925524926505" lon="7.78600587019334"><ele>404.0</ele><time>2026-05-03T13:28:45.926Z</time></trkpt><trkpt lat="45.409278655276175" lon="7.786135814593829"><ele>404.0</ele><time>2026-05-03T13:28:46.926Z</time></trkpt><trkpt lat="45.409303910848536" lon="7.786284315919913"><ele>404.0</ele><time>2026-05-03T13:28:47.926Z</time></trkpt><trkpt lat="45.4093497330582" lon="7.7864279135082635"><ele>404.0</ele><time>2026-05-03T13:28:48.926Z</time></trkpt><trkpt lat="45.40938850544254" lon="7.786556641333505"><ele>404.0</ele><time>2026-05-03T13:28:49.926Z</time></trkpt><trkpt lat="45.40942790328938" lon="7.786707066877028"><ele>404.0</ele><time>2026-05-03T13:28:50.926Z</time></trkpt><trkpt lat="45.409472761564075" lon="7.786822997231803"><ele>404.2</ele><time>2026-05-03T13:28:51.926Z</time></trkpt><trkpt lat="45.409536363686364" lon="7.786937642271958"><ele>404.4</ele><time>2026-05-03T13:28:52.926Z</time></trkpt><trkpt lat="45.40960784165356" lon="7.787045668796536"><ele>404.6</ele><time>2026-05-03T13:28:53.926Z</time></trkpt><trkpt lat="45.40967277621506" lon="7.7871265764538835"><ele>404.8</ele><time>2026-05-03T13:28:54.926Z</time></trkpt><trkpt lat="45.40972126369275" lon="7.787243166558113"><ele>405.0</ele><time>2026-05-03T13:28:55.926Z</time></trkpt><trkpt lat="45.409765075279005" lon="7.787334000239053"><ele>405.0</ele><time>2026-05-03T13:28:56.926Z</time></trkpt><trkpt lat="45.40981863433309" lon="7.787397208976739"><ele>405.0</ele><time>2026-05-03T13:28:57.926Z</time></trkpt><trkpt lat="45.40994627174524" lon="7.787336063797127"><ele>405.0</ele><time>2026-05-03T13:28:59.926Z</time></trkpt><trkpt lat="45.41006083816492" lon="7.787289276804827"><ele>405.0</ele><time>2026-05-03T13:29:00.926Z</time></trkpt><trkpt lat="45.410167555363024" lon="7.787241228953499"><ele>405.0</ele><time>2026-05-03T13:29:01.926Z</time></trkpt><trkpt lat="45.41026534551314" lon="7.787178951153964"><ele>405.0</ele><time>2026-05-03T13:29:02.926Z</time></trkpt><trkpt lat="45.41036750331652" lon="7.787118517339188"><ele>405.0</ele><time>2026-05-03T13:29:03.926Z</time></trkpt><trkpt lat="45.41045702269207" lon="7.787068160705507"><ele>405.0</ele><time>2026-05-03T13:29:04.926Z</time></trkpt><trkpt lat="45.410539826537914" lon="7.787029736192752"><ele>405.0</ele><time>2026-05-03T13:29:05.926Z</time></trkpt><trkpt lat="45.41064346442768" lon="7.786973327935615"><ele>405.0</ele><time>2026-05-03T13:29:06.926Z</time></trkpt><trkpt lat="45.410744548810726" lon="7.786924440897261"><ele>405.2</ele><time>2026-05-03T13:29:07.926Z</time></trkpt><trkpt lat="45.41085676463602" lon="7.78687323401357"><ele>405.4</ele><time>2026-05-03T13:29:08.926Z</time></trkpt><trkpt lat="45.41096139429952" lon="7.786834804048645"><ele>405.6</ele><time>2026-05-03T13:29:09.926Z</time></trkpt><trkpt lat="45.411062174260636" lon="7.786781591801948"><ele>405.8</ele><time>2026-05-03T13:29:10.926Z</time></trkpt><trkpt lat="45.411157032129374" lon="7.786730436587465"><ele>406.0</ele><time>2026-05-03T13:29:11.926Z</time></trkpt><trkpt lat="45.411239386228935" lon="7.786671790494839"><ele>406.0</ele><time>2026-05-03T13:29:12.926Z</time></trkpt><trkpt lat="45.411305191215504" lon="7.786588716401127"><ele>406.0</ele><time>2026-05-03T13:29:13.926Z</time></trkpt><trkpt lat="45.4113573488977" lon="7.786479310893775"><ele>406.0</ele><time>2026-05-03T13:29:14.926Z</time></trkpt><trkpt lat="45.41138997600795" lon="7.786348277116854"><ele>406.0</ele><time>2026-05-03T13:29:15.926Z</time></trkpt><trkpt lat="45.41140641014453" lon="7.786218681749841"><ele>406.0</ele><time>2026-05-03T13:29:16.926Z</time></trkpt><trkpt lat="45.411414599263395" lon="7.786099597321956"><ele>404.20000000000005</ele><time>2026-05-03T13:29:17.926Z</time></trkpt><trkpt lat="45.41141490606172" lon="7.785953783928184"><ele>402.40000000000003</ele><time>2026-05-03T13:29:18.926Z</time></trkpt><trkpt lat="45.41140858489724" lon="7.785814747111429"><ele>400.6</ele><time>2026-05-03T13:29:19.926Z</time></trkpt><trkpt lat="45.41140974275331" lon="7.785685858889226"><ele>398.8</ele><time>2026-05-03T13:29:20.926Z</time></trkpt><trkpt lat="45.41140471558522" lon="7.785545890183177"><ele>397.0</ele><time>2026-05-03T13:29:21.926Z</time></trkpt><trkpt lat="45.41139114194783" lon="7.785400423185699"><ele>397.0</ele><time>2026-05-03T13:29:22.926Z</time></trkpt><trkpt lat="45.41139506698079" lon="7.785272932571801"><ele>397.0</ele><time>2026-05-03T13:29:23.926Z</time></trkpt><trkpt lat="45.411399377445534" lon="7.785152232673206"><ele>397.0</ele><time>2026-05-03T13:29:24.926Z</time></trkpt><trkpt lat="45.41139834407772" lon="7.785023106806139"><ele>397.0</ele><time>2026-05-03T13:29:25.926Z</time></trkpt><trkpt lat="45.41142885252628" lon="7.784874353916964"><ele>397.0</ele><time>2026-05-03T13:29:26.926Z</time></trkpt><trkpt lat="45.41146730374112" lon="7.784713100136579"><ele>396.40000000000003</ele><time>2026-05-03T13:29:27.926Z</time></trkpt><trkpt lat="45.41150498221423" lon="7.78455458594561"><ele>395.8</ele><time>2026-05-03T13:29:28.926Z</time></trkpt><trkpt lat="45.41154295650658" lon="7.784403606139598"><ele>395.2</ele><time>2026-05-03T13:29:29.926Z</time></trkpt><trkpt lat="45.41156713565696" lon="7.7842519799466645"><ele>394.6</ele><time>2026-05-03T13:29:30.926Z</time></trkpt><trkpt lat="45.41161365250644" lon="7.784117270499676"><ele>394.0</ele><time>2026-05-03T13:29:31.926Z</time></trkpt><trkpt lat="45.41166473755595" lon="7.7839901830101255"><ele>394.00000000000006</ele><time>2026-05-03T13:29:32.926Z</time></trkpt><trkpt lat="45.411715088117525" lon="7.783870676382124"><ele>394.0</ele><time>2026-05-03T13:29:33.926Z</time></trkpt><trkpt lat="45.41177138995263" lon="7.783751350677432"><ele>394.0</ele><time>2026-05-03T13:29:34.926Z</time></trkpt><trkpt lat="45.41181289750964" lon="7.783617909350889"><ele>394.0</ele><time>2026-05-03T13:29:35.926Z</time></trkpt><trkpt lat="45.41185136519256" lon="7.783518879468273"><ele>394.00000000000006</ele><time>2026-05-03T13:29:36.926Z</time></trkpt><trkpt lat="45.41188418795283" lon="7.783434562877562"><ele>394.0</ele><time>2026-05-03T13:29:37.926Z</time></trkpt><trkpt lat="45.41191147087358" lon="7.783338924438412"><ele>394.83333333333337</ele><time>2026-05-03T13:29:38.926Z</time></trkpt><trkpt lat="45.41190246540938" lon="7.783246878802985"><ele>395.6666666666667</ele><time>2026-05-03T13:29:39.926Z</time></trkpt><trkpt lat="45.41191832169366" lon="7.783129078511034"><ele>396.5</ele><time>2026-05-03T13:29:41.926Z</time></trkpt><trkpt lat="45.41190655688221" lon="7.783040684668626"><ele>397.33333333333337</ele><time>2026-05-03T13:29:42.926Z</time></trkpt><trkpt lat="45.411915535415076" lon="7.7829425143981155"><ele>398.1666666666667</ele><time>2026-05-03T13:29:43.926Z</time></trkpt><trkpt lat="45.41181527140038" lon="7.782804603660323"><ele>399.0</ele><time>2026-05-03T13:29:44.926Z</time></trkpt><trkpt lat="45.41179293003094" lon="7.7827039359876835"><ele>397.75</ele><time>2026-05-03T13:29:45.926Z</time></trkpt><trkpt lat="45.41179944246712" lon="7.78256089262247"><ele>396.5</ele><time>2026-05-03T13:29:47.926Z</time></trkpt><trkpt lat="45.41178786200795" lon="7.782352161726135"><ele>395.25</ele><time>2026-05-03T13:29:49.926Z</time></trkpt><trkpt lat="45.411805167126275" lon="7.7821912994153175"><ele>394.0</ele><time>2026-05-03T13:29:50.926Z</time></trkpt><trkpt lat="45.41185074051791" lon="7.782012814098723"><ele>394.0</ele><time>2026-05-03T13:29:51.926Z</time></trkpt><trkpt lat="45.41190298622092" lon="7.7818536415896675"><ele>394.0</ele><time>2026-05-03T13:29:52.926Z</time></trkpt><trkpt lat="45.41194468519883" lon="7.781705055219634"><ele>394.0</ele><time>2026-05-03T13:29:53.926Z</time></trkpt><trkpt lat="45.411981006790484" lon="7.781592569180654"><ele>394.0</ele><time>2026-05-03T13:29:54.926Z</time></trkpt><trkpt lat="45.41197376272286" lon="7.78150037862558"><ele>394.0</ele><time>2026-05-03T13:29:58.926Z</time></trkpt><trkpt lat="45.41193748500113" lon="7.781388614849996"><ele>393.83333333333337</ele><time>2026-05-03T13:30:02.926Z</time></trkpt><trkpt lat="45.4119408149009" lon="7.781259807632374"><ele>393.6666666666667</ele><time>2026-05-03T13:30:05.926Z</time></trkpt><trkpt lat="45.411933377580205" lon="7.781132237075899"><ele>393.5</ele><time>2026-05-03T13:30:07.926Z</time></trkpt><trkpt lat="45.41191247640991" lon="7.780993621210135"><ele>393.33333333333337</ele><time>2026-05-03T13:30:09.926Z</time></trkpt><trkpt lat="45.41187598963419" lon="7.780909283597691"><ele>393.1666666666667</ele><time>2026-05-03T13:30:11.926Z</time></trkpt><trkpt lat="45.411883943232354" lon="7.780767674428325"><ele>393.0</ele><time>2026-05-03T13:30:13.926Z</time></trkpt><trkpt lat="45.41188602327095" lon="7.780641431280838"><ele>393.4</ele><time>2026-05-03T13:30:16.926Z</time></trkpt><trkpt lat="45.4118637059596" lon="7.7805082128984075"><ele>393.79999999999995</ele><time>2026-05-03T13:30:18.927Z</time></trkpt><trkpt lat="45.411849004090776" lon="7.780410048317611"><ele>394.2</ele><time>2026-05-03T13:30:19.927Z</time></trkpt><trkpt lat="45.411860081110845" lon="7.780241358880503"><ele>394.6</ele><time>2026-05-03T13:30:20.927Z</time></trkpt><trkpt lat="45.41186657818788" lon="7.780109598516589"><ele>395.0</ele><time>2026-05-03T13:30:21.924Z</time></trkpt><trkpt lat="45.41189474756974" lon="7.779992858373463"><ele>395.6</ele><time>2026-05-03T13:30:22.924Z</time></trkpt><trkpt lat="45.41194248022981" lon="7.779904204095068"><ele>396.2</ele><time>2026-05-03T13:30:23.924Z</time></trkpt><trkpt lat="45.41194388190888" lon="7.7797344780241175"><ele>396.79999999999995</ele><time>2026-05-03T13:30:25.923Z</time></trkpt><trkpt lat="45.41191506791455" lon="7.779590672352292"><ele>397.4</ele><time>2026-05-03T13:30:26.923Z</time></trkpt><trkpt lat="45.4119075934883" lon="7.779426498985947"><ele>398.0</ele><time>2026-05-03T13:30:27.923Z</time></trkpt><trkpt lat="45.411897555538424" lon="7.779236529215639"><ele>398.66666666666663</ele><time>2026-05-03T13:30:28.923Z</time></trkpt><trkpt lat="45.411903794347545" lon="7.779063991825625"><ele>399.3333333333333</ele><time>2026-05-03T13:30:29.923Z</time></trkpt><trkpt lat="45.411929506098964" lon="7.778934146666997"><ele>400.0</ele><time>2026-05-03T13:30:30.923Z</time></trkpt><trkpt lat="45.41195452358909" lon="7.778836496739088"><ele>400.66666666666663</ele><time>2026-05-03T13:30:31.924Z</time></trkpt><trkpt lat="45.41196830671233" lon="7.7787354524478145"><ele>401.3333333333333</ele><time>2026-05-03T13:30:32.924Z</time></trkpt><trkpt lat="45.411968962170015" lon="7.778619166922292"><ele>402.0</ele><time>2026-05-03T13:30:33.923Z</time></trkpt><trkpt lat="45.41194784736604" lon="7.778524121571498"><ele>401.6</ele><time>2026-05-03T13:30:34.923Z</time></trkpt><trkpt lat="45.41189445792475" lon="7.778341180174184"><ele>401.20000000000005</ele><time>2026-05-03T13:30:36.923Z</time></trkpt><trkpt lat="45.41187331655733" lon="7.7782330028802855"><ele>400.8</ele><time>2026-05-03T13:30:37.923Z</time></trkpt><trkpt lat="45.41188158267191" lon="7.778108701106044"><ele>400.4</ele><time>2026-05-03T13:30:38.923Z</time></trkpt><trkpt lat="45.411883327667326" lon="7.7779924938337"><ele>400.0</ele><time>2026-05-03T13:30:39.923Z</time></trkpt><trkpt lat="45.41186983909082" lon="7.777882059281709"><ele>400.00000000000006</ele><time>2026-05-03T13:30:40.923Z</time></trkpt><trkpt lat="45.41186452665881" lon="7.777752057402608"><ele>400.0</ele><time>2026-05-03T13:30:41.923Z</time></trkpt><trkpt lat="45.411847602847196" lon="7.7776152651597865"><ele>400.0</ele><time>2026-05-03T13:30:42.923Z</time></trkpt><trkpt lat="45.41184264007249" lon="7.777511229544967"><ele>400.0</ele><time>2026-05-03T13:30:43.923Z</time></trkpt><trkpt lat="45.41183235974425" lon="7.777408890950624"><ele>400.00000000000006</ele><time>2026-05-03T13:30:44.923Z</time></trkpt><trkpt lat="45.41182482315089" lon="7.777299038429845"><ele>400.0</ele><time>2026-05-03T13:30:45.923Z</time></trkpt><trkpt lat="45.41181052110644" lon="7.7771331342139085"><ele>400.1666666666667</ele><time>2026-05-03T13:30:47.924Z</time></trkpt><trkpt lat="45.4117901338294" lon="7.776994421488359"><ele>400.33333333333337</ele><time>2026-05-03T13:30:49.924Z</time></trkpt><trkpt lat="45.4117821681099" lon="7.7769006227064015"><ele>400.5</ele><time>2026-05-03T13:30:55.924Z</time></trkpt><trkpt lat="45.41176964483854" lon="7.776809739428486"><ele>400.66666666666663</ele><time>2026-05-03T13:31:12.924Z</time></trkpt><trkpt lat="45.411742918028644" lon="7.776671749642912"><ele>400.8333333333333</ele><time>2026-05-03T13:31:14.924Z</time></trkpt><trkpt lat="45.411713862763676" lon="7.776583255445047"><ele>401.0</ele><time>2026-05-03T13:31:15.924Z</time></trkpt><trkpt lat="45.41164450490953" lon="7.776461670788112"><ele>401.25</ele><time>2026-05-03T13:31:16.924Z</time></trkpt><trkpt lat="45.4115895002056" lon="7.7763198145155"><ele>401.5</ele><time>2026-05-03T13:31:17.924Z</time></trkpt><trkpt lat="45.411535906207156" lon="7.776145485519028"><ele>401.75</ele><time>2026-05-03T13:31:18.924Z</time></trkpt><trkpt lat="45.411463099217194" lon="7.775960823473992"><ele>402.0</ele><time>2026-05-03T13:31:19.924Z</time></trkpt><trkpt lat="45.41139424733339" lon="7.77579231049425"><ele>402.0</ele><time>2026-05-03T13:31:20.924Z</time></trkpt><trkpt lat="45.411324053703794" lon="7.775621354997345"><ele>402.0</ele><time>2026-05-03T13:31:21.924Z</time></trkpt><trkpt lat="45.4112702275741" lon="7.7754198030689485"><ele>402.0</ele><time>2026-05-03T13:31:22.924Z</time></trkpt><trkpt lat="45.41120797709462" lon="7.775231206608582"><ele>402.0</ele><time>2026-05-03T13:31:23.924Z</time></trkpt><trkpt lat="45.411192817653095" lon="7.77508957706268"><ele>404.1666666666667</ele><time>2026-05-03T13:31:24.924Z</time></trkpt><trkpt lat="45.41119720142546" lon="7.7749680685251485"><ele>406.33333333333337</ele><time>2026-05-03T13:31:25.924Z</time></trkpt><trkpt lat="45.41120117521815" lon="7.7748407265357775"><ele>408.5</ele><time>2026-05-03T13:31:26.924Z</time></trkpt><trkpt lat="45.41119228939804" lon="7.774720605502437"><ele>410.6666666666667</ele><time>2026-05-03T13:31:27.924Z</time></trkpt><trkpt lat="45.41113987339973" lon="7.774652515607904"><ele>412.83333333333337</ele><time>2026-05-03T13:31:28.924Z</time></trkpt><trkpt lat="45.41104847496916" lon="7.774635456839561"><ele>415.0</ele><time>2026-05-03T13:31:29.924Z</time></trkpt><trkpt lat="45.410945877056676" lon="7.774585184955055"><ele>415.0</ele><time>2026-05-03T13:31:30.924Z</time></trkpt><trkpt lat="45.41085449608459" lon="7.774525871238945"><ele>415.0</ele><time>2026-05-03T13:31:31.924Z</time></trkpt><trkpt lat="45.41076443763419" lon="7.774463540057205"><ele>415.0</ele><time>2026-05-03T13:31:32.924Z</time></trkpt><trkpt lat="45.41069326078818" lon="7.774395060539393"><ele>415.0</ele><time>2026-05-03T13:31:33.924Z</time></trkpt><trkpt lat="45.41060471564831" lon="7.774364312435952"><ele>415.0</ele><time>2026-05-03T13:31:34.924Z</time></trkpt><trkpt lat="45.41046903886533" lon="7.774348451154377"><ele>415.33333333333337</ele><time>2026-05-03T13:31:35.924Z</time></trkpt><trkpt lat="45.41036114212979" lon="7.774338557411771"><ele>415.6666666666667</ele><time>2026-05-03T13:31:36.924Z</time></trkpt><trkpt lat="45.410264841727844" lon="7.774347497072007"><ele>416.0</ele><time>2026-05-03T13:31:37.924Z</time></trkpt><trkpt lat="45.41018171434156" lon="7.774346652881686"><ele>416.33333333333337</ele><time>2026-05-03T13:31:38.924Z</time></trkpt><trkpt lat="45.41010040958065" lon="7.774335574481013"><ele>416.6666666666667</ele><time>2026-05-03T13:31:42.924Z</time></trkpt><trkpt lat="45.410048285979826" lon="7.774410009523129"><ele>417.0</ele><time>2026-05-03T13:31:44.924Z</time></trkpt><trkpt lat="45.41007860011821" lon="7.774586244877873"><ele>417.0</ele><time>2026-05-03T13:31:46.924Z</time></trkpt><trkpt lat="45.410072119898295" lon="7.774731281713463"><ele>417.0</ele><time>2026-05-03T13:31:47.924Z</time></trkpt><trkpt lat="45.410060948014895" lon="7.774890587876595"><ele>417.0</ele><time>2026-05-03T13:31:48.924Z</time></trkpt><trkpt lat="45.41001807645948" lon="7.7750231062523625"><ele>417.0</ele><time>2026-05-03T13:31:49.924Z</time></trkpt><trkpt lat="45.40999181625397" lon="7.775148386522908"><ele>417.0</ele><time>2026-05-03T13:31:50.924Z</time></trkpt><trkpt lat="45.40996651152314" lon="7.775248004457677"><ele>416.6</ele><time>2026-05-03T13:31:51.924Z</time></trkpt><trkpt lat="45.409933308702804" lon="7.77535941014578"><ele>416.20000000000005</ele><time>2026-05-03T13:31:52.924Z</time></trkpt><trkpt lat="45.40988436459704" lon="7.7755249779463425"><ele>415.8</ele><time>2026-05-03T13:31:54.924Z</time></trkpt><trkpt lat="45.40986688129194" lon="7.775613310834665"><ele>415.4</ele><time>2026-05-03T13:31:55.924Z</time></trkpt><trkpt lat="45.40981505507619" lon="7.775772517049156"><ele>415.0</ele><time>2026-05-03T13:31:57.924Z</time></trkpt><trkpt lat="45.409777894015015" lon="7.7758530593758985"><ele>413.0</ele><time>2026-05-03T13:31:59.924Z</time></trkpt><trkpt lat="45.409569858093626" lon="7.775663955133097"><ele>411.0</ele><time>2026-05-03T13:32:03.924Z</time></trkpt><trkpt lat="45.409482934869864" lon="7.775608432399511"><ele>409.0</ele><time>2026-05-03T13:32:04.924Z</time></trkpt><trkpt lat="45.40937941788228" lon="7.7755541026428086"><ele>409.00000000000006</ele><time>2026-05-03T13:32:05.924Z</time></trkpt><trkpt lat="45.409288748942664" lon="7.775500145058723"><ele>409.0</ele><time>2026-05-03T13:32:06.924Z</time></trkpt><trkpt lat="45.40923107383078" lon="7.775450305108787"><ele>409.0</ele><time>2026-05-03T13:32:07.924Z</time></trkpt><trkpt lat="45.40915961104936" lon="7.775341060913601"><ele>409.0</ele><time>2026-05-03T13:32:09.924Z</time></trkpt><trkpt lat="45.40908409837048" lon="7.775327765318176"><ele>409.00000000000006</ele><time>2026-05-03T13:32:10.924Z</time></trkpt><trkpt lat="45.40898550678414" lon="7.77533151028513"><ele>409.0</ele><time>2026-05-03T13:32:11.924Z</time></trkpt><trkpt lat="45.40886427984435" lon="7.775322341454695"><ele>409.2</ele><time>2026-05-03T13:32:12.924Z</time></trkpt><trkpt lat="45.40879694363254" lon="7.775278159193012"><ele>409.4</ele><time>2026-05-03T13:32:13.924Z</time></trkpt><trkpt lat="45.40876655033136" lon="7.7750965275353225"><ele>409.6</ele><time>2026-05-03T13:32:15.924Z</time></trkpt><trkpt lat="45.40875413509178" lon="7.77500574233205"><ele>409.8</ele><time>2026-05-03T13:32:16.924Z</time></trkpt><trkpt lat="45.40873836333453" lon="7.774881089919452"><ele>410.0</ele><time>2026-05-03T13:32:17.924Z</time></trkpt><trkpt lat="45.40871259106203" lon="7.774728579084711"><ele>410.0</ele><time>2026-05-03T13:32:18.924Z</time></trkpt><trkpt lat="45.40864830746469" lon="7.774547517457153"><ele>410.0</ele><time>2026-05-03T13:32:19.924Z</time></trkpt><trkpt lat="45.408567365930836" lon="7.774404209218695"><ele>410.0</ele><time>2026-05-03T13:32:20.924Z</time></trkpt><trkpt lat="45.40849209753458" lon="7.77425733260512"><ele>410.0</ele><time>2026-05-03T13:32:21.924Z</time></trkpt><trkpt lat="45.40842542051734" lon="7.774110776902135"><ele>412.0</ele><time>2026-05-03T13:32:22.924Z</time></trkpt><trkpt lat="45.40834042245802" lon="7.7739910001107635"><ele>414.0</ele><time>2026-05-03T13:32:23.924Z</time></trkpt><trkpt lat="45.408237428134136" lon="7.773873241639585"><ele>416.0</ele><time>2026-05-03T13:32:24.924Z</time></trkpt><trkpt lat="45.4081415310741" lon="7.773783286992716"><ele>418.0</ele><time>2026-05-03T13:32:25.924Z</time></trkpt><trkpt lat="45.40807169460951" lon="7.773685395306058"><ele>418.0</ele><time>2026-05-03T13:32:26.924Z</time></trkpt><trkpt lat="45.408032056049045" lon="7.773546396671736"><ele>418.0</ele><time>2026-05-03T13:32:27.921Z</time></trkpt><trkpt lat="45.40802548604707" lon="7.7734269848612705"><ele>418.0</ele><time>2026-05-03T13:32:28.921Z</time></trkpt><trkpt lat="45.4080547839431" lon="7.773298188885983"><ele>418.0</ele><time>2026-05-03T13:32:29.921Z</time></trkpt><trkpt lat="45.40808950415945" lon="7.773151635352556"><ele>418.0</ele><time>2026-05-03T13:32:30.921Z</time></trkpt><trkpt lat="45.4081128256663" lon="7.772993287082665"><ele>419.75</ele><time>2026-05-03T13:32:31.922Z</time></trkpt><trkpt lat="45.40809627849361" lon="7.772849837602567"><ele>421.5</ele><time>2026-05-03T13:32:32.922Z</time></trkpt><trkpt lat="45.40808326548244" lon="7.77269285105727"><ele>423.25</ele><time>2026-05-03T13:32:33.922Z</time></trkpt><trkpt lat="45.40807192064413" lon="7.772520673942368"><ele>425.0</ele><time>2026-05-03T13:32:34.921Z</time></trkpt><trkpt lat="45.408050969207935" lon="7.772355466687658"><ele>425.25</ele><time>2026-05-03T13:32:35.921Z</time></trkpt><trkpt lat="45.40801290205129" lon="7.772182693881134"><ele>425.5</ele><time>2026-05-03T13:32:36.921Z</time></trkpt><trkpt lat="45.40797762454184" lon="7.772035829120499"><ele>425.75</ele><time>2026-05-03T13:32:37.921Z</time></trkpt><trkpt lat="45.4079308545345" lon="7.771877430652672"><ele>426.0</ele><time>2026-05-03T13:32:38.921Z</time></trkpt><trkpt lat="45.407890637538884" lon="7.771716781705063"><ele>425.0</ele><time>2026-05-03T13:32:39.921Z</time></trkpt><trkpt lat="45.407851931692974" lon="7.77152589256243"><ele>424.0</ele><time>2026-05-03T13:32:40.921Z</time></trkpt><trkpt lat="45.407804763382686" lon="7.771313270671955"><ele>423.0</ele><time>2026-05-03T13:32:41.921Z</time></trkpt><trkpt lat="45.40773929515583" lon="7.771119421205303"><ele>422.0</ele><time>2026-05-03T13:32:42.921Z</time></trkpt><trkpt lat="45.40767621325587" lon="7.770950378888028"><ele>422.0</ele><time>2026-05-03T13:32:43.921Z</time></trkpt><trkpt lat="45.40762076023473" lon="7.770804258545671"><ele>422.0</ele><time>2026-05-03T13:32:44.921Z</time></trkpt><trkpt lat="45.40757892406097" lon="7.770658856170221"><ele>422.0</ele><time>2026-05-03T13:32:45.921Z</time></trkpt><trkpt lat="45.40753614886616" lon="7.770517138319975"><ele>422.0</ele><time>2026-05-03T13:32:46.921Z</time></trkpt><trkpt lat="45.40750065733407" lon="7.770383684281069"><ele>422.0</ele><time>2026-05-03T13:32:47.921Z</time></trkpt><trkpt lat="45.40748249489088" lon="7.77028105323562"><ele>422.8</ele><time>2026-05-03T13:32:48.921Z</time></trkpt><trkpt lat="45.40745571089169" lon="7.770121840153181"><ele>423.6</ele><time>2026-05-03T13:32:50.921Z</time></trkpt><trkpt lat="45.407481595511214" lon="7.769953840347004"><ele>424.40000000000003</ele><time>2026-05-03T13:32:52.921Z</time></trkpt><trkpt lat="45.40751243204128" lon="7.769835608825916"><ele>425.20000000000005</ele><time>2026-05-03T13:32:53.921Z</time></trkpt><trkpt lat="45.407534908759736" lon="7.769736972079902"><ele>426.0</ele><time>2026-05-03T13:32:54.921Z</time></trkpt><trkpt lat="45.407566719952214" lon="7.769574283055045"><ele>426.0</ele><time>2026-05-03T13:32:55.921Z</time></trkpt><trkpt lat="45.407592955246685" lon="7.769403041107278"><ele>426.0</ele><time>2026-05-03T13:32:56.921Z</time></trkpt><trkpt lat="45.407619756461315" lon="7.769238388888031"><ele>426.0</ele><time>2026-05-03T13:32:57.921Z</time></trkpt><trkpt lat="45.40764585947786" lon="7.7690736228554025"><ele>426.0</ele><time>2026-05-03T13:32:58.921Z</time></trkpt><trkpt lat="45.407677260132004" lon="7.768907475375469"><ele>424.5</ele><time>2026-05-03T13:32:59.921Z</time></trkpt><trkpt lat="45.407699317314375" lon="7.768747198820232"><ele>423.0</ele><time>2026-05-03T13:33:00.921Z</time></trkpt><trkpt lat="45.407716959925594" lon="7.768560204295514"><ele>421.5</ele><time>2026-05-03T13:33:01.921Z</time></trkpt><trkpt lat="45.40773867433502" lon="7.76838683777979"><ele>420.0</ele><time>2026-05-03T13:33:02.921Z</time></trkpt><trkpt lat="45.40774934955993" lon="7.768223365138625"><ele>419.25</ele><time>2026-05-03T13:33:03.921Z</time></trkpt><trkpt lat="45.40775573441155" lon="7.768057258194754"><ele>418.5</ele><time>2026-05-03T13:33:04.921Z</time></trkpt><trkpt lat="45.40774431929737" lon="7.767867702895824"><ele>417.75</ele><time>2026-05-03T13:33:05.921Z</time></trkpt><trkpt lat="45.40772438811579" lon="7.767667073414383"><ele>417.0</ele><time>2026-05-03T13:33:06.921Z</time></trkpt><trkpt lat="45.40769838427391" lon="7.767473601844218"><ele>416.5</ele><time>2026-05-03T13:33:07.921Z</time></trkpt><trkpt lat="45.40767006607025" lon="7.7672847439134145"><ele>416.0</ele><time>2026-05-03T13:33:08.921Z</time></trkpt><trkpt lat="45.40764306884314" lon="7.767118878223594"><ele>415.5</ele><time>2026-05-03T13:33:09.921Z</time></trkpt><trkpt lat="45.407615943871335" lon="7.766965349954384"><ele>415.0</ele><time>2026-05-03T13:33:10.921Z</time></trkpt><trkpt lat="45.40758940357215" lon="7.766838295592054"><ele>414.6</ele><time>2026-05-03T13:33:11.921Z</time></trkpt><trkpt lat="45.40756581691869" lon="7.766720480289233"><ele>414.2</ele><time>2026-05-03T13:33:12.921Z</time></trkpt><trkpt lat="45.40754050295209" lon="7.7666189952532445"><ele>413.79999999999995</ele><time>2026-05-03T13:33:13.921Z</time></trkpt><trkpt lat="45.407507624997606" lon="7.76653869969269"><ele>413.4</ele><time>2026-05-03T13:33:14.921Z</time></trkpt><trkpt lat="45.407462475569574" lon="7.766458048803912"><ele>413.0</ele><time>2026-05-03T13:33:16.921Z</time></trkpt><trkpt lat="45.40731935528715" lon="7.766565825709508"><ele>413.0</ele><time>2026-05-03T13:33:19.921Z</time></trkpt><trkpt lat="45.40722186411222" lon="7.766734682298851"><ele>413.0</ele><time>2026-05-03T13:33:21.921Z</time></trkpt><trkpt lat="45.40712053638049" lon="7.76683869208793"><ele>413.0</ele><time>2026-05-03T13:33:22.921Z</time></trkpt><trkpt lat="45.407038687926224" lon="7.766953598867021"><ele>413.0</ele><time>2026-05-03T13:33:23.921Z</time></trkpt><trkpt lat="45.406926136328735" lon="7.767057370176798"><ele>415.0</ele><time>2026-05-03T13:33:24.921Z</time></trkpt><trkpt lat="45.406808923111896" lon="7.767129388536937"><ele>417.0</ele><time>2026-05-03T13:33:25.921Z</time></trkpt><trkpt lat="45.406692048159925" lon="7.767235719170452"><ele>419.0</ele><time>2026-05-03T13:33:26.921Z</time></trkpt><trkpt lat="45.40659175747818" lon="7.767306957019769"><ele>421.0</ele><time>2026-05-03T13:33:27.921Z</time></trkpt><trkpt lat="45.40649768750233" lon="7.767427881910386"><ele>421.0</ele><time>2026-05-03T13:33:28.921Z</time></trkpt><trkpt lat="45.40640748340398" lon="7.7675331836286725"><ele>421.0</ele><time>2026-05-03T13:33:29.921Z</time></trkpt><trkpt lat="45.40630640531096" lon="7.767622864157101"><ele>421.0</ele><time>2026-05-03T13:33:30.921Z</time></trkpt><trkpt lat="45.40623868194883" lon="7.7677310917969065"><ele>421.0</ele><time>2026-05-03T13:33:31.921Z</time></trkpt><trkpt lat="45.40617699721611" lon="7.7678009421583925"><ele>421.0</ele><time>2026-05-03T13:33:32.921Z</time></trkpt><trkpt lat="45.40612377534275" lon="7.767855286684859"><ele>423.6666666666667</ele><time>2026-05-03T13:33:33.921Z</time></trkpt><trkpt lat="45.40607445392134" lon="7.767911136603284"><ele>426.33333333333337</ele><time>2026-05-03T13:33:34.921Z</time></trkpt><trkpt lat="45.406017465206055" lon="7.767954685979979"><ele>429.0</ele><time>2026-05-03T13:33:36.921Z</time></trkpt><trkpt lat="45.40594842711365" lon="7.767746038635269"><ele>431.66666666666663</ele><time>2026-05-03T13:33:43.921Z</time></trkpt><trkpt lat="45.40597703763953" lon="7.767638488460607"><ele>434.3333333333333</ele><time>2026-05-03T13:33:45.921Z</time></trkpt><trkpt lat="45.40600167191517" lon="7.767555802698826"><ele>437.0</ele><time>2026-05-03T13:33:46.921Z</time></trkpt><trkpt lat="45.406035858670144" lon="7.767459692816095"><ele>437.20000000000005</ele><time>2026-05-03T13:33:47.921Z</time></trkpt><trkpt lat="45.406089569998876" lon="7.767373784102994"><ele>437.40000000000003</ele><time>2026-05-03T13:33:48.921Z</time></trkpt><trkpt lat="45.40615630785065" lon="7.7672429748497995"><ele>437.59999999999997</ele><time>2026-05-03T13:33:49.921Z</time></trkpt><trkpt lat="45.406196838235736" lon="7.767113392482314"><ele>437.79999999999995</ele><time>2026-05-03T13:33:50.921Z</time></trkpt><trkpt lat="45.406215880924265" lon="7.766990579592302"><ele>438.0</ele><time>2026-05-03T13:33:51.921Z</time></trkpt><trkpt lat="45.40621941947704" lon="7.7668399602409615"><ele>439.0</ele><time>2026-05-03T13:33:52.921Z</time></trkpt><trkpt lat="45.40620711847515" lon="7.7667007363186595"><ele>439.99999999999994</ele><time>2026-05-03T13:33:53.921Z</time></trkpt><trkpt lat="45.40622611348567" lon="7.766595317063812"><ele>440.99999999999994</ele><time>2026-05-03T13:33:55.921Z</time></trkpt><trkpt lat="45.40623334064714" lon="7.766471094279544"><ele>442.0</ele><time>2026-05-03T13:33:56.921Z</time></trkpt><trkpt lat="45.40626614505308" lon="7.766323983365684"><ele>443.0</ele><time>2026-05-03T13:33:57.921Z</time></trkpt><trkpt lat="45.4063030776272" lon="7.766169365440615"><ele>443.5</ele><time>2026-05-03T13:33:58.921Z</time></trkpt><trkpt lat="45.406326242284536" lon="7.766007446983156"><ele>444.0</ele><time>2026-05-03T13:33:59.921Z</time></trkpt><trkpt lat="45.4063533101484" lon="7.765794654460096"><ele>444.5</ele><time>2026-05-03T13:34:00.921Z</time></trkpt><trkpt lat="45.406372539617635" lon="7.765603182728189"><ele>445.0</ele><time>2026-05-03T13:34:01.921Z</time></trkpt><trkpt lat="45.4063605414804" lon="7.765457709937257"><ele>445.4</ele><time>2026-05-03T13:34:02.921Z</time></trkpt><trkpt lat="45.40635031117545" lon="7.765321349712237"><ele>445.8</ele><time>2026-05-03T13:34:03.921Z</time></trkpt><trkpt lat="45.40633301075936" lon="7.76518776754169"><ele>446.20000000000005</ele><time>2026-05-03T13:34:04.921Z</time></trkpt><trkpt lat="45.40631531816434" lon="7.765040366712135"><ele>446.6</ele><time>2026-05-03T13:34:05.921Z</time></trkpt><trkpt lat="45.40629938764245" lon="7.764908437968683"><ele>447.0</ele><time>2026-05-03T13:34:06.921Z</time></trkpt><trkpt lat="45.40627820874497" lon="7.76479519118358"><ele>447.0</ele><time>2026-05-03T13:34:07.921Z</time></trkpt><trkpt lat="45.406249215009474" lon="7.764681475505823"><ele>447.0</ele><time>2026-05-03T13:34:08.921Z</time></trkpt><trkpt lat="45.40619655207165" lon="7.764527156311076"><ele>447.0</ele><time>2026-05-03T13:34:09.921Z</time></trkpt><trkpt lat="45.406144488746015" lon="7.764341625113122"><ele>447.0</ele><time>2026-05-03T13:34:10.921Z</time></trkpt><trkpt lat="45.40609464938894" lon="7.764182139611145"><ele>445.25</ele><time>2026-05-03T13:34:11.921Z</time></trkpt><trkpt lat="45.406038950957566" lon="7.764044757116852"><ele>443.5</ele><time>2026-05-03T13:34:12.921Z</time></trkpt><trkpt lat="45.40594680499922" lon="7.763921634571259"><ele>441.75</ele><time>2026-05-03T13:34:13.921Z</time></trkpt><trkpt lat="45.40584664565765" lon="7.763808471925699"><ele>440.0</ele><time>2026-05-03T13:34:14.921Z</time></trkpt><trkpt lat="45.40573499130391" lon="7.763684323182728"><ele>440.0</ele><time>2026-05-03T13:34:15.921Z</time></trkpt><trkpt lat="45.405629222940924" lon="7.7635797067597245"><ele>440.0</ele><time>2026-05-03T13:34:16.921Z</time></trkpt><trkpt lat="45.40552262743921" lon="7.763471985739284"><ele>440.0</ele><time>2026-05-03T13:34:17.922Z</time></trkpt><trkpt lat="45.405418626547664" lon="7.7633675409538805"><ele>440.0</ele><time>2026-05-03T13:34:18.922Z</time></trkpt><trkpt lat="45.40531039985085" lon="7.763238868455398"><ele>439.25</ele><time>2026-05-03T13:34:19.922Z</time></trkpt><trkpt lat="45.40521567460404" lon="7.763120949762653"><ele>438.5</ele><time>2026-05-03T13:34:20.922Z</time></trkpt><trkpt lat="45.40511978637919" lon="7.763007010242628"><ele>437.75</ele><time>2026-05-03T13:34:21.922Z</time></trkpt><trkpt lat="45.40500447409691" lon="7.76289612195748"><ele>437.0</ele><time>2026-05-03T13:34:22.922Z</time></trkpt><trkpt lat="45.40487544198831" lon="7.76279202902694"><ele>436.75</ele><time>2026-05-03T13:34:23.922Z</time></trkpt><trkpt lat="45.40476524772975" lon="7.762680540209027"><ele>436.5</ele><time>2026-05-03T13:34:24.922Z</time></trkpt><trkpt lat="45.404672310770884" lon="7.762556637502126"><ele>436.25</ele><time>2026-05-03T13:34:25.922Z</time></trkpt><trkpt lat="45.4045926040614" lon="7.762437393937623"><ele>436.0</ele><time>2026-05-03T13:34:26.922Z</time></trkpt><trkpt lat="45.40453627497593" lon="7.762300087468398"><ele>435.4</ele><time>2026-05-03T13:34:27.922Z</time></trkpt><trkpt lat="45.404464715319676" lon="7.762172392379245"><ele>434.8</ele><time>2026-05-03T13:34:28.922Z</time></trkpt><trkpt lat="45.40439587489228" lon="7.762050352940178"><ele>434.19999999999993</ele><time>2026-05-03T13:34:29.922Z</time></trkpt><trkpt lat="45.404340319055784" lon="7.761947691810078"><ele>433.59999999999997</ele><time>2026-05-03T13:34:30.922Z</time></trkpt><trkpt lat="45.404309802852" lon="7.761831122268958"><ele>433.0</ele><time>2026-05-03T13:34:31.922Z</time></trkpt><trkpt lat="45.40427243899458" lon="7.761704681309284"><ele>433.0</ele><time>2026-05-03T13:34:32.922Z</time></trkpt><trkpt lat="45.40426035756882" lon="7.761609794335303"><ele>432.99999999999994</ele><time>2026-05-03T13:34:33.919Z</time></trkpt><trkpt lat="45.40428595954514" lon="7.761390544166158"><ele>432.99999999999994</ele><time>2026-05-03T13:34:35.919Z</time></trkpt><trkpt lat="45.40429644319392" lon="7.76125291803743"><ele>433.0</ele><time>2026-05-03T13:34:36.919Z</time></trkpt><trkpt lat="45.40432856124546" lon="7.761096089602462"><ele>433.0</ele><time>2026-05-03T13:34:37.919Z</time></trkpt><trkpt lat="45.4043655220572" lon="7.760935738516115"><ele>431.75</ele><time>2026-05-03T13:34:38.919Z</time></trkpt><trkpt lat="45.40437853424749" lon="7.760755582343005"><ele>430.5</ele><time>2026-05-03T13:34:39.918Z</time></trkpt><trkpt lat="45.404385690260526" lon="7.760594955588485"><ele>429.25</ele><time>2026-05-03T13:34:40.918Z</time></trkpt><trkpt lat="45.40441809390856" lon="7.760454076045492"><ele>428.0</ele><time>2026-05-03T13:34:41.918Z</time></trkpt><trkpt lat="45.40444719842895" lon="7.760291492614951"><ele>426.5</ele><time>2026-05-03T13:34:42.919Z</time></trkpt><trkpt lat="45.40446364045008" lon="7.760140878200428"><ele>425.0</ele><time>2026-05-03T13:34:43.918Z</time></trkpt><trkpt lat="45.404475365285556" lon="7.760001888723809"><ele>423.5</ele><time>2026-05-03T13:34:44.918Z</time></trkpt><trkpt lat="45.404475420213416" lon="7.759829019786036"><ele>422.0</ele><time>2026-05-03T13:34:45.918Z</time></trkpt><trkpt lat="45.40448090170514" lon="7.759628638174693"><ele>422.0</ele><time>2026-05-03T13:34:46.919Z</time></trkpt><trkpt lat="45.40449020773507" lon="7.759452244800945"><ele>422.0</ele><time>2026-05-03T13:34:47.919Z</time></trkpt><trkpt lat="45.40449193959541" lon="7.759309173489902"><ele>422.0</ele><time>2026-05-03T13:34:48.919Z</time></trkpt><trkpt lat="45.40447207737517" lon="7.759144661311982"><ele>422.0</ele><time>2026-05-03T13:34:49.919Z</time></trkpt><trkpt lat="45.40444205314975" lon="7.758962278365305"><ele>422.0</ele><time>2026-05-03T13:34:50.919Z</time></trkpt><trkpt lat="45.40440464923556" lon="7.758780690133357"><ele>422.0</ele><time>2026-05-03T13:34:51.919Z</time></trkpt><trkpt lat="45.4043737273327" lon="7.758616160112922"><ele>422.0</ele><time>2026-05-03T13:34:52.919Z</time></trkpt><trkpt lat="45.40436964359392" lon="7.758446474141054"><ele>422.0</ele><time>2026-05-03T13:34:53.919Z</time></trkpt><trkpt lat="45.40434636762733" lon="7.758309785074732"><ele>421.75</ele><time>2026-05-03T13:34:54.919Z</time></trkpt><trkpt lat="45.40430891433512" lon="7.758160636998302"><ele>421.5</ele><time>2026-05-03T13:34:55.919Z</time></trkpt><trkpt lat="45.40427741236439" lon="7.7579837219035515"><ele>421.25</ele><time>2026-05-03T13:34:56.919Z</time></trkpt><trkpt lat="45.40423830440955" lon="7.757817830844716"><ele>421.0</ele><time>2026-05-03T13:34:57.919Z</time></trkpt><trkpt lat="45.404184030656936" lon="7.757660148756978"><ele>420.8</ele><time>2026-05-03T13:34:58.919Z</time></trkpt><trkpt lat="45.40412881078643" lon="7.757534410150454"><ele>420.6</ele><time>2026-05-03T13:34:59.919Z</time></trkpt><trkpt lat="45.4040660374849" lon="7.757386870969562"><ele>420.4</ele><time>2026-05-03T13:35:00.919Z</time></trkpt><trkpt lat="45.40401986383454" lon="7.757250931421676"><ele>420.2</ele><time>2026-05-03T13:35:01.919Z</time></trkpt><trkpt lat="45.40400425441913" lon="7.757112448260618"><ele>420.0</ele><time>2026-05-03T13:35:02.919Z</time></trkpt><trkpt lat="45.40399829633102" lon="7.757008060797286"><ele>420.0</ele><time>2026-05-03T13:35:03.919Z</time></trkpt><trkpt lat="45.40405176674122" lon="7.75688744636314"><ele>420.0</ele><time>2026-05-03T13:35:05.919Z</time></trkpt><trkpt lat="45.40411894163728" lon="7.756865854992982"><ele>420.0</ele><time>2026-05-03T13:35:07.919Z</time></trkpt><trkpt lat="45.40420970986929" lon="7.7568613380375"><ele>420.0</ele><time>2026-05-03T13:35:11.919Z</time></trkpt><trkpt lat="45.404275275359666" lon="7.756864655455144"><ele>420.0</ele><time>2026-05-03T13:35:12.919Z</time></trkpt><trkpt lat="45.40437012287168" lon="7.756844729611581"><ele>420.0</ele><time>2026-05-03T13:35:13.919Z</time></trkpt><trkpt lat="45.404489485495446" lon="7.756777760066408"><ele>420.25</ele><time>2026-05-03T13:35:14.919Z</time></trkpt><trkpt lat="45.40461514842691" lon="7.7566879933735"><ele>420.5</ele><time>2026-05-03T13:35:15.919Z</time></trkpt><trkpt lat="45.404735611887354" lon="7.756608760262158"><ele>420.75</ele><time>2026-05-03T13:35:16.919Z</time></trkpt><trkpt lat="45.40483294034812" lon="7.756539064898456"><ele>421.0</ele><time>2026-05-03T13:35:17.919Z</time></trkpt><trkpt lat="45.404926153602396" lon="7.756520563208084"><ele>421.0</ele><time>2026-05-03T13:35:18.919Z</time></trkpt><trkpt lat="45.40502841383719" lon="7.7565001085842455"><ele>421.0</ele><time>2026-05-03T13:35:19.919Z</time></trkpt><trkpt lat="45.40514775007805" lon="7.756459270292707"><ele>421.0</ele><time>2026-05-03T13:35:20.919Z</time></trkpt><trkpt lat="45.40528569419843" lon="7.756428888098374"><ele>421.0</ele><time>2026-05-03T13:35:21.919Z</time></trkpt><trkpt lat="45.405395333296134" lon="7.756356551300751"><ele>421.0</ele><time>2026-05-03T13:35:22.919Z</time></trkpt><trkpt lat="45.405485269630674" lon="7.756284631809827"><ele>421.0</ele><time>2026-05-03T13:35:23.919Z</time></trkpt><trkpt lat="45.40556214577039" lon="7.756264443410669"><ele>421.0</ele><time>2026-05-03T13:35:24.919Z</time></trkpt><trkpt lat="45.4056611726196" lon="7.756219088587547"><ele>421.0</ele><time>2026-05-03T13:35:25.919Z</time></trkpt><trkpt lat="45.405779397075946" lon="7.7561649409952516"><ele>421.0</ele><time>2026-05-03T13:35:26.919Z</time></trkpt><trkpt lat="45.40589349850367" lon="7.756112681836071"><ele>420.6</ele><time>2026-05-03T13:35:27.919Z</time></trkpt><trkpt lat="45.40598413517572" lon="7.756071169445904"><ele>420.20000000000005</ele><time>2026-05-03T13:35:28.919Z</time></trkpt><trkpt lat="45.406050979971205" lon="7.756040554294572"><ele>419.79999999999995</ele><time>2026-05-03T13:35:29.919Z</time></trkpt><trkpt lat="45.4061587901883" lon="7.755982196541914"><ele>419.4</ele><time>2026-05-03T13:35:31.919Z</time></trkpt><trkpt lat="45.40626090353968" lon="7.756013717857171"><ele>419.0</ele><time>2026-05-03T13:35:33.919Z</time></trkpt><trkpt lat="45.406366082883295" lon="7.755978590123918"><ele>416.0</ele><time>2026-05-03T13:35:35.919Z</time></trkpt><trkpt lat="45.40642304722859" lon="7.7559132932287485"><ele>413.0</ele><time>2026-05-03T13:35:36.919Z</time></trkpt><trkpt lat="45.40650055707574" lon="7.755839411305043"><ele>410.0</ele><time>2026-05-03T13:35:39.919Z</time></trkpt><trkpt lat="45.4066369810037" lon="7.755778660760527"><ele>407.0</ele><time>2026-05-03T13:35:41.919Z</time></trkpt><trkpt lat="45.40670713068489" lon="7.755747129535566"><ele>404.0</ele><time>2026-05-03T13:35:42.919Z</time></trkpt><trkpt lat="45.40671955466628" lon="7.755258946687454"><ele>404.4</ele><time>2026-05-03T13:35:44.919Z</time></trkpt><trkpt lat="45.406760235142436" lon="7.755123057782416"><ele>404.79999999999995</ele><time>2026-05-03T13:35:45.919Z</time></trkpt><trkpt lat="45.40679368784122" lon="7.754979275931377"><ele>405.20000000000005</ele><time>2026-05-03T13:35:46.919Z</time></trkpt><trkpt lat="45.40682679049288" lon="7.754831596707217"><ele>405.6</ele><time>2026-05-03T13:35:47.919Z</time></trkpt><trkpt lat="45.40686709957169" lon="7.75468264074163"><ele>406.0</ele><time>2026-05-03T13:35:48.919Z</time></trkpt><trkpt lat="45.40691008648466" lon="7.754533849795185"><ele>406.0</ele><time>2026-05-03T13:35:49.919Z</time></trkpt><trkpt lat="45.40694831446348" lon="7.754379459251645"><ele>406.0</ele><time>2026-05-03T13:35:50.919Z</time></trkpt><trkpt lat="45.406984912867976" lon="7.754222888153345"><ele>406.0</ele><time>2026-05-03T13:35:51.919Z</time></trkpt><trkpt lat="45.40701713446728" lon="7.75406789324582"><ele>406.0</ele><time>2026-05-03T13:35:52.919Z</time></trkpt><trkpt lat="45.40705345882839" lon="7.753910904405622"><ele>405.4</ele><time>2026-05-03T13:35:53.919Z</time></trkpt><trkpt lat="45.40708349610588" lon="7.753769150966046"><ele>404.8</ele><time>2026-05-03T13:35:54.919Z</time></trkpt><trkpt lat="45.40711223700984" lon="7.7536200471017285"><ele>404.2</ele><time>2026-05-03T13:35:55.919Z</time></trkpt><trkpt lat="45.407140890289554" lon="7.753487138944923"><ele>403.59999999999997</ele><time>2026-05-03T13:35:56.919Z</time></trkpt><trkpt lat="45.40716644672226" lon="7.753362469911045"><ele>403.0</ele><time>2026-05-03T13:35:57.919Z</time></trkpt><trkpt lat="45.40718964149858" lon="7.753251618410035"><ele>401.83333333333337</ele><time>2026-05-03T13:35:58.919Z</time></trkpt><trkpt lat="45.40721124303754" lon="7.753126554087838"><ele>400.6666666666667</ele><time>2026-05-03T13:36:00.919Z</time></trkpt><trkpt lat="45.40719821097008" lon="7.75301309207838"><ele>399.5</ele><time>2026-05-03T13:36:04.919Z</time></trkpt><trkpt lat="45.407230207433074" lon="7.752907266679556"><ele>398.33333333333337</ele><time>2026-05-03T13:36:06.919Z</time></trkpt><trkpt lat="45.40731278510632" lon="7.752819184305976"><ele>397.1666666666667</ele><time>2026-05-03T13:36:08.919Z</time></trkpt><trkpt lat="45.407395135294365" lon="7.752844899112797"><ele>396.0</ele><time>2026-05-03T13:36:10.919Z</time></trkpt><trkpt lat="45.4074777328739" lon="7.752840879594872"><ele>396.0</ele><time>2026-05-03T13:36:12.919Z</time></trkpt><trkpt lat="45.40753713816413" lon="7.752747385669666"><ele>396.0</ele><time>2026-05-03T13:36:14.919Z</time></trkpt><trkpt lat="45.407526605211956" lon="7.75265576183656"><ele>396.0</ele><time>2026-05-03T13:36:15.919Z</time></trkpt><trkpt lat="45.40753244822506" lon="7.752542903648508"><ele>396.0</ele><time>2026-05-03T13:36:16.919Z</time></trkpt><trkpt lat="45.40753061632016" lon="7.7524101929638665"><ele>396.0</ele><time>2026-05-03T13:36:17.919Z</time></trkpt><trkpt lat="45.40752088353611" lon="7.75226416935985"><ele>396.0</ele><time>2026-05-03T13:36:18.919Z</time></trkpt><trkpt lat="45.4075210582981" lon="7.752116811129718"><ele>396.6666666666667</ele><time>2026-05-03T13:36:19.919Z</time></trkpt><trkpt lat="45.40753423833055" lon="7.7520160541236365"><ele>397.33333333333337</ele><time>2026-05-03T13:36:20.919Z</time></trkpt><trkpt lat="45.40757040592309" lon="7.751928407352902"><ele>398.0</ele><time>2026-05-03T13:36:21.919Z</time></trkpt><trkpt lat="45.40763319198855" lon="7.751856336596031"><ele>398.6666666666667</ele><time>2026-05-03T13:36:22.919Z</time></trkpt><trkpt lat="45.40770969223172" lon="7.751805426634591"><ele>399.33333333333337</ele><time>2026-05-03T13:36:23.919Z</time></trkpt><trkpt lat="45.40778626401149" lon="7.751728574656703"><ele>400.0</ele><time>2026-05-03T13:36:24.919Z</time></trkpt><trkpt lat="45.407828609203634" lon="7.751643348759425"><ele>401.4</ele><time>2026-05-03T13:36:25.919Z</time></trkpt><trkpt lat="45.407879263504896" lon="7.751556377347667"><ele>402.8</ele><time>2026-05-03T13:36:26.919Z</time></trkpt><trkpt lat="45.407974640003765" lon="7.751469134663264"><ele>404.20000000000005</ele><time>2026-05-03T13:36:28.919Z</time></trkpt><trkpt lat="45.408044748801466" lon="7.751467933481237"><ele>405.6</ele><time>2026-05-03T13:36:29.919Z</time></trkpt><trkpt lat="45.40817834561003" lon="7.751456474551719"><ele>407.0</ele><time>2026-05-03T13:36:31.919Z</time></trkpt><trkpt lat="45.408254579762" lon="7.751456519113197"><ele>407.0</ele><time>2026-05-03T13:36:32.919Z</time></trkpt><trkpt lat="45.40835395684377" lon="7.751455049157706"><ele>407.0</ele><time>2026-05-03T13:36:34.919Z</time></trkpt><trkpt lat="45.40840740077567" lon="7.751407249759655"><ele>407.0</ele><time>2026-05-03T13:36:36.919Z</time></trkpt><trkpt lat="45.408451224926125" lon="7.751336710470722"><ele>407.0</ele><time>2026-05-03T13:36:38.919Z</time></trkpt><trkpt lat="45.408492398571994" lon="7.751202595808958"><ele>407.0</ele><time>2026-05-03T13:36:40.917Z</time></trkpt><trkpt lat="45.40852613604317" lon="7.75103168730269"><ele>408.8</ele><time>2026-05-03T13:36:42.916Z</time></trkpt><trkpt lat="45.40851497370044" lon="7.750939254938314"><ele>410.6</ele><time>2026-05-03T13:36:43.916Z</time></trkpt><trkpt lat="45.40852145760586" lon="7.750780075478589"><ele>412.40000000000003</ele><time>2026-05-03T13:36:45.917Z</time></trkpt><trkpt lat="45.40851131340809" lon="7.750652704912609"><ele>414.20000000000005</ele><time>2026-05-03T13:36:47.916Z</time></trkpt><trkpt lat="45.40850398504556" lon="7.750517661259846"><ele>416.0</ele><time>2026-05-03T13:36:49.917Z</time></trkpt><trkpt lat="45.40846187391306" lon="7.7504022880794246"><ele>415.99999999999994</ele><time>2026-05-03T13:36:51.916Z</time></trkpt><trkpt lat="45.4084472194499" lon="7.750277935484654"><ele>416.0</ele><time>2026-05-03T13:36:53.917Z</time></trkpt><trkpt lat="45.40846646841405" lon="7.75018942076245"><ele>416.0</ele><time>2026-05-03T13:36:57.917Z</time></trkpt><trkpt lat="45.40851710934143" lon="7.750128168010226"><ele>416.0</ele><time>2026-05-03T13:37:03.917Z</time></trkpt><trkpt lat="45.408568519675526" lon="7.7500548308837205"><ele>415.99999999999994</ele><time>2026-05-03T13:37:11.917Z</time></trkpt><trkpt lat="45.40866712955717" lon="7.749992576907776"><ele>416.0</ele><time>2026-05-03T13:37:15.917Z</time></trkpt><trkpt lat="45.40874590979565" lon="7.749920482197397"><ele>414.99999999999994</ele><time>2026-05-03T13:37:17.917Z</time></trkpt><trkpt lat="45.408808958141314" lon="7.749885036019969"><ele>414.0</ele><time>2026-05-03T13:37:18.917Z</time></trkpt><trkpt lat="45.40886999821985" lon="7.749813854835558"><ele>413.0</ele><time>2026-05-03T13:37:19.917Z</time></trkpt><trkpt lat="45.40895184074604" lon="7.749718814807044"><ele>412.0</ele><time>2026-05-03T13:37:20.917Z</time></trkpt><trkpt lat="45.40901231316808" lon="7.749650426993209"><ele>410.99999999999994</ele><time>2026-05-03T13:37:21.917Z</time></trkpt><trkpt lat="45.4090543373756" lon="7.749503828395859"><ele>410.0</ele><time>2026-05-03T13:37:23.917Z</time></trkpt><trkpt lat="45.409138570070645" lon="7.749356099676584"><ele>413.8</ele><time>2026-05-03T13:37:25.917Z</time></trkpt><trkpt lat="45.40926752053449" lon="7.749295263517745"><ele>417.6</ele><time>2026-05-03T13:37:27.917Z</time></trkpt><trkpt lat="45.409354830952545" lon="7.749275704135559"><ele>421.4</ele><time>2026-05-03T13:37:28.917Z</time></trkpt><trkpt lat="45.40944035272185" lon="7.749281524686538"><ele>425.2</ele><time>2026-05-03T13:37:29.917Z</time></trkpt><trkpt lat="45.40950616889944" lon="7.749261935013131"><ele>429.0</ele><time>2026-05-03T13:37:30.917Z</time></trkpt><trkpt lat="45.409595795700675" lon="7.749114567140481"><ele>429.0</ele><time>2026-05-03T13:37:32.917Z</time></trkpt><trkpt lat="45.40962143888325" lon="7.749015350839697"><ele>429.0</ele><time>2026-05-03T13:37:33.917Z</time></trkpt><trkpt lat="45.40963744833077" lon="7.7488799922717275"><ele>429.0</ele><time>2026-05-03T13:37:35.917Z</time></trkpt><trkpt lat="45.40967232566294" lon="7.748793984042598"><ele>429.0</ele><time>2026-05-03T13:37:38.917Z</time></trkpt><trkpt lat="45.409697001028285" lon="7.7486970654854455"><ele>429.0</ele><time>2026-05-03T13:37:42.917Z</time></trkpt><trkpt lat="45.40967915246868" lon="7.748596649845694"><ele>429.0</ele><time>2026-05-03T13:37:44.917Z</time></trkpt><trkpt lat="45.40963875715566" lon="7.748471322388238"><ele>428.8333333333333</ele><time>2026-05-03T13:37:46.917Z</time></trkpt><trkpt lat="45.40962833660727" lon="7.748361278305928"><ele>428.66666666666663</ele><time>2026-05-03T13:37:47.917Z</time></trkpt><trkpt lat="45.40964141072732" lon="7.748221780030205"><ele>428.5</ele><time>2026-05-03T13:37:48.917Z</time></trkpt><trkpt lat="45.40964388642793" lon="7.748072728850148"><ele>428.3333333333333</ele><time>2026-05-03T13:37:49.917Z</time></trkpt><trkpt lat="45.40965741718147" lon="7.747963324251383"><ele>428.16666666666663</ele><time>2026-05-03T13:37:50.917Z</time></trkpt><trkpt lat="45.40971686500421" lon="7.7479288658801515"><ele>428.0</ele><time>2026-05-03T13:37:56.917Z</time></trkpt><trkpt lat="45.40978108644879" lon="7.7479445829977305"><ele>428.0</ele><time>2026-05-03T13:37:57.917Z</time></trkpt><trkpt lat="45.40985402278255" lon="7.747962727386131"><ele>427.99999999999994</ele><time>2026-05-03T13:37:58.917Z</time></trkpt><trkpt lat="45.40994751621691" lon="7.747993082552365"><ele>427.99999999999994</ele><time>2026-05-03T13:37:59.917Z</time></trkpt><trkpt lat="45.41006319433368" lon="7.748040540663441"><ele>428.0</ele><time>2026-05-03T13:38:00.917Z</time></trkpt><trkpt lat="45.41015077553238" lon="7.748003773815945"><ele>428.0</ele><time>2026-05-03T13:38:02.917Z</time></trkpt><trkpt lat="45.41022167477108" lon="7.747911504980409"><ele>427.99999999999994</ele><time>2026-05-03T13:38:04.917Z</time></trkpt><trkpt lat="45.41032053255073" lon="7.747828485582984"><ele>428.0</ele><time>2026-05-03T13:38:06.917Z</time></trkpt><trkpt lat="45.410382467199156" lon="7.747803366895717"><ele>428.0</ele><time>2026-05-03T13:38:09.917Z</time></trkpt><trkpt lat="45.41047082424535" lon="7.747769022123369"><ele>428.0</ele><time>2026-05-03T13:38:11.917Z</time></trkpt><trkpt lat="45.41054658715489" lon="7.747694938931928"><ele>427.99999999999994</ele><time>2026-05-03T13:38:13.917Z</time></trkpt><trkpt lat="45.410605739340674" lon="7.7476361405197895"><ele>428.0</ele><time>2026-05-03T13:38:15.917Z</time></trkpt><trkpt lat="45.41066993529276" lon="7.747629950889582"><ele>427.99999999999994</ele><time>2026-05-03T13:38:20.917Z</time></trkpt><trkpt lat="45.41073907979655" lon="7.747684550148637"><ele>428.0</ele><time>2026-05-03T13:38:39.918Z</time></trkpt><trkpt lat="45.41072759129374" lon="7.747792936126752"><ele>428.0</ele><time>2026-05-03T13:38:45.915Z</time></trkpt><trkpt lat="45.41069233788406" lon="7.747877860829084"><ele>428.0</ele><time>2026-05-03T13:38:47.914Z</time></trkpt><trkpt lat="45.41061924000315" lon="7.747921547160102"><ele>427.99999999999994</ele><time>2026-05-03T13:38:49.915Z</time></trkpt><trkpt lat="45.41051898723564" lon="7.747985671428402"><ele>428.0</ele><time>2026-05-03T13:38:51.915Z</time></trkpt><trkpt lat="45.4104625351459" lon="7.7480517347883655"><ele>426.59999999999997</ele><time>2026-05-03T13:38:59.914Z</time></trkpt><trkpt lat="45.410533581530906" lon="7.748101111535584"><ele>425.19999999999993</ele><time>2026-05-03T13:39:11.914Z</time></trkpt><trkpt lat="45.410618993193545" lon="7.748102160689502"><ele>423.8</ele><time>2026-05-03T13:39:13.914Z</time></trkpt><trkpt lat="45.410732690663764" lon="7.7480944040712805"><ele>422.4</ele><time>2026-05-03T13:39:15.914Z</time></trkpt><trkpt lat="45.41087274462229" lon="7.7480972905078875"><ele>421.0</ele><time>2026-05-03T13:39:17.915Z</time></trkpt><trkpt lat="45.41096584853098" lon="7.748227335151777"><ele>421.00000000000006</ele><time>2026-05-03T13:39:20.915Z</time></trkpt><trkpt lat="45.41100965983036" lon="7.748296621985901"><ele>421.0</ele><time>2026-05-03T13:39:21.915Z</time></trkpt><trkpt lat="45.41109568961564" lon="7.748367489957785"><ele>421.0</ele><time>2026-05-03T13:39:23.915Z</time></trkpt><trkpt lat="45.41113169459494" lon="7.748485738361894"><ele>421.0</ele><time>2026-05-03T13:39:25.915Z</time></trkpt><trkpt lat="45.411174772308684" lon="7.748599855743214"><ele>421.00000000000006</ele><time>2026-05-03T13:39:27.915Z</time></trkpt><trkpt lat="45.41117185453386" lon="7.748707546144811"><ele>421.0</ele><time>2026-05-03T13:39:29.915Z</time></trkpt><trkpt lat="45.411228007924294" lon="7.748760647130912"><ele>419.4</ele><time>2026-05-03T13:39:31.915Z</time></trkpt><trkpt lat="45.41130888672187" lon="7.748740813005061"><ele>417.8</ele><time>2026-05-03T13:39:33.915Z</time></trkpt><trkpt lat="45.411446196870145" lon="7.748724058963592"><ele>416.2</ele><time>2026-05-03T13:39:35.915Z</time></trkpt><trkpt lat="45.41151920580985" lon="7.748691841581278"><ele>414.59999999999997</ele><time>2026-05-03T13:39:36.915Z</time></trkpt><trkpt lat="45.41159775916522" lon="7.748661059381549"><ele>413.0</ele><time>2026-05-03T13:39:37.915Z</time></trkpt><trkpt lat="45.411672424809254" lon="7.748657825283599"><ele>412.16666666666663</ele><time>2026-05-03T13:39:38.915Z</time></trkpt><trkpt lat="45.41172904234597" lon="7.748697404182574"><ele>411.3333333333333</ele><time>2026-05-03T13:39:39.915Z</time></trkpt><trkpt lat="45.41173159032212" lon="7.748805537739679"><ele>410.5</ele><time>2026-05-03T13:39:41.915Z</time></trkpt><trkpt lat="45.41176157461584" lon="7.748898702564932"><ele>409.66666666666663</ele><time>2026-05-03T13:39:43.915Z</time></trkpt><trkpt lat="45.41186478081867" lon="7.748972643991875"><ele>408.8333333333333</ele><time>2026-05-03T13:39:45.915Z</time></trkpt><trkpt lat="45.41196644934313" lon="7.749066052925385"><ele>408.0</ele><time>2026-05-03T13:39:47.915Z</time></trkpt><trkpt lat="45.4120487346293" lon="7.749135833904445"><ele>408.0</ele><time>2026-05-03T13:39:48.915Z</time></trkpt><trkpt lat="45.412142569671445" lon="7.7492169678186835"><ele>408.0</ele><time>2026-05-03T13:39:49.915Z</time></trkpt><trkpt lat="45.41223002202434" lon="7.74926582910995"><ele>408.0</ele><time>2026-05-03T13:39:50.915Z</time></trkpt><trkpt lat="45.41230007306158" lon="7.749309493181054"><ele>408.0</ele><time>2026-05-03T13:39:51.915Z</time></trkpt><trkpt lat="45.41237698640857" lon="7.749397269639547"><ele>408.0</ele><time>2026-05-03T13:39:54.915Z</time></trkpt><trkpt lat="45.41244589967366" lon="7.74950639376075"><ele>406.1666666666667</ele><time>2026-05-03T13:39:56.915Z</time></trkpt><trkpt lat="45.412502398372375" lon="7.749650499701772"><ele>404.33333333333337</ele><time>2026-05-03T13:39:58.915Z</time></trkpt><trkpt lat="45.41250440424891" lon="7.749763223165201"><ele>402.5</ele><time>2026-05-03T13:40:00.915Z</time></trkpt><trkpt lat="45.41245545002478" lon="7.7498702331638185"><ele>400.6666666666667</ele><time>2026-05-03T13:40:02.915Z</time></trkpt><trkpt lat="45.412490742575685" lon="7.749965493791181"><ele>398.83333333333337</ele><time>2026-05-03T13:40:06.915Z</time></trkpt><trkpt lat="45.41251227157731" lon="7.750054688747089"><ele>397.0</ele><time>2026-05-03T13:40:13.915Z</time></trkpt><trkpt lat="45.41255163202714" lon="7.7501292142063924"><ele>397.0</ele><time>2026-05-03T13:40:32.915Z</time></trkpt><trkpt lat="45.41263510728551" lon="7.750101533420852"><ele>397.0</ele><time>2026-05-03T13:40:34.915Z</time></trkpt><trkpt lat="45.41270734839928" lon="7.750082100971867"><ele>397.0</ele><time>2026-05-03T13:40:35.915Z</time></trkpt><trkpt lat="45.41280669583191" lon="7.7500556971170464"><ele>397.0</ele><time>2026-05-03T13:40:36.915Z</time></trkpt><trkpt lat="45.41289404549322" lon="7.750056789365989"><ele>397.0</ele><time>2026-05-03T13:40:37.915Z</time></trkpt><trkpt lat="45.41299812575778" lon="7.750097484411754"><ele>396.0</ele><time>2026-05-03T13:40:39.915Z</time></trkpt><trkpt lat="45.41307964598212" lon="7.750176895193069"><ele>395.0</ele><time>2026-05-03T13:40:41.915Z</time></trkpt><trkpt lat="45.413158173273025" lon="7.750229704692398"><ele>394.0</ele><time>2026-05-03T13:40:42.915Z</time></trkpt><trkpt lat="45.41322428002531" lon="7.750304805812257"><ele>393.0</ele><time>2026-05-03T13:40:43.915Z</time></trkpt><trkpt lat="45.41330643668029" lon="7.750394724968447"><ele>392.0</ele><time>2026-05-03T13:40:44.915Z</time></trkpt><trkpt lat="45.41338861659943" lon="7.750506625623582"><ele>392.0</ele><time>2026-05-03T13:40:45.915Z</time></trkpt><trkpt lat="45.41347104145557" lon="7.75062375188212"><ele>392.0</ele><time>2026-05-03T13:40:46.915Z</time></trkpt><trkpt lat="45.41355262572684" lon="7.750717652783607"><ele>392.0</ele><time>2026-05-03T13:40:47.915Z</time></trkpt><trkpt lat="45.413640230491865" lon="7.750745204897832"><ele>392.0</ele><time>2026-05-03T13:40:48.915Z</time></trkpt><trkpt lat="45.413737774978614" lon="7.750784583421996"><ele>392.0</ele><time>2026-05-03T13:40:49.915Z</time></trkpt><trkpt lat="45.413816491661336" lon="7.750797409164662"><ele>394.49999999999994</ele><time>2026-05-03T13:40:50.915Z</time></trkpt><trkpt lat="45.41389286636918" lon="7.750790683445521"><ele>397.0</ele><time>2026-05-03T13:40:51.913Z</time></trkpt><trkpt lat="45.4139591490465" lon="7.750748712034513"><ele>399.5</ele><time>2026-05-03T13:40:52.913Z</time></trkpt><trkpt lat="45.414023619686894" lon="7.750772008648234"><ele>402.0</ele><time>2026-05-03T13:40:53.913Z</time></trkpt><trkpt lat="45.41409100363731" lon="7.750810828541827"><ele>404.49999999999994</ele><time>2026-05-03T13:40:54.912Z</time></trkpt><trkpt lat="45.41416727373481" lon="7.750880752032019"><ele>407.0</ele><time>2026-05-03T13:40:55.912Z</time></trkpt><trkpt lat="45.414253287738504" lon="7.750988599159593"><ele>406.75</ele><time>2026-05-03T13:40:56.912Z</time></trkpt><trkpt lat="45.41436295801761" lon="7.751104640996118"><ele>406.5</ele><time>2026-05-03T13:40:57.913Z</time></trkpt><trkpt lat="45.41448862676625" lon="7.751210492743014"><ele>406.25</ele><time>2026-05-03T13:40:58.913Z</time></trkpt><trkpt lat="45.41458769572591" lon="7.751321150532486"><ele>406.0</ele><time>2026-05-03T13:40:59.913Z</time></trkpt><trkpt lat="45.41467971044672" lon="7.751432939512551"><ele>406.0</ele><time>2026-05-03T13:41:00.913Z</time></trkpt><trkpt lat="45.414760454008885" lon="7.751519487968313"><ele>406.0</ele><time>2026-05-03T13:41:01.913Z</time></trkpt><trkpt lat="45.41485185837037" lon="7.751587220818341"><ele>406.0</ele><time>2026-05-03T13:41:02.913Z</time></trkpt><trkpt lat="45.41494223833383" lon="7.751635821818483"><ele>406.0</ele><time>2026-05-03T13:41:03.912Z</time></trkpt><trkpt lat="45.41502407576333" lon="7.751660294614407"><ele>406.0</ele><time>2026-05-03T13:41:04.912Z</time></trkpt><trkpt lat="45.415098654138035" lon="7.751651093522111"><ele>406.0</ele><time>2026-05-03T13:41:05.912Z</time></trkpt><trkpt lat="45.41517758926443" lon="7.751625871101453"><ele>406.0</ele><time>2026-05-03T13:41:06.912Z</time></trkpt><trkpt lat="45.41527104557849" lon="7.75156132348058"><ele>406.0</ele><time>2026-05-03T13:41:07.912Z</time></trkpt><trkpt lat="45.41540828476457" lon="7.751539957367175"><ele>406.0</ele><time>2026-05-03T13:41:08.912Z</time></trkpt><trkpt lat="45.41556960011484" lon="7.751532969859021"><ele>406.0</ele><time>2026-05-03T13:41:09.912Z</time></trkpt><trkpt lat="45.415693381855284" lon="7.751543996615967"><ele>406.0</ele><time>2026-05-03T13:41:10.912Z</time></trkpt><trkpt lat="45.4158114033716" lon="7.751600353105362"><ele>406.0</ele><time>2026-05-03T13:41:11.912Z</time></trkpt><trkpt lat="45.41591446393099" lon="7.751665945734221"><ele>406.0</ele><time>2026-05-03T13:41:12.912Z</time></trkpt><trkpt lat="45.41602254546231" lon="7.7517564481906"><ele>406.0</ele><time>2026-05-03T13:41:13.912Z</time></trkpt><trkpt lat="45.416121718065476" lon="7.75180948345585"><ele>406.0</ele><time>2026-05-03T13:41:14.912Z</time></trkpt><trkpt lat="45.416225452307515" lon="7.75180959516922"><ele>406.0</ele><time>2026-05-03T13:41:15.912Z</time></trkpt><trkpt lat="45.41630168080816" lon="7.751773102052022"><ele>406.0</ele><time>2026-05-03T13:41:16.912Z</time></trkpt><trkpt lat="45.41637018808724" lon="7.7516998557973285"><ele>406.0</ele><time>2026-05-03T13:41:17.912Z</time></trkpt><trkpt lat="45.41643185909001" lon="7.751613946261432"><ele>407.8</ele><time>2026-05-03T13:41:18.912Z</time></trkpt><trkpt lat="45.41652924753849" lon="7.751643227945749"><ele>409.6</ele><time>2026-05-03T13:41:19.912Z</time></trkpt><trkpt lat="45.416633995117095" lon="7.751532498756295"><ele>411.4</ele><time>2026-05-03T13:41:21.912Z</time></trkpt><trkpt lat="45.41671153307173" lon="7.751487537426181"><ele>413.2</ele><time>2026-05-03T13:41:22.912Z</time></trkpt><trkpt lat="45.41678280790739" lon="7.7514170250996095"><ele>415.0</ele><time>2026-05-03T13:41:23.912Z</time></trkpt><trkpt lat="45.41687229091742" lon="7.751349707788066"><ele>415.0</ele><time>2026-05-03T13:41:24.912Z</time></trkpt><trkpt lat="45.41694038342281" lon="7.7512925931653305"><ele>415.0</ele><time>2026-05-03T13:41:25.912Z</time></trkpt><trkpt lat="45.41700980738441" lon="7.751239098246133"><ele>415.0</ele><time>2026-05-03T13:41:26.912Z</time></trkpt><trkpt lat="45.41706716795333" lon="7.751192201635894"><ele>415.0</ele><time>2026-05-03T13:41:27.912Z</time></trkpt><trkpt lat="45.41718516176613" lon="7.751128803459464"><ele>415.0</ele><time>2026-05-03T13:41:29.912Z</time></trkpt><trkpt lat="45.41730523921605" lon="7.751078102901617"><ele>415.33333333333337</ele><time>2026-05-03T13:41:31.912Z</time></trkpt><trkpt lat="45.41740636770877" lon="7.751044920427629"><ele>415.6666666666667</ele><time>2026-05-03T13:41:33.912Z</time></trkpt><trkpt lat="45.417520373862104" lon="7.7510258143956765"><ele>416.0</ele><time>2026-05-03T13:41:35.912Z</time></trkpt><trkpt lat="45.41759070114327" lon="7.751010753151807"><ele>416.33333333333337</ele><time>2026-05-03T13:41:36.912Z</time></trkpt><trkpt lat="45.41766253514003" lon="7.751000161838388"><ele>416.6666666666667</ele><time>2026-05-03T13:41:37.912Z</time></trkpt><trkpt lat="45.41774292213269" lon="7.75099162851167"><ele>417.0</ele><time>2026-05-03T13:41:38.912Z</time></trkpt><trkpt lat="45.41783011939662" lon="7.750985112421659"><ele>417.0</ele><time>2026-05-03T13:41:39.912Z</time></trkpt><trkpt lat="45.417911681648896" lon="7.7509705424397435"><ele>417.0</ele><time>2026-05-03T13:41:40.912Z</time></trkpt><trkpt lat="45.41798936840272" lon="7.750969415885173"><ele>417.0</ele><time>2026-05-03T13:41:41.912Z</time></trkpt><trkpt lat="45.418067345521" lon="7.7509766636246376"><ele>417.0</ele><time>2026-05-03T13:41:42.912Z</time></trkpt><trkpt lat="45.41815229827159" lon="7.7509815175845365"><ele>417.0</ele><time>2026-05-03T13:41:43.912Z</time></trkpt><trkpt lat="45.41823433811055" lon="7.750994563990698"><ele>417.0</ele><time>2026-05-03T13:41:44.912Z</time></trkpt><trkpt lat="45.4183168567842" lon="7.751011226539914"><ele>417.40000000000003</ele><time>2026-05-03T13:41:45.912Z</time></trkpt><trkpt lat="45.41841676763995" lon="7.751030569053294"><ele>417.8</ele><time>2026-05-03T13:41:46.912Z</time></trkpt><trkpt lat="45.41851936933648" lon="7.751053317404323"><ele>418.2</ele><time>2026-05-03T13:41:47.912Z</time></trkpt><trkpt lat="45.418614428812205" lon="7.751076333345993"><ele>418.6</ele><time>2026-05-03T13:41:48.912Z</time></trkpt><trkpt lat="45.418707685648855" lon="7.751098476198357"><ele>419.0</ele><time>2026-05-03T13:41:49.912Z</time></trkpt><trkpt lat="45.41878979109237" lon="7.751158720971231"><ele>417.6</ele><time>2026-05-03T13:41:50.912Z</time></trkpt><trkpt lat="45.418884512311045" lon="7.7511965740912325"><ele>416.2</ele><time>2026-05-03T13:41:51.912Z</time></trkpt><trkpt lat="45.418969684991495" lon="7.751294433708043"><ele>414.8</ele><time>2026-05-03T13:41:52.912Z</time></trkpt><trkpt lat="45.41904579031836" lon="7.751409234173229"><ele>413.40000000000003</ele><time>2026-05-03T13:41:53.912Z</time></trkpt><trkpt lat="45.419114901038185" lon="7.751511407036735"><ele>412.0</ele><time>2026-05-03T13:41:54.912Z</time></trkpt><trkpt lat="45.41920833816326" lon="7.751589134480245"><ele>412.0</ele><time>2026-05-03T13:41:55.912Z</time></trkpt><trkpt lat="45.419299766715696" lon="7.751653031650206"><ele>412.0</ele><time>2026-05-03T13:41:56.912Z</time></trkpt><trkpt lat="45.41939936260602" lon="7.75168210810549"><ele>412.0</ele><time>2026-05-03T13:41:57.912Z</time></trkpt><trkpt lat="45.41950800384042" lon="7.751703270833709"><ele>412.0</ele><time>2026-05-03T13:41:58.912Z</time></trkpt><trkpt lat="45.41959824971604" lon="7.751713971585318"><ele>412.0</ele><time>2026-05-03T13:41:59.912Z</time></trkpt><trkpt lat="45.41968450127116" lon="7.7517130342670955"><ele>414.50000000000006</ele><time>2026-05-03T13:42:00.912Z</time></trkpt><trkpt lat="45.41976011408129" lon="7.75168612441234"><ele>417.0</ele><time>2026-05-03T13:42:01.912Z</time></trkpt><trkpt lat="45.41982978822632" lon="7.751635793353889"><ele>419.5</ele><time>2026-05-03T13:42:02.912Z</time></trkpt><trkpt lat="45.41990905061124" lon="7.751547396587305"><ele>422.0</ele><time>2026-05-03T13:42:03.912Z</time></trkpt><trkpt lat="45.41997163129456" lon="7.751457895941039"><ele>424.50000000000006</ele><time>2026-05-03T13:42:04.912Z</time></trkpt><trkpt lat="45.42003345404419" lon="7.751377820818799"><ele>427.0</ele><time>2026-05-03T13:42:05.912Z</time></trkpt><trkpt lat="45.42008716837009" lon="7.751298487755477"><ele>427.00000000000006</ele><time>2026-05-03T13:42:06.912Z</time></trkpt><trkpt lat="45.420115985701806" lon="7.751212643273698"><ele>427.0</ele><time>2026-05-03T13:42:07.912Z</time></trkpt><trkpt lat="45.42009090733017" lon="7.751090624369705"><ele>427.0</ele><time>2026-05-03T13:42:08.912Z</time></trkpt><trkpt lat="45.420018859660225" lon="7.751016608853597"><ele>427.0</ele><time>2026-05-03T13:42:09.912Z</time></trkpt><trkpt lat="45.42011347529549" lon="7.751109128409302"><ele>427.00000000000006</ele><time>2026-05-03T13:42:18.912Z</time></trkpt><trkpt lat="45.42015918685778" lon="7.751207412429641"><ele>427.0</ele><time>2026-05-03T13:42:19.912Z</time></trkpt><trkpt lat="45.4202293312764" lon="7.751313960163801"><ele>427.0</ele><time>2026-05-03T13:42:20.912Z</time></trkpt><trkpt lat="45.420300772084985" lon="7.7514145465803965"><ele>427.00000000000006</ele><time>2026-05-03T13:42:21.912Z</time></trkpt><trkpt lat="45.420381202246865" lon="7.751511203801464"><ele>427.00000000000006</ele><time>2026-05-03T13:42:22.912Z</time></trkpt><trkpt lat="45.420482347864436" lon="7.751582355866147"><ele>427.0</ele><time>2026-05-03T13:42:23.912Z</time></trkpt><trkpt lat="45.42059113986402" lon="7.751650344045253"><ele>427.0</ele><time>2026-05-03T13:42:24.912Z</time></trkpt><trkpt lat="45.42069747268957" lon="7.751734714567123"><ele>428.0</ele><time>2026-05-03T13:42:25.912Z</time></trkpt><trkpt lat="45.42079023320706" lon="7.751840652205796"><ele>429.0</ele><time>2026-05-03T13:42:26.912Z</time></trkpt><trkpt lat="45.42087683942416" lon="7.751963985502561"><ele>430.0</ele><time>2026-05-03T13:42:27.912Z</time></trkpt><trkpt lat="45.42095568535111" lon="7.752102889059216"><ele>431.0</ele><time>2026-05-03T13:42:28.912Z</time></trkpt><trkpt lat="45.42101082238013" lon="7.7522430746075415"><ele>431.0</ele><time>2026-05-03T13:42:29.912Z</time></trkpt><trkpt lat="45.42106266562168" lon="7.752375641083854"><ele>431.0</ele><time>2026-05-03T13:42:30.912Z</time></trkpt><trkpt lat="45.421140823595316" lon="7.752482276114481"><ele>431.0</ele><time>2026-05-03T13:42:31.912Z</time></trkpt><trkpt lat="45.42123887919416" lon="7.752571913837791"><ele>431.0</ele><time>2026-05-03T13:42:32.912Z</time></trkpt><trkpt lat="45.421349932319906" lon="7.752631180142033"><ele>435.0</ele><time>2026-05-03T13:42:33.912Z</time></trkpt><trkpt lat="45.42147171304205" lon="7.752668428908402"><ele>439.0</ele><time>2026-05-03T13:42:34.912Z</time></trkpt><trkpt lat="45.42158937739884" lon="7.752695199921432"><ele>443.0</ele><time>2026-05-03T13:42:35.912Z</time></trkpt><trkpt lat="45.42170807836337" lon="7.7527174963797"><ele>447.0</ele><time>2026-05-03T13:42:36.912Z</time></trkpt><trkpt lat="45.42182343283271" lon="7.75273698161745"><ele>442.0</ele><time>2026-05-03T13:42:37.912Z</time></trkpt><trkpt lat="45.42194638812523" lon="7.752770512925384"><ele>437.0</ele><time>2026-05-03T13:42:38.912Z</time></trkpt><trkpt lat="45.42207021393372" lon="7.752809950842113"><ele>432.0</ele><time>2026-05-03T13:42:39.912Z</time></trkpt><trkpt lat="45.422198892236636" lon="7.752843729529084"><ele>427.0</ele><time>2026-05-03T13:42:40.912Z</time></trkpt><trkpt lat="45.422328398816084" lon="7.7528688230643885"><ele>427.0</ele><time>2026-05-03T13:42:41.912Z</time></trkpt><trkpt lat="45.42245646441148" lon="7.752890907153382"><ele>427.0</ele><time>2026-05-03T13:42:42.912Z</time></trkpt><trkpt lat="45.422581216318704" lon="7.752937460521783"><ele>427.0</ele><time>2026-05-03T13:42:43.912Z</time></trkpt><trkpt lat="45.422711523952486" lon="7.7529680571604755"><ele>427.0</ele><time>2026-05-03T13:42:44.912Z</time></trkpt><trkpt lat="45.42284153371794" lon="7.752993129799904"><ele>427.0</ele><time>2026-05-03T13:42:45.912Z</time></trkpt><trkpt lat="45.42297451489102" lon="7.752996857929497"><ele>427.0</ele><time>2026-05-03T13:42:46.912Z</time></trkpt><trkpt lat="45.423094363230895" lon="7.752985825892153"><ele>427.0</ele><time>2026-05-03T13:42:47.912Z</time></trkpt><trkpt lat="45.42320438884497" lon="7.75296568709021"><ele>427.0</ele><time>2026-05-03T13:42:48.912Z</time></trkpt><trkpt lat="45.42330347095827" lon="7.753018544003007"><ele>425.20000000000005</ele><time>2026-05-03T13:42:49.912Z</time></trkpt><trkpt lat="45.423381904451844" lon="7.75310296386808"><ele>423.40000000000003</ele><time>2026-05-03T13:42:50.912Z</time></trkpt><trkpt lat="45.42342603005165" lon="7.7532458455753055"><ele>421.6</ele><time>2026-05-03T13:42:51.912Z</time></trkpt><trkpt lat="45.42347867125917" lon="7.753388611683457"><ele>419.79999999999995</ele><time>2026-05-03T13:42:52.912Z</time></trkpt><trkpt lat="45.42350507716386" lon="7.753549634659549"><ele>418.0</ele><time>2026-05-03T13:42:53.912Z</time></trkpt><trkpt lat="45.42352973615273" lon="7.753717019056763"><ele>418.0</ele><time>2026-05-03T13:42:54.912Z</time></trkpt><trkpt lat="45.423542199697465" lon="7.7538834360116375"><ele>418.0</ele><time>2026-05-03T13:42:55.912Z</time></trkpt><trkpt lat="45.42356848368008" lon="7.7540380173410375"><ele>418.0</ele><time>2026-05-03T13:42:56.912Z</time></trkpt><trkpt lat="45.42361046974806" lon="7.754165283987091"><ele>418.0</ele><time>2026-05-03T13:42:57.91Z</time></trkpt><trkpt lat="45.42367632446665" lon="7.754269258766971"><ele>418.0</ele><time>2026-05-03T13:42:58.91Z</time></trkpt><trkpt lat="45.42376638636079" lon="7.754348612118959"><ele>422.25</ele><time>2026-05-03T13:42:59.91Z</time></trkpt><trkpt lat="45.423870693294674" lon="7.754400192256471"><ele>426.5</ele><time>2026-05-03T13:43:00.911Z</time></trkpt><trkpt lat="45.42399067005163" lon="7.754441681940331"><ele>430.75</ele><time>2026-05-03T13:43:01.911Z</time></trkpt><trkpt lat="45.42411301732673" lon="7.754488902424979"><ele>435.0</ele><time>2026-05-03T13:43:02.911Z</time></trkpt><trkpt lat="45.424238241083536" lon="7.754536711137311"><ele>435.0</ele><time>2026-05-03T13:43:03.911Z</time></trkpt><trkpt lat="45.42435709444314" lon="7.754588506929268"><ele>435.0</ele><time>2026-05-03T13:43:04.91Z</time></trkpt><trkpt lat="45.424473027731224" lon="7.7546352403518455"><ele>435.0</ele><time>2026-05-03T13:43:05.91Z</time></trkpt><trkpt lat="45.42458882560746" lon="7.754680768301718"><ele>435.0</ele><time>2026-05-03T13:43:06.911Z</time></trkpt><trkpt lat="45.42470744761752" lon="7.75471754462758"><ele>437.75</ele><time>2026-05-03T13:43:07.911Z</time></trkpt><trkpt lat="45.424821457209674" lon="7.754741649583237"><ele>440.5</ele><time>2026-05-03T13:43:08.911Z</time></trkpt><trkpt lat="45.4249356893147" lon="7.75473889264804"><ele>443.25</ele><time>2026-05-03T13:43:09.911Z</time></trkpt><trkpt lat="45.425049308128514" lon="7.754719365697212"><ele>446.0</ele><time>2026-05-03T13:43:10.91Z</time></trkpt><trkpt lat="45.425159341152394" lon="7.7546591820658275"><ele>446.0</ele><time>2026-05-03T13:43:11.91Z</time></trkpt><trkpt lat="45.425267948718925" lon="7.754573689930468"><ele>446.0</ele><time>2026-05-03T13:43:12.91Z</time></trkpt><trkpt lat="45.425371834387555" lon="7.754464409259496"><ele>446.0</ele><time>2026-05-03T13:43:13.91Z</time></trkpt><trkpt lat="45.42546353184956" lon="7.754343896527208"><ele>446.0</ele><time>2026-05-03T13:43:14.91Z</time></trkpt><trkpt lat="45.42553788556383" lon="7.754194921554234"><ele>447.75</ele><time>2026-05-03T13:43:15.91Z</time></trkpt><trkpt lat="45.42560722783851" lon="7.754045101676927"><ele>449.5</ele><time>2026-05-03T13:43:16.91Z</time></trkpt><trkpt lat="45.425671182027315" lon="7.753891252114375"><ele>451.25</ele><time>2026-05-03T13:43:17.91Z</time></trkpt><trkpt lat="45.425744907934465" lon="7.753751805365587"><ele>453.0</ele><time>2026-05-03T13:43:18.91Z</time></trkpt><trkpt lat="45.42582799992984" lon="7.753634914739172"><ele>453.0</ele><time>2026-05-03T13:43:19.91Z</time></trkpt><trkpt lat="45.4259147971999" lon="7.753540487455738"><ele>452.99999999999994</ele><time>2026-05-03T13:43:20.91Z</time></trkpt><trkpt lat="45.426005578657175" lon="7.75346107853674"><ele>452.99999999999994</ele><time>2026-05-03T13:43:21.91Z</time></trkpt><trkpt lat="45.426095882412675" lon="7.75339173487564"><ele>453.0</ele><time>2026-05-03T13:43:22.91Z</time></trkpt><trkpt lat="45.42617952021227" lon="7.753320232109718"><ele>453.0</ele><time>2026-05-03T13:43:23.91Z</time></trkpt><trkpt lat="45.42625939507029" lon="7.753279358262026"><ele>453.75</ele><time>2026-05-03T13:43:24.91Z</time></trkpt><trkpt lat="45.42627349159343" lon="7.753087558403278"><ele>454.5</ele><time>2026-05-03T13:43:25.91Z</time></trkpt><trkpt lat="45.426298921546916" lon="7.752952233144977"><ele>455.25</ele><time>2026-05-03T13:43:26.91Z</time></trkpt><trkpt lat="45.42632676782882" lon="7.752808746819651"><ele>456.0</ele><time>2026-05-03T13:43:27.91Z</time></trkpt><trkpt lat="45.426355856100685" lon="7.752637564061569"><ele>458.4</ele><time>2026-05-03T13:43:28.91Z</time></trkpt><trkpt lat="45.426387089453435" lon="7.752492714943235"><ele>460.8</ele><time>2026-05-03T13:43:29.91Z</time></trkpt><trkpt lat="45.426422891272004" lon="7.752386643457837"><ele>463.19999999999993</ele><time>2026-05-03T13:43:30.91Z</time></trkpt><trkpt lat="45.42653019046171" lon="7.752341652341299"><ele>465.59999999999997</ele><time>2026-05-03T13:43:31.91Z</time></trkpt><trkpt lat="45.42662709472777" lon="7.752271483738772"><ele>468.0</ele><time>2026-05-03T13:43:32.91Z</time></trkpt><trkpt lat="45.42669424854393" lon="7.752155463015861"><ele>468.0</ele><time>2026-05-03T13:43:33.911Z</time></trkpt><trkpt lat="45.426769575983165" lon="7.752055604763909"><ele>467.99999999999994</ele><time>2026-05-03T13:43:34.911Z</time></trkpt><trkpt lat="45.42680535022678" lon="7.751964696725453"><ele>467.99999999999994</ele><time>2026-05-03T13:43:35.911Z</time></trkpt><trkpt lat="45.42684623255196" lon="7.751868700066922"><ele>468.0</ele><time>2026-05-03T13:43:36.911Z</time></trkpt><trkpt lat="45.42684125930079" lon="7.751760388113125"><ele>468.0</ele><time>2026-05-03T13:43:37.911Z</time></trkpt><trkpt lat="45.426978119683376" lon="7.751759014048985"><ele>469.59999999999997</ele><time>2026-05-03T13:43:38.911Z</time></trkpt><trkpt lat="45.42707179511557" lon="7.75169908772316"><ele>471.19999999999993</ele><time>2026-05-03T13:43:39.911Z</time></trkpt><trkpt lat="45.427180438526804" lon="7.751642293326522"><ele>472.8</ele><time>2026-05-03T13:43:40.911Z</time></trkpt><trkpt lat="45.42728912343248" lon="7.7515837817086535"><ele>474.4</ele><time>2026-05-03T13:43:41.911Z</time></trkpt><trkpt lat="45.427380112432886" lon="7.751519040079787"><ele>476.0</ele><time>2026-05-03T13:43:42.911Z</time></trkpt><trkpt lat="45.42745375504995" lon="7.751437807349778"><ele>476.0</ele><time>2026-05-03T13:43:43.911Z</time></trkpt><trkpt lat="45.42750539634691" lon="7.751317576877141"><ele>476.0</ele><time>2026-05-03T13:43:44.911Z</time></trkpt><trkpt lat="45.427535364140866" lon="7.75116661991646"><ele>476.0</ele><time>2026-05-03T13:43:45.911Z</time></trkpt><trkpt lat="45.42755945186571" lon="7.751035898967562"><ele>476.0</ele><time>2026-05-03T13:43:46.911Z</time></trkpt><trkpt lat="45.427592846188446" lon="7.7509231869683655"><ele>476.0</ele><time>2026-05-03T13:43:47.911Z</time></trkpt><trkpt lat="45.42764421471041" lon="7.750836023964479"><ele>476.0</ele><time>2026-05-03T13:43:49.911Z</time></trkpt><trkpt lat="45.42749776641379" lon="7.750810169009879"><ele>476.0</ele><time>2026-05-03T13:43:51.911Z</time></trkpt><trkpt lat="45.42745687374904" lon="7.750884785404622"><ele>476.0</ele><time>2026-05-03T13:48:18.932Z</time></trkpt><trkpt lat="45.42744437030155" lon="7.750997807383303"><ele>476.0</ele><time>2026-05-03T13:48:20.932Z</time></trkpt><trkpt lat="45.42741505068108" lon="7.751138890817964"><ele>476.0</ele><time>2026-05-03T13:48:22.932Z</time></trkpt><trkpt lat="45.42736087224984" lon="7.7511935345703415"><ele>476.0</ele><time>2026-05-03T13:48:23.932Z</time></trkpt><trkpt lat="45.42728912065351" lon="7.751209073312356"><ele>476.0</ele><time>2026-05-03T13:48:24.932Z</time></trkpt><trkpt lat="45.4272188996357" lon="7.751173798321993"><ele>476.0</ele><time>2026-05-03T13:48:25.932Z</time></trkpt><trkpt lat="45.42715332164711" lon="7.7511182798292"><ele>476.0</ele><time>2026-05-03T13:48:26.932Z</time></trkpt><trkpt lat="45.42708440191694" lon="7.751077583704903"><ele>476.0</ele><time>2026-05-03T13:48:27.932Z</time></trkpt><trkpt lat="45.42701125143592" lon="7.751030147324789"><ele>476.0</ele><time>2026-05-03T13:48:28.932Z</time></trkpt><trkpt lat="45.42695641827005" lon="7.750980069891403"><ele>476.0</ele><time>2026-05-03T13:48:29.932Z</time></trkpt><trkpt lat="45.4269574538853" lon="7.750879540690025"><ele>476.99999999999994</ele><time>2026-05-03T13:48:31.932Z</time></trkpt><trkpt lat="45.42705112442263" lon="7.750960672837688"><ele>478.0</ele><time>2026-05-03T13:48:33.932Z</time></trkpt><trkpt lat="45.42711241518802" lon="7.751005994029743"><ele>479.0</ele><time>2026-05-03T13:48:34.932Z</time></trkpt><trkpt lat="45.427188968481005" lon="7.7510025452600795"><ele>480.0</ele><time>2026-05-03T13:48:35.932Z</time></trkpt><trkpt lat="45.42726265036837" lon="7.7509963770216945"><ele>480.99999999999994</ele><time>2026-05-03T13:48:36.932Z</time></trkpt><trkpt lat="45.42731957539083" lon="7.75090890967752"><ele>482.0</ele><time>2026-05-03T13:48:37.932Z</time></trkpt><trkpt lat="45.42732288625614" lon="7.750775262771935"><ele>482.0</ele><time>2026-05-03T13:48:38.932Z</time></trkpt><trkpt lat="45.42731793248029" lon="7.750653938833383"><ele>482.00000000000006</ele><time>2026-05-03T13:48:39.932Z</time></trkpt><trkpt lat="45.427300079029166" lon="7.750518123181281"><ele>482.00000000000006</ele><time>2026-05-03T13:48:40.932Z</time></trkpt><trkpt lat="45.427263453331676" lon="7.750394141058318"><ele>482.0</ele><time>2026-05-03T13:48:41.932Z</time></trkpt><trkpt lat="45.42721106128923" lon="7.750270731351926"><ele>482.0</ele><time>2026-05-03T13:48:42.932Z</time></trkpt><trkpt lat="45.42714957983066" lon="7.75014825075964"><ele>484.20000000000005</ele><time>2026-05-03T13:48:43.932Z</time></trkpt><trkpt lat="45.42707736100306" lon="7.750036329498118"><ele>486.40000000000003</ele><time>2026-05-03T13:48:44.932Z</time></trkpt><trkpt lat="45.42699875084727" lon="7.749924124335681"><ele>488.59999999999997</ele><time>2026-05-03T13:48:45.932Z</time></trkpt><trkpt lat="45.42693619205628" lon="7.749809572064048"><ele>490.79999999999995</ele><time>2026-05-03T13:48:46.932Z</time></trkpt><trkpt lat="45.426887095788636" lon="7.749686210624604"><ele>493.0</ele><time>2026-05-03T13:48:47.932Z</time></trkpt><trkpt lat="45.42684822097797" lon="7.749555080077675"><ele>493.0</ele><time>2026-05-03T13:48:48.932Z</time></trkpt><trkpt lat="45.426804134189" lon="7.749442373573292"><ele>492.99999999999994</ele><time>2026-05-03T13:48:49.932Z</time></trkpt><trkpt lat="45.42674705816664" lon="7.749325538098598"><ele>492.99999999999994</ele><time>2026-05-03T13:48:50.932Z</time></trkpt><trkpt lat="45.42668625487893" lon="7.749215162262979"><ele>493.0</ele><time>2026-05-03T13:48:51.932Z</time></trkpt><trkpt lat="45.4266224154242" lon="7.749110144733679"><ele>493.0</ele><time>2026-05-03T13:48:52.932Z</time></trkpt><trkpt lat="45.42656912420276" lon="7.749002157424782"><ele>494.59999999999997</ele><time>2026-05-03T13:48:53.932Z</time></trkpt><trkpt lat="45.42649310769034" lon="7.748922912421325"><ele>496.19999999999993</ele><time>2026-05-03T13:48:54.932Z</time></trkpt><trkpt lat="45.42640774536415" lon="7.74889396416345"><ele>497.8</ele><time>2026-05-03T13:48:55.932Z</time></trkpt><trkpt lat="45.42631896709578" lon="7.748903909778758"><ele>499.4</ele><time>2026-05-03T13:48:56.932Z</time></trkpt><trkpt lat="45.42622847763657" lon="7.748951257726166"><ele>501.0</ele><time>2026-05-03T13:48:57.932Z</time></trkpt><trkpt lat="45.426132495714036" lon="7.748928370728968"><ele>501.0</ele><time>2026-05-03T13:48:58.932Z</time></trkpt><trkpt lat="45.42603316792285" lon="7.748877061666572"><ele>501.0</ele><time>2026-05-03T13:48:59.932Z</time></trkpt><trkpt lat="45.4259412524054" lon="7.748808832766574"><ele>501.0</ele><time>2026-05-03T13:49:00.932Z</time></trkpt><trkpt lat="45.42587897092076" lon="7.748717392519976"><ele>501.0</ele><time>2026-05-03T13:49:01.932Z</time></trkpt><trkpt lat="45.42585665179423" lon="7.748597581280914"><ele>501.0</ele><time>2026-05-03T13:49:02.932Z</time></trkpt><trkpt lat="45.42586613899228" lon="7.748466061412901"><ele>503.6</ele><time>2026-05-03T13:49:03.932Z</time></trkpt><trkpt lat="45.425867234247086" lon="7.748337105565301"><ele>506.20000000000005</ele><time>2026-05-03T13:49:04.932Z</time></trkpt><trkpt lat="45.4258407052287" lon="7.748231587330757"><ele>508.79999999999995</ele><time>2026-05-03T13:49:05.932Z</time></trkpt><trkpt lat="45.425788675227224" lon="7.7481323973550476"><ele>511.4</ele><time>2026-05-03T13:49:06.932Z</time></trkpt><trkpt lat="45.425725490270516" lon="7.748026564062949"><ele>514.0</ele><time>2026-05-03T13:49:07.932Z</time></trkpt><trkpt lat="45.42565144839085" lon="7.747914331413452"><ele>514.0</ele><time>2026-05-03T13:49:08.933Z</time></trkpt><trkpt lat="45.42557103863743" lon="7.747802955052675"><ele>514.0</ele><time>2026-05-03T13:49:09.933Z</time></trkpt><trkpt lat="45.42549709758558" lon="7.747676978112498"><ele>514.0</ele><time>2026-05-03T13:49:10.933Z</time></trkpt><trkpt lat="45.42542281518281" lon="7.747563944828251"><ele>514.0</ele><time>2026-05-03T13:49:11.933Z</time></trkpt><trkpt lat="45.42536090662123" lon="7.747457578340795"><ele>514.0</ele><time>2026-05-03T13:49:12.933Z</time></trkpt><trkpt lat="45.42530065510819" lon="7.747386124472915"><ele>516.0</ele><time>2026-05-03T13:49:13.933Z</time></trkpt><trkpt lat="45.425250880891454" lon="7.747319568131778"><ele>518.0</ele><time>2026-05-03T13:49:14.931Z</time></trkpt><trkpt lat="45.425186423594894" lon="7.747206024623881"><ele>520.0</ele><time>2026-05-03T13:49:16.931Z</time></trkpt><trkpt lat="45.4251397684659" lon="7.747127396978122"><ele>522.0</ele><time>2026-05-03T13:49:24.93Z</time></trkpt><trkpt lat="45.42508719479667" lon="7.746990179630598"><ele>524.0</ele><time>2026-05-03T13:49:26.931Z</time></trkpt><trkpt lat="45.4250606496265" lon="7.7468850164306895"><ele>526.0</ele><time>2026-05-03T13:49:27.93Z</time></trkpt><trkpt lat="45.425001478300885" lon="7.746809821932219"><ele>526.0</ele><time>2026-05-03T13:49:28.93Z</time></trkpt><trkpt lat="45.42503482007642" lon="7.746645256992991"><ele>526.0</ele><time>2026-05-03T13:49:29.93Z</time></trkpt><trkpt lat="45.42501752766889" lon="7.746510024338714"><ele>526.0</ele><time>2026-05-03T13:49:30.931Z</time></trkpt><trkpt lat="45.4249939476026" lon="7.746368800533395"><ele>526.0</ele><time>2026-05-03T13:49:31.931Z</time></trkpt><trkpt lat="45.4249717443077" lon="7.746218307882138"><ele>526.0</ele><time>2026-05-03T13:49:32.931Z</time></trkpt><trkpt lat="45.42495533473585" lon="7.746060766013173"><ele>525.6</ele><time>2026-05-03T13:49:33.931Z</time></trkpt><trkpt lat="45.424906596405584" lon="7.745904849957327"><ele>525.2</ele><time>2026-05-03T13:49:34.931Z</time></trkpt><trkpt lat="45.42487905417836" lon="7.745748668004314"><ele>524.8</ele><time>2026-05-03T13:49:35.931Z</time></trkpt><trkpt lat="45.424838617201836" lon="7.745602031791094"><ele>524.4</ele><time>2026-05-03T13:49:36.931Z</time></trkpt><trkpt lat="45.42482803376371" lon="7.745453601928829"><ele>524.0</ele><time>2026-05-03T13:49:37.931Z</time></trkpt><trkpt lat="45.4248242832999" lon="7.745315890687489"><ele>524.2</ele><time>2026-05-03T13:49:38.931Z</time></trkpt><trkpt lat="45.42483440029671" lon="7.745175691889014"><ele>524.4</ele><time>2026-05-03T13:49:39.931Z</time></trkpt><trkpt lat="45.42486653677659" lon="7.745059862468556"><ele>524.6</ele><time>2026-05-03T13:49:40.931Z</time></trkpt><trkpt lat="45.42491305835833" lon="7.744951056564699"><ele>524.8</ele><time>2026-05-03T13:49:41.931Z</time></trkpt><trkpt lat="45.42493924001083" lon="7.744835434327847"><ele>525.0</ele><time>2026-05-03T13:49:42.931Z</time></trkpt><trkpt lat="45.42494528692991" lon="7.744702422307984"><ele>525.0</ele><time>2026-05-03T13:49:43.931Z</time></trkpt><trkpt lat="45.42492214285539" lon="7.744561454259322"><ele>525.0</ele><time>2026-05-03T13:49:44.931Z</time></trkpt><trkpt lat="45.42489192922065" lon="7.744419179036975"><ele>525.0</ele><time>2026-05-03T13:49:45.931Z</time></trkpt><trkpt lat="45.42486715641723" lon="7.744288512155513"><ele>525.0</ele><time>2026-05-03T13:49:46.931Z</time></trkpt><trkpt lat="45.424844795824654" lon="7.744139860526585"><ele>525.0</ele><time>2026-05-03T13:49:47.931Z</time></trkpt><trkpt lat="45.42482352314508" lon="7.74400280310782"><ele>525.0</ele><time>2026-05-03T13:49:48.931Z</time></trkpt><trkpt lat="45.424812074857904" lon="7.7438505738101595"><ele>525.0</ele><time>2026-05-03T13:49:49.931Z</time></trkpt><trkpt lat="45.42479717102911" lon="7.743704150588205"><ele>525.0</ele><time>2026-05-03T13:49:50.931Z</time></trkpt><trkpt lat="45.42477845288142" lon="7.743576116458302"><ele>525.0</ele><time>2026-05-03T13:49:51.931Z</time></trkpt><trkpt lat="45.42473980375724" lon="7.743451937002153"><ele>525.0</ele><time>2026-05-03T13:49:52.931Z</time></trkpt><trkpt lat="45.424689741798915" lon="7.743325440860278"><ele>525.3333333333334</ele><time>2026-05-03T13:49:53.931Z</time></trkpt><trkpt lat="45.4246339032581" lon="7.743223469073268"><ele>525.6666666666666</ele><time>2026-05-03T13:49:54.931Z</time></trkpt><trkpt lat="45.42458889506428" lon="7.743139291022191"><ele>526.0</ele><time>2026-05-03T13:49:55.931Z</time></trkpt><trkpt lat="45.424667480685955" lon="7.743041579151134"><ele>526.3333333333333</ele><time>2026-05-03T13:49:58.931Z</time></trkpt><trkpt lat="45.424736402194604" lon="7.743021116521079"><ele>526.6666666666666</ele><time>2026-05-03T13:49:59.931Z</time></trkpt><trkpt lat="45.42481274781742" lon="7.743000504557572"><ele>527.0</ele><time>2026-05-03T13:50:00.931Z</time></trkpt><trkpt lat="45.42489423928699" lon="7.74296707380253"><ele>527.0</ele><time>2026-05-03T13:50:01.931Z</time></trkpt><trkpt lat="45.4249628642124" lon="7.742909351101883"><ele>527.0</ele><time>2026-05-03T13:50:02.931Z</time></trkpt><trkpt lat="45.42505071794446" lon="7.742896738461613"><ele>527.0</ele><time>2026-05-03T13:50:03.931Z</time></trkpt><trkpt lat="45.425134536178334" lon="7.742864597551984"><ele>527.0</ele><time>2026-05-03T13:50:04.931Z</time></trkpt><trkpt lat="45.425208466385726" lon="7.742836879653648"><ele>527.0</ele><time>2026-05-03T13:50:05.931Z</time></trkpt><trkpt lat="45.42527781425152" lon="7.742813416332401"><ele>527.0</ele><time>2026-05-03T13:50:06.931Z</time></trkpt><trkpt lat="45.42542358145805" lon="7.742789414549489"><ele>527.6666666666666</ele><time>2026-05-03T13:50:08.931Z</time></trkpt><trkpt lat="45.42550654500597" lon="7.742811911091311"><ele>528.3333333333333</ele><time>2026-05-03T13:50:09.931Z</time></trkpt><trkpt lat="45.42557445553585" lon="7.742822700997462"><ele>529.0</ele><time>2026-05-03T13:50:10.931Z</time></trkpt><trkpt lat="45.42562859271315" lon="7.742770981579277"><ele>529.6666666666666</ele><time>2026-05-03T13:50:12.931Z</time></trkpt><trkpt lat="45.425570345859676" lon="7.742664996782603"><ele>530.3333333333334</ele><time>2026-05-03T13:50:13.931Z</time></trkpt><trkpt lat="45.425462956350856" lon="7.742555891664517"><ele>531.0</ele><time>2026-05-03T13:50:15.931Z</time></trkpt><trkpt lat="45.425398164506255" lon="7.742488627342992"><ele>531.0</ele><time>2026-05-03T13:50:16.931Z</time></trkpt><trkpt lat="45.42533997800392" lon="7.742425644779785"><ele>531.0</ele><time>2026-05-03T13:50:17.931Z</time></trkpt><trkpt lat="45.425299284119255" lon="7.742289224082976"><ele>531.0</ele><time>2026-05-03T13:50:19.931Z</time></trkpt><trkpt lat="45.4252972731398" lon="7.7421954146662095"><ele>531.0</ele><time>2026-05-03T13:50:20.931Z</time></trkpt><trkpt lat="45.425314266993325" lon="7.74205944114772"><ele>531.0</ele><time>2026-05-03T13:50:21.931Z</time></trkpt><trkpt lat="45.42532084162089" lon="7.741940703826497"><ele>531.0</ele><time>2026-05-03T13:50:22.931Z</time></trkpt><trkpt lat="45.425324584709976" lon="7.7418257078897295"><ele>530.8</ele><time>2026-05-03T13:50:23.931Z</time></trkpt><trkpt lat="45.42533223885619" lon="7.7416869047163"><ele>530.6</ele><time>2026-05-03T13:50:24.931Z</time></trkpt><trkpt lat="45.4253467941073" lon="7.74156028814622"><ele>530.4</ele><time>2026-05-03T13:50:25.931Z</time></trkpt><trkpt lat="45.42538819312964" lon="7.7414608372211084"><ele>530.2</ele><time>2026-05-03T13:50:26.931Z</time></trkpt><trkpt lat="45.42551794030365" lon="7.741471102827186"><ele>530.0</ele><time>2026-05-03T13:50:27.931Z</time></trkpt><trkpt lat="45.42566401689784" lon="7.741518655551249"><ele>533.6</ele><time>2026-05-03T13:50:28.931Z</time></trkpt><trkpt lat="45.425763273526" lon="7.741540087901322"><ele>537.2</ele><time>2026-05-03T13:50:29.931Z</time></trkpt><trkpt lat="45.42586685114978" lon="7.741594999249279"><ele>540.8</ele><time>2026-05-03T13:50:30.931Z</time></trkpt><trkpt lat="45.42595146696771" lon="7.741646622190758"><ele>544.4</ele><time>2026-05-03T13:50:31.931Z</time></trkpt><trkpt lat="45.42605495922553" lon="7.741624830688918"><ele>548.0</ele><time>2026-05-03T13:50:32.931Z</time></trkpt><trkpt lat="45.42614103556174" lon="7.741563864916864"><ele>548.0</ele><time>2026-05-03T13:50:33.931Z</time></trkpt><trkpt lat="45.426230908185985" lon="7.741483235989148"><ele>548.0</ele><time>2026-05-03T13:50:34.931Z</time></trkpt><trkpt lat="45.426328709164565" lon="7.741412867449217"><ele>548.0</ele><time>2026-05-03T13:50:35.931Z</time></trkpt><trkpt lat="45.42643106324513" lon="7.741394975268857"><ele>548.0</ele><time>2026-05-03T13:50:36.931Z</time></trkpt><trkpt lat="45.42654768215445" lon="7.741432969560717"><ele>548.0</ele><time>2026-05-03T13:50:37.931Z</time></trkpt><trkpt lat="45.42667104866166" lon="7.741457466972314"><ele>550.6</ele><time>2026-05-03T13:50:38.931Z</time></trkpt><trkpt lat="45.42678826215587" lon="7.741496470870159"><ele>553.1999999999999</ele><time>2026-05-03T13:50:39.931Z</time></trkpt><trkpt lat="45.42687635910869" lon="7.741474038083771"><ele>555.8</ele><time>2026-05-03T13:50:40.931Z</time></trkpt><trkpt lat="45.426933343826185" lon="7.741369065239349"><ele>558.4</ele><time>2026-05-03T13:50:41.931Z</time></trkpt><trkpt lat="45.42699991404852" lon="7.741300133592913"><ele>561.0</ele><time>2026-05-03T13:50:42.931Z</time></trkpt><trkpt lat="45.42709367949655" lon="7.741259492654092"><ele>564.0</ele><time>2026-05-03T13:50:43.931Z</time></trkpt><trkpt lat="45.427202255250684" lon="7.741245825491694"><ele>567.0</ele><time>2026-05-03T13:50:44.931Z</time></trkpt><trkpt lat="45.42731946200662" lon="7.741246108608959"><ele>570.0</ele><time>2026-05-03T13:50:45.932Z</time></trkpt><trkpt lat="45.42745728274711" lon="7.74131272991458"><ele>573.0</ele><time>2026-05-03T13:50:46.932Z</time></trkpt><trkpt lat="45.42759070117044" lon="7.741382044778821"><ele>573.0</ele><time>2026-05-03T13:50:47.932Z</time></trkpt><trkpt lat="45.42772095868733" lon="7.741435893571222"><ele>573.0</ele><time>2026-05-03T13:50:48.932Z</time></trkpt><trkpt lat="45.427828901473475" lon="7.741474208354025"><ele>573.0</ele><time>2026-05-03T13:50:49.932Z</time></trkpt><trkpt lat="45.42792822783033" lon="7.741493892142857"><ele>573.0</ele><time>2026-05-03T13:50:50.932Z</time></trkpt><trkpt lat="45.428009844753944" lon="7.741459173711302"><ele>573.0</ele><time>2026-05-03T13:50:51.932Z</time></trkpt><trkpt lat="45.428098756928605" lon="7.741398064928715"><ele>574.8</ele><time>2026-05-03T13:50:52.932Z</time></trkpt><trkpt lat="45.428189616142575" lon="7.741376992064624"><ele>576.5999999999999</ele><time>2026-05-03T13:50:53.932Z</time></trkpt><trkpt lat="45.42827329665773" lon="7.741425249877918"><ele>578.4000000000001</ele><time>2026-05-03T13:50:54.932Z</time></trkpt><trkpt lat="45.42837046770158" lon="7.741501604464744"><ele>580.2</ele><time>2026-05-03T13:50:55.932Z</time></trkpt><trkpt lat="45.42848360013953" lon="7.741545935441875"><ele>582.0</ele><time>2026-05-03T13:50:56.932Z</time></trkpt><trkpt lat="45.42859516879811" lon="7.741568327837984"><ele>582.0</ele><time>2026-05-03T13:50:57.932Z</time></trkpt><trkpt lat="45.428674105218334" lon="7.741516500954325"><ele>582.0</ele><time>2026-05-03T13:50:58.932Z</time></trkpt><trkpt lat="45.42873968183333" lon="7.741466658848541"><ele>582.0</ele><time>2026-05-03T13:50:59.932Z</time></trkpt><trkpt lat="45.42880058626002" lon="7.741367401551784"><ele>582.0</ele><time>2026-05-03T13:51:00.932Z</time></trkpt><trkpt lat="45.42888437875326" lon="7.74129707175267"><ele>582.0</ele><time>2026-05-03T13:51:01.932Z</time></trkpt><trkpt lat="45.42899570103154" lon="7.741228464021329"><ele>582.8333333333334</ele><time>2026-05-03T13:51:02.932Z</time></trkpt><trkpt lat="45.429072353549806" lon="7.741191695681469"><ele>583.6666666666666</ele><time>2026-05-03T13:51:03.932Z</time></trkpt><trkpt lat="45.429129518663906" lon="7.741073634439906"><ele>584.5</ele><time>2026-05-03T13:51:05.932Z</time></trkpt><trkpt lat="45.42911763275347" lon="7.740967499449927"><ele>585.3333333333333</ele><time>2026-05-03T13:51:07.932Z</time></trkpt><trkpt lat="45.42909678951786" lon="7.740869991499297"><ele>586.1666666666666</ele><time>2026-05-03T13:51:11.932Z</time></trkpt><trkpt lat="45.42908312070567" lon="7.740778331408645"><ele>587.0</ele><time>2026-05-03T13:51:14.932Z</time></trkpt><trkpt lat="45.42905989655695" lon="7.740646226411045"><ele>587.0</ele><time>2026-05-03T13:51:29.93Z</time></trkpt><trkpt lat="45.42907155334348" lon="7.7405084112719855"><ele>587.0</ele><time>2026-05-03T13:51:31.93Z</time></trkpt><trkpt lat="45.42912426978837" lon="7.740424395903702"><ele>587.0</ele><time>2026-05-03T13:51:32.93Z</time></trkpt><trkpt lat="45.42918470655947" lon="7.7403069476642825"><ele>587.0</ele><time>2026-05-03T13:51:33.929Z</time></trkpt><trkpt lat="45.42921152408738" lon="7.740175036065964"><ele>587.0</ele><time>2026-05-03T13:51:34.929Z</time></trkpt><trkpt lat="45.42923982168329" lon="7.740012729206004"><ele>587.4</ele><time>2026-05-03T13:51:35.929Z</time></trkpt><trkpt lat="45.429231186908595" lon="7.739825121774698"><ele>587.8000000000001</ele><time>2026-05-03T13:51:36.929Z</time></trkpt><trkpt lat="45.42922539202851" lon="7.7396903463724245"><ele>588.2</ele><time>2026-05-03T13:51:37.929Z</time></trkpt><trkpt lat="45.42921557719109" lon="7.739586029782886"><ele>588.6</ele><time>2026-05-03T13:51:38.929Z</time></trkpt><trkpt lat="45.429085856235325" lon="7.739484278274296"><ele>589.0</ele><time>2026-05-03T13:51:40.929Z</time></trkpt><trkpt lat="45.429003508899534" lon="7.739450977326416"><ele>589.0</ele><time>2026-05-03T13:51:41.929Z</time></trkpt><trkpt lat="45.42892764422911" lon="7.739403694704178"><ele>589.0</ele><time>2026-05-03T13:51:42.929Z</time></trkpt><trkpt lat="45.428866281156125" lon="7.739328930061475"><ele>589.0</ele><time>2026-05-03T13:51:43.929Z</time></trkpt><trkpt lat="45.428823963100534" lon="7.739218990200231"><ele>589.0</ele><time>2026-05-03T13:51:44.929Z</time></trkpt><trkpt lat="45.42878334411534" lon="7.739105005656362"><ele>589.0</ele><time>2026-05-03T13:51:45.929Z</time></trkpt><trkpt lat="45.428756903653635" lon="7.738957856611344"><ele>589.0</ele><time>2026-05-03T13:51:46.929Z</time></trkpt><trkpt lat="45.42873698700968" lon="7.738823925995194"><ele>586.0</ele><time>2026-05-03T13:51:47.929Z</time></trkpt><trkpt lat="45.428681663345415" lon="7.738721381612251"><ele>583.0</ele><time>2026-05-03T13:51:49.929Z</time></trkpt><trkpt lat="45.42864397010672" lon="7.738641751377764"><ele>580.0</ele><time>2026-05-03T13:51:54.93Z</time></trkpt><trkpt lat="45.42869127346619" lon="7.738551685008099"><ele>577.0</ele><time>2026-05-03T13:51:56.93Z</time></trkpt><trkpt lat="45.428723139860544" lon="7.73842743501905"><ele>574.0</ele><time>2026-05-03T13:51:59.93Z</time></trkpt><trkpt lat="45.428796332813455" lon="7.738312181368936"><ele>571.0</ele><time>2026-05-03T13:52:01.93Z</time></trkpt><trkpt lat="45.42874901440395" lon="7.738227084933418"><ele>571.0</ele><time>2026-05-03T13:52:04.93Z</time></trkpt><trkpt lat="45.42868243879199" lon="7.738167019790298"><ele>571.0</ele><time>2026-05-03T13:52:06.93Z</time></trkpt><trkpt lat="45.42863939978706" lon="7.73803265439282"><ele>571.0</ele><time>2026-05-03T13:52:08.93Z</time></trkpt><trkpt lat="45.42858384007168" lon="7.737917812871426"><ele>571.0</ele><time>2026-05-03T13:52:10.93Z</time></trkpt><trkpt lat="45.42849627001451" lon="7.737811439968652"><ele>571.0</ele><time>2026-05-03T13:52:12.93Z</time></trkpt><trkpt lat="45.428455565481876" lon="7.7377147974410825"><ele>573.6</ele><time>2026-05-03T13:52:14.93Z</time></trkpt><trkpt lat="45.42840805005566" lon="7.7376371928391725"><ele>576.2</ele><time>2026-05-03T13:52:16.93Z</time></trkpt><trkpt lat="45.42836007560067" lon="7.73753541760236"><ele>578.8</ele><time>2026-05-03T13:52:18.93Z</time></trkpt><trkpt lat="45.42825622494257" lon="7.737528769877948"><ele>581.4</ele><time>2026-05-03T13:52:20.93Z</time></trkpt><trkpt lat="45.428167955640646" lon="7.737434203935898"><ele>584.0</ele><time>2026-05-03T13:52:22.93Z</time></trkpt><trkpt lat="45.428063997263315" lon="7.737365370992575"><ele>584.0</ele><time>2026-05-03T13:52:24.93Z</time></trkpt><trkpt lat="45.428043792409156" lon="7.7372651355813655"><ele>584.0</ele><time>2026-05-03T13:52:26.93Z</time></trkpt><trkpt lat="45.428015115200324" lon="7.737178006376078"><ele>584.0</ele><time>2026-05-03T13:52:28.93Z</time></trkpt><trkpt lat="45.42804169063528" lon="7.737037453342614"><ele>584.0</ele><time>2026-05-03T13:52:31.93Z</time></trkpt><trkpt lat="45.42807578328444" lon="7.736888470377093"><ele>584.0</ele><time>2026-05-03T13:52:33.93Z</time></trkpt><trkpt lat="45.428110880419325" lon="7.736749981223849"><ele>585.3333333333333</ele><time>2026-05-03T13:52:35.93Z</time></trkpt><trkpt lat="45.42815758211387" lon="7.736640175638176"><ele>586.6666666666666</ele><time>2026-05-03T13:52:38.93Z</time></trkpt><trkpt lat="45.428195897797046" lon="7.73655613528256"><ele>588.0</ele><time>2026-05-03T13:52:40.93Z</time></trkpt><trkpt lat="45.4281416056064" lon="7.736494639463142"><ele>589.3333333333334</ele><time>2026-05-03T13:52:42.93Z</time></trkpt><trkpt lat="45.42808002406926" lon="7.7364520026479875"><ele>590.6666666666667</ele><time>2026-05-03T13:52:43.93Z</time></trkpt><trkpt lat="45.428013592010124" lon="7.736387815027334"><ele>592.0</ele><time>2026-05-03T13:52:44.93Z</time></trkpt><trkpt lat="45.4279832465022" lon="7.73625176716375"><ele>592.0</ele><time>2026-05-03T13:52:46.93Z</time></trkpt><trkpt lat="45.42800487549919" lon="7.736106572994103"><ele>592.0</ele><time>2026-05-03T13:52:48.93Z</time></trkpt><trkpt lat="45.42803846148118" lon="7.736014349160561"><ele>592.0</ele><time>2026-05-03T13:52:50.93Z</time></trkpt><trkpt lat="45.428066090769526" lon="7.735909586761457"><ele>592.0</ele><time>2026-05-03T13:52:53.93Z</time></trkpt><trkpt lat="45.428091777238926" lon="7.735818676090046"><ele>592.0</ele><time>2026-05-03T13:52:56.93Z</time></trkpt><trkpt lat="45.4280256661601" lon="7.735720165556955"><ele>592.0</ele><time>2026-05-03T13:52:59.93Z</time></trkpt><trkpt lat="45.42796676172891" lon="7.735644016367635"><ele>588.3333333333334</ele><time>2026-05-03T13:53:01.93Z</time></trkpt><trkpt lat="45.42791903626738" lon="7.735502507792863"><ele>584.6666666666667</ele><time>2026-05-03T13:53:03.93Z</time></trkpt><trkpt lat="45.427898363300095" lon="7.735373678908068"><ele>581.0</ele><time>2026-05-03T13:53:05.931Z</time></trkpt><trkpt lat="45.42783081320764" lon="7.73537154976494"><ele>577.3333333333334</ele><time>2026-05-03T13:53:08.931Z</time></trkpt><trkpt lat="45.427753613924644" lon="7.735408473845608"><ele>573.6666666666666</ele><time>2026-05-03T13:53:10.931Z</time></trkpt><trkpt lat="45.42767891732663" lon="7.735398040161721"><ele>570.0</ele><time>2026-05-03T13:53:13.931Z</time></trkpt><trkpt lat="45.42762928685323" lon="7.735321593895276"><ele>570.0</ele><time>2026-05-03T13:54:33.93Z</time></trkpt><trkpt lat="45.427554847278856" lon="7.735314353638757"><ele>570.0</ele><time>2026-05-03T13:54:35.93Z</time></trkpt><trkpt lat="45.427477228563596" lon="7.735256294718355"><ele>570.0</ele><time>2026-05-03T13:54:37.93Z</time></trkpt><trkpt lat="45.42741544540425" lon="7.735170704616583"><ele>570.0</ele><time>2026-05-03T13:54:39.93Z</time></trkpt><trkpt lat="45.42735907298798" lon="7.735052667264426"><ele>570.0</ele><time>2026-05-03T13:54:42.93Z</time></trkpt><trkpt lat="45.42732204077392" lon="7.734942529934782"><ele>570.0</ele><time>2026-05-03T13:54:44.93Z</time></trkpt><trkpt lat="45.42729544334307" lon="7.7348236604603775"><ele>569.6666666666666</ele><time>2026-05-03T13:54:46.93Z</time></trkpt><trkpt lat="45.427247596002836" lon="7.734704490877055"><ele>569.3333333333334</ele><time>2026-05-03T13:54:48.93Z</time></trkpt><trkpt lat="45.4272246138711" lon="7.734598117252036"><ele>569.0</ele><time>2026-05-03T13:54:50.93Z</time></trkpt><trkpt lat="45.42722937011345" lon="7.734475162977582"><ele>568.6666666666667</ele><time>2026-05-03T13:54:52.93Z</time></trkpt><trkpt lat="45.42716221793968" lon="7.734446911261517"><ele>568.3333333333334</ele><time>2026-05-03T13:54:54.93Z</time></trkpt><trkpt lat="45.42710542821648" lon="7.734485890265149"><ele>568.0</ele><time>2026-05-03T13:54:56.93Z</time></trkpt><trkpt lat="45.427009139593146" lon="7.734465169809535"><ele>568.0</ele><time>2026-05-03T13:54:59.93Z</time></trkpt><trkpt lat="45.42692106776712" lon="7.734434445481389"><ele>568.0</ele><time>2026-05-03T13:55:01.93Z</time></trkpt><trkpt lat="45.42685832505897" lon="7.734349715302564"><ele>568.0</ele><time>2026-05-03T13:55:21.93Z</time></trkpt><trkpt lat="45.426791599654514" lon="7.734325665413705"><ele>568.0</ele><time>2026-05-03T13:55:23.93Z</time></trkpt><trkpt lat="45.42671756224474" lon="7.7343176524751875"><ele>568.0</ele><time>2026-05-03T13:55:25.93Z</time></trkpt><trkpt lat="45.42665799843865" lon="7.734275889429911"><ele>568.0</ele><time>2026-05-03T13:55:28.93Z</time></trkpt><trkpt lat="45.42658374517691" lon="7.734223829770014"><ele>570.6666666666667</ele><time>2026-05-03T13:55:31.93Z</time></trkpt><trkpt lat="45.4265322476519" lon="7.734160569540535"><ele>573.3333333333334</ele><time>2026-05-03T13:55:41.929Z</time></trkpt><trkpt lat="45.42648387700416" lon="7.734096510208862"><ele>576.0</ele><time>2026-05-03T13:55:48.928Z</time></trkpt><trkpt lat="45.426545091494496" lon="7.734071208670095"><ele>578.6666666666666</ele><time>2026-05-03T13:56:14.929Z</time></trkpt><trkpt lat="45.426618022946684" lon="7.734042413275994"><ele>581.3333333333333</ele><time>2026-05-03T13:56:17.929Z</time></trkpt><trkpt lat="45.42676204224125" lon="7.734067673410093"><ele>584.0</ele><time>2026-05-03T13:56:31.929Z</time></trkpt><trkpt lat="45.42682524165469" lon="7.734021131374167"><ele>584.0</ele><time>2026-05-03T13:56:33.929Z</time></trkpt><trkpt lat="45.426899160149254" lon="7.733907405725966"><ele>584.0</ele><time>2026-05-03T13:56:35.929Z</time></trkpt><trkpt lat="45.42695197202659" lon="7.733835498137"><ele>584.0</ele><time>2026-05-03T13:56:36.929Z</time></trkpt><trkpt lat="45.42700524958647" lon="7.7337609434261445"><ele>584.0</ele><time>2026-05-03T13:56:37.929Z</time></trkpt><trkpt lat="45.42706335511843" lon="7.733701555497831"><ele>584.0</ele><time>2026-05-03T13:56:38.929Z</time></trkpt><trkpt lat="45.427164577423525" lon="7.7336654373742695"><ele>584.0</ele><time>2026-05-03T13:56:40.929Z</time></trkpt><trkpt lat="45.427276606017436" lon="7.733672308546138"><ele>586.5</ele><time>2026-05-03T13:56:42.929Z</time></trkpt><trkpt lat="45.42734208623589" lon="7.733578412418222"><ele>589.0</ele><time>2026-05-03T13:56:45.929Z</time></trkpt><trkpt lat="45.42741006509072" lon="7.733534276437777"><ele>591.5</ele><time>2026-05-03T13:56:47.929Z</time></trkpt><trkpt lat="45.42746834581671" lon="7.7334815942747275"><ele>594.0</ele><time>2026-05-03T13:56:49.929Z</time></trkpt><trkpt lat="45.42751657892457" lon="7.733339856924208"><ele>596.5</ele><time>2026-05-03T13:56:51.929Z</time></trkpt><trkpt lat="45.42759138985869" lon="7.733271935011376"><ele>599.0</ele><time>2026-05-03T13:56:53.929Z</time></trkpt><trkpt lat="45.427706362103" lon="7.73331083343559"><ele>600.8</ele><time>2026-05-03T13:56:55.929Z</time></trkpt><trkpt lat="45.42776709825259" lon="7.733353973079564"><ele>602.5999999999999</ele><time>2026-05-03T13:56:56.929Z</time></trkpt><trkpt lat="45.427861622611985" lon="7.733255753018544"><ele>604.4</ele><time>2026-05-03T13:56:58.929Z</time></trkpt><trkpt lat="45.42794674712629" lon="7.733171239814713"><ele>606.1999999999999</ele><time>2026-05-03T13:57:00.929Z</time></trkpt><trkpt lat="45.42805424681157" lon="7.733078183032753"><ele>608.0</ele><time>2026-05-03T13:57:02.929Z</time></trkpt><trkpt lat="45.428145849697266" lon="7.733008787768656"><ele>611.6</ele><time>2026-05-03T13:57:04.929Z</time></trkpt><trkpt lat="45.4282466164318" lon="7.732981267652004"><ele>615.1999999999999</ele><time>2026-05-03T13:57:06.929Z</time></trkpt><trkpt lat="45.42837559057009" lon="7.732949269798233"><ele>618.8</ele><time>2026-05-03T13:57:08.929Z</time></trkpt><trkpt lat="45.42846544449411" lon="7.732901550790619"><ele>622.4</ele><time>2026-05-03T13:57:10.93Z</time></trkpt><trkpt lat="45.42851716495833" lon="7.732821461679955"><ele>626.0</ele><time>2026-05-03T13:57:12.93Z</time></trkpt><trkpt lat="45.42855870089671" lon="7.7327482007973325"><ele>627.0</ele><time>2026-05-03T13:57:13.93Z</time></trkpt><trkpt lat="45.42863603878143" lon="7.73267408529783"><ele>628.0</ele><time>2026-05-03T13:57:15.93Z</time></trkpt><trkpt lat="45.428726437414284" lon="7.732642007912828"><ele>629.0</ele><time>2026-05-03T13:57:17.93Z</time></trkpt><trkpt lat="45.42881321791324" lon="7.732623534468906"><ele>630.0</ele><time>2026-05-03T13:57:18.93Z</time></trkpt><trkpt lat="45.42889939856523" lon="7.732627192772017"><ele>631.0</ele><time>2026-05-03T13:57:19.93Z</time></trkpt><trkpt lat="45.42898084995355" lon="7.732657750374888"><ele>632.0</ele><time>2026-05-03T13:57:20.93Z</time></trkpt><trkpt lat="45.429072501126896" lon="7.73268132443771"><ele>632.0</ele><time>2026-05-03T13:57:22.93Z</time></trkpt><trkpt lat="45.42917105897556" lon="7.73271307278237"><ele>632.0</ele><time>2026-05-03T13:57:24.93Z</time></trkpt><trkpt lat="45.42924716131137" lon="7.73281482498685"><ele>632.0</ele><time>2026-05-03T13:57:26.93Z</time></trkpt><trkpt lat="45.42935243446033" lon="7.73287219722773"><ele>632.0</ele><time>2026-05-03T13:57:28.93Z</time></trkpt><trkpt lat="45.42943816815864" lon="7.732943064762191"><ele>632.0</ele><time>2026-05-03T13:57:30.93Z</time></trkpt><trkpt lat="45.42955751515701" lon="7.733055258806599"><ele>634.5</ele><time>2026-05-03T13:57:32.93Z</time></trkpt><trkpt lat="45.42964377249622" lon="7.733180887061672"><ele>637.0</ele><time>2026-05-03T13:57:34.93Z</time></trkpt><trkpt lat="45.42970330075744" lon="7.73324182594802"><ele>639.5</ele><time>2026-05-03T13:57:35.93Z</time></trkpt><trkpt lat="45.42975712496464" lon="7.73329940058096"><ele>642.0</ele><time>2026-05-03T13:57:36.93Z</time></trkpt><trkpt lat="45.42981965902855" lon="7.733372434317714"><ele>644.5</ele><time>2026-05-03T13:57:37.93Z</time></trkpt><trkpt lat="45.42987845688166" lon="7.733435209469936"><ele>647.0</ele><time>2026-05-03T13:57:38.927Z</time></trkpt><trkpt lat="45.42996505618241" lon="7.73353109074986"><ele>648.4285714285714</ele><time>2026-05-03T13:57:42.927Z</time></trkpt><trkpt lat="45.43002065188079" lon="7.733596117657613"><ele>649.8571428571429</ele><time>2026-05-03T13:57:43.927Z</time></trkpt><trkpt lat="45.43006773629732" lon="7.733669712369962"><ele>651.2857142857142</ele><time>2026-05-03T13:57:44.927Z</time></trkpt><trkpt lat="45.43012002146558" lon="7.733751164274293"><ele>652.7142857142858</ele><time>2026-05-03T13:57:45.928Z</time></trkpt><trkpt lat="45.430172258625575" lon="7.733831696653095"><ele>654.1428571428572</ele><time>2026-05-03T13:57:48.927Z</time></trkpt><trkpt lat="45.430228287994424" lon="7.733889626535727"><ele>655.5714285714286</ele><time>2026-05-03T13:58:05.927Z</time></trkpt><trkpt lat="45.430252102096034" lon="7.733977651865303"><ele>657.0</ele><time>2026-05-03T13:58:07.927Z</time></trkpt><trkpt lat="45.43027094920842" lon="7.734072155520942"><ele>657.0</ele><time>2026-05-03T13:58:08.927Z</time></trkpt><trkpt lat="45.43027288763285" lon="7.734168217854125"><ele>657.0</ele><time>2026-05-03T13:58:09.927Z</time></trkpt><trkpt lat="45.43026852916957" lon="7.73431749108284"><ele>657.0</ele><time>2026-05-03T13:58:11.927Z</time></trkpt><trkpt lat="45.43024840609594" lon="7.734463206556436"><ele>657.0</ele><time>2026-05-03T13:58:13.927Z</time></trkpt><trkpt lat="45.430236558747474" lon="7.73455190345583"><ele>657.0</ele><time>2026-05-03T13:58:14.927Z</time></trkpt><trkpt lat="45.430221678939155" lon="7.734653972994038"><ele>657.0</ele><time>2026-05-03T13:58:15.927Z</time></trkpt><trkpt lat="45.43021013462026" lon="7.734778576908611"><ele>656.4000000000001</ele><time>2026-05-03T13:58:17.927Z</time></trkpt><trkpt lat="45.43022674863306" lon="7.7348724211233595"><ele>655.8000000000001</ele><time>2026-05-03T13:58:20.927Z</time></trkpt><trkpt lat="45.43018654796707" lon="7.73496775166784"><ele>655.2</ele><time>2026-05-03T13:58:23.927Z</time></trkpt><trkpt lat="45.43026416271703" lon="7.735046083580531"><ele>654.6</ele><time>2026-05-03T13:58:26.927Z</time></trkpt><trkpt lat="45.43035564839721" lon="7.735063624258833"><ele>654.0</ele><time>2026-05-03T13:58:28.927Z</time></trkpt><trkpt lat="45.43047906369574" lon="7.735139650619501"><ele>652.2</ele><time>2026-05-03T13:58:30.927Z</time></trkpt><trkpt lat="45.430565146955104" lon="7.735187906745391"><ele>650.4000000000001</ele><time>2026-05-03T13:58:31.927Z</time></trkpt><trkpt lat="45.430638047832026" lon="7.735223883953269"><ele>648.6</ele><time>2026-05-03T13:58:32.927Z</time></trkpt><trkpt lat="45.43076122301011" lon="7.735195238194067"><ele>646.8</ele><time>2026-05-03T13:58:34.927Z</time></trkpt><trkpt lat="45.43083037882033" lon="7.735229443553588"><ele>645.0</ele><time>2026-05-03T13:58:35.927Z</time></trkpt><trkpt lat="45.430907065913665" lon="7.735297784941655"><ele>647.8333333333334</ele><time>2026-05-03T13:58:36.927Z</time></trkpt><trkpt lat="45.43100019475528" lon="7.735362826295682"><ele>650.6666666666666</ele><time>2026-05-03T13:58:37.927Z</time></trkpt><trkpt lat="45.43108298690968" lon="7.735420572824612"><ele>653.5</ele><time>2026-05-03T13:58:38.927Z</time></trkpt><trkpt lat="45.431173502243304" lon="7.735458502873427"><ele>656.3333333333333</ele><time>2026-05-03T13:58:39.927Z</time></trkpt><trkpt lat="45.43123711663121" lon="7.735441160738095"><ele>659.1666666666666</ele><time>2026-05-03T13:58:40.927Z</time></trkpt><trkpt lat="45.4313020505783" lon="7.735414327526754"><ele>662.0</ele><time>2026-05-03T13:58:41.927Z</time></trkpt><trkpt lat="45.431373795464026" lon="7.735398787461909"><ele>662.0</ele><time>2026-05-03T13:58:42.927Z</time></trkpt><trkpt lat="45.431470628715275" lon="7.735395565924559"><ele>662.0</ele><time>2026-05-03T13:58:43.927Z</time></trkpt><trkpt lat="45.43155120494132" lon="7.735406686773828"><ele>662.0</ele><time>2026-05-03T13:58:44.927Z</time></trkpt><trkpt lat="45.43163017927957" lon="7.735400287018073"><ele>662.0</ele><time>2026-05-03T13:58:45.927Z</time></trkpt><trkpt lat="45.43171583800671" lon="7.735360673779037"><ele>662.0</ele><time>2026-05-03T13:58:46.927Z</time></trkpt><trkpt lat="45.43182957697278" lon="7.735353023429435"><ele>662.0</ele><time>2026-05-03T13:58:47.927Z</time></trkpt><trkpt lat="45.43196493595562" lon="7.735330281139636"><ele>662.0</ele><time>2026-05-03T13:58:48.927Z</time></trkpt><trkpt lat="45.43205744900741" lon="7.735288170183338"><ele>662.0</ele><time>2026-05-03T13:58:49.927Z</time></trkpt><trkpt lat="45.43214954984669" lon="7.73528929310567"><ele>662.0</ele><time>2026-05-03T13:58:51.927Z</time></trkpt><trkpt lat="45.432212874581445" lon="7.735313504815857"><ele>662.0</ele><time>2026-05-03T13:58:52.927Z</time></trkpt><trkpt lat="45.432283914369854" lon="7.735332889260922"><ele>661.6</ele><time>2026-05-03T13:58:53.927Z</time></trkpt><trkpt lat="45.43237270940321" lon="7.73542315613617"><ele>661.2</ele><time>2026-05-03T13:58:55.927Z</time></trkpt><trkpt lat="45.43241019592577" lon="7.735497944178805"><ele>660.8</ele><time>2026-05-03T13:58:56.928Z</time></trkpt><trkpt lat="45.4324998702964" lon="7.73555595232372"><ele>660.4</ele><time>2026-05-03T13:58:58.928Z</time></trkpt><trkpt lat="45.43259297369832" lon="7.735555462733949"><ele>660.0</ele><time>2026-05-03T13:58:59.928Z</time></trkpt><trkpt lat="45.43272058178936" lon="7.735570458810399"><ele>660.0</ele><time>2026-05-03T13:59:00.928Z</time></trkpt><trkpt lat="45.43281557679043" lon="7.735591357158668"><ele>660.0</ele><time>2026-05-03T13:59:01.928Z</time></trkpt><trkpt lat="45.4329129210943" lon="7.735625156970087"><ele>660.0</ele><time>2026-05-03T13:59:02.928Z</time></trkpt><trkpt lat="45.43299422602343" lon="7.7356810923884565"><ele>660.0</ele><time>2026-05-03T13:59:03.928Z</time></trkpt><trkpt lat="45.433064402640774" lon="7.735744117560508"><ele>660.0</ele><time>2026-05-03T13:59:04.928Z</time></trkpt><trkpt lat="45.43313971164181" lon="7.735789150087494"><ele>660.4</ele><time>2026-05-03T13:59:05.928Z</time></trkpt><trkpt lat="45.433221768618864" lon="7.735825943286591"><ele>660.8</ele><time>2026-05-03T13:59:06.928Z</time></trkpt><trkpt lat="45.43332162978558" lon="7.735830755650017"><ele>661.2</ele><time>2026-05-03T13:59:08.928Z</time></trkpt><trkpt lat="45.43346867481521" lon="7.735814638452288"><ele>661.6</ele><time>2026-05-03T13:59:10.928Z</time></trkpt><trkpt lat="45.43356091492108" lon="7.735813032667663"><ele>662.0</ele><time>2026-05-03T13:59:11.928Z</time></trkpt><trkpt lat="45.43363410985431" lon="7.7358260032342825"><ele>662.0</ele><time>2026-05-03T13:59:14.928Z</time></trkpt><trkpt lat="45.433721570524426" lon="7.735801858657167"><ele>662.0</ele><time>2026-05-03T13:59:17.928Z</time></trkpt><trkpt lat="45.43377599783593" lon="7.73575621237412"><ele>662.0</ele><time>2026-05-03T13:59:19.928Z</time></trkpt><trkpt lat="45.43384307391406" lon="7.735699234932213"><ele>662.0</ele><time>2026-05-03T13:59:22.928Z</time></trkpt><trkpt lat="45.43389483859709" lon="7.735644422411894"><ele>662.0</ele><time>2026-05-03T13:59:27.928Z</time></trkpt><trkpt lat="45.43399153566128" lon="7.7355236318714535"><ele>662.0</ele><time>2026-05-03T13:59:42.928Z</time></trkpt><trkpt lat="45.433996673964394" lon="7.735376642019387"><ele>662.2</ele><time>2026-05-03T13:59:45.926Z</time></trkpt><trkpt lat="45.434078911963205" lon="7.735289745300436"><ele>662.4000000000001</ele><time>2026-05-03T13:59:47.926Z</time></trkpt><trkpt lat="45.434154644195665" lon="7.735211782446549"><ele>662.5999999999999</ele><time>2026-05-03T13:59:49.927Z</time></trkpt><trkpt lat="45.434195307768555" lon="7.735093479112817"><ele>662.8</ele><time>2026-05-03T13:59:50.926Z</time></trkpt><trkpt lat="45.43425199773067" lon="7.734970444448831"><ele>663.0</ele><time>2026-05-03T13:59:51.927Z</time></trkpt><trkpt lat="45.434325647824615" lon="7.734827229327212"><ele>663.25</ele><time>2026-05-03T13:59:52.927Z</time></trkpt><trkpt lat="45.43438550869179" lon="7.734688413223796"><ele>663.5</ele><time>2026-05-03T13:59:53.926Z</time></trkpt><trkpt lat="45.43442356860151" lon="7.734564582788465"><ele>663.75</ele><time>2026-05-03T13:59:54.926Z</time></trkpt><trkpt lat="45.434468932124766" lon="7.734412578466699"><ele>664.0</ele><time>2026-05-03T13:59:55.926Z</time></trkpt><trkpt lat="45.434533683888496" lon="7.7342354330019"><ele>663.0</ele><time>2026-05-03T13:59:56.927Z</time></trkpt><trkpt lat="45.43458223625918" lon="7.734083077702714"><ele>662.0</ele><time>2026-05-03T13:59:57.927Z</time></trkpt><trkpt lat="45.43460058725846" lon="7.7339389621857375"><ele>661.0</ele><time>2026-05-03T13:59:58.927Z</time></trkpt><trkpt lat="45.43461545134539" lon="7.733770264445289"><ele>660.0</ele><time>2026-05-03T13:59:59.927Z</time></trkpt><trkpt lat="45.434609336491995" lon="7.733602469899349"><ele>659.4</ele><time>2026-05-03T14:00:00.927Z</time></trkpt><trkpt lat="45.434597716288465" lon="7.73344453657229"><ele>658.8</ele><time>2026-05-03T14:00:01.927Z</time></trkpt><trkpt lat="45.43457845759892" lon="7.733316407918649"><ele>658.2</ele><time>2026-05-03T14:00:02.927Z</time></trkpt><trkpt lat="45.43454835641908" lon="7.733148459045745"><ele>657.6</ele><time>2026-05-03T14:00:03.927Z</time></trkpt><trkpt lat="45.434518054340785" lon="7.732978741746731"><ele>657.0</ele><time>2026-05-03T14:00:04.927Z</time></trkpt><trkpt lat="45.434492083383155" lon="7.732800051418012"><ele>656.5</ele><time>2026-05-03T14:00:05.927Z</time></trkpt><trkpt lat="45.43442961284047" lon="7.732599301281535"><ele>656.0</ele><time>2026-05-03T14:00:06.927Z</time></trkpt><trkpt lat="45.43436470486348" lon="7.732410724427581"><ele>655.5</ele><time>2026-05-03T14:00:07.927Z</time></trkpt><trkpt lat="45.434317546905554" lon="7.732254007411566"><ele>655.0</ele><time>2026-05-03T14:00:08.927Z</time></trkpt><trkpt lat="45.43429800617694" lon="7.732132522717723"><ele>655.0</ele><time>2026-05-03T14:00:09.927Z</time></trkpt><trkpt lat="45.43431500527806" lon="7.732011506920538"><ele>655.0</ele><time>2026-05-03T14:00:10.927Z</time></trkpt><trkpt lat="45.43433025885353" lon="7.731839500617279"><ele>655.0</ele><time>2026-05-03T14:00:11.927Z</time></trkpt><trkpt lat="45.43433010179478" lon="7.731598281225966"><ele>655.0</ele><time>2026-05-03T14:00:12.927Z</time></trkpt><trkpt lat="45.434343541344404" lon="7.731375022692831"><ele>654.0</ele><time>2026-05-03T14:00:13.927Z</time></trkpt><trkpt lat="45.43436320037" lon="7.731175418670622"><ele>653.0</ele><time>2026-05-03T14:00:14.927Z</time></trkpt><trkpt lat="45.43436794813243" lon="7.731035781279192"><ele>652.0</ele><time>2026-05-03T14:00:15.927Z</time></trkpt><trkpt lat="45.43437071405239" lon="7.730943941366433"><ele>651.0</ele><time>2026-05-03T14:00:16.927Z</time></trkpt><trkpt lat="45.434346191409375" lon="7.730860431312632"><ele>650.0</ele><time>2026-05-03T14:00:17.927Z</time></trkpt><trkpt lat="45.43428054322864" lon="7.730763310714062"><ele>650.0</ele><time>2026-05-03T14:00:19.927Z</time></trkpt><trkpt lat="45.4342449716668" lon="7.73064434490888"><ele>650.0</ele><time>2026-05-03T14:00:21.927Z</time></trkpt><trkpt lat="45.43425465017238" lon="7.7304980638664444"><ele>650.0</ele><time>2026-05-03T14:00:24.927Z</time></trkpt><trkpt lat="45.43428290581004" lon="7.730404171213521"><ele>650.0</ele><time>2026-05-03T14:00:25.927Z</time></trkpt><trkpt lat="45.43431490854867" lon="7.730295557145054"><ele>650.0</ele><time>2026-05-03T14:00:26.927Z</time></trkpt><trkpt lat="45.43433436907254" lon="7.730181041597516"><ele>650.0</ele><time>2026-05-03T14:00:27.927Z</time></trkpt><trkpt lat="45.43434663331949" lon="7.7300851067926"><ele>651.0</ele><time>2026-05-03T14:00:28.927Z</time></trkpt><trkpt lat="45.434354999797904" lon="7.729974513174556"><ele>652.0</ele><time>2026-05-03T14:00:29.927Z</time></trkpt><trkpt lat="45.43437662350391" lon="7.729889249745739"><ele>653.0</ele><time>2026-05-03T14:00:30.927Z</time></trkpt><trkpt lat="45.4343905487171" lon="7.729794066852628"><ele>654.0</ele><time>2026-05-03T14:00:31.927Z</time></trkpt><trkpt lat="45.43439127164" lon="7.729690503037664"><ele>655.0</ele><time>2026-05-03T14:00:32.927Z</time></trkpt><trkpt lat="45.43440857377295" lon="7.72951267265374"><ele>656.0</ele><time>2026-05-03T14:00:34.927Z</time></trkpt><trkpt lat="45.43442197437627" lon="7.729403273289765"><ele>657.5999999999999</ele><time>2026-05-03T14:00:35.927Z</time></trkpt><trkpt lat="45.43444951749993" lon="7.7293165862739555"><ele>659.2</ele><time>2026-05-03T14:00:36.927Z</time></trkpt><trkpt lat="45.434481457343914" lon="7.729125556986411"><ele>660.8</ele><time>2026-05-03T14:00:38.927Z</time></trkpt><trkpt lat="45.434475124912666" lon="7.728995142302893"><ele>662.4000000000001</ele><time>2026-05-03T14:00:40.927Z</time></trkpt><trkpt lat="45.43445285887076" lon="7.728858488794584"><ele>664.0</ele><time>2026-05-03T14:00:42.927Z</time></trkpt><trkpt lat="45.43441996690491" lon="7.728724423096572"><ele>664.0</ele><time>2026-05-03T14:00:44.927Z</time></trkpt><trkpt lat="45.434410669001586" lon="7.728633306567834"><ele>664.0</ele><time>2026-05-03T14:00:45.927Z</time></trkpt><trkpt lat="45.43439246406257" lon="7.728481658617185"><ele>664.0</ele><time>2026-05-03T14:00:47.927Z</time></trkpt><trkpt lat="45.43434191248416" lon="7.7283199488450505"><ele>664.0</ele><time>2026-05-03T14:00:49.927Z</time></trkpt><trkpt lat="45.43429535374059" lon="7.728159270801216"><ele>664.0</ele><time>2026-05-03T14:00:51.927Z</time></trkpt><trkpt lat="45.434280916596755" lon="7.728036650216759"><ele>665.0</ele><time>2026-05-03T14:00:53.927Z</time></trkpt><trkpt lat="45.43427460585966" lon="7.727876629015012"><ele>666.0</ele><time>2026-05-03T14:00:55.927Z</time></trkpt><trkpt lat="45.43427305553125" lon="7.7277024370804375"><ele>667.0</ele><time>2026-05-03T14:00:57.927Z</time></trkpt><trkpt lat="45.43426085166854" lon="7.727606088265691"><ele>668.0</ele><time>2026-05-03T14:00:58.927Z</time></trkpt><trkpt lat="45.43422805272702" lon="7.7275080219912065"><ele>669.0</ele><time>2026-05-03T14:00:59.927Z</time></trkpt><trkpt lat="45.43418181006758" lon="7.7274167067953625"><ele>669.2</ele><time>2026-05-03T14:01:00.927Z</time></trkpt><trkpt lat="45.43413892376634" lon="7.7273483233812605"><ele>669.4000000000001</ele><time>2026-05-03T14:01:01.927Z</time></trkpt><trkpt lat="45.43411034395754" lon="7.727178932585514"><ele>669.6</ele><time>2026-05-03T14:01:03.928Z</time></trkpt><trkpt lat="45.43412022136828" lon="7.727086714280097"><ele>669.8</ele><time>2026-05-03T14:01:04.928Z</time></trkpt><trkpt lat="45.43409186069731" lon="7.72696573129961"><ele>670.0</ele><time>2026-05-03T14:01:06.928Z</time></trkpt><trkpt lat="45.43402557325752" lon="7.7268357721840095"><ele>670.0</ele><time>2026-05-03T14:01:08.928Z</time></trkpt><trkpt lat="45.434005836724666" lon="7.726741556153946"><ele>670.0</ele><time>2026-05-03T14:01:09.928Z</time></trkpt><trkpt lat="45.433984432710865" lon="7.726603484554524"><ele>670.0</ele><time>2026-05-03T14:01:11.928Z</time></trkpt><trkpt lat="45.43400078785242" lon="7.726484853655504"><ele>670.0</ele><time>2026-05-03T14:01:14.928Z</time></trkpt><trkpt lat="45.433984105845816" lon="7.726391069774738"><ele>670.0</ele><time>2026-05-03T14:01:16.928Z</time></trkpt><trkpt lat="45.433935405790955" lon="7.726288822393518"><ele>670.0</ele><time>2026-05-03T14:01:18.928Z</time></trkpt><trkpt lat="45.43393192250023" lon="7.726153660571252"><ele>670.6</ele><time>2026-05-03T14:01:20.928Z</time></trkpt><trkpt lat="45.43388942526483" lon="7.726046853806544"><ele>671.2</ele><time>2026-05-03T14:01:22.928Z</time></trkpt><trkpt lat="45.43386343533186" lon="7.725921117455954"><ele>671.8</ele><time>2026-05-03T14:01:24.928Z</time></trkpt><trkpt lat="45.43384832763908" lon="7.725769375720155"><ele>672.4</ele><time>2026-05-03T14:01:26.928Z</time></trkpt><trkpt lat="45.433811749023796" lon="7.7256301313157"><ele>673.0</ele><time>2026-05-03T14:01:28.928Z</time></trkpt><trkpt lat="45.43382612351005" lon="7.725521392995991"><ele>673.0</ele><time>2026-05-03T14:01:30.928Z</time></trkpt><trkpt lat="45.433858024683566" lon="7.725373187706928"><ele>673.0</ele><time>2026-05-03T14:01:32.928Z</time></trkpt><trkpt lat="45.43385520291438" lon="7.725221537121956"><ele>673.0</ele><time>2026-05-03T14:01:34.928Z</time></trkpt><trkpt lat="45.43384836758193" lon="7.725124927492723"><ele>673.0</ele><time>2026-05-03T14:01:35.928Z</time></trkpt><trkpt lat="45.43385534299349" lon="7.725028738647478"><ele>673.0</ele><time>2026-05-03T14:01:36.928Z</time></trkpt><trkpt lat="45.433847678296786" lon="7.724899615018694"><ele>673.0</ele><time>2026-05-03T14:01:38.928Z</time></trkpt><trkpt lat="45.43382559111991" lon="7.724806187876583"><ele>673.1666666666667</ele><time>2026-05-03T14:01:40.928Z</time></trkpt><trkpt lat="45.43385376183058" lon="7.724695127449234"><ele>673.3333333333334</ele><time>2026-05-03T14:01:43.928Z</time></trkpt><trkpt lat="45.433851101407015" lon="7.72459094342156"><ele>673.5</ele><time>2026-05-03T14:01:45.928Z</time></trkpt><trkpt lat="45.43387240535505" lon="7.724411698028323"><ele>673.6666666666666</ele><time>2026-05-03T14:01:47.928Z</time></trkpt><trkpt lat="45.433882626847414" lon="7.724291932828877"><ele>673.8333333333333</ele><time>2026-05-03T14:01:49.928Z</time></trkpt><trkpt lat="45.433855404003374" lon="7.724207905175131"><ele>674.0</ele><time>2026-05-03T14:01:52.925Z</time></trkpt><trkpt lat="45.433825203449274" lon="7.724109262755987"><ele>674.0</ele><time>2026-05-03T14:01:54.926Z</time></trkpt><trkpt lat="45.43379386660912" lon="7.724020941283385"><ele>674.0</ele><time>2026-05-03T14:01:56.926Z</time></trkpt><trkpt lat="45.433808593358314" lon="7.723921053643103"><ele>674.0</ele><time>2026-05-03T14:02:34.925Z</time></trkpt><trkpt lat="45.43384942520676" lon="7.724025067413036"><ele>674.0</ele><time>2026-05-03T14:02:46.925Z</time></trkpt><trkpt lat="45.433877026813114" lon="7.724116953372269"><ele>674.0</ele><time>2026-05-03T14:02:48.925Z</time></trkpt><trkpt lat="45.433888259079474" lon="7.724215950555496"><ele>674.0</ele><time>2026-05-03T14:02:51.926Z</time></trkpt><trkpt lat="45.43386771587813" lon="7.724365525247062"><ele>674.3333333333333</ele><time>2026-05-03T14:02:53.926Z</time></trkpt><trkpt lat="45.433854675329776" lon="7.724471787418415"><ele>674.6666666666666</ele><time>2026-05-03T14:02:54.926Z</time></trkpt><trkpt lat="45.433844952896415" lon="7.724576025049916"><ele>675.0</ele><time>2026-05-03T14:02:56.926Z</time></trkpt><trkpt lat="45.43387479473105" lon="7.724665017498375"><ele>675.3333333333334</ele><time>2026-05-03T14:03:00.926Z</time></trkpt><trkpt lat="45.43387394055028" lon="7.724758574454434"><ele>675.6666666666667</ele><time>2026-05-03T14:03:02.926Z</time></trkpt><trkpt lat="45.433855661458324" lon="7.724941966979562"><ele>676.0</ele><time>2026-05-03T14:03:04.926Z</time></trkpt><trkpt lat="45.43385220403163" lon="7.72504044367465"><ele>676.0</ele><time>2026-05-03T14:03:05.926Z</time></trkpt><trkpt lat="45.43386025340928" lon="7.725180544607219"><ele>676.0</ele><time>2026-05-03T14:03:07.926Z</time></trkpt><trkpt lat="45.433815127412785" lon="7.725315224882596"><ele>676.0</ele><time>2026-05-03T14:03:10.926Z</time></trkpt><trkpt lat="45.433865402943375" lon="7.725429875794335"><ele>676.0</ele><time>2026-05-03T14:03:12.926Z</time></trkpt><trkpt lat="45.43386101878504" lon="7.72559207910581"><ele>676.0</ele><time>2026-05-03T14:03:14.926Z</time></trkpt><trkpt lat="45.43389882164472" lon="7.725764788781172"><ele>675.5</ele><time>2026-05-03T14:03:16.926Z</time></trkpt><trkpt lat="45.433945370199574" lon="7.725899684570952"><ele>675.0</ele><time>2026-05-03T14:03:18.926Z</time></trkpt><trkpt lat="45.4339318027341" lon="7.725994021665909"><ele>674.5</ele><time>2026-05-03T14:03:19.926Z</time></trkpt><trkpt lat="45.433960146298524" lon="7.726086525865105"><ele>674.0</ele><time>2026-05-03T14:03:22.926Z</time></trkpt><trkpt lat="45.43391445614237" lon="7.726202159042771"><ele>673.5</ele><time>2026-05-03T14:03:25.926Z</time></trkpt><trkpt lat="45.43394598635304" lon="7.726317521994365"><ele>673.0</ele><time>2026-05-03T14:03:27.926Z</time></trkpt><trkpt lat="45.43397670165092" lon="7.726404176466481"><ele>672.8333333333334</ele><time>2026-05-03T14:03:28.926Z</time></trkpt><trkpt lat="45.43400535730259" lon="7.72658648207359"><ele>672.6666666666667</ele><time>2026-05-03T14:03:30.926Z</time></trkpt><trkpt lat="45.434046970048065" lon="7.726663441611221"><ele>672.5</ele><time>2026-05-03T14:03:31.926Z</time></trkpt><trkpt lat="45.43407206588888" lon="7.726769455499961"><ele>672.3333333333334</ele><time>2026-05-03T14:03:33.926Z</time></trkpt><trkpt lat="45.43406499429373" lon="7.726901156165735"><ele>672.1666666666666</ele><time>2026-05-03T14:03:35.926Z</time></trkpt><trkpt lat="45.43407519239566" lon="7.726994592087992"><ele>672.0</ele><time>2026-05-03T14:03:36.926Z</time></trkpt><trkpt lat="45.43411369342994" lon="7.727073372010117"><ele>672.0</ele><time>2026-05-03T14:03:37.926Z</time></trkpt><trkpt lat="45.43415209599569" lon="7.7271545573009615"><ele>672.0</ele><time>2026-05-03T14:03:38.926Z</time></trkpt><trkpt lat="45.43419506167138" lon="7.727250917769921"><ele>672.0</ele><time>2026-05-03T14:03:39.926Z</time></trkpt><trkpt lat="45.43422464555088" lon="7.727370525785381"><ele>672.0</ele><time>2026-05-03T14:03:40.926Z</time></trkpt><trkpt lat="45.434231949260884" lon="7.727481424675876"><ele>672.0</ele><time>2026-05-03T14:03:41.926Z</time></trkpt><trkpt lat="45.43422251914918" lon="7.7275803191227155"><ele>672.0</ele><time>2026-05-03T14:03:42.926Z</time></trkpt><trkpt lat="45.434221163004345" lon="7.727702156917263"><ele>671.5</ele><time>2026-05-03T14:03:43.926Z</time></trkpt><trkpt lat="45.4342481132403" lon="7.727802343353903"><ele>671.0</ele><time>2026-05-03T14:03:44.926Z</time></trkpt><trkpt lat="45.43427226461122" lon="7.727907793441537"><ele>670.5</ele><time>2026-05-03T14:03:45.926Z</time></trkpt><trkpt lat="45.43430189023102" lon="7.728004699241756"><ele>670.0</ele><time>2026-05-03T14:03:46.926Z</time></trkpt><trkpt lat="45.43435488892556" lon="7.728087032819804"><ele>669.5</ele><time>2026-05-03T14:03:47.926Z</time></trkpt><trkpt lat="45.43440470501406" lon="7.7282551128919295"><ele>669.0</ele><time>2026-05-03T14:03:49.926Z</time></trkpt><trkpt lat="45.43441407960395" lon="7.728376044445123"><ele>669.0</ele><time>2026-05-03T14:03:50.926Z</time></trkpt><trkpt lat="45.43442271400406" lon="7.728510861252477"><ele>669.0</ele><time>2026-05-03T14:03:51.926Z</time></trkpt><trkpt lat="45.434447083830555" lon="7.7286113249478126"><ele>669.0</ele><time>2026-05-03T14:03:52.926Z</time></trkpt><trkpt lat="45.434479634021244" lon="7.7287633003543394"><ele>669.0</ele><time>2026-05-03T14:03:54.926Z</time></trkpt><trkpt lat="45.434456950606034" lon="7.728898965238731"><ele>669.0</ele><time>2026-05-03T14:03:56.925Z</time></trkpt><trkpt lat="45.43442430973401" lon="7.729040027834042"><ele>668.0</ele><time>2026-05-03T14:03:58.924Z</time></trkpt><trkpt lat="45.43440453060775" lon="7.7291602373979105"><ele>667.0</ele><time>2026-05-03T14:04:00.925Z</time></trkpt><trkpt lat="45.4344193888755" lon="7.7292861914067865"><ele>666.0</ele><time>2026-05-03T14:04:02.924Z</time></trkpt><trkpt lat="45.434413920192554" lon="7.729419270778358"><ele>665.0</ele><time>2026-05-03T14:04:04.924Z</time></trkpt><trkpt lat="45.434427823087276" lon="7.729540415175431"><ele>664.0</ele><time>2026-05-03T14:04:06.924Z</time></trkpt><trkpt lat="45.434376664154144" lon="7.729688514574024"><ele>662.4000000000001</ele><time>2026-05-03T14:04:08.925Z</time></trkpt><trkpt lat="45.43433323785794" lon="7.729829044795413"><ele>660.8</ele><time>2026-05-03T14:04:10.925Z</time></trkpt><trkpt lat="45.43429335178291" lon="7.729980787091987"><ele>659.2</ele><time>2026-05-03T14:04:12.925Z</time></trkpt><trkpt lat="45.43425847550724" lon="7.730104393955604"><ele>657.5999999999999</ele><time>2026-05-03T14:04:14.925Z</time></trkpt><trkpt lat="45.43427711854509" lon="7.7302398244331485"><ele>656.0</ele><time>2026-05-03T14:04:17.925Z</time></trkpt><trkpt lat="45.434297066021934" lon="7.730332283412274"><ele>656.0</ele><time>2026-05-03T14:04:19.925Z</time></trkpt><trkpt lat="45.43432667163717" lon="7.730419966376455"><ele>656.0</ele><time>2026-05-03T14:04:26.925Z</time></trkpt><trkpt lat="45.434346333173785" lon="7.7305091911144235"><ele>656.0</ele><time>2026-05-03T14:04:36.925Z</time></trkpt><trkpt lat="45.43444248099422" lon="7.730405169736283"><ele>656.0</ele><time>2026-05-03T14:05:10.925Z</time></trkpt><trkpt lat="45.43449515177153" lon="7.730351958311447"><ele>656.0</ele><time>2026-05-03T14:05:11.925Z</time></trkpt><trkpt lat="45.43454973608217" lon="7.730292133046051"><ele>656.0</ele><time>2026-05-03T14:05:12.925Z</time></trkpt><trkpt lat="45.434595775490706" lon="7.730209525601168"><ele>653.0</ele><time>2026-05-03T14:05:13.925Z</time></trkpt><trkpt lat="45.43464594187424" lon="7.730076950208571"><ele>650.0</ele><time>2026-05-03T14:05:14.925Z</time></trkpt><trkpt lat="45.43468547682945" lon="7.729929192021355"><ele>647.0</ele><time>2026-05-03T14:05:15.925Z</time></trkpt><trkpt lat="45.43473033526253" lon="7.729757210198794"><ele>644.0</ele><time>2026-05-03T14:05:16.925Z</time></trkpt><trkpt lat="45.43477908884392" lon="7.729591332353251"><ele>644.0</ele><time>2026-05-03T14:05:17.925Z</time></trkpt><trkpt lat="45.434823687013214" lon="7.729431825754267"><ele>644.0</ele><time>2026-05-03T14:05:18.925Z</time></trkpt><trkpt lat="45.43486135764716" lon="7.729272080772712"><ele>644.0</ele><time>2026-05-03T14:05:19.925Z</time></trkpt><trkpt lat="45.43488324122676" lon="7.729084498943575"><ele>644.0</ele><time>2026-05-03T14:05:20.925Z</time></trkpt><trkpt lat="45.43489422852647" lon="7.728893649651487"><ele>645.5</ele><time>2026-05-03T14:05:21.925Z</time></trkpt><trkpt lat="45.43489159449552" lon="7.728668602941606"><ele>647.0</ele><time>2026-05-03T14:05:22.926Z</time></trkpt><trkpt lat="45.43487938840979" lon="7.728491583718183"><ele>648.5</ele><time>2026-05-03T14:05:23.926Z</time></trkpt><trkpt lat="45.43483806383376" lon="7.728334995856879"><ele>650.0</ele><time>2026-05-03T14:05:24.926Z</time></trkpt><trkpt lat="45.43480128253548" lon="7.728234753488767"><ele>650.0</ele><time>2026-05-03T14:05:25.926Z</time></trkpt><trkpt lat="45.43479799820964" lon="7.72813899094865"><ele>650.0</ele><time>2026-05-03T14:05:26.926Z</time></trkpt><trkpt lat="45.43479226528668" lon="7.727985439233541"><ele>650.0</ele><time>2026-05-03T14:05:27.926Z</time></trkpt><trkpt lat="45.434784183809654" lon="7.727829367637052"><ele>650.0</ele><time>2026-05-03T14:05:28.926Z</time></trkpt><trkpt lat="45.434787685762984" lon="7.727710723021361"><ele>650.0</ele><time>2026-05-03T14:05:29.926Z</time></trkpt><trkpt lat="45.43477756515296" lon="7.7276095596659875"><ele>650.0</ele><time>2026-05-03T14:05:31.926Z</time></trkpt><trkpt lat="45.4348201557929" lon="7.727439614658181"><ele>648.8</ele><time>2026-05-03T14:05:33.926Z</time></trkpt><trkpt lat="45.43482719322035" lon="7.727263965085731"><ele>647.6</ele><time>2026-05-03T14:05:35.926Z</time></trkpt><trkpt lat="45.434827714555496" lon="7.727125416338031"><ele>646.4000000000001</ele><time>2026-05-03T14:05:36.926Z</time></trkpt><trkpt lat="45.43482746416528" lon="7.726980096742696"><ele>645.2</ele><time>2026-05-03T14:05:37.926Z</time></trkpt><trkpt lat="45.43482507503078" lon="7.726841350358791"><ele>644.0</ele><time>2026-05-03T14:05:38.926Z</time></trkpt><trkpt lat="45.43480195007634" lon="7.726688477394323"><ele>642.6</ele><time>2026-05-03T14:05:39.926Z</time></trkpt><trkpt lat="45.43479339693875" lon="7.7265453834017945"><ele>641.2</ele><time>2026-05-03T14:05:40.926Z</time></trkpt><trkpt lat="45.43480923874763" lon="7.726389009443378"><ele>639.8000000000001</ele><time>2026-05-03T14:05:41.926Z</time></trkpt><trkpt lat="45.43482833965769" lon="7.726259527829569"><ele>638.4000000000001</ele><time>2026-05-03T14:05:42.926Z</time></trkpt><trkpt lat="45.434871730171096" lon="7.726152550065823"><ele>637.0</ele><time>2026-05-03T14:05:43.926Z</time></trkpt><trkpt lat="45.43492838110483" lon="7.726064567583334"><ele>637.5</ele><time>2026-05-03T14:05:44.926Z</time></trkpt><trkpt lat="45.43495453607322" lon="7.725943424081837"><ele>638.0</ele><time>2026-05-03T14:05:45.926Z</time></trkpt><trkpt lat="45.43495159798213" lon="7.725819209816059"><ele>638.5</ele><time>2026-05-03T14:05:46.926Z</time></trkpt><trkpt lat="45.43494307417472" lon="7.7257053134072"><ele>639.0</ele><time>2026-05-03T14:05:47.926Z</time></trkpt><trkpt lat="45.434945463573115" lon="7.725598474928765"><ele>639.5</ele><time>2026-05-03T14:05:48.926Z</time></trkpt><trkpt lat="45.43497517547544" lon="7.725500557115377"><ele>640.0</ele><time>2026-05-03T14:05:49.926Z</time></trkpt><trkpt lat="45.43502514500438" lon="7.725427409986322"><ele>640.0</ele><time>2026-05-03T14:05:50.926Z</time></trkpt><trkpt lat="45.43517214966043" lon="7.725427418975177"><ele>640.0</ele><time>2026-05-03T14:05:52.926Z</time></trkpt><trkpt lat="45.435241847661146" lon="7.725453038290488"><ele>640.0</ele><time>2026-05-03T14:05:53.926Z</time></trkpt><trkpt lat="45.43533702882992" lon="7.725474384358806"><ele>640.0</ele><time>2026-05-03T14:05:54.926Z</time></trkpt><trkpt lat="45.43542485584766" lon="7.725391811048767"><ele>640.0</ele><time>2026-05-03T14:05:55.926Z</time></trkpt><trkpt lat="45.43549980143823" lon="7.7252604917843595"><ele>638.4</ele><time>2026-05-03T14:05:56.926Z</time></trkpt><trkpt lat="45.435577082200126" lon="7.725127771186602"><ele>636.8</ele><time>2026-05-03T14:05:57.926Z</time></trkpt><trkpt lat="45.43563791579751" lon="7.725001393992112"><ele>635.2</ele><time>2026-05-03T14:05:58.926Z</time></trkpt><trkpt lat="45.43566841522812" lon="7.724886177146893"><ele>633.6</ele><time>2026-05-03T14:05:59.926Z</time></trkpt><trkpt lat="45.435689457177475" lon="7.724750890143872"><ele>632.0</ele><time>2026-05-03T14:06:00.926Z</time></trkpt><trkpt lat="45.43568588299762" lon="7.724566553618454"><ele>635.0</ele><time>2026-05-03T14:06:01.926Z</time></trkpt><trkpt lat="45.43569088486923" lon="7.724377670942283"><ele>638.0</ele><time>2026-05-03T14:06:02.923Z</time></trkpt><trkpt lat="45.43570450704954" lon="7.724195747959859"><ele>641.0</ele><time>2026-05-03T14:06:03.923Z</time></trkpt><trkpt lat="45.43574393255131" lon="7.724072810701475"><ele>644.0</ele><time>2026-05-03T14:06:04.923Z</time></trkpt><trkpt lat="45.43578143491887" lon="7.723946927126637"><ele>644.0</ele><time>2026-05-03T14:06:05.924Z</time></trkpt><trkpt lat="45.43578774528895" lon="7.723841563673615"><ele>644.0</ele><time>2026-05-03T14:06:06.923Z</time></trkpt><trkpt lat="45.43578485275916" lon="7.723683594485327"><ele>644.0</ele><time>2026-05-03T14:06:08.924Z</time></trkpt><trkpt lat="45.43580530687516" lon="7.723555698846227"><ele>644.0</ele><time>2026-05-03T14:06:10.923Z</time></trkpt><trkpt lat="45.43584419682154" lon="7.723443273030297"><ele>644.0</ele><time>2026-05-03T14:06:12.924Z</time></trkpt><trkpt lat="45.43591424662454" lon="7.723349770561886"><ele>644.6666666666666</ele><time>2026-05-03T14:06:43.924Z</time></trkpt><trkpt lat="45.43599646892433" lon="7.723337195638514"><ele>645.3333333333333</ele><time>2026-05-03T14:06:45.924Z</time></trkpt><trkpt lat="45.4360957296881" lon="7.7232993474106175"><ele>646.0</ele><time>2026-05-03T14:06:47.924Z</time></trkpt><trkpt lat="45.43616487404543" lon="7.723271379695971"><ele>646.6666666666666</ele><time>2026-05-03T14:06:48.924Z</time></trkpt><trkpt lat="45.43624297017052" lon="7.723286937410662"><ele>647.3333333333334</ele><time>2026-05-03T14:06:49.924Z</time></trkpt><trkpt lat="45.43632011036749" lon="7.72331288081999"><ele>648.0</ele><time>2026-05-03T14:06:50.924Z</time></trkpt><trkpt lat="45.436400336524784" lon="7.723339902482486"><ele>648.8333333333334</ele><time>2026-05-03T14:06:51.924Z</time></trkpt><trkpt lat="45.43647712204206" lon="7.7233515936712225"><ele>649.6666666666666</ele><time>2026-05-03T14:06:52.924Z</time></trkpt><trkpt lat="45.43655482160753" lon="7.723348352380837"><ele>650.5</ele><time>2026-05-03T14:06:53.924Z</time></trkpt><trkpt lat="45.43662270336411" lon="7.723313909278952"><ele>651.3333333333333</ele><time>2026-05-03T14:06:54.924Z</time></trkpt><trkpt lat="45.436682209231456" lon="7.723282252436214"><ele>652.1666666666666</ele><time>2026-05-03T14:06:55.924Z</time></trkpt><trkpt lat="45.43676628409275" lon="7.723209310287444"><ele>653.0</ele><time>2026-05-03T14:06:56.924Z</time></trkpt><trkpt lat="45.43686115210541" lon="7.723139815211577"><ele>653.0</ele><time>2026-05-03T14:06:57.924Z</time></trkpt><trkpt lat="45.43696363083715" lon="7.7230751491216125"><ele>653.0</ele><time>2026-05-03T14:06:58.924Z</time></trkpt><trkpt lat="45.43705836149594" lon="7.722994465381056"><ele>653.0</ele><time>2026-05-03T14:06:59.924Z</time></trkpt><trkpt lat="45.437116300483424" lon="7.72294849287222"><ele>653.0</ele><time>2026-05-03T14:07:00.924Z</time></trkpt><trkpt lat="45.43719569335752" lon="7.722968580400349"><ele>653.0</ele><time>2026-05-03T14:07:02.924Z</time></trkpt><trkpt lat="45.437289426578154" lon="7.723056209488451"><ele>655.0</ele><time>2026-05-03T14:07:03.924Z</time></trkpt><trkpt lat="45.43739283253208" lon="7.723158660004368"><ele>657.0</ele><time>2026-05-03T14:07:04.924Z</time></trkpt><trkpt lat="45.43746972859613" lon="7.723250936083539"><ele>659.0</ele><time>2026-05-03T14:07:05.924Z</time></trkpt><trkpt lat="45.43753731141991" lon="7.723375148621139"><ele>661.0</ele><time>2026-05-03T14:07:06.924Z</time></trkpt><trkpt lat="45.437594105375034" lon="7.723480268122254"><ele>663.0</ele><time>2026-05-03T14:07:07.924Z</time></trkpt><trkpt lat="45.43769333976141" lon="7.723561708192973"><ele>663.0</ele><time>2026-05-03T14:07:08.924Z</time></trkpt><trkpt lat="45.437818973940495" lon="7.723582591962436"><ele>663.0</ele><time>2026-05-03T14:07:09.924Z</time></trkpt><trkpt lat="45.43792073713721" lon="7.723553081035107"><ele>663.0</ele><time>2026-05-03T14:07:10.924Z</time></trkpt><trkpt lat="45.438007495297185" lon="7.723474323740144"><ele>663.0</ele><time>2026-05-03T14:07:11.924Z</time></trkpt><trkpt lat="45.43807545134836" lon="7.723399765844864"><ele>663.0</ele><time>2026-05-03T14:07:12.924Z</time></trkpt><trkpt lat="45.438187212804024" lon="7.72346924697395"><ele>664.3333333333334</ele><time>2026-05-03T14:07:14.924Z</time></trkpt><trkpt lat="45.43823712723106" lon="7.723550709111104"><ele>665.6666666666666</ele><time>2026-05-03T14:07:15.924Z</time></trkpt><trkpt lat="45.438294794723426" lon="7.723595021788836"><ele>667.0</ele><time>2026-05-03T14:07:16.924Z</time></trkpt><trkpt lat="45.438361814456485" lon="7.723654668137365"><ele>668.3333333333333</ele><time>2026-05-03T14:07:17.924Z</time></trkpt><trkpt lat="45.43840928110683" lon="7.723741544668387"><ele>669.6666666666666</ele><time>2026-05-03T14:07:18.924Z</time></trkpt><trkpt lat="45.43842268789718" lon="7.723870354956516"><ele>671.0</ele><time>2026-05-03T14:07:19.924Z</time></trkpt><trkpt lat="45.438416439094155" lon="7.7240469861777505"><ele>671.0</ele><time>2026-05-03T14:07:20.924Z</time></trkpt><trkpt lat="45.43842132176012" lon="7.7242278499501"><ele>671.0</ele><time>2026-05-03T14:07:21.924Z</time></trkpt><trkpt lat="45.43842426352141" lon="7.724367170101973"><ele>671.0</ele><time>2026-05-03T14:07:22.924Z</time></trkpt><trkpt lat="45.43849698614792" lon="7.724436281466163"><ele>671.0</ele><time>2026-05-03T14:07:23.924Z</time></trkpt><trkpt lat="45.438585585613936" lon="7.7244826934024875"><ele>671.0</ele><time>2026-05-03T14:07:24.924Z</time></trkpt><trkpt lat="45.43871436619986" lon="7.724514162889111"><ele>671.0</ele><time>2026-05-03T14:07:25.924Z</time></trkpt><trkpt lat="45.43883997853394" lon="7.7245691317213705"><ele>671.0</ele><time>2026-05-03T14:07:26.924Z</time></trkpt><trkpt lat="45.43894178561204" lon="7.724567506754052"><ele>671.0</ele><time>2026-05-03T14:07:27.924Z</time></trkpt><trkpt lat="45.43902777866944" lon="7.7245107120472385"><ele>671.0</ele><time>2026-05-03T14:07:28.924Z</time></trkpt><trkpt lat="45.43912612679592" lon="7.724381914188376"><ele>674.8</ele><time>2026-05-03T14:07:29.924Z</time></trkpt><trkpt lat="45.43922708031665" lon="7.724274345078884"><ele>678.5999999999999</ele><time>2026-05-03T14:07:30.924Z</time></trkpt><trkpt lat="45.43935376560093" lon="7.7242595061508865"><ele>682.4</ele><time>2026-05-03T14:07:31.924Z</time></trkpt><trkpt lat="45.439445180657685" lon="7.724256923207394"><ele>686.2</ele><time>2026-05-03T14:07:32.924Z</time></trkpt><trkpt lat="45.43949289946382" lon="7.724325048324682"><ele>690.0</ele><time>2026-05-03T14:07:34.924Z</time></trkpt><trkpt lat="45.43940558939441" lon="7.7242564786203305"><ele>690.0</ele><time>2026-05-03T14:07:40.924Z</time></trkpt><trkpt lat="45.43933760763154" lon="7.724222165649561"><ele>690.0</ele><time>2026-05-03T14:07:45.924Z</time></trkpt><trkpt lat="45.4392394455699" lon="7.724209220727512"><ele>690.0</ele><time>2026-05-03T14:07:56.925Z</time></trkpt><trkpt lat="45.43913593557356" lon="7.724185035529841"><ele>690.0</ele><time>2026-05-03T14:07:58.925Z</time></trkpt><trkpt lat="45.439062067019805" lon="7.724168300697039"><ele>690.0</ele><time>2026-05-03T14:07:59.925Z</time></trkpt><trkpt lat="45.439015169415505" lon="7.724105799219616"><ele>690.0</ele><time>2026-05-03T14:08:00.925Z</time></trkpt><trkpt lat="45.438982498737616" lon="7.723997063768251"><ele>690.0</ele><time>2026-05-03T14:08:01.925Z</time></trkpt><trkpt lat="45.43897679071989" lon="7.723849416915999"><ele>690.0</ele><time>2026-05-03T14:08:02.925Z</time></trkpt><trkpt lat="45.43897997657411" lon="7.723730202561047"><ele>690.0</ele><time>2026-05-03T14:08:03.925Z</time></trkpt><trkpt lat="45.43901229247882" lon="7.723588604020235"><ele>690.0</ele><time>2026-05-03T14:08:04.925Z</time></trkpt><trkpt lat="45.439055012608975" lon="7.723451217346037"><ele>690.0</ele><time>2026-05-03T14:08:05.925Z</time></trkpt><trkpt lat="45.43905746117622" lon="7.72332561970377"><ele>692.4</ele><time>2026-05-03T14:08:06.925Z</time></trkpt><trkpt lat="45.43903605793479" lon="7.7232063392444035"><ele>694.8</ele><time>2026-05-03T14:08:07.925Z</time></trkpt><trkpt lat="45.43899462713423" lon="7.723040757150907"><ele>697.2</ele><time>2026-05-03T14:08:08.923Z</time></trkpt><trkpt lat="45.43897300089268" lon="7.72287724184643"><ele>699.6</ele><time>2026-05-03T14:08:09.922Z</time></trkpt><trkpt lat="45.43895649679624" lon="7.722768587788208"><ele>702.0</ele><time>2026-05-03T14:08:10.922Z</time></trkpt><trkpt lat="45.439020810414306" lon="7.722641669025468"><ele>702.2</ele><time>2026-05-03T14:08:12.923Z</time></trkpt><trkpt lat="45.43909921955144" lon="7.7226156161020825"><ele>702.4000000000001</ele><time>2026-05-03T14:08:14.923Z</time></trkpt><trkpt lat="45.43919606486011" lon="7.722577143287241"><ele>702.5999999999999</ele><time>2026-05-03T14:08:18.923Z</time></trkpt><trkpt lat="45.439316246517166" lon="7.722577317759135"><ele>702.8</ele><time>2026-05-03T14:08:21.923Z</time></trkpt><trkpt lat="45.43938583829262" lon="7.722591890677649"><ele>703.0</ele><time>2026-05-03T14:08:22.924Z</time></trkpt><trkpt lat="45.4394954004941" lon="7.722607745551415"><ele>703.0</ele><time>2026-05-03T14:08:24.927Z</time></trkpt><trkpt lat="45.43957823908277" lon="7.722657866345327"><ele>703.0</ele><time>2026-05-03T14:08:26.93Z</time></trkpt><trkpt lat="45.43966238427145" lon="7.722716688309031"><ele>703.0</ele><time>2026-05-03T14:08:28.932Z</time></trkpt><trkpt lat="45.43975431539809" lon="7.722800976730924"><ele>703.0</ele><time>2026-05-03T14:08:30.934Z</time></trkpt><trkpt lat="45.439835727111344" lon="7.722798380462965"><ele>703.0</ele><time>2026-05-03T14:08:32.936Z</time></trkpt><trkpt lat="45.439908214562706" lon="7.7226920072938565"><ele>705.5</ele><time>2026-05-03T14:08:34.937Z</time></trkpt><trkpt lat="45.43997960456597" lon="7.7226117755106625"><ele>708.0</ele><time>2026-05-03T14:08:36.939Z</time></trkpt><trkpt lat="45.44002218868464" lon="7.7225311512055095"><ele>710.5</ele><time>2026-05-03T14:08:38.94Z</time></trkpt><trkpt lat="45.440074807546544" lon="7.722458521848472"><ele>713.0</ele><time>2026-05-03T14:08:40.941Z</time></trkpt><trkpt lat="45.44011733136775" lon="7.722392003780294"><ele>715.5</ele><time>2026-05-03T14:08:41.942Z</time></trkpt><trkpt lat="45.440197185369506" lon="7.722329936256429"><ele>718.0</ele><time>2026-05-03T14:08:43.942Z</time></trkpt><trkpt lat="45.440280927217614" lon="7.722271938421381"><ele>718.0</ele><time>2026-05-03T14:08:46.944Z</time></trkpt><trkpt lat="45.44035135550113" lon="7.722220014671649"><ele>718.0</ele><time>2026-05-03T14:08:49.945Z</time></trkpt><trkpt lat="45.440448621836616" lon="7.722218721665873"><ele>718.0</ele><time>2026-05-03T14:08:52.945Z</time></trkpt><trkpt lat="45.44053094734992" lon="7.722236949903646"><ele>718.0</ele><time>2026-05-03T14:08:55.946Z</time></trkpt><trkpt lat="45.44061042883505" lon="7.722207754025035"><ele>718.0</ele><time>2026-05-03T14:09:40.95Z</time></trkpt><trkpt lat="45.44064313103828" lon="7.722314310064758"><ele>718.0</ele><time>2026-05-03T14:09:48.95Z</time></trkpt><trkpt lat="45.440708039151026" lon="7.722312854842169"><ele>720.5</ele><time>2026-05-03T14:09:50.95Z</time></trkpt><trkpt lat="45.44077367585872" lon="7.722322205381067"><ele>723.0</ele><time>2026-05-03T14:09:58.95Z</time></trkpt><trkpt lat="45.44083557233327" lon="7.722268658649697"><ele>725.5</ele><time>2026-05-03T14:10:03.95Z</time></trkpt><trkpt lat="45.440856705918804" lon="7.722172944133576"><ele>728.0</ele><time>2026-05-03T14:10:06.95Z</time></trkpt><trkpt lat="45.44088657657623" lon="7.722042618032823"><ele>730.5</ele><time>2026-05-03T14:10:09.95Z</time></trkpt><trkpt lat="45.440986355617696" lon="7.7220716802785505"><ele>733.0</ele><time>2026-05-03T14:10:12.95Z</time></trkpt><trkpt lat="45.441076131089844" lon="7.7220438764240855"><ele>732.9999999999999</ele><time>2026-05-03T14:10:14.949Z</time></trkpt><trkpt lat="45.44112393126972" lon="7.72198533462941"><ele>733.0</ele><time>2026-05-03T14:10:16.948Z</time></trkpt><trkpt lat="45.44119205015452" lon="7.7220180926568895"><ele>733.0</ele><time>2026-05-03T14:10:18.949Z</time></trkpt><trkpt lat="45.44125507937696" lon="7.722003839098529"><ele>733.0</ele><time>2026-05-03T14:10:20.948Z</time></trkpt><trkpt lat="45.44129594537308" lon="7.721890910320784"><ele>733.0</ele><time>2026-05-03T14:10:23.949Z</time></trkpt><trkpt lat="45.441328249587116" lon="7.721777880813341"><ele>732.9999999999999</ele><time>2026-05-03T14:10:46.948Z</time></trkpt><trkpt lat="45.44125707364748" lon="7.721808836696985"><ele>733.0</ele><time>2026-05-03T14:10:49.948Z</time></trkpt><trkpt lat="45.44119397013225" lon="7.721844005474219"><ele>733.0</ele><time>2026-05-03T14:10:53.948Z</time></trkpt><trkpt lat="45.44112499723702" lon="7.72188154480865"><ele>733.0</ele><time>2026-05-03T14:10:57.948Z</time></trkpt><trkpt lat="45.44106347474962" lon="7.7218395881921165"><ele>733.0</ele><time>2026-05-03T14:11:03.948Z</time></trkpt><trkpt lat="45.44100060703481" lon="7.721904544866832"><ele>733.0</ele><time>2026-05-03T14:11:07.948Z</time></trkpt><trkpt lat="45.44088848889775" lon="7.722044533999981"><ele>733.0</ele><time>2026-05-03T14:11:27.949Z</time></trkpt><trkpt lat="45.44086624999242" lon="7.722171349087997"><ele>733.0</ele><time>2026-05-03T14:11:34.949Z</time></trkpt><trkpt lat="45.44079091146385" lon="7.72223892489927"><ele>733.0</ele><time>2026-05-03T14:11:38.949Z</time></trkpt><trkpt lat="45.440724794301985" lon="7.722225070960909"><ele>733.0</ele><time>2026-05-03T14:11:41.949Z</time></trkpt><trkpt lat="45.44070801376395" lon="7.72231948873889"><ele>733.0</ele><time>2026-05-03T14:11:50.949Z</time></trkpt><trkpt lat="45.440686575031265" lon="7.722426097666576"><ele>733.0</ele><time>2026-05-03T14:12:13.95Z</time></trkpt><trkpt lat="45.440770038477794" lon="7.722544801810202"><ele>733.0</ele><time>2026-05-03T14:13:58.95Z</time></trkpt><trkpt lat="45.440848327322456" lon="7.722576113635683"><ele>733.0</ele><time>2026-05-03T14:13:59.95Z</time></trkpt><trkpt lat="45.44093200085499" lon="7.722621404870096"><ele>733.0</ele><time>2026-05-03T14:14:00.95Z</time></trkpt><trkpt lat="45.44104313782492" lon="7.722649111874054"><ele>733.0</ele><time>2026-05-03T14:14:01.95Z</time></trkpt><trkpt lat="45.44113579428345" lon="7.722696901290561"><ele>733.0</ele><time>2026-05-03T14:14:02.95Z</time></trkpt><trkpt lat="45.4412137325872" lon="7.7227578853173"><ele>733.0</ele><time>2026-05-03T14:14:03.95Z</time></trkpt><trkpt lat="45.44129287994911" lon="7.7227775709674695"><ele>734.0</ele><time>2026-05-03T14:14:04.95Z</time></trkpt><trkpt lat="45.44142087921866" lon="7.722743017561129"><ele>735.0</ele><time>2026-05-03T14:14:06.95Z</time></trkpt><trkpt lat="45.44152059209883" lon="7.722725943535251"><ele>736.0</ele><time>2026-05-03T14:14:07.95Z</time></trkpt><trkpt lat="45.441603855272525" lon="7.722727691601092"><ele>737.0</ele><time>2026-05-03T14:14:08.95Z</time></trkpt><trkpt lat="45.44165550038971" lon="7.722781563440577"><ele>738.0</ele><time>2026-05-03T14:14:10.95Z</time></trkpt><trkpt lat="45.4417139561142" lon="7.722971162093048"><ele>738.0</ele><time>2026-05-03T14:14:12.95Z</time></trkpt><trkpt lat="45.44177677998775" lon="7.723082770761389"><ele>738.0</ele><time>2026-05-03T14:14:13.95Z</time></trkpt><trkpt lat="45.441814325316145" lon="7.72319130000279"><ele>738.0</ele><time>2026-05-03T14:14:14.95Z</time></trkpt><trkpt lat="45.44184121255882" lon="7.723293275743354"><ele>738.0</ele><time>2026-05-03T14:14:15.95Z</time></trkpt><trkpt lat="45.44187689443205" lon="7.7233900610335"><ele>738.0</ele><time>2026-05-03T14:14:16.95Z</time></trkpt><trkpt lat="45.44193324687897" lon="7.723488491411123"><ele>738.0</ele><time>2026-05-03T14:14:17.95Z</time></trkpt><trkpt lat="45.44198944729167" lon="7.723606257396896"><ele>737.2</ele><time>2026-05-03T14:14:18.95Z</time></trkpt><trkpt lat="45.442026026579455" lon="7.72377167438933"><ele>736.4</ele><time>2026-05-03T14:14:19.951Z</time></trkpt><trkpt lat="45.442040775883804" lon="7.723905176247361"><ele>735.6</ele><time>2026-05-03T14:14:20.951Z</time></trkpt><trkpt lat="45.44203470624692" lon="7.724019364433396"><ele>734.8000000000001</ele><time>2026-05-03T14:14:21.951Z</time></trkpt><trkpt lat="45.44210650036446" lon="7.724150741294606"><ele>734.0</ele><time>2026-05-03T14:14:23.951Z</time></trkpt><trkpt lat="45.442191616622985" lon="7.724216878279296"><ele>735.25</ele><time>2026-05-03T14:14:25.951Z</time></trkpt><trkpt lat="45.442296508564425" lon="7.7242806453738595"><ele>736.5</ele><time>2026-05-03T14:14:27.95Z</time></trkpt><trkpt lat="45.44247031313985" lon="7.724417769294126"><ele>737.75</ele><time>2026-05-03T14:14:30.949Z</time></trkpt><trkpt lat="45.44254542179485" lon="7.72445194217566"><ele>739.0</ele><time>2026-05-03T14:14:31.949Z</time></trkpt><trkpt lat="45.44262060927188" lon="7.724446622353683"><ele>739.0</ele><time>2026-05-03T14:14:32.949Z</time></trkpt><trkpt lat="45.44271162178173" lon="7.7244367533053415"><ele>739.0</ele><time>2026-05-03T14:14:33.949Z</time></trkpt><trkpt lat="45.44281260175845" lon="7.724436747987786"><ele>739.0</ele><time>2026-05-03T14:14:34.949Z</time></trkpt><trkpt lat="45.442915355556316" lon="7.724462220066823"><ele>739.0</ele><time>2026-05-03T14:14:35.949Z</time></trkpt><trkpt lat="45.442994931268125" lon="7.724501977533898"><ele>739.0</ele><time>2026-05-03T14:14:36.949Z</time></trkpt><trkpt lat="45.443066738722884" lon="7.724591691557998"><ele>744.5</ele><time>2026-05-03T14:14:37.949Z</time></trkpt><trkpt lat="45.443157610337366" lon="7.724721442075601"><ele>750.0</ele><time>2026-05-03T14:14:38.949Z</time></trkpt><trkpt lat="45.44321357834328" lon="7.724838460788659"><ele>755.5</ele><time>2026-05-03T14:14:39.949Z</time></trkpt><trkpt lat="45.443317761282806" lon="7.725001155841954"><ele>761.0</ele><time>2026-05-03T14:14:41.949Z</time></trkpt><trkpt lat="45.44338832961934" lon="7.72503087026809"><ele>761.0</ele><time>2026-05-03T14:14:42.949Z</time></trkpt><trkpt lat="45.443463299415114" lon="7.725032791685271"><ele>761.0</ele><time>2026-05-03T14:14:43.949Z</time></trkpt><trkpt lat="45.44353044585058" lon="7.72500541855154"><ele>761.0</ele><time>2026-05-03T14:14:44.949Z</time></trkpt><trkpt lat="45.443615669729034" lon="7.724949876049779"><ele>761.0</ele><time>2026-05-03T14:14:45.949Z</time></trkpt><trkpt lat="45.443709671497935" lon="7.724818907217875"><ele>761.0</ele><time>2026-05-03T14:14:46.949Z</time></trkpt><trkpt lat="45.44377154796224" lon="7.7246874851225416"><ele>761.1999999999999</ele><time>2026-05-03T14:14:47.949Z</time></trkpt><trkpt lat="45.44385321049695" lon="7.724589632152807"><ele>761.4</ele><time>2026-05-03T14:14:48.949Z</time></trkpt><trkpt lat="45.443936099409" lon="7.72448089799636"><ele>761.6</ele><time>2026-05-03T14:14:49.95Z</time></trkpt><trkpt lat="45.44401509858312" lon="7.724389106217452"><ele>761.8</ele><time>2026-05-03T14:14:50.95Z</time></trkpt><trkpt lat="45.44409644137453" lon="7.724296415328588"><ele>762.0</ele><time>2026-05-03T14:14:51.95Z</time></trkpt><trkpt lat="45.44416898318222" lon="7.724194335381967"><ele>765.1666666666666</ele><time>2026-05-03T14:14:52.95Z</time></trkpt><trkpt lat="45.44423306682527" lon="7.724096236893966"><ele>768.3333333333333</ele><time>2026-05-03T14:14:53.95Z</time></trkpt><trkpt lat="45.44429986206828" lon="7.724018975901527"><ele>771.5</ele><time>2026-05-03T14:14:54.95Z</time></trkpt><trkpt lat="45.44436315972722" lon="7.7239701933695075"><ele>774.6666666666666</ele><time>2026-05-03T14:14:55.95Z</time></trkpt><trkpt lat="45.44440376371168" lon="7.723894090722829"><ele>777.8333333333333</ele><time>2026-05-03T14:14:56.95Z</time></trkpt><trkpt lat="45.444421555281046" lon="7.7238067949385965"><ele>781.0</ele><time>2026-05-03T14:14:57.95Z</time></trkpt><trkpt lat="45.44443235804852" lon="7.723699939062615"><ele>781.0</ele><time>2026-05-03T14:14:58.95Z</time></trkpt><trkpt lat="45.44446898969983" lon="7.723517228157633"><ele>781.0</ele><time>2026-05-03T14:15:00.95Z</time></trkpt><trkpt lat="45.44451753118129" lon="7.723437531258326"><ele>781.0</ele><time>2026-05-03T14:15:01.95Z</time></trkpt><trkpt lat="45.444605599315906" lon="7.723414568334758"><ele>781.0</ele><time>2026-05-03T14:15:02.95Z</time></trkpt><trkpt lat="45.44467860506187" lon="7.723389142465872"><ele>781.0</ele><time>2026-05-03T14:15:03.95Z</time></trkpt><trkpt lat="45.44478348976495" lon="7.7233065978054105"><ele>781.0</ele><time>2026-05-03T14:15:05.95Z</time></trkpt><trkpt lat="45.44485748732217" lon="7.723289332974379"><ele>781.0</ele><time>2026-05-03T14:15:07.95Z</time></trkpt><trkpt lat="45.444918099156766" lon="7.723263617079838"><ele>781.0</ele><time>2026-05-03T14:15:12.95Z</time></trkpt><trkpt lat="45.4449688344377" lon="7.723355496177977"><ele>781.0</ele><time>2026-05-03T14:15:51.951Z</time></trkpt><trkpt lat="45.44501564899615" lon="7.723423446077011"><ele>781.0</ele><time>2026-05-03T14:15:53.951Z</time></trkpt><trkpt lat="45.44509624387405" lon="7.7234424300326285"><ele>781.0</ele><time>2026-05-03T14:15:55.951Z</time></trkpt><trkpt lat="45.44515536261228" lon="7.7234001039750435"><ele>781.0</ele><time>2026-05-03T14:15:56.951Z</time></trkpt><trkpt lat="45.445212498828695" lon="7.723330978120618"><ele>781.0</ele><time>2026-05-03T14:15:57.951Z</time></trkpt><trkpt lat="45.44526378938194" lon="7.723268767751948"><ele>781.0</ele><time>2026-05-03T14:15:58.951Z</time></trkpt><trkpt lat="45.44531432721126" lon="7.723204789184716"><ele>781.0</ele><time>2026-05-03T14:15:59.951Z</time></trkpt><trkpt lat="45.44536826759341" lon="7.723143001423096"><ele>781.0</ele><time>2026-05-03T14:16:00.951Z</time></trkpt><trkpt lat="45.44542280181621" lon="7.723081907463668"><ele>781.0</ele><time>2026-05-03T14:16:01.951Z</time></trkpt><trkpt lat="45.445483340387895" lon="7.723016835658038"><ele>781.0</ele><time>2026-05-03T14:16:02.951Z</time></trkpt><trkpt lat="45.44554256259082" lon="7.722947154941649"><ele>781.0</ele><time>2026-05-03T14:16:03.951Z</time></trkpt><trkpt lat="45.445613245841464" lon="7.722874662625404"><ele>779.4999999999999</ele><time>2026-05-03T14:16:04.951Z</time></trkpt><trkpt lat="45.4456891146229" lon="7.722835920530636"><ele>778.0</ele><time>2026-05-03T14:16:05.951Z</time></trkpt><trkpt lat="45.445761840863845" lon="7.722802555879445"><ele>776.5</ele><time>2026-05-03T14:16:06.951Z</time></trkpt><trkpt lat="45.44582576981721" lon="7.722816527590146"><ele>775.0</ele><time>2026-05-03T14:16:07.951Z</time></trkpt><trkpt lat="45.44590043560701" lon="7.722892928254636"><ele>773.4999999999999</ele><time>2026-05-03T14:16:08.951Z</time></trkpt><trkpt lat="45.445944764642995" lon="7.722996464024745"><ele>772.0</ele><time>2026-05-03T14:16:09.951Z</time></trkpt><trkpt lat="45.445956872309246" lon="7.723132816712373"><ele>772.0</ele><time>2026-05-03T14:16:10.951Z</time></trkpt><trkpt lat="45.44593172380398" lon="7.723265433218426"><ele>772.0</ele><time>2026-05-03T14:16:11.951Z</time></trkpt><trkpt lat="45.4459266269469" lon="7.723385869623165"><ele>772.0</ele><time>2026-05-03T14:16:12.951Z</time></trkpt><trkpt lat="45.4459100496495" lon="7.723527798096768"><ele>772.0</ele><time>2026-05-03T14:16:13.951Z</time></trkpt><trkpt lat="45.44586237355228" lon="7.723639584534224"><ele>772.0</ele><time>2026-05-03T14:16:14.951Z</time></trkpt><trkpt lat="45.445827215717166" lon="7.723769144889884"><ele>771.2</ele><time>2026-05-03T14:16:15.951Z</time></trkpt><trkpt lat="45.445796283977096" lon="7.723921337149169"><ele>770.4000000000001</ele><time>2026-05-03T14:16:16.951Z</time></trkpt><trkpt lat="45.44577566435882" lon="7.724090420135822"><ele>769.5999999999999</ele><time>2026-05-03T14:16:17.951Z</time></trkpt><trkpt lat="45.445771056396296" lon="7.724246770812735"><ele>768.8</ele><time>2026-05-03T14:16:18.951Z</time></trkpt><trkpt lat="45.4457765017733" lon="7.7243977612331305"><ele>768.0</ele><time>2026-05-03T14:16:19.951Z</time></trkpt><trkpt lat="45.44578227185431" lon="7.7245039553255594"><ele>766.1666666666666</ele><time>2026-05-03T14:16:20.951Z</time></trkpt><trkpt lat="45.44578717074674" lon="7.724627163394195"><ele>764.3333333333334</ele><time>2026-05-03T14:16:21.951Z</time></trkpt><trkpt lat="45.44580827452171" lon="7.724744438608995"><ele>762.5</ele><time>2026-05-03T14:16:22.951Z</time></trkpt><trkpt lat="45.44580172766627" lon="7.724867580345791"><ele>760.6666666666667</ele><time>2026-05-03T14:16:23.951Z</time></trkpt><trkpt lat="45.44580731890172" lon="7.72499402715071"><ele>758.8333333333334</ele><time>2026-05-03T14:16:24.951Z</time></trkpt><trkpt lat="45.445830822957404" lon="7.725112603537383"><ele>757.0</ele><time>2026-05-03T14:16:25.951Z</time></trkpt><trkpt lat="45.445870611826756" lon="7.725224050984867"><ele>758.0</ele><time>2026-05-03T14:16:26.951Z</time></trkpt><trkpt lat="45.445914224439214" lon="7.725289499606288"><ele>759.0</ele><time>2026-05-03T14:16:27.951Z</time></trkpt><trkpt lat="45.445973868847055" lon="7.725389205722898"><ele>760.0</ele><time>2026-05-03T14:16:28.951Z</time></trkpt><trkpt lat="45.446039430194325" lon="7.7254670283468565"><ele>761.0</ele><time>2026-05-03T14:16:29.952Z</time></trkpt><trkpt lat="45.446113570750654" lon="7.725547707402649"><ele>762.0</ele><time>2026-05-03T14:16:30.952Z</time></trkpt><trkpt lat="45.446189994946025" lon="7.725617951603189"><ele>763.0</ele><time>2026-05-03T14:16:31.952Z</time></trkpt><trkpt lat="45.44626242235002" lon="7.7257171029460245"><ele>762.5999999999999</ele><time>2026-05-03T14:16:32.95Z</time></trkpt><trkpt lat="45.44632793327851" lon="7.725823882461361"><ele>762.1999999999999</ele><time>2026-05-03T14:16:33.949Z</time></trkpt><trkpt lat="45.44640245626668" lon="7.725941559884221"><ele>761.8</ele><time>2026-05-03T14:16:34.949Z</time></trkpt><trkpt lat="45.446470323782435" lon="7.726061771586534"><ele>761.4</ele><time>2026-05-03T14:16:35.949Z</time></trkpt><trkpt lat="45.44653179343881" lon="7.7261901323717685"><ele>761.0</ele><time>2026-05-03T14:16:36.949Z</time></trkpt><trkpt lat="45.44658240637827" lon="7.726318498843794"><ele>761.0</ele><time>2026-05-03T14:16:37.949Z</time></trkpt><trkpt lat="45.44661772516987" lon="7.7264597116091105"><ele>761.0</ele><time>2026-05-03T14:16:38.949Z</time></trkpt><trkpt lat="45.44666536038099" lon="7.726600523340858"><ele>761.0</ele><time>2026-05-03T14:16:39.95Z</time></trkpt><trkpt lat="45.44668937802607" lon="7.7267485800217175"><ele>761.0</ele><time>2026-05-03T14:16:40.95Z</time></trkpt><trkpt lat="45.446707321561654" lon="7.72687101954443"><ele>761.0</ele><time>2026-05-03T14:16:41.949Z</time></trkpt><trkpt lat="45.446731953899885" lon="7.726991422194753"><ele>762.1999999999999</ele><time>2026-05-03T14:16:42.949Z</time></trkpt><trkpt lat="45.44675910160164" lon="7.727100905288787"><ele>763.4</ele><time>2026-05-03T14:16:43.949Z</time></trkpt><trkpt lat="45.44677975374754" lon="7.727220735116301"><ele>764.6</ele><time>2026-05-03T14:16:44.95Z</time></trkpt><trkpt lat="45.446807292720855" lon="7.7273488092128435"><ele>765.8</ele><time>2026-05-03T14:16:45.95Z</time></trkpt><trkpt lat="45.44685041607976" lon="7.727498881346915"><ele>767.0</ele><time>2026-05-03T14:16:46.95Z</time></trkpt><trkpt lat="45.44693566012296" lon="7.727652471554997"><ele>767.0</ele><time>2026-05-03T14:16:47.95Z</time></trkpt><trkpt lat="45.447025848745014" lon="7.727743111569022"><ele>767.0</ele><time>2026-05-03T14:16:48.95Z</time></trkpt><trkpt lat="45.44711440700062" lon="7.727809462622789"><ele>767.0</ele><time>2026-05-03T14:16:49.95Z</time></trkpt><trkpt lat="45.447201334694036" lon="7.727867762660686"><ele>767.0</ele><time>2026-05-03T14:16:50.95Z</time></trkpt><trkpt lat="45.44729134729443" lon="7.727921796924268"><ele>767.0</ele><time>2026-05-03T14:16:51.95Z</time></trkpt><trkpt lat="45.44738112009571" lon="7.727977860521389"><ele>767.0</ele><time>2026-05-03T14:16:52.95Z</time></trkpt><trkpt lat="45.447474630857" lon="7.728034087944843"><ele>767.0</ele><time>2026-05-03T14:16:53.95Z</time></trkpt><trkpt lat="45.44754725944748" lon="7.7281237815767465"><ele>767.0</ele><time>2026-05-03T14:16:54.95Z</time></trkpt><trkpt lat="45.44762253413263" lon="7.728237827131217"><ele>767.0</ele><time>2026-05-03T14:16:55.95Z</time></trkpt><trkpt lat="45.44767784290825" lon="7.728352717619512"><ele>767.0</ele><time>2026-05-03T14:16:56.95Z</time></trkpt><trkpt lat="45.44773122430656" lon="7.728468514015192"><ele>768.2</ele><time>2026-05-03T14:16:57.95Z</time></trkpt><trkpt lat="45.44779610348359" lon="7.728590292322333"><ele>769.4000000000001</ele><time>2026-05-03T14:16:58.95Z</time></trkpt><trkpt lat="45.44784786563984" lon="7.72871968973542"><ele>770.5999999999999</ele><time>2026-05-03T14:16:59.95Z</time></trkpt><trkpt lat="45.447914624889215" lon="7.72882448065697"><ele>771.8</ele><time>2026-05-03T14:17:00.95Z</time></trkpt><trkpt lat="45.447949496641684" lon="7.728956564188123"><ele>773.0</ele><time>2026-05-03T14:17:01.95Z</time></trkpt><trkpt lat="45.44795715083423" lon="7.729083609846503"><ele>773.0</ele><time>2026-05-03T14:17:02.95Z</time></trkpt><trkpt lat="45.44795472305977" lon="7.729212735578531"><ele>773.0</ele><time>2026-05-03T14:17:03.95Z</time></trkpt><trkpt lat="45.44795103654482" lon="7.7293485051126956"><ele>773.0</ele><time>2026-05-03T14:17:04.95Z</time></trkpt><trkpt lat="45.44795642344837" lon="7.729501733027646"><ele>773.0</ele><time>2026-05-03T14:17:05.95Z</time></trkpt><trkpt lat="45.447964507335904" lon="7.729638093841669"><ele>773.0</ele><time>2026-05-03T14:17:06.95Z</time></trkpt><trkpt lat="45.44796870700395" lon="7.729783217904731"><ele>768.8</ele><time>2026-05-03T14:17:07.95Z</time></trkpt><trkpt lat="45.44798355519271" lon="7.729931890974224"><ele>764.5999999999999</ele><time>2026-05-03T14:17:08.95Z</time></trkpt><trkpt lat="45.44799375602467" lon="7.7300648911260215"><ele>760.4000000000001</ele><time>2026-05-03T14:17:09.95Z</time></trkpt><trkpt lat="45.448010444502266" lon="7.730203133554671"><ele>756.2</ele><time>2026-05-03T14:17:10.95Z</time></trkpt><trkpt lat="45.4480341378874" lon="7.730338151940939"><ele>752.0</ele><time>2026-05-03T14:17:11.95Z</time></trkpt><trkpt lat="45.44807472146521" lon="7.730463867173571"><ele>752.0</ele><time>2026-05-03T14:17:12.95Z</time></trkpt><trkpt lat="45.44810174870603" lon="7.730583823942917"><ele>752.0</ele><time>2026-05-03T14:17:13.95Z</time></trkpt><trkpt lat="45.44814030805076" lon="7.730684678411086"><ele>752.0</ele><time>2026-05-03T14:17:14.95Z</time></trkpt><trkpt lat="45.448172444887554" lon="7.730764969526533"><ele>752.0</ele><time>2026-05-03T14:17:16.95Z</time></trkpt><trkpt lat="45.44814068052862" lon="7.730657922755665"><ele>752.0</ele><time>2026-05-03T14:17:19.95Z</time></trkpt><trkpt lat="45.44819920813172" lon="7.730524029334511"><ele>752.0</ele><time>2026-05-03T14:17:20.95Z</time></trkpt><trkpt lat="45.44821025705735" lon="7.730400739369128"><ele>752.0</ele><time>2026-05-03T14:17:22.95Z</time></trkpt><trkpt lat="45.44828619855432" lon="7.73029719815057"><ele>752.0</ele><time>2026-05-03T14:17:24.95Z</time></trkpt><trkpt lat="45.44839609498187" lon="7.73019854456542"><ele>752.0</ele><time>2026-05-03T14:17:26.95Z</time></trkpt><trkpt lat="45.448539035606395" lon="7.730161252753892"><ele>752.0</ele><time>2026-05-03T14:17:28.951Z</time></trkpt><trkpt lat="45.44860772711872" lon="7.730177406521693"><ele>751.5</ele><time>2026-05-03T14:17:29.951Z</time></trkpt><trkpt lat="45.448703787358596" lon="7.730166472364276"><ele>751.0</ele><time>2026-05-03T14:17:31.951Z</time></trkpt><trkpt lat="45.44877267226441" lon="7.73016283849484"><ele>750.5</ele><time>2026-05-03T14:17:33.951Z</time></trkpt><trkpt lat="45.44883472780756" lon="7.730192434285224"><ele>750.0</ele><time>2026-05-03T14:17:39.951Z</time></trkpt><trkpt lat="45.448935900350484" lon="7.730193029876221"><ele>749.5</ele><time>2026-05-03T14:17:46.951Z</time></trkpt><trkpt lat="45.448980391821166" lon="7.73027648206435"><ele>749.0</ele><time>2026-05-03T14:17:49.951Z</time></trkpt><trkpt lat="45.4490554328448" lon="7.730317833700647"><ele>748.0</ele><time>2026-05-03T14:17:59.951Z</time></trkpt><trkpt lat="45.44912956550249" lon="7.73036849584877"><ele>747.0</ele><time>2026-05-03T14:18:02.951Z</time></trkpt><trkpt lat="45.449207242265544" lon="7.730456287640761"><ele>746.0</ele><time>2026-05-03T14:18:05.951Z</time></trkpt><trkpt lat="45.4492714032975" lon="7.730543664716868"><ele>745.0</ele><time>2026-05-03T14:18:07.951Z</time></trkpt><trkpt lat="45.44933009328449" lon="7.730659475708455"><ele>744.0</ele><time>2026-05-03T14:18:09.951Z</time></trkpt><trkpt lat="45.449381313920895" lon="7.730754688973849"><ele>744.0000000000001</ele><time>2026-05-03T14:18:10.951Z</time></trkpt><trkpt lat="45.449444200523686" lon="7.730868453789144"><ele>744.0</ele><time>2026-05-03T14:18:11.951Z</time></trkpt><trkpt lat="45.44949590894131" lon="7.73096498271706"><ele>744.0</ele><time>2026-05-03T14:18:12.951Z</time></trkpt><trkpt lat="45.449510552220886" lon="7.731055402075082"><ele>744.0</ele><time>2026-05-03T14:18:14.951Z</time></trkpt><trkpt lat="45.4495345996413" lon="7.731141829664167"><ele>744.0</ele><time>2026-05-03T14:18:20.952Z</time></trkpt><trkpt lat="45.449598649198194" lon="7.731171850852054"><ele>744.0000000000001</ele><time>2026-05-03T14:18:24.952Z</time></trkpt><trkpt lat="45.44965230485073" lon="7.731221200878369"><ele>744.0</ele><time>2026-05-03T14:18:31.952Z</time></trkpt><trkpt lat="45.44963806327388" lon="7.73132288166222"><ele>742.0</ele><time>2026-05-03T14:18:38.949Z</time></trkpt><trkpt lat="45.44966925260811" lon="7.731413367818645"><ele>740.0</ele><time>2026-05-03T14:19:07.95Z</time></trkpt><trkpt lat="45.449682499402655" lon="7.731506071657945"><ele>738.0</ele><time>2026-05-03T14:19:14.95Z</time></trkpt><trkpt lat="45.44973995355906" lon="7.731633915132385"><ele>736.0</ele><time>2026-05-03T14:19:29.95Z</time></trkpt><trkpt lat="45.44978817716612" lon="7.731709896743862"><ele>734.0</ele><time>2026-05-03T14:19:30.95Z</time></trkpt><trkpt lat="45.44984107620699" lon="7.7317819449835135"><ele>732.0</ele><time>2026-05-03T14:19:31.95Z</time></trkpt><trkpt lat="45.44989982888924" lon="7.731886802359853"><ele>734.3333333333334</ele><time>2026-05-03T14:19:32.95Z</time></trkpt><trkpt lat="45.44994180960494" lon="7.731989150339857"><ele>736.6666666666666</ele><time>2026-05-03T14:19:33.95Z</time></trkpt><trkpt lat="45.4500007275803" lon="7.732096033935754"><ele>739.0</ele><time>2026-05-03T14:19:34.95Z</time></trkpt><trkpt lat="45.45006833188343" lon="7.732179766251959"><ele>741.3333333333333</ele><time>2026-05-03T14:19:35.95Z</time></trkpt><trkpt lat="45.450130686582185" lon="7.732220769652218"><ele>743.6666666666666</ele><time>2026-05-03T14:19:36.95Z</time></trkpt><trkpt lat="45.450217357514084" lon="7.732243737810897"><ele>746.0</ele><time>2026-05-03T14:19:37.95Z</time></trkpt><trkpt lat="45.45031734310083" lon="7.7322717807440435"><ele>746.0</ele><time>2026-05-03T14:19:38.95Z</time></trkpt><trkpt lat="45.450402626470215" lon="7.732317118722539"><ele>746.0</ele><time>2026-05-03T14:19:39.95Z</time></trkpt><trkpt lat="45.45047093125629" lon="7.7323808280717365"><ele>746.0</ele><time>2026-05-03T14:19:40.95Z</time></trkpt><trkpt lat="45.45057620889739" lon="7.732452863634163"><ele>746.0</ele><time>2026-05-03T14:19:41.95Z</time></trkpt><trkpt lat="45.45065201609628" lon="7.732565595346736"><ele>746.0</ele><time>2026-05-03T14:19:42.95Z</time></trkpt><trkpt lat="45.45071826469213" lon="7.732675846203146"><ele>744.3333333333333</ele><time>2026-05-03T14:19:43.95Z</time></trkpt><trkpt lat="45.45078177425851" lon="7.732793551788112"><ele>742.6666666666666</ele><time>2026-05-03T14:19:44.95Z</time></trkpt><trkpt lat="45.45084440213068" lon="7.732917707079385"><ele>741.0</ele><time>2026-05-03T14:19:45.95Z</time></trkpt><trkpt lat="45.45090105491998" lon="7.732998888611263"><ele>739.3333333333334</ele><time>2026-05-03T14:19:46.95Z</time></trkpt><trkpt lat="45.45097337810987" lon="7.733039854196524"><ele>737.6666666666667</ele><time>2026-05-03T14:19:47.95Z</time></trkpt><trkpt lat="45.451044619642495" lon="7.733085376018242"><ele>736.0</ele><time>2026-05-03T14:19:48.951Z</time></trkpt><trkpt lat="45.451115137772305" lon="7.7331649665116995"><ele>736.0</ele><time>2026-05-03T14:19:49.951Z</time></trkpt><trkpt lat="45.45118896738006" lon="7.733256939285348"><ele>736.0</ele><time>2026-05-03T14:19:50.951Z</time></trkpt><trkpt lat="45.451237731886174" lon="7.73334477620733"><ele>736.0</ele><time>2026-05-03T14:19:51.951Z</time></trkpt><trkpt lat="45.451272577701815" lon="7.733453548472799"><ele>736.0</ele><time>2026-05-03T14:19:52.951Z</time></trkpt><trkpt lat="45.45130528679704" lon="7.733599393715799"><ele>736.0</ele><time>2026-05-03T14:19:53.951Z</time></trkpt><trkpt lat="45.4513443167893" lon="7.733730817260816"><ele>736.0</ele><time>2026-05-03T14:19:54.951Z</time></trkpt><trkpt lat="45.45135723909977" lon="7.733851876972012"><ele>736.0</ele><time>2026-05-03T14:19:55.951Z</time></trkpt><trkpt lat="45.45136594234399" lon="7.733956802598135"><ele>736.0</ele><time>2026-05-03T14:19:56.951Z</time></trkpt><trkpt lat="45.45134248013895" lon="7.734063359004463"><ele>736.0</ele><time>2026-05-03T14:19:57.951Z</time></trkpt><trkpt lat="45.4513116686238" lon="7.734155815674942"><ele>736.0</ele><time>2026-05-03T14:19:58.951Z</time></trkpt><trkpt lat="45.451260195021526" lon="7.734212670441242"><ele>736.0</ele><time>2026-05-03T14:19:59.951Z</time></trkpt><trkpt lat="45.45116790821969" lon="7.734302753070933"><ele>736.0</ele><time>2026-05-03T14:20:01.951Z</time></trkpt><trkpt lat="45.45111785833722" lon="7.734372355342275"><ele>736.0</ele><time>2026-05-03T14:20:02.951Z</time></trkpt><trkpt lat="45.45104753746272" lon="7.7344385711153185"><ele>736.0</ele><time>2026-05-03T14:20:03.951Z</time></trkpt><trkpt lat="45.450983917606116" lon="7.7344993163047535"><ele>736.0</ele><time>2026-05-03T14:20:04.951Z</time></trkpt><trkpt lat="45.45093550714565" lon="7.734567899262127"><ele>736.0</ele><time>2026-05-03T14:20:15.951Z</time></trkpt><trkpt lat="45.45090097035421" lon="7.734647945082137"><ele>736.0</ele><time>2026-05-03T14:20:22.951Z</time></trkpt><trkpt lat="45.45087361749396" lon="7.734739472518476"><ele>736.0</ele><time>2026-05-03T14:20:28.951Z</time></trkpt><trkpt lat="45.45080100329851" lon="7.734804462654071"><ele>734.4</ele><time>2026-05-03T14:21:05.95Z</time></trkpt><trkpt lat="45.4507390885798" lon="7.734885808614635"><ele>732.8</ele><time>2026-05-03T14:21:08.95Z</time></trkpt><trkpt lat="45.45064408740667" lon="7.734963024405764"><ele>731.1999999999999</ele><time>2026-05-03T14:21:10.95Z</time></trkpt><trkpt lat="45.450494668789425" lon="7.7350080885818695"><ele>729.5999999999999</ele><time>2026-05-03T14:21:12.95Z</time></trkpt><trkpt lat="45.45040950992548" lon="7.735006376101204"><ele>728.0</ele><time>2026-05-03T14:21:13.95Z</time></trkpt><trkpt lat="45.45034603013832" lon="7.73501431961804"><ele>728.0</ele><time>2026-05-03T14:21:14.95Z</time></trkpt><trkpt lat="45.45028278170043" lon="7.7350385075180155"><ele>728.0</ele><time>2026-05-03T14:21:15.95Z</time></trkpt><trkpt lat="45.450211646970274" lon="7.735086651671137"><ele>728.0</ele><time>2026-05-03T14:21:16.95Z</time></trkpt><trkpt lat="45.4501336492229" lon="7.73513561795336"><ele>728.0</ele><time>2026-05-03T14:21:17.95Z</time></trkpt><trkpt lat="45.450055320534936" lon="7.735146832477469"><ele>728.0</ele><time>2026-05-03T14:21:18.95Z</time></trkpt><trkpt lat="45.449984548774324" lon="7.735144666508279"><ele>728.0</ele><time>2026-05-03T14:21:19.95Z</time></trkpt><trkpt lat="45.44991468687721" lon="7.735114895035371"><ele>728.0</ele><time>2026-05-03T14:21:20.95Z</time></trkpt><trkpt lat="45.44984381717293" lon="7.735086892651293"><ele>728.0</ele><time>2026-05-03T14:21:21.95Z</time></trkpt><trkpt lat="45.44976335940471" lon="7.735068280007414"><ele>728.0</ele><time>2026-05-03T14:21:22.95Z</time></trkpt><trkpt lat="45.449650968925425" lon="7.7350512609752355"><ele>728.0</ele><time>2026-05-03T14:21:23.95Z</time></trkpt><trkpt lat="45.449553729561764" lon="7.735035256398263"><ele>728.0</ele><time>2026-05-03T14:21:24.95Z</time></trkpt><trkpt lat="45.44947876229388" lon="7.734997615242624"><ele>728.0</ele><time>2026-05-03T14:21:25.95Z</time></trkpt><trkpt lat="45.44939378249329" lon="7.735009387883298"><ele>726.8333333333333</ele><time>2026-05-03T14:21:26.95Z</time></trkpt><trkpt lat="45.44929418539791" lon="7.735040799069341"><ele>725.6666666666666</ele><time>2026-05-03T14:21:27.95Z</time></trkpt><trkpt lat="45.44921271721859" lon="7.735081420937633"><ele>724.5</ele><time>2026-05-03T14:21:28.95Z</time></trkpt><trkpt lat="45.449161686520185" lon="7.7351758533788955"><ele>723.3333333333334</ele><time>2026-05-03T14:21:29.95Z</time></trkpt><trkpt lat="45.44908279047284" lon="7.735225327302186"><ele>722.1666666666667</ele><time>2026-05-03T14:21:30.95Z</time></trkpt><trkpt lat="45.44900128822548" lon="7.735225678926311"><ele>721.0</ele><time>2026-05-03T14:21:31.95Z</time></trkpt><trkpt lat="45.44892408873837" lon="7.735217864057483"><ele>721.0</ele><time>2026-05-03T14:21:32.95Z</time></trkpt><trkpt lat="45.44884022863743" lon="7.735195869481188"><ele>721.0</ele><time>2026-05-03T14:21:33.95Z</time></trkpt><trkpt lat="45.44877859794482" lon="7.735137343703897"><ele>721.0</ele><time>2026-05-03T14:21:34.95Z</time></trkpt><trkpt lat="45.44871302568682" lon="7.735070903882829"><ele>721.0</ele><time>2026-05-03T14:21:35.95Z</time></trkpt><trkpt lat="45.44864731354385" lon="7.735063637330029"><ele>721.0</ele><time>2026-05-03T14:21:36.95Z</time></trkpt><trkpt lat="45.44853832829026" lon="7.735151896479978"><ele>721.0</ele><time>2026-05-03T14:21:38.95Z</time></trkpt><trkpt lat="45.448457994921114" lon="7.735218143615487"><ele>716.8</ele><time>2026-05-03T14:21:39.95Z</time></trkpt><trkpt lat="45.44839546830222" lon="7.735325621675482"><ele>712.5999999999999</ele><time>2026-05-03T14:21:40.95Z</time></trkpt><trkpt lat="45.44834542263193" lon="7.735461097566639"><ele>708.4</ele><time>2026-05-03T14:21:41.95Z</time></trkpt><trkpt lat="45.448306128345514" lon="7.735589739565317"><ele>704.2</ele><time>2026-05-03T14:21:42.95Z</time></trkpt><trkpt lat="45.44824978693139" lon="7.735676442993828"><ele>700.0</ele><time>2026-05-03T14:21:43.95Z</time></trkpt><trkpt lat="45.448185447533454" lon="7.73575968125828"><ele>700.0</ele><time>2026-05-03T14:21:44.95Z</time></trkpt><trkpt lat="45.44811702734184" lon="7.73582693354105"><ele>700.0</ele><time>2026-05-03T14:21:45.95Z</time></trkpt><trkpt lat="45.44804874562077" lon="7.735859340488207"><ele>700.0</ele><time>2026-05-03T14:21:46.95Z</time></trkpt><trkpt lat="45.447968501106324" lon="7.73586724363293"><ele>700.0</ele><time>2026-05-03T14:21:47.95Z</time></trkpt><trkpt lat="45.4478772581828" lon="7.735885224300857"><ele>700.0</ele><time>2026-05-03T14:21:48.95Z</time></trkpt><trkpt lat="45.44778497358723" lon="7.735910505924236"><ele>700.0</ele><time>2026-05-03T14:21:49.95Z</time></trkpt><trkpt lat="45.4477201464205" lon="7.735953266722997"><ele>700.1666666666667</ele><time>2026-05-03T14:21:50.95Z</time></trkpt><trkpt lat="45.44761901134283" lon="7.736020381432215"><ele>700.3333333333334</ele><time>2026-05-03T14:21:52.95Z</time></trkpt><trkpt lat="45.44756817239243" lon="7.736100592446358"><ele>700.5</ele><time>2026-05-03T14:21:55.951Z</time></trkpt><trkpt lat="45.44755277947043" lon="7.73619626366648"><ele>700.6666666666666</ele><time>2026-05-03T14:22:00.951Z</time></trkpt><trkpt lat="45.44753081283112" lon="7.736345839979214"><ele>700.8333333333333</ele><time>2026-05-03T14:22:03.951Z</time></trkpt><trkpt lat="45.44753665960436" lon="7.736451061078936"><ele>701.0</ele><time>2026-05-03T14:22:05.951Z</time></trkpt><trkpt lat="45.447527262851956" lon="7.736571554726136"><ele>701.0</ele><time>2026-05-03T14:22:07.951Z</time></trkpt><trkpt lat="45.44752835085146" lon="7.736685387681255"><ele>701.0</ele><time>2026-05-03T14:22:08.951Z</time></trkpt><trkpt lat="45.4475535203982" lon="7.736843574027175"><ele>701.0</ele><time>2026-05-03T14:22:09.951Z</time></trkpt><trkpt lat="45.447596336504276" lon="7.737003438964567"><ele>701.0</ele><time>2026-05-03T14:22:10.951Z</time></trkpt><trkpt lat="45.44764350030148" lon="7.737133817019102"><ele>701.0</ele><time>2026-05-03T14:22:11.951Z</time></trkpt><trkpt lat="45.44769250159307" lon="7.737252498593088"><ele>700.5999999999999</ele><time>2026-05-03T14:22:12.951Z</time></trkpt><trkpt lat="45.447751723675886" lon="7.737357527944202"><ele>700.2</ele><time>2026-05-03T14:22:13.951Z</time></trkpt><trkpt lat="45.44780925163972" lon="7.73747494115989"><ele>699.8</ele><time>2026-05-03T14:22:14.951Z</time></trkpt><trkpt lat="45.447853073309524" lon="7.73760885560278"><ele>699.4000000000001</ele><time>2026-05-03T14:22:15.951Z</time></trkpt><trkpt lat="45.447886425266056" lon="7.737719435707131"><ele>699.0</ele><time>2026-05-03T14:22:16.951Z</time></trkpt><trkpt lat="45.44790122742346" lon="7.737836594425195"><ele>697.4000000000001</ele><time>2026-05-03T14:22:17.951Z</time></trkpt><trkpt lat="45.44789559853866" lon="7.737974197127129"><ele>695.8</ele><time>2026-05-03T14:22:18.951Z</time></trkpt><trkpt lat="45.447897535714354" lon="7.738106234578059"><ele>694.2</ele><time>2026-05-03T14:22:19.951Z</time></trkpt><trkpt lat="45.44792428272891" lon="7.738231157487002"><ele>692.5999999999999</ele><time>2026-05-03T14:22:20.951Z</time></trkpt><trkpt lat="45.44798390209024" lon="7.7383465892260785"><ele>691.0</ele><time>2026-05-03T14:22:21.951Z</time></trkpt><trkpt lat="45.44803863202475" lon="7.7384551470674205"><ele>688.0</ele><time>2026-05-03T14:22:22.951Z</time></trkpt><trkpt lat="45.44809201065733" lon="7.738567657161392"><ele>685.0</ele><time>2026-05-03T14:22:23.951Z</time></trkpt><trkpt lat="45.44813261795503" lon="7.738655817256911"><ele>682.0</ele><time>2026-05-03T14:22:24.951Z</time></trkpt><trkpt lat="45.44816024934965" lon="7.738760958759972"><ele>679.0</ele><time>2026-05-03T14:22:25.951Z</time></trkpt><trkpt lat="45.4481935010792" lon="7.738880719419578"><ele>676.0</ele><time>2026-05-03T14:22:26.951Z</time></trkpt><trkpt lat="45.44823708219369" lon="7.738982134194688"><ele>673.0</ele><time>2026-05-03T14:22:27.951Z</time></trkpt><trkpt lat="45.448264749343" lon="7.739101341570121"><ele>673.0</ele><time>2026-05-03T14:22:28.951Z</time></trkpt><trkpt lat="45.448271568732025" lon="7.739215990634104"><ele>673.0</ele><time>2026-05-03T14:22:29.951Z</time></trkpt><trkpt lat="45.448264119682065" lon="7.739334377235291"><ele>673.0</ele><time>2026-05-03T14:22:30.951Z</time></trkpt><trkpt lat="45.44824117556051" lon="7.739457363554202"><ele>673.0</ele><time>2026-05-03T14:22:31.951Z</time></trkpt><trkpt lat="45.44820167621609" lon="7.739553175076434"><ele>673.0</ele><time>2026-05-03T14:22:32.951Z</time></trkpt><trkpt lat="45.4481438331629" lon="7.739636418039729"><ele>673.0</ele><time>2026-05-03T14:22:33.951Z</time></trkpt><trkpt lat="45.44807643518356" lon="7.739702864759911"><ele>672.0</ele><time>2026-05-03T14:22:34.951Z</time></trkpt><trkpt lat="45.44800852014096" lon="7.739775457937227"><ele>671.0</ele><time>2026-05-03T14:22:35.951Z</time></trkpt><trkpt lat="45.44795608164681" lon="7.739842944625907"><ele>670.0</ele><time>2026-05-03T14:22:36.951Z</time></trkpt><trkpt lat="45.44792105670913" lon="7.739922492014789"><ele>669.0</ele><time>2026-05-03T14:22:37.951Z</time></trkpt><trkpt lat="45.44786015263646" lon="7.739996656658007"><ele>668.0</ele><time>2026-05-03T14:22:38.951Z</time></trkpt><trkpt lat="45.44781783652248" lon="7.740071725988447"><ele>667.0</ele><time>2026-05-03T14:22:40.951Z</time></trkpt><trkpt lat="45.447778822852705" lon="7.740187801722228"><ele>665.8</ele><time>2026-05-03T14:22:47.952Z</time></trkpt><trkpt lat="45.4477468431195" lon="7.740272887172521"><ele>664.6</ele><time>2026-05-03T14:22:48.952Z</time></trkpt><trkpt lat="45.44770157100891" lon="7.74036027737258"><ele>663.4</ele><time>2026-05-03T14:22:50.949Z</time></trkpt><trkpt lat="45.44762181007285" lon="7.740498358169362"><ele>662.1999999999999</ele><time>2026-05-03T14:22:52.949Z</time></trkpt><trkpt lat="45.44754438443623" lon="7.740610199624715"><ele>661.0</ele><time>2026-05-03T14:22:54.949Z</time></trkpt><trkpt lat="45.44747869719438" lon="7.7407405942222685"><ele>661.0</ele><time>2026-05-03T14:22:56.949Z</time></trkpt><trkpt lat="45.447413207098684" lon="7.7408466877999205"><ele>661.0</ele><time>2026-05-03T14:22:58.949Z</time></trkpt><trkpt lat="45.44733920888816" lon="7.740958603070096"><ele>661.0</ele><time>2026-05-03T14:23:00.95Z</time></trkpt><trkpt lat="45.447295235846546" lon="7.741039924336899"><ele>661.0</ele><time>2026-05-03T14:23:01.95Z</time></trkpt><trkpt lat="45.44723966486084" lon="7.7411190814251345"><ele>661.0</ele><time>2026-05-03T14:23:02.95Z</time></trkpt><trkpt lat="45.44716602465056" lon="7.741192127951987"><ele>661.0</ele><time>2026-05-03T14:23:03.949Z</time></trkpt><trkpt lat="45.447086101832994" lon="7.741275034220344"><ele>658.8</ele><time>2026-05-03T14:23:04.949Z</time></trkpt><trkpt lat="45.44701156371886" lon="7.74136033822787"><ele>656.5999999999999</ele><time>2026-05-03T14:23:05.949Z</time></trkpt><trkpt lat="45.44694779597799" lon="7.74146441030489"><ele>654.4</ele><time>2026-05-03T14:23:06.949Z</time></trkpt><trkpt lat="45.44688860791606" lon="7.741593502827906"><ele>652.2</ele><time>2026-05-03T14:23:07.949Z</time></trkpt><trkpt lat="45.446827375046276" lon="7.7417048079609545"><ele>650.0</ele><time>2026-05-03T14:23:08.949Z</time></trkpt><trkpt lat="45.44676778498321" lon="7.741820098744366"><ele>650.4</ele><time>2026-05-03T14:23:09.949Z</time></trkpt><trkpt lat="45.446714939280405" lon="7.741940227112521"><ele>650.8</ele><time>2026-05-03T14:23:10.949Z</time></trkpt><trkpt lat="45.44664474503533" lon="7.742038842474571"><ele>651.2</ele><time>2026-05-03T14:23:11.949Z</time></trkpt><trkpt lat="45.44655782879288" lon="7.742144927646504"><ele>651.6</ele><time>2026-05-03T14:23:12.949Z</time></trkpt><trkpt lat="45.44647895472996" lon="7.7422490191325615"><ele>652.0</ele><time>2026-05-03T14:23:13.949Z</time></trkpt><trkpt lat="45.44640747347873" lon="7.7423543652718045"><ele>652.0</ele><time>2026-05-03T14:23:14.949Z</time></trkpt><trkpt lat="45.446345385625264" lon="7.742476962943562"><ele>652.0</ele><time>2026-05-03T14:23:15.949Z</time></trkpt><trkpt lat="45.446286421795826" lon="7.74260626783224"><ele>652.0</ele><time>2026-05-03T14:23:16.949Z</time></trkpt><trkpt lat="45.44623594107095" lon="7.742745352597621"><ele>652.0</ele><time>2026-05-03T14:23:17.949Z</time></trkpt><trkpt lat="45.44620220799916" lon="7.742878810036155"><ele>652.0</ele><time>2026-05-03T14:23:18.949Z</time></trkpt><trkpt lat="45.446181657887585" lon="7.74303611133073"><ele>648.6</ele><time>2026-05-03T14:23:19.949Z</time></trkpt><trkpt lat="45.446181934649246" lon="7.743178815038972"><ele>645.2</ele><time>2026-05-03T14:23:20.949Z</time></trkpt><trkpt lat="45.44620195444012" lon="7.743318484292628"><ele>641.8</ele><time>2026-05-03T14:23:21.949Z</time></trkpt><trkpt lat="45.446228262889804" lon="7.743465899033385"><ele>638.4</ele><time>2026-05-03T14:23:22.949Z</time></trkpt><trkpt lat="45.44629103411042" lon="7.743594072036293"><ele>635.0</ele><time>2026-05-03T14:23:23.949Z</time></trkpt><trkpt lat="45.44635153010783" lon="7.7436979057606505"><ele>635.0</ele><time>2026-05-03T14:23:24.949Z</time></trkpt><trkpt lat="45.44640820670827" lon="7.743791584594573"><ele>635.0</ele><time>2026-05-03T14:23:25.949Z</time></trkpt><trkpt lat="45.44646513916763" lon="7.743883380482735"><ele>635.0</ele><time>2026-05-03T14:23:26.949Z</time></trkpt><trkpt lat="45.44652148158437" lon="7.743973917937669"><ele>635.0</ele><time>2026-05-03T14:23:27.949Z</time></trkpt><trkpt lat="45.44656501661097" lon="7.744051960371319"><ele>635.0</ele><time>2026-05-03T14:23:28.949Z</time></trkpt><trkpt lat="45.44658358802141" lon="7.744138581276286"><ele>635.0</ele><time>2026-05-03T14:23:29.949Z</time></trkpt><trkpt lat="45.44669013185315" lon="7.744229806660131"><ele>635.0</ele><time>2026-05-03T14:23:31.949Z</time></trkpt><trkpt lat="45.446769588083505" lon="7.744363473640801"><ele>635.0</ele><time>2026-05-03T14:23:33.95Z</time></trkpt><trkpt lat="45.44681014523674" lon="7.744437801186854"><ele>635.0</ele><time>2026-05-03T14:23:34.95Z</time></trkpt><trkpt lat="45.4468454894283" lon="7.744538701117388"><ele>635.0</ele><time>2026-05-03T14:23:35.95Z</time></trkpt><trkpt lat="45.44690077090554" lon="7.74462890186891"><ele>635.0</ele><time>2026-05-03T14:23:36.95Z</time></trkpt><trkpt lat="45.44692276168244" lon="7.744720570817369"><ele>635.0</ele><time>2026-05-03T14:23:37.95Z</time></trkpt><trkpt lat="45.446972907539504" lon="7.744872971219171"><ele>632.6666666666666</ele><time>2026-05-03T14:23:39.95Z</time></trkpt><trkpt lat="45.446999229957285" lon="7.744962329873406"><ele>630.3333333333333</ele><time>2026-05-03T14:23:40.95Z</time></trkpt><trkpt lat="45.44702275377448" lon="7.745054650105161"><ele>628.0</ele><time>2026-05-03T14:23:41.95Z</time></trkpt><trkpt lat="45.44705400200334" lon="7.745162693778597"><ele>625.6666666666666</ele><time>2026-05-03T14:23:42.95Z</time></trkpt><trkpt lat="45.44707410776349" lon="7.745287020069848"><ele>623.3333333333334</ele><time>2026-05-03T14:23:43.95Z</time></trkpt><trkpt lat="45.44706348263784" lon="7.74546455274926"><ele>621.0</ele><time>2026-05-03T14:23:44.95Z</time></trkpt><trkpt lat="45.447055586110544" lon="7.745640900067354"><ele>619.4</ele><time>2026-05-03T14:23:45.95Z</time></trkpt><trkpt lat="45.44701131880541" lon="7.745717982916503"><ele>617.8</ele><time>2026-05-03T14:23:46.95Z</time></trkpt><trkpt lat="45.446942620160215" lon="7.745835028169062"><ele>616.1999999999999</ele><time>2026-05-03T14:23:48.95Z</time></trkpt><trkpt lat="45.4468465923783" lon="7.745917337350175"><ele>614.6</ele><time>2026-05-03T14:23:50.95Z</time></trkpt><trkpt lat="45.446777840121634" lon="7.746005181701276"><ele>613.0</ele><time>2026-05-03T14:23:52.95Z</time></trkpt><trkpt lat="45.44710721366093" lon="7.746579135706198"><ele>610.8333333333334</ele><time>2026-05-03T14:23:53.95Z</time></trkpt><trkpt lat="45.44713395385069" lon="7.74667640221543"><ele>608.6666666666667</ele><time>2026-05-03T14:23:54.95Z</time></trkpt><trkpt lat="45.4472139057436" lon="7.746795041228452"><ele>606.5</ele><time>2026-05-03T14:23:56.95Z</time></trkpt><trkpt lat="45.44723388516015" lon="7.746888908759744"><ele>604.3333333333334</ele><time>2026-05-03T14:23:57.95Z</time></trkpt><trkpt lat="45.44725821361348" lon="7.747011791790651"><ele>602.1666666666666</ele><time>2026-05-03T14:23:58.95Z</time></trkpt><trkpt lat="45.44728535306564" lon="7.747111708772248"><ele>600.0</ele><time>2026-05-03T14:23:59.95Z</time></trkpt><trkpt lat="45.44731978911857" lon="7.747189466169569"><ele>597.8333333333334</ele><time>2026-05-03T14:24:00.95Z</time></trkpt><trkpt lat="45.44730155901848" lon="7.7472976110187215"><ele>595.6666666666666</ele><time>2026-05-03T14:24:02.95Z</time></trkpt><trkpt lat="45.4472473011192" lon="7.747415808001048"><ele>593.5</ele><time>2026-05-03T14:24:04.95Z</time></trkpt><trkpt lat="45.447214130085584" lon="7.747493359067244"><ele>591.3333333333333</ele><time>2026-05-03T14:24:05.95Z</time></trkpt><trkpt lat="45.44719324317583" lon="7.7475849500843035"><ele>589.1666666666666</ele><time>2026-05-03T14:24:06.95Z</time></trkpt><trkpt lat="45.447188547355644" lon="7.747694091216916"><ele>587.0</ele><time>2026-05-03T14:24:07.95Z</time></trkpt><trkpt lat="45.44722373377492" lon="7.7478158114172375"><ele>585.0</ele><time>2026-05-03T14:24:09.95Z</time></trkpt><trkpt lat="45.44722313069392" lon="7.747982097835387"><ele>583.0</ele><time>2026-05-03T14:24:11.95Z</time></trkpt><trkpt lat="45.44720988613148" lon="7.748073532105025"><ele>581.0</ele><time>2026-05-03T14:24:12.95Z</time></trkpt><trkpt lat="45.44722833756862" lon="7.748179585119357"><ele>579.0</ele><time>2026-05-03T14:24:14.95Z</time></trkpt><trkpt lat="45.4472465280018" lon="7.74828196688515"><ele>577.0</ele><time>2026-05-03T14:24:16.95Z</time></trkpt><trkpt lat="45.44728833649165" lon="7.748396834964167"><ele>575.0</ele><time>2026-05-03T14:24:19.95Z</time></trkpt><trkpt lat="45.44730240624464" lon="7.748523481549569"><ele>575.0</ele><time>2026-05-03T14:24:22.95Z</time></trkpt><trkpt lat="45.44738191682349" lon="7.7485393038672115"><ele>575.0</ele><time>2026-05-03T14:24:25.951Z</time></trkpt><trkpt lat="45.4474546734214" lon="7.748535086624444"><ele>575.0</ele><time>2026-05-03T14:24:27.951Z</time></trkpt><trkpt lat="45.4475290445068" lon="7.748525394472449"><ele>575.0</ele><time>2026-05-03T14:24:29.951Z</time></trkpt><trkpt lat="45.44757902603124" lon="7.748582827355002"><ele>575.0</ele><time>2026-05-03T14:24:31.951Z</time></trkpt><trkpt lat="45.447500707795704" lon="7.748686159060319"><ele>575.0</ele><time>2026-05-03T14:24:33.951Z</time></trkpt><trkpt lat="45.44739403060401" lon="7.748730409523896"><ele>571.0</ele><time>2026-05-03T14:24:35.951Z</time></trkpt><trkpt lat="45.44733553434496" lon="7.74883498857516"><ele>567.0</ele><time>2026-05-03T14:24:37.951Z</time></trkpt><trkpt lat="45.44725586552888" lon="7.748932307955521"><ele>563.0</ele><time>2026-05-03T14:24:39.951Z</time></trkpt><trkpt lat="45.447139428952276" lon="7.748968269199175"><ele>559.0</ele><time>2026-05-03T14:24:41.951Z</time></trkpt><trkpt lat="45.447106396257134" lon="7.749056859655533"><ele>555.0</ele><time>2026-05-03T14:24:47.951Z</time></trkpt><trkpt lat="45.447150952772226" lon="7.749120555848408"><ele>555.0</ele><time>2026-05-03T14:24:49.951Z</time></trkpt><trkpt lat="45.4472555012904" lon="7.749220913656469"><ele>555.0</ele><time>2026-05-03T14:24:51.951Z</time></trkpt><trkpt lat="45.44731748961786" lon="7.74926432693652"><ele>555.0</ele><time>2026-05-03T14:24:52.951Z</time></trkpt><trkpt lat="45.447374377628144" lon="7.74932246801383"><ele>555.0</ele><time>2026-05-03T14:24:54.951Z</time></trkpt><trkpt lat="45.44744251513355" lon="7.749316181215805"><ele>555.0</ele><time>2026-05-03T14:24:56.949Z</time></trkpt><trkpt lat="45.44749867495505" lon="7.749270813028705"><ele>555.0</ele><time>2026-05-03T14:24:59.949Z</time></trkpt><trkpt lat="45.44754408558887" lon="7.749161793668956"><ele>555.0</ele><time>2026-05-03T14:25:04.948Z</time></trkpt><trkpt lat="45.44760623022526" lon="7.749087177773144"><ele>555.0</ele><time>2026-05-03T14:25:06.948Z</time></trkpt><trkpt lat="45.44770030714241" lon="7.748969842149558"><ele>555.0</ele><time>2026-05-03T14:25:08.949Z</time></trkpt><trkpt lat="45.44776881035239" lon="7.7488599914416"><ele>555.0</ele><time>2026-05-03T14:25:10.948Z</time></trkpt><trkpt lat="45.4478330533503" lon="7.748744745027527"><ele>555.0</ele><time>2026-05-03T14:25:12.948Z</time></trkpt><trkpt lat="45.44785906458273" lon="7.748640678317341"><ele>555.0</ele><time>2026-05-03T14:25:14.948Z</time></trkpt><trkpt lat="45.447906528352256" lon="7.748733724428314"><ele>555.0</ele><time>2026-05-03T14:25:19.948Z</time></trkpt><trkpt lat="45.447924322481306" lon="7.748821270736787"><ele>555.0</ele><time>2026-05-03T14:25:24.949Z</time></trkpt><trkpt lat="45.44788861383305" lon="7.74890791307861"><ele>555.0</ele><time>2026-05-03T14:25:51.949Z</time></trkpt><trkpt lat="45.447826275441045" lon="7.748998060885013"><ele>555.0</ele><time>2026-05-03T14:25:53.949Z</time></trkpt><trkpt lat="45.4477860077445" lon="7.7490926200210755"><ele>555.0</ele><time>2026-05-03T14:25:56.949Z</time></trkpt><trkpt lat="45.447806222738556" lon="7.749218953600654"><ele>555.0</ele><time>2026-05-03T14:25:58.949Z</time></trkpt><trkpt lat="45.447820174892755" lon="7.749307841491856"><ele>555.0</ele><time>2026-05-03T14:25:59.949Z</time></trkpt><trkpt lat="45.44781116318942" lon="7.749436902970319"><ele>555.0</ele><time>2026-05-03T14:26:01.949Z</time></trkpt><trkpt lat="45.44780429264049" lon="7.749549740682637"><ele>555.0</ele><time>2026-05-03T14:26:03.949Z</time></trkpt><trkpt lat="45.44780424839442" lon="7.749655074509011"><ele>555.0</ele><time>2026-05-03T14:26:05.949Z</time></trkpt><trkpt lat="45.447784400112525" lon="7.749757775312654"><ele>555.0</ele><time>2026-05-03T14:26:07.949Z</time></trkpt><trkpt lat="45.44771733541224" lon="7.749830291043631"><ele>550.3333333333334</ele><time>2026-05-03T14:26:10.95Z</time></trkpt><trkpt lat="45.44765937250827" lon="7.7498653858745135"><ele>545.6666666666666</ele><time>2026-05-03T14:26:14.95Z</time></trkpt><trkpt lat="45.44764337730346" lon="7.749965524656016"><ele>541.0</ele><time>2026-05-03T14:26:18.95Z</time></trkpt><trkpt lat="45.44763813758848" lon="7.750067672123822"><ele>536.3333333333333</ele><time>2026-05-03T14:26:23.95Z</time></trkpt><trkpt lat="45.4476574139318" lon="7.750155848214389"><ele>531.6666666666666</ele><time>2026-05-03T14:26:40.95Z</time></trkpt><trkpt lat="45.44773274505597" lon="7.750175528027453"><ele>527.0</ele><time>2026-05-03T14:26:44.95Z</time></trkpt><trkpt lat="45.44784046803173" lon="7.750183430760422"><ele>527.0</ele><time>2026-05-03T14:27:43.957Z</time></trkpt><trkpt lat="45.44777291819334" lon="7.750138835392758"><ele>527.0</ele><time>2026-05-03T14:27:53.961Z</time></trkpt><trkpt lat="45.44769768024119" lon="7.750135788092733"><ele>527.0</ele><time>2026-05-03T14:27:56.962Z</time></trkpt><trkpt lat="45.44760703389677" lon="7.750155240529026"><ele>527.0</ele><time>2026-05-03T14:27:59.962Z</time></trkpt><trkpt lat="45.447532388564326" lon="7.750137901114674"><ele>527.0</ele><time>2026-05-03T14:28:02.963Z</time></trkpt><trkpt lat="45.44746447801784" lon="7.750134831334489"><ele>527.0</ele><time>2026-05-03T14:28:06.964Z</time></trkpt><trkpt lat="45.447400801633776" lon="7.750156419751995"><ele>527.0</ele><time>2026-05-03T14:28:22.965Z</time></trkpt><trkpt lat="45.447328651983106" lon="7.750203419183921"><ele>527.0</ele><time>2026-05-03T14:28:28.966Z</time></trkpt><trkpt lat="45.44724459479331" lon="7.750188111514805"><ele>527.0</ele><time>2026-05-03T14:28:32.966Z</time></trkpt><trkpt lat="45.44720679907443" lon="7.750273780160433"><ele>527.0</ele><time>2026-05-03T14:28:36.966Z</time></trkpt><trkpt lat="45.447199694040876" lon="7.750364861633804"><ele>527.0</ele><time>2026-05-03T14:28:44.966Z</time></trkpt><trkpt lat="45.44713838415675" lon="7.750385414067487"><ele>527.0</ele><time>2026-05-03T14:31:52.967Z</time></trkpt><trkpt lat="45.44704746280701" lon="7.750440558417529"><ele>522.6666666666666</ele><time>2026-05-03T14:31:54.967Z</time></trkpt><trkpt lat="45.44695506365951" lon="7.750478854603121"><ele>518.3333333333333</ele><time>2026-05-03T14:31:56.967Z</time></trkpt><trkpt lat="45.446895323505274" lon="7.7505500172092905"><ele>514.0</ele><time>2026-05-03T14:31:58.967Z</time></trkpt><trkpt lat="45.44692200060145" lon="7.75063243286505"><ele>509.66666666666663</ele><time>2026-05-03T14:32:00.967Z</time></trkpt><trkpt lat="45.447013283210644" lon="7.7506296706978395"><ele>505.3333333333333</ele><time>2026-05-03T14:32:02.967Z</time></trkpt><trkpt lat="45.44707500691345" lon="7.750651833811862"><ele>501.0</ele><time>2026-05-03T14:32:04.967Z</time></trkpt><trkpt lat="45.447144792448164" lon="7.750626557731246"><ele>501.0</ele><time>2026-05-03T14:32:06.967Z</time></trkpt><trkpt lat="45.44722531340694" lon="7.750643622920404"><ele>501.0</ele><time>2026-05-03T14:32:08.967Z</time></trkpt><trkpt lat="45.44731973422313" lon="7.750674724155009"><ele>501.0</ele><time>2026-05-03T14:32:10.967Z</time></trkpt><trkpt lat="45.447401352082345" lon="7.750747739336385"><ele>501.0</ele><time>2026-05-03T14:32:12.967Z</time></trkpt><trkpt lat="45.447478678196084" lon="7.750840899559365"><ele>501.0</ele><time>2026-05-03T14:32:14.968Z</time></trkpt><trkpt lat="45.44755865450925" lon="7.750940428255392"><ele>500.1666666666667</ele><time>2026-05-03T14:32:16.968Z</time></trkpt><trkpt lat="45.44761995062432" lon="7.751045290106432"><ele>499.33333333333337</ele><time>2026-05-03T14:32:18.968Z</time></trkpt><trkpt lat="45.4476494195168" lon="7.7511424021894095"><ele>498.5</ele><time>2026-05-03T14:32:20.968Z</time></trkpt><trkpt lat="45.44760633265875" lon="7.751216900745019"><ele>497.6666666666667</ele><time>2026-05-03T14:32:22.968Z</time></trkpt><trkpt lat="45.447535727510854" lon="7.751276212473908"><ele>496.83333333333337</ele><time>2026-05-03T14:32:24.968Z</time></trkpt><trkpt lat="45.447486049554826" lon="7.751377092039258"><ele>496.0</ele><time>2026-05-03T14:32:26.968Z</time></trkpt><trkpt lat="45.44743309042786" lon="7.751473312674781"><ele>496.00000000000006</ele><time>2026-05-03T14:32:28.968Z</time></trkpt><trkpt lat="45.44738600539108" lon="7.751562467895508"><ele>496.0</ele><time>2026-05-03T14:32:30.968Z</time></trkpt><trkpt lat="45.44748361905856" lon="7.75165579497261"><ele>496.0</ele><time>2026-05-03T14:32:34.968Z</time></trkpt><trkpt lat="45.44754465195192" lon="7.75168484845237"><ele>496.0</ele><time>2026-05-03T14:32:36.968Z</time></trkpt><trkpt lat="45.44762148679565" lon="7.751731367695543"><ele>496.00000000000006</ele><time>2026-05-03T14:32:38.968Z</time></trkpt><trkpt lat="45.44762248592289" lon="7.7518711440943795"><ele>496.0</ele><time>2026-05-03T14:32:40.968Z</time></trkpt><trkpt lat="45.447579739770525" lon="7.752005643453085"><ele>495.1666666666667</ele><time>2026-05-03T14:32:42.968Z</time></trkpt><trkpt lat="45.447548720967966" lon="7.752126766783444"><ele>494.33333333333337</ele><time>2026-05-03T14:32:44.968Z</time></trkpt><trkpt lat="45.447532544769885" lon="7.7522238567529"><ele>493.5</ele><time>2026-05-03T14:32:46.968Z</time></trkpt><trkpt lat="45.44758335819561" lon="7.75228779707821"><ele>492.66666666666663</ele><time>2026-05-03T14:32:50.968Z</time></trkpt><trkpt lat="45.44760353860746" lon="7.752382880889983"><ele>491.8333333333333</ele><time>2026-05-03T14:32:52.968Z</time></trkpt><trkpt lat="45.44756686110162" lon="7.752524651208385"><ele>491.0</ele><time>2026-05-03T14:33:43.968Z</time></trkpt><trkpt lat="45.44762014149992" lon="7.75240250499065"><ele>490.99999999999994</ele><time>2026-05-03T14:34:22.969Z</time></trkpt><trkpt lat="45.44756012716016" lon="7.752438091697394"><ele>491.0</ele><time>2026-05-03T14:35:22.97Z</time></trkpt><trkpt lat="45.447639210510914" lon="7.752462735785127"><ele>491.0</ele><time>2026-05-03T14:42:39.973Z</time></trkpt><trkpt lat="45.44765396532493" lon="7.752333883264344"><ele>491.0</ele><time>2026-05-03T14:42:41.973Z</time></trkpt><trkpt lat="45.447704728773374" lon="7.75215766589789"><ele>490.99999999999994</ele><time>2026-05-03T14:42:43.973Z</time></trkpt><trkpt lat="45.44774761764458" lon="7.752083160734226"><ele>491.0</ele><time>2026-05-03T14:42:44.973Z</time></trkpt><trkpt lat="45.44779383219231" lon="7.752002012928361"><ele>490.99999999999994</ele><time>2026-05-03T14:42:45.973Z</time></trkpt><trkpt lat="45.44785004080616" lon="7.751930000493316"><ele>491.0</ele><time>2026-05-03T14:42:46.973Z</time></trkpt><trkpt lat="45.447922929594526" lon="7.751870517716261"><ele>491.0</ele><time>2026-05-03T14:42:47.973Z</time></trkpt><trkpt lat="45.447967112627026" lon="7.751792114820306"><ele>491.0</ele><time>2026-05-03T14:42:48.973Z</time></trkpt><trkpt lat="45.44801487883945" lon="7.751658175751388"><ele>490.99999999999994</ele><time>2026-05-03T14:42:50.973Z</time></trkpt><trkpt lat="45.44807046375877" lon="7.751568785138508"><ele>491.0</ele><time>2026-05-03T14:42:52.973Z</time></trkpt><trkpt lat="45.44813440749003" lon="7.751613587748963"><ele>490.4</ele><time>2026-05-03T14:42:53.973Z</time></trkpt><trkpt lat="45.448253408110446" lon="7.751627590858859"><ele>489.8</ele><time>2026-05-03T14:42:55.973Z</time></trkpt><trkpt lat="45.44831661123712" lon="7.751668879689969"><ele>489.19999999999993</ele><time>2026-05-03T14:42:56.973Z</time></trkpt><trkpt lat="45.44842371138161" lon="7.751704259952567"><ele>488.59999999999997</ele><time>2026-05-03T14:42:58.973Z</time></trkpt><trkpt lat="45.44852505316627" lon="7.751622854698567"><ele>488.0</ele><time>2026-05-03T14:42:59.973Z</time></trkpt><trkpt lat="45.448573839961" lon="7.751551040336428"><ele>487.99999999999994</ele><time>2026-05-03T14:43:00.974Z</time></trkpt><trkpt lat="45.44862394752494" lon="7.751455825237755"><ele>488.0</ele><time>2026-05-03T14:43:01.974Z</time></trkpt><trkpt lat="45.44866189811802" lon="7.751363059423399"><ele>488.0</ele><time>2026-05-03T14:43:02.974Z</time></trkpt><trkpt lat="45.448687791404346" lon="7.751273635896711"><ele>488.0</ele><time>2026-05-03T14:43:03.974Z</time></trkpt><trkpt lat="45.448714160577154" lon="7.751178051998917"><ele>487.99999999999994</ele><time>2026-05-03T14:43:04.974Z</time></trkpt><trkpt lat="45.44872960238249" lon="7.7510611231782995"><ele>488.0</ele><time>2026-05-03T14:43:05.974Z</time></trkpt><trkpt lat="45.44876179720756" lon="7.75094729414093"><ele>488.8571428571428</ele><time>2026-05-03T14:43:06.974Z</time></trkpt><trkpt lat="45.44878841749981" lon="7.750841815860353"><ele>489.71428571428567</ele><time>2026-05-03T14:43:07.974Z</time></trkpt><trkpt lat="45.44882010223276" lon="7.750748400724575"><ele>490.57142857142856</ele><time>2026-05-03T14:43:08.974Z</time></trkpt><trkpt lat="45.44885063700327" lon="7.750654417460916"><ele>491.4285714285714</ele><time>2026-05-03T14:43:09.974Z</time></trkpt><trkpt lat="45.44890128875668" lon="7.750574475131324"><ele>492.2857142857142</ele><time>2026-05-03T14:43:10.974Z</time></trkpt><trkpt lat="45.448940778830796" lon="7.750491473581984"><ele>493.14285714285717</ele><time>2026-05-03T14:43:11.974Z</time></trkpt><trkpt lat="45.448966844085" lon="7.750402682634005"><ele>494.0</ele><time>2026-05-03T14:43:12.974Z</time></trkpt><trkpt lat="45.449004124951884" lon="7.750313606079996"><ele>494.3333333333333</ele><time>2026-05-03T14:43:13.974Z</time></trkpt><trkpt lat="45.4490433256795" lon="7.75021912859767"><ele>494.66666666666663</ele><time>2026-05-03T14:43:14.974Z</time></trkpt><trkpt lat="45.449097596075156" lon="7.750140820089436"><ele>495.0</ele><time>2026-05-03T14:43:15.974Z</time></trkpt><trkpt lat="45.44914265793971" lon="7.750067082860301"><ele>495.33333333333337</ele><time>2026-05-03T14:43:16.974Z</time></trkpt><trkpt lat="45.44919997006284" lon="7.7499906582419005"><ele>495.6666666666667</ele><time>2026-05-03T14:43:17.974Z</time></trkpt><trkpt lat="45.449265488443906" lon="7.749928390393788"><ele>496.0</ele><time>2026-05-03T14:43:18.974Z</time></trkpt><trkpt lat="45.449367061765464" lon="7.749853715122832"><ele>495.0</ele><time>2026-05-03T14:43:20.974Z</time></trkpt><trkpt lat="45.44944142311276" lon="7.749738580591028"><ele>494.0</ele><time>2026-05-03T14:43:22.974Z</time></trkpt><trkpt lat="45.44948650508778" lon="7.749665685737725"><ele>493.0</ele><time>2026-05-03T14:43:24.974Z</time></trkpt><trkpt lat="45.44948781952177" lon="7.749484900009048"><ele>492.0</ele><time>2026-05-03T14:43:28.974Z</time></trkpt><trkpt lat="45.44984982758992" lon="7.749663082944553"><ele>496.6666666666667</ele><time>2026-05-03T14:43:29.974Z</time></trkpt><trkpt lat="45.44995351443112" lon="7.749688626739349"><ele>501.33333333333337</ele><time>2026-05-03T14:43:30.974Z</time></trkpt><trkpt lat="45.450032976268545" lon="7.749573115352262"><ele>506.0</ele><time>2026-05-03T14:43:33.974Z</time></trkpt><trkpt lat="45.450041518942975" lon="7.749478591198936"><ele>510.6666666666667</ele><time>2026-05-03T14:43:34.974Z</time></trkpt><trkpt lat="45.450050281481715" lon="7.749377583960104"><ele>515.3333333333334</ele><time>2026-05-03T14:43:35.974Z</time></trkpt><trkpt lat="45.450069945280944" lon="7.74925075536935"><ele>520.0</ele><time>2026-05-03T14:43:36.974Z</time></trkpt><trkpt lat="45.45009296631704" lon="7.749120524248919"><ele>520.0000000000001</ele><time>2026-05-03T14:43:38.974Z</time></trkpt><trkpt lat="45.45014558093624" lon="7.749066012787402"><ele>520.0</ele><time>2026-05-03T14:43:59.972Z</time></trkpt><trkpt lat="45.4501453265134" lon="7.748971804385307"><ele>520.0</ele><time>2026-05-03T14:44:02.971Z</time></trkpt><trkpt lat="45.45019465743925" lon="7.748908090763843"><ele>520.0</ele><time>2026-05-03T14:44:07.971Z</time></trkpt><trkpt lat="45.450246287539464" lon="7.748970369405614"><ele>520.0</ele><time>2026-05-03T14:44:11.971Z</time></trkpt><trkpt lat="45.45024727341337" lon="7.748867353034733"><ele>520.0000000000001</ele><time>2026-05-03T14:44:15.972Z</time></trkpt><trkpt lat="45.45024231359639" lon="7.74876188790618"><ele>520.0</ele><time>2026-05-03T14:44:18.972Z</time></trkpt><trkpt lat="45.45029258059108" lon="7.748691391421648"><ele>520.0000000000001</ele><time>2026-05-03T14:44:29.972Z</time></trkpt><trkpt lat="45.45036261980094" lon="7.748718752240315"><ele>520.0</ele><time>2026-05-03T14:44:39.972Z</time></trkpt><trkpt lat="45.45030803212507" lon="7.748654578778408"><ele>520.0</ele><time>2026-05-03T14:45:13.973Z</time></trkpt><trkpt lat="45.450308552940776" lon="7.748564108244645"><ele>520.0</ele><time>2026-05-03T14:49:20.978Z</time></trkpt><trkpt lat="45.45034306721849" lon="7.748653560827435"><ele>520.0</ele><time>2026-05-03T14:50:20.976Z</time></trkpt><trkpt lat="45.45037953957752" lon="7.748562761708925"><ele>520.0000000000001</ele><time>2026-05-03T14:53:54.979Z</time></trkpt><trkpt lat="45.45044274244255" lon="7.748547682254716"><ele>520.0</ele><time>2026-05-03T14:53:59.979Z</time></trkpt><trkpt lat="45.450429729290754" lon="7.74842403971209"><ele>521.3333333333334</ele><time>2026-05-03T14:54:02.979Z</time></trkpt><trkpt lat="45.45043333995851" lon="7.748330969734979"><ele>522.6666666666667</ele><time>2026-05-03T14:54:04.979Z</time></trkpt><trkpt lat="45.450437799414146" lon="7.748230220950858"><ele>524.0</ele><time>2026-05-03T14:54:07.979Z</time></trkpt><trkpt lat="45.450469992544825" lon="7.748149396047439"><ele>525.3333333333334</ele><time>2026-05-03T14:54:09.979Z</time></trkpt><trkpt lat="45.45050771870897" lon="7.748063892796209"><ele>526.6666666666666</ele><time>2026-05-03T14:54:40.976Z</time></trkpt><trkpt lat="45.45046063979932" lon="7.74799136367038"><ele>528.0</ele><time>2026-05-03T14:54:52.977Z</time></trkpt><trkpt lat="45.450507712966996" lon="7.7478266312743775"><ele>539.4</ele><time>2026-05-03T14:54:54.977Z</time></trkpt><trkpt lat="45.45053401720377" lon="7.747735588639329"><ele>550.8</ele><time>2026-05-03T14:54:55.977Z</time></trkpt><trkpt lat="45.45057844563327" lon="7.747611544582265"><ele>562.2</ele><time>2026-05-03T14:54:57.977Z</time></trkpt><trkpt lat="45.450606912058056" lon="7.7475206593126815"><ele>573.6</ele><time>2026-05-03T14:54:58.977Z</time></trkpt><trkpt lat="45.4506455945245" lon="7.747401915524437"><ele>585.0</ele><time>2026-05-03T14:54:59.977Z</time></trkpt><trkpt lat="45.45068138102271" lon="7.747208155629775"><ele>584.8571428571429</ele><time>2026-05-03T14:55:01.977Z</time></trkpt><trkpt lat="45.450695859920046" lon="7.747111768730509"><ele>584.7142857142857</ele><time>2026-05-03T14:55:02.977Z</time></trkpt><trkpt lat="45.45073577453187" lon="7.747026843024613"><ele>584.5714285714286</ele><time>2026-05-03T14:55:03.977Z</time></trkpt><trkpt lat="45.45076313477579" lon="7.74693829643229"><ele>584.4285714285714</ele><time>2026-05-03T14:55:04.977Z</time></trkpt><trkpt lat="45.450766972095565" lon="7.746823005035215"><ele>584.2857142857143</ele><time>2026-05-03T14:55:05.977Z</time></trkpt><trkpt lat="45.45078828473929" lon="7.746731517679576"><ele>584.1428571428571</ele><time>2026-05-03T14:55:12.977Z</time></trkpt><trkpt lat="45.45075331435232" lon="7.74665171535968"><ele>584.0</ele><time>2026-05-03T14:55:21.977Z</time></trkpt><trkpt lat="45.450808664245955" lon="7.746592720074136"><ele>584.0</ele><time>2026-05-03T14:55:29.977Z</time></trkpt><trkpt lat="45.45081307048467" lon="7.746490350269149"><ele>584.0</ele><time>2026-05-03T14:55:35.978Z</time></trkpt><trkpt lat="45.45081683014059" lon="7.746392689413146"><ele>584.0</ele><time>2026-05-03T14:56:05.978Z</time></trkpt><trkpt lat="45.45083666475286" lon="7.746284442131212"><ele>584.0</ele><time>2026-05-03T14:56:09.978Z</time></trkpt><trkpt lat="45.450830876591894" lon="7.746160297705"><ele>584.0</ele><time>2026-05-03T14:56:12.979Z</time></trkpt><trkpt lat="45.45081924444983" lon="7.746037406467994"><ele>584.0</ele><time>2026-05-03T14:56:14.979Z</time></trkpt><trkpt lat="45.45085034983308" lon="7.745902425163129"><ele>581.0</ele><time>2026-05-03T14:56:16.979Z</time></trkpt><trkpt lat="45.450957601362695" lon="7.745843745771752"><ele>578.0</ele><time>2026-05-03T14:56:18.979Z</time></trkpt><trkpt lat="45.45108134204173" lon="7.745830220031944"><ele>575.0</ele><time>2026-05-03T14:56:20.979Z</time></trkpt><trkpt lat="45.45122480192641" lon="7.7458142690326595"><ele>572.0</ele><time>2026-05-03T14:56:22.979Z</time></trkpt><trkpt lat="45.451300288344605" lon="7.745839873885101"><ele>579.75</ele><time>2026-05-03T14:56:23.979Z</time></trkpt><trkpt lat="45.45142106847615" lon="7.745949576467834"><ele>587.5</ele><time>2026-05-03T14:56:25.975Z</time></trkpt><trkpt lat="45.45154604603893" lon="7.745960596064485"><ele>595.25</ele><time>2026-05-03T14:56:27.975Z</time></trkpt><trkpt lat="45.45162905333739" lon="7.745963179495913"><ele>603.0</ele><time>2026-05-03T14:56:28.975Z</time></trkpt><trkpt lat="45.45173284961412" lon="7.745945062879621"><ele>603.0</ele><time>2026-05-03T14:56:29.975Z</time></trkpt><trkpt lat="45.451796702655784" lon="7.745921850552536"><ele>603.0</ele><time>2026-05-03T14:56:30.975Z</time></trkpt><trkpt lat="45.45186312460797" lon="7.745893333715518"><ele>603.0</ele><time>2026-05-03T14:56:31.975Z</time></trkpt><trkpt lat="45.45193442373926" lon="7.745860158950078"><ele>603.0</ele><time>2026-05-03T14:56:32.975Z</time></trkpt><trkpt lat="45.45204149391918" lon="7.745779745030099"><ele>603.0</ele><time>2026-05-03T14:56:34.974Z</time></trkpt><trkpt lat="45.45212057302842" lon="7.745715210836011"><ele>603.0</ele><time>2026-05-03T14:56:35.975Z</time></trkpt><trkpt lat="45.45217813675945" lon="7.745646772603038"><ele>607.0</ele><time>2026-05-03T14:56:36.975Z</time></trkpt><trkpt lat="45.45222954732538" lon="7.745562732680641"><ele>611.0</ele><time>2026-05-03T14:56:37.975Z</time></trkpt><trkpt lat="45.45228584445302" lon="7.7454668763425785"><ele>615.0</ele><time>2026-05-03T14:56:38.975Z</time></trkpt><trkpt lat="45.45236439585761" lon="7.745411251553264"><ele>619.0</ele><time>2026-05-03T14:56:39.975Z</time></trkpt><trkpt lat="45.45243158764142" lon="7.7453776532883145"><ele>623.0</ele><time>2026-05-03T14:56:40.975Z</time></trkpt><trkpt lat="45.452591794408555" lon="7.745361761150875"><ele>623.0</ele><time>2026-05-03T14:56:42.975Z</time></trkpt><trkpt lat="45.45271747832639" lon="7.7453596372824265"><ele>623.0</ele><time>2026-05-03T14:56:43.975Z</time></trkpt><trkpt lat="45.452827778648974" lon="7.745342661792534"><ele>623.0</ele><time>2026-05-03T14:56:44.975Z</time></trkpt><trkpt lat="45.452927694067014" lon="7.745335576406483"><ele>623.0</ele><time>2026-05-03T14:56:45.975Z</time></trkpt><trkpt lat="45.453032295650246" lon="7.745329165043557"><ele>623.0</ele><time>2026-05-03T14:56:46.975Z</time></trkpt><trkpt lat="45.453144207939395" lon="7.745357748139537"><ele>625.8</ele><time>2026-05-03T14:56:47.975Z</time></trkpt><trkpt lat="45.453256761860395" lon="7.745399527430432"><ele>628.5999999999999</ele><time>2026-05-03T14:56:48.975Z</time></trkpt><trkpt lat="45.45334018785927" lon="7.7454084290882355"><ele>631.4000000000001</ele><time>2026-05-03T14:56:49.975Z</time></trkpt><trkpt lat="45.453427540382556" lon="7.74543257323801"><ele>634.2</ele><time>2026-05-03T14:56:50.975Z</time></trkpt><trkpt lat="45.453577720524216" lon="7.745489215952433"><ele>637.0</ele><time>2026-05-03T14:56:52.975Z</time></trkpt><trkpt lat="45.45366462260281" lon="7.745545201931073"><ele>637.0</ele><time>2026-05-03T14:56:53.976Z</time></trkpt><trkpt lat="45.45377395912227" lon="7.745588580019245"><ele>637.0</ele><time>2026-05-03T14:56:55.976Z</time></trkpt><trkpt lat="45.45384949605589" lon="7.745578296644944"><ele>637.0</ele><time>2026-05-03T14:56:56.976Z</time></trkpt><trkpt lat="45.45392736921248" lon="7.7455331208891405"><ele>637.0</ele><time>2026-05-03T14:56:57.976Z</time></trkpt><trkpt lat="45.454029354800156" lon="7.7454543002253375"><ele>637.0</ele><time>2026-05-03T14:56:59.976Z</time></trkpt><trkpt lat="45.454139817011054" lon="7.745391733216771"><ele>637.0</ele><time>2026-05-03T14:57:01.976Z</time></trkpt><trkpt lat="45.454237320498294" lon="7.745390384057866"><ele>637.0</ele><time>2026-05-03T14:57:03.976Z</time></trkpt><trkpt lat="45.45432642006718" lon="7.745411040407241"><ele>637.0</ele><time>2026-05-03T14:57:04.976Z</time></trkpt><trkpt lat="45.4543910567515" lon="7.7454289913013366"><ele>637.0</ele><time>2026-05-03T14:57:05.976Z</time></trkpt><trkpt lat="45.45446325159622" lon="7.745533219068338"><ele>637.0</ele><time>2026-05-03T14:57:07.976Z</time></trkpt><trkpt lat="45.45454333241326" lon="7.745611137547845"><ele>637.4</ele><time>2026-05-03T14:57:08.976Z</time></trkpt><trkpt lat="45.45464246461797" lon="7.745671430694841"><ele>637.8000000000001</ele><time>2026-05-03T14:57:09.976Z</time></trkpt><trkpt lat="45.454761301022636" lon="7.745743343976961"><ele>638.2</ele><time>2026-05-03T14:57:10.976Z</time></trkpt><trkpt lat="45.45484274539414" lon="7.745807302317513"><ele>638.6</ele><time>2026-05-03T14:57:11.976Z</time></trkpt><trkpt lat="45.454934490699486" lon="7.745856112615508"><ele>639.0</ele><time>2026-05-03T14:57:12.976Z</time></trkpt><trkpt lat="45.45502178878646" lon="7.745941390201161"><ele>639.0</ele><time>2026-05-03T14:57:13.976Z</time></trkpt><trkpt lat="45.45511759208813" lon="7.746026451487522"><ele>639.0</ele><time>2026-05-03T14:57:14.976Z</time></trkpt><trkpt lat="45.4551851386058" lon="7.746103278544411"><ele>639.0</ele><time>2026-05-03T14:57:15.976Z</time></trkpt><trkpt lat="45.4552508232932" lon="7.7461872745233995"><ele>639.0</ele><time>2026-05-03T14:57:16.976Z</time></trkpt><trkpt lat="45.455284347037214" lon="7.746300217234004"><ele>639.0</ele><time>2026-05-03T14:57:17.976Z</time></trkpt><trkpt lat="45.45532166836116" lon="7.74647185606146"><ele>642.0</ele><time>2026-05-03T14:57:18.976Z</time></trkpt><trkpt lat="45.455334369659994" lon="7.746640259393012"><ele>645.0</ele><time>2026-05-03T14:57:19.976Z</time></trkpt><trkpt lat="45.455367424421766" lon="7.7467807219372355"><ele>648.0</ele><time>2026-05-03T14:57:20.976Z</time></trkpt><trkpt lat="45.455410330328554" lon="7.746895723948316"><ele>651.0</ele><time>2026-05-03T14:57:21.976Z</time></trkpt><trkpt lat="45.45544646499091" lon="7.747021063739387"><ele>654.0</ele><time>2026-05-03T14:57:22.976Z</time></trkpt><trkpt lat="45.455484334163444" lon="7.747127863838905"><ele>654.0</ele><time>2026-05-03T14:57:23.976Z</time></trkpt><trkpt lat="45.455553664054264" lon="7.747208568682026"><ele>654.0</ele><time>2026-05-03T14:57:24.976Z</time></trkpt><trkpt lat="45.45563608850991" lon="7.747283873945894"><ele>654.0</ele><time>2026-05-03T14:57:25.976Z</time></trkpt><trkpt lat="45.45571473908981" lon="7.747326300420778"><ele>654.0</ele><time>2026-05-03T14:57:26.976Z</time></trkpt><trkpt lat="45.45576761377164" lon="7.7474646128886135"><ele>654.0</ele><time>2026-05-03T14:57:28.976Z</time></trkpt><trkpt lat="45.45580613306647" lon="7.74759791663599"><ele>654.0</ele><time>2026-05-03T14:57:30.976Z</time></trkpt><trkpt lat="45.455862555947704" lon="7.747700427403406"><ele>654.0</ele><time>2026-05-03T14:57:32.976Z</time></trkpt><trkpt lat="45.45597115044785" lon="7.747810397111028"><ele>654.0</ele><time>2026-05-03T14:57:34.977Z</time></trkpt><trkpt lat="45.456084931349814" lon="7.747911454822144"><ele>654.0</ele><time>2026-05-03T14:57:36.977Z</time></trkpt><trkpt lat="45.456153676709455" lon="7.747949767541443"><ele>654.0</ele><time>2026-05-03T14:57:38.977Z</time></trkpt><trkpt lat="45.45623436146597" lon="7.748007315525007"><ele>654.4000000000001</ele><time>2026-05-03T14:57:40.977Z</time></trkpt><trkpt lat="45.45631890286513" lon="7.7480533222552"><ele>654.8</ele><time>2026-05-03T14:57:42.977Z</time></trkpt><trkpt lat="45.456408807846486" lon="7.748114883118015"><ele>655.2</ele><time>2026-05-03T14:57:44.977Z</time></trkpt><trkpt lat="45.45649624073051" lon="7.748175654415037"><ele>655.5999999999999</ele><time>2026-05-03T14:57:46.977Z</time></trkpt><trkpt lat="45.45655740045514" lon="7.748235829052619"><ele>656.0</ele><time>2026-05-03T14:57:48.977Z</time></trkpt><trkpt lat="45.45663977576051" lon="7.748287160009533"><ele>656.0</ele><time>2026-05-03T14:57:50.977Z</time></trkpt><trkpt lat="45.456712387552926" lon="7.74832710118465"><ele>656.0</ele><time>2026-05-03T14:57:52.977Z</time></trkpt><trkpt lat="45.456791079320325" lon="7.748363316465229"><ele>656.0</ele><time>2026-05-03T14:57:54.977Z</time></trkpt><trkpt lat="45.45688367974221" lon="7.748433345123616"><ele>656.0</ele><time>2026-05-03T14:57:56.977Z</time></trkpt><trkpt lat="45.4569447110055" lon="7.748461773135109"><ele>656.0</ele><time>2026-05-03T14:57:57.977Z</time></trkpt><trkpt lat="45.45708600777311" lon="7.74844582926371"><ele>655.5</ele><time>2026-05-03T14:57:59.977Z</time></trkpt><trkpt lat="45.45717833942146" lon="7.748404977764189"><ele>655.0</ele><time>2026-05-03T14:58:00.977Z</time></trkpt><trkpt lat="45.45727920216623" lon="7.748367873719066"><ele>654.5</ele><time>2026-05-03T14:58:01.977Z</time></trkpt><trkpt lat="45.45736403545093" lon="7.748336696278689"><ele>654.0</ele><time>2026-05-03T14:58:02.977Z</time></trkpt><trkpt lat="45.45743180936076" lon="7.748332388879458"><ele>653.5</ele><time>2026-05-03T14:58:03.977Z</time></trkpt><trkpt lat="45.457498774856646" lon="7.748330205234826"><ele>653.0</ele><time>2026-05-03T14:58:04.977Z</time></trkpt><trkpt lat="45.45757356252846" lon="7.748333950883156"><ele>653.0</ele><time>2026-05-03T14:58:05.977Z</time></trkpt><trkpt lat="45.457636544184254" lon="7.7483552748616695"><ele>653.0</ele><time>2026-05-03T14:58:06.977Z</time></trkpt><trkpt lat="45.45771004979355" lon="7.748368123026624"><ele>653.0</ele><time>2026-05-03T14:58:07.977Z</time></trkpt><trkpt lat="45.457781369399" lon="7.748400600307848"><ele>653.0</ele><time>2026-05-03T14:58:08.977Z</time></trkpt><trkpt lat="45.45786683860978" lon="7.748438688281473"><ele>653.0</ele><time>2026-05-03T14:58:09.977Z</time></trkpt><trkpt lat="45.45794489980454" lon="7.748480389106441"><ele>653.0</ele><time>2026-05-03T14:58:10.977Z</time></trkpt><trkpt lat="45.4580208023855" lon="7.748506354057867"><ele>653.5</ele><time>2026-05-03T14:58:11.977Z</time></trkpt><trkpt lat="45.45810256934963" lon="7.748549026185499"><ele>654.0</ele><time>2026-05-03T14:58:12.977Z</time></trkpt><trkpt lat="45.4581701066406" lon="7.748586259487715"><ele>654.5</ele><time>2026-05-03T14:58:13.978Z</time></trkpt><trkpt lat="45.45826118092889" lon="7.748645997545368"><ele>655.0</ele><time>2026-05-03T14:58:14.978Z</time></trkpt><trkpt lat="45.45834821906197" lon="7.748677764404959"><ele>655.5</ele><time>2026-05-03T14:58:15.978Z</time></trkpt><trkpt lat="45.4584327141726" lon="7.748676217855852"><ele>656.0</ele><time>2026-05-03T14:58:16.978Z</time></trkpt><trkpt lat="45.45850599335229" lon="7.748659866946352"><ele>656.0</ele><time>2026-05-03T14:58:17.978Z</time></trkpt><trkpt lat="45.45858501563283" lon="7.748632284110348"><ele>656.0</ele><time>2026-05-03T14:58:18.978Z</time></trkpt><trkpt lat="45.45865840043435" lon="7.748595189350852"><ele>656.0</ele><time>2026-05-03T14:58:19.978Z</time></trkpt><trkpt lat="45.458742991527416" lon="7.748572171301394"><ele>656.0</ele><time>2026-05-03T14:58:20.978Z</time></trkpt><trkpt lat="45.458809969015164" lon="7.7485604734790545"><ele>656.0</ele><time>2026-05-03T14:58:21.978Z</time></trkpt><trkpt lat="45.45887441086058" lon="7.74855170843979"><ele>656.0</ele><time>2026-05-03T14:58:22.978Z</time></trkpt><trkpt lat="45.458947385067965" lon="7.748537904624644"><ele>654.1666666666666</ele><time>2026-05-03T14:58:23.978Z</time></trkpt><trkpt lat="45.4590071252343" lon="7.748497421879728"><ele>652.3333333333333</ele><time>2026-05-03T14:58:24.978Z</time></trkpt><trkpt lat="45.45906199300887" lon="7.748430144530649"><ele>650.5</ele><time>2026-05-03T14:58:25.978Z</time></trkpt><trkpt lat="45.459167641618265" lon="7.748359103905284"><ele>648.6666666666666</ele><time>2026-05-03T14:58:27.978Z</time></trkpt><trkpt lat="45.459233593812804" lon="7.748411655284493"><ele>646.8333333333334</ele><time>2026-05-03T14:58:28.978Z</time></trkpt><trkpt lat="45.45928673317953" lon="7.748475908505147"><ele>645.0</ele><time>2026-05-03T14:58:29.978Z</time></trkpt><trkpt lat="45.45934737741633" lon="7.748519920416387"><ele>644.8</ele><time>2026-05-03T14:58:30.978Z</time></trkpt><trkpt lat="45.45942013414296" lon="7.748572088265127"><ele>644.6</ele><time>2026-05-03T14:58:31.974Z</time></trkpt><trkpt lat="45.459482822494586" lon="7.748611575831501"><ele>644.4000000000001</ele><time>2026-05-03T14:58:32.973Z</time></trkpt><trkpt lat="45.45961847360863" lon="7.748671586305105"><ele>644.2</ele><time>2026-05-03T14:58:34.974Z</time></trkpt><trkpt lat="45.45969855643027" lon="7.748639901121315"><ele>644.0</ele><time>2026-05-03T14:58:35.973Z</time></trkpt><trkpt lat="45.45977450589429" lon="7.748597382768094"><ele>644.0</ele><time>2026-05-03T14:58:36.973Z</time></trkpt><trkpt lat="45.45987934425157" lon="7.748598464149863"><ele>644.0</ele><time>2026-05-03T14:58:37.974Z</time></trkpt><trkpt lat="45.45995428345837" lon="7.748660507479727"><ele>644.0</ele><time>2026-05-03T14:58:38.973Z</time></trkpt><trkpt lat="45.460017067323214" lon="7.7487432587496805"><ele>644.0</ele><time>2026-05-03T14:58:39.973Z</time></trkpt><trkpt lat="45.46008704322401" lon="7.748788378177537"><ele>644.0</ele><time>2026-05-03T14:58:40.974Z</time></trkpt><trkpt lat="45.4601615371925" lon="7.748804837154075"><ele>644.0</ele><time>2026-05-03T14:58:41.974Z</time></trkpt><trkpt lat="45.46023393780537" lon="7.74875616960226"><ele>644.0</ele><time>2026-05-03T14:58:42.974Z</time></trkpt><trkpt lat="45.46035255863514" lon="7.748794645526379"><ele>644.0</ele><time>2026-05-03T14:58:44.973Z</time></trkpt><trkpt lat="45.46038594542634" lon="7.748883818963493"><ele>644.0</ele><time>2026-05-03T14:58:45.973Z</time></trkpt><trkpt lat="45.46044827345082" lon="7.748949372044104"><ele>644.0</ele><time>2026-05-03T14:58:46.973Z</time></trkpt><trkpt lat="45.46052109789008" lon="7.748983630376653"><ele>644.0</ele><time>2026-05-03T14:58:47.973Z</time></trkpt><trkpt lat="45.46060773028352" lon="7.7489926693091515"><ele>644.0</ele><time>2026-05-03T14:58:48.973Z</time></trkpt><trkpt lat="45.460723169631706" lon="7.748983071395565"><ele>644.2</ele><time>2026-05-03T14:58:49.973Z</time></trkpt><trkpt lat="45.46084137843644" lon="7.748979262779381"><ele>644.4000000000001</ele><time>2026-05-03T14:58:50.973Z</time></trkpt><trkpt lat="45.460947138412195" lon="7.748968695591065"><ele>644.6</ele><time>2026-05-03T14:58:51.973Z</time></trkpt><trkpt lat="45.46105038029354" lon="7.74895480986492"><ele>644.8</ele><time>2026-05-03T14:58:52.973Z</time></trkpt><trkpt lat="45.46115069109581" lon="7.74897033771322"><ele>645.0</ele><time>2026-05-03T14:58:53.973Z</time></trkpt><trkpt lat="45.461237663766724" lon="7.748992805340609"><ele>645.4</ele><time>2026-05-03T14:58:54.973Z</time></trkpt><trkpt lat="45.46133494949621" lon="7.748995838608973"><ele>645.8</ele><time>2026-05-03T14:58:55.973Z</time></trkpt><trkpt lat="45.4614251946187" lon="7.748993595062542"><ele>646.2</ele><time>2026-05-03T14:58:56.973Z</time></trkpt><trkpt lat="45.46152552372919" lon="7.748992766708878"><ele>646.6</ele><time>2026-05-03T14:58:57.973Z</time></trkpt><trkpt lat="45.46162388427651" lon="7.74900429807795"><ele>647.0</ele><time>2026-05-03T14:58:58.973Z</time></trkpt><trkpt lat="45.46170906089664" lon="7.749022444766412"><ele>647.0</ele><time>2026-05-03T14:58:59.973Z</time></trkpt><trkpt lat="45.46180478371437" lon="7.749005793844585"><ele>647.0</ele><time>2026-05-03T14:59:00.973Z</time></trkpt><trkpt lat="45.46189116998892" lon="7.748965417286903"><ele>647.0</ele><time>2026-05-03T14:59:01.973Z</time></trkpt><trkpt lat="45.461968023236956" lon="7.748897258517144"><ele>647.0</ele><time>2026-05-03T14:59:02.973Z</time></trkpt><trkpt lat="45.46204258900316" lon="7.748815681513149"><ele>647.0</ele><time>2026-05-03T14:59:03.973Z</time></trkpt><trkpt lat="45.462121849968995" lon="7.748780635603866"><ele>647.8333333333333</ele><time>2026-05-03T14:59:04.973Z</time></trkpt><trkpt lat="45.46220843695448" lon="7.748734413514706"><ele>648.6666666666666</ele><time>2026-05-03T14:59:05.973Z</time></trkpt><trkpt lat="45.462290617849135" lon="7.748719875625454"><ele>649.5</ele><time>2026-05-03T14:59:06.973Z</time></trkpt><trkpt lat="45.46237296665195" lon="7.748748449195544"><ele>650.3333333333334</ele><time>2026-05-03T14:59:07.973Z</time></trkpt><trkpt lat="45.46246530853957" lon="7.748764711295554"><ele>651.1666666666667</ele><time>2026-05-03T14:59:08.973Z</time></trkpt><trkpt lat="45.46255454637072" lon="7.748787087636939"><ele>652.0</ele><time>2026-05-03T14:59:09.973Z</time></trkpt><trkpt lat="45.46260254624076" lon="7.74895789858436"><ele>652.0</ele><time>2026-05-03T14:59:10.973Z</time></trkpt><trkpt lat="45.46266493036022" lon="7.749055651567971"><ele>652.0</ele><time>2026-05-03T14:59:11.973Z</time></trkpt><trkpt lat="45.46273771593028" lon="7.74914932586623"><ele>652.0</ele><time>2026-05-03T14:59:12.973Z</time></trkpt><trkpt lat="45.462814973156206" lon="7.74923915386975"><ele>652.0</ele><time>2026-05-03T14:59:13.973Z</time></trkpt><trkpt lat="45.46288417685522" lon="7.7493324309692975"><ele>652.0</ele><time>2026-05-03T14:59:14.973Z</time></trkpt><trkpt lat="45.4629358185553" lon="7.749440980447417"><ele>652.8</ele><time>2026-05-03T14:59:15.973Z</time></trkpt><trkpt lat="45.46298518052499" lon="7.749554851944808"><ele>653.6</ele><time>2026-05-03T14:59:16.974Z</time></trkpt><trkpt lat="45.4630317482689" lon="7.749661171255631"><ele>654.4</ele><time>2026-05-03T14:59:17.974Z</time></trkpt><trkpt lat="45.46309273587262" lon="7.74976680129623"><ele>655.1999999999999</ele><time>2026-05-03T14:59:18.974Z</time></trkpt><trkpt lat="45.4631549718081" lon="7.749857526947123"><ele>656.0</ele><time>2026-05-03T14:59:19.974Z</time></trkpt><trkpt lat="45.46322661981657" lon="7.74995813108052"><ele>656.0</ele><time>2026-05-03T14:59:20.974Z</time></trkpt><trkpt lat="45.46332149836762" lon="7.750049233214638"><ele>656.0</ele><time>2026-05-03T14:59:21.974Z</time></trkpt><trkpt lat="45.463395662861465" lon="7.75017166077071"><ele>656.0</ele><time>2026-05-03T14:59:22.974Z</time></trkpt><trkpt lat="45.463482467746104" lon="7.750269294902473"><ele>656.0</ele><time>2026-05-03T14:59:23.974Z</time></trkpt><trkpt lat="45.46356459639119" lon="7.7503653983347744"><ele>656.0</ele><time>2026-05-03T14:59:24.974Z</time></trkpt><trkpt lat="45.463635573028206" lon="7.750466971944552"><ele>655.8</ele><time>2026-05-03T14:59:25.974Z</time></trkpt><trkpt lat="45.46370445606162" lon="7.750566893888598"><ele>655.5999999999999</ele><time>2026-05-03T14:59:26.974Z</time></trkpt><trkpt lat="45.46377305051051" lon="7.750668005326209"><ele>655.4</ele><time>2026-05-03T14:59:27.974Z</time></trkpt><trkpt lat="45.46384631220288" lon="7.7507711020948635"><ele>655.2</ele><time>2026-05-03T14:59:28.974Z</time></trkpt><trkpt lat="45.463925022358715" lon="7.7508766121733625"><ele>655.0</ele><time>2026-05-03T14:59:29.974Z</time></trkpt><trkpt lat="45.46400679092461" lon="7.750960266431182"><ele>655.6</ele><time>2026-05-03T14:59:30.974Z</time></trkpt><trkpt lat="45.464095843399924" lon="7.7510421382562145"><ele>656.2</ele><time>2026-05-03T14:59:31.974Z</time></trkpt><trkpt lat="45.464185582991774" lon="7.751120837260258"><ele>656.8</ele><time>2026-05-03T14:59:32.974Z</time></trkpt><trkpt lat="45.4642739474488" lon="7.7511973572008905"><ele>657.4</ele><time>2026-05-03T14:59:33.974Z</time></trkpt><trkpt lat="45.464371505558745" lon="7.751277403468983"><ele>658.0</ele><time>2026-05-03T14:59:34.974Z</time></trkpt><trkpt lat="45.46446700753729" lon="7.751344558271105"><ele>658.0</ele><time>2026-05-03T14:59:35.974Z</time></trkpt><trkpt lat="45.46456080956685" lon="7.751421093644746"><ele>658.0</ele><time>2026-05-03T14:59:36.974Z</time></trkpt><trkpt lat="45.46464809474741" lon="7.75149262453812"><ele>658.0</ele><time>2026-05-03T14:59:37.974Z</time></trkpt><trkpt lat="45.464750585717496" lon="7.7515745325642085"><ele>658.0</ele><time>2026-05-03T14:59:38.974Z</time></trkpt><trkpt lat="45.464846419391684" lon="7.751648841110292"><ele>658.0</ele><time>2026-05-03T14:59:39.974Z</time></trkpt><trkpt lat="45.464937630813225" lon="7.751726731433514"><ele>658.4</ele><time>2026-05-03T14:59:40.974Z</time></trkpt><trkpt lat="45.465033191081375" lon="7.751810353336051"><ele>658.8</ele><time>2026-05-03T14:59:41.974Z</time></trkpt><trkpt lat="45.46512714509247" lon="7.7518983384891245"><ele>659.2</ele><time>2026-05-03T14:59:42.974Z</time></trkpt><trkpt lat="45.46522170814486" lon="7.7519834581927105"><ele>659.6</ele><time>2026-05-03T14:59:43.974Z</time></trkpt><trkpt lat="45.465319264328336" lon="7.752055126999436"><ele>660.0</ele><time>2026-05-03T14:59:44.974Z</time></trkpt><trkpt lat="45.465413018714635" lon="7.7521451669975185"><ele>660.6</ele><time>2026-05-03T14:59:45.974Z</time></trkpt><trkpt lat="45.46550728599309" lon="7.752223172601906"><ele>661.2</ele><time>2026-05-03T14:59:46.974Z</time></trkpt><trkpt lat="45.46560304719855" lon="7.752302853099606"><ele>661.8</ele><time>2026-05-03T14:59:47.974Z</time></trkpt><trkpt lat="45.46569423870239" lon="7.752382993603061"><ele>662.4</ele><time>2026-05-03T14:59:48.974Z</time></trkpt><trkpt lat="45.465790852651196" lon="7.752465422428617"><ele>663.0</ele><time>2026-05-03T14:59:49.974Z</time></trkpt><trkpt lat="45.46587391114215" lon="7.752572567021817"><ele>663.0</ele><time>2026-05-03T14:59:50.974Z</time></trkpt><trkpt lat="45.465957446704365" lon="7.7526552053337205"><ele>663.0</ele><time>2026-05-03T14:59:51.974Z</time></trkpt><trkpt lat="45.46601869997911" lon="7.752677627126068"><ele>663.0</ele><time>2026-05-03T14:59:52.974Z</time></trkpt><trkpt lat="45.466117551112404" lon="7.752737824071896"><ele>663.0</ele><time>2026-05-03T14:59:54.974Z</time></trkpt><trkpt lat="45.466225339647515" lon="7.752783569620691"><ele>663.0</ele><time>2026-05-03T14:59:56.975Z</time></trkpt><trkpt lat="45.46630030366585" lon="7.752810812766818"><ele>662.8</ele><time>2026-05-03T14:59:57.975Z</time></trkpt><trkpt lat="45.4663746318621" lon="7.752857169701904"><ele>662.5999999999999</ele><time>2026-05-03T14:59:58.975Z</time></trkpt><trkpt lat="45.46645775668404" lon="7.752919453418808"><ele>662.4000000000001</ele><time>2026-05-03T14:59:59.975Z</time></trkpt><trkpt lat="45.46653483722499" lon="7.752999339116475"><ele>662.2</ele><time>2026-05-03T15:00:00.975Z</time></trkpt><trkpt lat="45.46661712819472" lon="7.753061392831747"><ele>662.0</ele><time>2026-05-03T15:00:01.975Z</time></trkpt><trkpt lat="45.46670528316496" lon="7.753115592667609"><ele>662.0</ele><time>2026-05-03T15:00:02.975Z</time></trkpt><trkpt lat="45.46679985379834" lon="7.753154294461305"><ele>662.0</ele><time>2026-05-03T15:00:03.975Z</time></trkpt><trkpt lat="45.46689791554131" lon="7.753181137634386"><ele>662.0</ele><time>2026-05-03T15:00:04.975Z</time></trkpt><trkpt lat="45.466995452431426" lon="7.753201703856348"><ele>662.0</ele><time>2026-05-03T15:00:05.975Z</time></trkpt><trkpt lat="45.467094792499225" lon="7.753221840991533"><ele>662.0</ele><time>2026-05-03T15:00:06.975Z</time></trkpt><trkpt lat="45.46718073573003" lon="7.753211987857482"><ele>662.1666666666666</ele><time>2026-05-03T15:00:07.975Z</time></trkpt><trkpt lat="45.46727951368697" lon="7.753190255053397"><ele>662.3333333333333</ele><time>2026-05-03T15:00:08.975Z</time></trkpt><trkpt lat="45.46736662632987" lon="7.753153318189111"><ele>662.5</ele><time>2026-05-03T15:00:09.975Z</time></trkpt><trkpt lat="45.467442847270206" lon="7.753126079638946"><ele>662.6666666666666</ele><time>2026-05-03T15:00:10.975Z</time></trkpt><trkpt lat="45.46754057273148" lon="7.75318476555328"><ele>662.8333333333334</ele><time>2026-05-03T15:00:12.975Z</time></trkpt><trkpt lat="45.46758547973336" lon="7.753258218721257"><ele>663.0</ele><time>2026-05-03T15:00:13.975Z</time></trkpt><trkpt lat="45.46761792115679" lon="7.753344737079607"><ele>663.0</ele><time>2026-05-03T15:00:14.975Z</time></trkpt><trkpt lat="45.46762495060699" lon="7.753440800841839"><ele>663.0</ele><time>2026-05-03T15:00:15.975Z</time></trkpt><trkpt lat="45.467616878179484" lon="7.7535374767615135"><ele>663.0</ele><time>2026-05-03T15:00:16.975Z</time></trkpt><trkpt lat="45.467639580332374" lon="7.753646345528645"><ele>663.0</ele><time>2026-05-03T15:00:17.975Z</time></trkpt><trkpt lat="45.46766725257134" lon="7.753755014566287"><ele>663.0</ele><time>2026-05-03T15:00:18.975Z</time></trkpt><trkpt lat="45.4677081338673" lon="7.753865947015914"><ele>663.0</ele><time>2026-05-03T15:00:19.975Z</time></trkpt><trkpt lat="45.46775634759735" lon="7.7539611721182835"><ele>662.9999999999999</ele><time>2026-05-03T15:00:20.975Z</time></trkpt><trkpt lat="45.46780454402681" lon="7.754052765658514"><ele>663.0</ele><time>2026-05-03T15:00:21.975Z</time></trkpt><trkpt lat="45.46785114333045" lon="7.754139767888478"><ele>663.0</ele><time>2026-05-03T15:00:22.975Z</time></trkpt><trkpt lat="45.467901172257214" lon="7.754218290081833"><ele>663.0</ele><time>2026-05-03T15:00:23.975Z</time></trkpt><trkpt lat="45.467949870871315" lon="7.754302575437505"><ele>663.0</ele><time>2026-05-03T15:00:24.975Z</time></trkpt><trkpt lat="45.468001169000054" lon="7.754368948868681"><ele>662.9999999999999</ele><time>2026-05-03T15:00:25.975Z</time></trkpt><trkpt lat="45.46804951230044" lon="7.754429558944127"><ele>663.0</ele><time>2026-05-03T15:00:26.975Z</time></trkpt><trkpt lat="45.46810173692422" lon="7.754493878849755"><ele>664.4</ele><time>2026-05-03T15:00:28.975Z</time></trkpt><trkpt lat="45.4681277239791" lon="7.754637574995001"><ele>665.8</ele><time>2026-05-03T15:00:32.975Z</time></trkpt><trkpt lat="45.468125647321386" lon="7.754736927583888"><ele>667.2</ele><time>2026-05-03T15:00:33.975Z</time></trkpt><trkpt lat="45.4680873499962" lon="7.754899426173506"><ele>668.6</ele><time>2026-05-03T15:00:35.975Z</time></trkpt><trkpt lat="45.46806341586704" lon="7.754993412417229"><ele>670.0</ele><time>2026-05-03T15:00:36.976Z</time></trkpt><trkpt lat="45.46804790057315" lon="7.755140383787459"><ele>670.0</ele><time>2026-05-03T15:00:38.972Z</time></trkpt><trkpt lat="45.46807252169439" lon="7.755256083223598"><ele>670.0</ele><time>2026-05-03T15:00:40.972Z</time></trkpt><trkpt lat="45.468098309102395" lon="7.755388251910911"><ele>670.0</ele><time>2026-05-03T15:00:42.972Z</time></trkpt><trkpt lat="45.46809718416931" lon="7.755551029971806"><ele>670.0</ele><time>2026-05-03T15:00:44.972Z</time></trkpt><trkpt lat="45.4680635900132" lon="7.7557268754579605"><ele>670.0</ele><time>2026-05-03T15:00:46.973Z</time></trkpt><trkpt lat="45.468017841190964" lon="7.75586431254432"><ele>670.0</ele><time>2026-05-03T15:00:48.972Z</time></trkpt><trkpt lat="45.46797478014665" lon="7.75595407752245"><ele>670.0</ele><time>2026-05-03T15:00:49.971Z</time></trkpt><trkpt lat="45.4679054388837" lon="7.7560835954844745"><ele>663.0</ele><time>2026-05-03T15:00:51.971Z</time></trkpt><trkpt lat="45.46784320100029" lon="7.75617070700316"><ele>663.0</ele><time>2026-05-03T15:00:53.971Z</time></trkpt></trkseg><trkseg><trkpt lat="45.46772636003283" lon="7.756154130205275"><ele>663.0</ele><time>2026-05-03T15:23:24.996Z</time></trkpt><trkpt lat="45.46784034031101" lon="7.756147789733668"><ele>663.0</ele><time>2026-05-03T15:23:32.997Z</time></trkpt><trkpt lat="45.4678110681747" lon="7.756248564539636"><ele>663.0</ele><time>2026-05-03T15:24:50.998Z</time></trkpt><trkpt lat="45.467762608036814" lon="7.756317650559813"><ele>663.0</ele><time>2026-05-03T15:24:52.998Z</time></trkpt><trkpt lat="45.46767582932461" lon="7.756428499263913"><ele>663.0</ele><time>2026-05-03T15:24:54.998Z</time></trkpt><trkpt lat="45.4676250757354" lon="7.756492540415704"><ele>663.0</ele><time>2026-05-03T15:24:55.998Z</time></trkpt><trkpt lat="45.46758206435105" lon="7.756558114719855"><ele>663.0</ele><time>2026-05-03T15:24:56.998Z</time></trkpt><trkpt lat="45.46754731159689" lon="7.756644531359403"><ele>663.0</ele><time>2026-05-03T15:24:57.998Z</time></trkpt><trkpt lat="45.46754135412798" lon="7.756752237963275"><ele>663.0</ele><time>2026-05-03T15:24:58.998Z</time></trkpt><trkpt lat="45.46755127909069" lon="7.756867833819439"><ele>663.0</ele><time>2026-05-03T15:24:59.998Z</time></trkpt><trkpt lat="45.467554498358695" lon="7.757000180017519"><ele>663.0</ele><time>2026-05-03T15:25:00.998Z</time></trkpt><trkpt lat="45.467538118712" lon="7.757134867596772"><ele>663.0</ele><time>2026-05-03T15:25:01.998Z</time></trkpt><trkpt lat="45.467498964060404" lon="7.757257072780826"><ele>662.6666666666666</ele><time>2026-05-03T15:25:02.998Z</time></trkpt><trkpt lat="45.46743457866483" lon="7.757331336425004"><ele>662.3333333333334</ele><time>2026-05-03T15:25:03.998Z</time></trkpt><trkpt lat="45.46738720806275" lon="7.757421862845388"><ele>662.0</ele><time>2026-05-03T15:25:04.998Z</time></trkpt><trkpt lat="45.46735595780786" lon="7.757529390235561"><ele>661.6666666666667</ele><time>2026-05-03T15:25:05.998Z</time></trkpt><trkpt lat="45.46729102915838" lon="7.7576242134398665"><ele>661.3333333333334</ele><time>2026-05-03T15:25:06.998Z</time></trkpt><trkpt lat="45.46725738460286" lon="7.757747410821593"><ele>661.0</ele><time>2026-05-03T15:25:07.998Z</time></trkpt><trkpt lat="45.46721964689177" lon="7.7578594402964525"><ele>660.4</ele><time>2026-05-03T15:25:08.998Z</time></trkpt><trkpt lat="45.467166117983155" lon="7.75798200507247"><ele>659.8</ele><time>2026-05-03T15:25:09.997Z</time></trkpt><trkpt lat="45.4671130176967" lon="7.758096467667273"><ele>659.1999999999999</ele><time>2026-05-03T15:25:10.997Z</time></trkpt><trkpt lat="45.467055594163575" lon="7.758207320646605"><ele>658.5999999999999</ele><time>2026-05-03T15:25:11.998Z</time></trkpt><trkpt lat="45.46699144445306" lon="7.758310048891209"><ele>658.0</ele><time>2026-05-03T15:25:12.998Z</time></trkpt><trkpt lat="45.46692321462651" lon="7.758396687396266"><ele>657.4</ele><time>2026-05-03T15:25:13.997Z</time></trkpt><trkpt lat="45.46685948291554" lon="7.75848406697185"><ele>656.8</ele><time>2026-05-03T15:25:14.998Z</time></trkpt><trkpt lat="45.46679739634204" lon="7.758576489009879"><ele>656.2</ele><time>2026-05-03T15:25:15.997Z</time></trkpt><trkpt lat="45.46672529302695" lon="7.75866267970167"><ele>655.6</ele><time>2026-05-03T15:25:16.997Z</time></trkpt><trkpt lat="45.46666430382213" lon="7.758766641703899"><ele>655.0</ele><time>2026-05-03T15:25:17.997Z</time></trkpt><trkpt lat="45.466593897055816" lon="7.758872836061505"><ele>654.2</ele><time>2026-05-03T15:25:18.998Z</time></trkpt><trkpt lat="45.46651003591209" lon="7.758968699689484"><ele>653.4</ele><time>2026-05-03T15:25:19.998Z</time></trkpt><trkpt lat="45.466424456406415" lon="7.759054654679272"><ele>652.5999999999999</ele><time>2026-05-03T15:25:20.998Z</time></trkpt><trkpt lat="45.46634706084558" lon="7.759138672657477"><ele>651.8</ele><time>2026-05-03T15:25:21.998Z</time></trkpt><trkpt lat="45.46627844461174" lon="7.759225704202169"><ele>651.0</ele><time>2026-05-03T15:25:22.998Z</time></trkpt><trkpt lat="45.46619944832867" lon="7.759318469014831"><ele>648.1999999999999</ele><time>2026-05-03T15:25:23.998Z</time></trkpt><trkpt lat="45.46617581086766" lon="7.759492522135465"><ele>645.4</ele><time>2026-05-03T15:25:24.998Z</time></trkpt><trkpt lat="45.466147224138126" lon="7.759641156020755"><ele>642.6</ele><time>2026-05-03T15:25:25.998Z</time></trkpt><trkpt lat="45.466111986060525" lon="7.759775712496969"><ele>639.8</ele><time>2026-05-03T15:25:26.998Z</time></trkpt><trkpt lat="45.466085559012946" lon="7.759929359258638"><ele>637.0</ele><time>2026-05-03T15:25:27.998Z</time></trkpt><trkpt lat="45.46606138928918" lon="7.760088463037989"><ele>636.2</ele><time>2026-05-03T15:25:28.997Z</time></trkpt><trkpt lat="45.46603105774754" lon="7.7602347828114455"><ele>635.4000000000001</ele><time>2026-05-03T15:25:29.997Z</time></trkpt><trkpt lat="45.46599459886712" lon="7.760390539255871"><ele>634.5999999999999</ele><time>2026-05-03T15:25:30.997Z</time></trkpt><trkpt lat="45.465960201732" lon="7.7605295075008245"><ele>633.8</ele><time>2026-05-03T15:25:31.997Z</time></trkpt><trkpt lat="45.46591718020498" lon="7.760680098286371"><ele>633.0</ele><time>2026-05-03T15:25:32.996Z</time></trkpt><trkpt lat="45.46586829571055" lon="7.760828825784627"><ele>633.0</ele><time>2026-05-03T15:25:33.996Z</time></trkpt><trkpt lat="45.46581894978457" lon="7.760974608409248"><ele>633.0</ele><time>2026-05-03T15:25:34.996Z</time></trkpt><trkpt lat="45.46577229350803" lon="7.761108850131149"><ele>633.0</ele><time>2026-05-03T15:25:35.996Z</time></trkpt><trkpt lat="45.465724444439864" lon="7.761235337925828"><ele>633.0</ele><time>2026-05-03T15:25:36.996Z</time></trkpt><trkpt lat="45.4656652555749" lon="7.761361949435498"><ele>633.0</ele><time>2026-05-03T15:25:37.996Z</time></trkpt><trkpt lat="45.46560149246026" lon="7.761474277653341"><ele>631.8</ele><time>2026-05-03T15:25:38.995Z</time></trkpt><trkpt lat="45.465534046350136" lon="7.761556956655572"><ele>630.5999999999999</ele><time>2026-05-03T15:25:39.995Z</time></trkpt><trkpt lat="45.46546341728475" lon="7.761598523586457"><ele>629.4000000000001</ele><time>2026-05-03T15:25:40.995Z</time></trkpt><trkpt lat="45.465378260922414" lon="7.761577854041162"><ele>628.2</ele><time>2026-05-03T15:25:41.995Z</time></trkpt><trkpt lat="45.46529146479382" lon="7.761502982904786"><ele>627.0</ele><time>2026-05-03T15:25:42.995Z</time></trkpt><trkpt lat="45.465211156529584" lon="7.761423627023148"><ele>626.6</ele><time>2026-05-03T15:25:43.995Z</time></trkpt><trkpt lat="45.46512059359408" lon="7.761330932010033"><ele>626.2</ele><time>2026-05-03T15:25:44.995Z</time></trkpt><trkpt lat="45.465036617831146" lon="7.761237419921787"><ele>625.8</ele><time>2026-05-03T15:25:45.995Z</time></trkpt><trkpt lat="45.464974111306105" lon="7.7611302105138344"><ele>625.4</ele><time>2026-05-03T15:25:46.995Z</time></trkpt><trkpt lat="45.4649147246464" lon="7.761003563387937"><ele>625.0</ele><time>2026-05-03T15:25:47.995Z</time></trkpt><trkpt lat="45.4648571917743" lon="7.760882908313747"><ele>625.0</ele><time>2026-05-03T15:25:48.995Z</time></trkpt><trkpt lat="45.46480196553759" lon="7.760791267828346"><ele>625.0</ele><time>2026-05-03T15:25:49.995Z</time></trkpt><trkpt lat="45.464740266099476" lon="7.760677585361086"><ele>625.0</ele><time>2026-05-03T15:25:50.995Z</time></trkpt><trkpt lat="45.46468013426664" lon="7.760569415066119"><ele>625.0</ele><time>2026-05-03T15:25:51.994Z</time></trkpt><trkpt lat="45.46462633105391" lon="7.760479953879799"><ele>625.0</ele><time>2026-05-03T15:25:52.994Z</time></trkpt><trkpt lat="45.4645771614857" lon="7.760406981969422"><ele>625.0</ele><time>2026-05-03T15:25:53.994Z</time></trkpt><trkpt lat="45.46452449490629" lon="7.760356927457873"><ele>622.0</ele><time>2026-05-03T15:25:54.994Z</time></trkpt><trkpt lat="45.4644613454937" lon="7.760357476866533"><ele>619.0</ele><time>2026-05-03T15:25:55.994Z</time></trkpt><trkpt lat="45.46441419916719" lon="7.760456307983375"><ele>616.0</ele><time>2026-05-03T15:25:56.994Z</time></trkpt><trkpt lat="45.46441538364143" lon="7.760597093259647"><ele>613.0</ele><time>2026-05-03T15:25:57.994Z</time></trkpt><trkpt lat="45.46446281299535" lon="7.7607118803879205"><ele>610.0</ele><time>2026-05-03T15:25:58.994Z</time></trkpt><trkpt lat="45.4644987204954" lon="7.76086077659533"><ele>610.0</ele><time>2026-05-03T15:25:59.994Z</time></trkpt><trkpt lat="45.464538780015" lon="7.761000265679343"><ele>610.0</ele><time>2026-05-03T15:26:00.994Z</time></trkpt><trkpt lat="45.46458200735024" lon="7.761143184847945"><ele>610.0</ele><time>2026-05-03T15:26:01.994Z</time></trkpt><trkpt lat="45.46461137026729" lon="7.761280920386756"><ele>610.0</ele><time>2026-05-03T15:26:02.994Z</time></trkpt><trkpt lat="45.464640972742025" lon="7.761415956497196"><ele>610.0</ele><time>2026-05-03T15:26:03.994Z</time></trkpt><trkpt lat="45.46460753464123" lon="7.761561460544018"><ele>608.2</ele><time>2026-05-03T15:26:04.994Z</time></trkpt><trkpt lat="45.464594991621276" lon="7.76170797225859"><ele>606.4</ele><time>2026-05-03T15:26:05.994Z</time></trkpt><trkpt lat="45.46456667106073" lon="7.761854212624902"><ele>604.6</ele><time>2026-05-03T15:26:06.994Z</time></trkpt><trkpt lat="45.46454342909503" lon="7.762008421790233"><ele>602.8</ele><time>2026-05-03T15:26:07.994Z</time></trkpt><trkpt lat="45.464513455791014" lon="7.762157152980149"><ele>601.0</ele><time>2026-05-03T15:26:08.994Z</time></trkpt><trkpt lat="45.46448679246479" lon="7.762314967459153"><ele>600.75</ele><time>2026-05-03T15:26:09.994Z</time></trkpt><trkpt lat="45.46445793586871" lon="7.762472934601305"><ele>600.5</ele><time>2026-05-03T15:26:10.994Z</time></trkpt><trkpt lat="45.464428823224374" lon="7.762625221110427"><ele>600.25</ele><time>2026-05-03T15:26:11.994Z</time></trkpt><trkpt lat="45.46440840245814" lon="7.762784641163678"><ele>600.0</ele><time>2026-05-03T15:26:12.994Z</time></trkpt><trkpt lat="45.464405051359684" lon="7.7629432015873565"><ele>598.8</ele><time>2026-05-03T15:26:13.994Z</time></trkpt><trkpt lat="45.46441044232676" lon="7.763096714061946"><ele>597.6</ele><time>2026-05-03T15:26:14.994Z</time></trkpt><trkpt lat="45.46443998734531" lon="7.763258676868245"><ele>596.4</ele><time>2026-05-03T15:26:15.994Z</time></trkpt><trkpt lat="45.464466773630825" lon="7.763419480936786"><ele>595.2</ele><time>2026-05-03T15:26:16.994Z</time></trkpt><trkpt lat="45.464476693581055" lon="7.763573057085306"><ele>594.0</ele><time>2026-05-03T15:26:17.994Z</time></trkpt><trkpt lat="45.464526665702856" lon="7.763719503633335"><ele>595.75</ele><time>2026-05-03T15:26:18.994Z</time></trkpt><trkpt lat="45.464641202800905" lon="7.763836773369906"><ele>597.5</ele><time>2026-05-03T15:26:19.994Z</time></trkpt><trkpt lat="45.464732121880196" lon="7.763932919917523"><ele>599.25</ele><time>2026-05-03T15:26:20.994Z</time></trkpt><trkpt lat="45.46479254795315" lon="7.764069747570931"><ele>601.0</ele><time>2026-05-03T15:26:21.994Z</time></trkpt><trkpt lat="45.46484581625018" lon="7.764247426685287"><ele>598.75</ele><time>2026-05-03T15:26:22.994Z</time></trkpt><trkpt lat="45.4648838645302" lon="7.764410526734817"><ele>596.5</ele><time>2026-05-03T15:26:23.994Z</time></trkpt><trkpt lat="45.46492535589665" lon="7.764570071096776"><ele>594.25</ele><time>2026-05-03T15:26:24.994Z</time></trkpt><trkpt lat="45.464965166557235" lon="7.7647152688781365"><ele>592.0</ele><time>2026-05-03T15:26:25.994Z</time></trkpt><trkpt lat="45.46496201365314" lon="7.7648666943636"><ele>592.0</ele><time>2026-05-03T15:26:26.994Z</time></trkpt><trkpt lat="45.464917947819444" lon="7.764999586795716"><ele>592.0</ele><time>2026-05-03T15:26:27.994Z</time></trkpt><trkpt lat="45.46481516317755" lon="7.765100364336928"><ele>592.0</ele><time>2026-05-03T15:26:28.995Z</time></trkpt><trkpt lat="45.4647182945204" lon="7.76520073103926"><ele>592.0</ele><time>2026-05-03T15:26:29.995Z</time></trkpt><trkpt lat="45.464599673766386" lon="7.765252168342247"><ele>588.5</ele><time>2026-05-03T15:26:30.995Z</time></trkpt><trkpt lat="45.46447896087774" lon="7.7653027396446594"><ele>585.0</ele><time>2026-05-03T15:26:31.995Z</time></trkpt><trkpt lat="45.46436002849545" lon="7.765339767434836"><ele>581.5</ele><time>2026-05-03T15:26:32.995Z</time></trkpt><trkpt lat="45.46423764390716" lon="7.765379419540059"><ele>578.0</ele><time>2026-05-03T15:26:33.995Z</time></trkpt><trkpt lat="45.464109993557535" lon="7.765406381987542"><ele>578.0</ele><time>2026-05-03T15:26:34.995Z</time></trkpt><trkpt lat="45.463982718649824" lon="7.765435313178194"><ele>578.0</ele><time>2026-05-03T15:26:35.995Z</time></trkpt><trkpt lat="45.46385410547678" lon="7.765464838891357"><ele>578.0</ele><time>2026-05-03T15:26:36.995Z</time></trkpt><trkpt lat="45.463724492866426" lon="7.765500922648543"><ele>578.0</ele><time>2026-05-03T15:26:37.995Z</time></trkpt><trkpt lat="45.46360885585255" lon="7.7655341647802585"><ele>574.25</ele><time>2026-05-03T15:26:38.995Z</time></trkpt><trkpt lat="45.46349122293565" lon="7.765572251258919"><ele>570.5</ele><time>2026-05-03T15:26:39.995Z</time></trkpt><trkpt lat="45.463376205660595" lon="7.765595568891067"><ele>566.75</ele><time>2026-05-03T15:26:40.995Z</time></trkpt><trkpt lat="45.46324786874465" lon="7.765627593656428"><ele>563.0</ele><time>2026-05-03T15:26:41.995Z</time></trkpt><trkpt lat="45.46311936375291" lon="7.7656541358019515"><ele>563.0</ele><time>2026-05-03T15:26:42.995Z</time></trkpt><trkpt lat="45.462986436472846" lon="7.765683691330781"><ele>563.0</ele><time>2026-05-03T15:26:43.995Z</time></trkpt><trkpt lat="45.462856661218936" lon="7.765715544562563"><ele>563.0</ele><time>2026-05-03T15:26:44.995Z</time></trkpt><trkpt lat="45.4627314449867" lon="7.765745956024067"><ele>563.0</ele><time>2026-05-03T15:26:45.995Z</time></trkpt><trkpt lat="45.46260281305048" lon="7.765779452037319"><ele>561.0</ele><time>2026-05-03T15:26:46.995Z</time></trkpt><trkpt lat="45.46247062764331" lon="7.765807452257016"><ele>559.0</ele><time>2026-05-03T15:26:47.995Z</time></trkpt><trkpt lat="45.46234214333388" lon="7.765844594605245"><ele>557.0</ele><time>2026-05-03T15:26:48.995Z</time></trkpt><trkpt lat="45.462210089172395" lon="7.765882549960381"><ele>555.0</ele><time>2026-05-03T15:26:49.995Z</time></trkpt><trkpt lat="45.46207506969006" lon="7.76591857537052"><ele>560.0</ele><time>2026-05-03T15:26:50.995Z</time></trkpt><trkpt lat="45.46194056804067" lon="7.7659483777029426"><ele>565.0</ele><time>2026-05-03T15:26:51.995Z</time></trkpt><trkpt lat="45.46181101205729" lon="7.765980014409156"><ele>570.0</ele><time>2026-05-03T15:26:52.995Z</time></trkpt><trkpt lat="45.46168070331413" lon="7.766016033199567"><ele>575.0</ele><time>2026-05-03T15:26:53.995Z</time></trkpt><trkpt lat="45.4615579314916" lon="7.766048048765381"><ele>576.75</ele><time>2026-05-03T15:26:54.995Z</time></trkpt><trkpt lat="45.46143016622589" lon="7.766094662072092"><ele>578.5</ele><time>2026-05-03T15:26:55.995Z</time></trkpt><trkpt lat="45.461299342905846" lon="7.766153938623897"><ele>580.25</ele><time>2026-05-03T15:26:56.995Z</time></trkpt><trkpt lat="45.461163086250224" lon="7.766195560351494"><ele>582.0</ele><time>2026-05-03T15:26:57.995Z</time></trkpt><trkpt lat="45.46103629497551" lon="7.766255206460309"><ele>583.75</ele><time>2026-05-03T15:26:58.995Z</time></trkpt><trkpt lat="45.46090792225711" lon="7.766319704998451"><ele>585.5</ele><time>2026-05-03T15:26:59.995Z</time></trkpt><trkpt lat="45.460776941206014" lon="7.7663875749907225"><ele>587.25</ele><time>2026-05-03T15:27:00.995Z</time></trkpt><trkpt lat="45.460655298005705" lon="7.766443026976907"><ele>589.0</ele><time>2026-05-03T15:27:01.995Z</time></trkpt><trkpt lat="45.46052778591324" lon="7.76651079364515"><ele>588.25</ele><time>2026-05-03T15:27:02.995Z</time></trkpt><trkpt lat="45.460403171572224" lon="7.766587069165273"><ele>587.5</ele><time>2026-05-03T15:27:03.995Z</time></trkpt><trkpt lat="45.460273126741974" lon="7.7666624568747"><ele>586.75</ele><time>2026-05-03T15:27:04.995Z</time></trkpt><trkpt lat="45.460152567621144" lon="7.766735288973661"><ele>586.0</ele><time>2026-05-03T15:27:05.995Z</time></trkpt><trkpt lat="45.460028761699135" lon="7.766798597814564"><ele>585.25</ele><time>2026-05-03T15:27:06.995Z</time></trkpt><trkpt lat="45.459908418952075" lon="7.766868744630485"><ele>584.5</ele><time>2026-05-03T15:27:07.995Z</time></trkpt><trkpt lat="45.45978932888931" lon="7.766932835184886"><ele>583.75</ele><time>2026-05-03T15:27:08.995Z</time></trkpt><trkpt lat="45.45967926002405" lon="7.767000985034311"><ele>583.0</ele><time>2026-05-03T15:27:09.995Z</time></trkpt><trkpt lat="45.45956260539636" lon="7.767066068067032"><ele>582.1999999999999</ele><time>2026-05-03T15:27:10.995Z</time></trkpt><trkpt lat="45.459457012771864" lon="7.767123161998456"><ele>581.4</ele><time>2026-05-03T15:27:11.996Z</time></trkpt><trkpt lat="45.45935355885704" lon="7.767174634642403"><ele>580.5999999999999</ele><time>2026-05-03T15:27:12.996Z</time></trkpt><trkpt lat="45.45926208314512" lon="7.767232986932847"><ele>579.8</ele><time>2026-05-03T15:27:13.996Z</time></trkpt><trkpt lat="45.45917416531539" lon="7.767289119982173"><ele>579.0</ele><time>2026-05-03T15:27:14.994Z</time></trkpt><trkpt lat="45.45904581440285" lon="7.767203779297557"><ele>579.0</ele><time>2026-05-03T15:27:15.994Z</time></trkpt><trkpt lat="45.45893202991565" lon="7.76717934579018"><ele>579.0</ele><time>2026-05-03T15:27:16.994Z</time></trkpt><trkpt lat="45.45881314171607" lon="7.767152258354542"><ele>579.0</ele><time>2026-05-03T15:27:17.994Z</time></trkpt><trkpt lat="45.4586942100462" lon="7.767132425500907"><ele>579.0</ele><time>2026-05-03T15:27:18.994Z</time></trkpt><trkpt lat="45.45857594322124" lon="7.767127388661868"><ele>578.4</ele><time>2026-05-03T15:27:19.994Z</time></trkpt><trkpt lat="45.458459793866446" lon="7.7671266672325086"><ele>577.8</ele><time>2026-05-03T15:27:20.995Z</time></trkpt><trkpt lat="45.45835216304511" lon="7.767126270650837"><ele>577.2</ele><time>2026-05-03T15:27:21.994Z</time></trkpt><trkpt lat="45.458259416648275" lon="7.767118377567356"><ele>576.6</ele><time>2026-05-03T15:27:22.994Z</time></trkpt><trkpt lat="45.458191171107664" lon="7.76711484996297"><ele>576.0</ele><time>2026-05-03T15:27:23.994Z</time></trkpt><trkpt lat="45.45809518862405" lon="7.76709835784684"><ele>576.0</ele><time>2026-05-03T15:27:25.994Z</time></trkpt><trkpt lat="45.457996961354134" lon="7.767077182876649"><ele>576.0</ele><time>2026-05-03T15:27:27.994Z</time></trkpt><trkpt lat="45.45819629416371" lon="7.76712872521534"><ele>576.0</ele><time>2026-05-03T15:37:05.004Z</time></trkpt><trkpt lat="45.45828148935492" lon="7.767196886563423"><ele>576.0</ele><time>2026-05-03T15:37:07.004Z</time></trkpt><trkpt lat="45.45834909924232" lon="7.767173808930286"><ele>576.0</ele><time>2026-05-03T15:37:08.004Z</time></trkpt><trkpt lat="45.458428249732776" lon="7.7671698699628795"><ele>576.0</ele><time>2026-05-03T15:37:09.004Z</time></trkpt><trkpt lat="45.45851886713986" lon="7.767179726106323"><ele>576.0</ele><time>2026-05-03T15:37:10.004Z</time></trkpt><trkpt lat="45.45861483652359" lon="7.767187713447254"><ele>576.0</ele><time>2026-05-03T15:37:11.004Z</time></trkpt><trkpt lat="45.45871082162878" lon="7.767198572997131"><ele>576.0</ele><time>2026-05-03T15:37:12.004Z</time></trkpt><trkpt lat="45.45880018715373" lon="7.767202927943948"><ele>576.5</ele><time>2026-05-03T15:37:13.004Z</time></trkpt><trkpt lat="45.45888730232373" lon="7.7672083417841735"><ele>577.0</ele><time>2026-05-03T15:37:14.004Z</time></trkpt><trkpt lat="45.45897132364671" lon="7.767225222943775"><ele>577.5</ele><time>2026-05-03T15:37:15.004Z</time></trkpt><trkpt lat="45.459052711451456" lon="7.767251581039915"><ele>578.0</ele><time>2026-05-03T15:37:16.004Z</time></trkpt><trkpt lat="45.4591242491688" lon="7.767269721860071"><ele>578.5</ele><time>2026-05-03T15:37:17.004Z</time></trkpt><trkpt lat="45.45919846462409" lon="7.767284678149323"><ele>579.0</ele><time>2026-05-03T15:37:18.004Z</time></trkpt><trkpt lat="45.45925430650066" lon="7.767345927009685"><ele>579.0</ele><time>2026-05-03T15:37:19.005Z</time></trkpt><trkpt lat="45.45935412230905" lon="7.7672358347822605"><ele>579.0</ele><time>2026-05-03T15:37:20.005Z</time></trkpt><trkpt lat="45.45943398931401" lon="7.767187217892076"><ele>579.0</ele><time>2026-05-03T15:37:21.005Z</time></trkpt><trkpt lat="45.45951184550195" lon="7.767136806047534"><ele>579.0</ele><time>2026-05-03T15:37:22.005Z</time></trkpt><trkpt lat="45.459588937649386" lon="7.767089879634478"><ele>579.0</ele><time>2026-05-03T15:37:23.005Z</time></trkpt><trkpt lat="45.45968006699461" lon="7.767035508674237"><ele>579.8</ele><time>2026-05-03T15:37:24.005Z</time></trkpt><trkpt lat="45.45977576758054" lon="7.766981532508303"><ele>580.5999999999999</ele><time>2026-05-03T15:37:25.005Z</time></trkpt><trkpt lat="45.4598707127328" lon="7.76693183547954"><ele>581.4</ele><time>2026-05-03T15:37:26.005Z</time></trkpt><trkpt lat="45.45995931792515" lon="7.766880583616779"><ele>582.1999999999999</ele><time>2026-05-03T15:37:27.005Z</time></trkpt><trkpt lat="45.46006171853333" lon="7.766828281931152"><ele>583.0</ele><time>2026-05-03T15:37:28.005Z</time></trkpt><trkpt lat="45.460163043250994" lon="7.766773050217896"><ele>583.6</ele><time>2026-05-03T15:37:29.005Z</time></trkpt><trkpt lat="45.46026557796231" lon="7.766712176110413"><ele>584.1999999999999</ele><time>2026-05-03T15:37:30.005Z</time></trkpt><trkpt lat="45.460366096520744" lon="7.766654240255015"><ele>584.8</ele><time>2026-05-03T15:37:31.005Z</time></trkpt><trkpt lat="45.46046862771967" lon="7.766593175246943"><ele>585.4</ele><time>2026-05-03T15:37:32.005Z</time></trkpt><trkpt lat="45.46057729947534" lon="7.766532452848783"><ele>586.0</ele><time>2026-05-03T15:37:33.005Z</time></trkpt><trkpt lat="45.46068508660213" lon="7.7664762856311285"><ele>586.75</ele><time>2026-05-03T15:37:34.005Z</time></trkpt><trkpt lat="45.460791103688614" lon="7.766419092308945"><ele>587.5</ele><time>2026-05-03T15:37:35.005Z</time></trkpt><trkpt lat="45.46089836781074" lon="7.76636546630508"><ele>588.25</ele><time>2026-05-03T15:37:36.005Z</time></trkpt><trkpt lat="45.46101391929125" lon="7.766311429569534"><ele>589.0</ele><time>2026-05-03T15:37:37.005Z</time></trkpt><trkpt lat="45.46113063277626" lon="7.766260549891894"><ele>589.0</ele><time>2026-05-03T15:37:38.005Z</time></trkpt><trkpt lat="45.461256905197864" lon="7.766213602152935"><ele>589.0</ele><time>2026-05-03T15:37:39.005Z</time></trkpt><trkpt lat="45.46138452375924" lon="7.766182939155731"><ele>589.0</ele><time>2026-05-03T15:37:40.005Z</time></trkpt><trkpt lat="45.461510181632335" lon="7.76615141966211"><ele>589.0</ele><time>2026-05-03T15:37:41.005Z</time></trkpt><trkpt lat="45.461639558013026" lon="7.766111769059631"><ele>587.25</ele><time>2026-05-03T15:37:42.005Z</time></trkpt><trkpt lat="45.46175871052909" lon="7.76605582447293"><ele>585.5</ele><time>2026-05-03T15:37:43.005Z</time></trkpt><trkpt lat="45.46189194183359" lon="7.766018065730253"><ele>583.75</ele><time>2026-05-03T15:37:44.005Z</time></trkpt><trkpt lat="45.462025834932206" lon="7.765981554545019"><ele>582.0</ele><time>2026-05-03T15:37:45.004Z</time></trkpt><trkpt lat="45.462155006375646" lon="7.765946195191535"><ele>575.25</ele><time>2026-05-03T15:37:46.004Z</time></trkpt><trkpt lat="45.46227709765749" lon="7.765904805556695"><ele>568.5</ele><time>2026-05-03T15:37:47.004Z</time></trkpt><trkpt lat="45.46240092654348" lon="7.76587137791865"><ele>561.75</ele><time>2026-05-03T15:37:48.004Z</time></trkpt><trkpt lat="45.46252513612783" lon="7.765848948842837"><ele>555.0</ele><time>2026-05-03T15:37:49.004Z</time></trkpt><trkpt lat="45.46265530110948" lon="7.7658190554219395"><ele>555.0</ele><time>2026-05-03T15:37:50.004Z</time></trkpt><trkpt lat="45.462781962782174" lon="7.765788284112004"><ele>555.0</ele><time>2026-05-03T15:37:51.005Z</time></trkpt><trkpt lat="45.46291476392316" lon="7.765755104519935"><ele>555.0</ele><time>2026-05-03T15:37:52.004Z</time></trkpt><trkpt lat="45.46304861739743" lon="7.765719185373043"><ele>555.0</ele><time>2026-05-03T15:37:53.004Z</time></trkpt><trkpt lat="45.463181062744056" lon="7.765684510807888"><ele>557.0</ele><time>2026-05-03T15:37:54.004Z</time></trkpt><trkpt lat="45.46331725026868" lon="7.765649701634141"><ele>559.0</ele><time>2026-05-03T15:37:55.004Z</time></trkpt><trkpt lat="45.463452391375114" lon="7.765612993989791"><ele>561.0</ele><time>2026-05-03T15:37:56.004Z</time></trkpt><trkpt lat="45.463586006789654" lon="7.765576601433676"><ele>563.0</ele><time>2026-05-03T15:37:57.004Z</time></trkpt><trkpt lat="45.46371504500253" lon="7.765539805016682"><ele>566.75</ele><time>2026-05-03T15:37:58.004Z</time></trkpt><trkpt lat="45.463841035027485" lon="7.765506350674278"><ele>570.5</ele><time>2026-05-03T15:37:59.004Z</time></trkpt><trkpt lat="45.46396638461834" lon="7.765469599057292"><ele>574.25</ele><time>2026-05-03T15:38:00.004Z</time></trkpt><trkpt lat="45.46408617273057" lon="7.765435087478554"><ele>578.0</ele><time>2026-05-03T15:38:01.004Z</time></trkpt><trkpt lat="45.46420172671446" lon="7.765405496997115"><ele>578.0</ele><time>2026-05-03T15:38:02.004Z</time></trkpt><trkpt lat="45.46432086137645" lon="7.76537519978118"><ele>578.0</ele><time>2026-05-03T15:38:03.004Z</time></trkpt><trkpt lat="45.4644423523446" lon="7.76534329311607"><ele>578.0</ele><time>2026-05-03T15:38:04.004Z</time></trkpt><trkpt lat="45.4645561789492" lon="7.765302385196756"><ele>578.0</ele><time>2026-05-03T15:38:05.004Z</time></trkpt><trkpt lat="45.46466905584101" lon="7.76524782451943"><ele>580.8</ele><time>2026-05-03T15:38:06.004Z</time></trkpt><trkpt lat="45.46477212919325" lon="7.765175496279433"><ele>583.5999999999999</ele><time>2026-05-03T15:38:07.004Z</time></trkpt><trkpt lat="45.46486874679138" lon="7.765094272036627"><ele>586.4000000000001</ele><time>2026-05-03T15:38:08.004Z</time></trkpt><trkpt lat="45.46493085973162" lon="7.76496246070026"><ele>589.2</ele><time>2026-05-03T15:38:09.004Z</time></trkpt><trkpt lat="45.46497322726026" lon="7.76481801765521"><ele>592.0</ele><time>2026-05-03T15:38:10.004Z</time></trkpt><trkpt lat="45.46497579213678" lon="7.76467472222031"><ele>592.0</ele><time>2026-05-03T15:38:11.004Z</time></trkpt><trkpt lat="45.464948788194036" lon="7.764513658310506"><ele>592.0</ele><time>2026-05-03T15:38:12.004Z</time></trkpt><trkpt lat="45.46490724284657" lon="7.764353305966531"><ele>592.0</ele><time>2026-05-03T15:38:13.004Z</time></trkpt><trkpt lat="45.46485977977718" lon="7.764204155741915"><ele>592.0</ele><time>2026-05-03T15:38:14.004Z</time></trkpt><trkpt lat="45.464823706859" lon="7.76405418654924"><ele>592.4</ele><time>2026-05-03T15:38:15.004Z</time></trkpt><trkpt lat="45.464744970558115" lon="7.763926335550526"><ele>592.8000000000001</ele><time>2026-05-03T15:38:16.004Z</time></trkpt><trkpt lat="45.46466420282728" lon="7.763807279526243"><ele>593.2</ele><time>2026-05-03T15:38:17.004Z</time></trkpt><trkpt lat="45.46458437768723" lon="7.7637081216182295"><ele>593.6</ele><time>2026-05-03T15:38:18.004Z</time></trkpt><trkpt lat="45.46452831472954" lon="7.763609103637483"><ele>594.0</ele><time>2026-05-03T15:38:19.004Z</time></trkpt><trkpt lat="45.46449499722334" lon="7.7635187341107175"><ele>594.0</ele><time>2026-05-03T15:38:20.004Z</time></trkpt><trkpt lat="45.4644601514969" lon="7.7633536212123"><ele>594.0</ele><time>2026-05-03T15:38:22.004Z</time></trkpt><trkpt lat="45.46445357840384" lon="7.763261532977483"><ele>594.0</ele><time>2026-05-03T15:38:23.004Z</time></trkpt><trkpt lat="45.46444291151806" lon="7.763145351937426"><ele>594.0</ele><time>2026-05-03T15:38:24.004Z</time></trkpt><trkpt lat="45.46443635907602" lon="7.763027788209603"><ele>594.0</ele><time>2026-05-03T15:38:25.004Z</time></trkpt><trkpt lat="45.464452817733324" lon="7.762928200529842"><ele>594.0</ele><time>2026-05-03T15:38:27.004Z</time></trkpt><trkpt lat="45.464448053427375" lon="7.762821668215171"><ele>594.0</ele><time>2026-05-03T15:38:31.005Z</time></trkpt><trkpt lat="45.46447148084238" lon="7.762737072612797"><ele>594.0</ele><time>2026-05-03T15:38:35.005Z</time></trkpt><trkpt lat="45.46450040444242" lon="7.762629283366835"><ele>594.0</ele><time>2026-05-03T15:38:39.005Z</time></trkpt><trkpt lat="45.46459374204014" lon="7.762566148518569"><ele>594.0</ele><time>2026-05-03T15:38:41.005Z</time></trkpt><trkpt lat="45.464868329813584" lon="7.762641221016598"><ele>598.4</ele><time>2026-05-03T15:38:42.005Z</time></trkpt><trkpt lat="45.464940203908824" lon="7.762553440111916"><ele>602.8</ele><time>2026-05-03T15:38:45.005Z</time></trkpt><trkpt lat="45.46499067837141" lon="7.762438184565954"><ele>607.2</ele><time>2026-05-03T15:38:47.005Z</time></trkpt><trkpt lat="45.465063443460295" lon="7.762327740882167"><ele>611.6</ele><time>2026-05-03T15:38:49.005Z</time></trkpt><trkpt lat="45.465138134231935" lon="7.762240202639318"><ele>616.0</ele><time>2026-05-03T15:38:51.005Z</time></trkpt><trkpt lat="45.465202688328176" lon="7.762164779479718"><ele>616.0</ele><time>2026-05-03T15:38:53.005Z</time></trkpt><trkpt lat="45.46528580775684" lon="7.762061159091093"><ele>616.0</ele><time>2026-05-03T15:38:55.005Z</time></trkpt><trkpt lat="45.46532954943683" lon="7.7619913505773965"><ele>616.0</ele><time>2026-05-03T15:38:56.005Z</time></trkpt><trkpt lat="45.46537153020077" lon="7.7619228890739125"><ele>616.0</ele><time>2026-05-03T15:38:57.005Z</time></trkpt><trkpt lat="45.46541973296028" lon="7.761819944810727"><ele>616.0</ele><time>2026-05-03T15:38:58.005Z</time></trkpt><trkpt lat="45.46546892991421" lon="7.761705750911586"><ele>616.0</ele><time>2026-05-03T15:38:59.005Z</time></trkpt><trkpt lat="45.46552741359006" lon="7.761623013505057"><ele>618.2</ele><time>2026-05-03T15:39:01.005Z</time></trkpt><trkpt lat="45.46561441470593" lon="7.761548475565107"><ele>620.4000000000001</ele><time>2026-05-03T15:40:20.006Z</time></trkpt><trkpt lat="45.465672505986134" lon="7.761495574435626"><ele>622.6</ele><time>2026-05-03T15:40:21.006Z</time></trkpt><trkpt lat="45.46571532899067" lon="7.761411910860088"><ele>624.8000000000001</ele><time>2026-05-03T15:40:22.006Z</time></trkpt><trkpt lat="45.46575750998306" lon="7.761317499444617"><ele>627.0</ele><time>2026-05-03T15:40:23.006Z</time></trkpt><trkpt lat="45.46589714186665" lon="7.761273643475563"><ele>627.0</ele><time>2026-05-03T15:40:24.006Z</time></trkpt><trkpt lat="45.4659910385251" lon="7.761282385497198"><ele>627.0</ele><time>2026-05-03T15:40:25.006Z</time></trkpt><trkpt lat="45.4660888346887" lon="7.761262376454478"><ele>627.0</ele><time>2026-05-03T15:40:26.006Z</time></trkpt><trkpt lat="45.466192311392184" lon="7.761266904576727"><ele>627.0</ele><time>2026-05-03T15:40:27.006Z</time></trkpt><trkpt lat="45.46628618905986" lon="7.761286265838932"><ele>627.0</ele><time>2026-05-03T15:40:28.006Z</time></trkpt><trkpt lat="45.466390999694596" lon="7.76131021118138"><ele>628.2</ele><time>2026-05-03T15:40:29.006Z</time></trkpt><trkpt lat="45.46649707405698" lon="7.76133794329103"><ele>629.4000000000001</ele><time>2026-05-03T15:40:30.006Z</time></trkpt><trkpt lat="45.46659481322803" lon="7.761359838843241"><ele>630.5999999999999</ele><time>2026-05-03T15:40:31.006Z</time></trkpt><trkpt lat="45.46669745891388" lon="7.761373962794264"><ele>631.8</ele><time>2026-05-03T15:40:32.006Z</time></trkpt><trkpt lat="45.46680647489127" lon="7.761385420878386"><ele>633.0</ele><time>2026-05-03T15:40:33.006Z</time></trkpt><trkpt lat="45.466918311489216" lon="7.7613871031287935"><ele>633.0</ele><time>2026-05-03T15:40:34.006Z</time></trkpt><trkpt lat="45.467032271329636" lon="7.761399501641081"><ele>633.0</ele><time>2026-05-03T15:40:35.006Z</time></trkpt><trkpt lat="45.46714108844426" lon="7.7614146155593655"><ele>633.0</ele><time>2026-05-03T15:40:36.006Z</time></trkpt><trkpt lat="45.46725032492362" lon="7.761428993361489"><ele>633.0</ele><time>2026-05-03T15:40:37.006Z</time></trkpt><trkpt lat="45.467377527705985" lon="7.761449410875116"><ele>634.1999999999999</ele><time>2026-05-03T15:40:38.006Z</time></trkpt><trkpt lat="45.46749366902457" lon="7.761469303089233"><ele>635.4</ele><time>2026-05-03T15:40:39.006Z</time></trkpt><trkpt lat="45.46760073481665" lon="7.761483164408561"><ele>636.5999999999999</ele><time>2026-05-03T15:40:40.006Z</time></trkpt><trkpt lat="45.46771069208244" lon="7.761492870810076"><ele>637.8</ele><time>2026-05-03T15:40:41.006Z</time></trkpt><trkpt lat="45.46782063041919" lon="7.76150108065083"><ele>639.0</ele><time>2026-05-03T15:40:42.006Z</time></trkpt><trkpt lat="45.46793927185641" lon="7.761527225255472"><ele>640.5</ele><time>2026-05-03T15:40:43.006Z</time></trkpt><trkpt lat="45.4680588745159" lon="7.761542264986974"><ele>642.0</ele><time>2026-05-03T15:40:44.006Z</time></trkpt><trkpt lat="45.46818249606453" lon="7.761549198842684"><ele>643.5</ele><time>2026-05-03T15:40:45.006Z</time></trkpt><trkpt lat="45.46830058308465" lon="7.761556835116737"><ele>645.0</ele><time>2026-05-03T15:40:46.006Z</time></trkpt><trkpt lat="45.46840030878476" lon="7.761583328131914"><ele>645.0</ele><time>2026-05-03T15:40:47.006Z</time></trkpt><trkpt lat="45.46851348839076" lon="7.761598979339208"><ele>645.0</ele><time>2026-05-03T15:40:48.006Z</time></trkpt><trkpt lat="45.4686263111675" lon="7.761589794858124"><ele>645.0</ele><time>2026-05-03T15:40:49.006Z</time></trkpt><trkpt lat="45.46873697095341" lon="7.761631198103723"><ele>645.0</ele><time>2026-05-03T15:40:50.006Z</time></trkpt><trkpt lat="45.468833757780125" lon="7.761642076045665"><ele>645.0</ele><time>2026-05-03T15:40:51.006Z</time></trkpt><trkpt lat="45.46894126724548" lon="7.761665785588545"><ele>645.0</ele><time>2026-05-03T15:40:52.006Z</time></trkpt><trkpt lat="45.46905474066013" lon="7.761713202614797"><ele>645.0</ele><time>2026-05-03T15:40:53.006Z</time></trkpt><trkpt lat="45.469169075895685" lon="7.761773454262351"><ele>645.0</ele><time>2026-05-03T15:40:54.006Z</time></trkpt><trkpt lat="45.46927601101301" lon="7.761853209421943"><ele>645.0</ele><time>2026-05-03T15:40:55.006Z</time></trkpt><trkpt lat="45.469377701285254" lon="7.7619601418061865"><ele>645.0</ele><time>2026-05-03T15:40:56.006Z</time></trkpt><trkpt lat="45.46946580805482" lon="7.762072069031651"><ele>645.0</ele><time>2026-05-03T15:40:57.006Z</time></trkpt><trkpt lat="45.46954847884092" lon="7.7621883614368645"><ele>645.0</ele><time>2026-05-03T15:40:58.007Z</time></trkpt><trkpt lat="45.46962328082743" lon="7.762298064962153"><ele>645.0</ele><time>2026-05-03T15:40:59.007Z</time></trkpt><trkpt lat="45.46970239560778" lon="7.762414385490679"><ele>648.0</ele><time>2026-05-03T15:41:00.007Z</time></trkpt><trkpt lat="45.469792271032816" lon="7.762532230645497"><ele>651.0</ele><time>2026-05-03T15:41:01.007Z</time></trkpt><trkpt lat="45.46988061622054" lon="7.762630767044601"><ele>654.0</ele><time>2026-05-03T15:41:02.007Z</time></trkpt><trkpt lat="45.470093050630716" lon="7.7628355997915035"><ele>654.0</ele><time>2026-05-03T15:41:04.007Z</time></trkpt><trkpt lat="45.47020351338868" lon="7.76291624144107"><ele>654.0</ele><time>2026-05-03T15:41:05.007Z</time></trkpt><trkpt lat="45.470315935615744" lon="7.7629913891267455"><ele>654.0</ele><time>2026-05-03T15:41:06.007Z</time></trkpt><trkpt lat="45.47043260001575" lon="7.7630623696325705"><ele>654.0</ele><time>2026-05-03T15:41:07.007Z</time></trkpt><trkpt lat="45.47054496174021" lon="7.763115281254516"><ele>655.5</ele><time>2026-05-03T15:41:08.007Z</time></trkpt><trkpt lat="45.470659836811535" lon="7.763160107474925"><ele>657.0</ele><time>2026-05-03T15:41:09.007Z</time></trkpt><trkpt lat="45.47078282791228" lon="7.7632040006339125"><ele>658.5</ele><time>2026-05-03T15:41:10.007Z</time></trkpt><trkpt lat="45.470912368004036" lon="7.7632468655109115"><ele>660.0</ele><time>2026-05-03T15:41:11.007Z</time></trkpt><trkpt lat="45.47104216534218" lon="7.76328742883869"><ele>660.0</ele><time>2026-05-03T15:41:12.007Z</time></trkpt><trkpt lat="45.4711711251574" lon="7.763329341493228"><ele>660.0</ele><time>2026-05-03T15:41:13.007Z</time></trkpt><trkpt lat="45.47129637592477" lon="7.763364019520553"><ele>660.0</ele><time>2026-05-03T15:41:14.007Z</time></trkpt><trkpt lat="45.47141734171048" lon="7.763403509229055"><ele>660.0</ele><time>2026-05-03T15:41:15.007Z</time></trkpt><trkpt lat="45.47153929343985" lon="7.763458668334873"><ele>661.3333333333334</ele><time>2026-05-03T15:41:16.007Z</time></trkpt><trkpt lat="45.471640041804285" lon="7.763523795672007"><ele>662.6666666666666</ele><time>2026-05-03T15:41:17.007Z</time></trkpt><trkpt lat="45.471727898620856" lon="7.763596691284781"><ele>664.0</ele><time>2026-05-03T15:41:18.007Z</time></trkpt><trkpt lat="45.47179524686188" lon="7.763674806487558"><ele>665.3333333333333</ele><time>2026-05-03T15:41:19.007Z</time></trkpt><trkpt lat="45.4718391557145" lon="7.763740623299092"><ele>666.6666666666666</ele><time>2026-05-03T15:41:20.007Z</time></trkpt><trkpt lat="45.47189194338007" lon="7.763809343554221"><ele>668.0</ele><time>2026-05-03T15:41:22.007Z</time></trkpt><trkpt lat="45.47198710591506" lon="7.763635752287417"><ele>668.0</ele><time>2026-05-03T15:41:24.007Z</time></trkpt><trkpt lat="45.47202333044644" lon="7.763536872700317"><ele>668.0</ele><time>2026-05-03T15:41:25.007Z</time></trkpt><trkpt lat="45.47206092353545" lon="7.763460747901612"><ele>668.0</ele><time>2026-05-03T15:41:26.007Z</time></trkpt><trkpt lat="45.472177606061805" lon="7.763467817477717"><ele>668.0</ele><time>2026-05-03T15:41:28.007Z</time></trkpt><trkpt lat="45.472249910463404" lon="7.763471592586315"><ele>668.0</ele><time>2026-05-03T15:41:29.007Z</time></trkpt><trkpt lat="45.472302780257095" lon="7.763585019004583"><ele>668.0</ele><time>2026-05-03T15:41:30.007Z</time></trkpt><trkpt lat="45.47237702845782" lon="7.763634075378941"><ele>668.1666666666666</ele><time>2026-05-03T15:41:31.007Z</time></trkpt><trkpt lat="45.47244368292326" lon="7.763717760670577"><ele>668.3333333333333</ele><time>2026-05-03T15:41:32.007Z</time></trkpt><trkpt lat="45.47251294029884" lon="7.763774334978385"><ele>668.5</ele><time>2026-05-03T15:41:33.007Z</time></trkpt><trkpt lat="45.47258626765068" lon="7.763791530825344"><ele>668.6666666666666</ele><time>2026-05-03T15:41:34.007Z</time></trkpt><trkpt lat="45.47266477827721" lon="7.763766172463358"><ele>668.8333333333334</ele><time>2026-05-03T15:41:35.007Z</time></trkpt><trkpt lat="45.472743198618176" lon="7.763780200920194"><ele>669.0</ele><time>2026-05-03T15:41:36.007Z</time></trkpt><trkpt lat="45.47283159789593" lon="7.763828245176178"><ele>669.0</ele><time>2026-05-03T15:41:37.007Z</time></trkpt><trkpt lat="45.47292275201576" lon="7.76391201638454"><ele>669.0</ele><time>2026-05-03T15:41:38.008Z</time></trkpt><trkpt lat="45.473015915732724" lon="7.764012107528927"><ele>669.0</ele><time>2026-05-03T15:41:39.008Z</time></trkpt><trkpt lat="45.473111597535286" lon="7.764105378540748"><ele>669.0</ele><time>2026-05-03T15:41:40.008Z</time></trkpt><trkpt lat="45.473192103806504" lon="7.764211245891851"><ele>670.75</ele><time>2026-05-03T15:41:41.008Z</time></trkpt><trkpt lat="45.473275820472075" lon="7.7643045845949175"><ele>672.5</ele><time>2026-05-03T15:41:42.008Z</time></trkpt><trkpt lat="45.473361719667494" lon="7.7644037702114"><ele>674.25</ele><time>2026-05-03T15:41:43.008Z</time></trkpt><trkpt lat="45.47345469131763" lon="7.7645250096453555"><ele>676.0</ele><time>2026-05-03T15:41:44.008Z</time></trkpt><trkpt lat="45.47357016154218" lon="7.764636269235966"><ele>676.0</ele><time>2026-05-03T15:41:45.008Z</time></trkpt><trkpt lat="45.47369061114929" lon="7.764756738964953"><ele>676.0</ele><time>2026-05-03T15:41:46.008Z</time></trkpt><trkpt lat="45.47379072521151" lon="7.764866572942128"><ele>676.0</ele><time>2026-05-03T15:41:47.008Z</time></trkpt><trkpt lat="45.47388986527682" lon="7.764975821596215"><ele>676.0</ele><time>2026-05-03T15:41:48.008Z</time></trkpt><trkpt lat="45.47400149462432" lon="7.765070018935068"><ele>678.0</ele><time>2026-05-03T15:41:49.008Z</time></trkpt><trkpt lat="45.474118809938396" lon="7.765152935221416"><ele>680.0</ele><time>2026-05-03T15:41:50.008Z</time></trkpt><trkpt lat="45.47424574426042" lon="7.765220448150923"><ele>682.0</ele><time>2026-05-03T15:41:51.008Z</time></trkpt><trkpt lat="45.47436156090385" lon="7.765283063468059"><ele>684.0</ele><time>2026-05-03T15:41:52.008Z</time></trkpt><trkpt lat="45.474476244090226" lon="7.765331820612377"><ele>684.0</ele><time>2026-05-03T15:41:53.008Z</time></trkpt><trkpt lat="45.47456718982387" lon="7.76539270964859"><ele>684.0</ele><time>2026-05-03T15:41:54.008Z</time></trkpt><trkpt lat="45.4746490669231" lon="7.765501247625489"><ele>684.0</ele><time>2026-05-03T15:41:55.008Z</time></trkpt><trkpt lat="45.47471755821238" lon="7.765619641845154"><ele>684.0</ele><time>2026-05-03T15:41:56.007Z</time></trkpt><trkpt lat="45.47475044871094" lon="7.765748007940649"><ele>684.0</ele><time>2026-05-03T15:41:57.007Z</time></trkpt><trkpt lat="45.47476479186693" lon="7.765872376745546"><ele>688.8000000000001</ele><time>2026-05-03T15:41:58.007Z</time></trkpt><trkpt lat="45.47475650637009" lon="7.7660338728395635"><ele>693.6</ele><time>2026-05-03T15:41:59.007Z</time></trkpt><trkpt lat="45.47478549181919" lon="7.766191316333539"><ele>698.4</ele><time>2026-05-03T15:42:00.007Z</time></trkpt><trkpt lat="45.47482306660016" lon="7.766330878814524"><ele>703.2</ele><time>2026-05-03T15:42:01.007Z</time></trkpt><trkpt lat="45.47487007176396" lon="7.76646960515086"><ele>708.0</ele><time>2026-05-03T15:42:02.007Z</time></trkpt><trkpt lat="45.47492002754769" lon="7.766607715224859"><ele>708.0</ele><time>2026-05-03T15:42:03.007Z</time></trkpt><trkpt lat="45.47496153889442" lon="7.766725257586685"><ele>708.0</ele><time>2026-05-03T15:42:04.007Z</time></trkpt><trkpt lat="45.4750045862502" lon="7.7668418778808155"><ele>708.0</ele><time>2026-05-03T15:42:05.007Z</time></trkpt><trkpt lat="45.47506166342818" lon="7.766971925842401"><ele>708.0</ele><time>2026-05-03T15:42:06.006Z</time></trkpt><trkpt lat="45.47512648548407" lon="7.7671120786840975"><ele>708.0</ele><time>2026-05-03T15:42:07.006Z</time></trkpt><trkpt lat="45.47518780994596" lon="7.7672224787836175"><ele>705.8</ele><time>2026-05-03T15:42:08.007Z</time></trkpt><trkpt lat="45.47522901323051" lon="7.767363581845558"><ele>703.5999999999999</ele><time>2026-05-03T15:42:09.007Z</time></trkpt><trkpt lat="45.47528721390776" lon="7.76749631242873"><ele>701.4000000000001</ele><time>2026-05-03T15:42:10.007Z</time></trkpt><trkpt lat="45.47535750156912" lon="7.767619899842109"><ele>699.2</ele><time>2026-05-03T15:42:11.007Z</time></trkpt><trkpt lat="45.47541770535055" lon="7.767748943597106"><ele>697.0</ele><time>2026-05-03T15:42:12.007Z</time></trkpt><trkpt lat="45.475481240369376" lon="7.767871778014883"><ele>703.5</ele><time>2026-05-03T15:42:13.007Z</time></trkpt><trkpt lat="45.47554420218992" lon="7.767998543002656"><ele>710.0</ele><time>2026-05-03T15:42:14.007Z</time></trkpt><trkpt lat="45.475586216695156" lon="7.768146339895643"><ele>716.5</ele><time>2026-05-03T15:42:15.007Z</time></trkpt><trkpt lat="45.47557415745959" lon="7.768315191365421"><ele>723.0</ele><time>2026-05-03T15:42:16.007Z</time></trkpt><trkpt lat="45.47559817218495" lon="7.7684843155232"><ele>723.0</ele><time>2026-05-03T15:42:17.007Z</time></trkpt><trkpt lat="45.475611596529205" lon="7.76864190996618"><ele>723.0</ele><time>2026-05-03T15:42:18.007Z</time></trkpt><trkpt lat="45.47564307743913" lon="7.768786043680418"><ele>723.0</ele><time>2026-05-03T15:42:19.007Z</time></trkpt><trkpt lat="45.47569724619882" lon="7.768937671837452"><ele>723.0</ele><time>2026-05-03T15:42:20.007Z</time></trkpt><trkpt lat="45.47574775258242" lon="7.769086859465626"><ele>723.0</ele><time>2026-05-03T15:42:21.007Z</time></trkpt><trkpt lat="45.475792981940714" lon="7.769240171826543"><ele>723.0</ele><time>2026-05-03T15:42:22.007Z</time></trkpt><trkpt lat="45.47584064089294" lon="7.7693907833339075"><ele>723.0</ele><time>2026-05-03T15:42:23.007Z</time></trkpt><trkpt lat="45.47586201624092" lon="7.769545203656838"><ele>723.0</ele><time>2026-05-03T15:42:24.007Z</time></trkpt><trkpt lat="45.475835863110355" lon="7.769681465779307"><ele>723.0</ele><time>2026-05-03T15:42:25.007Z</time></trkpt><trkpt lat="45.47579986618255" lon="7.76985854747608"><ele>725.25</ele><time>2026-05-03T15:42:26.007Z</time></trkpt><trkpt lat="45.475765405771725" lon="7.770043238667373"><ele>727.5</ele><time>2026-05-03T15:42:27.007Z</time></trkpt><trkpt lat="45.47574987384771" lon="7.770226597884538"><ele>729.75</ele><time>2026-05-03T15:42:28.007Z</time></trkpt><trkpt lat="45.4757427994594" lon="7.77042270789292"><ele>732.0</ele><time>2026-05-03T15:42:29.007Z</time></trkpt><trkpt lat="45.47573600614855" lon="7.770586410326088"><ele>734.0</ele><time>2026-05-03T15:42:30.007Z</time></trkpt><trkpt lat="45.4757268273918" lon="7.770752728044726"><ele>736.0</ele><time>2026-05-03T15:42:31.007Z</time></trkpt><trkpt lat="45.475713402875215" lon="7.770930921314828"><ele>738.0</ele><time>2026-05-03T15:42:32.007Z</time></trkpt><trkpt lat="45.47570082521295" lon="7.771103947674101"><ele>740.0</ele><time>2026-05-03T15:42:33.007Z</time></trkpt><trkpt lat="45.4756778153834" lon="7.771277535186095"><ele>742.0</ele><time>2026-05-03T15:42:34.007Z</time></trkpt><trkpt lat="45.475653109164334" lon="7.771444685677053"><ele>744.0</ele><time>2026-05-03T15:42:35.007Z</time></trkpt><trkpt lat="45.47563752837442" lon="7.771612691293883"><ele>746.0</ele><time>2026-05-03T15:42:36.007Z</time></trkpt><trkpt lat="45.47563485333991" lon="7.771825946201662"><ele>748.0</ele><time>2026-05-03T15:42:37.008Z</time></trkpt><trkpt lat="45.47561960790526" lon="7.772028493940229"><ele>751.0</ele><time>2026-05-03T15:42:38.008Z</time></trkpt><trkpt lat="45.475593853663064" lon="7.772221830403517"><ele>754.0</ele><time>2026-05-03T15:42:39.008Z</time></trkpt><trkpt lat="45.475563346272295" lon="7.7724063628577476"><ele>757.0</ele><time>2026-05-03T15:42:40.008Z</time></trkpt><trkpt lat="45.475526727445384" lon="7.77256862705296"><ele>760.0</ele><time>2026-05-03T15:42:41.008Z</time></trkpt><trkpt lat="45.47551360979493" lon="7.772673425381335"><ele>760.0</ele><time>2026-05-03T15:42:42.008Z</time></trkpt><trkpt lat="45.47558738773172" lon="7.772730398933244"><ele>760.0</ele><time>2026-05-03T15:42:44.008Z</time></trkpt><trkpt lat="45.47567873601196" lon="7.772719956454392"><ele>760.0</ele><time>2026-05-03T15:42:46.008Z</time></trkpt><trkpt lat="45.47568460919248" lon="7.772615314021442"><ele>760.0</ele><time>2026-05-03T15:42:47.008Z</time></trkpt><trkpt lat="45.475737804541204" lon="7.772525429906431"><ele>760.0</ele><time>2026-05-03T15:42:48.008Z</time></trkpt><trkpt lat="45.47577819109804" lon="7.772419393573911"><ele>760.0</ele><time>2026-05-03T15:42:49.008Z</time></trkpt><trkpt lat="45.475812717075456" lon="7.77229823106877"><ele>760.0</ele><time>2026-05-03T15:42:50.008Z</time></trkpt><trkpt lat="45.47586968372844" lon="7.772179776365044"><ele>760.0</ele><time>2026-05-03T15:42:51.008Z</time></trkpt><trkpt lat="45.47594508588155" lon="7.772037451145316"><ele>760.0</ele><time>2026-05-03T15:42:52.008Z</time></trkpt><trkpt lat="45.47601978380658" lon="7.771874095886742"><ele>760.0</ele><time>2026-05-03T15:42:53.008Z</time></trkpt><trkpt lat="45.47608203721454" lon="7.771695012145154"><ele>756.0</ele><time>2026-05-03T15:42:54.008Z</time></trkpt><trkpt lat="45.47616431901572" lon="7.771490654295538"><ele>752.0</ele><time>2026-05-03T15:42:55.008Z</time></trkpt><trkpt lat="45.47624002332425" lon="7.771297066086257"><ele>748.0</ele><time>2026-05-03T15:42:56.008Z</time></trkpt><trkpt lat="45.47630689909878" lon="7.771086823664439"><ele>757.25</ele><time>2026-05-03T15:42:57.007Z</time></trkpt><trkpt lat="45.47634900392106" lon="7.77090401311739"><ele>766.5</ele><time>2026-05-03T15:42:58.007Z</time></trkpt><trkpt lat="45.47639194219263" lon="7.770720958773354"><ele>775.75</ele><time>2026-05-03T15:42:59.006Z</time></trkpt><trkpt lat="45.47645378470508" lon="7.770546075944163"><ele>785.0</ele><time>2026-05-03T15:43:00.006Z</time></trkpt><trkpt lat="45.47649186659763" lon="7.770379793676765"><ele>782.6666666666667</ele><time>2026-05-03T15:43:01.006Z</time></trkpt><trkpt lat="45.47652457764627" lon="7.770179599089127"><ele>780.3333333333333</ele><time>2026-05-03T15:43:02.005Z</time></trkpt><trkpt lat="45.47655221347097" lon="7.7699688015357555"><ele>778.0</ele><time>2026-05-03T15:43:03.005Z</time></trkpt><trkpt lat="45.47658300653261" lon="7.769741432543104"><ele>778.0</ele><time>2026-05-03T15:43:04.005Z</time></trkpt><trkpt lat="45.47659705451493" lon="7.769538766329823"><ele>778.0</ele><time>2026-05-03T15:43:05.004Z</time></trkpt><trkpt lat="45.47663900181387" lon="7.769358420925058"><ele>778.0</ele><time>2026-05-03T15:43:06.004Z</time></trkpt><trkpt lat="45.476682502731805" lon="7.769170877815881"><ele>778.0</ele><time>2026-05-03T15:43:07.004Z</time></trkpt><trkpt lat="45.476728338831265" lon="7.768968214160603"><ele>776.5</ele><time>2026-05-03T15:43:08.004Z</time></trkpt><trkpt lat="45.47676593316961" lon="7.768757441638793"><ele>775.0</ele><time>2026-05-03T15:43:09.004Z</time></trkpt><trkpt lat="45.47682769080742" lon="7.768560259760048"><ele>773.5</ele><time>2026-05-03T15:43:10.003Z</time></trkpt><trkpt lat="45.476865869995045" lon="7.768372023923655"><ele>772.0</ele><time>2026-05-03T15:43:11.003Z</time></trkpt><trkpt lat="45.47685171268586" lon="7.76816429310579"><ele>770.25</ele><time>2026-05-03T15:43:12.003Z</time></trkpt><trkpt lat="45.47684942116518" lon="7.767959938735709"><ele>768.5</ele><time>2026-05-03T15:43:13.003Z</time></trkpt><trkpt lat="45.476844716934124" lon="7.767743900704298"><ele>766.75</ele><time>2026-05-03T15:43:14.003Z</time></trkpt><trkpt lat="45.47684142766616" lon="7.767529462487954"><ele>765.0</ele><time>2026-05-03T15:43:15.003Z</time></trkpt><trkpt lat="45.47683830514828" lon="7.767320494473324"><ele>765.0</ele><time>2026-05-03T15:43:16.002Z</time></trkpt><trkpt lat="45.476832715612645" lon="7.767074250815381"><ele>765.0</ele><time>2026-05-03T15:43:17.002Z</time></trkpt><trkpt lat="45.47682475188851" lon="7.7668320479878075"><ele>765.0</ele><time>2026-05-03T15:43:18.002Z</time></trkpt><trkpt lat="45.476812037871966" lon="7.766590369068591"><ele>767.3333333333333</ele><time>2026-05-03T15:43:19.002Z</time></trkpt><trkpt lat="45.4767841979791" lon="7.766287537583732"><ele>769.6666666666666</ele><time>2026-05-03T15:43:20.002Z</time></trkpt><trkpt lat="45.476758316981126" lon="7.7660469221640955"><ele>772.0</ele><time>2026-05-03T15:43:21.002Z</time></trkpt><trkpt lat="45.476723722889254" lon="7.765830637157425"><ele>774.25</ele><time>2026-05-03T15:43:22.002Z</time></trkpt><trkpt lat="45.476706784170204" lon="7.765622269377137"><ele>776.5</ele><time>2026-05-03T15:43:23.002Z</time></trkpt><trkpt lat="45.476695746975466" lon="7.765417726760679"><ele>778.75</ele><time>2026-05-03T15:43:24.002Z</time></trkpt><trkpt lat="45.47668437336948" lon="7.765227502763094"><ele>781.0</ele><time>2026-05-03T15:43:25.002Z</time></trkpt><trkpt lat="45.47667950985538" lon="7.765031374003868"><ele>783.6666666666666</ele><time>2026-05-03T15:43:26.002Z</time></trkpt><trkpt lat="45.4766442688658" lon="7.76481227757245"><ele>786.3333333333333</ele><time>2026-05-03T15:43:27.002Z</time></trkpt><trkpt lat="45.47658428816639" lon="7.764606210034882"><ele>789.0</ele><time>2026-05-03T15:43:28.002Z</time></trkpt><trkpt lat="45.476505235667965" lon="7.76440813452472"><ele>792.6666666666667</ele><time>2026-05-03T15:43:29.002Z</time></trkpt><trkpt lat="45.476409766281364" lon="7.764206399060246"><ele>796.3333333333334</ele><time>2026-05-03T15:43:30.002Z</time></trkpt><trkpt lat="45.47628882320178" lon="7.764063371874131"><ele>800.0</ele><time>2026-05-03T15:43:31.002Z</time></trkpt><trkpt lat="45.476200908771084" lon="7.763899199880184"><ele>795.25</ele><time>2026-05-03T15:43:32.002Z</time></trkpt><trkpt lat="45.476136646102354" lon="7.763710562964885"><ele>790.5</ele><time>2026-05-03T15:43:33.001Z</time></trkpt><trkpt lat="45.47607729127442" lon="7.763517396903852"><ele>785.75</ele><time>2026-05-03T15:43:34.001Z</time></trkpt><trkpt lat="45.47604677769702" lon="7.763357468460496"><ele>781.0</ele><time>2026-05-03T15:43:35.001Z</time></trkpt><trkpt lat="45.476021636567225" lon="7.763223002558079"><ele>781.0</ele><time>2026-05-03T15:43:36.001Z</time></trkpt><trkpt lat="45.47608960171938" lon="7.763114769554645"><ele>781.0</ele><time>2026-05-03T15:43:37.001Z</time></trkpt><trkpt lat="45.47618343210547" lon="7.763019525298751"><ele>781.0</ele><time>2026-05-03T15:43:38.001Z</time></trkpt><trkpt lat="45.476296122532816" lon="7.762929460377682"><ele>781.0</ele><time>2026-05-03T15:43:39.001Z</time></trkpt><trkpt lat="45.476405350341" lon="7.762838932131178"><ele>787.0</ele><time>2026-05-03T15:43:40.001Z</time></trkpt><trkpt lat="45.476444056963516" lon="7.76271268995238"><ele>793.0</ele><time>2026-05-03T15:43:41.001Z</time></trkpt><trkpt lat="45.47645682717577" lon="7.762591651403503"><ele>799.0</ele><time>2026-05-03T15:43:42.001Z</time></trkpt><trkpt lat="45.47642694108262" lon="7.762477358714425"><ele>805.0</ele><time>2026-05-03T15:43:43.001Z</time></trkpt><trkpt lat="45.47637494342977" lon="7.762374433194277"><ele>811.0</ele><time>2026-05-03T15:43:44.001Z</time></trkpt><trkpt lat="45.4763235312791" lon="7.762237491477014"><ele>811.4</ele><time>2026-05-03T15:43:46.001Z</time></trkpt><trkpt lat="45.47630765959412" lon="7.762134318755078"><ele>811.8</ele><time>2026-05-03T15:44:09Z</time></trkpt><trkpt lat="45.47631342544872" lon="7.762010878853579"><ele>812.1999999999999</ele><time>2026-05-03T15:44:12Z</time></trkpt><trkpt lat="45.47632967680029" lon="7.761834638227372"><ele>812.5999999999999</ele><time>2026-05-03T15:44:14Z</time></trkpt><trkpt lat="45.476367329548275" lon="7.7617245217953315"><ele>813.0</ele><time>2026-05-03T15:44:15Z</time></trkpt><trkpt lat="45.476432305881765" lon="7.76163219385127"><ele>813.0</ele><time>2026-05-03T15:44:16Z</time></trkpt><trkpt lat="45.47650254213007" lon="7.761519736393027"><ele>813.0</ele><time>2026-05-03T15:44:17Z</time></trkpt><trkpt lat="45.47656667513068" lon="7.761432572815476"><ele>813.0</ele><time>2026-05-03T15:44:18Z</time></trkpt><trkpt lat="45.476643348078454" lon="7.761438996864958"><ele>813.0</ele><time>2026-05-03T15:44:20Z</time></trkpt><trkpt lat="45.476597327277425" lon="7.761563419914333"><ele>813.0</ele><time>2026-05-03T15:44:22Z</time></trkpt><trkpt lat="45.47658335819087" lon="7.7616894329543085"><ele>813.0</ele><time>2026-05-03T15:44:23Z</time></trkpt><trkpt lat="45.476586812847316" lon="7.76181080326816"><ele>813.0</ele><time>2026-05-03T15:44:24Z</time></trkpt><trkpt lat="45.47666962124605" lon="7.761931232784141"><ele>813.0</ele><time>2026-05-03T15:44:25Z</time></trkpt><trkpt lat="45.47676195266876" lon="7.762037831589861"><ele>813.0</ele><time>2026-05-03T15:44:26Z</time></trkpt><trkpt lat="45.476821071611276" lon="7.762151340699859"><ele>813.0</ele><time>2026-05-03T15:44:27Z</time></trkpt><trkpt lat="45.47685306331355" lon="7.762294247237321"><ele>813.25</ele><time>2026-05-03T15:44:28Z</time></trkpt><trkpt lat="45.47688261669648" lon="7.7624555231973735"><ele>813.5</ele><time>2026-05-03T15:44:29Z</time></trkpt><trkpt lat="45.47691407379875" lon="7.762643203476229"><ele>813.75</ele><time>2026-05-03T15:44:30Z</time></trkpt><trkpt lat="45.47694483745172" lon="7.762844057800265"><ele>814.0</ele><time>2026-05-03T15:44:31Z</time></trkpt><trkpt lat="45.476986906503654" lon="7.763054609668467"><ele>813.25</ele><time>2026-05-03T15:44:32Z</time></trkpt><trkpt lat="45.47704017514629" lon="7.763239527346912"><ele>812.5</ele><time>2026-05-03T15:44:33Z</time></trkpt><trkpt lat="45.47712859142585" lon="7.763390090675647"><ele>811.75</ele><time>2026-05-03T15:44:34Z</time></trkpt><trkpt lat="45.477257763584014" lon="7.76351076214713"><ele>811.0</ele><time>2026-05-03T15:44:35Z</time></trkpt><trkpt lat="45.47735934869093" lon="7.76363490408525"><ele>816.0</ele><time>2026-05-03T15:44:36Z</time></trkpt><trkpt lat="45.47742496976222" lon="7.763775613676107"><ele>821.0</ele><time>2026-05-03T15:44:37Z</time></trkpt><trkpt lat="45.47749908615282" lon="7.763928694372558"><ele>826.0</ele><time>2026-05-03T15:44:38Z</time></trkpt><trkpt lat="45.47758384711973" lon="7.764082075110808"><ele>831.0</ele><time>2026-05-03T15:44:39Z</time></trkpt><trkpt lat="45.47762653029438" lon="7.764226755535052"><ele>830.25</ele><time>2026-05-03T15:44:40Z</time></trkpt><trkpt lat="45.477637732310974" lon="7.764370506729762"><ele>829.5</ele><time>2026-05-03T15:44:41Z</time></trkpt><trkpt lat="45.47766551220252" lon="7.764528855211424"><ele>828.75</ele><time>2026-05-03T15:44:42Z</time></trkpt><trkpt lat="45.477738150154124" lon="7.764681847320029"><ele>828.0</ele><time>2026-05-03T15:44:43Z</time></trkpt><trkpt lat="45.47783977216667" lon="7.76478003832158"><ele>828.0</ele><time>2026-05-03T15:44:44.001Z</time></trkpt><trkpt lat="45.47791902533071" lon="7.764808897765506"><ele>828.0</ele><time>2026-05-03T15:44:45.001Z</time></trkpt><trkpt lat="45.478002251081904" lon="7.764728713554088"><ele>828.0</ele><time>2026-05-03T15:44:46.001Z</time></trkpt><trkpt lat="45.47805576636631" lon="7.764615139074222"><ele>828.0</ele><time>2026-05-03T15:44:47.001Z</time></trkpt><trkpt lat="45.47809322545521" lon="7.764478561957674"><ele>828.0</ele><time>2026-05-03T15:44:48.001Z</time></trkpt><trkpt lat="45.47809969649036" lon="7.764311529560605"><ele>832.25</ele><time>2026-05-03T15:44:49.001Z</time></trkpt><trkpt lat="45.478078404165316" lon="7.764145109715885"><ele>836.5</ele><time>2026-05-03T15:44:50.001Z</time></trkpt><trkpt lat="45.478047059097285" lon="7.7639712654506345"><ele>840.75</ele><time>2026-05-03T15:44:51.001Z</time></trkpt><trkpt lat="45.47803234332149" lon="7.763790872088137"><ele>845.0</ele><time>2026-05-03T15:44:52.001Z</time></trkpt><trkpt lat="45.478044174780074" lon="7.76362084611248"><ele>846.8</ele><time>2026-05-03T15:44:53.001Z</time></trkpt><trkpt lat="45.478069114375415" lon="7.763467201910744"><ele>848.6</ele><time>2026-05-03T15:44:54.001Z</time></trkpt><trkpt lat="45.47810378655756" lon="7.763330436516333"><ele>850.4000000000001</ele><time>2026-05-03T15:44:55.001Z</time></trkpt><trkpt lat="45.47814712913203" lon="7.763234983908894"><ele>852.2</ele><time>2026-05-03T15:44:56.001Z</time></trkpt><trkpt lat="45.47820618653526" lon="7.763098767221727"><ele>854.0</ele><time>2026-05-03T15:44:57.001Z</time></trkpt><trkpt lat="45.47827607926115" lon="7.762949172434523"><ele>854.0</ele><time>2026-05-03T15:44:58.001Z</time></trkpt><trkpt lat="45.47835064648881" lon="7.762767601191746"><ele>854.0</ele><time>2026-05-03T15:44:59.001Z</time></trkpt><trkpt lat="45.478428091217275" lon="7.762590188646292"><ele>854.0</ele><time>2026-05-03T15:45:00.001Z</time></trkpt><trkpt lat="45.47839669146193" lon="7.762322640340492"><ele>855.0</ele><time>2026-05-03T15:45:01.001Z</time></trkpt><trkpt lat="45.47843194485403" lon="7.762102486053355"><ele>856.0</ele><time>2026-05-03T15:45:02.001Z</time></trkpt><trkpt lat="45.4784636627017" lon="7.761922104455168"><ele>857.0</ele><time>2026-05-03T15:45:03.001Z</time></trkpt><trkpt lat="45.47851712332284" lon="7.761761413510064"><ele>858.0</ele><time>2026-05-03T15:45:04.001Z</time></trkpt><trkpt lat="45.47857444167098" lon="7.761605391324352"><ele>859.0</ele><time>2026-05-03T15:45:05.001Z</time></trkpt><trkpt lat="45.47864025648485" lon="7.761420459574596"><ele>860.0</ele><time>2026-05-03T15:45:06.001Z</time></trkpt><trkpt lat="45.478703809876734" lon="7.761209903893889"><ele>861.0</ele><time>2026-05-03T15:45:07.001Z</time></trkpt><trkpt lat="45.478756191446244" lon="7.7610140857421435"><ele>866.5</ele><time>2026-05-03T15:45:08.001Z</time></trkpt><trkpt lat="45.47880543099504" lon="7.7608354429989586"><ele>872.0</ele><time>2026-05-03T15:45:09.001Z</time></trkpt><trkpt lat="45.47885557410246" lon="7.760682341496623"><ele>877.5</ele><time>2026-05-03T15:45:10.001Z</time></trkpt><trkpt lat="45.4789248049867" lon="7.760534050874932"><ele>883.0</ele><time>2026-05-03T15:45:11.001Z</time></trkpt><trkpt lat="45.47902110991903" lon="7.760427443969304"><ele>883.0</ele><time>2026-05-03T15:45:12.001Z</time></trkpt><trkpt lat="45.47908391432462" lon="7.760362592232686"><ele>883.0</ele><time>2026-05-03T15:45:13.001Z</time></trkpt><trkpt lat="45.47915638888214" lon="7.76042494961111"><ele>883.0</ele><time>2026-05-03T15:45:15.001Z</time></trkpt><trkpt lat="45.47905453902246" lon="7.760544842791891"><ele>883.0</ele><time>2026-05-03T15:45:16.001Z</time></trkpt><trkpt lat="45.4790626486094" lon="7.760699413890276"><ele>883.0</ele><time>2026-05-03T15:45:18.001Z</time></trkpt><trkpt lat="45.479121647115676" lon="7.760817544882343"><ele>882.9999999999999</ele><time>2026-05-03T15:45:20.001Z</time></trkpt><trkpt lat="45.47917915143804" lon="7.760779783325273"><ele>883.0</ele><time>2026-05-03T15:45:21.001Z</time></trkpt><trkpt lat="45.47920258184067" lon="7.760652654692953"><ele>883.0</ele><time>2026-05-03T15:45:22.001Z</time></trkpt><trkpt lat="45.47922578025199" lon="7.760546463867439"><ele>883.0</ele><time>2026-05-03T15:45:23.001Z</time></trkpt><trkpt lat="45.47926640439834" lon="7.760424882053877"><ele>882.9999999999999</ele><time>2026-05-03T15:45:24.001Z</time></trkpt><trkpt lat="45.479310063312404" lon="7.760299752809552"><ele>883.0</ele><time>2026-05-03T15:45:25.001Z</time></trkpt><trkpt lat="45.47935156162722" lon="7.760108628020838"><ele>884.75</ele><time>2026-05-03T15:45:26.001Z</time></trkpt><trkpt lat="45.47939371597891" lon="7.75992602188858"><ele>886.5</ele><time>2026-05-03T15:45:27.002Z</time></trkpt><trkpt lat="45.47943522937784" lon="7.759751543009036"><ele>888.25</ele><time>2026-05-03T15:45:28.002Z</time></trkpt><trkpt lat="45.47951283964763" lon="7.75958827110366"><ele>890.0</ele><time>2026-05-03T15:45:29.002Z</time></trkpt><trkpt lat="45.47958607910584" lon="7.759441951638426"><ele>894.4</ele><time>2026-05-03T15:45:30.002Z</time></trkpt><trkpt lat="45.47964319679801" lon="7.759273533673733"><ele>898.8</ele><time>2026-05-03T15:45:31.002Z</time></trkpt><trkpt lat="45.47974094602106" lon="7.7591721484702525"><ele>903.2</ele><time>2026-05-03T15:45:32.002Z</time></trkpt><trkpt lat="45.47972437378514" lon="7.759012862137913"><ele>907.6</ele><time>2026-05-03T15:45:33.002Z</time></trkpt><trkpt lat="45.479744466249436" lon="7.75890698905421"><ele>912.0</ele><time>2026-05-03T15:45:34.002Z</time></trkpt><trkpt lat="45.47975657311288" lon="7.758761180014395"><ele>912.0</ele><time>2026-05-03T15:45:35.002Z</time></trkpt><trkpt lat="45.479804299905844" lon="7.758638166316719"><ele>912.0</ele><time>2026-05-03T15:45:36.002Z</time></trkpt><trkpt lat="45.47986746004913" lon="7.75846671939422"><ele>912.0</ele><time>2026-05-03T15:45:37.002Z</time></trkpt><trkpt lat="45.47990786127286" lon="7.758303974540826"><ele>912.0</ele><time>2026-05-03T15:45:38.002Z</time></trkpt><trkpt lat="45.47991415631576" lon="7.758126827699053"><ele>914.0</ele><time>2026-05-03T15:45:39.002Z</time></trkpt><trkpt lat="45.47993995443596" lon="7.757953795720105"><ele>916.0</ele><time>2026-05-03T15:45:40.002Z</time></trkpt><trkpt lat="45.47996318688276" lon="7.757758631513783"><ele>918.0</ele><time>2026-05-03T15:45:41.002Z</time></trkpt><trkpt lat="45.479982977624225" lon="7.757590493822508"><ele>920.0</ele><time>2026-05-03T15:45:42.002Z</time></trkpt><trkpt lat="45.48001542892995" lon="7.75749684117012"><ele>920.0</ele><time>2026-05-03T15:45:43.002Z</time></trkpt><trkpt lat="45.480072571730005" lon="7.757423942773653"><ele>920.0</ele><time>2026-05-03T15:45:45.002Z</time></trkpt><trkpt lat="45.48010751752441" lon="7.757650771136186"><ele>920.0</ele><time>2026-05-03T15:45:48.002Z</time></trkpt><trkpt lat="45.480100287877434" lon="7.757775022060522"><ele>920.0</ele><time>2026-05-03T15:45:49.002Z</time></trkpt><trkpt lat="45.480109400101746" lon="7.757919080502782"><ele>920.0</ele><time>2026-05-03T15:45:50.002Z</time></trkpt><trkpt lat="45.48014330502498" lon="7.758061723818635"><ele>920.0</ele><time>2026-05-03T15:45:51.002Z</time></trkpt><trkpt lat="45.48018194366197" lon="7.758192063550308"><ele>920.0</ele><time>2026-05-03T15:45:52.002Z</time></trkpt><trkpt lat="45.480228476949016" lon="7.758319044765815"><ele>920.0</ele><time>2026-05-03T15:45:53.002Z</time></trkpt><trkpt lat="45.48027540147521" lon="7.758425942526981"><ele>920.0</ele><time>2026-05-03T15:45:54.002Z</time></trkpt><trkpt lat="45.48033019907211" lon="7.7585172806897695"><ele>920.0</ele><time>2026-05-03T15:45:55.002Z</time></trkpt><trkpt lat="45.48040749656168" lon="7.758577452289844"><ele>920.0</ele><time>2026-05-03T15:45:57.002Z</time></trkpt><trkpt lat="45.48047303969842" lon="7.758510694474163"><ele>920.0</ele><time>2026-05-03T15:45:58.002Z</time></trkpt><trkpt lat="45.48045494307934" lon="7.758351406772734"><ele>920.0</ele><time>2026-05-03T15:45:59.002Z</time></trkpt><trkpt lat="45.48041206209109" lon="7.758255689868268"><ele>920.0</ele><time>2026-05-03T15:46:00.002Z</time></trkpt><trkpt lat="45.480382766714854" lon="7.758155201157617"><ele>920.0</ele><time>2026-05-03T15:46:01.002Z</time></trkpt><trkpt lat="45.48035469349052" lon="7.758006963544991"><ele>920.0</ele><time>2026-05-03T15:46:02.002Z</time></trkpt><trkpt lat="45.4803930543084" lon="7.757868386878512"><ele>920.0</ele><time>2026-05-03T15:46:03.002Z</time></trkpt><trkpt lat="45.48042217956974" lon="7.7577175626453965"><ele>920.0</ele><time>2026-05-03T15:46:04.002Z</time></trkpt><trkpt lat="45.48046149162999" lon="7.7575642636846505"><ele>920.0</ele><time>2026-05-03T15:46:05.002Z</time></trkpt><trkpt lat="45.48052168484603" lon="7.757430466929689"><ele>920.0</ele><time>2026-05-03T15:46:06.002Z</time></trkpt><trkpt lat="45.480589494607024" lon="7.757359841178128"><ele>926.2</ele><time>2026-05-03T15:46:07.002Z</time></trkpt><trkpt lat="45.480655234982144" lon="7.757336088686209"><ele>932.4</ele><time>2026-05-03T15:46:08.001Z</time></trkpt><trkpt lat="45.48074411402467" lon="7.757298922008191"><ele>938.5999999999999</ele><time>2026-05-03T15:46:09.001Z</time></trkpt><trkpt lat="45.48084697133269" lon="7.757249232694584"><ele>944.8</ele><time>2026-05-03T15:46:10.001Z</time></trkpt><trkpt lat="45.48090734153405" lon="7.757148424850303"><ele>951.0</ele><time>2026-05-03T15:46:11.002Z</time></trkpt><trkpt lat="45.48088363381034" lon="7.756987566273117"><ele>951.0</ele><time>2026-05-03T15:46:12.001Z</time></trkpt><trkpt lat="45.48091884237499" lon="7.75688160305319"><ele>950.9999999999999</ele><time>2026-05-03T15:46:14.001Z</time></trkpt><trkpt lat="45.4810144042316" lon="7.7569684427597725"><ele>950.9999999999999</ele><time>2026-05-03T15:46:16.001Z</time></trkpt><trkpt lat="45.4810398015202" lon="7.757063776593094"><ele>951.0</ele><time>2026-05-03T15:46:17.001Z</time></trkpt><trkpt lat="45.481020747752304" lon="7.757219272077788"><ele>951.0</ele><time>2026-05-03T15:46:18.001Z</time></trkpt><trkpt lat="45.4810269454132" lon="7.757390134278283"><ele>951.0</ele><time>2026-05-03T15:46:19.001Z</time></trkpt><trkpt lat="45.48102865509274" lon="7.757559334236792"><ele>950.9999999999999</ele><time>2026-05-03T15:46:20.002Z</time></trkpt><trkpt lat="45.481011048182836" lon="7.757735979807002"><ele>950.9999999999999</ele><time>2026-05-03T15:46:21.001Z</time></trkpt><trkpt lat="45.48100700881072" lon="7.757896716905424"><ele>951.0</ele><time>2026-05-03T15:46:22.001Z</time></trkpt><trkpt lat="45.48100879907681" lon="7.758022248100107"><ele>951.0</ele><time>2026-05-03T15:46:23.001Z</time></trkpt><trkpt lat="45.4810570343454" lon="7.758175215509773"><ele>951.0</ele><time>2026-05-03T15:46:25.001Z</time></trkpt><trkpt lat="45.481185921603824" lon="7.758211237945792"><ele>950.9999999999999</ele><time>2026-05-03T15:46:27.001Z</time></trkpt><trkpt lat="45.48124521565923" lon="7.758101714548133"><ele>950.9999999999999</ele><time>2026-05-03T15:46:28.001Z</time></trkpt><trkpt lat="45.48126527088749" lon="7.757969201049058"><ele>951.0</ele><time>2026-05-03T15:46:29.001Z</time></trkpt><trkpt lat="45.48131640074992" lon="7.757876894171216"><ele>951.0</ele><time>2026-05-03T15:46:30.001Z</time></trkpt><trkpt lat="45.48136743794745" lon="7.757788169194609"><ele>953.8333333333334</ele><time>2026-05-03T15:46:31.001Z</time></trkpt><trkpt lat="45.48142117021483" lon="7.757726088345978"><ele>956.6666666666667</ele><time>2026-05-03T15:46:32.001Z</time></trkpt><trkpt lat="45.481485882813004" lon="7.757720503576017"><ele>959.5</ele><time>2026-05-03T15:46:33.001Z</time></trkpt><trkpt lat="45.48154654066474" lon="7.757749585385603"><ele>962.3333333333334</ele><time>2026-05-03T15:46:34.001Z</time></trkpt><trkpt lat="45.481615430261535" lon="7.757800263425568"><ele>965.1666666666667</ele><time>2026-05-03T15:46:35.002Z</time></trkpt><trkpt lat="45.48172443707086" lon="7.757799539401801"><ele>968.0</ele><time>2026-05-03T15:46:36.002Z</time></trkpt><trkpt lat="45.48182993464332" lon="7.757717798435967"><ele>969.25</ele><time>2026-05-03T15:46:37.002Z</time></trkpt><trkpt lat="45.481903001387074" lon="7.757555171741795"><ele>970.5</ele><time>2026-05-03T15:46:38.002Z</time></trkpt><trkpt lat="45.481939948268085" lon="7.7574002172853085"><ele>971.75</ele><time>2026-05-03T15:46:39.002Z</time></trkpt><trkpt lat="45.4819683074417" lon="7.7572208758799714"><ele>973.0</ele><time>2026-05-03T15:46:40.002Z</time></trkpt><trkpt lat="45.48199602285577" lon="7.757048305546683"><ele>970.75</ele><time>2026-05-03T15:46:41.002Z</time></trkpt><trkpt lat="45.48201629439934" lon="7.7568554675491725"><ele>968.5</ele><time>2026-05-03T15:46:42.002Z</time></trkpt><trkpt lat="45.482043349242225" lon="7.756677718636952"><ele>966.25</ele><time>2026-05-03T15:46:43.002Z</time></trkpt><trkpt lat="45.48209100593475" lon="7.756497586912367"><ele>964.0</ele><time>2026-05-03T15:46:44.002Z</time></trkpt><trkpt lat="45.48215518203103" lon="7.756326029879108"><ele>972.75</ele><time>2026-05-03T15:46:45.002Z</time></trkpt><trkpt lat="45.482230260631134" lon="7.756153031604204"><ele>981.5</ele><time>2026-05-03T15:46:46.002Z</time></trkpt><trkpt lat="45.48230636995637" lon="7.755979216386772"><ele>990.25</ele><time>2026-05-03T15:46:47.002Z</time></trkpt><trkpt lat="45.48237614087712" lon="7.755818739153679"><ele>999.0</ele><time>2026-05-03T15:46:48.002Z</time></trkpt><trkpt lat="45.482425776732036" lon="7.755645910279311"><ele>999.0</ele><time>2026-05-03T15:46:49.002Z</time></trkpt><trkpt lat="45.48249197330528" lon="7.7554780294485"><ele>999.0</ele><time>2026-05-03T15:46:50.002Z</time></trkpt><trkpt lat="45.482581076822356" lon="7.755315603541584"><ele>999.0</ele><time>2026-05-03T15:46:51.002Z</time></trkpt><trkpt lat="45.48263813547273" lon="7.755134961359388"><ele>999.0</ele><time>2026-05-03T15:46:52.002Z</time></trkpt><trkpt lat="45.482687761125625" lon="7.7549780060537294"><ele>997.25</ele><time>2026-05-03T15:46:53.002Z</time></trkpt><trkpt lat="45.48273808126519" lon="7.754806896697566"><ele>995.5</ele><time>2026-05-03T15:46:54.002Z</time></trkpt><trkpt lat="45.48279045704464" lon="7.7546185889421535"><ele>993.75</ele><time>2026-05-03T15:46:55.002Z</time></trkpt><trkpt lat="45.482840375510804" lon="7.754425707766856"><ele>992.0</ele><time>2026-05-03T15:46:56.002Z</time></trkpt><trkpt lat="45.482890326336" lon="7.754209828512348"><ele>1000.5</ele><time>2026-05-03T15:46:57.002Z</time></trkpt><trkpt lat="45.482937571714245" lon="7.753987875020547"><ele>1009.0</ele><time>2026-05-03T15:46:58.002Z</time></trkpt><trkpt lat="45.48297877560437" lon="7.753789547721157"><ele>1017.5</ele><time>2026-05-03T15:46:59.002Z</time></trkpt><trkpt lat="45.483014240416736" lon="7.7536188444473355"><ele>1026.0</ele><time>2026-05-03T15:47:00.002Z</time></trkpt><trkpt lat="45.483056821233674" lon="7.753476951261687"><ele>1026.0</ele><time>2026-05-03T15:47:01.002Z</time></trkpt><trkpt lat="45.48306761946732" lon="7.753284119155029"><ele>1026.0</ele><time>2026-05-03T15:47:02.002Z</time></trkpt><trkpt lat="45.48311780350648" lon="7.753075865806519"><ele>1026.0</ele><time>2026-05-03T15:47:03.002Z</time></trkpt><trkpt lat="45.48318991816223" lon="7.752873901800081"><ele>1026.0</ele><time>2026-05-03T15:47:04.002Z</time></trkpt><trkpt lat="45.48325021913868" lon="7.752687600057626"><ele>1025.0</ele><time>2026-05-03T15:47:05.002Z</time></trkpt><trkpt lat="45.48330829344262" lon="7.7525203066728725"><ele>1024.0</ele><time>2026-05-03T15:47:06.002Z</time></trkpt><trkpt lat="45.483366593869796" lon="7.752365835591707"><ele>1023.0</ele><time>2026-05-03T15:47:07.002Z</time></trkpt><trkpt lat="45.483453728339846" lon="7.752194363962677"><ele>1022.0</ele><time>2026-05-03T15:47:08.002Z</time></trkpt><trkpt lat="45.48352202720436" lon="7.752014095578106"><ele>1020.5</ele><time>2026-05-03T15:47:09.002Z</time></trkpt><trkpt lat="45.48358033148045" lon="7.751855247558545"><ele>1019.0</ele><time>2026-05-03T15:47:10.002Z</time></trkpt><trkpt lat="45.48364525432398" lon="7.751679667328315"><ele>1017.5</ele><time>2026-05-03T15:47:11.002Z</time></trkpt><trkpt lat="45.48372066288866" lon="7.751506242267432"><ele>1016.0</ele><time>2026-05-03T15:47:12.002Z</time></trkpt><trkpt lat="45.4838076135874" lon="7.751362790241085"><ele>1021.0</ele><time>2026-05-03T15:47:13.002Z</time></trkpt><trkpt lat="45.48390771845646" lon="7.75123413897849"><ele>1026.0</ele><time>2026-05-03T15:47:14.002Z</time></trkpt><trkpt lat="45.4839935353286" lon="7.751111384514284"><ele>1031.0</ele><time>2026-05-03T15:47:15.002Z</time></trkpt><trkpt lat="45.48409299174478" lon="7.750976666011306"><ele>1036.0</ele><time>2026-05-03T15:47:16.002Z</time></trkpt><trkpt lat="45.48419172312673" lon="7.750866395471104"><ele>1036.0</ele><time>2026-05-03T15:47:17.002Z</time></trkpt><trkpt lat="45.484297077407106" lon="7.7507488801409465"><ele>1036.0</ele><time>2026-05-03T15:47:18.003Z</time></trkpt><trkpt lat="45.48440756436343" lon="7.750634236802752"><ele>1036.0</ele><time>2026-05-03T15:47:19.003Z</time></trkpt><trkpt lat="45.48450383974917" lon="7.750507609628416"><ele>1036.0</ele><time>2026-05-03T15:47:20.003Z</time></trkpt><trkpt lat="45.48459616661564" lon="7.750374620575938"><ele>1039.75</ele><time>2026-05-03T15:47:21.003Z</time></trkpt><trkpt lat="45.48470005431049" lon="7.7502492080493495"><ele>1043.5</ele><time>2026-05-03T15:47:22.003Z</time></trkpt><trkpt lat="45.48480087101504" lon="7.750124722043847"><ele>1047.25</ele><time>2026-05-03T15:47:23.003Z</time></trkpt><trkpt lat="45.48490506827884" lon="7.749987529943003"><ele>1051.0</ele><time>2026-05-03T15:47:24.003Z</time></trkpt><trkpt lat="45.48498546844094" lon="7.7498384235897495"><ele>1051.0</ele><time>2026-05-03T15:47:25.003Z</time></trkpt><trkpt lat="45.48506278632869" lon="7.749680631013002"><ele>1051.0</ele><time>2026-05-03T15:47:26.003Z</time></trkpt><trkpt lat="45.485144868037096" lon="7.74951669939571"><ele>1051.0</ele><time>2026-05-03T15:47:27.003Z</time></trkpt><trkpt lat="45.4852123159336" lon="7.7493724114681495"><ele>1051.0</ele><time>2026-05-03T15:47:28.003Z</time></trkpt><trkpt lat="45.48528510736271" lon="7.74924651806641"><ele>1050.6666666666665</ele><time>2026-05-03T15:47:29.003Z</time></trkpt><trkpt lat="45.485337674925304" lon="7.749141974455898"><ele>1050.3333333333333</ele><time>2026-05-03T15:47:30.003Z</time></trkpt><trkpt lat="45.4853884837854" lon="7.749064071683524"><ele>1050.0</ele><time>2026-05-03T15:47:31.003Z</time></trkpt><trkpt lat="45.48549538015608" lon="7.749035977641257"><ele>1049.6666666666667</ele><time>2026-05-03T15:47:33.003Z</time></trkpt><trkpt lat="45.48556129293476" lon="7.749076748340175"><ele>1049.3333333333335</ele><time>2026-05-03T15:47:34.003Z</time></trkpt><trkpt lat="45.48561048298626" lon="7.749191795419909"><ele>1049.0</ele><time>2026-05-03T15:47:35.003Z</time></trkpt><trkpt lat="45.48567396354509" lon="7.749283789057113"><ele>1051.1666666666667</ele><time>2026-05-03T15:47:36.003Z</time></trkpt><trkpt lat="45.48572548603224" lon="7.749380281408452"><ele>1053.3333333333335</ele><time>2026-05-03T15:47:37.003Z</time></trkpt><trkpt lat="45.48579080948131" lon="7.74943776656517"><ele>1055.5</ele><time>2026-05-03T15:47:38.003Z</time></trkpt><trkpt lat="45.48585436281662" lon="7.749447858016083"><ele>1057.6666666666667</ele><time>2026-05-03T15:47:39.003Z</time></trkpt><trkpt lat="45.485912524600884" lon="7.749388219253421"><ele>1059.8333333333333</ele><time>2026-05-03T15:47:40.003Z</time></trkpt><trkpt lat="45.4859651780673" lon="7.749249686594496"><ele>1062.0</ele><time>2026-05-03T15:47:42.003Z</time></trkpt><trkpt lat="45.4859866911797" lon="7.7491578130827135"><ele>1062.0</ele><time>2026-05-03T15:47:44.003Z</time></trkpt><trkpt lat="45.486002060872224" lon="7.749047774986813"><ele>1062.0</ele><time>2026-05-03T15:47:46.003Z</time></trkpt><trkpt lat="45.48600974243268" lon="7.748896208028284"><ele>1062.0</ele><time>2026-05-03T15:47:48.003Z</time></trkpt><trkpt lat="45.486020635028765" lon="7.748755238708318"><ele>1062.0</ele><time>2026-05-03T15:47:50.003Z</time></trkpt><trkpt lat="45.4860532338581" lon="7.7486536020055885"><ele>1062.0</ele><time>2026-05-03T15:47:52.003Z</time></trkpt><trkpt lat="45.486058919574724" lon="7.748506979308796"><ele>1062.8</ele><time>2026-05-03T15:48:33.002Z</time></trkpt><trkpt lat="45.486064690161335" lon="7.7484023689477075"><ele>1063.6</ele><time>2026-05-03T15:48:35.002Z</time></trkpt><trkpt lat="45.48607412988765" lon="7.748231243675513"><ele>1064.3999999999999</ele><time>2026-05-03T15:48:37.003Z</time></trkpt><trkpt lat="45.486094617002514" lon="7.748037849632325"><ele>1065.2</ele><time>2026-05-03T15:48:39.003Z</time></trkpt><trkpt lat="45.48609127246897" lon="7.747924365738031"><ele>1066.0</ele><time>2026-05-03T15:48:40.003Z</time></trkpt><trkpt lat="45.48609430491921" lon="7.747807279772686"><ele>1067.1666666666665</ele><time>2026-05-03T15:48:41.003Z</time></trkpt><trkpt lat="45.486098623770815" lon="7.74768841061973"><ele>1068.3333333333333</ele><time>2026-05-03T15:48:42.003Z</time></trkpt><trkpt lat="45.48610589678456" lon="7.747579026309455"><ele>1069.5</ele><time>2026-05-03T15:48:43.003Z</time></trkpt><trkpt lat="45.4860964711144" lon="7.747473209046117"><ele>1070.6666666666667</ele><time>2026-05-03T15:48:44.003Z</time></trkpt><trkpt lat="45.48611518311331" lon="7.747378703728257"><ele>1071.8333333333335</ele><time>2026-05-03T15:48:45.003Z</time></trkpt><trkpt lat="45.486152102085335" lon="7.747211810804779"><ele>1073.0</ele><time>2026-05-03T15:48:47.003Z</time></trkpt><trkpt lat="45.48619963565664" lon="7.747045354798705"><ele>1073.0</ele><time>2026-05-03T15:48:49.003Z</time></trkpt><trkpt lat="45.48623398746085" lon="7.746942013211848"><ele>1073.0</ele><time>2026-05-03T15:48:50.003Z</time></trkpt><trkpt lat="45.48627488833505" lon="7.746841420386837"><ele>1073.0</ele><time>2026-05-03T15:48:51.003Z</time></trkpt><trkpt lat="45.486312586643976" lon="7.746733205328108"><ele>1073.0</ele><time>2026-05-03T15:48:52.003Z</time></trkpt><trkpt lat="45.48635316257005" lon="7.746637466182842"><ele>1073.0</ele><time>2026-05-03T15:48:53.003Z</time></trkpt><trkpt lat="45.48639840003311" lon="7.746551383543219"><ele>1073.0</ele><time>2026-05-03T15:48:54.003Z</time></trkpt><trkpt lat="45.48645825383741" lon="7.746489965325825"><ele>1072.0</ele><time>2026-05-03T15:48:55.003Z</time></trkpt><trkpt lat="45.48652592475693" lon="7.746460542122388"><ele>1071.0</ele><time>2026-05-03T15:48:56.003Z</time></trkpt><trkpt lat="45.48659053767191" lon="7.7464020296205405"><ele>1070.0</ele><time>2026-05-03T15:48:57.003Z</time></trkpt><trkpt lat="45.48666587658983" lon="7.746341184357946"><ele>1069.0</ele><time>2026-05-03T15:48:58.003Z</time></trkpt><trkpt lat="45.48675965716701" lon="7.746303324510691"><ele>1068.0</ele><time>2026-05-03T15:48:59.003Z</time></trkpt><trkpt lat="45.48684357875103" lon="7.7462320627670636"><ele>1067.0</ele><time>2026-05-03T15:49:00.003Z</time></trkpt><trkpt lat="45.48692347264848" lon="7.746163505057263"><ele>1067.0</ele><time>2026-05-03T15:49:01.003Z</time></trkpt><trkpt lat="45.48699377180774" lon="7.7460808884752765"><ele>1067.0</ele><time>2026-05-03T15:49:02.003Z</time></trkpt><trkpt lat="45.48706315743906" lon="7.745994993287966"><ele>1067.0</ele><time>2026-05-03T15:49:03.003Z</time></trkpt><trkpt lat="45.4871260862945" lon="7.745883568789626"><ele>1067.0</ele><time>2026-05-03T15:49:04.003Z</time></trkpt><trkpt lat="45.48718906312157" lon="7.745783466343051"><ele>1067.0</ele><time>2026-05-03T15:49:05.003Z</time></trkpt><trkpt lat="45.48725298174044" lon="7.745694878016614"><ele>1066.3333333333335</ele><time>2026-05-03T15:49:06.003Z</time></trkpt><trkpt lat="45.48731700289808" lon="7.745617625858369"><ele>1065.6666666666667</ele><time>2026-05-03T15:49:07.003Z</time></trkpt><trkpt lat="45.48738379383246" lon="7.745544678178371"><ele>1065.0</ele><time>2026-05-03T15:49:08.003Z</time></trkpt><trkpt lat="45.48745159594246" lon="7.745459727122302"><ele>1064.3333333333333</ele><time>2026-05-03T15:49:09.003Z</time></trkpt><trkpt lat="45.48752992404019" lon="7.745420575842712"><ele>1063.6666666666665</ele><time>2026-05-03T15:49:10.003Z</time></trkpt><trkpt lat="45.4875992051648" lon="7.745401937710084"><ele>1063.0</ele><time>2026-05-03T15:49:11.003Z</time></trkpt><trkpt lat="45.48767637769817" lon="7.745371093465283"><ele>1063.0</ele><time>2026-05-03T15:49:12.003Z</time></trkpt><trkpt lat="45.48775551208094" lon="7.745350621839899"><ele>1063.0</ele><time>2026-05-03T15:49:13.003Z</time></trkpt><trkpt lat="45.487818232992936" lon="7.745321417026056"><ele>1063.0</ele><time>2026-05-03T15:49:14.003Z</time></trkpt><trkpt lat="45.48788968143366" lon="7.745278626452815"><ele>1063.0</ele><time>2026-05-03T15:49:15.003Z</time></trkpt><trkpt lat="45.487962596995104" lon="7.745249574561919"><ele>1063.0</ele><time>2026-05-03T15:49:16.003Z</time></trkpt><trkpt lat="45.48802879180864" lon="7.745200074387843"><ele>1063.0</ele><time>2026-05-03T15:49:17.003Z</time></trkpt><trkpt lat="45.488086507005015" lon="7.745151726695964"><ele>1063.0</ele><time>2026-05-03T15:49:18.003Z</time></trkpt><trkpt lat="45.48814111183877" lon="7.745099335199624"><ele>1062.5</ele><time>2026-05-03T15:49:19.004Z</time></trkpt><trkpt lat="45.48819715714932" lon="7.745039575805539"><ele>1062.0</ele><time>2026-05-03T15:49:20.004Z</time></trkpt><trkpt lat="45.488247740948346" lon="7.744947291543675"><ele>1061.5</ele><time>2026-05-03T15:49:21.004Z</time></trkpt><trkpt lat="45.48828864321112" lon="7.744853768029854"><ele>1061.0</ele><time>2026-05-03T15:49:22.004Z</time></trkpt><trkpt lat="45.48833562206958" lon="7.744748348013916"><ele>1060.5</ele><time>2026-05-03T15:49:23.004Z</time></trkpt><trkpt lat="45.48837675617341" lon="7.744660209646357"><ele>1060.0</ele><time>2026-05-03T15:49:24.004Z</time></trkpt><trkpt lat="45.48843232268708" lon="7.744575770873873"><ele>1060.0</ele><time>2026-05-03T15:49:25.004Z</time></trkpt><trkpt lat="45.48851342061443" lon="7.744507829706377"><ele>1060.0</ele><time>2026-05-03T15:49:26.004Z</time></trkpt><trkpt lat="45.48861832183243" lon="7.744450731120477"><ele>1060.0</ele><time>2026-05-03T15:49:27.004Z</time></trkpt><trkpt lat="45.48872908687078" lon="7.7443912825351156"><ele>1060.0</ele><time>2026-05-03T15:49:28.004Z</time></trkpt><trkpt lat="45.48883889271332" lon="7.7443286172182075"><ele>1060.0</ele><time>2026-05-03T15:49:29.004Z</time></trkpt><trkpt lat="45.48893827311639" lon="7.744270987198202"><ele>1059.5</ele><time>2026-05-03T15:49:30.004Z</time></trkpt><trkpt lat="45.48903653056552" lon="7.744203412662971"><ele>1059.0</ele><time>2026-05-03T15:49:31.004Z</time></trkpt><trkpt lat="45.489129299523405" lon="7.744104502901445"><ele>1058.5</ele><time>2026-05-03T15:49:32.004Z</time></trkpt><trkpt lat="45.489184380028284" lon="7.7439396189076115"><ele>1058.0</ele><time>2026-05-03T15:49:33.004Z</time></trkpt><trkpt lat="45.48919206317433" lon="7.7437592205554955"><ele>1058.0</ele><time>2026-05-03T15:49:34.004Z</time></trkpt><trkpt lat="45.4891643154622" lon="7.7436087487268725"><ele>1058.0</ele><time>2026-05-03T15:49:35.004Z</time></trkpt><trkpt lat="45.48911118811994" lon="7.743459921236715"><ele>1058.0</ele><time>2026-05-03T15:49:36.004Z</time></trkpt><trkpt lat="45.48906948811903" lon="7.7433160682306035"><ele>1058.0</ele><time>2026-05-03T15:49:37.004Z</time></trkpt><trkpt lat="45.48903269600694" lon="7.743164772176307"><ele>1058.0</ele><time>2026-05-03T15:49:38.004Z</time></trkpt><trkpt lat="45.48900725913461" lon="7.743026129579667"><ele>1058.2</ele><time>2026-05-03T15:49:39.004Z</time></trkpt><trkpt lat="45.488992440584695" lon="7.742890046953504"><ele>1058.4</ele><time>2026-05-03T15:49:40.004Z</time></trkpt><trkpt lat="45.4889795231278" lon="7.7427456394143634"><ele>1058.6000000000001</ele><time>2026-05-03T15:49:41.004Z</time></trkpt><trkpt lat="45.48896726921222" lon="7.7426028618983205"><ele>1058.8</ele><time>2026-05-03T15:49:42.004Z</time></trkpt><trkpt lat="45.48895429456843" lon="7.74245168673312"><ele>1059.0</ele><time>2026-05-03T15:49:43.004Z</time></trkpt><trkpt lat="45.488926964095654" lon="7.742309152003742"><ele>1059.0</ele><time>2026-05-03T15:49:44.004Z</time></trkpt><trkpt lat="45.48892973196898" lon="7.742153492860315"><ele>1059.0</ele><time>2026-05-03T15:49:45.004Z</time></trkpt><trkpt lat="45.48891501375655" lon="7.7420277178855414"><ele>1059.0</ele><time>2026-05-03T15:49:46.004Z</time></trkpt><trkpt lat="45.48889950008911" lon="7.741898605449888"><ele>1059.0</ele><time>2026-05-03T15:49:47.004Z</time></trkpt><trkpt lat="45.48889357204688" lon="7.741756007740844"><ele>1059.0</ele><time>2026-05-03T15:49:48.004Z</time></trkpt><trkpt lat="45.488887814832225" lon="7.74161539134556"><ele>1058.2</ele><time>2026-05-03T15:49:49.004Z</time></trkpt><trkpt lat="45.48886528116373" lon="7.741481267093038"><ele>1057.4</ele><time>2026-05-03T15:49:50.004Z</time></trkpt><trkpt lat="45.48883321890406" lon="7.741344968887503"><ele>1056.6</ele><time>2026-05-03T15:49:51.004Z</time></trkpt><trkpt lat="45.488802716635" lon="7.741220779289908"><ele>1055.8</ele><time>2026-05-03T15:49:52.004Z</time></trkpt><trkpt lat="45.488764466709036" lon="7.741081026192582"><ele>1055.0</ele><time>2026-05-03T15:49:53.004Z</time></trkpt><trkpt lat="45.488742818179816" lon="7.740950957162955"><ele>1054.2</ele><time>2026-05-03T15:49:54.004Z</time></trkpt><trkpt lat="45.48873683588021" lon="7.740817964006544"><ele>1053.4</ele><time>2026-05-03T15:49:55.004Z</time></trkpt><trkpt lat="45.48875051645124" lon="7.740676909177631"><ele>1052.6</ele><time>2026-05-03T15:49:56.004Z</time></trkpt><trkpt lat="45.48878973732909" lon="7.74052448331532"><ele>1051.8</ele><time>2026-05-03T15:49:57.004Z</time></trkpt><trkpt lat="45.48882662103545" lon="7.740372290845842"><ele>1051.0</ele><time>2026-05-03T15:49:58.004Z</time></trkpt><trkpt lat="45.48886068034359" lon="7.740225577877602"><ele>1052.0</ele><time>2026-05-03T15:49:59.004Z</time></trkpt><trkpt lat="45.488883499591765" lon="7.740072247722912"><ele>1053.0</ele><time>2026-05-03T15:50:00.004Z</time></trkpt><trkpt lat="45.48888849906262" lon="7.739910857144112"><ele>1054.0</ele><time>2026-05-03T15:50:01.004Z</time></trkpt><trkpt lat="45.4888809174396" lon="7.739748453267102"><ele>1055.0</ele><time>2026-05-03T15:50:02.005Z</time></trkpt><trkpt lat="45.4888788012723" lon="7.7395810335784985"><ele>1055.0</ele><time>2026-05-03T15:50:03.005Z</time></trkpt><trkpt lat="45.488872123578645" lon="7.739414634235185"><ele>1055.0</ele><time>2026-05-03T15:50:04.005Z</time></trkpt><trkpt lat="45.48886389998627" lon="7.739249594416638"><ele>1055.0</ele><time>2026-05-03T15:50:05.005Z</time></trkpt><trkpt lat="45.488857326143105" lon="7.739095589139777"><ele>1055.0</ele><time>2026-05-03T15:50:06.005Z</time></trkpt><trkpt lat="45.488847560980126" lon="7.738956734964048"><ele>1055.0</ele><time>2026-05-03T15:50:07.005Z</time></trkpt><trkpt lat="45.48885355427421" lon="7.738830067458081"><ele>1056.2</ele><time>2026-05-03T15:50:08.005Z</time></trkpt><trkpt lat="45.48885334145952" lon="7.738679270906467"><ele>1057.4</ele><time>2026-05-03T15:50:09.005Z</time></trkpt><trkpt lat="45.488855350801735" lon="7.738528910826481"><ele>1058.6</ele><time>2026-05-03T15:50:10.005Z</time></trkpt><trkpt lat="45.48885627924933" lon="7.7383700746760775"><ele>1059.8</ele><time>2026-05-03T15:50:11.005Z</time></trkpt><trkpt lat="45.488847777793325" lon="7.738231837850796"><ele>1061.0</ele><time>2026-05-03T15:50:12.005Z</time></trkpt><trkpt lat="45.48883756795456" lon="7.738074866152418"><ele>1061.75</ele><time>2026-05-03T15:50:13.005Z</time></trkpt><trkpt lat="45.48882603658927" lon="7.7379177509461545"><ele>1062.5</ele><time>2026-05-03T15:50:14.005Z</time></trkpt><trkpt lat="45.488801589733015" lon="7.737623728005838"><ele>1063.25</ele><time>2026-05-03T15:50:16.005Z</time></trkpt><trkpt lat="45.488784175301824" lon="7.737491938583089"><ele>1064.0</ele><time>2026-05-03T15:50:17.005Z</time></trkpt><trkpt lat="45.48875592906071" lon="7.737348457478507"><ele>1070.2</ele><time>2026-05-03T15:50:18.005Z</time></trkpt><trkpt lat="45.488722924307915" lon="7.7371954626765795"><ele>1076.4</ele><time>2026-05-03T15:50:19.005Z</time></trkpt><trkpt lat="45.48868335574659" lon="7.737058854881224"><ele>1082.6</ele><time>2026-05-03T15:50:20.004Z</time></trkpt><trkpt lat="45.48864356398951" lon="7.736937597518984"><ele>1088.8</ele><time>2026-05-03T15:50:21.003Z</time></trkpt><trkpt lat="45.48862101442373" lon="7.736783373175061"><ele>1095.0</ele><time>2026-05-03T15:50:22.003Z</time></trkpt><trkpt lat="45.48859015788534" lon="7.736662712909169"><ele>1095.5</ele><time>2026-05-03T15:50:23.004Z</time></trkpt><trkpt lat="45.488555231424336" lon="7.736541273858779"><ele>1096.0</ele><time>2026-05-03T15:50:24.004Z</time></trkpt><trkpt lat="45.48851922387621" lon="7.7364241718843045"><ele>1096.5</ele><time>2026-05-03T15:50:25.004Z</time></trkpt><trkpt lat="45.48848563378368" lon="7.736316206400787"><ele>1097.0</ele><time>2026-05-03T15:50:26.003Z</time></trkpt><trkpt lat="45.48845392525324" lon="7.736203136300922"><ele>1097.5</ele><time>2026-05-03T15:50:27.004Z</time></trkpt><trkpt lat="45.48842625058859" lon="7.736081280803626"><ele>1098.0</ele><time>2026-05-03T15:50:28.004Z</time></trkpt><trkpt lat="45.48840548343814" lon="7.73597542799239"><ele>1098.0</ele><time>2026-05-03T15:50:29.004Z</time></trkpt><trkpt lat="45.488396713292325" lon="7.735881869319577"><ele>1098.0</ele><time>2026-05-03T15:50:30.004Z</time></trkpt><trkpt lat="45.48836522786188" lon="7.73573851253234"><ele>1098.0</ele><time>2026-05-03T15:50:32.004Z</time></trkpt><trkpt lat="45.48834203955275" lon="7.735584574309942"><ele>1098.0</ele><time>2026-05-03T15:50:34.003Z</time></trkpt><trkpt lat="45.48830749173499" lon="7.735409308143324"><ele>1098.0</ele><time>2026-05-03T15:50:36.003Z</time></trkpt><trkpt lat="45.48826422974293" lon="7.7352466951924335"><ele>1097.0</ele><time>2026-05-03T15:50:38.004Z</time></trkpt><trkpt lat="45.48825422266562" lon="7.735077337583214"><ele>1096.0</ele><time>2026-05-03T15:50:40.004Z</time></trkpt><trkpt lat="45.488234583171014" lon="7.734933959584029"><ele>1095.0</ele><time>2026-05-03T15:50:42.004Z</time></trkpt><trkpt lat="45.48821943790804" lon="7.73482349376674"><ele>1094.0</ele><time>2026-05-03T15:50:44.004Z</time></trkpt><trkpt lat="45.48821096751054" lon="7.7346809442272235"><ele>1093.0</ele><time>2026-05-03T15:51:10.004Z</time></trkpt><trkpt lat="45.488221258092715" lon="7.734530441496739"><ele>1092.8</ele><time>2026-05-03T15:51:12.004Z</time></trkpt><trkpt lat="45.48824792926316" lon="7.73434735149343"><ele>1092.6</ele><time>2026-05-03T15:51:14.004Z</time></trkpt><trkpt lat="45.488281956264274" lon="7.734244668892879"><ele>1092.4</ele><time>2026-05-03T15:51:15.004Z</time></trkpt><trkpt lat="45.488320885192046" lon="7.734136462454684"><ele>1092.2</ele><time>2026-05-03T15:51:16.004Z</time></trkpt><trkpt lat="45.488359953044" lon="7.734029750024958"><ele>1092.0</ele><time>2026-05-03T15:51:17.004Z</time></trkpt><trkpt lat="45.48840009761148" lon="7.733935116266434"><ele>1092.0</ele><time>2026-05-03T15:51:18.004Z</time></trkpt><trkpt lat="45.488431053819156" lon="7.733817360403017"><ele>1092.0</ele><time>2026-05-03T15:51:19.004Z</time></trkpt><trkpt lat="45.48847546285913" lon="7.7337192687788345"><ele>1092.0</ele><time>2026-05-03T15:51:20.005Z</time></trkpt><trkpt lat="45.4885185679106" lon="7.733624057499347"><ele>1092.0</ele><time>2026-05-03T15:51:21.005Z</time></trkpt><trkpt lat="45.488583658319335" lon="7.733491287962078"><ele>1092.0</ele><time>2026-05-03T15:51:23.005Z</time></trkpt><trkpt lat="45.488675559955205" lon="7.73343782090482"><ele>1092.0</ele><time>2026-05-03T15:51:25.005Z</time></trkpt><trkpt lat="45.488713522242804" lon="7.733611786964518"><ele>1092.0</ele><time>2026-05-03T15:51:26.005Z</time></trkpt><trkpt lat="45.48876140343201" lon="7.73370462380143"><ele>1092.0</ele><time>2026-05-03T15:51:27.005Z</time></trkpt><trkpt lat="45.48884005882062" lon="7.733786797073367"><ele>1092.0</ele><time>2026-05-03T15:51:28.005Z</time></trkpt><trkpt lat="45.48889621387486" lon="7.733890858660208"><ele>1092.0</ele><time>2026-05-03T15:51:29.005Z</time></trkpt><trkpt lat="45.48896388967341" lon="7.733986871503218"><ele>1088.4</ele><time>2026-05-03T15:51:30.005Z</time></trkpt><trkpt lat="45.48903935817625" lon="7.734075725444202"><ele>1084.8000000000002</ele><time>2026-05-03T15:51:31.005Z</time></trkpt><trkpt lat="45.4891176444221" lon="7.734149747919007"><ele>1081.2</ele><time>2026-05-03T15:51:32.005Z</time></trkpt><trkpt lat="45.48919953469386" lon="7.734232240020508"><ele>1077.6000000000001</ele><time>2026-05-03T15:51:33.005Z</time></trkpt><trkpt lat="45.489278295303286" lon="7.734309593611126"><ele>1074.0</ele><time>2026-05-03T15:51:34.005Z</time></trkpt><trkpt lat="45.48935953594076" lon="7.734379339618138"><ele>1074.4</ele><time>2026-05-03T15:51:35.005Z</time></trkpt><trkpt lat="45.489428020521814" lon="7.7344495409051515"><ele>1074.8000000000002</ele><time>2026-05-03T15:51:36.005Z</time></trkpt><trkpt lat="45.48950541852202" lon="7.734542424002029"><ele>1075.1999999999998</ele><time>2026-05-03T15:51:37.005Z</time></trkpt><trkpt lat="45.489554864640766" lon="7.734670229166483"><ele>1075.6</ele><time>2026-05-03T15:51:38.005Z</time></trkpt><trkpt lat="45.48960380004914" lon="7.7347711250695665"><ele>1076.0</ele><time>2026-05-03T15:51:39.005Z</time></trkpt><trkpt lat="45.489655129573826" lon="7.734867973261582"><ele>1071.8</ele><time>2026-05-03T15:51:40.005Z</time></trkpt><trkpt lat="45.48971946307783" lon="7.734958867023349"><ele>1067.6</ele><time>2026-05-03T15:51:41.005Z</time></trkpt><trkpt lat="45.48975358078114" lon="7.735075537323365"><ele>1063.4</ele><time>2026-05-03T15:51:42.005Z</time></trkpt><trkpt lat="45.489789072211984" lon="7.735166301472454"><ele>1059.2</ele><time>2026-05-03T15:51:43.005Z</time></trkpt><trkpt lat="45.48984744594456" lon="7.7352516927132235"><ele>1055.0</ele><time>2026-05-03T15:51:45.005Z</time></trkpt><trkpt lat="45.489875306670925" lon="7.735705740120189"><ele>1054.0</ele><time>2026-05-03T15:51:59.005Z</time></trkpt><trkpt lat="45.48996781346328" lon="7.735792717486963"><ele>1053.0</ele><time>2026-05-03T15:52:02.005Z</time></trkpt><trkpt lat="45.489986924972555" lon="7.735898592059857"><ele>1052.0</ele><time>2026-05-03T15:52:03.005Z</time></trkpt><trkpt lat="45.490073242654056" lon="7.736010060177994"><ele>1051.0</ele><time>2026-05-03T15:52:05.006Z</time></trkpt><trkpt lat="45.49017841779746" lon="7.736114862960318"><ele>1050.0</ele><time>2026-05-03T15:52:07.006Z</time></trkpt><trkpt lat="45.490210295182735" lon="7.7362973171001475"><ele>1049.5</ele><time>2026-05-03T15:52:09.006Z</time></trkpt><trkpt lat="45.49021983251474" lon="7.736389494100542"><ele>1049.0</ele><time>2026-05-03T15:52:10.006Z</time></trkpt><trkpt lat="45.490236342318475" lon="7.736485517963841"><ele>1048.5</ele><time>2026-05-03T15:52:11.006Z</time></trkpt><trkpt lat="45.49025302018774" lon="7.736577067727114"><ele>1048.0</ele><time>2026-05-03T15:52:12.006Z</time></trkpt><trkpt lat="45.4903177085651" lon="7.736659179815814"><ele>1047.5</ele><time>2026-05-03T15:52:14.006Z</time></trkpt><trkpt lat="45.49041598870016" lon="7.736688024172144"><ele>1047.0</ele><time>2026-05-03T15:52:16.006Z</time></trkpt><trkpt lat="45.49048191399742" lon="7.736711113136338"><ele>1042.8333333333333</ele><time>2026-05-03T15:52:17.006Z</time></trkpt><trkpt lat="45.49054208896398" lon="7.736742208953953"><ele>1038.6666666666667</ele><time>2026-05-03T15:52:18.006Z</time></trkpt><trkpt lat="45.490641511440636" lon="7.736796252717951"><ele>1034.5</ele><time>2026-05-03T15:52:20.006Z</time></trkpt><trkpt lat="45.490733518819205" lon="7.736832493133486"><ele>1030.3333333333335</ele><time>2026-05-03T15:52:23.006Z</time></trkpt><trkpt lat="45.49081213013765" lon="7.736867274726917"><ele>1026.1666666666667</ele><time>2026-05-03T15:52:25.006Z</time></trkpt><trkpt lat="45.49089126398055" lon="7.736879200954913"><ele>1022.0</ele><time>2026-05-03T15:52:27.004Z</time></trkpt><trkpt lat="45.49097604377925" lon="7.7368921428515485"><ele>1021.0000000000001</ele><time>2026-05-03T15:52:29.005Z</time></trkpt><trkpt lat="45.49105802704929" lon="7.736932738171364"><ele>1020.0</ele><time>2026-05-03T15:52:32.004Z</time></trkpt><trkpt lat="45.49114691738312" lon="7.736964724729656"><ele>1019.0</ele><time>2026-05-03T15:52:34.005Z</time></trkpt><trkpt lat="45.491222554762565" lon="7.736965803282902"><ele>1018.0</ele><time>2026-05-03T15:52:36.004Z</time></trkpt><trkpt lat="45.49130797780564" lon="7.73697335801239"><ele>1017.0000000000001</ele><time>2026-05-03T15:52:39.004Z</time></trkpt><trkpt lat="45.49138519042052" lon="7.7369779893706445"><ele>1016.0</ele><time>2026-05-03T15:52:41.004Z</time></trkpt><trkpt lat="45.49145112223311" lon="7.73696284935467"><ele>1002.0</ele><time>2026-05-03T15:52:43.005Z</time></trkpt><trkpt lat="45.49172804507089" lon="7.736959903723797"><ele>988.0</ele><time>2026-05-03T15:52:49.005Z</time></trkpt><trkpt lat="45.491966105486235" lon="7.736956134407438"><ele>988.0</ele><time>2026-05-03T15:52:54.005Z</time></trkpt><trkpt lat="45.49204116423919" lon="7.736964079874616"><ele>988.0</ele><time>2026-05-03T15:52:55.005Z</time></trkpt><trkpt lat="45.49215351434514" lon="7.73696502964232"><ele>988.0</ele><time>2026-05-03T15:52:57.005Z</time></trkpt><trkpt lat="45.49223739844212" lon="7.736929828322782"><ele>988.0</ele><time>2026-05-03T15:52:59.005Z</time></trkpt><trkpt lat="45.49247239037355" lon="7.73694095728569"><ele>980.75</ele><time>2026-05-03T15:53:05.005Z</time></trkpt><trkpt lat="45.49255271014494" lon="7.736950199268717"><ele>973.5</ele><time>2026-05-03T15:53:07.005Z</time></trkpt><trkpt lat="45.49268730993202" lon="7.736986410086782"><ele>966.25</ele><time>2026-05-03T15:53:11.005Z</time></trkpt><trkpt lat="45.492800385341496" lon="7.7369970924266385"><ele>959.0</ele><time>2026-05-03T15:53:14.005Z</time></trkpt><trkpt lat="45.492990081917064" lon="7.737036112520442"><ele>952.4000000000001</ele><time>2026-05-03T15:53:29.006Z</time></trkpt><trkpt lat="45.49305878798387" lon="7.737117782107911"><ele>945.8000000000001</ele><time>2026-05-03T15:55:17.007Z</time></trkpt><trkpt lat="45.493116253454104" lon="7.7371884836488665"><ele>939.1999999999999</ele><time>2026-05-03T15:55:21.007Z</time></trkpt><trkpt lat="45.493206846075836" lon="7.737194242796745"><ele>932.5999999999999</ele><time>2026-05-03T15:55:24.007Z</time></trkpt><trkpt lat="45.4932563443372" lon="7.737311249637197"><ele>926.0</ele><time>2026-05-03T15:55:26.008Z</time></trkpt><trkpt lat="45.49331067852204" lon="7.737428112978479"><ele>926.0</ele><time>2026-05-03T15:55:28.008Z</time></trkpt><trkpt lat="45.493354690705466" lon="7.737545228136218"><ele>925.9999999999999</ele><time>2026-05-03T15:55:30.008Z</time></trkpt><trkpt lat="45.4933728846409" lon="7.737682996811043"><ele>925.9999999999999</ele><time>2026-05-03T15:55:33.008Z</time></trkpt><trkpt lat="45.49335359655132" lon="7.737787019584307"><ele>926.0</ele><time>2026-05-03T15:55:35.008Z</time></trkpt><trkpt lat="45.49335543482505" lon="7.737942768515059"><ele>926.0</ele><time>2026-05-03T15:55:37.008Z</time></trkpt><trkpt lat="45.493366954133535" lon="7.738065957159664"><ele>925.0</ele><time>2026-05-03T15:55:39.008Z</time></trkpt><trkpt lat="45.49341038118212" lon="7.738229699751225"><ele>923.9999999999999</ele><time>2026-05-03T15:55:42.008Z</time></trkpt><trkpt lat="45.49347036747187" lon="7.738369264128488"><ele>922.9999999999999</ele><time>2026-05-03T15:55:44.008Z</time></trkpt><trkpt lat="45.493464010770616" lon="7.738502918670417"><ele>922.0</ele><time>2026-05-03T15:55:46.008Z</time></trkpt><trkpt lat="45.49349831175274" lon="7.7386453685486885"><ele>921.0</ele><time>2026-05-03T15:55:48.008Z</time></trkpt><trkpt lat="45.493491985266836" lon="7.738795579180767"><ele>918.8333333333334</ele><time>2026-05-03T15:55:50.008Z</time></trkpt><trkpt lat="45.493499879935065" lon="7.738896993414186"><ele>916.6666666666667</ele><time>2026-05-03T15:55:52.008Z</time></trkpt><trkpt lat="45.49348637388863" lon="7.7389924571561"><ele>914.5</ele><time>2026-05-03T15:55:55.008Z</time></trkpt><trkpt lat="45.493499514641975" lon="7.739107483418952"><ele>912.3333333333334</ele><time>2026-05-03T15:55:58.008Z</time></trkpt><trkpt lat="45.49353144557754" lon="7.739216971367434"><ele>910.1666666666667</ele><time>2026-05-03T15:56:00.008Z</time></trkpt><trkpt lat="45.49355513510074" lon="7.739330464194083"><ele>908.0</ele><time>2026-05-03T15:56:01.008Z</time></trkpt><trkpt lat="45.49356857370865" lon="7.739442294984649"><ele>905.2</ele><time>2026-05-03T15:56:02.008Z</time></trkpt><trkpt lat="45.49356937114377" lon="7.739574495889789"><ele>902.4</ele><time>2026-05-03T15:56:05.008Z</time></trkpt><trkpt lat="45.49355853789937" lon="7.739721634163458"><ele>899.6000000000001</ele><time>2026-05-03T15:56:07.008Z</time></trkpt><trkpt lat="45.493550996727166" lon="7.739860459400548"><ele>896.8000000000001</ele><time>2026-05-03T15:56:09.009Z</time></trkpt><trkpt lat="45.493564237882794" lon="7.740055022193876"><ele>894.0</ele><time>2026-05-03T15:56:11.009Z</time></trkpt><trkpt lat="45.49353391693934" lon="7.740240634343512"><ele>892.0</ele><time>2026-05-03T15:56:13.009Z</time></trkpt><trkpt lat="45.49352849225703" lon="7.740395353067508"><ele>890.0</ele><time>2026-05-03T15:56:15.009Z</time></trkpt><trkpt lat="45.493512474849545" lon="7.74048789289504"><ele>888.0</ele><time>2026-05-03T15:56:16.009Z</time></trkpt><trkpt lat="45.493484035343464" lon="7.740588743741339"><ele>886.0</ele><time>2026-05-03T15:56:17.009Z</time></trkpt><trkpt lat="45.49346708366531" lon="7.740679029074558"><ele>884.0</ele><time>2026-05-03T15:56:18.009Z</time></trkpt><trkpt lat="45.49344304483195" lon="7.740793320670686"><ele>882.0</ele><time>2026-05-03T15:56:19.009Z</time></trkpt><trkpt lat="45.493425290347275" lon="7.740880842009572"><ele>882.0</ele><time>2026-05-03T15:56:20.009Z</time></trkpt><trkpt lat="45.4934338410118" lon="7.740984278469305"><ele>882.0</ele><time>2026-05-03T15:56:27.009Z</time></trkpt><trkpt lat="45.4934536200767" lon="7.741090694467465"><ele>882.0</ele><time>2026-05-03T15:57:20.008Z</time></trkpt><trkpt lat="45.49348210747504" lon="7.7411887350309385"><ele>882.0</ele><time>2026-05-03T15:57:24.009Z</time></trkpt><trkpt lat="45.49348965992861" lon="7.7412790432619465"><ele>882.0</ele><time>2026-05-03T15:57:28.009Z</time></trkpt><trkpt lat="45.49352067415934" lon="7.741374079315847"><ele>882.0</ele><time>2026-05-03T15:57:31.009Z</time></trkpt><trkpt lat="45.493573982636704" lon="7.741482508894681"><ele>883.0</ele><time>2026-05-03T15:57:33.009Z</time></trkpt><trkpt lat="45.49360126487397" lon="7.7415668340906105"><ele>884.0</ele><time>2026-05-03T15:57:34.009Z</time></trkpt><trkpt lat="45.493647902909714" lon="7.741696230790836"><ele>885.0</ele><time>2026-05-03T15:57:36.009Z</time></trkpt><trkpt lat="45.493722022994625" lon="7.741806677344073"><ele>886.0</ele><time>2026-05-03T15:57:38.009Z</time></trkpt><trkpt lat="45.493802194257874" lon="7.741901197134289"><ele>887.0</ele><time>2026-05-03T15:57:40.009Z</time></trkpt><trkpt lat="45.49386705281488" lon="7.741988744310926"><ele>883.6666666666667</ele><time>2026-05-03T15:57:42.009Z</time></trkpt><trkpt lat="45.49392785666981" lon="7.742083831840448"><ele>880.3333333333334</ele><time>2026-05-03T15:57:44.009Z</time></trkpt><trkpt lat="45.49398581090954" lon="7.742158722857143"><ele>877.0</ele><time>2026-05-03T15:57:46.009Z</time></trkpt><trkpt lat="45.4940517176124" lon="7.74222811506772"><ele>873.6666666666667</ele><time>2026-05-03T15:57:48.009Z</time></trkpt><trkpt lat="45.494121944298136" lon="7.74229872770671"><ele>870.3333333333334</ele><time>2026-05-03T15:57:50.009Z</time></trkpt><trkpt lat="45.49418915379382" lon="7.742318191592428"><ele>867.0</ele><time>2026-05-03T15:57:51.009Z</time></trkpt><trkpt lat="45.494252174549004" lon="7.742355106289601"><ele>867.0</ele><time>2026-05-03T15:57:52.009Z</time></trkpt><trkpt lat="45.49432476852165" lon="7.742414534187735"><ele>867.0</ele><time>2026-05-03T15:57:53.009Z</time></trkpt><trkpt lat="45.49438382348185" lon="7.742469171671896"><ele>867.0</ele><time>2026-05-03T15:57:54.009Z</time></trkpt><trkpt lat="45.4944708051948" lon="7.742501599880582"><ele>867.0</ele><time>2026-05-03T15:57:56.009Z</time></trkpt><trkpt lat="45.49459207919845" lon="7.742530268942173"><ele>867.0</ele><time>2026-05-03T15:57:58.009Z</time></trkpt><trkpt lat="45.494671697642254" lon="7.742555736586896"><ele>867.0</ele><time>2026-05-03T15:57:59.009Z</time></trkpt><trkpt lat="45.49472972857059" lon="7.742613382036702"><ele>862.1666666666666</ele><time>2026-05-03T15:58:00.009Z</time></trkpt><trkpt lat="45.494793683918296" lon="7.742634302693566"><ele>857.3333333333333</ele><time>2026-05-03T15:58:01.009Z</time></trkpt><trkpt lat="45.49486837100632" lon="7.7426413354979395"><ele>852.5</ele><time>2026-05-03T15:58:02.009Z</time></trkpt><trkpt lat="45.49493419152507" lon="7.742661212936756"><ele>847.6666666666666</ele><time>2026-05-03T15:58:03.009Z</time></trkpt><trkpt lat="45.494995700050445" lon="7.742683469193745"><ele>842.8333333333333</ele><time>2026-05-03T15:58:04.009Z</time></trkpt><trkpt lat="45.49508711104529" lon="7.742689148487734"><ele>838.0</ele><time>2026-05-03T15:58:06.01Z</time></trkpt><trkpt lat="45.495214720011134" lon="7.74270413307175"><ele>836.4</ele><time>2026-05-03T15:58:08.01Z</time></trkpt><trkpt lat="45.49529882916103" lon="7.742724762037711"><ele>834.8</ele><time>2026-05-03T15:58:09.01Z</time></trkpt><trkpt lat="45.49538925705372" lon="7.74277495041334"><ele>833.2</ele><time>2026-05-03T15:58:10.01Z</time></trkpt><trkpt lat="45.49547647561098" lon="7.742804146677996"><ele>831.6</ele><time>2026-05-03T15:58:12.01Z</time></trkpt><trkpt lat="45.495564267957526" lon="7.742850113235406"><ele>830.0</ele><time>2026-05-03T15:58:14.01Z</time></trkpt><trkpt lat="45.49565522824536" lon="7.74295432016468"><ele>830.0</ele><time>2026-05-03T15:58:16.01Z</time></trkpt><trkpt lat="45.495724048194326" lon="7.743062039565713"><ele>830.0</ele><time>2026-05-03T15:58:18.01Z</time></trkpt><trkpt lat="45.49577640290301" lon="7.743164274180966"><ele>830.0</ele><time>2026-05-03T15:58:20.01Z</time></trkpt><trkpt lat="45.49582293168307" lon="7.743232952984988"><ele>830.0</ele><time>2026-05-03T15:58:21.01Z</time></trkpt><trkpt lat="45.495916662413585" lon="7.743363369731476"><ele>830.0</ele><time>2026-05-03T15:58:23.01Z</time></trkpt><trkpt lat="45.49597249046172" lon="7.743434573923027"><ele>830.0000000000001</ele><time>2026-05-03T15:58:24.01Z</time></trkpt><trkpt lat="45.49601717443967" lon="7.743512210475454"><ele>830.0</ele><time>2026-05-03T15:58:25.01Z</time></trkpt><trkpt lat="45.496061804413905" lon="7.743588895170507"><ele>830.0</ele><time>2026-05-03T15:58:26.01Z</time></trkpt><trkpt lat="45.49610968541317" lon="7.743700864541129"><ele>830.0</ele><time>2026-05-03T15:58:28.01Z</time></trkpt><trkpt lat="45.49613160185136" lon="7.743795676953412"><ele>830.0000000000001</ele><time>2026-05-03T15:58:32.01Z</time></trkpt><trkpt lat="45.49617285099466" lon="7.743874093859799"><ele>830.0</ele><time>2026-05-03T15:58:36.01Z</time></trkpt><trkpt lat="45.49625265104697" lon="7.743847058015775"><ele>825.0000000000001</ele><time>2026-05-03T15:59:11.009Z</time></trkpt><trkpt lat="45.49630137346484" lon="7.7437646566451885"><ele>820.0</ele><time>2026-05-03T15:59:13.009Z</time></trkpt><trkpt lat="45.49635049490386" lon="7.743659834602112"><ele>815.0</ele><time>2026-05-03T15:59:15.009Z</time></trkpt><trkpt lat="45.4964016247583" lon="7.743554179159341"><ele>810.0</ele><time>2026-05-03T15:59:17.009Z</time></trkpt><trkpt lat="45.49645316176997" lon="7.743471660094662"><ele>805.0000000000001</ele><time>2026-05-03T15:59:19.009Z</time></trkpt><trkpt lat="45.49649413465046" lon="7.743578653339887"><ele>800.0</ele><time>2026-05-03T15:59:23.01Z</time></trkpt><trkpt lat="45.49647111571319" lon="7.743713691495505"><ele>798.6</ele><time>2026-05-03T15:59:26.01Z</time></trkpt><trkpt lat="45.49643847373767" lon="7.743826542640217"><ele>797.2</ele><time>2026-05-03T15:59:28.01Z</time></trkpt><trkpt lat="45.49643100428058" lon="7.743950605179758"><ele>795.8</ele><time>2026-05-03T15:59:30.01Z</time></trkpt><trkpt lat="45.496393724096464" lon="7.744028254545973"><ele>794.4</ele><time>2026-05-03T15:59:31.01Z</time></trkpt><trkpt lat="45.49637589037901" lon="7.744151604918647"><ele>793.0</ele><time>2026-05-03T15:59:32.01Z</time></trkpt><trkpt lat="45.496359756667346" lon="7.744334059834551"><ele>791.5999999999999</ele><time>2026-05-03T15:59:33.01Z</time></trkpt><trkpt lat="45.496382999727125" lon="7.744499813541144"><ele>790.1999999999999</ele><time>2026-05-03T15:59:34.01Z</time></trkpt><trkpt lat="45.496384154218546" lon="7.744629967073354"><ele>788.8</ele><time>2026-05-03T15:59:35.01Z</time></trkpt><trkpt lat="45.49635295113912" lon="7.744770927381025"><ele>787.4</ele><time>2026-05-03T15:59:36.01Z</time></trkpt><trkpt lat="45.49628448506987" lon="7.7448756575761175"><ele>786.0</ele><time>2026-05-03T15:59:37.01Z</time></trkpt><trkpt lat="45.49624862461111" lon="7.74500614976376"><ele>784.4</ele><time>2026-05-03T15:59:38.01Z</time></trkpt><trkpt lat="45.496250457143425" lon="7.745160741664394"><ele>782.8</ele><time>2026-05-03T15:59:39.01Z</time></trkpt><trkpt lat="45.49627165838075" lon="7.745287087656892"><ele>781.1999999999999</ele><time>2026-05-03T15:59:40.01Z</time></trkpt><trkpt lat="45.49629262035363" lon="7.745430392067466"><ele>779.5999999999999</ele><time>2026-05-03T15:59:41.01Z</time></trkpt><trkpt lat="45.496288418461546" lon="7.74560518615789"><ele>778.0</ele><time>2026-05-03T15:59:42.01Z</time></trkpt><trkpt lat="45.49627032842867" lon="7.745741766988524"><ele>780.2</ele><time>2026-05-03T15:59:43.01Z</time></trkpt><trkpt lat="45.496237428201354" lon="7.745910580275588"><ele>782.4</ele><time>2026-05-03T15:59:44.01Z</time></trkpt><trkpt lat="45.49620833885294" lon="7.746042146368058"><ele>784.6</ele><time>2026-05-03T15:59:45.01Z</time></trkpt><trkpt lat="45.49619846055404" lon="7.746147967880609"><ele>786.8000000000001</ele><time>2026-05-03T15:59:46.01Z</time></trkpt><trkpt lat="45.496169498522804" lon="7.746236999543113"><ele>789.0</ele><time>2026-05-03T15:59:48.01Z</time></trkpt><trkpt lat="45.49619503935664" lon="7.746101135462666"><ele>787.1666666666666</ele><time>2026-05-03T15:59:57.01Z</time></trkpt><trkpt lat="45.49622019604793" lon="7.745971364865462"><ele>785.3333333333333</ele><time>2026-05-03T15:59:59.01Z</time></trkpt><trkpt lat="45.49624582607482" lon="7.745840973357311"><ele>783.5</ele><time>2026-05-03T16:00:00.01Z</time></trkpt><trkpt lat="45.49626098267947" lon="7.745735695985684"><ele>781.6666666666666</ele><time>2026-05-03T16:00:01.01Z</time></trkpt><trkpt lat="45.49625559250069" lon="7.745632815844526"><ele>779.8333333333333</ele><time>2026-05-03T16:00:02.01Z</time></trkpt><trkpt lat="45.49622985551214" lon="7.745507971384543"><ele>778.0</ele><time>2026-05-03T16:00:03.009Z</time></trkpt><trkpt lat="45.49621422179553" lon="7.745392222853039"><ele>779.5999999999999</ele><time>2026-05-03T16:00:04.009Z</time></trkpt><trkpt lat="45.496215408764805" lon="7.745250064101244"><ele>781.1999999999999</ele><time>2026-05-03T16:00:05.008Z</time></trkpt><trkpt lat="45.49624020836103" lon="7.745115196162318"><ele>782.8</ele><time>2026-05-03T16:00:06.008Z</time></trkpt><trkpt lat="45.49627613316904" lon="7.7449776975896745"><ele>784.4</ele><time>2026-05-03T16:00:07.007Z</time></trkpt><trkpt lat="45.4963420230086" lon="7.7448094301433015"><ele>786.0</ele><time>2026-05-03T16:00:08.007Z</time></trkpt><trkpt lat="45.49641395885189" lon="7.744666652893026"><ele>786.0</ele><time>2026-05-03T16:00:09.007Z</time></trkpt><trkpt lat="45.4964150329663" lon="7.744477362518888"><ele>786.0</ele><time>2026-05-03T16:00:10.006Z</time></trkpt><trkpt lat="45.49639304332998" lon="7.744323735450994"><ele>786.0</ele><time>2026-05-03T16:00:11.006Z</time></trkpt><trkpt lat="45.49640644587513" lon="7.7441787601624705"><ele>786.0</ele><time>2026-05-03T16:00:12.006Z</time></trkpt><trkpt lat="45.49642812881767" lon="7.7440256908285905"><ele>787.4</ele><time>2026-05-03T16:00:13.005Z</time></trkpt><trkpt lat="45.496433089348116" lon="7.743880331021527"><ele>788.8</ele><time>2026-05-03T16:00:14.005Z</time></trkpt><trkpt lat="45.49646175666826" lon="7.7437411404818794"><ele>790.1999999999999</ele><time>2026-05-03T16:00:15.005Z</time></trkpt><trkpt lat="45.49647358253854" lon="7.743628265974907"><ele>791.5999999999999</ele><time>2026-05-03T16:00:16.004Z</time></trkpt><trkpt lat="45.49649958831901" lon="7.7435316491312"><ele>793.0</ele><time>2026-05-03T16:00:17.004Z</time></trkpt><trkpt lat="45.49652381412162" lon="7.743378900414544"><ele>792.8</ele><time>2026-05-03T16:00:19.004Z</time></trkpt><trkpt lat="45.49651919894384" lon="7.743273668005417"><ele>792.5999999999999</ele><time>2026-05-03T16:00:20.004Z</time></trkpt><trkpt lat="45.49651446107129" lon="7.743156036031492"><ele>792.4000000000001</ele><time>2026-05-03T16:00:21.003Z</time></trkpt><trkpt lat="45.49651629362641" lon="7.742967836733317"><ele>792.2</ele><time>2026-05-03T16:00:22.003Z</time></trkpt><trkpt lat="45.49650830561535" lon="7.742798450265413"><ele>792.0</ele><time>2026-05-03T16:00:23.003Z</time></trkpt><trkpt lat="45.496492026852565" lon="7.7426308392005705"><ele>792.0</ele><time>2026-05-03T16:00:24.003Z</time></trkpt><trkpt lat="45.496467397958405" lon="7.7424703477246934"><ele>792.0</ele><time>2026-05-03T16:00:25.003Z</time></trkpt><trkpt lat="45.49643360294677" lon="7.742316287960753"><ele>792.0</ele><time>2026-05-03T16:00:26.003Z</time></trkpt><trkpt lat="45.49638220963449" lon="7.742168898037014"><ele>792.0</ele><time>2026-05-03T16:00:27.003Z</time></trkpt><trkpt lat="45.496326098034736" lon="7.742052696844829"><ele>792.0</ele><time>2026-05-03T16:00:28.003Z</time></trkpt><trkpt lat="45.49625653397124" lon="7.7419478140116444"><ele>794.0</ele><time>2026-05-03T16:00:29.002Z</time></trkpt><trkpt lat="45.4961886622661" lon="7.741854366963781"><ele>796.0</ele><time>2026-05-03T16:00:30.002Z</time></trkpt><trkpt lat="45.49612221757791" lon="7.741789821469408"><ele>798.0</ele><time>2026-05-03T16:00:31.002Z</time></trkpt><trkpt lat="45.49606204113342" lon="7.741718668091422"><ele>800.0</ele><time>2026-05-03T16:00:32.002Z</time></trkpt><trkpt lat="45.49605253557534" lon="7.7416281754818765"><ele>802.0</ele><time>2026-05-03T16:00:34.002Z</time></trkpt><trkpt lat="45.49616076437001" lon="7.741492567224309"><ele>802.0</ele><time>2026-05-03T16:00:36.002Z</time></trkpt><trkpt lat="45.496232969087146" lon="7.741446484145935"><ele>802.0</ele><time>2026-05-03T16:00:37.002Z</time></trkpt><trkpt lat="45.49630809588475" lon="7.741362488727787"><ele>802.0</ele><time>2026-05-03T16:00:38.002Z</time></trkpt><trkpt lat="45.49638256309829" lon="7.741279335498702"><ele>802.0</ele><time>2026-05-03T16:00:39.002Z</time></trkpt><trkpt lat="45.49646813635712" lon="7.7412015715581335"><ele>802.0</ele><time>2026-05-03T16:00:40.002Z</time></trkpt><trkpt lat="45.49654763966903" lon="7.741116160935526"><ele>799.3333333333333</ele><time>2026-05-03T16:00:41.002Z</time></trkpt><trkpt lat="45.49662352694217" lon="7.741026894617761"><ele>796.6666666666666</ele><time>2026-05-03T16:00:42.002Z</time></trkpt><trkpt lat="45.496697235649414" lon="7.740939482966686"><ele>794.0</ele><time>2026-05-03T16:00:43.002Z</time></trkpt><trkpt lat="45.49677413241675" lon="7.740857939973564"><ele>791.3333333333333</ele><time>2026-05-03T16:00:44.002Z</time></trkpt><trkpt lat="45.49684187482376" lon="7.740790704648184"><ele>788.6666666666666</ele><time>2026-05-03T16:00:45.002Z</time></trkpt><trkpt lat="45.49689786471377" lon="7.740737454826478"><ele>786.0</ele><time>2026-05-03T16:00:46.002Z</time></trkpt><trkpt lat="45.49695987368622" lon="7.740709483581828"><ele>786.0</ele><time>2026-05-03T16:00:47.002Z</time></trkpt><trkpt lat="45.49706834666237" lon="7.740768781996147"><ele>786.0</ele><time>2026-05-03T16:00:49.002Z</time></trkpt><trkpt lat="45.49709660193605" lon="7.740961748548134"><ele>786.0</ele><time>2026-05-03T16:00:51.001Z</time></trkpt><trkpt lat="45.49715034742922" lon="7.741048754145621"><ele>786.0</ele><time>2026-05-03T16:00:52.001Z</time></trkpt><trkpt lat="45.49720224581127" lon="7.741110758979442"><ele>786.0</ele><time>2026-05-03T16:00:53.001Z</time></trkpt><trkpt lat="45.49726527952342" lon="7.741142441040032"><ele>783.3333333333334</ele><time>2026-05-03T16:00:54Z</time></trkpt><trkpt lat="45.497331840835024" lon="7.741144548985006"><ele>780.6666666666667</ele><time>2026-05-03T16:00:55Z</time></trkpt><trkpt lat="45.49740208532025" lon="7.741145031225122"><ele>778.0</ele><time>2026-05-03T16:00:56Z</time></trkpt><trkpt lat="45.49746879921352" lon="7.7411147578592185"><ele>775.3333333333334</ele><time>2026-05-03T16:00:57.001Z</time></trkpt><trkpt lat="45.4975356501534" lon="7.741064939686943"><ele>772.6666666666667</ele><time>2026-05-03T16:00:58.001Z</time></trkpt><trkpt lat="45.49762760163828" lon="7.741006839772281"><ele>770.0</ele><time>2026-05-03T16:00:59Z</time></trkpt><trkpt lat="45.49772336540094" lon="7.740938898776775"><ele>770.0000000000001</ele><time>2026-05-03T16:01:00.001Z</time></trkpt><trkpt lat="45.49780624839634" lon="7.7408718121223785"><ele>770.0</ele><time>2026-05-03T16:01:01.001Z</time></trkpt><trkpt lat="45.49788551731995" lon="7.740815491933621"><ele>770.0</ele><time>2026-05-03T16:01:02.001Z</time></trkpt><trkpt lat="45.497967219494306" lon="7.740758806782929"><ele>770.0</ele><time>2026-05-03T16:01:03Z</time></trkpt><trkpt lat="45.49803691927577" lon="7.74070973002352"><ele>770.0000000000001</ele><time>2026-05-03T16:01:04Z</time></trkpt><trkpt lat="45.49810012723405" lon="7.740672689340501"><ele>770.0</ele><time>2026-05-03T16:01:05Z</time></trkpt><trkpt lat="45.498164032554776" lon="7.740621836870971"><ele>768.2</ele><time>2026-05-03T16:01:06Z</time></trkpt><trkpt lat="45.49823913720041" lon="7.740569762803654"><ele>766.4</ele><time>2026-05-03T16:01:07Z</time></trkpt><trkpt lat="45.49831395866515" lon="7.74050890295422"><ele>764.5999999999999</ele><time>2026-05-03T16:01:08Z</time></trkpt><trkpt lat="45.49840171814501" lon="7.74044558660013"><ele>762.8</ele><time>2026-05-03T16:01:09Z</time></trkpt><trkpt lat="45.498489017653796" lon="7.7403793472395535"><ele>761.0</ele><time>2026-05-03T16:01:10Z</time></trkpt><trkpt lat="45.49857049161246" lon="7.740313945746373"><ele>761.0</ele><time>2026-05-03T16:01:11Z</time></trkpt><trkpt lat="45.49863709122199" lon="7.74027208832001"><ele>761.0</ele><time>2026-05-03T16:01:12Z</time></trkpt><trkpt lat="45.498709024348166" lon="7.740255741258788"><ele>761.0</ele><time>2026-05-03T16:01:13Z</time></trkpt><trkpt lat="45.4987882995679" lon="7.740291677968848"><ele>761.0</ele><time>2026-05-03T16:01:14Z</time></trkpt><trkpt lat="45.4988552069282" lon="7.740369390304012"><ele>761.0</ele><time>2026-05-03T16:01:15Z</time></trkpt><trkpt lat="45.498917638505844" lon="7.740442022067312"><ele>761.0</ele><time>2026-05-03T16:01:16Z</time></trkpt><trkpt lat="45.49897194169786" lon="7.740498261103041"><ele>758.5</ele><time>2026-05-03T16:01:17Z</time></trkpt><trkpt lat="45.49906988513838" lon="7.740553566974154"><ele>756.0</ele><time>2026-05-03T16:01:19Z</time></trkpt><trkpt lat="45.49915907441064" lon="7.740410158555863"><ele>753.5</ele><time>2026-05-03T16:02:19.002Z</time></trkpt><trkpt lat="45.4992288117781" lon="7.740334663194618"><ele>751.0</ele><time>2026-05-03T16:02:21.002Z</time></trkpt><trkpt lat="45.49935107630379" lon="7.740308997105459"><ele>751.0000000000001</ele><time>2026-05-03T16:02:23.002Z</time></trkpt><trkpt lat="45.49941626359862" lon="7.740277080206437"><ele>751.0</ele><time>2026-05-03T16:02:24.002Z</time></trkpt><trkpt lat="45.499479660442105" lon="7.740243624989066"><ele>751.0</ele><time>2026-05-03T16:02:25.002Z</time></trkpt><trkpt lat="45.499544403660884" lon="7.740208860925295"><ele>751.0</ele><time>2026-05-03T16:02:26.002Z</time></trkpt><trkpt lat="45.4996217455734" lon="7.740165830307226"><ele>751.0</ele><time>2026-05-03T16:02:27.002Z</time></trkpt><trkpt lat="45.49969793277242" lon="7.740123442090021"><ele>751.0000000000001</ele><time>2026-05-03T16:02:28.002Z</time></trkpt><trkpt lat="45.49976511442508" lon="7.740088460696375"><ele>751.0</ele><time>2026-05-03T16:02:29.002Z</time></trkpt><trkpt lat="45.49983423559586" lon="7.740077313342267"><ele>751.6666666666667</ele><time>2026-05-03T16:02:30.002Z</time></trkpt><trkpt lat="45.4999042321777" lon="7.7400831080249235"><ele>752.3333333333334</ele><time>2026-05-03T16:02:31.002Z</time></trkpt><trkpt lat="45.49997127707435" lon="7.740152935160769"><ele>753.0</ele><time>2026-05-03T16:02:32.002Z</time></trkpt><trkpt lat="45.500036900046375" lon="7.740240454150306"><ele>753.6666666666666</ele><time>2026-05-03T16:02:33.002Z</time></trkpt><trkpt lat="45.50009981454661" lon="7.740311801563126"><ele>754.3333333333333</ele><time>2026-05-03T16:02:34.002Z</time></trkpt><trkpt lat="45.500175116665545" lon="7.740423125371912"><ele>755.0</ele><time>2026-05-03T16:02:35.002Z</time></trkpt><trkpt lat="45.50028695102195" lon="7.740513946556748"><ele>755.0</ele><time>2026-05-03T16:02:36.002Z</time></trkpt><trkpt lat="45.500398334191964" lon="7.740613463982088"><ele>755.0</ele><time>2026-05-03T16:02:37.002Z</time></trkpt><trkpt lat="45.500510824690366" lon="7.740703428915416"><ele>755.0</ele><time>2026-05-03T16:02:38.002Z</time></trkpt><trkpt lat="45.50063606929668" lon="7.740805845521326"><ele>755.0</ele><time>2026-05-03T16:02:39.002Z</time></trkpt><trkpt lat="45.50075134859431" lon="7.7408699835159105"><ele>754.6</ele><time>2026-05-03T16:02:40.002Z</time></trkpt><trkpt lat="45.500830981786024" lon="7.740892633688315"><ele>754.2</ele><time>2026-05-03T16:02:41.002Z</time></trkpt><trkpt lat="45.50093880527226" lon="7.740934490407445"><ele>753.8</ele><time>2026-05-03T16:02:43.002Z</time></trkpt><trkpt lat="45.501038071158945" lon="7.740973642642057"><ele>753.4</ele><time>2026-05-03T16:02:46.002Z</time></trkpt><trkpt lat="45.50110755441055" lon="7.741013456763489"><ele>753.0</ele><time>2026-05-03T16:02:47.002Z</time></trkpt><trkpt lat="45.50118031725457" lon="7.741064872685411"><ele>753.0</ele><time>2026-05-03T16:02:48.002Z</time></trkpt><trkpt lat="45.501245578192226" lon="7.741120071154676"><ele>753.0</ele><time>2026-05-03T16:02:49.002Z</time></trkpt><trkpt lat="45.50130056116735" lon="7.741186193524009"><ele>753.0</ele><time>2026-05-03T16:02:50.002Z</time></trkpt><trkpt lat="45.501341204624595" lon="7.741262086953042"><ele>753.0</ele><time>2026-05-03T16:02:51.002Z</time></trkpt><trkpt lat="45.50134432772038" lon="7.741362544321161"><ele>753.0</ele><time>2026-05-03T16:02:52.002Z</time></trkpt><trkpt lat="45.50136426281661" lon="7.741472139360832"><ele>753.0</ele><time>2026-05-03T16:02:53.002Z</time></trkpt><trkpt lat="45.501391658484124" lon="7.74159670338324"><ele>754.8</ele><time>2026-05-03T16:02:54.002Z</time></trkpt><trkpt lat="45.50143757634027" lon="7.741719598091146"><ele>756.5999999999999</ele><time>2026-05-03T16:02:55.002Z</time></trkpt><trkpt lat="45.501501611443345" lon="7.741822172806824"><ele>758.4000000000001</ele><time>2026-05-03T16:02:56.002Z</time></trkpt><trkpt lat="45.50160253375475" lon="7.741849900454801"><ele>760.2</ele><time>2026-05-03T16:02:57.001Z</time></trkpt><trkpt lat="45.501680387554906" lon="7.741894396766773"><ele>762.0</ele><time>2026-05-03T16:02:58.001Z</time></trkpt><trkpt lat="45.501757157682555" lon="7.741907796495394"><ele>762.0</ele><time>2026-05-03T16:02:59.001Z</time></trkpt><trkpt lat="45.50182988707483" lon="7.741911265426889"><ele>762.0</ele><time>2026-05-03T16:03:00.001Z</time></trkpt><trkpt lat="45.501917094366064" lon="7.741939092048546"><ele>762.0</ele><time>2026-05-03T16:03:01.001Z</time></trkpt><trkpt lat="45.50200983552251" lon="7.741881586785334"><ele>762.0</ele><time>2026-05-03T16:03:02.001Z</time></trkpt><trkpt lat="45.50209096375103" lon="7.741824164686436"><ele>762.0</ele><time>2026-05-03T16:03:03.001Z</time></trkpt><trkpt lat="45.50217463581721" lon="7.741756452413191"><ele>759.4000000000001</ele><time>2026-05-03T16:03:04.001Z</time></trkpt><trkpt lat="45.50225430767626" lon="7.7416877053168"><ele>756.8000000000001</ele><time>2026-05-03T16:03:05.001Z</time></trkpt><trkpt lat="45.50232979587269" lon="7.741610189277194"><ele>754.2</ele><time>2026-05-03T16:03:06.001Z</time></trkpt><trkpt lat="45.5024052748433" lon="7.741529009120733"><ele>751.6</ele><time>2026-05-03T16:03:07.001Z</time></trkpt><trkpt lat="45.50248172729879" lon="7.7414633190757405"><ele>749.0</ele><time>2026-05-03T16:03:08.001Z</time></trkpt><trkpt lat="45.502542484037626" lon="7.741376109595888"><ele>749.0</ele><time>2026-05-03T16:03:09.002Z</time></trkpt><trkpt lat="45.502624814180415" lon="7.741313292645069"><ele>749.0</ele><time>2026-05-03T16:03:10.002Z</time></trkpt><trkpt lat="45.50269966774036" lon="7.741250295751395"><ele>749.0</ele><time>2026-05-03T16:03:11.002Z</time></trkpt><trkpt lat="45.5027920592913" lon="7.741250527495496"><ele>749.0</ele><time>2026-05-03T16:03:12.002Z</time></trkpt><trkpt lat="45.502882401537114" lon="7.741229561702475"><ele>749.0</ele><time>2026-05-03T16:03:13.002Z</time></trkpt><trkpt lat="45.50297546008721" lon="7.741229589956099"><ele>747.2</ele><time>2026-05-03T16:03:14.002Z</time></trkpt><trkpt lat="45.50306903821602" lon="7.7412056198232975"><ele>745.4000000000001</ele><time>2026-05-03T16:03:15.002Z</time></trkpt><trkpt lat="45.50316363958314" lon="7.741176400873555"><ele>743.6</ele><time>2026-05-03T16:03:16.002Z</time></trkpt><trkpt lat="45.503259314421534" lon="7.7411512637454996"><ele>741.8</ele><time>2026-05-03T16:03:17.002Z</time></trkpt><trkpt lat="45.50335032687234" lon="7.7411207817007694"><ele>740.0</ele><time>2026-05-03T16:03:18.002Z</time></trkpt><trkpt lat="45.503449882267624" lon="7.741086350034005"><ele>740.0</ele><time>2026-05-03T16:03:19.002Z</time></trkpt><trkpt lat="45.50354425034362" lon="7.7410621220576274"><ele>740.0</ele><time>2026-05-03T16:03:20.002Z</time></trkpt><trkpt lat="45.50364307642396" lon="7.741018707441372"><ele>740.0</ele><time>2026-05-03T16:03:21.002Z</time></trkpt><trkpt lat="45.50374560423318" lon="7.740973869193568"><ele>740.0</ele><time>2026-05-03T16:03:22.002Z</time></trkpt><trkpt lat="45.503836444224824" lon="7.740928107419704"><ele>740.0</ele><time>2026-05-03T16:03:23.002Z</time></trkpt><trkpt lat="45.503925588294265" lon="7.7408643696781185"><ele>741.2</ele><time>2026-05-03T16:03:24.002Z</time></trkpt><trkpt lat="45.50402315722334" lon="7.740838710995885"><ele>742.4</ele><time>2026-05-03T16:03:25.002Z</time></trkpt><trkpt lat="45.504108118373196" lon="7.740845637215906"><ele>743.5999999999999</ele><time>2026-05-03T16:03:26.002Z</time></trkpt><trkpt lat="45.504199578799586" lon="7.740860236083646"><ele>744.8</ele><time>2026-05-03T16:03:27.002Z</time></trkpt><trkpt lat="45.504292252362276" lon="7.740884359512507"><ele>746.0</ele><time>2026-05-03T16:03:28.002Z</time></trkpt><trkpt lat="45.50438929619554" lon="7.740902340607609"><ele>746.0</ele><time>2026-05-03T16:03:29.002Z</time></trkpt><trkpt lat="45.50448749713502" lon="7.740909221658564"><ele>746.0</ele><time>2026-05-03T16:03:30.002Z</time></trkpt><trkpt lat="45.50459379178698" lon="7.740900422554543"><ele>746.0</ele><time>2026-05-03T16:03:31.002Z</time></trkpt><trkpt lat="45.504699246486304" lon="7.740885050324502"><ele>746.0</ele><time>2026-05-03T16:03:32.002Z</time></trkpt><trkpt lat="45.50480441227146" lon="7.740887856614153"><ele>746.0</ele><time>2026-05-03T16:03:33.002Z</time></trkpt><trkpt lat="45.50490683067599" lon="7.740888820857819"><ele>745.1999999999999</ele><time>2026-05-03T16:03:34.002Z</time></trkpt><trkpt lat="45.50501085992362" lon="7.740887625986343"><ele>744.4</ele><time>2026-05-03T16:03:35.002Z</time></trkpt><trkpt lat="45.50511692469283" lon="7.740868958095352"><ele>743.6</ele><time>2026-05-03T16:03:36.002Z</time></trkpt><trkpt lat="45.5052112366407" lon="7.74085869615553"><ele>742.8</ele><time>2026-05-03T16:03:37.003Z</time></trkpt><trkpt lat="45.50530465579819" lon="7.740825570516103"><ele>742.0</ele><time>2026-05-03T16:03:38.003Z</time></trkpt><trkpt lat="45.505406499995466" lon="7.740783733997674"><ele>740.8</ele><time>2026-05-03T16:03:39.003Z</time></trkpt><trkpt lat="45.50550802559248" lon="7.7407489252436665"><ele>739.6</ele><time>2026-05-03T16:03:40.003Z</time></trkpt><trkpt lat="45.50560038923896" lon="7.740715580648204"><ele>738.4</ele><time>2026-05-03T16:03:41.003Z</time></trkpt><trkpt lat="45.50569310823939" lon="7.740671219907735"><ele>737.1999999999999</ele><time>2026-05-03T16:03:42.003Z</time></trkpt><trkpt lat="45.50578743119391" lon="7.7406207552409665"><ele>736.0</ele><time>2026-05-03T16:03:43.003Z</time></trkpt><trkpt lat="45.50587618595631" lon="7.74057385211079"><ele>736.0</ele><time>2026-05-03T16:03:44.003Z</time></trkpt><trkpt lat="45.505962780723024" lon="7.740532366694421"><ele>736.0</ele><time>2026-05-03T16:03:45.003Z</time></trkpt><trkpt lat="45.506052244356866" lon="7.740503131321771"><ele>736.0</ele><time>2026-05-03T16:03:46.003Z</time></trkpt><trkpt lat="45.50614719733579" lon="7.740460599770195"><ele>736.0</ele><time>2026-05-03T16:03:47.003Z</time></trkpt><trkpt lat="45.506251228140435" lon="7.740426253187784"><ele>736.0</ele><time>2026-05-03T16:03:48.003Z</time></trkpt><trkpt lat="45.506352258920444" lon="7.740388617643745"><ele>734.8</ele><time>2026-05-03T16:03:49.003Z</time></trkpt><trkpt lat="45.506456967522944" lon="7.740368584113095"><ele>733.5999999999999</ele><time>2026-05-03T16:03:50.003Z</time></trkpt><trkpt lat="45.5065608006663" lon="7.740349208840949"><ele>732.4</ele><time>2026-05-03T16:03:51.003Z</time></trkpt><trkpt lat="45.50665930074244" lon="7.740317992213165"><ele>731.2</ele><time>2026-05-03T16:03:52.003Z</time></trkpt><trkpt lat="45.50675540709765" lon="7.740280312799803"><ele>730.0</ele><time>2026-05-03T16:03:53.003Z</time></trkpt><trkpt lat="45.506851763516565" lon="7.740227181180167"><ele>730.0</ele><time>2026-05-03T16:03:54.003Z</time></trkpt><trkpt lat="45.50693834821004" lon="7.740247776869128"><ele>730.0</ele><time>2026-05-03T16:03:55.003Z</time></trkpt><trkpt lat="45.507013238109764" lon="7.740280771649126"><ele>730.0</ele><time>2026-05-03T16:03:56.003Z</time></trkpt><trkpt lat="45.507090995903155" lon="7.740315638927218"><ele>730.0</ele><time>2026-05-03T16:03:57.003Z</time></trkpt><trkpt lat="45.50714828880505" lon="7.740395282232487"><ele>730.0</ele><time>2026-05-03T16:03:58.003Z</time></trkpt><trkpt lat="45.50720549764586" lon="7.740500780484598"><ele>730.0</ele><time>2026-05-03T16:03:59.003Z</time></trkpt><trkpt lat="45.50726153421897" lon="7.740625497426296"><ele>730.4</ele><time>2026-05-03T16:04:00.003Z</time></trkpt><trkpt lat="45.50731521451606" lon="7.740756191917554"><ele>730.8</ele><time>2026-05-03T16:04:01.003Z</time></trkpt><trkpt lat="45.50737842496009" lon="7.740899516483246"><ele>731.2</ele><time>2026-05-03T16:04:02.003Z</time></trkpt><trkpt lat="45.50741443984855" lon="7.741032973665175"><ele>731.6</ele><time>2026-05-03T16:04:03.003Z</time></trkpt><trkpt lat="45.507465065264796" lon="7.741169707787064"><ele>732.0</ele><time>2026-05-03T16:04:05.003Z</time></trkpt><trkpt lat="45.5075205801657" lon="7.741283348749706"><ele>733.6</ele><time>2026-05-03T16:04:40.004Z</time></trkpt><trkpt lat="45.50754388251227" lon="7.741412483981668"><ele>735.2</ele><time>2026-05-03T16:04:42.004Z</time></trkpt><trkpt lat="45.507480358561594" lon="7.741585466004003"><ele>736.8</ele><time>2026-05-03T16:04:44.004Z</time></trkpt><trkpt lat="45.507446312934285" lon="7.741678091134479"><ele>738.4</ele><time>2026-05-03T16:04:45.004Z</time></trkpt><trkpt lat="45.50741530144084" lon="7.741779843510102"><ele>740.0</ele><time>2026-05-03T16:04:46.004Z</time></trkpt><trkpt lat="45.507361446860024" lon="7.741871971262742"><ele>739.5</ele><time>2026-05-03T16:04:47.004Z</time></trkpt><trkpt lat="45.50731216853022" lon="7.741945733197297"><ele>739.0</ele><time>2026-05-03T16:04:48.004Z</time></trkpt><trkpt lat="45.507251312485884" lon="7.7420167774831645"><ele>738.5</ele><time>2026-05-03T16:04:49.004Z</time></trkpt><trkpt lat="45.50718467544725" lon="7.742053392321111"><ele>738.0</ele><time>2026-05-03T16:04:50.004Z</time></trkpt><trkpt lat="45.507122748815384" lon="7.74210597948521"><ele>737.5</ele><time>2026-05-03T16:04:51.004Z</time></trkpt><trkpt lat="45.5070408655317" lon="7.742173575138901"><ele>737.0</ele><time>2026-05-03T16:04:52.004Z</time></trkpt><trkpt lat="45.50694846473434" lon="7.742254913926728"><ele>737.0</ele><time>2026-05-03T16:04:53.004Z</time></trkpt><trkpt lat="45.50686789059144" lon="7.742343163335341"><ele>737.0</ele><time>2026-05-03T16:04:54.004Z</time></trkpt><trkpt lat="45.50678927919653" lon="7.742438966812869"><ele>737.0</ele><time>2026-05-03T16:04:55.004Z</time></trkpt><trkpt lat="45.50671991381991" lon="7.742539574730198"><ele>737.0</ele><time>2026-05-03T16:04:56.004Z</time></trkpt><trkpt lat="45.50665984292314" lon="7.742658827817827"><ele>737.0</ele><time>2026-05-03T16:04:57.004Z</time></trkpt><trkpt lat="45.50660867416083" lon="7.742775718036614"><ele>739.4000000000001</ele><time>2026-05-03T16:04:58.004Z</time></trkpt><trkpt lat="45.50656794760602" lon="7.742900004340915"><ele>741.8000000000001</ele><time>2026-05-03T16:04:59.004Z</time></trkpt><trkpt lat="45.50655106626564" lon="7.743037441358767"><ele>744.2</ele><time>2026-05-03T16:05:00.004Z</time></trkpt><trkpt lat="45.50656709694975" lon="7.743162853631265"><ele>746.6</ele><time>2026-05-03T16:05:01.004Z</time></trkpt><trkpt lat="45.506611512973485" lon="7.743276997652783"><ele>749.0</ele><time>2026-05-03T16:05:02.002Z</time></trkpt><trkpt lat="45.50666498091058" lon="7.743372527963846"><ele>749.0</ele><time>2026-05-03T16:05:03.002Z</time></trkpt><trkpt lat="45.50671096273497" lon="7.743475069589541"><ele>749.0</ele><time>2026-05-03T16:05:04.002Z</time></trkpt><trkpt lat="45.50677015564734" lon="7.743590643846943"><ele>749.0</ele><time>2026-05-03T16:05:05.002Z</time></trkpt><trkpt lat="45.50681136403273" lon="7.7437055146169715"><ele>749.0</ele><time>2026-05-03T16:05:06.002Z</time></trkpt><trkpt lat="45.5068088446732" lon="7.743833256141509"><ele>749.0</ele><time>2026-05-03T16:05:07.001Z</time></trkpt><trkpt lat="45.50679744322469" lon="7.743961587325635"><ele>750.2</ele><time>2026-05-03T16:05:08.001Z</time></trkpt><trkpt lat="45.50676987920301" lon="7.744082769304807"><ele>751.4000000000001</ele><time>2026-05-03T16:05:09.002Z</time></trkpt><trkpt lat="45.506739598106" lon="7.744215837405679"><ele>752.6</ele><time>2026-05-03T16:05:10.002Z</time></trkpt><trkpt lat="45.50670620473046" lon="7.744338247261296"><ele>753.8</ele><time>2026-05-03T16:05:11.001Z</time></trkpt><trkpt lat="45.506674125758146" lon="7.744445820509296"><ele>755.0</ele><time>2026-05-03T16:05:12.001Z</time></trkpt><trkpt lat="45.50663369282843" lon="7.744580966456894"><ele>756.8</ele><time>2026-05-03T16:05:13.001Z</time></trkpt><trkpt lat="45.50657741849679" lon="7.7447175375452595"><ele>758.6</ele><time>2026-05-03T16:05:14.001Z</time></trkpt><trkpt lat="45.506534161015296" lon="7.744879133693667"><ele>760.4000000000001</ele><time>2026-05-03T16:05:15.002Z</time></trkpt><trkpt lat="45.50649672469554" lon="7.745020256965269"><ele>762.2</ele><time>2026-05-03T16:05:16.002Z</time></trkpt><trkpt lat="45.50647383077103" lon="7.745162607410094"><ele>764.0</ele><time>2026-05-03T16:05:17.002Z</time></trkpt><trkpt lat="45.50644642244243" lon="7.745308297303169"><ele>763.1666666666666</ele><time>2026-05-03T16:05:18.002Z</time></trkpt><trkpt lat="45.50641265599219" lon="7.745444225219663"><ele>762.3333333333333</ele><time>2026-05-03T16:05:19.002Z</time></trkpt><trkpt lat="45.506377126600455" lon="7.745568395345813"><ele>761.5</ele><time>2026-05-03T16:05:20.002Z</time></trkpt><trkpt lat="45.50632284144899" lon="7.745668650275803"><ele>760.6666666666666</ele><time>2026-05-03T16:05:21.002Z</time></trkpt><trkpt lat="45.50627687375352" lon="7.745760500383571"><ele>759.8333333333334</ele><time>2026-05-03T16:05:22.002Z</time></trkpt><trkpt lat="45.50622451721262" lon="7.745853910629299"><ele>759.0</ele><time>2026-05-03T16:05:23.002Z</time></trkpt><trkpt lat="45.50617688241541" lon="7.74596910726712"><ele>761.4000000000001</ele><time>2026-05-03T16:05:24.002Z</time></trkpt><trkpt lat="45.50609165596681" lon="7.746084186369339"><ele>763.8</ele><time>2026-05-03T16:05:25.002Z</time></trkpt><trkpt lat="45.50602045260795" lon="7.746203087569787"><ele>766.2</ele><time>2026-05-03T16:05:26.002Z</time></trkpt><trkpt lat="45.505943414600225" lon="7.746320449211153"><ele>768.5999999999999</ele><time>2026-05-03T16:05:27.002Z</time></trkpt><trkpt lat="45.505884601919995" lon="7.746451862500309"><ele>771.0</ele><time>2026-05-03T16:05:28.002Z</time></trkpt><trkpt lat="45.50582777417216" lon="7.74656581332664"><ele>771.0</ele><time>2026-05-03T16:05:29.002Z</time></trkpt><trkpt lat="45.505799229737576" lon="7.746703860924495"><ele>771.0</ele><time>2026-05-03T16:05:30.002Z</time></trkpt><trkpt lat="45.50578885656822" lon="7.7468402841739765"><ele>771.0</ele><time>2026-05-03T16:05:31.002Z</time></trkpt><trkpt lat="45.50580761373568" lon="7.7470028246513305"><ele>771.0</ele><time>2026-05-03T16:05:32.002Z</time></trkpt><trkpt lat="45.505854145218976" lon="7.747163546049097"><ele>771.0</ele><time>2026-05-03T16:05:33.002Z</time></trkpt><trkpt lat="45.5059224499383" lon="7.747299737947733"><ele>769.1999999999999</ele><time>2026-05-03T16:05:34.002Z</time></trkpt><trkpt lat="45.50600336952229" lon="7.747401883977389"><ele>767.4</ele><time>2026-05-03T16:05:35.002Z</time></trkpt><trkpt lat="45.506088143215266" lon="7.747486548075446"><ele>765.6</ele><time>2026-05-03T16:05:36.002Z</time></trkpt><trkpt lat="45.50617766338952" lon="7.747544226512755"><ele>763.8</ele><time>2026-05-03T16:05:37.002Z</time></trkpt><trkpt lat="45.50625931795662" lon="7.747631441540151"><ele>762.0</ele><time>2026-05-03T16:05:38.002Z</time></trkpt><trkpt lat="45.506343090182035" lon="7.747697677100487"><ele>763.0</ele><time>2026-05-03T16:05:39.002Z</time></trkpt><trkpt lat="45.50642767770364" lon="7.747763746758418"><ele>764.0</ele><time>2026-05-03T16:05:40.002Z</time></trkpt><trkpt lat="45.5065129129817" lon="7.7478400971027375"><ele>765.0</ele><time>2026-05-03T16:05:41.002Z</time></trkpt><trkpt lat="45.506603132989" lon="7.747911693112734"><ele>766.0</ele><time>2026-05-03T16:05:42.002Z</time></trkpt><trkpt lat="45.5066931074156" lon="7.747964075985083"><ele>767.0</ele><time>2026-05-03T16:05:43.002Z</time></trkpt><trkpt lat="45.50678884972166" lon="7.7480141115742365"><ele>767.0</ele><time>2026-05-03T16:05:44.002Z</time></trkpt><trkpt lat="45.50687209579297" lon="7.748070718986152"><ele>767.0</ele><time>2026-05-03T16:05:45.002Z</time></trkpt><trkpt lat="45.506942311864904" lon="7.748123653207622"><ele>767.0</ele><time>2026-05-03T16:05:46.002Z</time></trkpt><trkpt lat="45.50702587212921" lon="7.748187121701448"><ele>767.0</ele><time>2026-05-03T16:05:47.002Z</time></trkpt><trkpt lat="45.50711046496003" lon="7.748251817784195"><ele>767.0</ele><time>2026-05-03T16:05:48.002Z</time></trkpt><trkpt lat="45.507211625698545" lon="7.748318114931417"><ele>769.75</ele><time>2026-05-03T16:05:49.002Z</time></trkpt><trkpt lat="45.507314406574224" lon="7.748403937102317"><ele>772.5</ele><time>2026-05-03T16:05:50.002Z</time></trkpt><trkpt lat="45.50741486478588" lon="7.74849283556295"><ele>775.25</ele><time>2026-05-03T16:05:51.002Z</time></trkpt><trkpt lat="45.50751751990099" lon="7.748545983379408"><ele>778.0</ele><time>2026-05-03T16:05:52.002Z</time></trkpt><trkpt lat="45.507619799130694" lon="7.748582465127445"><ele>778.0</ele><time>2026-05-03T16:05:53.002Z</time></trkpt><trkpt lat="45.50772861296879" lon="7.748608375951837"><ele>778.0</ele><time>2026-05-03T16:05:54.002Z</time></trkpt><trkpt lat="45.50782675172493" lon="7.748644303818166"><ele>778.0</ele><time>2026-05-03T16:05:55.002Z</time></trkpt><trkpt lat="45.50791264726777" lon="7.748697096442927"><ele>778.0</ele><time>2026-05-03T16:05:56.002Z</time></trkpt><trkpt lat="45.507994276650415" lon="7.748740193252223"><ele>778.0</ele><time>2026-05-03T16:05:57.002Z</time></trkpt><trkpt lat="45.508065099109736" lon="7.748786847863313"><ele>780.9999999999999</ele><time>2026-05-03T16:05:58.003Z</time></trkpt><trkpt lat="45.508135186204" lon="7.748842831449843"><ele>784.0</ele><time>2026-05-03T16:05:59.003Z</time></trkpt><trkpt lat="45.50819369503922" lon="7.7489068042060625"><ele>787.0</ele><time>2026-05-03T16:06:00.003Z</time></trkpt><trkpt lat="45.50823623033085" lon="7.748973118321146"><ele>790.0</ele><time>2026-05-03T16:06:01.003Z</time></trkpt><trkpt lat="45.50829433291188" lon="7.749061255264233"><ele>792.9999999999999</ele><time>2026-05-03T16:06:03.003Z</time></trkpt><trkpt lat="45.50833961910882" lon="7.749204733064594"><ele>796.0</ele><time>2026-05-03T16:06:05.003Z</time></trkpt><trkpt lat="45.50837230883337" lon="7.749365042616531"><ele>796.1999999999999</ele><time>2026-05-03T16:06:07.003Z</time></trkpt><trkpt lat="45.508387290172415" lon="7.749473768520975"><ele>796.4</ele><time>2026-05-03T16:06:08.003Z</time></trkpt><trkpt lat="45.50840770953142" lon="7.7496088081132095"><ele>796.6</ele><time>2026-05-03T16:06:09.003Z</time></trkpt><trkpt lat="45.50843630481566" lon="7.749738919718878"><ele>796.8</ele><time>2026-05-03T16:06:10.003Z</time></trkpt><trkpt lat="45.508467501227464" lon="7.749858024346151"><ele>797.0</ele><time>2026-05-03T16:06:11.003Z</time></trkpt><trkpt lat="45.50849015125101" lon="7.749982927010676"><ele>797.0000000000001</ele><time>2026-05-03T16:06:12.003Z</time></trkpt><trkpt lat="45.50851021606702" lon="7.7501102219709725"><ele>797.0</ele><time>2026-05-03T16:06:13.003Z</time></trkpt><trkpt lat="45.50853129823976" lon="7.750233038659739"><ele>797.0</ele><time>2026-05-03T16:06:14.003Z</time></trkpt><trkpt lat="45.50854098098104" lon="7.7503581922863365"><ele>797.0</ele><time>2026-05-03T16:06:15.003Z</time></trkpt><trkpt lat="45.508551190998105" lon="7.750480853239675"><ele>797.0000000000001</ele><time>2026-05-03T16:06:16.003Z</time></trkpt><trkpt lat="45.50855522826788" lon="7.750612134348788"><ele>797.0</ele><time>2026-05-03T16:06:17.003Z</time></trkpt><trkpt lat="45.50855139424766" lon="7.750748364362297"><ele>797.0000000000001</ele><time>2026-05-03T16:06:18.003Z</time></trkpt><trkpt lat="45.50855184682323" lon="7.750882118711877"><ele>797.0</ele><time>2026-05-03T16:06:19.003Z</time></trkpt><trkpt lat="45.50856112985386" lon="7.751008389846408"><ele>797.0</ele><time>2026-05-03T16:06:20.003Z</time></trkpt><trkpt lat="45.50858017153991" lon="7.751123894326705"><ele>797.0</ele><time>2026-05-03T16:06:21.003Z</time></trkpt><trkpt lat="45.50860831200625" lon="7.751242529233291"><ele>797.0000000000001</ele><time>2026-05-03T16:06:22.003Z</time></trkpt><trkpt lat="45.50863765535449" lon="7.751366914157716"><ele>797.0</ele><time>2026-05-03T16:06:23.003Z</time></trkpt><trkpt lat="45.50865595836514" lon="7.751485616306351"><ele>796.6666666666667</ele><time>2026-05-03T16:06:24.003Z</time></trkpt><trkpt lat="45.5086673865132" lon="7.751602270683781"><ele>796.3333333333334</ele><time>2026-05-03T16:06:25.003Z</time></trkpt><trkpt lat="45.50866466504664" lon="7.751722401432062"><ele>796.0</ele><time>2026-05-03T16:06:26.003Z</time></trkpt><trkpt lat="45.508634944718985" lon="7.751831271367693"><ele>795.6666666666667</ele><time>2026-05-03T16:06:27.003Z</time></trkpt><trkpt lat="45.508583279549626" lon="7.7519272565974084"><ele>795.3333333333334</ele><time>2026-05-03T16:06:28.003Z</time></trkpt><trkpt lat="45.508532609709846" lon="7.752033097999886"><ele>795.0</ele><time>2026-05-03T16:06:29.003Z</time></trkpt><trkpt lat="45.50848670750673" lon="7.752145456403527"><ele>796.7142857142858</ele><time>2026-05-03T16:06:30.003Z</time></trkpt><trkpt lat="45.50844319662614" lon="7.752250534117279"><ele>798.4285714285714</ele><time>2026-05-03T16:06:31.003Z</time></trkpt><trkpt lat="45.5083972127243" lon="7.752338479488684"><ele>800.1428571428571</ele><time>2026-05-03T16:06:32.003Z</time></trkpt><trkpt lat="45.508339936967246" lon="7.752385859718055"><ele>801.8571428571429</ele><time>2026-05-03T16:06:33.003Z</time></trkpt><trkpt lat="45.508276752659626" lon="7.7523906183381515"><ele>803.5714285714286</ele><time>2026-05-03T16:06:34.003Z</time></trkpt><trkpt lat="45.50821173941997" lon="7.75233283370115"><ele>805.2857142857143</ele><time>2026-05-03T16:06:35.003Z</time></trkpt><trkpt lat="45.508134778897336" lon="7.752303233470455"><ele>807.0</ele><time>2026-05-03T16:06:36.003Z</time></trkpt><trkpt lat="45.508047278647176" lon="7.75226572684604"><ele>807.0</ele><time>2026-05-03T16:06:37.003Z</time></trkpt><trkpt lat="45.507959307757204" lon="7.752248428482527"><ele>807.0</ele><time>2026-05-03T16:06:38.003Z</time></trkpt><trkpt lat="45.50787365001883" lon="7.7522210025121545"><ele>807.0</ele><time>2026-05-03T16:06:39.003Z</time></trkpt><trkpt lat="45.507789170829916" lon="7.752196641333792"><ele>807.0</ele><time>2026-05-03T16:06:40.003Z</time></trkpt><trkpt lat="45.50770792007777" lon="7.752161775595434"><ele>807.0</ele><time>2026-05-03T16:06:41.003Z</time></trkpt><trkpt lat="45.50764079052889" lon="7.752144280424038"><ele>807.0</ele><time>2026-05-03T16:06:42.003Z</time></trkpt><trkpt lat="45.50756517889782" lon="7.75210975612704"><ele>807.0</ele><time>2026-05-03T16:06:44.003Z</time></trkpt><trkpt lat="45.507646061947796" lon="7.752265168719166"><ele>807.0</ele><time>2026-05-03T16:06:47.004Z</time></trkpt><trkpt lat="45.50775326489113" lon="7.752311190381519"><ele>807.0</ele><time>2026-05-03T16:06:49.004Z</time></trkpt><trkpt lat="45.50786412219731" lon="7.752364831262298"><ele>807.0</ele><time>2026-05-03T16:06:51.004Z</time></trkpt><trkpt lat="45.50798671847958" lon="7.752418600435154"><ele>807.0</ele><time>2026-05-03T16:06:53.004Z</time></trkpt><trkpt lat="45.50805556180374" lon="7.752444587254861"><ele>807.0</ele><time>2026-05-03T16:06:54.004Z</time></trkpt><trkpt lat="45.508128780861064" lon="7.75249367346939"><ele>807.0</ele><time>2026-05-03T16:06:55.004Z</time></trkpt><trkpt lat="45.50820173561939" lon="7.752555395321054"><ele>807.0</ele><time>2026-05-03T16:06:56.004Z</time></trkpt><trkpt lat="45.50826486238652" lon="7.752629057097077"><ele>807.0</ele><time>2026-05-03T16:06:57.004Z</time></trkpt><trkpt lat="45.50831202378245" lon="7.752724645975892"><ele>807.0</ele><time>2026-05-03T16:06:58.004Z</time></trkpt><trkpt lat="45.508337218863716" lon="7.752835503299215"><ele>811.2</ele><time>2026-05-03T16:06:59.004Z</time></trkpt><trkpt lat="45.50835770948259" lon="7.752964132095792"><ele>815.4000000000001</ele><time>2026-05-03T16:07:00.004Z</time></trkpt><trkpt lat="45.50833680696905" lon="7.753082617593093"><ele>819.5999999999999</ele><time>2026-05-03T16:07:01.004Z</time></trkpt><trkpt lat="45.5083319226645" lon="7.753211697321027"><ele>823.8</ele><time>2026-05-03T16:07:02.004Z</time></trkpt><trkpt lat="45.50833202358075" lon="7.75335298442179"><ele>828.0</ele><time>2026-05-03T16:07:03.004Z</time></trkpt><trkpt lat="45.50834346177003" lon="7.753498878826599"><ele>830.8</ele><time>2026-05-03T16:07:04.004Z</time></trkpt><trkpt lat="45.50837885959548" lon="7.7536250810456"><ele>833.5999999999999</ele><time>2026-05-03T16:07:05.004Z</time></trkpt><trkpt lat="45.50840280660264" lon="7.753772322385664"><ele>836.4000000000001</ele><time>2026-05-03T16:07:06.004Z</time></trkpt><trkpt lat="45.50842772264637" lon="7.7539286710080715"><ele>839.2</ele><time>2026-05-03T16:07:07.004Z</time></trkpt><trkpt lat="45.50846724305869" lon="7.754039468007674"><ele>842.0</ele><time>2026-05-03T16:07:08.001Z</time></trkpt><trkpt lat="45.5085305012239" lon="7.754169789740234"><ele>842.0</ele><time>2026-05-03T16:07:09Z</time></trkpt><trkpt lat="45.508611193251575" lon="7.754276910435005"><ele>842.0</ele><time>2026-05-03T16:07:10Z</time></trkpt><trkpt lat="45.50871952662021" lon="7.754363352694515"><ele>842.0</ele><time>2026-05-03T16:07:11.001Z</time></trkpt><trkpt lat="45.508810717703035" lon="7.754429430613708"><ele>842.0</ele><time>2026-05-03T16:07:12Z</time></trkpt><trkpt lat="45.508904368820666" lon="7.754484293170965"><ele>842.0</ele><time>2026-05-03T16:07:13Z</time></trkpt><trkpt lat="45.50899590168941" lon="7.754551222855473"><ele>841.6</ele><time>2026-05-03T16:07:14Z</time></trkpt><trkpt lat="45.509073700210266" lon="7.754617007894662"><ele>841.2</ele><time>2026-05-03T16:07:15Z</time></trkpt><trkpt lat="45.50914432780519" lon="7.754732020883492"><ele>840.8</ele><time>2026-05-03T16:07:16Z</time></trkpt><trkpt lat="45.509202842624724" lon="7.754852637394673"><ele>840.4</ele><time>2026-05-03T16:07:17Z</time></trkpt><trkpt lat="45.50926528660279" lon="7.754992015879254"><ele>840.0</ele><time>2026-05-03T16:07:18Z</time></trkpt><trkpt lat="45.50933746659951" lon="7.75509476142555"><ele>841.6</ele><time>2026-05-03T16:07:19Z</time></trkpt><trkpt lat="45.50940808772853" lon="7.755210189103744"><ele>843.2</ele><time>2026-05-03T16:07:20Z</time></trkpt><trkpt lat="45.509483841838815" lon="7.755306450666135"><ele>844.8</ele><time>2026-05-03T16:07:21Z</time></trkpt><trkpt lat="45.50957434272072" lon="7.7553708881265715"><ele>846.4</ele><time>2026-05-03T16:07:22Z</time></trkpt><trkpt lat="45.50966346701031" lon="7.755430917755166"><ele>848.0</ele><time>2026-05-03T16:07:23Z</time></trkpt><trkpt lat="45.50977362101632" lon="7.755476358759819"><ele>848.0</ele><time>2026-05-03T16:07:24Z</time></trkpt><trkpt lat="45.50988689783128" lon="7.755521551662569"><ele>848.0</ele><time>2026-05-03T16:07:25Z</time></trkpt><trkpt lat="45.50999652869775" lon="7.75555602136694"><ele>848.0</ele><time>2026-05-03T16:07:26Z</time></trkpt><trkpt lat="45.51009051463744" lon="7.755622240631483"><ele>848.0</ele><time>2026-05-03T16:07:27Z</time></trkpt><trkpt lat="45.510154229504316" lon="7.755700124507877"><ele>848.0</ele><time>2026-05-03T16:07:28Z</time></trkpt><trkpt lat="45.51025225774075" lon="7.755764212239575"><ele>848.0</ele><time>2026-05-03T16:07:29Z</time></trkpt><trkpt lat="45.51035363271982" lon="7.755879924834541"><ele>848.0</ele><time>2026-05-03T16:07:30Z</time></trkpt><trkpt lat="45.51042981676604" lon="7.756039593395027"><ele>848.0</ele><time>2026-05-03T16:07:31Z</time></trkpt><trkpt lat="45.51046671796356" lon="7.756196065835697"><ele>848.0</ele><time>2026-05-03T16:07:32Z</time></trkpt><trkpt lat="45.51051662128853" lon="7.756330969048116"><ele>850.2</ele><time>2026-05-03T16:07:33Z</time></trkpt><trkpt lat="45.510581521477604" lon="7.756460031050686"><ele>852.4</ele><time>2026-05-03T16:07:34Z</time></trkpt><trkpt lat="45.510644207728745" lon="7.756577735969075"><ele>854.6000000000001</ele><time>2026-05-03T16:07:35Z</time></trkpt><trkpt lat="45.51071209199981" lon="7.756692573225333"><ele>856.8000000000001</ele><time>2026-05-03T16:07:36Z</time></trkpt><trkpt lat="45.51077212871554" lon="7.7567954585902426"><ele>859.0</ele><time>2026-05-03T16:07:37Z</time></trkpt><trkpt lat="45.51081973927565" lon="7.7569164968997075"><ele>864.6</ele><time>2026-05-03T16:07:38Z</time></trkpt><trkpt lat="45.51089233360776" lon="7.7570131461033665"><ele>870.2</ele><time>2026-05-03T16:07:39Z</time></trkpt><trkpt lat="45.51097702970404" lon="7.757106190079288"><ele>875.8000000000001</ele><time>2026-05-03T16:07:40Z</time></trkpt><trkpt lat="45.51105465799317" lon="7.757200779052019"><ele>881.4000000000001</ele><time>2026-05-03T16:07:41Z</time></trkpt><trkpt lat="45.511148820156144" lon="7.757288718111671"><ele>887.0</ele><time>2026-05-03T16:07:42Z</time></trkpt><trkpt lat="45.51123581368891" lon="7.757371988452793"><ele>882.6</ele><time>2026-05-03T16:07:43Z</time></trkpt><trkpt lat="45.51132271777876" lon="7.757432905838666"><ele>878.2</ele><time>2026-05-03T16:07:44Z</time></trkpt><trkpt lat="45.51140757718477" lon="7.7574676813070775"><ele>873.8</ele><time>2026-05-03T16:07:45Z</time></trkpt><trkpt lat="45.51151901270909" lon="7.757397781952586"><ele>869.4</ele><time>2026-05-03T16:07:46Z</time></trkpt><trkpt lat="45.51160587917317" lon="7.75734254606377"><ele>865.0</ele><time>2026-05-03T16:07:47Z</time></trkpt><trkpt lat="45.511710614875085" lon="7.757326928581965"><ele>865.0</ele><time>2026-05-03T16:07:48Z</time></trkpt><trkpt lat="45.511826618275556" lon="7.7573398850936215"><ele>865.0</ele><time>2026-05-03T16:07:49Z</time></trkpt><trkpt lat="45.511915870922934" lon="7.75737197916163"><ele>865.0</ele><time>2026-05-03T16:07:50Z</time></trkpt><trkpt lat="45.51201944152287" lon="7.757382103509108"><ele>865.0</ele><time>2026-05-03T16:07:51Z</time></trkpt><trkpt lat="45.51213570560687" lon="7.75738072041315"><ele>865.0</ele><time>2026-05-03T16:07:52Z</time></trkpt><trkpt lat="45.512250456568296" lon="7.757398215490051"><ele>866.0</ele><time>2026-05-03T16:07:53Z</time></trkpt><trkpt lat="45.51236022045825" lon="7.757421682581517"><ele>867.0</ele><time>2026-05-03T16:07:54Z</time></trkpt><trkpt lat="45.51245404448839" lon="7.757471299382032"><ele>868.0</ele><time>2026-05-03T16:07:55Z</time></trkpt><trkpt lat="45.51255436457445" lon="7.757503859639441"><ele>869.0</ele><time>2026-05-03T16:07:56Z</time></trkpt><trkpt lat="45.51264302257352" lon="7.75755037351389"><ele>870.0</ele><time>2026-05-03T16:07:57Z</time></trkpt><trkpt lat="45.51272048805924" lon="7.757600537809498"><ele>870.0</ele><time>2026-05-03T16:07:58Z</time></trkpt><trkpt lat="45.512797086323026" lon="7.757640366245644"><ele>870.0</ele><time>2026-05-03T16:07:59Z</time></trkpt><trkpt lat="45.51286778389836" lon="7.757660764392759"><ele>870.0</ele><time>2026-05-03T16:08:00.001Z</time></trkpt><trkpt lat="45.51294379646564" lon="7.757689124382655"><ele>870.0</ele><time>2026-05-03T16:08:01.001Z</time></trkpt><trkpt lat="45.513020937689326" lon="7.7576999174570265"><ele>870.0</ele><time>2026-05-03T16:08:02.001Z</time></trkpt><trkpt lat="45.51309288675063" lon="7.757707506591494"><ele>870.0</ele><time>2026-05-03T16:08:03.001Z</time></trkpt><trkpt lat="45.513188111504256" lon="7.757724455054774"><ele>876.5</ele><time>2026-05-03T16:08:04.001Z</time></trkpt><trkpt lat="45.5132745191394" lon="7.757749312950507"><ele>883.0</ele><time>2026-05-03T16:08:05.001Z</time></trkpt><trkpt lat="45.51335452047525" lon="7.757772563954953"><ele>889.5</ele><time>2026-05-03T16:08:06.001Z</time></trkpt><trkpt lat="45.51345032593467" lon="7.757777676631935"><ele>896.0</ele><time>2026-05-03T16:08:07.001Z</time></trkpt><trkpt lat="45.51353966979028" lon="7.75779192119004"><ele>902.5</ele><time>2026-05-03T16:08:08.001Z</time></trkpt><trkpt lat="45.513631194813904" lon="7.757780925582786"><ele>909.0</ele><time>2026-05-03T16:08:09.001Z</time></trkpt><trkpt lat="45.51372374953476" lon="7.757782910968503"><ele>911.3333333333334</ele><time>2026-05-03T16:08:10.001Z</time></trkpt><trkpt lat="45.51382013679846" lon="7.75774418313676"><ele>913.6666666666667</ele><time>2026-05-03T16:08:11.001Z</time></trkpt><trkpt lat="45.51389793916738" lon="7.757734449137974"><ele>916.0</ele><time>2026-05-03T16:08:12.001Z</time></trkpt><trkpt lat="45.51398090947392" lon="7.757726084313576"><ele>918.3333333333334</ele><time>2026-05-03T16:08:13.001Z</time></trkpt><trkpt lat="45.51404789115272" lon="7.757735174493191"><ele>920.6666666666667</ele><time>2026-05-03T16:08:14.001Z</time></trkpt><trkpt lat="45.51411625246387" lon="7.757695234849627"><ele>923.0</ele><time>2026-05-03T16:08:15.001Z</time></trkpt><trkpt lat="45.51418366218563" lon="7.757687517402325"><ele>923.0</ele><time>2026-05-03T16:08:18.001Z</time></trkpt><trkpt lat="45.51388197793271" lon="7.758094632495852"><ele>923.0</ele><time>2026-05-03T16:10:10Z</time></trkpt><trkpt lat="45.513747596390544" lon="7.758122235292434"><ele>918.3333333333334</ele><time>2026-05-03T16:10:11Z</time></trkpt><trkpt lat="45.51360541298867" lon="7.758155764934967"><ele>913.6666666666667</ele><time>2026-05-03T16:10:12Z</time></trkpt><trkpt lat="45.51344414410079" lon="7.758190306626002"><ele>909.0</ele><time>2026-05-03T16:10:13Z</time></trkpt><trkpt lat="45.513295383108" lon="7.75821952810273"><ele>909.0</ele><time>2026-05-03T16:10:14Z</time></trkpt><trkpt lat="45.513154129914405" lon="7.758244951799617"><ele>909.0</ele><time>2026-05-03T16:10:15Z</time></trkpt><trkpt lat="45.513016965485676" lon="7.758282462721876"><ele>909.0</ele><time>2026-05-03T16:10:16Z</time></trkpt><trkpt lat="45.51288866909022" lon="7.758310013618514"><ele>909.0</ele><time>2026-05-03T16:10:17Z</time></trkpt><trkpt lat="45.51274378958562" lon="7.75833995012017"><ele>905.0</ele><time>2026-05-03T16:10:18Z</time></trkpt><trkpt lat="45.51261890930308" lon="7.7583718233292975"><ele>901.0</ele><time>2026-05-03T16:10:19Z</time></trkpt><trkpt lat="45.512488906080605" lon="7.75846954787632"><ele>897.0</ele><time>2026-05-03T16:10:20Z</time></trkpt><trkpt lat="45.51235107107034" lon="7.75853893551932"><ele>893.0</ele><time>2026-05-03T16:10:21Z</time></trkpt><trkpt lat="45.51223296461009" lon="7.758570289260999"><ele>893.75</ele><time>2026-05-03T16:10:22Z</time></trkpt><trkpt lat="45.51214365097915" lon="7.758592845508098"><ele>894.5</ele><time>2026-05-03T16:10:23Z</time></trkpt><trkpt lat="45.5119994348891" lon="7.758555249675274"><ele>895.25</ele><time>2026-05-03T16:10:25Z</time></trkpt><trkpt lat="45.51189006140897" lon="7.758513545493227"><ele>896.0</ele><time>2026-05-03T16:10:26Z</time></trkpt><trkpt lat="45.511770308918244" lon="7.758486794045774"><ele>896.0</ele><time>2026-05-03T16:10:27Z</time></trkpt><trkpt lat="45.51165365989607" lon="7.75848128474858"><ele>896.0</ele><time>2026-05-03T16:10:28Z</time></trkpt><trkpt lat="45.51153747733119" lon="7.7584520306160645"><ele>896.0</ele><time>2026-05-03T16:10:29Z</time></trkpt><trkpt lat="45.511423147129214" lon="7.758429101889917"><ele>896.0</ele><time>2026-05-03T16:10:30Z</time></trkpt><trkpt lat="45.51130197637211" lon="7.75839023996631"><ele>900.5999999999999</ele><time>2026-05-03T16:10:31Z</time></trkpt><trkpt lat="45.511192412308226" lon="7.758325461674593"><ele>905.1999999999999</ele><time>2026-05-03T16:10:32Z</time></trkpt><trkpt lat="45.51108240354132" lon="7.7582313321523335"><ele>909.8000000000001</ele><time>2026-05-03T16:10:33Z</time></trkpt><trkpt lat="45.5109931757697" lon="7.758159212230819"><ele>914.4000000000001</ele><time>2026-05-03T16:10:34Z</time></trkpt><trkpt lat="45.510907174019216" lon="7.758118692644679"><ele>919.0</ele><time>2026-05-03T16:10:35Z</time></trkpt><trkpt lat="45.51081666615709" lon="7.758143562829069"><ele>919.0</ele><time>2026-05-03T16:10:36Z</time></trkpt><trkpt lat="45.51072077466809" lon="7.758195605295066"><ele>919.0000000000001</ele><time>2026-05-03T16:10:37Z</time></trkpt><trkpt lat="45.51062148625859" lon="7.758290281739025"><ele>919.0000000000001</ele><time>2026-05-03T16:10:38Z</time></trkpt><trkpt lat="45.51051831811696" lon="7.758247816885689"><ele>919.0</ele><time>2026-05-03T16:10:40Z</time></trkpt><trkpt lat="45.51041541583804" lon="7.7582182593774975"><ele>919.0</ele><time>2026-05-03T16:10:42Z</time></trkpt><trkpt lat="45.51034829179904" lon="7.758201828473162"><ele>919.8000000000001</ele><time>2026-05-03T16:10:43Z</time></trkpt><trkpt lat="45.51027933627971" lon="7.758187354998661"><ele>920.6000000000001</ele><time>2026-05-03T16:10:44Z</time></trkpt><trkpt lat="45.510165717087794" lon="7.758207091068558"><ele>921.4</ele><time>2026-05-03T16:10:46Z</time></trkpt><trkpt lat="45.510065045089085" lon="7.758278147725976"><ele>922.2</ele><time>2026-05-03T16:10:48Z</time></trkpt><trkpt lat="45.509966383293744" lon="7.75833005816382"><ele>923.0</ele><time>2026-05-03T16:10:50Z</time></trkpt><trkpt lat="45.50987286970253" lon="7.758317360402519"><ele>923.0000000000001</ele><time>2026-05-03T16:10:52.001Z</time></trkpt><trkpt lat="45.50980319889689" lon="7.758318972490983"><ele>923.0</ele><time>2026-05-03T16:10:53.001Z</time></trkpt><trkpt lat="45.50968276537288" lon="7.758356455095718"><ele>923.0</ele><time>2026-05-03T16:10:55.001Z</time></trkpt><trkpt lat="45.50960749800483" lon="7.758342917223147"><ele>923.0</ele><time>2026-05-03T16:10:56.001Z</time></trkpt><trkpt lat="45.509532678380396" lon="7.758342735636103"><ele>923.0000000000001</ele><time>2026-05-03T16:10:57.001Z</time></trkpt><trkpt lat="45.50943871966067" lon="7.7583815099572435"><ele>923.0</ele><time>2026-05-03T16:10:59.001Z</time></trkpt><trkpt lat="45.509334756788846" lon="7.758457970372396"><ele>922.1666666666667</ele><time>2026-05-03T16:11:01.001Z</time></trkpt><trkpt lat="45.509277433473756" lon="7.758508363464547"><ele>921.3333333333334</ele><time>2026-05-03T16:11:02.001Z</time></trkpt><trkpt lat="45.50921358073243" lon="7.7585452545275615"><ele>920.5</ele><time>2026-05-03T16:11:03.001Z</time></trkpt><trkpt lat="45.50913998144971" lon="7.758571389826665"><ele>919.6666666666667</ele><time>2026-05-03T16:11:04.001Z</time></trkpt><trkpt lat="45.50905486302981" lon="7.758569459771011"><ele>918.8333333333334</ele><time>2026-05-03T16:11:05.001Z</time></trkpt><trkpt lat="45.50898336709507" lon="7.758560687806701"><ele>918.0</ele><time>2026-05-03T16:11:06.001Z</time></trkpt><trkpt lat="45.508892920913325" lon="7.758518767114561"><ele>918.0</ele><time>2026-05-03T16:11:07.001Z</time></trkpt><trkpt lat="45.508784423523" lon="7.758453877356837"><ele>918.0</ele><time>2026-05-03T16:11:08.001Z</time></trkpt><trkpt lat="45.50868040353234" lon="7.758362999923486"><ele>918.0</ele><time>2026-05-03T16:11:09.001Z</time></trkpt><trkpt lat="45.508585607201056" lon="7.758259468885793"><ele>918.0</ele><time>2026-05-03T16:11:10.001Z</time></trkpt><trkpt lat="45.508488161157395" lon="7.758156619332079"><ele>921.0</ele><time>2026-05-03T16:11:11.001Z</time></trkpt><trkpt lat="45.5083708901911" lon="7.758078134088986"><ele>924.0</ele><time>2026-05-03T16:11:12.001Z</time></trkpt><trkpt lat="45.50827922183453" lon="7.757995599125062"><ele>927.0</ele><time>2026-05-03T16:11:13.001Z</time></trkpt><trkpt lat="45.508193010578154" lon="7.757939953743022"><ele>930.0</ele><time>2026-05-03T16:11:14.001Z</time></trkpt><trkpt lat="45.50809386362565" lon="7.757853103797555"><ele>933.0</ele><time>2026-05-03T16:11:15.001Z</time></trkpt><trkpt lat="45.50799555356705" lon="7.7578018352822795"><ele>931.5</ele><time>2026-05-03T16:11:16.001Z</time></trkpt><trkpt lat="45.50788961368749" lon="7.7577537279339275"><ele>930.0</ele><time>2026-05-03T16:11:17.001Z</time></trkpt><trkpt lat="45.507782071333715" lon="7.757683699248033"><ele>928.5</ele><time>2026-05-03T16:11:18.001Z</time></trkpt><trkpt lat="45.50767581605113" lon="7.757623603417427"><ele>927.0</ele><time>2026-05-03T16:11:19.001Z</time></trkpt><trkpt lat="45.50755735666573" lon="7.75758480282302"><ele>927.0</ele><time>2026-05-03T16:11:19.997Z</time></trkpt><trkpt lat="45.50739429335603" lon="7.7575594002370085"><ele>927.0</ele><time>2026-05-03T16:11:20.997Z</time></trkpt><trkpt lat="45.50724423320318" lon="7.7575725959249535"><ele>927.0</ele><time>2026-05-03T16:11:21.997Z</time></trkpt><trkpt lat="45.5071092894525" lon="7.757586895311839"><ele>933.75</ele><time>2026-05-03T16:11:22.997Z</time></trkpt><trkpt lat="45.50695538928375" lon="7.7575362013463645"><ele>940.5</ele><time>2026-05-03T16:11:23.997Z</time></trkpt><trkpt lat="45.506814540718494" lon="7.757478357140269"><ele>947.25</ele><time>2026-05-03T16:11:24.997Z</time></trkpt><trkpt lat="45.50670140272516" lon="7.757435742576875"><ele>954.0</ele><time>2026-05-03T16:11:25.997Z</time></trkpt><trkpt lat="45.50657138645863" lon="7.757387496986701"><ele>954.0</ele><time>2026-05-03T16:11:26.997Z</time></trkpt><trkpt lat="45.50642997876015" lon="7.7573201728647465"><ele>954.0</ele><time>2026-05-03T16:11:27.997Z</time></trkpt><trkpt lat="45.50631116932916" lon="7.75727439958381"><ele>954.0</ele><time>2026-05-03T16:11:28.997Z</time></trkpt><trkpt lat="45.50621819380662" lon="7.7572411292196914"><ele>954.0</ele><time>2026-05-03T16:11:29.997Z</time></trkpt><trkpt lat="45.506139810167625" lon="7.757191400894603"><ele>955.2</ele><time>2026-05-03T16:11:30.997Z</time></trkpt><trkpt lat="45.50608148266223" lon="7.757261742425072"><ele>956.4000000000001</ele><time>2026-05-03T16:11:32.997Z</time></trkpt><trkpt lat="45.506109806159024" lon="7.757446410039009"><ele>957.6</ele><time>2026-05-03T16:11:34.997Z</time></trkpt><trkpt lat="45.50615553617131" lon="7.757531498832412"><ele>958.8</ele><time>2026-05-03T16:11:35.997Z</time></trkpt><trkpt lat="45.50620538120063" lon="7.757635970239956"><ele>960.0</ele><time>2026-05-03T16:11:36.997Z</time></trkpt><trkpt lat="45.50626010536496" lon="7.757738768221662"><ele>964.6</ele><time>2026-05-03T16:11:37.997Z</time></trkpt><trkpt lat="45.50633124909178" lon="7.757849123408734"><ele>969.2</ele><time>2026-05-03T16:11:38.997Z</time></trkpt><trkpt lat="45.506407440027544" lon="7.75796283576787"><ele>973.8</ele><time>2026-05-03T16:11:39.997Z</time></trkpt><trkpt lat="45.50649040476852" lon="7.7580676870121765"><ele>978.4</ele><time>2026-05-03T16:11:40.997Z</time></trkpt><trkpt lat="45.506584195470126" lon="7.75817156873544"><ele>983.0</ele><time>2026-05-03T16:11:41.997Z</time></trkpt><trkpt lat="45.50668682156511" lon="7.758237242780969"><ele>983.0</ele><time>2026-05-03T16:11:42.997Z</time></trkpt><trkpt lat="45.50679916851383" lon="7.758318033630643"><ele>983.0</ele><time>2026-05-03T16:11:43.997Z</time></trkpt><trkpt lat="45.50689239069579" lon="7.758415901972972"><ele>983.0</ele><time>2026-05-03T16:11:44.997Z</time></trkpt><trkpt lat="45.506965098933556" lon="7.758524312699719"><ele>983.0</ele><time>2026-05-03T16:11:45.997Z</time></trkpt><trkpt lat="45.507027736648176" lon="7.758625952452358"><ele>983.0</ele><time>2026-05-03T16:11:46.997Z</time></trkpt><trkpt lat="45.507078195037565" lon="7.758706938312984"><ele>983.8</ele><time>2026-05-03T16:11:47.997Z</time></trkpt><trkpt lat="45.50713435682651" lon="7.758811087943744"><ele>984.5999999999999</ele><time>2026-05-03T16:11:48.997Z</time></trkpt><trkpt lat="45.50718560686122" lon="7.758925890191611"><ele>985.4000000000001</ele><time>2026-05-03T16:11:49.997Z</time></trkpt><trkpt lat="45.507234338940016" lon="7.759081231459779"><ele>986.2</ele><time>2026-05-03T16:11:50.997Z</time></trkpt><trkpt lat="45.50728574171452" lon="7.759245783627879"><ele>987.0</ele><time>2026-05-03T16:11:51.997Z</time></trkpt><trkpt lat="45.507318435952364" lon="7.759407546336175"><ele>989.3333333333334</ele><time>2026-05-03T16:11:52.997Z</time></trkpt><trkpt lat="45.50735707423314" lon="7.7595506226535225"><ele>991.6666666666667</ele><time>2026-05-03T16:11:53.997Z</time></trkpt><trkpt lat="45.507395575374424" lon="7.759686426722779"><ele>994.0</ele><time>2026-05-03T16:11:54.997Z</time></trkpt><trkpt lat="45.50741683830114" lon="7.759791834227246"><ele>996.3333333333334</ele><time>2026-05-03T16:11:55.997Z</time></trkpt><trkpt lat="45.5074126358951" lon="7.759909752470013"><ele>998.6666666666667</ele><time>2026-05-03T16:11:56.997Z</time></trkpt><trkpt lat="45.50739783111377" lon="7.760009050390127"><ele>1001.0</ele><time>2026-05-03T16:11:57.997Z</time></trkpt><trkpt lat="45.50740486313004" lon="7.76011006078175"><ele>1000.6666666666667</ele><time>2026-05-03T16:11:58.997Z</time></trkpt><trkpt lat="45.50743081210463" lon="7.760202896056784"><ele>1000.3333333333334</ele><time>2026-05-03T16:11:59.997Z</time></trkpt><trkpt lat="45.50748438588153" lon="7.7602605065028305"><ele>1000.0</ele><time>2026-05-03T16:12:01.997Z</time></trkpt><trkpt lat="45.507561223189946" lon="7.760310086554009"><ele>999.6666666666667</ele><time>2026-05-03T16:12:05.997Z</time></trkpt><trkpt lat="45.50763373207637" lon="7.760350865792796"><ele>999.3333333333334</ele><time>2026-05-03T16:12:07.998Z</time></trkpt><trkpt lat="45.50767041617481" lon="7.760456162639601"><ele>999.0</ele><time>2026-05-03T16:12:22.998Z</time></trkpt><trkpt lat="45.50774321799833" lon="7.760533771434915"><ele>999.0</ele><time>2026-05-03T16:12:25.998Z</time></trkpt><trkpt lat="45.507844222522436" lon="7.760611206133806"><ele>999.0000000000001</ele><time>2026-05-03T16:12:27.998Z</time></trkpt><trkpt lat="45.50790859337865" lon="7.760673598678546"><ele>999.0000000000001</ele><time>2026-05-03T16:12:28.998Z</time></trkpt><trkpt lat="45.507975177085974" lon="7.760724871285274"><ele>999.0</ele><time>2026-05-03T16:12:29.998Z</time></trkpt><trkpt lat="45.50803548394415" lon="7.7607717569954"><ele>999.0</ele><time>2026-05-03T16:12:30.998Z</time></trkpt><trkpt lat="45.50813650611544" lon="7.7608565332954065"><ele>1000.2</ele><time>2026-05-03T16:12:32.998Z</time></trkpt><trkpt lat="45.508196711829285" lon="7.760890664872316"><ele>1001.4000000000001</ele><time>2026-05-03T16:12:33.998Z</time></trkpt><trkpt lat="45.50830204701068" lon="7.760967699302949"><ele>1002.6</ele><time>2026-05-03T16:12:35.998Z</time></trkpt><trkpt lat="45.50842487408815" lon="7.76107922107073"><ele>1003.8</ele><time>2026-05-03T16:12:37.998Z</time></trkpt><trkpt lat="45.50851268914347" lon="7.7611413923489"><ele>1005.0</ele><time>2026-05-03T16:12:38.998Z</time></trkpt><trkpt lat="45.50859175919853" lon="7.761190392985595"><ele>1005.0</ele><time>2026-05-03T16:12:39.998Z</time></trkpt><trkpt lat="45.50867794622255" lon="7.761241252348174"><ele>1005.0</ele><time>2026-05-03T16:12:40.998Z</time></trkpt><trkpt lat="45.50879183473491" lon="7.761304849743304"><ele>1005.0</ele><time>2026-05-03T16:12:42.998Z</time></trkpt><trkpt lat="45.508826835402964" lon="7.76140007566152"><ele>1005.0</ele><time>2026-05-03T16:12:46.998Z</time></trkpt><trkpt lat="45.50882477266117" lon="7.761522863074234"><ele>1005.0</ele><time>2026-05-03T16:12:49.998Z</time></trkpt><trkpt lat="45.50881640140972" lon="7.761681136374369"><ele>1004.857142857143</ele><time>2026-05-03T16:12:51.998Z</time></trkpt><trkpt lat="45.508817518323866" lon="7.761783275032176"><ele>1004.7142857142858</ele><time>2026-05-03T16:12:52.998Z</time></trkpt><trkpt lat="45.50881096423468" lon="7.761879822158391"><ele>1004.5714285714286</ele><time>2026-05-03T16:12:53.998Z</time></trkpt><trkpt lat="45.508803136534716" lon="7.762024277725955"><ele>1004.4285714285714</ele><time>2026-05-03T16:12:55.999Z</time></trkpt><trkpt lat="45.50878989248542" lon="7.762117611433433"><ele>1004.2857142857142</ele><time>2026-05-03T16:12:58.999Z</time></trkpt><trkpt lat="45.50876613327068" lon="7.762201976777065"><ele>1004.142857142857</ele><time>2026-05-03T16:13:05.999Z</time></trkpt><trkpt lat="45.50875253444062" lon="7.762291790750894"><ele>1003.9999999999999</ele><time>2026-05-03T16:13:10.999Z</time></trkpt><trkpt lat="45.508692492185354" lon="7.76238738757877"><ele>1004.0000000000001</ele><time>2026-05-03T16:13:40.996Z</time></trkpt><trkpt lat="45.50863872767379" lon="7.762460119567163"><ele>1004.0</ele><time>2026-05-03T16:13:42.996Z</time></trkpt><trkpt lat="45.50858329818219" lon="7.76250860548531"><ele>1004.0</ele><time>2026-05-03T16:13:45.996Z</time></trkpt><trkpt lat="45.508526694895366" lon="7.762559301443175"><ele>1004.0</ele><time>2026-05-03T16:13:53.996Z</time></trkpt><trkpt lat="45.50846600582226" lon="7.762620709269455"><ele>1004.0000000000001</ele><time>2026-05-03T16:13:56.996Z</time></trkpt><trkpt lat="45.50841191361591" lon="7.762667374612757"><ele>1004.0</ele><time>2026-05-03T16:14:00.996Z</time></trkpt><trkpt lat="45.50829993112975" lon="7.762735540221619"><ele>1007.2</ele><time>2026-05-03T16:14:53.997Z</time></trkpt><trkpt lat="45.508239646994575" lon="7.7627793320835625"><ele>1010.4000000000001</ele><time>2026-05-03T16:14:56.998Z</time></trkpt><trkpt lat="45.50815310845094" lon="7.762864274773771"><ele>1013.6</ele><time>2026-05-03T16:14:59.998Z</time></trkpt><trkpt lat="45.50807955357399" lon="7.7629958310707545"><ele>1016.8</ele><time>2026-05-03T16:15:01.998Z</time></trkpt><trkpt lat="45.50802658823819" lon="7.763113598031735"><ele>1020.0</ele><time>2026-05-03T16:15:02.998Z</time></trkpt><trkpt lat="45.50797652716862" lon="7.763245895036806"><ele>1020.0</ele><time>2026-05-03T16:15:03.998Z</time></trkpt><trkpt lat="45.50793147631795" lon="7.763332764524187"><ele>1020.0</ele><time>2026-05-03T16:15:04.998Z</time></trkpt><trkpt lat="45.50788504629527" lon="7.76340857017702"><ele>1020.0</ele><time>2026-05-03T16:15:05.998Z</time></trkpt><trkpt lat="45.50783674671253" lon="7.763557019483123"><ele>1020.0</ele><time>2026-05-03T16:15:07.998Z</time></trkpt><trkpt lat="45.50781245220979" lon="7.7636706555071635"><ele>1020.0</ele><time>2026-05-03T16:15:09.998Z</time></trkpt><trkpt lat="45.507811826190796" lon="7.763784473257087"><ele>1020.0</ele><time>2026-05-03T16:15:11.998Z</time></trkpt><trkpt lat="45.507783341259675" lon="7.763892390954594"><ele>1017.5</ele><time>2026-05-03T16:15:13.998Z</time></trkpt><trkpt lat="45.507743759953016" lon="7.76397357082491"><ele>1015.0</ele><time>2026-05-03T16:15:14.998Z</time></trkpt><trkpt lat="45.50771667715456" lon="7.764068017481891"><ele>1012.5</ele><time>2026-05-03T16:15:15.998Z</time></trkpt><trkpt lat="45.50764468709683" lon="7.764161082759754"><ele>1010.0</ele><time>2026-05-03T16:15:17.998Z</time></trkpt><trkpt lat="45.50759417529923" lon="7.764260835477562"><ele>1007.5</ele><time>2026-05-03T16:15:19.998Z</time></trkpt><trkpt lat="45.50752315462236" lon="7.764353657229998"><ele>1005.0</ele><time>2026-05-03T16:15:21.998Z</time></trkpt><trkpt lat="45.50745914780424" lon="7.7644493303815345"><ele>1005.0</ele><time>2026-05-03T16:15:23.998Z</time></trkpt><trkpt lat="45.507414717152486" lon="7.764612356864971"><ele>1005.0</ele><time>2026-05-03T16:15:25.998Z</time></trkpt><trkpt lat="45.5073689820148" lon="7.764765462642803"><ele>1005.0</ele><time>2026-05-03T16:15:27.998Z</time></trkpt><trkpt lat="45.507331626037896" lon="7.764843735333928"><ele>1005.0</ele><time>2026-05-03T16:15:28.998Z</time></trkpt><trkpt lat="45.507292690439996" lon="7.764934243234742"><ele>1005.0</ele><time>2026-05-03T16:15:29.998Z</time></trkpt><trkpt lat="45.50726716994338" lon="7.7650821327920845"><ele>1008.6666666666666</ele><time>2026-05-03T16:15:31.994Z</time></trkpt><trkpt lat="45.507235457884704" lon="7.765200043847462"><ele>1012.3333333333333</ele><time>2026-05-03T16:15:33.995Z</time></trkpt><trkpt lat="45.507172008400815" lon="7.765284830370533"><ele>1016.0</ele><time>2026-05-03T16:15:34.994Z</time></trkpt><trkpt lat="45.50711893130147" lon="7.765373856990263"><ele>1019.6666666666666</ele><time>2026-05-03T16:15:35.994Z</time></trkpt><trkpt lat="45.507051585767364" lon="7.765499745136055"><ele>1023.3333333333333</ele><time>2026-05-03T16:15:37.994Z</time></trkpt><trkpt lat="45.50699605232459" lon="7.765558382319041"><ele>1027.0</ele><time>2026-05-03T16:15:38.994Z</time></trkpt><trkpt lat="45.50690349024889" lon="7.765659851650958"><ele>1021.1666666666666</ele><time>2026-05-03T16:15:40.994Z</time></trkpt><trkpt lat="45.506859745089685" lon="7.765756041168026"><ele>1015.3333333333333</ele><time>2026-05-03T16:15:42.994Z</time></trkpt><trkpt lat="45.506824981062785" lon="7.765863783384285"><ele>1009.5</ele><time>2026-05-03T16:15:45.994Z</time></trkpt><trkpt lat="45.50680363784068" lon="7.7659612015286"><ele>1003.6666666666667</ele><time>2026-05-03T16:15:47.994Z</time></trkpt><trkpt lat="45.506783599672765" lon="7.7660582155578215"><ele>997.8333333333334</ele><time>2026-05-03T16:15:49.994Z</time></trkpt><trkpt lat="45.506796045674086" lon="7.766188052577834"><ele>992.0</ele><time>2026-05-03T16:15:51.995Z</time></trkpt><trkpt lat="45.506777666138674" lon="7.766279742886041"><ele>992.0000000000001</ele><time>2026-05-03T16:15:52.995Z</time></trkpt><trkpt lat="45.50675057749914" lon="7.766434991422003"><ele>992.0</ele><time>2026-05-03T16:15:54.995Z</time></trkpt><trkpt lat="45.50672901821813" lon="7.766539833386729"><ele>992.0</ele><time>2026-05-03T16:15:55.995Z</time></trkpt><trkpt lat="45.50671004939315" lon="7.766637494772706"><ele>992.0</ele><time>2026-05-03T16:15:56.995Z</time></trkpt><trkpt lat="45.50667764303323" lon="7.766740960908284"><ele>992.0000000000001</ele><time>2026-05-03T16:15:57.995Z</time></trkpt><trkpt lat="45.506623457950795" lon="7.766821749622958"><ele>992.0</ele><time>2026-05-03T16:15:58.995Z</time></trkpt><trkpt lat="45.50654095849254" lon="7.7669044006991905"><ele>993.0</ele><time>2026-05-03T16:16:00.995Z</time></trkpt><trkpt lat="45.506423147277694" lon="7.766976295997683"><ele>994.0</ele><time>2026-05-03T16:16:02.995Z</time></trkpt><trkpt lat="45.50630003091774" lon="7.766996832230045"><ele>995.0</ele><time>2026-05-03T16:16:04.995Z</time></trkpt><trkpt lat="45.506216404665885" lon="7.766988081721129"><ele>996.0</ele><time>2026-05-03T16:16:05.995Z</time></trkpt><trkpt lat="45.50611445190377" lon="7.76698133492357"><ele>997.0</ele><time>2026-05-03T16:16:07.995Z</time></trkpt><trkpt lat="45.50598738325288" lon="7.767017683732211"><ele>996.9999999999999</ele><time>2026-05-03T16:16:09.995Z</time></trkpt><trkpt lat="45.505865800708094" lon="7.766981907057979"><ele>997.0</ele><time>2026-05-03T16:16:11.995Z</time></trkpt><trkpt lat="45.505774287160406" lon="7.766949839050264"><ele>997.0</ele><time>2026-05-03T16:16:13.995Z</time></trkpt><trkpt lat="45.50571052056852" lon="7.766981387448388"><ele>997.0</ele><time>2026-05-03T16:16:18.995Z</time></trkpt><trkpt lat="45.50563461094101" lon="7.767009835427907"><ele>996.9999999999999</ele><time>2026-05-03T16:16:32.995Z</time></trkpt><trkpt lat="45.50555596415689" lon="7.767025855629007"><ele>997.0</ele><time>2026-05-03T16:16:34.995Z</time></trkpt><trkpt lat="45.50548799550178" lon="7.7669952917665945"><ele>996.9999999999999</ele><time>2026-05-03T16:16:41.996Z</time></trkpt><trkpt lat="45.50544038535934" lon="7.766915635790859"><ele>997.0</ele><time>2026-05-03T16:16:43.996Z</time></trkpt><trkpt lat="45.50536282906833" lon="7.766918547891136"><ele>996.9999999999999</ele><time>2026-05-03T16:16:45.996Z</time></trkpt><trkpt lat="45.50528840950375" lon="7.766896974120352"><ele>996.9999999999999</ele><time>2026-05-03T16:16:46.996Z</time></trkpt><trkpt lat="45.50522409236898" lon="7.766863845107238"><ele>997.0</ele><time>2026-05-03T16:16:47.996Z</time></trkpt><trkpt lat="45.50515474643281" lon="7.766866472986043"><ele>996.9999999999999</ele><time>2026-05-03T16:16:48.996Z</time></trkpt><trkpt lat="45.50508592073158" lon="7.766885812611317"><ele>996.9999999999999</ele><time>2026-05-03T16:16:49.996Z</time></trkpt><trkpt lat="45.50502552380188" lon="7.76692839894104"><ele>992.4000000000001</ele><time>2026-05-03T16:16:50.996Z</time></trkpt><trkpt lat="45.50497364418062" lon="7.767010044349899"><ele>987.8000000000001</ele><time>2026-05-03T16:16:51.996Z</time></trkpt><trkpt lat="45.50492247220395" lon="7.76708904033287"><ele>983.2</ele><time>2026-05-03T16:16:52.996Z</time></trkpt><trkpt lat="45.50485999653318" lon="7.767188090547515"><ele>978.6</ele><time>2026-05-03T16:16:53.996Z</time></trkpt><trkpt lat="45.50480324881178" lon="7.7673092399825"><ele>974.0</ele><time>2026-05-03T16:16:54.996Z</time></trkpt><trkpt lat="45.50472785494713" lon="7.76742079817456"><ele>974.0000000000001</ele><time>2026-05-03T16:16:55.996Z</time></trkpt><trkpt lat="45.504661168135705" lon="7.767495364584716"><ele>974.0</ele><time>2026-05-03T16:16:56.996Z</time></trkpt><trkpt lat="45.50460250390212" lon="7.767575533260464"><ele>974.0</ele><time>2026-05-03T16:16:57.996Z</time></trkpt><trkpt lat="45.504542828594545" lon="7.767657246475126"><ele>974.0</ele><time>2026-05-03T16:16:58.996Z</time></trkpt><trkpt lat="45.504494169851434" lon="7.767723874716646"><ele>974.0000000000001</ele><time>2026-05-03T16:16:59.996Z</time></trkpt><trkpt lat="45.504452138394484" lon="7.767812296863003"><ele>974.0</ele><time>2026-05-03T16:17:00.996Z</time></trkpt><trkpt lat="45.50438497885865" lon="7.767887311906566"><ele>971.0</ele><time>2026-05-03T16:17:01.996Z</time></trkpt><trkpt lat="45.5042771865231" lon="7.7679905237930935"><ele>968.0000000000001</ele><time>2026-05-03T16:17:03.996Z</time></trkpt><trkpt lat="45.5042197228375" lon="7.768082339332487"><ele>965.0000000000001</ele><time>2026-05-03T16:17:04.996Z</time></trkpt><trkpt lat="45.504186178569476" lon="7.768220172059805"><ele>962.0</ele><time>2026-05-03T16:17:05.996Z</time></trkpt><trkpt lat="45.50421240584506" lon="7.768369225379384"><ele>959.0</ele><time>2026-05-03T16:17:06.996Z</time></trkpt><trkpt lat="45.50421705707108" lon="7.7685145792674115"><ele>961.1666666666667</ele><time>2026-05-03T16:17:07.996Z</time></trkpt><trkpt lat="45.504182965796836" lon="7.768638558638653"><ele>963.3333333333334</ele><time>2026-05-03T16:17:08.996Z</time></trkpt><trkpt lat="45.50413504515788" lon="7.768747549985309"><ele>965.5</ele><time>2026-05-03T16:17:09.996Z</time></trkpt><trkpt lat="45.504098501500266" lon="7.768857180934554"><ele>967.6666666666667</ele><time>2026-05-03T16:17:10.996Z</time></trkpt><trkpt lat="45.504082756029895" lon="7.768962454160976"><ele>969.8333333333334</ele><time>2026-05-03T16:17:11.996Z</time></trkpt><trkpt lat="45.50408222246669" lon="7.769071112059781"><ele>972.0</ele><time>2026-05-03T16:17:12.996Z</time></trkpt><trkpt lat="45.50410501098642" lon="7.769183891527473"><ele>972.0</ele><time>2026-05-03T16:17:13.996Z</time></trkpt><trkpt lat="45.50412827070712" lon="7.769279481412342"><ele>972.0</ele><time>2026-05-03T16:17:14.996Z</time></trkpt><trkpt lat="45.50416470341848" lon="7.769372638041429"><ele>972.0</ele><time>2026-05-03T16:17:15.996Z</time></trkpt><trkpt lat="45.504182890148904" lon="7.76946987183867"><ele>972.0</ele><time>2026-05-03T16:17:16.996Z</time></trkpt><trkpt lat="45.50422229365079" lon="7.769594533378619"><ele>972.0</ele><time>2026-05-03T16:17:17.996Z</time></trkpt><trkpt lat="45.50427493679881" lon="7.769702968263111"><ele>972.0</ele><time>2026-05-03T16:17:18.996Z</time></trkpt><trkpt lat="45.50431771714008" lon="7.769829023640045"><ele>972.4000000000001</ele><time>2026-05-03T16:17:19.996Z</time></trkpt><trkpt lat="45.504390368837036" lon="7.770011321181141"><ele>972.8000000000001</ele><time>2026-05-03T16:17:21.996Z</time></trkpt><trkpt lat="45.50443579854188" lon="7.770136007130297"><ele>973.2</ele><time>2026-05-03T16:17:23.996Z</time></trkpt><trkpt lat="45.50447465782158" lon="7.770243778229048"><ele>973.6</ele><time>2026-05-03T16:17:24.996Z</time></trkpt><trkpt lat="45.50450864769972" lon="7.770353265114296"><ele>974.0</ele><time>2026-05-03T16:17:25.996Z</time></trkpt><trkpt lat="45.504582409752146" lon="7.77052362675263"><ele>981.0</ele><time>2026-05-03T16:17:26.996Z</time></trkpt><trkpt lat="45.50468348498323" lon="7.770630815725415"><ele>988.0000000000001</ele><time>2026-05-03T16:17:27.997Z</time></trkpt><trkpt lat="45.50474593387306" lon="7.770685429694794"><ele>995.0000000000001</ele><time>2026-05-03T16:17:28.997Z</time></trkpt><trkpt lat="45.50480121660907" lon="7.770745566057515"><ele>1002.0</ele><time>2026-05-03T16:17:29.997Z</time></trkpt><trkpt lat="45.504909844852165" lon="7.770744199614868"><ele>1009.0</ele><time>2026-05-03T16:17:30.997Z</time></trkpt><trkpt lat="45.50483583654589" lon="7.770755238829858"><ele>1008.9999999999999</ele><time>2026-05-03T16:17:32.997Z</time></trkpt><trkpt lat="45.504762867523574" lon="7.770779162685738"><ele>1009.0</ele><time>2026-05-03T16:17:33.997Z</time></trkpt><trkpt lat="45.504738430045315" lon="7.770900562608593"><ele>1009.0</ele><time>2026-05-03T16:17:35.997Z</time></trkpt><trkpt lat="45.50472697695336" lon="7.771064248095613"><ele>1009.0</ele><time>2026-05-03T16:17:37.993Z</time></trkpt><trkpt lat="45.504691638501306" lon="7.771163684539418"><ele>1008.9999999999999</ele><time>2026-05-03T16:17:38.992Z</time></trkpt><trkpt lat="45.50465821891781" lon="7.7712427969335005"><ele>1009.0</ele><time>2026-05-03T16:17:39.992Z</time></trkpt><trkpt lat="45.504611246887706" lon="7.7713614452103075"><ele>1008.6</ele><time>2026-05-03T16:17:40.993Z</time></trkpt><trkpt lat="45.50455258989932" lon="7.771470968776461"><ele>1008.2</ele><time>2026-05-03T16:17:41.993Z</time></trkpt><trkpt lat="45.50447243590999" lon="7.771590796375248"><ele>1007.8000000000001</ele><time>2026-05-03T16:17:42.993Z</time></trkpt><trkpt lat="45.50443748981353" lon="7.771748852249663"><ele>1007.4000000000001</ele><time>2026-05-03T16:17:43.993Z</time></trkpt><trkpt lat="45.504423347681936" lon="7.771907008782384"><ele>1007.0</ele><time>2026-05-03T16:17:44.993Z</time></trkpt><trkpt lat="45.50441787843667" lon="7.772043577060624"><ele>1007.0</ele><time>2026-05-03T16:17:45.993Z</time></trkpt><trkpt lat="45.50442032135485" lon="7.772182905965854"><ele>1007.0</ele><time>2026-05-03T16:17:46.993Z</time></trkpt><trkpt lat="45.50441493926332" lon="7.772304545492685"><ele>1007.0</ele><time>2026-05-03T16:17:47.993Z</time></trkpt><trkpt lat="45.50439413906966" lon="7.7724515614942336"><ele>1007.0</ele><time>2026-05-03T16:17:48.993Z</time></trkpt><trkpt lat="45.504352323824314" lon="7.772591264594953"><ele>1007.0</ele><time>2026-05-03T16:17:49.992Z</time></trkpt><trkpt lat="45.50434566471031" lon="7.7727160187105575"><ele>1011.2</ele><time>2026-05-03T16:17:50.993Z</time></trkpt><trkpt lat="45.504339318204714" lon="7.772871349330845"><ele>1015.4000000000001</ele><time>2026-05-03T16:17:51.993Z</time></trkpt><trkpt lat="45.504288771703514" lon="7.772978023325232"><ele>1019.5999999999999</ele><time>2026-05-03T16:17:52.993Z</time></trkpt><trkpt lat="45.504276968353274" lon="7.7730960476011814"><ele>1023.8</ele><time>2026-05-03T16:17:53.993Z</time></trkpt><trkpt lat="45.50424266555401" lon="7.773201827358154"><ele>1028.0</ele><time>2026-05-03T16:17:54.993Z</time></trkpt><trkpt lat="45.50416359707288" lon="7.773288761795773"><ele>1028.0</ele><time>2026-05-03T16:17:55.993Z</time></trkpt><trkpt lat="45.50410017118639" lon="7.773396926506649"><ele>1028.0</ele><time>2026-05-03T16:17:56.993Z</time></trkpt><trkpt lat="45.504029632442645" lon="7.773497381910066"><ele>1028.0</ele><time>2026-05-03T16:17:57.993Z</time></trkpt><trkpt lat="45.503956441118824" lon="7.773617479350536"><ele>1028.0</ele><time>2026-05-03T16:17:58.993Z</time></trkpt><trkpt lat="45.50386096517523" lon="7.773719085657768"><ele>1028.0</ele><time>2026-05-03T16:17:59.993Z</time></trkpt><trkpt lat="45.5037772809453" lon="7.7738320774582474"><ele>1027.4</ele><time>2026-05-03T16:18:00.993Z</time></trkpt><trkpt lat="45.50369829459684" lon="7.773950997095746"><ele>1026.8</ele><time>2026-05-03T16:18:01.993Z</time></trkpt><trkpt lat="45.50363920413011" lon="7.774055283583354"><ele>1026.2</ele><time>2026-05-03T16:18:02.993Z</time></trkpt><trkpt lat="45.50361864938223" lon="7.774202820676054"><ele>1025.6</ele><time>2026-05-03T16:18:03.993Z</time></trkpt><trkpt lat="45.503600138184126" lon="7.77434521164804"><ele>1025.0</ele><time>2026-05-03T16:18:04.993Z</time></trkpt><trkpt lat="45.5035907839263" lon="7.774485945344863"><ele>1025.0</ele><time>2026-05-03T16:18:05.993Z</time></trkpt><trkpt lat="45.50354626826207" lon="7.774565545554195"><ele>1025.0</ele><time>2026-05-03T16:18:06.993Z</time></trkpt><trkpt lat="45.503516336359375" lon="7.774663405653146"><ele>1025.0</ele><time>2026-05-03T16:18:08.993Z</time></trkpt><trkpt lat="45.50347771981349" lon="7.774826632086147"><ele>1025.0</ele><time>2026-05-03T16:18:10.993Z</time></trkpt><trkpt lat="45.503463859891326" lon="7.77492475251718"><ele>1025.0</ele><time>2026-05-03T16:18:11.993Z</time></trkpt><trkpt lat="45.503458923557574" lon="7.775025161516213"><ele>1025.0</ele><time>2026-05-03T16:18:12.993Z</time></trkpt><trkpt lat="45.503462987380104" lon="7.775202676154097"><ele>1024.5</ele><time>2026-05-03T16:18:14.993Z</time></trkpt><trkpt lat="45.50345837471211" lon="7.775302210758805"><ele>1024.0</ele><time>2026-05-03T16:18:15.993Z</time></trkpt><trkpt lat="45.50345474610169" lon="7.775392675358592"><ele>1023.5</ele><time>2026-05-03T16:18:16.993Z</time></trkpt><trkpt lat="45.503451946371044" lon="7.77557196186928"><ele>1023.0</ele><time>2026-05-03T16:18:18.993Z</time></trkpt><trkpt lat="45.50345102087745" lon="7.775664119238992"><ele>1022.5000000000001</ele><time>2026-05-03T16:18:19.993Z</time></trkpt><trkpt lat="45.503459491749936" lon="7.7758398532370085"><ele>1022.0</ele><time>2026-05-03T16:18:21.993Z</time></trkpt><trkpt lat="45.50346289334829" lon="7.775979012813485"><ele>1018.75</ele><time>2026-05-03T16:18:22.993Z</time></trkpt><trkpt lat="45.503485420473126" lon="7.776153076059216"><ele>1015.5</ele><time>2026-05-03T16:18:23.993Z</time></trkpt><trkpt lat="45.50352126786049" lon="7.776304624394498"><ele>1012.25</ele><time>2026-05-03T16:18:24.993Z</time></trkpt><trkpt lat="45.50352340504257" lon="7.776477147446517"><ele>1009.0</ele><time>2026-05-03T16:18:25.994Z</time></trkpt><trkpt lat="45.503541662572694" lon="7.776641989293559"><ele>1009.0</ele><time>2026-05-03T16:18:26.994Z</time></trkpt><trkpt lat="45.503561821181755" lon="7.776785561981829"><ele>1009.0000000000001</ele><time>2026-05-03T16:18:27.994Z</time></trkpt><trkpt lat="45.503575967602806" lon="7.776928494044686"><ele>1009.0000000000001</ele><time>2026-05-03T16:18:28.994Z</time></trkpt><trkpt lat="45.50360666083552" lon="7.777035456583236"><ele>1009.0</ele><time>2026-05-03T16:18:29.994Z</time></trkpt><trkpt lat="45.50367392231047" lon="7.777161765611844"><ele>1009.0</ele><time>2026-05-03T16:18:31.994Z</time></trkpt><trkpt lat="45.503754433979275" lon="7.777224564378787"><ele>1010.3333333333333</ele><time>2026-05-03T16:18:32.994Z</time></trkpt><trkpt lat="45.503862927279485" lon="7.777177069000868"><ele>1011.6666666666666</ele><time>2026-05-03T16:18:33.994Z</time></trkpt><trkpt lat="45.503925932938444" lon="7.777186966694276"><ele>1013.0</ele><time>2026-05-03T16:18:34.994Z</time></trkpt><trkpt lat="45.50399864243125" lon="7.777219345026724"><ele>1014.3333333333333</ele><time>2026-05-03T16:18:35.994Z</time></trkpt><trkpt lat="45.50407912176152" lon="7.777286255827898"><ele>1015.6666666666666</ele><time>2026-05-03T16:18:36.994Z</time></trkpt><trkpt lat="45.50413859425605" lon="7.777386326036563"><ele>1017.0</ele><time>2026-05-03T16:18:37.994Z</time></trkpt><trkpt lat="45.50420887866461" lon="7.7775363799785975"><ele>1017.0</ele><time>2026-05-03T16:18:38.994Z</time></trkpt><trkpt lat="45.50425248345709" lon="7.77765895170875"><ele>1017.0</ele><time>2026-05-03T16:18:39.994Z</time></trkpt><trkpt lat="45.50430204605012" lon="7.7777326024381015"><ele>1017.0</ele><time>2026-05-03T16:18:40.994Z</time></trkpt><trkpt lat="45.50436747943995" lon="7.7778146040514775"><ele>1017.0</ele><time>2026-05-03T16:18:41.994Z</time></trkpt><trkpt lat="45.50444951669667" lon="7.777910955157258"><ele>1017.0</ele><time>2026-05-03T16:18:42.994Z</time></trkpt><trkpt lat="45.50452813100518" lon="7.778039014456173"><ele>1017.0</ele><time>2026-05-03T16:18:43.994Z</time></trkpt><trkpt lat="45.5046153596778" lon="7.778159959840666"><ele>1017.0</ele><time>2026-05-03T16:18:44.994Z</time></trkpt><trkpt lat="45.504691272983784" lon="7.7782786261416055"><ele>1017.0</ele><time>2026-05-03T16:18:45.994Z</time></trkpt><trkpt lat="45.50476663636033" lon="7.7783927091586476"><ele>1017.0</ele><time>2026-05-03T16:18:46.994Z</time></trkpt><trkpt lat="45.50483676466618" lon="7.778479832964655"><ele>1017.0</ele><time>2026-05-03T16:18:47.994Z</time></trkpt><trkpt lat="45.50490637567307" lon="7.778537357157884"><ele>1015.4000000000001</ele><time>2026-05-03T16:18:48.994Z</time></trkpt><trkpt lat="45.50497116198388" lon="7.778593220839874"><ele>1013.8000000000001</ele><time>2026-05-03T16:18:49.994Z</time></trkpt><trkpt lat="45.50502893008036" lon="7.778665740041039"><ele>1012.2</ele><time>2026-05-03T16:18:50.994Z</time></trkpt><trkpt lat="45.50509303597259" lon="7.778827813687246"><ele>1010.6</ele><time>2026-05-03T16:18:52.994Z</time></trkpt><trkpt lat="45.5050978308141" lon="7.778986260613315"><ele>1009.0</ele><time>2026-05-03T16:18:53.994Z</time></trkpt><trkpt lat="45.50506021931652" lon="7.779116156509623"><ele>1009.0</ele><time>2026-05-03T16:18:54.994Z</time></trkpt><trkpt lat="45.50502324910361" lon="7.779210278278266"><ele>1009.0000000000001</ele><time>2026-05-03T16:18:55.994Z</time></trkpt><trkpt lat="45.50496245345497" lon="7.7793105022134315"><ele>1009.0000000000001</ele><time>2026-05-03T16:18:56.994Z</time></trkpt><trkpt lat="45.50486025774107" lon="7.779391139720918"><ele>1009.0</ele><time>2026-05-03T16:18:57.994Z</time></trkpt><trkpt lat="45.504778030725554" lon="7.779443622079761"><ele>1009.0</ele><time>2026-05-03T16:18:58.994Z</time></trkpt><trkpt lat="45.5047059395584" lon="7.779509310467504"><ele>1011.6666666666666</ele><time>2026-05-03T16:18:59.994Z</time></trkpt><trkpt lat="45.504640398831974" lon="7.779586176672134"><ele>1014.3333333333333</ele><time>2026-05-03T16:19:00.994Z</time></trkpt><trkpt lat="45.504592764894376" lon="7.779667858254319"><ele>1017.0</ele><time>2026-05-03T16:19:01.994Z</time></trkpt><trkpt lat="45.50452766400608" lon="7.779790489091445"><ele>1019.6666666666667</ele><time>2026-05-03T16:19:03.994Z</time></trkpt><trkpt lat="45.50448248764893" lon="7.7798633483446995"><ele>1022.3333333333334</ele><time>2026-05-03T16:19:04.994Z</time></trkpt><trkpt lat="45.504424775314675" lon="7.779941333934624"><ele>1025.0</ele><time>2026-05-03T16:19:05.994Z</time></trkpt><trkpt lat="45.50437262153278" lon="7.779993857590363"><ele>1020.6666666666667</ele><time>2026-05-03T16:19:06.994Z</time></trkpt><trkpt lat="45.50431285055426" lon="7.780038602118315"><ele>1016.3333333333334</ele><time>2026-05-03T16:19:07.994Z</time></trkpt><trkpt lat="45.504229714905485" lon="7.780083318854392"><ele>1012.0</ele><time>2026-05-03T16:19:08.994Z</time></trkpt><trkpt lat="45.50415601123378" lon="7.780111817118036"><ele>1007.6666666666667</ele><time>2026-05-03T16:19:09.994Z</time></trkpt><trkpt lat="45.50405179244277" lon="7.780162330164928"><ele>1003.3333333333334</ele><time>2026-05-03T16:19:11.994Z</time></trkpt><trkpt lat="45.50398108924762" lon="7.780159700279349"><ele>999.0</ele><time>2026-05-03T16:19:12.995Z</time></trkpt><trkpt lat="45.503922166509454" lon="7.780200221781816"><ele>999.0</ele><time>2026-05-03T16:19:13.995Z</time></trkpt><trkpt lat="45.503828317447926" lon="7.780217483125016"><ele>999.0000000000001</ele><time>2026-05-03T16:19:14.995Z</time></trkpt><trkpt lat="45.50376049999914" lon="7.780210974881965"><ele>999.0000000000001</ele><time>2026-05-03T16:19:15.995Z</time></trkpt><trkpt lat="45.5036834913937" lon="7.780172244109866"><ele>999.0</ele><time>2026-05-03T16:19:17.995Z</time></trkpt><trkpt lat="45.50353029945491" lon="7.780173383875393"><ele>999.0</ele><time>2026-05-03T16:19:18.995Z</time></trkpt><trkpt lat="45.50352311225666" lon="7.780473601187082"><ele>992.6</ele><time>2026-05-03T16:19:19.995Z</time></trkpt><trkpt lat="45.50354762443609" lon="7.780571836012301"><ele>986.2</ele><time>2026-05-03T16:19:20.995Z</time></trkpt><trkpt lat="45.50357984421089" lon="7.780739020275298"><ele>979.8000000000001</ele><time>2026-05-03T16:19:22.995Z</time></trkpt><trkpt lat="45.503580657090545" lon="7.780881755699762"><ele>973.4000000000001</ele><time>2026-05-03T16:19:24.995Z</time></trkpt><trkpt lat="45.503545096630994" lon="7.7809887084282865"><ele>967.0</ele><time>2026-05-03T16:19:26.995Z</time></trkpt><trkpt lat="45.50351058381288" lon="7.781096733748766"><ele>966.9999999999999</ele><time>2026-05-03T16:19:27.995Z</time></trkpt><trkpt lat="45.50347405049247" lon="7.781191166530898"><ele>967.0</ele><time>2026-05-03T16:19:28.995Z</time></trkpt><trkpt lat="45.50343920174755" lon="7.781279759717475"><ele>967.0</ele><time>2026-05-03T16:19:29.995Z</time></trkpt><trkpt lat="45.50337939225196" lon="7.781420673901461"><ele>967.0</ele><time>2026-05-03T16:19:31.995Z</time></trkpt><trkpt lat="45.503336356880496" lon="7.781523192708153"><ele>966.9999999999999</ele><time>2026-05-03T16:19:32.995Z</time></trkpt><trkpt lat="45.50329477508361" lon="7.781607909391582"><ele>967.0</ele><time>2026-05-03T16:19:33.995Z</time></trkpt><trkpt lat="45.5032481605304" lon="7.781699450509643"><ele>966.9999999999999</ele><time>2026-05-03T16:19:34.995Z</time></trkpt><trkpt lat="45.50321486836884" lon="7.7818020731704465"><ele>967.0</ele><time>2026-05-03T16:19:35.995Z</time></trkpt><trkpt lat="45.50316130016604" lon="7.781882769005912"><ele>967.0</ele><time>2026-05-03T16:19:36.995Z</time></trkpt><trkpt lat="45.50309662699597" lon="7.781945171130388"><ele>967.0</ele><time>2026-05-03T16:19:37.995Z</time></trkpt><trkpt lat="45.503044006823814" lon="7.782009496230313"><ele>966.9999999999999</ele><time>2026-05-03T16:19:38.995Z</time></trkpt><trkpt lat="45.5029907483203" lon="7.782077301201993"><ele>967.0</ele><time>2026-05-03T16:19:39.995Z</time></trkpt><trkpt lat="45.502920511992635" lon="7.782109878958334"><ele>966.6666666666666</ele><time>2026-05-03T16:19:40.995Z</time></trkpt><trkpt lat="45.50283006076098" lon="7.782206075340711"><ele>966.3333333333333</ele><time>2026-05-03T16:19:42.991Z</time></trkpt><trkpt lat="45.50274937139706" lon="7.782258334989316"><ele>966.0</ele><time>2026-05-03T16:19:44.991Z</time></trkpt><trkpt lat="45.50268974398851" lon="7.782291773417461"><ele>965.6666666666667</ele><time>2026-05-03T16:19:50.991Z</time></trkpt><trkpt lat="45.502607285832404" lon="7.7823330783104865"><ele>965.3333333333334</ele><time>2026-05-03T16:19:53.991Z</time></trkpt><trkpt lat="45.50252702741123" lon="7.782359524069617"><ele>965.0</ele><time>2026-05-03T16:19:55.991Z</time></trkpt><trkpt lat="45.50221254139088" lon="7.782603760778112"><ele>965.0</ele><time>2026-05-03T16:20:08.991Z</time></trkpt><trkpt lat="45.502141262684454" lon="7.782634856325017"><ele>965.0</ele><time>2026-05-03T16:20:10.991Z</time></trkpt><trkpt lat="45.502077719013904" lon="7.782709335524839"><ele>965.0</ele><time>2026-05-03T16:20:13.991Z</time></trkpt><trkpt lat="45.50202583101534" lon="7.7827809088942805"><ele>965.0</ele><time>2026-05-03T16:20:16.991Z</time></trkpt><trkpt lat="45.501978219971946" lon="7.782846327270942"><ele>965.0</ele><time>2026-05-03T16:20:19.991Z</time></trkpt><trkpt lat="45.5019218973877" lon="7.782891063209934"><ele>965.0</ele><time>2026-05-03T16:20:22.991Z</time></trkpt><trkpt lat="45.50186603136743" lon="7.782943371969882"><ele>965.0</ele><time>2026-05-03T16:20:24.991Z</time></trkpt><trkpt lat="45.50179493203646" lon="7.783014550001474"><ele>966.3333333333334</ele><time>2026-05-03T16:20:26.991Z</time></trkpt><trkpt lat="45.50174216018526" lon="7.7830659838923"><ele>967.6666666666667</ele><time>2026-05-03T16:20:28.992Z</time></trkpt><trkpt lat="45.501682732417876" lon="7.783132403771294"><ele>969.0</ele><time>2026-05-03T16:20:30.992Z</time></trkpt><trkpt lat="45.50161236716157" lon="7.783208237716498"><ele>970.3333333333333</ele><time>2026-05-03T16:20:34.992Z</time></trkpt><trkpt lat="45.501525480301254" lon="7.78327940469927"><ele>971.6666666666666</ele><time>2026-05-03T16:20:37.992Z</time></trkpt><trkpt lat="45.501457960803805" lon="7.78333927166949"><ele>973.0</ele><time>2026-05-03T16:20:39.992Z</time></trkpt><trkpt lat="45.50139857202915" lon="7.7834299449425615"><ele>972.9999999999999</ele><time>2026-05-03T16:20:44.992Z</time></trkpt><trkpt lat="45.50134017709356" lon="7.783470037399959"><ele>973.0</ele><time>2026-05-03T16:20:48.992Z</time></trkpt><trkpt lat="45.50123675570794" lon="7.783552693540665"><ele>973.0</ele><time>2026-05-03T16:21:01.992Z</time></trkpt><trkpt lat="45.501172348097526" lon="7.783534858372678"><ele>973.0</ele><time>2026-05-03T16:23:13.991Z</time></trkpt><trkpt lat="45.5011934641907" lon="7.783622458778619"><ele>972.9999999999999</ele><time>2026-05-03T16:23:27.991Z</time></trkpt><trkpt lat="45.501133559007705" lon="7.783654815193031"><ele>973.0</ele><time>2026-05-03T16:24:28.989Z</time></trkpt><trkpt lat="45.50104358764544" lon="7.783694303251429"><ele>974.2</ele><time>2026-05-03T16:24:31.989Z</time></trkpt><trkpt lat="45.50097029441406" lon="7.783760432369507"><ele>975.4</ele><time>2026-05-03T16:24:33.989Z</time></trkpt><trkpt lat="45.50090100032809" lon="7.783827267969724"><ele>976.6000000000001</ele><time>2026-05-03T16:24:34.989Z</time></trkpt><trkpt lat="45.50081330384922" lon="7.783912655052902"><ele>977.8000000000001</ele><time>2026-05-03T16:24:36.989Z</time></trkpt><trkpt lat="45.50073520210406" lon="7.78398429921278"><ele>979.0</ele><time>2026-05-03T16:24:38.989Z</time></trkpt><trkpt lat="45.50062810026311" lon="7.7840493658079675"><ele>979.0</ele><time>2026-05-03T16:24:40.989Z</time></trkpt><trkpt lat="45.500533757444224" lon="7.7841022050340705"><ele>979.0000000000001</ele><time>2026-05-03T16:24:42.989Z</time></trkpt><trkpt lat="45.500410476708595" lon="7.784137361555544"><ele>979.0000000000001</ele><time>2026-05-03T16:24:44.989Z</time></trkpt><trkpt lat="45.500344112072966" lon="7.784166521048634"><ele>979.0</ele><time>2026-05-03T16:24:45.989Z</time></trkpt><trkpt lat="45.500247048481285" lon="7.784216507238816"><ele>979.0</ele><time>2026-05-03T16:24:47.989Z</time></trkpt><trkpt lat="45.500183760283704" lon="7.784266187378404"><ele>978.1666666666666</ele><time>2026-05-03T16:24:49.989Z</time></trkpt><trkpt lat="45.50007959566925" lon="7.784283619197397"><ele>977.3333333333333</ele><time>2026-05-03T16:24:51.989Z</time></trkpt><trkpt lat="45.4999720826929" lon="7.784321183401847"><ele>976.5</ele><time>2026-05-03T16:24:53.989Z</time></trkpt><trkpt lat="45.499915550929664" lon="7.7843695491003375"><ele>975.6666666666667</ele><time>2026-05-03T16:24:55.989Z</time></trkpt><trkpt lat="45.49984617033158" lon="7.784392642381309"><ele>974.8333333333334</ele><time>2026-05-03T16:24:57.989Z</time></trkpt><trkpt lat="45.49978386573855" lon="7.784494888823932"><ele>974.0</ele><time>2026-05-03T16:24:59.989Z</time></trkpt><trkpt lat="45.4996891823264" lon="7.78459511203511"><ele>974.0000000000001</ele><time>2026-05-03T16:25:01.989Z</time></trkpt><trkpt lat="45.49964285708842" lon="7.784675680984497"><ele>974.0</ele><time>2026-05-03T16:25:03.989Z</time></trkpt><trkpt lat="45.49959365577557" lon="7.7847434589939635"><ele>974.0</ele><time>2026-05-03T16:25:06.989Z</time></trkpt><trkpt lat="45.49952881797669" lon="7.784720247025931"><ele>974.0</ele><time>2026-05-03T16:25:40.99Z</time></trkpt><trkpt lat="45.49945953526661" lon="7.784759984586294"><ele>974.0000000000001</ele><time>2026-05-03T16:25:48.99Z</time></trkpt><trkpt lat="45.49939860583494" lon="7.784849840414867"><ele>974.0</ele><time>2026-05-03T16:25:50.99Z</time></trkpt><trkpt lat="45.49934738286964" lon="7.784935742939502"><ele>974.0000000000001</ele><time>2026-05-03T16:25:51.99Z</time></trkpt><trkpt lat="45.49934401029093" lon="7.785043197068591"><ele>974.0</ele><time>2026-05-03T16:25:57.99Z</time></trkpt><trkpt lat="45.49930666894748" lon="7.785151973764492"><ele>974.0</ele><time>2026-05-03T16:25:59.99Z</time></trkpt><trkpt lat="45.49926018084078" lon="7.785263786990292"><ele>974.0</ele><time>2026-05-03T16:26:02.987Z</time></trkpt><trkpt lat="45.49925936751754" lon="7.785366738926456"><ele>974.0000000000001</ele><time>2026-05-03T16:26:04.986Z</time></trkpt><trkpt lat="45.499267553922685" lon="7.78545912005108"><ele>974.0</ele><time>2026-05-03T16:26:06.986Z</time></trkpt><trkpt lat="45.499304957590155" lon="7.7855556888583894"><ele>973.0000000000001</ele><time>2026-05-03T16:26:08.987Z</time></trkpt><trkpt lat="45.49931333783556" lon="7.785668274992927"><ele>972.0</ele><time>2026-05-03T16:26:10.987Z</time></trkpt><trkpt lat="45.49933355991174" lon="7.785782458965174"><ele>971.0</ele><time>2026-05-03T16:26:12.986Z</time></trkpt><trkpt lat="45.499371094423594" lon="7.7859058649899415"><ele>970.0</ele><time>2026-05-03T16:26:15.987Z</time></trkpt><trkpt lat="45.499405815588" lon="7.78598788346528"><ele>969.0000000000001</ele><time>2026-05-03T16:26:17.987Z</time></trkpt><trkpt lat="45.49942597493446" lon="7.786097371596841"><ele>968.0</ele><time>2026-05-03T16:26:20.987Z</time></trkpt><trkpt lat="45.49945789518219" lon="7.786216782865764"><ele>967.0</ele><time>2026-05-03T16:26:22.987Z</time></trkpt><trkpt lat="45.49946934097091" lon="7.786478749448322"><ele>966.0</ele><time>2026-05-03T16:26:25.987Z</time></trkpt><trkpt lat="45.49952056283432" lon="7.786542301657413"><ele>965.0</ele><time>2026-05-03T16:26:26.987Z</time></trkpt><trkpt lat="45.49963849826679" lon="7.786587204633437"><ele>964.0</ele><time>2026-05-03T16:26:27.987Z</time></trkpt><trkpt lat="45.49970490475825" lon="7.786617582787354"><ele>963.0</ele><time>2026-05-03T16:26:29.987Z</time></trkpt><trkpt lat="45.4997712405465" lon="7.786678221770484"><ele>960.5</ele><time>2026-05-03T16:26:31.987Z</time></trkpt><trkpt lat="45.49945647976479" lon="7.786900474700952"><ele>958.0</ele><time>2026-05-03T16:26:39.987Z</time></trkpt><trkpt lat="45.49937424482632" lon="7.787002069724234"><ele>957.9999999999999</ele><time>2026-05-03T16:26:40.987Z</time></trkpt><trkpt lat="45.49929161641178" lon="7.787038263409695"><ele>958.0</ele><time>2026-05-03T16:26:41.987Z</time></trkpt><trkpt lat="45.49923421985471" lon="7.787077264637427"><ele>958.0</ele><time>2026-05-03T16:26:42.987Z</time></trkpt><trkpt lat="45.49916384595997" lon="7.787029851248032"><ele>958.0</ele><time>2026-05-03T16:26:43.987Z</time></trkpt><trkpt lat="45.49909361685143" lon="7.787082967828187"><ele>957.9999999999999</ele><time>2026-05-03T16:26:45.987Z</time></trkpt><trkpt lat="45.49902601921123" lon="7.787123277376678"><ele>958.0</ele><time>2026-05-03T16:26:46.987Z</time></trkpt><trkpt lat="45.49898992652977" lon="7.787207889600903"><ele>958.0</ele><time>2026-05-03T16:26:48.987Z</time></trkpt><trkpt lat="45.49902015810959" lon="7.78732580247673"><ele>958.0</ele><time>2026-05-03T16:26:50.987Z</time></trkpt><trkpt lat="45.49903360801852" lon="7.787433420314521"><ele>958.0</ele><time>2026-05-03T16:26:51.987Z</time></trkpt><trkpt lat="45.49906050431728" lon="7.787539327525942"><ele>958.0</ele><time>2026-05-03T16:26:53.987Z</time></trkpt><trkpt lat="45.49894362417928" lon="7.7874359228257894"><ele>958.0</ele><time>2026-05-03T16:26:56.987Z</time></trkpt><trkpt lat="45.498873047440355" lon="7.787290123158665"><ele>957.9999999999999</ele><time>2026-05-03T16:26:58.987Z</time></trkpt><trkpt lat="45.498791958527356" lon="7.787296216331478"><ele>958.0</ele><time>2026-05-03T16:27:00.988Z</time></trkpt><trkpt lat="45.498791581342665" lon="7.787507757784168"><ele>958.0</ele><time>2026-05-03T16:27:02.988Z</time></trkpt><trkpt lat="45.49877192221767" lon="7.787600687197977"><ele>958.0</ele><time>2026-05-03T16:27:03.988Z</time></trkpt><trkpt lat="45.498761125829645" lon="7.787707818478546"><ele>957.9999999999999</ele><time>2026-05-03T16:27:04.988Z</time></trkpt><trkpt lat="45.49873525939545" lon="7.787807893902547"><ele>958.0</ele><time>2026-05-03T16:27:05.988Z</time></trkpt><trkpt lat="45.49871686211608" lon="7.787989712565846"><ele>953.8</ele><time>2026-05-03T16:27:07.988Z</time></trkpt><trkpt lat="45.49871872703083" lon="7.788107194022491"><ele>949.5999999999999</ele><time>2026-05-03T16:27:08.988Z</time></trkpt><trkpt lat="45.498720118634324" lon="7.7882564625557"><ele>945.4000000000001</ele><time>2026-05-03T16:27:10.988Z</time></trkpt><trkpt lat="45.498705462272454" lon="7.78835923607756"><ele>941.2</ele><time>2026-05-03T16:27:12.988Z</time></trkpt><trkpt lat="45.49862658985521" lon="7.788500151786401"><ele>937.0</ele><time>2026-05-03T16:27:14.988Z</time></trkpt><trkpt lat="45.49858673599561" lon="7.788571355822313"><ele>937.0</ele><time>2026-05-03T16:27:15.988Z</time></trkpt><trkpt lat="45.4985417946572" lon="7.788651649218331"><ele>937.0</ele><time>2026-05-03T16:27:16.988Z</time></trkpt><trkpt lat="45.498423430385266" lon="7.7886478759227895"><ele>937.0</ele><time>2026-05-03T16:27:17.988Z</time></trkpt><trkpt lat="45.49836007317089" lon="7.788749093567669"><ele>937.0</ele><time>2026-05-03T16:27:18.988Z</time></trkpt><trkpt lat="45.49833706291663" lon="7.788856447287475"><ele>937.0</ele><time>2026-05-03T16:27:19.988Z</time></trkpt><trkpt lat="45.498316269535025" lon="7.789009780034006"><ele>937.0</ele><time>2026-05-03T16:27:20.988Z</time></trkpt><trkpt lat="45.49828185018452" lon="7.789196745351999"><ele>937.0</ele><time>2026-05-03T16:27:21.988Z</time></trkpt><trkpt lat="45.498258397888996" lon="7.789387565311115"><ele>937.0</ele><time>2026-05-03T16:27:22.988Z</time></trkpt><trkpt lat="45.49823156652102" lon="7.789541029602415"><ele>937.0</ele><time>2026-05-03T16:27:23.988Z</time></trkpt><trkpt lat="45.49819346040486" lon="7.7896761350281665"><ele>937.6</ele><time>2026-05-03T16:27:24.988Z</time></trkpt><trkpt lat="45.49814236446349" lon="7.789798102699803"><ele>938.2</ele><time>2026-05-03T16:27:25.988Z</time></trkpt><trkpt lat="45.49808844473752" lon="7.789927258478454"><ele>938.8</ele><time>2026-05-03T16:27:26.988Z</time></trkpt><trkpt lat="45.49804001297441" lon="7.790046732905552"><ele>939.4</ele><time>2026-05-03T16:27:27.988Z</time></trkpt><trkpt lat="45.49797222184266" lon="7.790186685374912"><ele>940.0</ele><time>2026-05-03T16:27:28.988Z</time></trkpt><trkpt lat="45.497903560554796" lon="7.790333524376755"><ele>940.0</ele><time>2026-05-03T16:27:29.988Z</time></trkpt><trkpt lat="45.49783043638386" lon="7.790462933244539"><ele>940.0</ele><time>2026-05-03T16:27:30.988Z</time></trkpt><trkpt lat="45.49775353852778" lon="7.79058704234115"><ele>940.0</ele><time>2026-05-03T16:27:31.988Z</time></trkpt><trkpt lat="45.49768337249211" lon="7.79068375622589"><ele>940.0</ele><time>2026-05-03T16:27:32.988Z</time></trkpt><trkpt lat="45.497599529472616" lon="7.790821138302469"><ele>940.0</ele><time>2026-05-03T16:27:33.988Z</time></trkpt><trkpt lat="45.4975271422293" lon="7.7909340453019436"><ele>940.0</ele><time>2026-05-03T16:27:34.988Z</time></trkpt><trkpt lat="45.497466822751846" lon="7.791038506515908"><ele>940.0</ele><time>2026-05-03T16:27:35.988Z</time></trkpt><trkpt lat="45.49741811710087" lon="7.7911356387451915"><ele>940.0</ele><time>2026-05-03T16:27:36.988Z</time></trkpt><trkpt lat="45.4973523683466" lon="7.79123271149643"><ele>940.0</ele><time>2026-05-03T16:27:37.988Z</time></trkpt><trkpt lat="45.49726346833886" lon="7.791357767861367"><ele>941.4</ele><time>2026-05-03T16:27:38.988Z</time></trkpt><trkpt lat="45.497192805873055" lon="7.7914912765419375"><ele>942.8</ele><time>2026-05-03T16:27:39.988Z</time></trkpt><trkpt lat="45.49714129147383" lon="7.791593672041299"><ele>944.2</ele><time>2026-05-03T16:27:40.988Z</time></trkpt><trkpt lat="45.49710104517876" lon="7.791705883257025"><ele>945.6</ele><time>2026-05-03T16:27:41.988Z</time></trkpt><trkpt lat="45.497060806515" lon="7.791805583139322"><ele>947.0</ele><time>2026-05-03T16:27:42.988Z</time></trkpt><trkpt lat="45.497017584826544" lon="7.7919089307832055"><ele>943.6666666666667</ele><time>2026-05-03T16:27:43.988Z</time></trkpt><trkpt lat="45.49696970412012" lon="7.79201192259904"><ele>940.3333333333334</ele><time>2026-05-03T16:27:44.988Z</time></trkpt><trkpt lat="45.496932367881044" lon="7.79211004885334"><ele>937.0</ele><time>2026-05-03T16:27:45.988Z</time></trkpt><trkpt lat="45.49690671882736" lon="7.792231861589894"><ele>933.6666666666667</ele><time>2026-05-03T16:27:46.988Z</time></trkpt><trkpt lat="45.49689242253837" lon="7.7923386796539775"><ele>930.3333333333334</ele><time>2026-05-03T16:27:47.988Z</time></trkpt><trkpt lat="45.49687070891613" lon="7.792444106700243"><ele>927.0</ele><time>2026-05-03T16:27:48.989Z</time></trkpt><trkpt lat="45.49682480502289" lon="7.7925302020568"><ele>927.0</ele><time>2026-05-03T16:27:49.989Z</time></trkpt><trkpt lat="45.496779778018386" lon="7.792594723641394"><ele>927.0</ele><time>2026-05-03T16:27:50.989Z</time></trkpt><trkpt lat="45.49671788380504" lon="7.792696726451543"><ele>927.0</ele><time>2026-05-03T16:27:51.989Z</time></trkpt><trkpt lat="45.49666297863658" lon="7.79279835620915"><ele>927.0</ele><time>2026-05-03T16:27:52.989Z</time></trkpt><trkpt lat="45.496601748320266" lon="7.79289502889293"><ele>927.0</ele><time>2026-05-03T16:27:53.989Z</time></trkpt><trkpt lat="45.496550342555196" lon="7.793008333179712"><ele>927.0</ele><time>2026-05-03T16:27:54.989Z</time></trkpt><trkpt lat="45.496509339457006" lon="7.793087013975535"><ele>923.2</ele><time>2026-05-03T16:27:55.989Z</time></trkpt><trkpt lat="45.496464069365196" lon="7.793173786459044"><ele>919.4000000000001</ele><time>2026-05-03T16:27:56.989Z</time></trkpt><trkpt lat="45.49635245780628" lon="7.793283658486767"><ele>915.5999999999999</ele><time>2026-05-03T16:27:58.989Z</time></trkpt><trkpt lat="45.496230532090614" lon="7.793383226842593"><ele>911.8</ele><time>2026-05-03T16:28:00.989Z</time></trkpt><trkpt lat="45.496168837939614" lon="7.793463377329964"><ele>908.0</ele><time>2026-05-03T16:28:01.989Z</time></trkpt><trkpt lat="45.49611622364149" lon="7.793545363066071"><ele>905.5000000000001</ele><time>2026-05-03T16:28:02.989Z</time></trkpt><trkpt lat="45.49609758600757" lon="7.793693989795327"><ele>903.0</ele><time>2026-05-03T16:28:04.989Z</time></trkpt><trkpt lat="45.4960946031766" lon="7.793866991505928"><ele>900.5</ele><time>2026-05-03T16:28:06.985Z</time></trkpt><trkpt lat="45.49607602413342" lon="7.793978589332957"><ele>898.0</ele><time>2026-05-03T16:28:07.985Z</time></trkpt><trkpt lat="45.496066367621864" lon="7.794067339225394"><ele>895.5000000000001</ele><time>2026-05-03T16:28:08.985Z</time></trkpt><trkpt lat="45.49603747305653" lon="7.79415375268875"><ele>893.0</ele><time>2026-05-03T16:28:09.985Z</time></trkpt><trkpt lat="45.49596553347999" lon="7.794269342280006"><ele>893.2</ele><time>2026-05-03T16:28:10.985Z</time></trkpt><trkpt lat="45.49592115996734" lon="7.794409712670404"><ele>893.4</ele><time>2026-05-03T16:28:11.985Z</time></trkpt><trkpt lat="45.49584602014243" lon="7.794537377708013"><ele>893.6000000000001</ele><time>2026-05-03T16:28:12.985Z</time></trkpt><trkpt lat="45.49577828227145" lon="7.794640025876125"><ele>893.8000000000001</ele><time>2026-05-03T16:28:13.985Z</time></trkpt><trkpt lat="45.49572657846811" lon="7.794754845614444"><ele>894.0</ele><time>2026-05-03T16:28:14.985Z</time></trkpt><trkpt lat="45.49569239985071" lon="7.794850046367599"><ele>893.9999999999999</ele><time>2026-05-03T16:28:15.985Z</time></trkpt><trkpt lat="45.49566126048823" lon="7.794943340828236"><ele>894.0</ele><time>2026-05-03T16:28:16.984Z</time></trkpt><trkpt lat="45.495627204945166" lon="7.795039528858919"><ele>894.0</ele><time>2026-05-03T16:28:17.984Z</time></trkpt><trkpt lat="45.49558446670933" lon="7.7951394197296455"><ele>894.0</ele><time>2026-05-03T16:28:18.985Z</time></trkpt><trkpt lat="45.49553120702588" lon="7.795217524345446"><ele>894.0</ele><time>2026-05-03T16:28:19.985Z</time></trkpt><trkpt lat="45.4955011862052" lon="7.795297313365153"><ele>893.9999999999999</ele><time>2026-05-03T16:28:20.985Z</time></trkpt><trkpt lat="45.49548255097893" lon="7.795388673626715"><ele>894.0</ele><time>2026-05-03T16:28:21.985Z</time></trkpt><trkpt lat="45.495435073676965" lon="7.7955320044650165"><ele>892.0</ele><time>2026-05-03T16:28:23.985Z</time></trkpt><trkpt lat="45.49537843720275" lon="7.795600010565884"><ele>890.0</ele><time>2026-05-03T16:28:24.985Z</time></trkpt><trkpt lat="45.495323787005226" lon="7.79566080237899"><ele>888.0</ele><time>2026-05-03T16:28:25.985Z</time></trkpt><trkpt lat="45.49527682003319" lon="7.79572335816522"><ele>886.0</ele><time>2026-05-03T16:28:26.985Z</time></trkpt><trkpt lat="45.49517020415486" lon="7.795807231002798"><ele>884.0</ele><time>2026-05-03T16:28:28.985Z</time></trkpt><trkpt lat="45.49511329692665" lon="7.795850393128381"><ele>882.0</ele><time>2026-05-03T16:28:29.985Z</time></trkpt><trkpt lat="45.49505430854508" lon="7.795882996720024"><ele>882.0</ele><time>2026-05-03T16:28:30.985Z</time></trkpt><trkpt lat="45.494988913732975" lon="7.7959229803692445"><ele>882.0</ele><time>2026-05-03T16:28:31.985Z</time></trkpt><trkpt lat="45.49489133380291" lon="7.795992288749843"><ele>882.0</ele><time>2026-05-03T16:28:33.985Z</time></trkpt><trkpt lat="45.49480220088131" lon="7.796029889306794"><ele>882.0</ele><time>2026-05-03T16:28:35.985Z</time></trkpt><trkpt lat="45.49471671286509" lon="7.796092444195241"><ele>882.0</ele><time>2026-05-03T16:28:37.985Z</time></trkpt><trkpt lat="45.49463490742745" lon="7.796039765481217"><ele>880.3333333333334</ele><time>2026-05-03T16:28:39.985Z</time></trkpt><trkpt lat="45.49455912735683" lon="7.796044230612379"><ele>878.6666666666667</ele><time>2026-05-03T16:28:41.985Z</time></trkpt><trkpt lat="45.49445662481151" lon="7.796111441388911"><ele>877.0</ele><time>2026-05-03T16:28:43.985Z</time></trkpt><trkpt lat="45.494359195572756" lon="7.796140978781205"><ele>875.3333333333334</ele><time>2026-05-03T16:28:45.986Z</time></trkpt><trkpt lat="45.494290740838956" lon="7.7961844531205"><ele>873.6666666666667</ele><time>2026-05-03T16:28:47.986Z</time></trkpt><trkpt lat="45.49426169581546" lon="7.796273630008524"><ele>872.0</ele><time>2026-05-03T16:28:50.986Z</time></trkpt><trkpt lat="45.494285671800924" lon="7.796412854948721"><ele>872.0</ele><time>2026-05-03T16:28:52.986Z</time></trkpt><trkpt lat="45.49429780799038" lon="7.796508392491263"><ele>872.0</ele><time>2026-05-03T16:28:54.986Z</time></trkpt><trkpt lat="45.49434688986385" lon="7.796613661768043"><ele>872.0</ele><time>2026-05-03T16:28:57.986Z</time></trkpt><trkpt lat="45.49443688875474" lon="7.796714157039264"><ele>872.0</ele><time>2026-05-03T16:29:00.986Z</time></trkpt><trkpt lat="45.49452851736865" lon="7.796780202324095"><ele>872.0</ele><time>2026-05-03T16:29:02.986Z</time></trkpt><trkpt lat="45.49459686906526" lon="7.796839921202987"><ele>865.4000000000001</ele><time>2026-05-03T16:29:04.986Z</time></trkpt><trkpt lat="45.494605414685" lon="7.797004897111103"><ele>858.8000000000001</ele><time>2026-05-03T16:29:06.986Z</time></trkpt><trkpt lat="45.49461801050656" lon="7.7970981813504325"><ele>852.2</ele><time>2026-05-03T16:29:07.986Z</time></trkpt><trkpt lat="45.494619511208526" lon="7.797260395136314"><ele>845.6</ele><time>2026-05-03T16:29:09.986Z</time></trkpt><trkpt lat="45.494643883176394" lon="7.7973547195442485"><ele>839.0</ele><time>2026-05-03T16:29:10.986Z</time></trkpt><trkpt lat="45.49471187233246" lon="7.79751793117668"><ele>839.0000000000001</ele><time>2026-05-03T16:29:12.986Z</time></trkpt><trkpt lat="45.494723241209726" lon="7.7976443601378325"><ele>839.0</ele><time>2026-05-03T16:29:14.986Z</time></trkpt><trkpt lat="45.49474464742732" lon="7.797742304220031"><ele>839.0</ele><time>2026-05-03T16:29:16.987Z</time></trkpt><trkpt lat="45.49479651128045" lon="7.797801324946484"><ele>839.0</ele><time>2026-05-03T16:29:19.987Z</time></trkpt><trkpt lat="45.494843711968976" lon="7.797889402566405"><ele>839.0000000000001</ele><time>2026-05-03T16:29:24.987Z</time></trkpt><trkpt lat="45.49493025012195" lon="7.797871885792603"><ele>839.0</ele><time>2026-05-03T16:29:27.987Z</time></trkpt><trkpt lat="45.49500165171143" lon="7.797860879484473"><ele>835.1666666666667</ele><time>2026-05-03T16:29:40.987Z</time></trkpt><trkpt lat="45.49506882833461" lon="7.797872284082716"><ele>831.3333333333334</ele><time>2026-05-03T16:29:43.987Z</time></trkpt><trkpt lat="45.495152689424444" lon="7.797859417631739"><ele>827.5</ele><time>2026-05-03T16:29:45.987Z</time></trkpt><trkpt lat="45.49523033273369" lon="7.797851430778007"><ele>823.6666666666667</ele><time>2026-05-03T16:29:47.987Z</time></trkpt><trkpt lat="45.49531110269886" lon="7.79788799650218"><ele>819.8333333333334</ele><time>2026-05-03T16:29:49.987Z</time></trkpt><trkpt lat="45.49528493107267" lon="7.797996484772922"><ele>816.0</ele><time>2026-05-03T16:29:52.987Z</time></trkpt><trkpt lat="45.495209155538134" lon="7.798084969608012"><ele>816.0</ele><time>2026-05-03T16:29:55.987Z</time></trkpt><trkpt lat="45.495106179554575" lon="7.79821866493888"><ele>816.0</ele><time>2026-05-03T16:29:57.987Z</time></trkpt><trkpt lat="45.49504326379931" lon="7.798278974867823"><ele>816.0</ele><time>2026-05-03T16:29:58.987Z</time></trkpt><trkpt lat="45.49496846843699" lon="7.7983440663109596"><ele>816.0</ele><time>2026-05-03T16:29:59.987Z</time></trkpt><trkpt lat="45.49487187506384" lon="7.7984242866044395"><ele>816.0</ele><time>2026-05-03T16:30:00.987Z</time></trkpt><trkpt lat="45.49477982012669" lon="7.798510625100621"><ele>816.5999999999999</ele><time>2026-05-03T16:30:01.987Z</time></trkpt><trkpt lat="45.49469100406696" lon="7.798623089083832"><ele>817.2</ele><time>2026-05-03T16:30:02.988Z</time></trkpt><trkpt lat="45.49463597829404" lon="7.79875244977867"><ele>817.8</ele><time>2026-05-03T16:30:03.988Z</time></trkpt><trkpt lat="45.49457906627947" lon="7.798890574993263"><ele>818.4000000000001</ele><time>2026-05-03T16:30:04.988Z</time></trkpt><trkpt lat="45.4945280469642" lon="7.798999679471525"><ele>819.0</ele><time>2026-05-03T16:30:05.988Z</time></trkpt><trkpt lat="45.494483683868715" lon="7.79909690066083"><ele>819.0</ele><time>2026-05-03T16:30:06.988Z</time></trkpt><trkpt lat="45.49444600436954" lon="7.799197012262424"><ele>819.0</ele><time>2026-05-03T16:30:07.988Z</time></trkpt><trkpt lat="45.494410476018324" lon="7.799280199061217"><ele>819.0</ele><time>2026-05-03T16:30:08.988Z</time></trkpt><trkpt lat="45.494364893946006" lon="7.7993773399118504"><ele>819.0</ele><time>2026-05-03T16:30:09.988Z</time></trkpt><trkpt lat="45.49431357272568" lon="7.799474512659107"><ele>819.0</ele><time>2026-05-03T16:30:10.988Z</time></trkpt><trkpt lat="45.494264033927564" lon="7.799553776908886"><ele>819.0</ele><time>2026-05-03T16:30:11.988Z</time></trkpt><trkpt lat="45.49420729138202" lon="7.799644303575222"><ele>813.75</ele><time>2026-05-03T16:30:12.984Z</time></trkpt><trkpt lat="45.49413619726421" lon="7.799765632530325"><ele>808.5</ele><time>2026-05-03T16:30:13.983Z</time></trkpt><trkpt lat="45.494077250077105" lon="7.799914136041794"><ele>803.25</ele><time>2026-05-03T16:30:14.983Z</time></trkpt><trkpt lat="45.494031337400514" lon="7.800074504409882"><ele>798.0</ele><time>2026-05-03T16:30:15.984Z</time></trkpt><trkpt lat="45.49400766095198" lon="7.8002220772184"><ele>795.8</ele><time>2026-05-03T16:30:16.984Z</time></trkpt><trkpt lat="45.49398028728412" lon="7.800358929716409"><ele>793.5999999999999</ele><time>2026-05-03T16:30:17.984Z</time></trkpt><trkpt lat="45.49395949456554" lon="7.800477613269673"><ele>791.4000000000001</ele><time>2026-05-03T16:30:18.984Z</time></trkpt><trkpt lat="45.493941906157374" lon="7.80060898641851"><ele>789.2</ele><time>2026-05-03T16:30:19.983Z</time></trkpt><trkpt lat="45.493914151587965" lon="7.800734140511161"><ele>787.0</ele><time>2026-05-03T16:30:20.983Z</time></trkpt><trkpt lat="45.49387785161243" lon="7.800856922409545"><ele>786.9999999999999</ele><time>2026-05-03T16:30:21.984Z</time></trkpt><trkpt lat="45.49385251581159" lon="7.800962160320582"><ele>787.0</ele><time>2026-05-03T16:30:22.983Z</time></trkpt><trkpt lat="45.493831423074745" lon="7.801072186089518"><ele>787.0</ele><time>2026-05-03T16:30:23.983Z</time></trkpt><trkpt lat="45.4938168578472" lon="7.801176992670056"><ele>787.0</ele><time>2026-05-03T16:30:24.984Z</time></trkpt><trkpt lat="45.493809652608455" lon="7.801280830399129"><ele>786.9999999999999</ele><time>2026-05-03T16:30:25.984Z</time></trkpt><trkpt lat="45.49381424025636" lon="7.801381179110969"><ele>787.0</ele><time>2026-05-03T16:30:26.984Z</time></trkpt><trkpt lat="45.49377907873198" lon="7.8015417172107115"><ele>786.1666666666666</ele><time>2026-05-03T16:30:28.984Z</time></trkpt><trkpt lat="45.49377978635582" lon="7.801643042262284"><ele>785.3333333333333</ele><time>2026-05-03T16:30:29.984Z</time></trkpt><trkpt lat="45.493813021980586" lon="7.80174214498098"><ele>784.5</ele><time>2026-05-03T16:30:30.984Z</time></trkpt><trkpt lat="45.49385438970867" lon="7.801839200165848"><ele>783.6666666666667</ele><time>2026-05-03T16:30:31.984Z</time></trkpt><trkpt lat="45.493901715093756" lon="7.801914640034462"><ele>782.8333333333334</ele><time>2026-05-03T16:30:32.984Z</time></trkpt><trkpt lat="45.4939272975389" lon="7.802019936158808"><ele>782.0</ele><time>2026-05-03T16:30:33.984Z</time></trkpt><trkpt lat="45.49397142048653" lon="7.802162314138199"><ele>781.5000000000001</ele><time>2026-05-03T16:30:35.984Z</time></trkpt><trkpt lat="45.493944978899" lon="7.802280341587657"><ele>781.0</ele><time>2026-05-03T16:30:37.984Z</time></trkpt><trkpt lat="45.49392429625713" lon="7.802367431887342"><ele>780.5</ele><time>2026-05-03T16:30:38.984Z</time></trkpt><trkpt lat="45.49385202093414" lon="7.802513530294903"><ele>780.0</ele><time>2026-05-03T16:30:40.984Z</time></trkpt><trkpt lat="45.493815955732956" lon="7.802607788825732"><ele>779.5000000000001</ele><time>2026-05-03T16:30:42.984Z</time></trkpt><trkpt lat="45.493884553808925" lon="7.802659125340495"><ele>779.0</ele><time>2026-05-03T16:30:43.984Z</time></trkpt><trkpt lat="45.49398900621161" lon="7.80280580020958"><ele>778.3333333333334</ele><time>2026-05-03T16:30:45.984Z</time></trkpt><trkpt lat="45.49404489718401" lon="7.802894119172403"><ele>777.6666666666667</ele><time>2026-05-03T16:30:46.984Z</time></trkpt><trkpt lat="45.4940982563023" lon="7.802984150644381"><ele>777.0</ele><time>2026-05-03T16:30:47.984Z</time></trkpt><trkpt lat="45.494146368553935" lon="7.803065483050034"><ele>776.3333333333333</ele><time>2026-05-03T16:30:48.984Z</time></trkpt><trkpt lat="45.49422998849644" lon="7.803134352415788"><ele>775.6666666666666</ele><time>2026-05-03T16:30:50.984Z</time></trkpt><trkpt lat="45.494326739777115" lon="7.803178387123238"><ele>775.0</ele><time>2026-05-03T16:30:52.984Z</time></trkpt><trkpt lat="45.494366561043385" lon="7.803347369015974"><ele>774.9999999999999</ele><time>2026-05-03T16:30:54.984Z</time></trkpt><trkpt lat="45.494380705232786" lon="7.803455695525252"><ele>775.0</ele><time>2026-05-03T16:30:55.984Z</time></trkpt><trkpt lat="45.494412134820145" lon="7.803580151693098"><ele>775.0</ele><time>2026-05-03T16:30:56.984Z</time></trkpt><trkpt lat="45.494447823661254" lon="7.803672488149726"><ele>775.0</ele><time>2026-05-03T16:30:57.984Z</time></trkpt><trkpt lat="45.494514091308616" lon="7.803799243959457"><ele>774.9999999999999</ele><time>2026-05-03T16:30:59.984Z</time></trkpt><trkpt lat="45.49454396253633" lon="7.803881758840457"><ele>775.0</ele><time>2026-05-03T16:31:00.984Z</time></trkpt><trkpt lat="45.49451527428615" lon="7.804000030092147"><ele>775.9999999999999</ele><time>2026-05-03T16:31:02.984Z</time></trkpt><trkpt lat="45.494435801175584" lon="7.804082513073096"><ele>777.0</ele><time>2026-05-03T16:31:04.984Z</time></trkpt><trkpt lat="45.49432813701312" lon="7.804116395529926"><ele>778.0</ele><time>2026-05-03T16:31:07.984Z</time></trkpt><trkpt lat="45.49426639328015" lon="7.804168074909734"><ele>779.0</ele><time>2026-05-03T16:31:08.984Z</time></trkpt><trkpt lat="45.49419878812608" lon="7.804227459440141"><ele>779.9999999999999</ele><time>2026-05-03T16:31:09.984Z</time></trkpt><trkpt lat="45.49414688850062" lon="7.804303782810742"><ele>781.0</ele><time>2026-05-03T16:31:11.985Z</time></trkpt><trkpt lat="45.494112565285725" lon="7.804400732442946"><ele>784.4999999999999</ele><time>2026-05-03T16:31:13.985Z</time></trkpt><trkpt lat="45.494113361398206" lon="7.804526919936527"><ele>788.0</ele><time>2026-05-03T16:31:15.985Z</time></trkpt><trkpt lat="45.494020159754314" lon="7.804575356494302"><ele>791.5</ele><time>2026-05-03T16:31:18.985Z</time></trkpt><trkpt lat="45.49395228283841" lon="7.8045941151462745"><ele>795.0</ele><time>2026-05-03T16:31:19.985Z</time></trkpt><trkpt lat="45.49387755019231" lon="7.804624673582142"><ele>798.4999999999999</ele><time>2026-05-03T16:31:20.985Z</time></trkpt><trkpt lat="45.49378750218966" lon="7.8046549585463225"><ele>802.0</ele><time>2026-05-03T16:31:22.985Z</time></trkpt><trkpt lat="45.49386401592318" lon="7.804651325887244"><ele>802.0</ele><time>2026-05-03T16:31:27.985Z</time></trkpt><trkpt lat="45.49393999000324" lon="7.804835460678751"><ele>802.0</ele><time>2026-05-03T16:31:28.985Z</time></trkpt><trkpt lat="45.49403900178798" lon="7.804855612670039"><ele>802.0</ele><time>2026-05-03T16:31:30.985Z</time></trkpt><trkpt lat="45.494115322158265" lon="7.804877069668382"><ele>802.0</ele><time>2026-05-03T16:31:31.985Z</time></trkpt><trkpt lat="45.4941814727793" lon="7.8048967098549085"><ele>802.0</ele><time>2026-05-03T16:31:32.985Z</time></trkpt><trkpt lat="45.49424748315825" lon="7.804917681538019"><ele>801.9999999999999</ele><time>2026-05-03T16:31:33.985Z</time></trkpt><trkpt lat="45.49432522771925" lon="7.804919539896463"><ele>802.0</ele><time>2026-05-03T16:31:34.985Z</time></trkpt><trkpt lat="45.49441237804736" lon="7.8049230600318715"><ele>802.0</ele><time>2026-05-03T16:31:35.985Z</time></trkpt><trkpt lat="45.494486857357096" lon="7.80492629870586"><ele>802.0</ele><time>2026-05-03T16:31:36.985Z</time></trkpt><trkpt lat="45.49462091574229" lon="7.804917155923858"><ele>801.9999999999999</ele><time>2026-05-03T16:31:38.985Z</time></trkpt><trkpt lat="45.494684051482245" lon="7.804925039293194"><ele>802.0</ele><time>2026-05-03T16:31:39.985Z</time></trkpt><trkpt lat="45.494743271164076" lon="7.804892851733693"><ele>802.9999999999999</ele><time>2026-05-03T16:31:41.985Z</time></trkpt><trkpt lat="45.49486990092369" lon="7.804799884108368"><ele>804.0</ele><time>2026-05-03T16:31:43.985Z</time></trkpt><trkpt lat="45.494929935984416" lon="7.804739903932519"><ele>805.0</ele><time>2026-05-03T16:31:44.985Z</time></trkpt><trkpt lat="45.494959693025784" lon="7.804660482335275"><ele>806.0</ele><time>2026-05-03T16:31:45.985Z</time></trkpt><trkpt lat="45.49501992844284" lon="7.804597418744088"><ele>806.9999999999999</ele><time>2026-05-03T16:31:46.985Z</time></trkpt><trkpt lat="45.495080352906086" lon="7.804552341186106"><ele>808.0</ele><time>2026-05-03T16:31:47.985Z</time></trkpt><trkpt lat="45.49515593926989" lon="7.804543619422572"><ele>807.9999999999999</ele><time>2026-05-03T16:31:49.985Z</time></trkpt><trkpt lat="45.49522451920241" lon="7.804450625473982"><ele>808.0</ele><time>2026-05-03T16:31:51.985Z</time></trkpt><trkpt lat="45.4952901793036" lon="7.8045026435343505"><ele>808.0</ele><time>2026-05-03T16:31:53.985Z</time></trkpt><trkpt lat="45.495336403273534" lon="7.804580991966587"><ele>808.0</ele><time>2026-05-03T16:31:55.985Z</time></trkpt><trkpt lat="45.49536534270706" lon="7.804684495340782"><ele>807.9999999999999</ele><time>2026-05-03T16:31:58.985Z</time></trkpt><trkpt lat="45.495416278351776" lon="7.804822493589857"><ele>808.0</ele><time>2026-05-03T16:32:00.986Z</time></trkpt><trkpt lat="45.49545682937289" lon="7.804903911532639"><ele>805.8</ele><time>2026-05-03T16:32:01.986Z</time></trkpt><trkpt lat="45.49550548788258" lon="7.8050643144877725"><ele>803.5999999999999</ele><time>2026-05-03T16:32:03.986Z</time></trkpt><trkpt lat="45.495568460204765" lon="7.805118512809178"><ele>801.4000000000001</ele><time>2026-05-03T16:32:04.986Z</time></trkpt><trkpt lat="45.495635317858344" lon="7.805245587154318"><ele>799.2</ele><time>2026-05-03T16:32:06.986Z</time></trkpt><trkpt lat="45.49570954759582" lon="7.805348986046141"><ele>797.0</ele><time>2026-05-03T16:32:08.986Z</time></trkpt><trkpt lat="45.49576269232265" lon="7.805434820727304"><ele>796.1666666666667</ele><time>2026-05-03T16:32:09.986Z</time></trkpt><trkpt lat="45.495817152939296" lon="7.8054895973023495"><ele>795.3333333333334</ele><time>2026-05-03T16:32:11.986Z</time></trkpt><trkpt lat="45.495869772539976" lon="7.805539463848876"><ele>794.5</ele><time>2026-05-03T16:32:15.986Z</time></trkpt><trkpt lat="45.49601501144079" lon="7.805534100549281"><ele>793.6666666666667</ele><time>2026-05-03T16:32:19.983Z</time></trkpt><trkpt lat="45.49605006731249" lon="7.805443009222784"><ele>792.8333333333334</ele><time>2026-05-03T16:32:21.982Z</time></trkpt><trkpt lat="45.49606828295286" lon="7.805355629837285"><ele>792.0</ele><time>2026-05-03T16:32:22.982Z</time></trkpt><trkpt lat="45.49610263399784" lon="7.805266237252529"><ele>792.0</ele><time>2026-05-03T16:32:23.982Z</time></trkpt><trkpt lat="45.49614048602901" lon="7.805193697071013"><ele>792.0</ele><time>2026-05-03T16:32:24.982Z</time></trkpt><trkpt lat="45.49620332849774" lon="7.805138030010961"><ele>792.0</ele><time>2026-05-03T16:32:26.982Z</time></trkpt><trkpt lat="45.49627979844918" lon="7.8051875450160315"><ele>792.0</ele><time>2026-05-03T16:32:30.982Z</time></trkpt><trkpt lat="45.49634800147463" lon="7.805203565709719"><ele>792.0</ele><time>2026-05-03T16:32:37.982Z</time></trkpt><trkpt lat="45.496416074658" lon="7.805215278612954"><ele>792.0</ele><time>2026-05-03T16:32:40.982Z</time></trkpt><trkpt lat="45.496442581433925" lon="7.805312971495624"><ele>792.0</ele><time>2026-05-03T16:32:42.982Z</time></trkpt><trkpt lat="45.49636483638802" lon="7.805438121204234"><ele>792.0</ele><time>2026-05-03T16:32:45.982Z</time></trkpt><trkpt lat="45.496264619965714" lon="7.805495916133658"><ele>792.0</ele><time>2026-05-03T16:32:47.982Z</time></trkpt><trkpt lat="45.4961558031264" lon="7.8055817924721875"><ele>792.0</ele><time>2026-05-03T16:32:49.982Z</time></trkpt><trkpt lat="45.49608031635186" lon="7.805693918768098"><ele>792.0</ele><time>2026-05-03T16:32:50.982Z</time></trkpt><trkpt lat="45.49601329342914" lon="7.805798109153195"><ele>792.0</ele><time>2026-05-03T16:32:51.982Z</time></trkpt><trkpt lat="45.49596808690262" lon="7.805873874624005"><ele>792.0</ele><time>2026-05-03T16:32:52.982Z</time></trkpt><trkpt lat="45.495891961334074" lon="7.805945503755973"><ele>792.0</ele><time>2026-05-03T16:32:53.982Z</time></trkpt><trkpt lat="45.495848040942604" lon="7.806026730345668"><ele>792.0</ele><time>2026-05-03T16:32:54.982Z</time></trkpt><trkpt lat="45.495795742172746" lon="7.80609638200745"><ele>792.0</ele><time>2026-05-03T16:32:55.982Z</time></trkpt><trkpt lat="45.49574658255199" lon="7.806218282603215"><ele>792.0</ele><time>2026-05-03T16:32:56.982Z</time></trkpt><trkpt lat="45.495700519805304" lon="7.806353902835278"><ele>792.0</ele><time>2026-05-03T16:32:57.982Z</time></trkpt><trkpt lat="45.49564900223427" lon="7.80649246556122"><ele>788.6666666666666</ele><time>2026-05-03T16:32:58.982Z</time></trkpt><trkpt lat="45.49560880002596" lon="7.806604033863786"><ele>785.3333333333333</ele><time>2026-05-03T16:32:59.983Z</time></trkpt><trkpt lat="45.49557949533684" lon="7.8066950145881915"><ele>782.0</ele><time>2026-05-03T16:33:00.983Z</time></trkpt><trkpt lat="45.49554424699339" lon="7.806812470933288"><ele>778.6666666666666</ele><time>2026-05-03T16:33:01.983Z</time></trkpt><trkpt lat="45.495509934077596" lon="7.806933988809566"><ele>775.3333333333333</ele><time>2026-05-03T16:33:02.983Z</time></trkpt><trkpt lat="45.49545651866581" lon="7.807027094652205"><ele>772.0</ele><time>2026-05-03T16:33:03.983Z</time></trkpt><trkpt lat="45.495343920985874" lon="7.807178521675532"><ele>772.0</ele><time>2026-05-03T16:33:05.983Z</time></trkpt><trkpt lat="45.495224195140864" lon="7.807298046805037"><ele>772.0</ele><time>2026-05-03T16:33:06.983Z</time></trkpt><trkpt lat="45.495140976259435" lon="7.807382927902294"><ele>772.0</ele><time>2026-05-03T16:33:07.983Z</time></trkpt><trkpt lat="45.4950644978659" lon="7.807465623389955"><ele>772.0</ele><time>2026-05-03T16:33:08.983Z</time></trkpt><trkpt lat="45.494969521498156" lon="7.807565109477819"><ele>771.9999999999999</ele><time>2026-05-03T16:33:09.983Z</time></trkpt><trkpt lat="45.49487850460185" lon="7.807622318525944"><ele>772.0</ele><time>2026-05-03T16:33:10.983Z</time></trkpt><trkpt lat="45.49479330448638" lon="7.807607784475921"><ele>772.0</ele><time>2026-05-03T16:33:11.983Z</time></trkpt><trkpt lat="45.4947204549306" lon="7.807635173449524"><ele>772.0</ele><time>2026-05-03T16:33:12.983Z</time></trkpt><trkpt lat="45.49465591820819" lon="7.807699461772714"><ele>771.9999999999999</ele><time>2026-05-03T16:33:13.983Z</time></trkpt><trkpt lat="45.49457737934791" lon="7.807772214557762"><ele>772.0</ele><time>2026-05-03T16:33:15.983Z</time></trkpt><trkpt lat="45.494510723009974" lon="7.8077664727763"><ele>769.0</ele><time>2026-05-03T16:33:16.983Z</time></trkpt><trkpt lat="45.494442226562356" lon="7.807740244699448"><ele>766.0</ele><time>2026-05-03T16:33:17.983Z</time></trkpt><trkpt lat="45.49433910815375" lon="7.807731234452925"><ele>763.0</ele><time>2026-05-03T16:33:18.983Z</time></trkpt><trkpt lat="45.49424760522899" lon="7.807734077427379"><ele>760.0</ele><time>2026-05-03T16:33:19.983Z</time></trkpt><trkpt lat="45.49414640475988" lon="7.8077353898581965"><ele>757.0</ele><time>2026-05-03T16:33:20.983Z</time></trkpt><trkpt lat="45.49402490231049" lon="7.807759994981019"><ele>757.0</ele><time>2026-05-03T16:33:21.983Z</time></trkpt><trkpt lat="45.49389844072958" lon="7.807732786942525"><ele>757.0</ele><time>2026-05-03T16:33:22.983Z</time></trkpt><trkpt lat="45.49376115461696" lon="7.807695227303296"><ele>757.0</ele><time>2026-05-03T16:33:23.983Z</time></trkpt><trkpt lat="45.493639328295274" lon="7.807662990082497"><ele>757.0</ele><time>2026-05-03T16:33:24.983Z</time></trkpt><trkpt lat="45.49353906987938" lon="7.807659478974939"><ele>755.25</ele><time>2026-05-03T16:33:25.983Z</time></trkpt><trkpt lat="45.49341929438308" lon="7.807687627302447"><ele>753.5</ele><time>2026-05-03T16:33:26.983Z</time></trkpt><trkpt lat="45.49329638586729" lon="7.80767489107082"><ele>751.75</ele><time>2026-05-03T16:33:27.983Z</time></trkpt><trkpt lat="45.49316781408859" lon="7.807660881043292"><ele>750.0</ele><time>2026-05-03T16:33:28.983Z</time></trkpt><trkpt lat="45.49304522602183" lon="7.807643025062634"><ele>755.8</ele><time>2026-05-03T16:33:29.983Z</time></trkpt><trkpt lat="45.492929566849554" lon="7.807629204557496"><ele>761.6</ele><time>2026-05-03T16:33:30.983Z</time></trkpt><trkpt lat="45.49284433902829" lon="7.807573492798294"><ele>767.4000000000001</ele><time>2026-05-03T16:33:31.983Z</time></trkpt><trkpt lat="45.49275995781721" lon="7.807537819580175"><ele>773.2</ele><time>2026-05-03T16:33:32.983Z</time></trkpt><trkpt lat="45.49266489995715" lon="7.807499746140545"><ele>779.0</ele><time>2026-05-03T16:33:33.983Z</time></trkpt><trkpt lat="45.49257114898957" lon="7.807476075917453"><ele>779.0</ele><time>2026-05-03T16:33:34.983Z</time></trkpt><trkpt lat="45.49246720930552" lon="7.807437760735552"><ele>779.0</ele><time>2026-05-03T16:33:35.983Z</time></trkpt><trkpt lat="45.49235546644717" lon="7.807392970667057"><ele>779.0</ele><time>2026-05-03T16:33:36.983Z</time></trkpt><trkpt lat="45.49224983884123" lon="7.807337259674209"><ele>779.0</ele><time>2026-05-03T16:33:37.983Z</time></trkpt><trkpt lat="45.49215533839823" lon="7.80730428003008"><ele>779.0</ele><time>2026-05-03T16:33:38.983Z</time></trkpt><trkpt lat="45.492069890949814" lon="7.8072824305126645"><ele>775.25</ele><time>2026-05-03T16:33:39.983Z</time></trkpt><trkpt lat="45.49195520428723" lon="7.807235047535487"><ele>771.5</ele><time>2026-05-03T16:33:40.983Z</time></trkpt><trkpt lat="45.49184454684015" lon="7.807172522756416"><ele>767.75</ele><time>2026-05-03T16:33:41.983Z</time></trkpt><trkpt lat="45.491748910795444" lon="7.807094451218678"><ele>764.0</ele><time>2026-05-03T16:33:42.983Z</time></trkpt><trkpt lat="45.491643400171164" lon="7.8069842352803285"><ele>764.0</ele><time>2026-05-03T16:33:43.983Z</time></trkpt><trkpt lat="45.491551111678135" lon="7.806861117000966"><ele>764.0</ele><time>2026-05-03T16:33:44.983Z</time></trkpt><trkpt lat="45.49143394776339" lon="7.8068027591617115"><ele>764.0</ele><time>2026-05-03T16:33:45.983Z</time></trkpt><trkpt lat="45.49133469837672" lon="7.80677299353703"><ele>764.0</ele><time>2026-05-03T16:33:46.983Z</time></trkpt><trkpt lat="45.49121592492779" lon="7.806762909454963"><ele>765.75</ele><time>2026-05-03T16:33:47.984Z</time></trkpt><trkpt lat="45.4910951311665" lon="7.8067119484828735"><ele>767.5</ele><time>2026-05-03T16:33:48.984Z</time></trkpt><trkpt lat="45.490990169016385" lon="7.806634271572533"><ele>769.25</ele><time>2026-05-03T16:33:49.984Z</time></trkpt><trkpt lat="45.49091494492105" lon="7.806516024154982"><ele>771.0</ele><time>2026-05-03T16:33:50.984Z</time></trkpt><trkpt lat="45.49085736549943" lon="7.806395840694066"><ele>771.0</ele><time>2026-05-03T16:33:51.984Z</time></trkpt><trkpt lat="45.490828924660946" lon="7.8062621703649775"><ele>771.0</ele><time>2026-05-03T16:33:52.984Z</time></trkpt><trkpt lat="45.49082984085271" lon="7.806128059101681"><ele>771.0</ele><time>2026-05-03T16:33:53.984Z</time></trkpt><trkpt lat="45.490817644148684" lon="7.805998993168876"><ele>771.0</ele><time>2026-05-03T16:33:54.984Z</time></trkpt><trkpt lat="45.49079624993507" lon="7.805877856595713"><ele>771.0</ele><time>2026-05-03T16:33:55.984Z</time></trkpt><trkpt lat="45.49074586133791" lon="7.805724298272362"><ele>776.75</ele><time>2026-05-03T16:33:56.984Z</time></trkpt><trkpt lat="45.49069573719865" lon="7.805580340776729"><ele>782.5</ele><time>2026-05-03T16:33:57.984Z</time></trkpt><trkpt lat="45.49063706799058" lon="7.805407455627181"><ele>788.25</ele><time>2026-05-03T16:33:58.984Z</time></trkpt><trkpt lat="45.49055432539435" lon="7.8052207955742645"><ele>794.0</ele><time>2026-05-03T16:33:59.984Z</time></trkpt><trkpt lat="45.49046946885052" lon="7.805069980963736"><ele>790.8000000000001</ele><time>2026-05-03T16:34:00.984Z</time></trkpt><trkpt lat="45.49039502346081" lon="7.804923585521915"><ele>787.6</ele><time>2026-05-03T16:34:01.984Z</time></trkpt><trkpt lat="45.49030309537153" lon="7.804838508398371"><ele>784.4</ele><time>2026-05-03T16:34:02.984Z</time></trkpt><trkpt lat="45.490242129068534" lon="7.804760684190978"><ele>781.2</ele><time>2026-05-03T16:34:03.984Z</time></trkpt><trkpt lat="45.49018530746835" lon="7.804682196822324"><ele>778.0</ele><time>2026-05-03T16:34:04.984Z</time></trkpt><trkpt lat="45.49014012681873" lon="7.804602344819841"><ele>778.0</ele><time>2026-05-03T16:34:05.984Z</time></trkpt><trkpt lat="45.4900877104309" lon="7.804533510328455"><ele>778.0</ele><time>2026-05-03T16:34:06.984Z</time></trkpt><trkpt lat="45.49006222660289" lon="7.8043215816182725"><ele>778.0</ele><time>2026-05-03T16:39:21.98Z</time></trkpt><trkpt lat="45.490045754768836" lon="7.804230142070147"><ele>778.0</ele><time>2026-05-03T16:39:23.98Z</time></trkpt><trkpt lat="45.49002470049821" lon="7.804099614644669"><ele>778.0</ele><time>2026-05-03T16:39:26.98Z</time></trkpt><trkpt lat="45.490057682151864" lon="7.803980954160504"><ele>781.4</ele><time>2026-05-03T16:39:28.98Z</time></trkpt><trkpt lat="45.49013579064706" lon="7.8039327934650125"><ele>784.8</ele><time>2026-05-03T16:39:30.98Z</time></trkpt><trkpt lat="45.490222484447166" lon="7.803927055429239"><ele>788.2</ele><time>2026-05-03T16:39:32.98Z</time></trkpt><trkpt lat="45.49033445177127" lon="7.803885090971993"><ele>791.6</ele><time>2026-05-03T16:39:34.98Z</time></trkpt><trkpt lat="45.49043265922241" lon="7.803861183163375"><ele>795.0</ele><time>2026-05-03T16:39:36.98Z</time></trkpt><trkpt lat="45.49053653728966" lon="7.803851538934435"><ele>795.0</ele><time>2026-05-03T16:39:38.98Z</time></trkpt><trkpt lat="45.49064394252329" lon="7.803842153099187"><ele>795.0</ele><time>2026-05-03T16:39:40.98Z</time></trkpt><trkpt lat="45.490581188019966" lon="7.803810562387211"><ele>795.0</ele><time>2026-05-03T16:39:49.98Z</time></trkpt><trkpt lat="45.4904941889117" lon="7.803822849630188"><ele>795.0</ele><time>2026-05-03T16:40:19.981Z</time></trkpt><trkpt lat="45.49042191309175" lon="7.8038388853097285"><ele>795.0</ele><time>2026-05-03T16:40:21.981Z</time></trkpt><trkpt lat="45.49035586613442" lon="7.8038556265415195"><ele>795.0</ele><time>2026-05-03T16:40:23.981Z</time></trkpt><trkpt lat="45.490286024981685" lon="7.8038728278039935"><ele>795.0</ele><time>2026-05-03T16:40:25.981Z</time></trkpt><trkpt lat="45.49019838919338" lon="7.803896077633669"><ele>795.0</ele><time>2026-05-03T16:40:27.981Z</time></trkpt><trkpt lat="45.49011341051137" lon="7.803940639373535"><ele>795.0</ele><time>2026-05-03T16:40:30.981Z</time></trkpt><trkpt lat="45.49005853910605" lon="7.803985774704477"><ele>795.0</ele><time>2026-05-03T16:40:34.981Z</time></trkpt><trkpt lat="45.48956640185695" lon="7.803364037367965"><ele>793.0</ele><time>2026-05-03T16:40:37.981Z</time></trkpt><trkpt lat="45.4894878056548" lon="7.803314186662221"><ele>791.0</ele><time>2026-05-03T16:40:38.981Z</time></trkpt><trkpt lat="45.489418569956776" lon="7.803265225489934"><ele>789.0</ele><time>2026-05-03T16:40:39.981Z</time></trkpt><trkpt lat="45.48934352163734" lon="7.80325910502147"><ele>787.0</ele><time>2026-05-03T16:40:40.981Z</time></trkpt><trkpt lat="45.48927637088241" lon="7.803219634250388"><ele>785.0</ele><time>2026-05-03T16:40:41.981Z</time></trkpt><trkpt lat="45.48916519214548" lon="7.803157184980178"><ele>783.0</ele><time>2026-05-03T16:40:42.978Z</time></trkpt><trkpt lat="45.4890944973999" lon="7.803107023395941"><ele>783.0</ele><time>2026-05-03T16:40:43.979Z</time></trkpt><trkpt lat="45.48903030109796" lon="7.80306016122225"><ele>783.0</ele><time>2026-05-03T16:40:44.979Z</time></trkpt><trkpt lat="45.48897369943948" lon="7.803012719110306"><ele>783.0</ele><time>2026-05-03T16:40:45.978Z</time></trkpt><trkpt lat="45.48885027192397" lon="7.802950525928143"><ele>783.0</ele><time>2026-05-03T16:40:47.978Z</time></trkpt><trkpt lat="45.488776285704056" lon="7.80292679061331"><ele>783.0</ele><time>2026-05-03T16:40:48.978Z</time></trkpt><trkpt lat="45.48871040095201" lon="7.8029080873932175"><ele>783.0</ele><time>2026-05-03T16:40:49.978Z</time></trkpt><trkpt lat="45.48860456225959" lon="7.80288671726536"><ele>778.6666666666666</ele><time>2026-05-03T16:40:51.977Z</time></trkpt><trkpt lat="45.488518887567444" lon="7.802841765441638"><ele>774.3333333333334</ele><time>2026-05-03T16:40:53.978Z</time></trkpt><trkpt lat="45.48842702280794" lon="7.802830855565111"><ele>770.0</ele><time>2026-05-03T16:40:55.978Z</time></trkpt><trkpt lat="45.488385524073024" lon="7.802751536806502"><ele>765.6666666666667</ele><time>2026-05-03T16:40:58.978Z</time></trkpt><trkpt lat="45.48836135383429" lon="7.802661953040614"><ele>761.3333333333334</ele><time>2026-05-03T16:41:04.979Z</time></trkpt><trkpt lat="45.488315517366054" lon="7.802568978052828"><ele>757.0</ele><time>2026-05-03T16:41:06.979Z</time></trkpt><trkpt lat="45.488265083415435" lon="7.802465654666357"><ele>756.8333333333334</ele><time>2026-05-03T16:41:08.979Z</time></trkpt><trkpt lat="45.4882035799867" lon="7.802376215625589"><ele>756.6666666666667</ele><time>2026-05-03T16:41:10.979Z</time></trkpt><trkpt lat="45.48816833140009" lon="7.802295457783977"><ele>756.5</ele><time>2026-05-03T16:41:18.979Z</time></trkpt><trkpt lat="45.48810287468558" lon="7.80225059181448"><ele>756.3333333333334</ele><time>2026-05-03T16:41:26.979Z</time></trkpt><trkpt lat="45.488061090248095" lon="7.802175393126007"><ele>756.1666666666666</ele><time>2026-05-03T16:42:29.98Z</time></trkpt><trkpt lat="45.48798585591222" lon="7.802116689947725"><ele>756.0</ele><time>2026-05-03T16:42:32.98Z</time></trkpt><trkpt lat="45.487943495644046" lon="7.80201206103946"><ele>751.1666666666666</ele><time>2026-05-03T16:42:34.98Z</time></trkpt><trkpt lat="45.4878947347345" lon="7.801937870560994"><ele>746.3333333333334</ele><time>2026-05-03T16:42:36.981Z</time></trkpt><trkpt lat="45.487848505045335" lon="7.801832644505627"><ele>741.5</ele><time>2026-05-03T16:42:38.981Z</time></trkpt><trkpt lat="45.487814399562104" lon="7.801730245623539"><ele>736.6666666666667</ele><time>2026-05-03T16:42:41.981Z</time></trkpt><trkpt lat="45.48773647984123" lon="7.801725244288432"><ele>731.8333333333334</ele><time>2026-05-03T16:42:46.981Z</time></trkpt><trkpt lat="45.48768627736018" lon="7.801657228490394"><ele>727.0</ele><time>2026-05-03T16:42:49.977Z</time></trkpt><trkpt lat="45.48766471534611" lon="7.801567872339671"><ele>727.0</ele><time>2026-05-03T16:42:52.977Z</time></trkpt><trkpt lat="45.48759280846131" lon="7.801577278559497"><ele>727.0</ele><time>2026-05-03T16:42:56.977Z</time></trkpt><trkpt lat="45.48751513694029" lon="7.801564800790813"><ele>727.0</ele><time>2026-05-03T16:43:00.976Z</time></trkpt><trkpt lat="45.48743667382074" lon="7.801525088878571"><ele>727.0</ele><time>2026-05-03T16:43:03.976Z</time></trkpt><trkpt lat="45.48736259192484" lon="7.801531605824375"><ele>727.0</ele><time>2026-05-03T16:43:06.976Z</time></trkpt><trkpt lat="45.48725069083797" lon="7.80151563359563"><ele>727.0</ele><time>2026-05-03T16:43:09.976Z</time></trkpt><trkpt lat="45.487175605824085" lon="7.801415449024721"><ele>727.0</ele><time>2026-05-03T16:43:11.976Z</time></trkpt><trkpt lat="45.487148185141834" lon="7.801325042289416"><ele>727.0</ele><time>2026-05-03T16:43:14.976Z</time></trkpt><trkpt lat="45.48708626923116" lon="7.801278048677475"><ele>727.0</ele><time>2026-05-03T16:43:18.976Z</time></trkpt><trkpt lat="45.487019946740766" lon="7.8012523070601665"><ele>727.0</ele><time>2026-05-03T16:43:36.977Z</time></trkpt><trkpt lat="45.48704956640962" lon="7.801333399340098"><ele>727.0</ele><time>2026-05-03T16:43:41.977Z</time></trkpt><trkpt lat="45.487112597003254" lon="7.801411931871518"><ele>727.0</ele><time>2026-05-03T16:44:19.977Z</time></trkpt><trkpt lat="45.487041947344906" lon="7.80134247460288"><ele>727.0</ele><time>2026-05-03T16:44:38.978Z</time></trkpt><trkpt lat="45.48697552264728" lon="7.801306923441865"><ele>726.75</ele><time>2026-05-03T16:44:43.978Z</time></trkpt><trkpt lat="45.486950614917404" lon="7.801195963514792"><ele>726.5</ele><time>2026-05-03T16:45:00.975Z</time></trkpt><trkpt lat="45.48681963709347" lon="7.801029151106087"><ele>726.25</ele><time>2026-05-03T16:45:37.975Z</time></trkpt><trkpt lat="45.48674995565516" lon="7.800885141519539"><ele>726.0</ele><time>2026-05-03T16:45:39.976Z</time></trkpt><trkpt lat="45.486703441854345" lon="7.800797079392735"><ele>726.0</ele><time>2026-05-03T16:45:40.976Z</time></trkpt><trkpt lat="45.48662630127885" lon="7.800755315661492"><ele>726.0</ele><time>2026-05-03T16:45:42.976Z</time></trkpt><trkpt lat="45.48657749316308" lon="7.800676341231981"><ele>726.0</ele><time>2026-05-03T16:45:43.976Z</time></trkpt><trkpt lat="45.48650046109978" lon="7.80052766500087"><ele>726.0</ele><time>2026-05-03T16:45:44.976Z</time></trkpt><trkpt lat="45.4864421889932" lon="7.800403454502601"><ele>726.0</ele><time>2026-05-03T16:45:45.976Z</time></trkpt><trkpt lat="45.4863931983377" lon="7.800263056577858"><ele>727.1999999999999</ele><time>2026-05-03T16:45:46.976Z</time></trkpt><trkpt lat="45.486318526329235" lon="7.800110182742373"><ele>728.4</ele><time>2026-05-03T16:45:47.976Z</time></trkpt><trkpt lat="45.486257260739244" lon="7.80001471357546"><ele>729.6</ele><time>2026-05-03T16:45:48.976Z</time></trkpt><trkpt lat="45.48624125168684" lon="7.799919310286085"><ele>730.8</ele><time>2026-05-03T16:45:50.976Z</time></trkpt><trkpt lat="45.48621095442156" lon="7.799829814028919"><ele>732.0</ele><time>2026-05-03T16:45:51.976Z</time></trkpt><trkpt lat="45.48615099061612" lon="7.799665716210739"><ele>732.0</ele><time>2026-05-03T16:45:53.976Z</time></trkpt><trkpt lat="45.486115033536365" lon="7.799570035783176"><ele>732.0</ele><time>2026-05-03T16:45:54.976Z</time></trkpt><trkpt lat="45.48608184016083" lon="7.799476872827127"><ele>732.0</ele><time>2026-05-03T16:45:55.976Z</time></trkpt><trkpt lat="45.486046780167406" lon="7.7993787509931085"><ele>732.0</ele><time>2026-05-03T16:45:57.976Z</time></trkpt><trkpt lat="45.48576185025566" lon="7.799654016010942"><ele>732.0</ele><time>2026-05-03T16:45:59.976Z</time></trkpt><trkpt lat="45.48570901456167" lon="7.799737763096988"><ele>732.0</ele><time>2026-05-03T16:46:01.976Z</time></trkpt><trkpt lat="45.48569237465173" lon="7.799836436303935"><ele>732.0</ele><time>2026-05-03T16:46:06.976Z</time></trkpt><trkpt lat="45.485640154996645" lon="7.799949582527302"><ele>732.0</ele><time>2026-05-03T16:46:09.976Z</time></trkpt><trkpt lat="45.48562464171632" lon="7.800039329838717"><ele>732.0</ele><time>2026-05-03T16:46:10.976Z</time></trkpt><trkpt lat="45.48555728258758" lon="7.800146550388509"><ele>732.0</ele><time>2026-05-03T16:46:12.976Z</time></trkpt><trkpt lat="45.485503518822604" lon="7.800218142810337"><ele>730.8333333333334</ele><time>2026-05-03T16:46:14.976Z</time></trkpt><trkpt lat="45.48543321160847" lon="7.800243917155949"><ele>729.6666666666666</ele><time>2026-05-03T16:46:19.976Z</time></trkpt><trkpt lat="45.48535589876334" lon="7.800116138331231"><ele>728.5</ele><time>2026-05-03T16:46:22.976Z</time></trkpt><trkpt lat="45.485271900329536" lon="7.800020218503914"><ele>727.3333333333333</ele><time>2026-05-03T16:46:24.976Z</time></trkpt><trkpt lat="45.48521452985065" lon="7.7999459794343435"><ele>726.1666666666666</ele><time>2026-05-03T16:46:27.977Z</time></trkpt><trkpt lat="45.48516924211039" lon="7.799879555292387"><ele>725.0</ele><time>2026-05-03T16:46:28.977Z</time></trkpt><trkpt lat="45.48510552037522" lon="7.799794978666288"><ele>725.0</ele><time>2026-05-03T16:46:29.977Z</time></trkpt><trkpt lat="45.485036951164844" lon="7.799731820887625"><ele>725.0</ele><time>2026-05-03T16:46:30.977Z</time></trkpt><trkpt lat="45.48496834704133" lon="7.799661541863961"><ele>725.0</ele><time>2026-05-03T16:46:31.977Z</time></trkpt><trkpt lat="45.48491019015353" lon="7.799616731248596"><ele>725.0</ele><time>2026-05-03T16:46:32.977Z</time></trkpt><trkpt lat="45.48483806412168" lon="7.799532064295962"><ele>725.0</ele><time>2026-05-03T16:46:34.977Z</time></trkpt><trkpt lat="45.484801119687184" lon="7.799439443847891"><ele>725.0</ele><time>2026-05-03T16:46:35.977Z</time></trkpt><trkpt lat="45.48474415309585" lon="7.799368389305513"><ele>725.8333333333333</ele><time>2026-05-03T16:46:36.977Z</time></trkpt><trkpt lat="45.48470269538013" lon="7.799291372834497"><ele>726.6666666666666</ele><time>2026-05-03T16:46:37.977Z</time></trkpt><trkpt lat="45.48464381268895" lon="7.799224955020952"><ele>727.5</ele><time>2026-05-03T16:46:38.977Z</time></trkpt><trkpt lat="45.48458049559162" lon="7.799172173573759"><ele>728.3333333333334</ele><time>2026-05-03T16:46:39.977Z</time></trkpt><trkpt lat="45.48447395687966" lon="7.7990886453202934"><ele>729.1666666666667</ele><time>2026-05-03T16:46:41.977Z</time></trkpt><trkpt lat="45.48437373026017" lon="7.799101454681008"><ele>730.0</ele><time>2026-05-03T16:46:43.977Z</time></trkpt><trkpt lat="45.484248961776096" lon="7.799091455684218"><ele>730.0</ele><time>2026-05-03T16:46:45.977Z</time></trkpt><trkpt lat="45.48413161202463" lon="7.799100721922849"><ele>730.0</ele><time>2026-05-03T16:46:47.977Z</time></trkpt><trkpt lat="45.48404965977614" lon="7.799107810974906"><ele>730.0</ele><time>2026-05-03T16:46:48.977Z</time></trkpt><trkpt lat="45.483975702687204" lon="7.799047642411176"><ele>730.0</ele><time>2026-05-03T16:46:52.977Z</time></trkpt><trkpt lat="45.483901090237566" lon="7.798983492143464"><ele>730.0</ele><time>2026-05-03T16:46:54.977Z</time></trkpt><trkpt lat="45.4838445788858" lon="7.798902634266187"><ele>730.0</ele><time>2026-05-03T16:46:56.977Z</time></trkpt><trkpt lat="45.48377347294417" lon="7.798823297199476"><ele>730.0</ele><time>2026-05-03T16:46:59.977Z</time></trkpt><trkpt lat="45.483712201830315" lon="7.7987860140504734"><ele>730.0</ele><time>2026-05-03T16:47:01.973Z</time></trkpt><trkpt lat="45.48360831301196" lon="7.798861167305307"><ele>730.0</ele><time>2026-05-03T16:47:02.973Z</time></trkpt><trkpt lat="45.483374146443055" lon="7.798974804062666"><ele>726.0</ele><time>2026-05-03T16:47:44.974Z</time></trkpt><trkpt lat="45.483342621901606" lon="7.799078679179889"><ele>722.0</ele><time>2026-05-03T16:47:46.974Z</time></trkpt><trkpt lat="45.483285187632696" lon="7.7991685165608216"><ele>718.0</ele><time>2026-05-03T16:47:48.974Z</time></trkpt><trkpt lat="45.483216650011336" lon="7.799261622551016"><ele>714.0</ele><time>2026-05-03T16:47:50.974Z</time></trkpt><trkpt lat="45.48312795699705" lon="7.799355219561972"><ele>710.0</ele><time>2026-05-03T16:47:52.974Z</time></trkpt><trkpt lat="45.483048930479875" lon="7.799433891114379"><ele>706.1666666666666</ele><time>2026-05-03T16:47:54.974Z</time></trkpt><trkpt lat="45.48298195109101" lon="7.7994045162932455"><ele>702.3333333333333</ele><time>2026-05-03T16:47:56.974Z</time></trkpt><trkpt lat="45.4829557039611" lon="7.799508576075896"><ele>698.5</ele><time>2026-05-03T16:48:03.974Z</time></trkpt><trkpt lat="45.48289192097324" lon="7.799513239438961"><ele>694.6666666666666</ele><time>2026-05-03T16:48:06.974Z</time></trkpt><trkpt lat="45.48283313154893" lon="7.799421373482332"><ele>690.8333333333334</ele><time>2026-05-03T16:48:09.974Z</time></trkpt><trkpt lat="45.48276600764158" lon="7.799341378541001"><ele>687.0</ele><time>2026-05-03T16:48:11.974Z</time></trkpt><trkpt lat="45.482715919392405" lon="7.799278372676934"><ele>684.2857142857143</ele><time>2026-05-03T16:48:13.974Z</time></trkpt><trkpt lat="45.48270998322608" lon="7.799371748424223"><ele>681.5714285714286</ele><time>2026-05-03T16:48:15.974Z</time></trkpt><trkpt lat="45.48271418520875" lon="7.799472137815719"><ele>678.8571428571429</ele><time>2026-05-03T16:48:18.974Z</time></trkpt><trkpt lat="45.48272685179503" lon="7.799568226697352"><ele>676.1428571428571</ele><time>2026-05-03T16:48:21.974Z</time></trkpt><trkpt lat="45.482731276051965" lon="7.799659553681307"><ele>673.4285714285714</ele><time>2026-05-03T16:48:24.974Z</time></trkpt><trkpt lat="45.48274654380682" lon="7.799747998995971"><ele>670.7142857142857</ele><time>2026-05-03T16:48:26.974Z</time></trkpt><trkpt lat="45.48280788087067" lon="7.799805044626366"><ele>668.0</ele><time>2026-05-03T16:48:28.974Z</time></trkpt><trkpt lat="45.48289116813261" lon="7.799823732309768"><ele>668.0</ele><time>2026-05-03T16:48:30.974Z</time></trkpt><trkpt lat="45.48297247529332" lon="7.7998341898403165"><ele>668.0</ele><time>2026-05-03T16:48:32.975Z</time></trkpt><trkpt lat="45.48293855852736" lon="7.799911465719227"><ele>668.0</ele><time>2026-05-03T16:48:36.975Z</time></trkpt><trkpt lat="45.48286008222407" lon="7.799948746424931"><ele>668.0</ele><time>2026-05-03T16:48:39.975Z</time></trkpt><trkpt lat="45.482775513669985" lon="7.799960190997465"><ele>668.0</ele><time>2026-05-03T16:48:42.975Z</time></trkpt><trkpt lat="45.48268082499296" lon="7.799962968305179"><ele>668.0</ele><time>2026-05-03T16:48:44.975Z</time></trkpt><trkpt lat="45.48260495879521" lon="7.799927857500145"><ele>668.0</ele><time>2026-05-03T16:48:46.975Z</time></trkpt><trkpt lat="45.48250818766628" lon="7.800100944112265"><ele>668.0</ele><time>2026-05-03T16:48:59.975Z</time></trkpt><trkpt lat="45.48245009552733" lon="7.800144844469568"><ele>668.0</ele><time>2026-05-03T16:49:10.971Z</time></trkpt><trkpt lat="45.48243448008977" lon="7.800235542225867"><ele>668.0</ele><time>2026-05-03T16:49:42.972Z</time></trkpt><trkpt lat="45.48245626651839" lon="7.800322624564789"><ele>668.0</ele><time>2026-05-03T16:49:46.972Z</time></trkpt><trkpt lat="45.48238776880875" lon="7.800344941152857"><ele>668.0</ele><time>2026-05-03T16:49:49.972Z</time></trkpt><trkpt lat="45.48236289055482" lon="7.800232470098449"><ele>668.0</ele><time>2026-05-03T16:49:52.972Z</time></trkpt><trkpt lat="45.482377722541536" lon="7.800098402190022"><ele>668.0</ele><time>2026-05-03T16:49:55.972Z</time></trkpt><trkpt lat="45.482350422534644" lon="7.800007450718995"><ele>668.0</ele><time>2026-05-03T16:49:57.972Z</time></trkpt><trkpt lat="45.482297313852385" lon="7.799931067062513"><ele>668.0</ele><time>2026-05-03T16:49:59.972Z</time></trkpt><trkpt lat="45.48221990611104" lon="7.799875417276884"><ele>668.0</ele><time>2026-05-03T16:50:02.972Z</time></trkpt><trkpt lat="45.48215642741018" lon="7.799803786431638"><ele>668.0</ele><time>2026-05-03T16:50:04.972Z</time></trkpt><trkpt lat="45.48209817111469" lon="7.799766732867313"><ele>668.0</ele><time>2026-05-03T16:50:07.972Z</time></trkpt><trkpt lat="45.48211808953893" lon="7.799869466887744"><ele>668.0</ele><time>2026-05-03T16:50:12.972Z</time></trkpt><trkpt lat="45.48213471419555" lon="7.799957649524227"><ele>668.0</ele><time>2026-05-03T16:50:14.973Z</time></trkpt><trkpt lat="45.4821416206716" lon="7.800049774173519"><ele>668.0</ele><time>2026-05-03T16:50:17.973Z</time></trkpt><trkpt lat="45.48212041958709" lon="7.800153055847201"><ele>668.0</ele><time>2026-05-03T16:50:20.973Z</time></trkpt><trkpt lat="45.482102530920926" lon="7.8002647606609985"><ele>668.0</ele><time>2026-05-03T16:50:23.973Z</time></trkpt><trkpt lat="45.48205697956467" lon="7.800394062129149"><ele>657.8333333333333</ele><time>2026-05-03T16:50:26.973Z</time></trkpt><trkpt lat="45.48205808113295" lon="7.800504947600663"><ele>647.6666666666666</ele><time>2026-05-03T16:50:28.973Z</time></trkpt><trkpt lat="45.482052740321826" lon="7.800618396387951"><ele>637.5</ele><time>2026-05-03T16:50:30.973Z</time></trkpt><trkpt lat="45.4820468728368" lon="7.800716056161123"><ele>627.3333333333334</ele><time>2026-05-03T16:50:32.973Z</time></trkpt><trkpt lat="45.4820211448047" lon="7.800814554801128"><ele>617.1666666666667</ele><time>2026-05-03T16:50:34.973Z</time></trkpt><trkpt lat="45.48197133161278" lon="7.800974435069265"><ele>607.0</ele><time>2026-05-03T16:50:36.973Z</time></trkpt><trkpt lat="45.48195447858252" lon="7.801066061034508"><ele>604.8333333333334</ele><time>2026-05-03T16:50:37.973Z</time></trkpt><trkpt lat="45.48195028761067" lon="7.80117858058399"><ele>602.6666666666667</ele><time>2026-05-03T16:50:40.973Z</time></trkpt><trkpt lat="45.48202458143912" lon="7.801260693698045"><ele>600.5</ele><time>2026-05-03T16:50:42.973Z</time></trkpt><trkpt lat="45.4819517173162" lon="7.8013336804717754"><ele>598.3333333333334</ele><time>2026-05-03T16:50:49.973Z</time></trkpt><trkpt lat="45.48191416357828" lon="7.801414054667554"><ele>596.1666666666666</ele><time>2026-05-03T16:50:51.973Z</time></trkpt><trkpt lat="45.48192803187699" lon="7.80150220169037"><ele>594.0</ele><time>2026-05-03T16:50:54.973Z</time></trkpt><trkpt lat="45.481954166299865" lon="7.801586462245591"><ele>594.0</ele><time>2026-05-03T16:50:58.973Z</time></trkpt><trkpt lat="45.481892151960366" lon="7.801692018037536"><ele>594.0</ele><time>2026-05-03T16:51:01.973Z</time></trkpt><trkpt lat="45.48183860169323" lon="7.801796649575002"><ele>594.0</ele><time>2026-05-03T16:51:03.974Z</time></trkpt><trkpt lat="45.48178441026773" lon="7.801879620168988"><ele>594.0</ele><time>2026-05-03T16:51:05.974Z</time></trkpt><trkpt lat="45.48169322827635" lon="7.801839268690381"><ele>594.0</ele><time>2026-05-03T16:51:08.974Z</time></trkpt><trkpt lat="45.4816246792564" lon="7.801821239868741"><ele>594.0</ele><time>2026-05-03T16:51:11.974Z</time></trkpt><trkpt lat="45.48165911787356" lon="7.801693144610198"><ele>594.0</ele><time>2026-05-03T16:51:14.97Z</time></trkpt><trkpt lat="45.481657148731" lon="7.801545883026579"><ele>594.0</ele><time>2026-05-03T16:51:16.971Z</time></trkpt><trkpt lat="45.48163227372813" lon="7.801419353840293"><ele>594.0</ele><time>2026-05-03T16:51:18.97Z</time></trkpt><trkpt lat="45.48158946873051" lon="7.801251294299834"><ele>594.0</ele><time>2026-05-03T16:51:20.97Z</time></trkpt><trkpt lat="45.4815479871341" lon="7.801175221328685"><ele>594.0</ele><time>2026-05-03T16:51:21.97Z</time></trkpt><trkpt lat="45.48150139718639" lon="7.801113742766136"><ele>596.1666666666666</ele><time>2026-05-03T16:51:22.97Z</time></trkpt><trkpt lat="45.48143739414063" lon="7.800971945844829"><ele>598.3333333333334</ele><time>2026-05-03T16:51:24.97Z</time></trkpt><trkpt lat="45.481388605708084" lon="7.800818021251042"><ele>600.5</ele><time>2026-05-03T16:51:26.971Z</time></trkpt><trkpt lat="45.4813355141303" lon="7.800751599952981"><ele>602.6666666666667</ele><time>2026-05-03T16:51:27.971Z</time></trkpt><trkpt lat="45.48129588354909" lon="7.8006797118118785"><ele>604.8333333333334</ele><time>2026-05-03T16:51:29.971Z</time></trkpt><trkpt lat="45.481266650590534" lon="7.800596007669275"><ele>607.0</ele><time>2026-05-03T16:51:43.971Z</time></trkpt><trkpt lat="45.481211420596345" lon="7.800511404813504"><ele>598.8333333333334</ele><time>2026-05-03T16:52:39.972Z</time></trkpt><trkpt lat="45.48115228200062" lon="7.800458288773045"><ele>590.6666666666667</ele><time>2026-05-03T16:52:41.972Z</time></trkpt><trkpt lat="45.481087590187705" lon="7.800431808566173"><ele>582.5</ele><time>2026-05-03T16:52:44.972Z</time></trkpt><trkpt lat="45.481108748154526" lon="7.800521243712089"><ele>574.3333333333334</ele><time>2026-05-03T16:52:46.972Z</time></trkpt><trkpt lat="45.48116930188675" lon="7.80060456223354"><ele>566.1666666666666</ele><time>2026-05-03T16:52:48.972Z</time></trkpt><trkpt lat="45.48120534894052" lon="7.800720656320192"><ele>558.0</ele><time>2026-05-03T16:52:50.972Z</time></trkpt><trkpt lat="45.48121880688373" lon="7.800881234071286"><ele>556.0</ele><time>2026-05-03T16:52:53.972Z</time></trkpt><trkpt lat="45.48119120275248" lon="7.801085845895316"><ele>554.0</ele><time>2026-05-03T16:52:55.972Z</time></trkpt><trkpt lat="45.48117654030481" lon="7.8012346540721795"><ele>552.0</ele><time>2026-05-03T16:52:56.972Z</time></trkpt><trkpt lat="45.4811705821454" lon="7.801357094366587"><ele>550.0</ele><time>2026-05-03T16:52:57.972Z</time></trkpt><trkpt lat="45.48117284536953" lon="7.801454709422722"><ele>548.0</ele><time>2026-05-03T16:52:58.973Z</time></trkpt><trkpt lat="45.48116321243496" lon="7.8015654467457916"><ele>548.0</ele><time>2026-05-03T16:52:59.973Z</time></trkpt><trkpt lat="45.481155524518" lon="7.801655390735799"><ele>548.0</ele><time>2026-05-03T16:53:00.973Z</time></trkpt><trkpt lat="45.4811414785646" lon="7.801809178521133"><ele>548.0</ele><time>2026-05-03T16:53:02.973Z</time></trkpt><trkpt lat="45.48111565400368" lon="7.801946874951613"><ele>548.0</ele><time>2026-05-03T16:53:04.973Z</time></trkpt><trkpt lat="45.481094215590126" lon="7.802045978928016"><ele>548.0</ele><time>2026-05-03T16:53:05.973Z</time></trkpt><trkpt lat="45.48107806061572" lon="7.802155902177958"><ele>548.0</ele><time>2026-05-03T16:53:06.973Z</time></trkpt><trkpt lat="45.48108161515626" lon="7.802329218467966"><ele>547.1666666666666</ele><time>2026-05-03T16:53:08.973Z</time></trkpt><trkpt lat="45.48105648190852" lon="7.80243946768775"><ele>546.3333333333333</ele><time>2026-05-03T16:53:09.973Z</time></trkpt><trkpt lat="45.48102085012692" lon="7.802526802384916"><ele>545.5</ele><time>2026-05-03T16:53:10.973Z</time></trkpt><trkpt lat="45.48105589565127" lon="7.80266976991571"><ele>544.6666666666666</ele><time>2026-05-03T16:53:12.973Z</time></trkpt><trkpt lat="45.48106950968488" lon="7.802765047880363"><ele>543.8333333333334</ele><time>2026-05-03T16:53:13.973Z</time></trkpt><trkpt lat="45.4811277135517" lon="7.8028915560731935"><ele>543.0</ele><time>2026-05-03T16:53:14.973Z</time></trkpt><trkpt lat="45.48117344092755" lon="7.802966145078183"><ele>542.0</ele><time>2026-05-03T16:53:15.973Z</time></trkpt><trkpt lat="45.481231518453036" lon="7.803028308913011"><ele>541.0</ele><time>2026-05-03T16:53:16.973Z</time></trkpt><trkpt lat="45.48130318865078" lon="7.803092211174405"><ele>540.0</ele><time>2026-05-03T16:53:17.973Z</time></trkpt><trkpt lat="45.48136879968877" lon="7.803157493693558"><ele>539.0</ele><time>2026-05-03T16:53:18.969Z</time></trkpt><trkpt lat="45.48142268092387" lon="7.803239160572398"><ele>538.0</ele><time>2026-05-03T16:53:20.969Z</time></trkpt><trkpt lat="45.48138386390853" lon="7.8033195383565355"><ele>537.0</ele><time>2026-05-03T16:53:23.969Z</time></trkpt><trkpt lat="45.481318290721475" lon="7.803275726615572"><ele>532.8000000000001</ele><time>2026-05-03T16:53:25.969Z</time></trkpt><trkpt lat="45.48119440138563" lon="7.803245999455891"><ele>528.6</ele><time>2026-05-03T16:53:27.969Z</time></trkpt><trkpt lat="45.48110999866637" lon="7.803230912709149"><ele>524.4000000000001</ele><time>2026-05-03T16:53:28.969Z</time></trkpt><trkpt lat="45.48103666451872" lon="7.803223968717393"><ele>520.2</ele><time>2026-05-03T16:53:29.969Z</time></trkpt><trkpt lat="45.48095885882951" lon="7.803222252402633"><ele>516.0</ele><time>2026-05-03T16:53:30.969Z</time></trkpt><trkpt lat="45.480868220011025" lon="7.803155591361498"><ele>516.0</ele><time>2026-05-03T16:53:32.969Z</time></trkpt><trkpt lat="45.480799985097136" lon="7.803136202145468"><ele>516.0</ele><time>2026-05-03T16:53:34.969Z</time></trkpt><trkpt lat="45.480764235509646" lon="7.8032251322405735"><ele>516.0</ele><time>2026-05-03T16:53:36.969Z</time></trkpt><trkpt lat="45.48083224502912" lon="7.803290725229829"><ele>516.0</ele><time>2026-05-03T16:53:38.969Z</time></trkpt><trkpt lat="45.48088648893248" lon="7.803358261292699"><ele>516.0</ele><time>2026-05-03T16:53:39.969Z</time></trkpt><trkpt lat="45.48092860491825" lon="7.803438717064335"><ele>516.0</ele><time>2026-05-03T16:53:40.969Z</time></trkpt><trkpt lat="45.481019048964676" lon="7.803541318272601"><ele>514.8333333333334</ele><time>2026-05-03T16:53:42.969Z</time></trkpt><trkpt lat="45.481134587618556" lon="7.8036395226767175"><ele>513.6666666666666</ele><time>2026-05-03T16:53:44.97Z</time></trkpt><trkpt lat="45.48119821270143" lon="7.803704243072754"><ele>512.5</ele><time>2026-05-03T16:53:45.97Z</time></trkpt><trkpt lat="45.481260400894165" lon="7.803763323980181"><ele>511.3333333333333</ele><time>2026-05-03T16:53:46.97Z</time></trkpt><trkpt lat="45.481322778137475" lon="7.80382337348283"><ele>510.16666666666663</ele><time>2026-05-03T16:53:47.97Z</time></trkpt><trkpt lat="45.48138731134963" lon="7.803896928892928"><ele>509.0</ele><time>2026-05-03T16:53:48.97Z</time></trkpt><trkpt lat="45.48144761754604" lon="7.803941728163882"><ele>509.0</ele><time>2026-05-03T16:53:49.97Z</time></trkpt><trkpt lat="45.4815321628931" lon="7.8040420694584"><ele>509.0</ele><time>2026-05-03T16:53:51.97Z</time></trkpt><trkpt lat="45.4814414837058" lon="7.804094140147335"><ele>509.0</ele><time>2026-05-03T16:53:55.97Z</time></trkpt><trkpt lat="45.48134250439778" lon="7.804089505697919"><ele>509.0</ele><time>2026-05-03T16:53:57.97Z</time></trkpt><trkpt lat="45.481246382343336" lon="7.80405697424956"><ele>509.0</ele><time>2026-05-03T16:53:59.97Z</time></trkpt><trkpt lat="45.48116085277946" lon="7.8040588985562325"><ele>506.0</ele><time>2026-05-03T16:54:00.97Z</time></trkpt><trkpt lat="45.48107283587252" lon="7.804048601323575"><ele>503.0</ele><time>2026-05-03T16:54:01.97Z</time></trkpt><trkpt lat="45.48095137315978" lon="7.804061754447729"><ele>500.0</ele><time>2026-05-03T16:54:03.97Z</time></trkpt><trkpt lat="45.48086602681283" lon="7.804054198206165"><ele>497.0</ele><time>2026-05-03T16:54:04.97Z</time></trkpt><trkpt lat="45.48078775522823" lon="7.804032937318547"><ele>494.0</ele><time>2026-05-03T16:54:05.97Z</time></trkpt><trkpt lat="45.48070211312521" lon="7.804023595166071"><ele>493.99999999999994</ele><time>2026-05-03T16:54:06.97Z</time></trkpt><trkpt lat="45.48061157677669" lon="7.804017213409323"><ele>494.0</ele><time>2026-05-03T16:54:07.97Z</time></trkpt><trkpt lat="45.48054330839054" lon="7.804022064810687"><ele>494.0</ele><time>2026-05-03T16:54:08.97Z</time></trkpt><trkpt lat="45.480472554280325" lon="7.803985556742271"><ele>494.0</ele><time>2026-05-03T16:54:10.97Z</time></trkpt><trkpt lat="45.48040625158241" lon="7.803874243378046"><ele>493.99999999999994</ele><time>2026-05-03T16:54:12.97Z</time></trkpt><trkpt lat="45.48036980897365" lon="7.803730069562605"><ele>494.0</ele><time>2026-05-03T16:54:14.97Z</time></trkpt><trkpt lat="45.480353255597436" lon="7.803640058927724"><ele>491.4</ele><time>2026-05-03T16:54:15.97Z</time></trkpt><trkpt lat="45.48032755442493" lon="7.803520128181762"><ele>488.79999999999995</ele><time>2026-05-03T16:54:16.97Z</time></trkpt><trkpt lat="45.48025928428881" lon="7.803333099949654"><ele>486.20000000000005</ele><time>2026-05-03T16:54:18.97Z</time></trkpt><trkpt lat="45.480213999994376" lon="7.803212315647671"><ele>483.6</ele><time>2026-05-03T16:54:19.97Z</time></trkpt><trkpt lat="45.48018130331952" lon="7.803099735457342"><ele>481.0</ele><time>2026-05-03T16:54:20.97Z</time></trkpt><trkpt lat="45.48015827772564" lon="7.802991773695888"><ele>481.00000000000006</ele><time>2026-05-03T16:54:21.97Z</time></trkpt><trkpt lat="45.480139237630326" lon="7.80286703051842"><ele>481.0</ele><time>2026-05-03T16:54:22.97Z</time></trkpt><trkpt lat="45.480131516021146" lon="7.802775194737273"><ele>481.0</ele><time>2026-05-03T16:54:23.97Z</time></trkpt><trkpt lat="45.48006610572956" lon="7.802672961322212"><ele>481.0</ele><time>2026-05-03T16:54:25.97Z</time></trkpt><trkpt lat="45.479984697454576" lon="7.8026585090507945"><ele>481.00000000000006</ele><time>2026-05-03T16:54:27.97Z</time></trkpt><trkpt lat="45.479899180536364" lon="7.802646187312499"><ele>481.0</ele><time>2026-05-03T16:54:30.97Z</time></trkpt><trkpt lat="45.47989056670955" lon="7.802759657914451"><ele>481.00000000000006</ele><time>2026-05-03T16:54:50.971Z</time></trkpt><trkpt lat="45.479895983748825" lon="7.802887308850959"><ele>481.0</ele><time>2026-05-03T16:54:52.971Z</time></trkpt><trkpt lat="45.479859657528365" lon="7.803015433125377"><ele>481.0</ele><time>2026-05-03T16:54:54.971Z</time></trkpt><trkpt lat="45.479845354230044" lon="7.803109001831807"><ele>481.0</ele><time>2026-05-03T16:54:56.971Z</time></trkpt><trkpt lat="45.47977941983247" lon="7.803107156496765"><ele>481.00000000000006</ele><time>2026-05-03T16:55:00.971Z</time></trkpt><trkpt lat="45.479725139892935" lon="7.803032923647778"><ele>481.0</ele><time>2026-05-03T16:55:01.971Z</time></trkpt><trkpt lat="45.47961490071832" lon="7.8030327374784605"><ele>481.00000000000006</ele><time>2026-05-03T16:55:03.971Z</time></trkpt><trkpt lat="45.47953909800814" lon="7.80307908338693"><ele>481.0</ele><time>2026-05-03T16:55:05.971Z</time></trkpt><trkpt lat="45.47953266006453" lon="7.803179366122086"><ele>481.0</ele><time>2026-05-03T16:55:07.971Z</time></trkpt><trkpt lat="45.47961419359985" lon="7.80325321348141"><ele>481.0</ele><time>2026-05-03T16:55:09.971Z</time></trkpt><trkpt lat="45.47965814458926" lon="7.803373791486693"><ele>481.00000000000006</ele><time>2026-05-03T16:55:11.971Z</time></trkpt><trkpt lat="45.479666984629866" lon="7.803500371751453"><ele>481.0</ele><time>2026-05-03T16:55:13.971Z</time></trkpt><trkpt lat="45.47960460788323" lon="7.803539744188882"><ele>477.00000000000006</ele><time>2026-05-03T16:55:15.971Z</time></trkpt><trkpt lat="45.47952855685089" lon="7.803462733607516"><ele>473.0</ele><time>2026-05-03T16:55:17.971Z</time></trkpt><trkpt lat="45.479477850373485" lon="7.803524640789755"><ele>469.0</ele><time>2026-05-03T16:55:20.972Z</time></trkpt><trkpt lat="45.479408424155054" lon="7.803578646957181"><ele>465.0</ele><time>2026-05-03T16:55:29.968Z</time></trkpt><trkpt lat="45.47934728364029" lon="7.8035262285272795"><ele>461.00000000000006</ele><time>2026-05-03T16:55:33.968Z</time></trkpt><trkpt lat="45.479269545786934" lon="7.803565968963003"><ele>457.0</ele><time>2026-05-03T16:55:41.967Z</time></trkpt><trkpt lat="45.47920087957227" lon="7.803614392288692"><ele>454.00000000000006</ele><time>2026-05-03T16:55:43.967Z</time></trkpt><trkpt lat="45.479152352763805" lon="7.803703734118148"><ele>451.0</ele><time>2026-05-03T16:55:45.967Z</time></trkpt><trkpt lat="45.47919422066733" lon="7.803829250075696"><ele>448.0</ele><time>2026-05-03T16:55:48.967Z</time></trkpt><trkpt lat="45.47925000880202" lon="7.803953916527961"><ele>445.0</ele><time>2026-05-03T16:55:50.967Z</time></trkpt><trkpt lat="45.47920769849212" lon="7.804064763392413"><ele>442.00000000000006</ele><time>2026-05-03T16:55:53.967Z</time></trkpt><trkpt lat="45.479155514151216" lon="7.8041280870590155"><ele>439.0</ele><time>2026-05-03T16:55:54.967Z</time></trkpt><trkpt lat="45.47908977264101" lon="7.804174897403073"><ele>439.0</ele><time>2026-05-03T16:55:55.968Z</time></trkpt><trkpt lat="45.47903321057415" lon="7.804230984531784"><ele>439.0</ele><time>2026-05-03T16:55:56.968Z</time></trkpt><trkpt lat="45.478945002920916" lon="7.80434826926444"><ele>439.0</ele><time>2026-05-03T16:55:58.968Z</time></trkpt><trkpt lat="45.47889123873232" lon="7.8044616774465085"><ele>439.0</ele><time>2026-05-03T16:56:00.968Z</time></trkpt><trkpt lat="45.47887598350393" lon="7.80461511756774"><ele>439.0</ele><time>2026-05-03T16:56:02.968Z</time></trkpt><trkpt lat="45.478957269256014" lon="7.804711977998425"><ele>435.6666666666667</ele><time>2026-05-03T16:56:04.968Z</time></trkpt><trkpt lat="45.479031320813824" lon="7.804732151286853"><ele>432.33333333333337</ele><time>2026-05-03T16:56:06.968Z</time></trkpt><trkpt lat="45.479107359844065" lon="7.80479305632765"><ele>429.0</ele><time>2026-05-03T16:56:08.968Z</time></trkpt><trkpt lat="45.47907644342938" lon="7.804904607495606"><ele>425.66666666666663</ele><time>2026-05-03T16:56:10.968Z</time></trkpt><trkpt lat="45.47901356671303" lon="7.804975471770707"><ele>422.3333333333333</ele><time>2026-05-03T16:56:11.968Z</time></trkpt><trkpt lat="45.47894742398924" lon="7.80502340558887"><ele>419.0</ele><time>2026-05-03T16:56:12.968Z</time></trkpt><trkpt lat="45.47887066274378" lon="7.805095774523523"><ele>414.6</ele><time>2026-05-03T16:56:14.968Z</time></trkpt><trkpt lat="45.47885107895831" lon="7.805209692786208"><ele>410.2</ele><time>2026-05-03T16:57:04.969Z</time></trkpt><trkpt lat="45.478801864046154" lon="7.805280973302943"><ele>405.8</ele><time>2026-05-03T16:57:07.969Z</time></trkpt><trkpt lat="45.478857837520366" lon="7.805400125020191"><ele>401.40000000000003</ele><time>2026-05-03T16:57:11.969Z</time></trkpt><trkpt lat="45.47884650738972" lon="7.805501671240842"><ele>397.0</ele><time>2026-05-03T16:57:15.969Z</time></trkpt><trkpt lat="45.47880853451299" lon="7.805670814946251"><ele>397.0</ele><time>2026-05-03T16:58:04.967Z</time></trkpt><trkpt lat="45.47880346586343" lon="7.805760367490755"><ele>397.0</ele><time>2026-05-03T16:58:28.967Z</time></trkpt><trkpt lat="45.478870734001305" lon="7.805718429442041"><ele>397.0</ele><time>2026-05-03T16:58:32.967Z</time></trkpt><trkpt lat="45.47885081106279" lon="7.805625965288457"><ele>397.0</ele><time>2026-05-03T17:00:18.966Z</time></trkpt><trkpt lat="45.47888416768699" lon="7.80552740497759"><ele>397.0</ele><time>2026-05-03T17:01:38.968Z</time></trkpt><trkpt lat="45.478805068162714" lon="7.8054743292518785"><ele>397.0</ele><time>2026-05-03T17:02:24.965Z</time></trkpt><trkpt lat="45.47879692523079" lon="7.805370342530668"><ele>397.0</ele><time>2026-05-03T17:02:28.966Z</time></trkpt><trkpt lat="45.47884632561341" lon="7.805300106805772"><ele>397.0</ele><time>2026-05-03T17:02:32.966Z</time></trkpt><trkpt lat="45.478849717448654" lon="7.805209921343087"><ele>397.0</ele><time>2026-05-03T17:02:36.966Z</time></trkpt><trkpt lat="45.47878044366831" lon="7.805169237036326"><ele>397.0</ele><time>2026-05-03T17:02:39.968Z</time></trkpt><trkpt lat="45.478710310879684" lon="7.805151789111574"><ele>397.0</ele><time>2026-05-03T17:02:42.969Z</time></trkpt><trkpt lat="45.47865151486783" lon="7.8051177153577065"><ele>397.0</ele><time>2026-05-03T17:02:48.971Z</time></trkpt><trkpt lat="45.47857863047263" lon="7.805110937233666"><ele>397.0</ele><time>2026-05-03T17:02:52.972Z</time></trkpt><trkpt lat="45.47849293931138" lon="7.805120737908628"><ele>397.0</ele><time>2026-05-03T17:02:54.973Z</time></trkpt><trkpt lat="45.4784248594101" lon="7.805124997091903"><ele>399.33333333333337</ele><time>2026-05-03T17:02:56.973Z</time></trkpt><trkpt lat="45.47836073127634" lon="7.805057539619385"><ele>401.6666666666667</ele><time>2026-05-03T17:02:58.973Z</time></trkpt><trkpt lat="45.4782975754162" lon="7.80501174492587"><ele>404.0</ele><time>2026-05-03T17:03:00.974Z</time></trkpt><trkpt lat="45.478180019746134" lon="7.804922386978199"><ele>406.33333333333337</ele><time>2026-05-03T17:03:02.974Z</time></trkpt><trkpt lat="45.47811449032731" lon="7.804864757606027"><ele>408.6666666666667</ele><time>2026-05-03T17:03:03.974Z</time></trkpt><trkpt lat="45.47804494867346" lon="7.8048051644384095"><ele>411.0</ele><time>2026-05-03T17:03:04.974Z</time></trkpt><trkpt lat="45.47797153756919" lon="7.804761003961752"><ele>409.6666666666667</ele><time>2026-05-03T17:03:05.974Z</time></trkpt><trkpt lat="45.477887691473086" lon="7.804729092405722"><ele>408.33333333333337</ele><time>2026-05-03T17:03:06.974Z</time></trkpt><trkpt lat="45.47780513049389" lon="7.80468952861451"><ele>407.0</ele><time>2026-05-03T17:03:07.975Z</time></trkpt><trkpt lat="45.47772751198731" lon="7.804661645591992"><ele>405.6666666666667</ele><time>2026-05-03T17:03:08.975Z</time></trkpt><trkpt lat="45.47763194943744" lon="7.804651284850777"><ele>404.33333333333337</ele><time>2026-05-03T17:03:09.975Z</time></trkpt><trkpt lat="45.47753653366359" lon="7.804656745355966"><ele>403.0</ele><time>2026-05-03T17:03:10.975Z</time></trkpt><trkpt lat="45.47745124951296" lon="7.804693106314802"><ele>403.0</ele><time>2026-05-03T17:03:11.975Z</time></trkpt><trkpt lat="45.47736376510644" lon="7.804766911388245"><ele>403.0</ele><time>2026-05-03T17:03:12.975Z</time></trkpt><trkpt lat="45.477274771959" lon="7.804844738223002"><ele>403.0</ele><time>2026-05-03T17:03:13.975Z</time></trkpt><trkpt lat="45.477204775352256" lon="7.804926808849316"><ele>403.0</ele><time>2026-05-03T17:03:14.975Z</time></trkpt><trkpt lat="45.47712896404026" lon="7.804999078961114"><ele>403.0</ele><time>2026-05-03T17:03:15.975Z</time></trkpt><trkpt lat="45.47703507035116" lon="7.8050251029715545"><ele>403.59999999999997</ele><time>2026-05-03T17:03:16.975Z</time></trkpt><trkpt lat="45.47693912403624" lon="7.805068038078604"><ele>404.2</ele><time>2026-05-03T17:03:17.975Z</time></trkpt><trkpt lat="45.47683583618609" lon="7.805087557634725"><ele>404.8</ele><time>2026-05-03T17:03:18.975Z</time></trkpt><trkpt lat="45.476724083128396" lon="7.805117935117566"><ele>405.4</ele><time>2026-05-03T17:03:19.976Z</time></trkpt><trkpt lat="45.47662652071117" lon="7.805104303735094"><ele>406.0</ele><time>2026-05-03T17:03:20.976Z</time></trkpt><trkpt lat="45.47653572301805" lon="7.805139764161334"><ele>402.8</ele><time>2026-05-03T17:03:21.976Z</time></trkpt><trkpt lat="45.47643932634665" lon="7.805184029896659"><ele>399.6</ele><time>2026-05-03T17:03:22.976Z</time></trkpt><trkpt lat="45.47634343589565" lon="7.805230081905343"><ele>396.4</ele><time>2026-05-03T17:03:23.976Z</time></trkpt><trkpt lat="45.4762494779574" lon="7.805281846538106"><ele>393.2</ele><time>2026-05-03T17:03:24.976Z</time></trkpt><trkpt lat="45.47615848809775" lon="7.805330357583912"><ele>390.0</ele><time>2026-05-03T17:03:25.976Z</time></trkpt><trkpt lat="45.47606653167055" lon="7.805374498830397"><ele>389.2</ele><time>2026-05-03T17:03:26.976Z</time></trkpt><trkpt lat="45.47597375832062" lon="7.805423483461842"><ele>388.4</ele><time>2026-05-03T17:03:27.976Z</time></trkpt><trkpt lat="45.47587774526266" lon="7.805455503566237"><ele>387.6</ele><time>2026-05-03T17:03:28.976Z</time></trkpt><trkpt lat="45.47579224084737" lon="7.805472771942846"><ele>386.8</ele><time>2026-05-03T17:03:29.976Z</time></trkpt><trkpt lat="45.475700068851616" lon="7.805458576389999"><ele>386.0</ele><time>2026-05-03T17:03:30.976Z</time></trkpt><trkpt lat="45.47560575555444" lon="7.805410595732184"><ele>386.0</ele><time>2026-05-03T17:03:31.976Z</time></trkpt><trkpt lat="45.47551883145824" lon="7.805367876225804"><ele>386.0</ele><time>2026-05-03T17:03:32.976Z</time></trkpt><trkpt lat="45.47542806908707" lon="7.805327708395404"><ele>386.0</ele><time>2026-05-03T17:03:33.976Z</time></trkpt><trkpt lat="45.47533885271573" lon="7.80529672340099"><ele>386.0</ele><time>2026-05-03T17:03:34.976Z</time></trkpt><trkpt lat="45.4752429505951" lon="7.805288096934596"><ele>386.0</ele><time>2026-05-03T17:03:35.976Z</time></trkpt><trkpt lat="45.47516081857825" lon="7.805237016210797"><ele>385.0</ele><time>2026-05-03T17:03:36.976Z</time></trkpt><trkpt lat="45.47507399433629" lon="7.805222645329931"><ele>384.0</ele><time>2026-05-03T17:03:37.976Z</time></trkpt><trkpt lat="45.474974205862914" lon="7.805213073816153"><ele>383.0</ele><time>2026-05-03T17:03:38.976Z</time></trkpt><trkpt lat="45.47488421331081" lon="7.805210651042189"><ele>382.0</ele><time>2026-05-03T17:03:39.976Z</time></trkpt><trkpt lat="45.47478667072239" lon="7.805227064254135"><ele>381.0</ele><time>2026-05-03T17:03:40.976Z</time></trkpt><trkpt lat="45.47469478860413" lon="7.805277064134704"><ele>380.20000000000005</ele><time>2026-05-03T17:03:41.976Z</time></trkpt><trkpt lat="45.474604477937234" lon="7.805341983112941"><ele>379.40000000000003</ele><time>2026-05-03T17:03:42.976Z</time></trkpt><trkpt lat="45.474503391116265" lon="7.805372392946495"><ele>378.6</ele><time>2026-05-03T17:03:43.977Z</time></trkpt><trkpt lat="45.47440624493777" lon="7.805374667424667"><ele>377.8</ele><time>2026-05-03T17:03:44.977Z</time></trkpt><trkpt lat="45.4743088042579" lon="7.80537042163132"><ele>377.0</ele><time>2026-05-03T17:03:45.977Z</time></trkpt><trkpt lat="45.47420387741895" lon="7.805349134980924"><ele>377.0</ele><time>2026-05-03T17:03:46.977Z</time></trkpt><trkpt lat="45.47410162801385" lon="7.805328018959754"><ele>377.0</ele><time>2026-05-03T17:03:47.977Z</time></trkpt><trkpt lat="45.473989845262516" lon="7.805294977955508"><ele>377.0</ele><time>2026-05-03T17:03:48.973Z</time></trkpt><trkpt lat="45.47388547154862" lon="7.805292728362564"><ele>377.0</ele><time>2026-05-03T17:03:49.973Z</time></trkpt><trkpt lat="45.47378129879744" lon="7.805300793816954"><ele>377.0</ele><time>2026-05-03T17:03:50.973Z</time></trkpt><trkpt lat="45.47368977225691" lon="7.805404861086194"><ele>376.40000000000003</ele><time>2026-05-03T17:03:51.973Z</time></trkpt><trkpt lat="45.47363185437423" lon="7.805487461138868"><ele>375.8</ele><time>2026-05-03T17:03:52.973Z</time></trkpt><trkpt lat="45.47354648427952" lon="7.80554824698166"><ele>375.2</ele><time>2026-05-03T17:03:53.973Z</time></trkpt><trkpt lat="45.47342840413753" lon="7.805599222599339"><ele>374.6</ele><time>2026-05-03T17:03:54.973Z</time></trkpt><trkpt lat="45.47332385024107" lon="7.805618111180157"><ele>374.0</ele><time>2026-05-03T17:03:55.973Z</time></trkpt><trkpt lat="45.473211734002895" lon="7.805670498086084"><ele>374.0</ele><time>2026-05-03T17:03:56.973Z</time></trkpt><trkpt lat="45.47309888521291" lon="7.805713836173827"><ele>374.0</ele><time>2026-05-03T17:03:57.973Z</time></trkpt><trkpt lat="45.47297727478645" lon="7.805757232553272"><ele>374.0</ele><time>2026-05-03T17:03:58.973Z</time></trkpt><trkpt lat="45.47285656579176" lon="7.805798669432879"><ele>374.0</ele><time>2026-05-03T17:03:59.973Z</time></trkpt><trkpt lat="45.472737537129646" lon="7.8058405498262236"><ele>375.0</ele><time>2026-05-03T17:04:00.973Z</time></trkpt><trkpt lat="45.47262205590203" lon="7.80589327536166"><ele>376.0</ele><time>2026-05-03T17:04:01.973Z</time></trkpt><trkpt lat="45.472512765028576" lon="7.805953530680141"><ele>377.0</ele><time>2026-05-03T17:04:02.973Z</time></trkpt><trkpt lat="45.47241068010142" lon="7.806021868894562"><ele>378.0</ele><time>2026-05-03T17:04:03.973Z</time></trkpt><trkpt lat="45.47230538850991" lon="7.806131541759559"><ele>375.25</ele><time>2026-05-03T17:04:04.973Z</time></trkpt><trkpt lat="45.47219422551183" lon="7.806255546395717"><ele>372.5</ele><time>2026-05-03T17:04:05.973Z</time></trkpt><trkpt lat="45.47207921163429" lon="7.806326681707361"><ele>369.75</ele><time>2026-05-03T17:04:06.973Z</time></trkpt><trkpt lat="45.47197687961511" lon="7.806404824375942"><ele>367.0</ele><time>2026-05-03T17:04:07.973Z</time></trkpt><trkpt lat="45.47187041115929" lon="7.806466150471301"><ele>367.0</ele><time>2026-05-03T17:04:08.973Z</time></trkpt><trkpt lat="45.47176930917231" lon="7.806529477656267"><ele>367.0</ele><time>2026-05-03T17:04:09.973Z</time></trkpt><trkpt lat="45.47167454273565" lon="7.806617207239451"><ele>367.0</ele><time>2026-05-03T17:04:10.973Z</time></trkpt><trkpt lat="45.47160001514349" lon="7.806746907462349"><ele>367.0</ele><time>2026-05-03T17:04:11.973Z</time></trkpt><trkpt lat="45.47153716478469" lon="7.806842463871521"><ele>367.0</ele><time>2026-05-03T17:04:12.973Z</time></trkpt><trkpt lat="45.47147574781596" lon="7.806908973069093"><ele>362.8</ele><time>2026-05-03T17:04:13.973Z</time></trkpt><trkpt lat="45.47138829787391" lon="7.806936359890144"><ele>358.6</ele><time>2026-05-03T17:04:14.973Z</time></trkpt><trkpt lat="45.47128045205822" lon="7.806927102650702"><ele>354.40000000000003</ele><time>2026-05-03T17:04:15.973Z</time></trkpt><trkpt lat="45.47119610557957" lon="7.8069115676622065"><ele>350.20000000000005</ele><time>2026-05-03T17:04:16.973Z</time></trkpt><trkpt lat="45.47112201858566" lon="7.806929859767796"><ele>346.0</ele><time>2026-05-03T17:04:17.973Z</time></trkpt><trkpt lat="45.47106704939369" lon="7.807052226644491"><ele>346.0</ele><time>2026-05-03T17:04:19.973Z</time></trkpt><trkpt lat="45.47114658502228" lon="7.8071983932661455"><ele>346.0</ele><time>2026-05-03T17:04:21.973Z</time></trkpt><trkpt lat="45.471233421360374" lon="7.807224505310273"><ele>346.0</ele><time>2026-05-03T17:04:22.973Z</time></trkpt><trkpt lat="45.47132104569741" lon="7.807203706759061"><ele>346.0</ele><time>2026-05-03T17:04:23.973Z</time></trkpt><trkpt lat="45.47141939614876" lon="7.807196092731032"><ele>346.0</ele><time>2026-05-03T17:04:24.973Z</time></trkpt><trkpt lat="45.471524066276935" lon="7.80716837692713"><ele>346.0</ele><time>2026-05-03T17:04:25.973Z</time></trkpt><trkpt lat="45.47163583519414" lon="7.807177493520381"><ele>346.0</ele><time>2026-05-03T17:04:26.973Z</time></trkpt><trkpt lat="45.47176158116408" lon="7.8071531148775515"><ele>346.0</ele><time>2026-05-03T17:04:27.973Z</time></trkpt><trkpt lat="45.47188522660661" lon="7.8070878073215"><ele>346.0</ele><time>2026-05-03T17:04:28.973Z</time></trkpt><trkpt lat="45.471998834128485" lon="7.806990836467386"><ele>344.25</ele><time>2026-05-03T17:04:29.973Z</time></trkpt><trkpt lat="45.47212113723028" lon="7.806946621800926"><ele>342.5</ele><time>2026-05-03T17:04:30.974Z</time></trkpt><trkpt lat="45.47223136232784" lon="7.806934038807937"><ele>340.75</ele><time>2026-05-03T17:04:31.974Z</time></trkpt><trkpt lat="45.472346847589726" lon="7.806962836790284"><ele>339.0</ele><time>2026-05-03T17:04:32.974Z</time></trkpt><trkpt lat="45.47245676861841" lon="7.807009496419947"><ele>339.0</ele><time>2026-05-03T17:04:33.974Z</time></trkpt><trkpt lat="45.47257043037616" lon="7.806994718454254"><ele>339.0</ele><time>2026-05-03T17:04:34.974Z</time></trkpt><trkpt lat="45.47269018576239" lon="7.8069539421234255"><ele>339.0</ele><time>2026-05-03T17:04:35.974Z</time></trkpt><trkpt lat="45.47280198405833" lon="7.806920840983148"><ele>339.0</ele><time>2026-05-03T17:04:36.974Z</time></trkpt><trkpt lat="45.47291622823746" lon="7.806899169372859"><ele>338.25</ele><time>2026-05-03T17:04:37.974Z</time></trkpt><trkpt lat="45.47304936250213" lon="7.806913522137972"><ele>337.5</ele><time>2026-05-03T17:04:38.974Z</time></trkpt><trkpt lat="45.47317678942108" lon="7.80697217439199"><ele>336.75</ele><time>2026-05-03T17:04:39.974Z</time></trkpt><trkpt lat="45.47330134712028" lon="7.807043086287215"><ele>336.0</ele><time>2026-05-03T17:04:40.974Z</time></trkpt><trkpt lat="45.47342013017932" lon="7.807117626470124"><ele>336.0</ele><time>2026-05-03T17:04:41.974Z</time></trkpt><trkpt lat="45.4735325411821" lon="7.807198092064203"><ele>336.0</ele><time>2026-05-03T17:04:42.974Z</time></trkpt><trkpt lat="45.47364804331993" lon="7.807278903558833"><ele>336.0</ele><time>2026-05-03T17:04:43.974Z</time></trkpt><trkpt lat="45.473761701241344" lon="7.807356021447727"><ele>336.0</ele><time>2026-05-03T17:04:44.974Z</time></trkpt><trkpt lat="45.47385984800098" lon="7.8074559079672765"><ele>335.8</ele><time>2026-05-03T17:04:45.974Z</time></trkpt><trkpt lat="45.473948802158276" lon="7.807563047761315"><ele>335.6</ele><time>2026-05-03T17:04:46.974Z</time></trkpt><trkpt lat="45.47401418058955" lon="7.807689858668278"><ele>335.4</ele><time>2026-05-03T17:04:47.974Z</time></trkpt><trkpt lat="45.47403683541413" lon="7.807828406924309"><ele>335.2</ele><time>2026-05-03T17:04:48.974Z</time></trkpt><trkpt lat="45.474059417934356" lon="7.80798016269899"><ele>335.0</ele><time>2026-05-03T17:04:49.974Z</time></trkpt><trkpt lat="45.47410407220015" lon="7.808098208264495"><ele>335.0</ele><time>2026-05-03T17:04:50.974Z</time></trkpt><trkpt lat="45.474181726709375" lon="7.808238069444192"><ele>335.0</ele><time>2026-05-03T17:04:51.974Z</time></trkpt><trkpt lat="45.47426786409822" lon="7.808354044314856"><ele>335.0</ele><time>2026-05-03T17:04:52.974Z</time></trkpt><trkpt lat="45.474351473716304" lon="7.8084672418054435"><ele>335.0</ele><time>2026-05-03T17:04:53.974Z</time></trkpt><trkpt lat="45.47443645018878" lon="7.808573224599737"><ele>333.75</ele><time>2026-05-03T17:04:54.974Z</time></trkpt><trkpt lat="45.474525897098346" lon="7.80868569902364"><ele>332.5</ele><time>2026-05-03T17:04:55.974Z</time></trkpt><trkpt lat="45.47461286733712" lon="7.808790185283796"><ele>331.25</ele><time>2026-05-03T17:04:56.974Z</time></trkpt><trkpt lat="45.474692606209885" lon="7.808904439735598"><ele>330.0</ele><time>2026-05-03T17:04:57.974Z</time></trkpt><trkpt lat="45.47476193320921" lon="7.809023960691997"><ele>330.0</ele><time>2026-05-03T17:04:58.974Z</time></trkpt><trkpt lat="45.47483521755412" lon="7.809146438359558"><ele>330.0</ele><time>2026-05-03T17:04:59.974Z</time></trkpt><trkpt lat="45.474905293117914" lon="7.809274340077143"><ele>330.0</ele><time>2026-05-03T17:05:00.974Z</time></trkpt><trkpt lat="45.4749723467968" lon="7.809395535724115"><ele>330.0</ele><time>2026-05-03T17:05:01.974Z</time></trkpt><trkpt lat="45.47503709938389" lon="7.809506573601435"><ele>330.0</ele><time>2026-05-03T17:05:02.974Z</time></trkpt><trkpt lat="45.475113862347484" lon="7.809623143922423"><ele>329.2</ele><time>2026-05-03T17:05:03.974Z</time></trkpt><trkpt lat="45.475203720974946" lon="7.809736007377265"><ele>328.4</ele><time>2026-05-03T17:05:04.974Z</time></trkpt><trkpt lat="45.475301732754794" lon="7.809819986250818"><ele>327.6</ele><time>2026-05-03T17:05:05.974Z</time></trkpt><trkpt lat="45.47539218959797" lon="7.8098824042622255"><ele>326.8</ele><time>2026-05-03T17:05:06.974Z</time></trkpt><trkpt lat="45.47546482826079" lon="7.809908026440097"><ele>326.0</ele><time>2026-05-03T17:05:07.974Z</time></trkpt><trkpt lat="45.47553822890706" lon="7.8099543001174005"><ele>326.0</ele><time>2026-05-03T17:05:08.974Z</time></trkpt><trkpt lat="45.475604018757714" lon="7.81007358424521"><ele>326.0</ele><time>2026-05-03T17:05:10.974Z</time></trkpt><trkpt lat="45.475575511362514" lon="7.810207228187827"><ele>326.0</ele><time>2026-05-03T17:05:11.974Z</time></trkpt><trkpt lat="45.47555584513705" lon="7.810351354864074"><ele>326.0</ele><time>2026-05-03T17:05:12.974Z</time></trkpt><trkpt lat="45.47547498422452" lon="7.810495907192691"><ele>326.0</ele><time>2026-05-03T17:05:13.975Z</time></trkpt><trkpt lat="45.47541023271095" lon="7.810618857552118"><ele>323.40000000000003</ele><time>2026-05-03T17:05:14.975Z</time></trkpt><trkpt lat="45.475344746760875" lon="7.810717278611501"><ele>320.8</ele><time>2026-05-03T17:05:15.975Z</time></trkpt><trkpt lat="45.4752681851059" lon="7.810778391529119"><ele>318.20000000000005</ele><time>2026-05-03T17:05:16.975Z</time></trkpt><trkpt lat="45.475182707856646" lon="7.810785742799521"><ele>315.6</ele><time>2026-05-03T17:05:17.975Z</time></trkpt><trkpt lat="45.47509435977559" lon="7.8106836365608405"><ele>313.0</ele><time>2026-05-03T17:05:18.975Z</time></trkpt><trkpt lat="45.47501943581523" lon="7.810623422394158"><ele>313.0</ele><time>2026-05-03T17:05:19.975Z</time></trkpt><trkpt lat="45.47495716068833" lon="7.8105295263034975"><ele>313.0</ele><time>2026-05-03T17:05:20.975Z</time></trkpt><trkpt lat="45.47494751330782" lon="7.81035296656609"><ele>313.0</ele><time>2026-05-03T17:05:21.975Z</time></trkpt><trkpt lat="45.47489125904925" lon="7.810266523851179"><ele>313.0</ele><time>2026-05-03T17:05:22.975Z</time></trkpt><trkpt lat="45.47482875141385" lon="7.810139861485706"><ele>313.0</ele><time>2026-05-03T17:05:23.975Z</time></trkpt><trkpt lat="45.47474007350381" lon="7.8100767426369355"><ele>312.5</ele><time>2026-05-03T17:05:24.975Z</time></trkpt><trkpt lat="45.4746314574673" lon="7.809994521450635"><ele>312.0</ele><time>2026-05-03T17:05:25.975Z</time></trkpt><trkpt lat="45.474523202808925" lon="7.8099156243603245"><ele>311.5</ele><time>2026-05-03T17:05:26.975Z</time></trkpt><trkpt lat="45.47441426233412" lon="7.809856455874555"><ele>311.0</ele><time>2026-05-03T17:05:27.975Z</time></trkpt><trkpt lat="45.474316198388905" lon="7.809800720251503"><ele>311.0</ele><time>2026-05-03T17:05:28.975Z</time></trkpt><trkpt lat="45.47422981399954" lon="7.809783991263928"><ele>311.0</ele><time>2026-05-03T17:05:29.975Z</time></trkpt><trkpt lat="45.47415786248367" lon="7.809785544754488"><ele>311.0</ele><time>2026-05-03T17:05:30.975Z</time></trkpt><trkpt lat="45.47407297838695" lon="7.809930830853961"><ele>311.0</ele><time>2026-05-03T17:05:32.975Z</time></trkpt><trkpt lat="45.47410639022446" lon="7.810063673739615"><ele>311.0</ele><time>2026-05-03T17:05:33.975Z</time></trkpt><trkpt lat="45.474173469152475" lon="7.810174780174225"><ele>309.6</ele><time>2026-05-03T17:05:34.975Z</time></trkpt><trkpt lat="45.474237459652024" lon="7.810295660813357"><ele>308.20000000000005</ele><time>2026-05-03T17:05:35.975Z</time></trkpt><trkpt lat="45.47429643598017" lon="7.810408784677453"><ele>306.79999999999995</ele><time>2026-05-03T17:05:36.975Z</time></trkpt><trkpt lat="45.474351514980285" lon="7.810526021812661"><ele>305.4</ele><time>2026-05-03T17:05:37.975Z</time></trkpt><trkpt lat="45.474378176403754" lon="7.810645040150677"><ele>304.0</ele><time>2026-05-03T17:05:38.975Z</time></trkpt><trkpt lat="45.47439206753166" lon="7.81077353827614"><ele>304.0</ele><time>2026-05-03T17:05:39.975Z</time></trkpt><trkpt lat="45.474359402349634" lon="7.810901887106236"><ele>304.0</ele><time>2026-05-03T17:05:40.975Z</time></trkpt><trkpt lat="45.47435365527321" lon="7.811026361118835"><ele>304.0</ele><time>2026-05-03T17:05:41.975Z</time></trkpt><trkpt lat="45.47437243442689" lon="7.811147736909937"><ele>304.0</ele><time>2026-05-03T17:05:42.975Z</time></trkpt><trkpt lat="45.47441034359096" lon="7.811249968403954"><ele>304.0</ele><time>2026-05-03T17:05:43.975Z</time></trkpt><trkpt lat="45.47447841800655" lon="7.81135009097949"><ele>304.0</ele><time>2026-05-03T17:05:44.975Z</time></trkpt><trkpt lat="45.47454400352391" lon="7.811442322897798"><ele>303.8</ele><time>2026-05-03T17:05:45.975Z</time></trkpt><trkpt lat="45.47463605635538" lon="7.811486263771054"><ele>303.59999999999997</ele><time>2026-05-03T17:05:46.975Z</time></trkpt><trkpt lat="45.47472879937567" lon="7.811530598193545"><ele>303.4</ele><time>2026-05-03T17:05:47.975Z</time></trkpt><trkpt lat="45.474822357711986" lon="7.81153857713075"><ele>303.2</ele><time>2026-05-03T17:05:48.975Z</time></trkpt><trkpt lat="45.47491307165773" lon="7.811565526153569"><ele>303.0</ele><time>2026-05-03T17:05:49.975Z</time></trkpt><trkpt lat="45.475000714646086" lon="7.811612285311814"><ele>303.0</ele><time>2026-05-03T17:05:50.975Z</time></trkpt><trkpt lat="45.47507153112103" lon="7.8117051782345035"><ele>303.0</ele><time>2026-05-03T17:05:51.975Z</time></trkpt><trkpt lat="45.475119363222724" lon="7.811806284019082"><ele>303.0</ele><time>2026-05-03T17:05:52.975Z</time></trkpt><trkpt lat="45.47515934160907" lon="7.811935020740516"><ele>303.0</ele><time>2026-05-03T17:05:53.975Z</time></trkpt><trkpt lat="45.47517242198524" lon="7.812081410803879"><ele>303.0</ele><time>2026-05-03T17:05:54.973Z</time></trkpt><trkpt lat="45.475205624911545" lon="7.812228940163626"><ele>300.5</ele><time>2026-05-03T17:05:55.972Z</time></trkpt><trkpt lat="45.475229469790925" lon="7.812386358961709"><ele>298.0</ele><time>2026-05-03T17:05:56.972Z</time></trkpt><trkpt lat="45.47524810612729" lon="7.812548066798335"><ele>295.5</ele><time>2026-05-03T17:05:57.972Z</time></trkpt><trkpt lat="45.47527868969745" lon="7.812704582614582"><ele>293.0</ele><time>2026-05-03T17:05:58.972Z</time></trkpt><trkpt lat="45.475321749280425" lon="7.812854383707727"><ele>292.8</ele><time>2026-05-03T17:05:59.972Z</time></trkpt><trkpt lat="45.47536932554887" lon="7.813013670055001"><ele>292.6</ele><time>2026-05-03T17:06:00.973Z</time></trkpt><trkpt lat="45.47540462151165" lon="7.813156315399925"><ele>292.4</ele><time>2026-05-03T17:06:01.973Z</time></trkpt><trkpt lat="45.475439102349185" lon="7.813295145105367"><ele>292.2</ele><time>2026-05-03T17:06:02.973Z</time></trkpt><trkpt lat="45.47546749781836" lon="7.813435710338069"><ele>292.0</ele><time>2026-05-03T17:06:03.972Z</time></trkpt><trkpt lat="45.47550593675893" lon="7.813572706513369"><ele>292.0</ele><time>2026-05-03T17:06:04.972Z</time></trkpt><trkpt lat="45.47554156987167" lon="7.813702306197923"><ele>292.0</ele><time>2026-05-03T17:06:05.972Z</time></trkpt><trkpt lat="45.475573893460286" lon="7.813842814502551"><ele>292.0</ele><time>2026-05-03T17:06:06.972Z</time></trkpt><trkpt lat="45.475609221916855" lon="7.813966792871972"><ele>292.0</ele><time>2026-05-03T17:06:07.972Z</time></trkpt><trkpt lat="45.475634900918614" lon="7.81405779129377"><ele>292.0</ele><time>2026-05-03T17:06:08.972Z</time></trkpt><trkpt lat="45.47564605634625" lon="7.814163141243822"><ele>292.0</ele><time>2026-05-03T17:06:10.972Z</time></trkpt><trkpt lat="45.47545540408486" lon="7.814198028969056"><ele>290.4</ele><time>2026-05-03T17:06:14.972Z</time></trkpt><trkpt lat="45.475322138623895" lon="7.814186311214727"><ele>288.79999999999995</ele><time>2026-05-03T17:06:16.972Z</time></trkpt><trkpt lat="45.475257729826154" lon="7.814169396655956"><ele>287.2</ele><time>2026-05-03T17:06:17.972Z</time></trkpt><trkpt lat="45.475213093801834" lon="7.814278538208952"><ele>285.59999999999997</ele><time>2026-05-03T17:06:18.972Z</time></trkpt><trkpt lat="45.475159536756216" lon="7.814443111978947"><ele>284.0</ele><time>2026-05-03T17:06:20.972Z</time></trkpt><trkpt lat="45.47513272123368" lon="7.814537998194491"><ele>282.59999999999997</ele><time>2026-05-03T17:06:21.972Z</time></trkpt><trkpt lat="45.47509541644782" lon="7.814640697446228"><ele>281.2</ele><time>2026-05-03T17:06:22.972Z</time></trkpt><trkpt lat="45.47505768893511" lon="7.814751248162969"><ele>279.79999999999995</ele><time>2026-05-03T17:06:23.972Z</time></trkpt><trkpt lat="45.47501999424876" lon="7.814907781770556"><ele>278.4</ele><time>2026-05-03T17:06:24.972Z</time></trkpt><trkpt lat="45.47497969732575" lon="7.815051751571878"><ele>277.0</ele><time>2026-05-03T17:06:25.972Z</time></trkpt><trkpt lat="45.47493744369097" lon="7.815180964164649"><ele>276.3333333333333</ele><time>2026-05-03T17:06:26.972Z</time></trkpt><trkpt lat="45.47488921317164" lon="7.815277915968962"><ele>275.66666666666663</ele><time>2026-05-03T17:06:27.972Z</time></trkpt><trkpt lat="45.47487146033733" lon="7.8153931305121365"><ele>275.0</ele><time>2026-05-03T17:06:28.972Z</time></trkpt><trkpt lat="45.474837382049856" lon="7.815500661181895"><ele>274.3333333333333</ele><time>2026-05-03T17:06:29.972Z</time></trkpt><trkpt lat="45.47479850714489" lon="7.8155999093039314"><ele>273.6666666666667</ele><time>2026-05-03T17:06:30.972Z</time></trkpt><trkpt lat="45.47475824032097" lon="7.8156989832082395"><ele>273.0</ele><time>2026-05-03T17:06:31.972Z</time></trkpt><trkpt lat="45.47471961174941" lon="7.815801117386929"><ele>273.0</ele><time>2026-05-03T17:06:32.972Z</time></trkpt><trkpt lat="45.47467651918184" lon="7.8159073278205815"><ele>273.0</ele><time>2026-05-03T17:06:33.972Z</time></trkpt><trkpt lat="45.474640624281996" lon="7.816000343346118"><ele>273.0</ele><time>2026-05-03T17:06:34.972Z</time></trkpt><trkpt lat="45.47459405509377" lon="7.81610871085966"><ele>273.0</ele><time>2026-05-03T17:06:35.972Z</time></trkpt><trkpt lat="45.47453256861279" lon="7.816226267444105"><ele>273.0</ele><time>2026-05-03T17:06:36.972Z</time></trkpt><trkpt lat="45.47447665689111" lon="7.81635668546451"><ele>272.3333333333333</ele><time>2026-05-03T17:06:37.972Z</time></trkpt><trkpt lat="45.47443279485816" lon="7.816497459598291"><ele>271.6666666666667</ele><time>2026-05-03T17:06:38.972Z</time></trkpt><trkpt lat="45.474398129995066" lon="7.81661377617506"><ele>271.0</ele><time>2026-05-03T17:06:39.972Z</time></trkpt><trkpt lat="45.47438475617409" lon="7.816703038915827"><ele>270.33333333333337</ele><time>2026-05-03T17:06:40.972Z</time></trkpt><trkpt lat="45.474345987290654" lon="7.816803591192251"><ele>269.6666666666667</ele><time>2026-05-03T17:06:42.972Z</time></trkpt><trkpt lat="45.47434181793416" lon="7.816900076335011"><ele>269.0</ele><time>2026-05-03T17:06:44.972Z</time></trkpt><trkpt lat="45.4743125329879" lon="7.816996433016357"><ele>269.0</ele><time>2026-05-03T17:06:45.972Z</time></trkpt><trkpt lat="45.4743050752798" lon="7.817124037526065"><ele>269.0</ele><time>2026-05-03T17:06:46.972Z</time></trkpt><trkpt lat="45.474267316552556" lon="7.8172426788633"><ele>269.0</ele><time>2026-05-03T17:06:47.973Z</time></trkpt><trkpt lat="45.47423918283578" lon="7.817355760529814"><ele>269.0</ele><time>2026-05-03T17:06:48.973Z</time></trkpt><trkpt lat="45.474209530050125" lon="7.817484070370759"><ele>269.0</ele><time>2026-05-03T17:06:49.973Z</time></trkpt><trkpt lat="45.47418523771152" lon="7.817582122803085"><ele>269.0</ele><time>2026-05-03T17:06:50.973Z</time></trkpt><trkpt lat="45.47415748500811" lon="7.81767174290359"><ele>268.5</ele><time>2026-05-03T17:06:51.973Z</time></trkpt><trkpt lat="45.47411646760683" lon="7.8177913048094085"><ele>268.0</ele><time>2026-05-03T17:06:52.973Z</time></trkpt><trkpt lat="45.47406183031289" lon="7.817897294664614"><ele>267.5</ele><time>2026-05-03T17:06:53.973Z</time></trkpt><trkpt lat="45.47402441481499" lon="7.8180216559225055"><ele>267.0</ele><time>2026-05-03T17:06:55.973Z</time></trkpt><trkpt lat="45.47403690190794" lon="7.818123926129522"><ele>266.5</ele><time>2026-05-03T17:06:56.973Z</time></trkpt><trkpt lat="45.474059099920666" lon="7.81823453633939"><ele>266.0</ele><time>2026-05-03T17:06:57.973Z</time></trkpt><trkpt lat="45.4740703015586" lon="7.818379682632473"><ele>266.0</ele><time>2026-05-03T17:06:58.973Z</time></trkpt><trkpt lat="45.47406998778821" lon="7.818527311114006"><ele>266.0</ele><time>2026-05-03T17:06:59.973Z</time></trkpt><trkpt lat="45.47407982686346" lon="7.818655474540042"><ele>266.0</ele><time>2026-05-03T17:07:00.973Z</time></trkpt><trkpt lat="45.474087257038036" lon="7.818763399657952"><ele>266.0</ele><time>2026-05-03T17:07:01.973Z</time></trkpt><trkpt lat="45.47409366851206" lon="7.818875038306384"><ele>266.0</ele><time>2026-05-03T17:07:02.973Z</time></trkpt><trkpt lat="45.47408855801862" lon="7.818988309886625"><ele>266.0</ele><time>2026-05-03T17:07:03.973Z</time></trkpt><trkpt lat="45.47408006482265" lon="7.819098742962542"><ele>266.0</ele><time>2026-05-03T17:07:04.973Z</time></trkpt><trkpt lat="45.47408378097386" lon="7.819223812999262"><ele>266.0</ele><time>2026-05-03T17:07:05.973Z</time></trkpt><trkpt lat="45.47410711786986" lon="7.8193511607990125"><ele>266.0</ele><time>2026-05-03T17:07:06.973Z</time></trkpt><trkpt lat="45.47411049900956" lon="7.81944763491532"><ele>266.0</ele><time>2026-05-03T17:07:07.973Z</time></trkpt><trkpt lat="45.47411712836401" lon="7.819543666303713"><ele>266.0</ele><time>2026-05-03T17:07:08.973Z</time></trkpt><trkpt lat="45.474115001571775" lon="7.819652149740535"><ele>266.0</ele><time>2026-05-03T17:07:09.973Z</time></trkpt><trkpt lat="45.47411661837087" lon="7.8197479287754135"><ele>265.40000000000003</ele><time>2026-05-03T17:07:10.973Z</time></trkpt><trkpt lat="45.47408574952887" lon="7.819860499267228"><ele>264.8</ele><time>2026-05-03T17:07:12.973Z</time></trkpt><trkpt lat="45.4740501491835" lon="7.819955114032817"><ele>264.20000000000005</ele><time>2026-05-03T17:07:14.973Z</time></trkpt><trkpt lat="45.47405321551399" lon="7.820090118337511"><ele>263.6</ele><time>2026-05-03T17:07:16.973Z</time></trkpt><trkpt lat="45.474007073996916" lon="7.820254206060041"><ele>263.0</ele><time>2026-05-03T17:07:18.973Z</time></trkpt><trkpt lat="45.47397541799976" lon="7.820387418130451"><ele>265.6</ele><time>2026-05-03T17:07:20.973Z</time></trkpt><trkpt lat="45.47393084838227" lon="7.820525242489351"><ele>268.20000000000005</ele><time>2026-05-03T17:07:22.973Z</time></trkpt><trkpt lat="45.473893628700516" lon="7.820664860491678"><ele>270.8</ele><time>2026-05-03T17:07:24.973Z</time></trkpt><trkpt lat="45.47386474916363" lon="7.820784345980896"><ele>273.40000000000003</ele><time>2026-05-03T17:07:26.973Z</time></trkpt><trkpt lat="45.473825110556874" lon="7.820897615409779"><ele>276.0</ele><time>2026-05-03T17:07:28.973Z</time></trkpt><trkpt lat="45.47378555344584" lon="7.821038426844279"><ele>281.2</ele><time>2026-05-03T17:07:30.973Z</time></trkpt><trkpt lat="45.47375536104363" lon="7.821170816799991"><ele>286.40000000000003</ele><time>2026-05-03T17:07:32.974Z</time></trkpt><trkpt lat="45.47374237642794" lon="7.821316096445687"><ele>291.6</ele><time>2026-05-03T17:07:34.974Z</time></trkpt><trkpt lat="45.4736977451095" lon="7.8213974287174555"><ele>296.8</ele><time>2026-05-03T17:07:36.974Z</time></trkpt><trkpt lat="45.47367512168297" lon="7.821590116335362"><ele>302.0</ele><time>2026-05-03T17:07:38.974Z</time></trkpt><trkpt lat="45.47365609688969" lon="7.821689804150035"><ele>302.00000000000006</ele><time>2026-05-03T17:07:40.974Z</time></trkpt><trkpt lat="45.47363204595534" lon="7.821802058256424"><ele>302.0</ele><time>2026-05-03T17:07:42.974Z</time></trkpt><trkpt lat="45.47357232846125" lon="7.821854207647936"><ele>302.0</ele><time>2026-05-03T17:07:45.974Z</time></trkpt><trkpt lat="45.47350986346676" lon="7.821900502388839"><ele>302.0</ele><time>2026-05-03T17:07:50.974Z</time></trkpt><trkpt lat="45.47345204238797" lon="7.82195295166946"><ele>302.0</ele><time>2026-05-03T17:07:56.974Z</time></trkpt><trkpt lat="45.473422204586704" lon="7.822032640054667"><ele>302.00000000000006</ele><time>2026-05-03T17:08:56.972Z</time></trkpt><trkpt lat="45.47345762317251" lon="7.822113184701812"><ele>302.0</ele><time>2026-05-03T17:08:59.972Z</time></trkpt><trkpt lat="45.473516832700966" lon="7.822156920493913"><ele>303.7142857142857</ele><time>2026-05-03T17:09:02.973Z</time></trkpt><trkpt lat="45.473565812790355" lon="7.822218269316643"><ele>305.42857142857144</ele><time>2026-05-03T17:09:06.973Z</time></trkpt><trkpt lat="45.47361282780595" lon="7.82232756785119"><ele>307.1428571428571</ele><time>2026-05-03T17:09:09.973Z</time></trkpt><trkpt lat="45.47366136296898" lon="7.822407758162345"><ele>308.8571428571429</ele><time>2026-05-03T17:09:12.973Z</time></trkpt><trkpt lat="45.4736912652425" lon="7.822491593571397"><ele>310.57142857142856</ele><time>2026-05-03T17:09:14.973Z</time></trkpt><trkpt lat="45.47371152216016" lon="7.822606276092312"><ele>312.2857142857143</ele><time>2026-05-03T17:09:16.973Z</time></trkpt><trkpt lat="45.47368091538129" lon="7.82269244733693"><ele>314.0</ele><time>2026-05-03T17:09:18.973Z</time></trkpt><trkpt lat="45.47366687224844" lon="7.822785288720926"><ele>314.6666666666667</ele><time>2026-05-03T17:09:20.973Z</time></trkpt><trkpt lat="45.4737075476457" lon="7.82292327156378"><ele>315.33333333333337</ele><time>2026-05-03T17:09:22.973Z</time></trkpt><trkpt lat="45.47371722990406" lon="7.823037816292133"><ele>316.0</ele><time>2026-05-03T17:09:24.973Z</time></trkpt><trkpt lat="45.473732255847814" lon="7.823130772089314"><ele>316.6666666666667</ele><time>2026-05-03T17:09:25.973Z</time></trkpt><trkpt lat="45.47376898181921" lon="7.823235878459114"><ele>317.3333333333333</ele><time>2026-05-03T17:09:27.973Z</time></trkpt><trkpt lat="45.473824925661475" lon="7.823354913399483"><ele>318.0</ele><time>2026-05-03T17:09:29.973Z</time></trkpt><trkpt lat="45.47385879193585" lon="7.823477487939539"><ele>318.0</ele><time>2026-05-03T17:09:31.973Z</time></trkpt><trkpt lat="45.47387024004037" lon="7.8235771719217295"><ele>318.0</ele><time>2026-05-03T17:09:35.973Z</time></trkpt><trkpt lat="45.47385630520461" lon="7.82368770798411"><ele>318.0</ele><time>2026-05-03T17:09:40.973Z</time></trkpt><trkpt lat="45.47381296889741" lon="7.823772290581757"><ele>318.0</ele><time>2026-05-03T17:10:10.971Z</time></trkpt><trkpt lat="45.473747646463245" lon="7.823766396008311"><ele>318.0</ele><time>2026-05-03T17:10:13.971Z</time></trkpt><trkpt lat="45.473687361889304" lon="7.823707104657077"><ele>318.0</ele><time>2026-05-03T17:10:15.971Z</time></trkpt><trkpt lat="45.47362133050307" lon="7.823647605785289"><ele>318.0</ele><time>2026-05-03T17:10:17.97Z</time></trkpt><trkpt lat="45.47355206781615" lon="7.823615414220581"><ele>320.4</ele><time>2026-05-03T17:10:19.971Z</time></trkpt><trkpt lat="45.47342706067564" lon="7.823605256784742"><ele>322.8</ele><time>2026-05-03T17:10:21.971Z</time></trkpt><trkpt lat="45.47336106779578" lon="7.823579071616551"><ele>325.2</ele><time>2026-05-03T17:10:22.971Z</time></trkpt><trkpt lat="45.47327993485852" lon="7.823546232636771"><ele>327.6</ele><time>2026-05-03T17:10:23.971Z</time></trkpt><trkpt lat="45.47320511316553" lon="7.823527160235973"><ele>330.0</ele><time>2026-05-03T17:10:24.971Z</time></trkpt><trkpt lat="45.47310138520187" lon="7.823517311782288"><ele>330.4</ele><time>2026-05-03T17:10:26.971Z</time></trkpt><trkpt lat="45.473033999578206" lon="7.823451874392483"><ele>330.8</ele><time>2026-05-03T17:10:28.971Z</time></trkpt><trkpt lat="45.47294751215117" lon="7.8233774531768265"><ele>331.20000000000005</ele><time>2026-05-03T17:10:30.971Z</time></trkpt><trkpt lat="45.47286768721537" lon="7.823266222717804"><ele>331.6</ele><time>2026-05-03T17:10:32.971Z</time></trkpt><trkpt lat="45.472819534850736" lon="7.823194015606197"><ele>332.0</ele><time>2026-05-03T17:10:33.971Z</time></trkpt><trkpt lat="45.47275238634862" lon="7.823104164114161"><ele>332.0</ele><time>2026-05-03T17:10:35.971Z</time></trkpt><trkpt lat="45.47268926475706" lon="7.823100855571731"><ele>332.0</ele><time>2026-05-03T17:10:37.971Z</time></trkpt><trkpt lat="45.472631694160256" lon="7.823019300408972"><ele>332.0</ele><time>2026-05-03T17:10:39.971Z</time></trkpt><trkpt lat="45.47258620897107" lon="7.822905042837571"><ele>332.0</ele><time>2026-05-03T17:10:41.971Z</time></trkpt><trkpt lat="45.47251927453087" lon="7.822808324929589"><ele>332.0</ele><time>2026-05-03T17:10:43.971Z</time></trkpt><trkpt lat="45.47246705496469" lon="7.822730374782373"><ele>332.0</ele><time>2026-05-03T17:10:44.971Z</time></trkpt><trkpt lat="45.472440658521755" lon="7.822627203509337"><ele>330.6666666666667</ele><time>2026-05-03T17:10:45.971Z</time></trkpt><trkpt lat="45.47240233152086" lon="7.8225218146465885"><ele>329.33333333333337</ele><time>2026-05-03T17:10:46.971Z</time></trkpt><trkpt lat="45.47235704889082" lon="7.822414275262373"><ele>328.0</ele><time>2026-05-03T17:10:47.971Z</time></trkpt><trkpt lat="45.47228304331116" lon="7.822341262186627"><ele>326.6666666666667</ele><time>2026-05-03T17:10:48.971Z</time></trkpt><trkpt lat="45.47221709867122" lon="7.822319177074955"><ele>325.3333333333333</ele><time>2026-05-03T17:10:49.971Z</time></trkpt><trkpt lat="45.47210530759089" lon="7.822310596566253"><ele>324.0</ele><time>2026-05-03T17:10:51.971Z</time></trkpt><trkpt lat="45.472000895696524" lon="7.822383880322985"><ele>324.42857142857144</ele><time>2026-05-03T17:10:53.971Z</time></trkpt><trkpt lat="45.47193460527144" lon="7.822453780100372"><ele>324.85714285714283</ele><time>2026-05-03T17:10:55.971Z</time></trkpt><trkpt lat="45.47186160786409" lon="7.822502478847796"><ele>325.2857142857143</ele><time>2026-05-03T17:10:59.972Z</time></trkpt><trkpt lat="45.47178260838547" lon="7.822547933941299"><ele>325.7142857142857</ele><time>2026-05-03T17:11:03.972Z</time></trkpt><trkpt lat="45.47171921838414" lon="7.822538813221724"><ele>326.14285714285717</ele><time>2026-05-03T17:11:23.972Z</time></trkpt><trkpt lat="45.471783421262764" lon="7.82251231149661"><ele>326.57142857142856</ele><time>2026-05-03T17:11:33.972Z</time></trkpt><trkpt lat="45.47183059462812" lon="7.8224472499888265"><ele>327.0</ele><time>2026-05-03T17:11:36.972Z</time></trkpt><trkpt lat="45.47178348595646" lon="7.822652256850209"><ele>327.0</ele><time>2026-05-03T17:11:45.973Z</time></trkpt><trkpt lat="45.47176990226542" lon="7.822742560457652"><ele>327.0</ele><time>2026-05-03T17:11:47.973Z</time></trkpt><trkpt lat="45.471738865271604" lon="7.822853548539367"><ele>327.0</ele><time>2026-05-03T17:11:49.973Z</time></trkpt><trkpt lat="45.47170608720064" lon="7.822993295751777"><ele>327.0</ele><time>2026-05-03T17:11:51.973Z</time></trkpt><trkpt lat="45.471709653168325" lon="7.823090642737861"><ele>327.0</ele><time>2026-05-03T17:11:52.973Z</time></trkpt><trkpt lat="45.47173204262925" lon="7.8232133733936315"><ele>327.0</ele><time>2026-05-03T17:11:53.973Z</time></trkpt><trkpt lat="45.47175377790629" lon="7.823349381202555"><ele>327.0</ele><time>2026-05-03T17:11:54.973Z</time></trkpt><trkpt lat="45.471771932875114" lon="7.823449513714984"><ele>327.0</ele><time>2026-05-03T17:11:55.973Z</time></trkpt><trkpt lat="45.47179027763191" lon="7.823546723166755"><ele>327.0</ele><time>2026-05-03T17:11:56.973Z</time></trkpt><trkpt lat="45.47180991371423" lon="7.823642404149611"><ele>327.0</ele><time>2026-05-03T17:11:57.973Z</time></trkpt><trkpt lat="45.47184032805196" lon="7.823722051725117"><ele>327.0</ele><time>2026-05-03T17:11:58.973Z</time></trkpt><trkpt lat="45.47188244100147" lon="7.823802507175013"><ele>327.0</ele><time>2026-05-03T17:11:59.973Z</time></trkpt><trkpt lat="45.47191522875728" lon="7.82387914728568"><ele>327.0</ele><time>2026-05-03T17:12:00.973Z</time></trkpt><trkpt lat="45.471937172628806" lon="7.823969700691467"><ele>326.8333333333333</ele><time>2026-05-03T17:12:01.973Z</time></trkpt><trkpt lat="45.47191137109781" lon="7.824084916660783"><ele>326.6666666666667</ele><time>2026-05-03T17:12:02.973Z</time></trkpt><trkpt lat="45.471890400955154" lon="7.824183435929194"><ele>326.5</ele><time>2026-05-03T17:12:03.973Z</time></trkpt><trkpt lat="45.471845430471525" lon="7.8243142168385384"><ele>326.33333333333337</ele><time>2026-05-03T17:12:05.973Z</time></trkpt><trkpt lat="45.47179365686706" lon="7.824408279577036"><ele>326.1666666666667</ele><time>2026-05-03T17:12:07.973Z</time></trkpt><trkpt lat="45.471743743112164" lon="7.824507784578836"><ele>326.0</ele><time>2026-05-03T17:12:09.973Z</time></trkpt><trkpt lat="45.47173878707222" lon="7.8246041966130075"><ele>326.0</ele><time>2026-05-03T17:12:12.969Z</time></trkpt><trkpt lat="45.47172288439" lon="7.824705142043718"><ele>326.0</ele><time>2026-05-03T17:12:18.969Z</time></trkpt><trkpt lat="45.471735376547144" lon="7.824801935783736"><ele>326.0</ele><time>2026-05-03T17:12:20.969Z</time></trkpt><trkpt lat="45.471749755307435" lon="7.824911291100148"><ele>326.0</ele><time>2026-05-03T17:12:21.969Z</time></trkpt><trkpt lat="45.47176383834178" lon="7.825002810870657"><ele>326.0</ele><time>2026-05-03T17:12:22.969Z</time></trkpt><trkpt lat="45.471797631681746" lon="7.8250978569148355"><ele>326.0</ele><time>2026-05-03T17:12:24.969Z</time></trkpt><trkpt lat="45.47183084860219" lon="7.825229358284808"><ele>324.75</ele><time>2026-05-03T17:12:26.969Z</time></trkpt><trkpt lat="45.47185837687002" lon="7.825415127180097"><ele>323.5</ele><time>2026-05-03T17:12:28.969Z</time></trkpt><trkpt lat="45.4718812416003" lon="7.825594045564149"><ele>322.25</ele><time>2026-05-03T17:12:30.969Z</time></trkpt><trkpt lat="45.471911947275004" lon="7.825759723981071"><ele>321.0</ele><time>2026-05-03T17:12:32.969Z</time></trkpt><trkpt lat="45.47194243319358" lon="7.825928982501684"><ele>319.0</ele><time>2026-05-03T17:12:34.969Z</time></trkpt><trkpt lat="45.471941581698225" lon="7.826061339042951"><ele>317.0</ele><time>2026-05-03T17:12:36.969Z</time></trkpt><trkpt lat="45.47191441963726" lon="7.826244946956715"><ele>315.0</ele><time>2026-05-03T17:12:38.969Z</time></trkpt><trkpt lat="45.47189042646548" lon="7.826337548409102"><ele>313.0</ele><time>2026-05-03T17:12:39.969Z</time></trkpt><trkpt lat="45.471885897988635" lon="7.8264317169390605"><ele>311.0</ele><time>2026-05-03T17:12:40.969Z</time></trkpt><trkpt lat="45.47188692549967" lon="7.826528103531537"><ele>309.0</ele><time>2026-05-03T17:12:41.969Z</time></trkpt><trkpt lat="45.4718934220243" lon="7.826649335189552"><ele>309.0</ele><time>2026-05-03T17:12:42.969Z</time></trkpt><trkpt lat="45.47189269860423" lon="7.8267460562058915"><ele>309.0</ele><time>2026-05-03T17:12:43.969Z</time></trkpt><trkpt lat="45.47189547396412" lon="7.826926819810454"><ele>309.0</ele><time>2026-05-03T17:12:45.969Z</time></trkpt><trkpt lat="45.47189964926959" lon="7.827049181615931"><ele>309.0</ele><time>2026-05-03T17:12:48.969Z</time></trkpt><trkpt lat="45.47194214750814" lon="7.827138396058719"><ele>309.0</ele><time>2026-05-03T17:12:52.969Z</time></trkpt><trkpt lat="45.471974024498756" lon="7.827238932841608"><ele>309.0</ele><time>2026-05-03T17:12:55.97Z</time></trkpt><trkpt lat="45.472031785466356" lon="7.827322147483361"><ele>306.5714285714286</ele><time>2026-05-03T17:12:59.97Z</time></trkpt><trkpt lat="45.47209870516559" lon="7.8273145702178315"><ele>304.14285714285717</ele><time>2026-05-03T17:13:06.97Z</time></trkpt><trkpt lat="45.47215186016334" lon="7.8273859323387915"><ele>301.7142857142857</ele><time>2026-05-03T17:13:12.97Z</time></trkpt><trkpt lat="45.47220328278989" lon="7.827446358403346"><ele>299.28571428571433</ele><time>2026-05-03T17:15:06.969Z</time></trkpt><trkpt lat="45.47223361682826" lon="7.827531357867524"><ele>296.8571428571429</ele><time>2026-05-03T17:15:09.969Z</time></trkpt><trkpt lat="45.472185170627085" lon="7.82761762468169"><ele>294.42857142857144</ele><time>2026-05-03T17:15:13.969Z</time></trkpt><trkpt lat="45.472146445776715" lon="7.827728809765284"><ele>292.0</ele><time>2026-05-03T17:15:15.969Z</time></trkpt><trkpt lat="45.47213273204997" lon="7.827827015369647"><ele>286.8333333333333</ele><time>2026-05-03T17:15:17.969Z</time></trkpt><trkpt lat="45.472134537651584" lon="7.827921357827431"><ele>281.66666666666663</ele><time>2026-05-03T17:15:19.969Z</time></trkpt><trkpt lat="45.47217383592008" lon="7.828011886742978"><ele>276.5</ele><time>2026-05-03T17:15:21.969Z</time></trkpt><trkpt lat="45.4723027524919" lon="7.828025558127602"><ele>271.3333333333333</ele><time>2026-05-03T17:15:31.969Z</time></trkpt><trkpt lat="45.47229764230231" lon="7.828147248340216"><ele>266.1666666666667</ele><time>2026-05-03T17:15:34.969Z</time></trkpt><trkpt lat="45.47231722967698" lon="7.828246333593489"><ele>261.0</ele><time>2026-05-03T17:15:36.97Z</time></trkpt><trkpt lat="45.47233350156321" lon="7.828352433397733"><ele>260.5</ele><time>2026-05-03T17:15:38.97Z</time></trkpt><trkpt lat="45.47232025141761" lon="7.828484713573744"><ele>260.0</ele><time>2026-05-03T17:15:40.97Z</time></trkpt><trkpt lat="45.47228406640627" lon="7.828569845285321"><ele>259.5</ele><time>2026-05-03T17:15:43.97Z</time></trkpt><trkpt lat="45.47221630032527" lon="7.828610057264657"><ele>259.0</ele><time>2026-05-03T17:15:45.97Z</time></trkpt><trkpt lat="45.47216355485644" lon="7.828689061820233"><ele>258.5</ele><time>2026-05-03T17:15:49.97Z</time></trkpt><trkpt lat="45.47210793844182" lon="7.828763659840735"><ele>258.0</ele><time>2026-05-03T17:15:54.97Z</time></trkpt><trkpt lat="45.47205575910462" lon="7.8288165819379385"><ele>258.0</ele><time>2026-05-03T17:15:59.97Z</time></trkpt><trkpt lat="45.471975388789325" lon="7.828903165647391"><ele>258.0</ele><time>2026-05-03T17:16:15.97Z</time></trkpt><trkpt lat="45.47188501786192" lon="7.828981866473781"><ele>258.0</ele><time>2026-05-03T17:16:17.97Z</time></trkpt><trkpt lat="45.47178648022666" lon="7.82910604512269"><ele>258.0</ele><time>2026-05-03T17:16:19.971Z</time></trkpt><trkpt lat="45.47171544448005" lon="7.829166425873759"><ele>258.0</ele><time>2026-05-03T17:16:21.971Z</time></trkpt><trkpt lat="45.47164102889945" lon="7.82919295311152"><ele>258.0</ele><time>2026-05-03T17:16:23.971Z</time></trkpt><trkpt lat="45.47152954909977" lon="7.829134053544833"><ele>258.0</ele><time>2026-05-03T17:16:25.968Z</time></trkpt><trkpt lat="45.47148079241229" lon="7.829077087611838"><ele>258.0</ele><time>2026-05-03T17:16:26.968Z</time></trkpt><trkpt lat="45.47142121037602" lon="7.829022042445949"><ele>258.0</ele><time>2026-05-03T17:16:27.968Z</time></trkpt><trkpt lat="45.4713554747967" lon="7.828952462702315"><ele>258.0</ele><time>2026-05-03T17:16:28.968Z</time></trkpt><trkpt lat="45.47128684960749" lon="7.828884361825627"><ele>258.0</ele><time>2026-05-03T17:16:29.968Z</time></trkpt><trkpt lat="45.471212010671216" lon="7.828841337739181"><ele>257.1666666666667</ele><time>2026-05-03T17:16:30.968Z</time></trkpt><trkpt lat="45.471149180348" lon="7.8288071469528955"><ele>256.3333333333333</ele><time>2026-05-03T17:16:31.968Z</time></trkpt><trkpt lat="45.47106342172399" lon="7.828805473839877"><ele>255.5</ele><time>2026-05-03T17:16:32.968Z</time></trkpt><trkpt lat="45.47096659543853" lon="7.828803130578025"><ele>254.66666666666666</ele><time>2026-05-03T17:16:33.968Z</time></trkpt><trkpt lat="45.47089583111057" lon="7.828800586239998"><ele>253.83333333333331</ele><time>2026-05-03T17:16:34.967Z</time></trkpt><trkpt lat="45.47082674446924" lon="7.828787445179187"><ele>253.0</ele><time>2026-05-03T17:16:35.967Z</time></trkpt><trkpt lat="45.4707073408656" lon="7.8287637937384496"><ele>253.0</ele><time>2026-05-03T17:16:37.967Z</time></trkpt><trkpt lat="45.47060930747254" lon="7.828750670945832"><ele>253.0</ele><time>2026-05-03T17:16:39.967Z</time></trkpt><trkpt lat="45.470482754564294" lon="7.828733730435566"><ele>253.0</ele><time>2026-05-03T17:16:41.967Z</time></trkpt><trkpt lat="45.47040135039837" lon="7.82871953718234"><ele>253.0</ele><time>2026-05-03T17:16:42.967Z</time></trkpt><trkpt lat="45.470311606390396" lon="7.828726452486863"><ele>253.0</ele><time>2026-05-03T17:16:43.967Z</time></trkpt><trkpt lat="45.47022312046817" lon="7.828684083098624"><ele>252.2</ele><time>2026-05-03T17:16:44.967Z</time></trkpt><trkpt lat="45.47012021553213" lon="7.828677017903799"><ele>251.4</ele><time>2026-05-03T17:16:45.967Z</time></trkpt><trkpt lat="45.47002072288588" lon="7.828669348134651"><ele>250.59999999999997</ele><time>2026-05-03T17:16:46.967Z</time></trkpt><trkpt lat="45.469916434407686" lon="7.828679536636193"><ele>249.79999999999998</ele><time>2026-05-03T17:16:47.967Z</time></trkpt><trkpt lat="45.46981467345418" lon="7.8286812106499974"><ele>249.0</ele><time>2026-05-03T17:16:48.967Z</time></trkpt><trkpt lat="45.46971176706933" lon="7.828691624470124"><ele>249.0</ele><time>2026-05-03T17:16:49.967Z</time></trkpt><trkpt lat="45.46961826622311" lon="7.828705777910724"><ele>249.0</ele><time>2026-05-03T17:16:50.968Z</time></trkpt><trkpt lat="45.46952803594021" lon="7.828727365718945"><ele>249.0</ele><time>2026-05-03T17:16:51.968Z</time></trkpt><trkpt lat="45.46944706491273" lon="7.828760895994394"><ele>249.0</ele><time>2026-05-03T17:16:52.968Z</time></trkpt><trkpt lat="45.46936465622819" lon="7.828812768832782"><ele>249.0</ele><time>2026-05-03T17:16:53.968Z</time></trkpt><trkpt lat="45.469285149588586" lon="7.828852902738663"><ele>249.0</ele><time>2026-05-03T17:16:54.968Z</time></trkpt><trkpt lat="45.46918609759513" lon="7.828870910737579"><ele>249.79999999999998</ele><time>2026-05-03T17:16:56.968Z</time></trkpt><trkpt lat="45.46906450834584" lon="7.828897157992878"><ele>250.59999999999997</ele><time>2026-05-03T17:16:58.968Z</time></trkpt><trkpt lat="45.46899276648781" lon="7.828918475029995"><ele>251.4</ele><time>2026-05-03T17:16:59.968Z</time></trkpt><trkpt lat="45.46889268305982" lon="7.8289869244823285"><ele>252.2</ele><time>2026-05-03T17:17:01.968Z</time></trkpt><trkpt lat="45.468840197861326" lon="7.829041356131972"><ele>253.0</ele><time>2026-05-03T17:17:02.968Z</time></trkpt><trkpt lat="45.46876943062697" lon="7.829115118798317"><ele>252.99999999999997</ele><time>2026-05-03T17:17:03.968Z</time></trkpt><trkpt lat="45.46871759351981" lon="7.829196765743766"><ele>253.0</ele><time>2026-05-03T17:17:04.968Z</time></trkpt><trkpt lat="45.46866471476378" lon="7.829271829906314"><ele>253.0</ele><time>2026-05-03T17:17:05.968Z</time></trkpt><trkpt lat="45.46861478413673" lon="7.829334092724119"><ele>253.0</ele><time>2026-05-03T17:17:06.968Z</time></trkpt><trkpt lat="45.46855565090501" lon="7.829403654343904"><ele>252.99999999999997</ele><time>2026-05-03T17:17:08.968Z</time></trkpt><trkpt lat="45.468436600931696" lon="7.82934667757767"><ele>253.0</ele><time>2026-05-03T17:17:10.968Z</time></trkpt><trkpt lat="45.46837676898358" lon="7.829308575581722"><ele>253.0</ele><time>2026-05-03T17:17:11.968Z</time></trkpt><trkpt lat="45.46830992372668" lon="7.829264513418573"><ele>253.0</ele><time>2026-05-03T17:17:12.968Z</time></trkpt><trkpt lat="45.46823716362299" lon="7.829238123685847"><ele>253.0</ele><time>2026-05-03T17:17:13.968Z</time></trkpt><trkpt lat="45.468149901021846" lon="7.829202038879628"><ele>253.0</ele><time>2026-05-03T17:17:14.968Z</time></trkpt><trkpt lat="45.4680264829035" lon="7.829141129928847"><ele>253.0</ele><time>2026-05-03T17:17:15.968Z</time></trkpt><trkpt lat="45.467924410056675" lon="7.82906714627135"><ele>252.16666666666666</ele><time>2026-05-03T17:17:16.968Z</time></trkpt><trkpt lat="45.46783971198442" lon="7.82900341377335"><ele>251.33333333333331</ele><time>2026-05-03T17:17:17.968Z</time></trkpt><trkpt lat="45.46777475044354" lon="7.828960265402282"><ele>250.5</ele><time>2026-05-03T17:17:18.968Z</time></trkpt><trkpt lat="45.467701312334555" lon="7.8289339989902045"><ele>249.66666666666669</ele><time>2026-05-03T17:17:19.968Z</time></trkpt><trkpt lat="45.46763178961052" lon="7.828851267826992"><ele>248.83333333333334</ele><time>2026-05-03T17:17:20.968Z</time></trkpt><trkpt lat="45.46755239796115" lon="7.828797210347273"><ele>248.0</ele><time>2026-05-03T17:17:21.968Z</time></trkpt><trkpt lat="45.467468172000835" lon="7.8287550191807265"><ele>248.0</ele><time>2026-05-03T17:17:22.968Z</time></trkpt><trkpt lat="45.467381336601456" lon="7.828706330174379"><ele>248.0</ele><time>2026-05-03T17:17:23.968Z</time></trkpt><trkpt lat="45.46730714649938" lon="7.828682449536287"><ele>248.0</ele><time>2026-05-03T17:17:24.968Z</time></trkpt><trkpt lat="45.467239126144904" lon="7.828650067497043"><ele>248.0</ele><time>2026-05-03T17:17:25.968Z</time></trkpt><trkpt lat="45.4671599621406" lon="7.828604091931288"><ele>248.0</ele><time>2026-05-03T17:17:27.968Z</time></trkpt><trkpt lat="45.467110440514155" lon="7.828803504563413"><ele>247.8</ele><time>2026-05-03T17:17:30.968Z</time></trkpt><trkpt lat="45.46706932630697" lon="7.8289462852535605"><ele>247.60000000000002</ele><time>2026-05-03T17:17:31.968Z</time></trkpt><trkpt lat="45.46704037960165" lon="7.829096187842162"><ele>247.39999999999998</ele><time>2026-05-03T17:17:32.968Z</time></trkpt><trkpt lat="45.46699715728058" lon="7.82922873483496"><ele>247.2</ele><time>2026-05-03T17:17:33.969Z</time></trkpt><trkpt lat="45.46695818778597" lon="7.829358905833114"><ele>247.0</ele><time>2026-05-03T17:17:34.969Z</time></trkpt><trkpt lat="45.46691824211177" lon="7.829504851141151"><ele>246.75</ele><time>2026-05-03T17:17:35.969Z</time></trkpt><trkpt lat="45.46686818542826" lon="7.829664403688446"><ele>246.5</ele><time>2026-05-03T17:17:36.969Z</time></trkpt><trkpt lat="45.46682026813429" lon="7.829810211219904"><ele>246.25</ele><time>2026-05-03T17:17:37.969Z</time></trkpt><trkpt lat="45.46677325838476" lon="7.829963877960778"><ele>246.0</ele><time>2026-05-03T17:17:38.969Z</time></trkpt><trkpt lat="45.466733776467244" lon="7.830099544580763"><ele>246.0</ele><time>2026-05-03T17:17:39.969Z</time></trkpt><trkpt lat="45.466693034918144" lon="7.830235542386705"><ele>246.00000000000003</ele><time>2026-05-03T17:17:40.969Z</time></trkpt><trkpt lat="45.46665610111042" lon="7.8303602572186985"><ele>246.00000000000003</ele><time>2026-05-03T17:17:41.969Z</time></trkpt><trkpt lat="45.46662934567474" lon="7.83048460607205"><ele>246.0</ele><time>2026-05-03T17:17:42.969Z</time></trkpt><trkpt lat="45.46658918641338" lon="7.830615611729135"><ele>246.0</ele><time>2026-05-03T17:17:43.969Z</time></trkpt><trkpt lat="45.46655365543694" lon="7.830746104062227"><ele>246.0</ele><time>2026-05-03T17:17:44.969Z</time></trkpt><trkpt lat="45.46651676463096" lon="7.830870450369288"><ele>246.0</ele><time>2026-05-03T17:17:45.969Z</time></trkpt><trkpt lat="45.46648312834427" lon="7.830993861226078"><ele>246.0</ele><time>2026-05-03T17:17:46.969Z</time></trkpt><trkpt lat="45.46643214731774" lon="7.831104626874109"><ele>246.0</ele><time>2026-05-03T17:17:47.969Z</time></trkpt><trkpt lat="45.46640514320203" lon="7.831197181576213"><ele>246.0</ele><time>2026-05-03T17:17:48.969Z</time></trkpt><trkpt lat="45.46636676072112" lon="7.831313564044908"><ele>246.0</ele><time>2026-05-03T17:17:50.969Z</time></trkpt><trkpt lat="45.46622438163643" lon="7.83119177891292"><ele>245.75</ele><time>2026-05-03T17:17:52.969Z</time></trkpt><trkpt lat="45.4661387665409" lon="7.831132718190243"><ele>245.5</ele><time>2026-05-03T17:17:53.969Z</time></trkpt><trkpt lat="45.46602826907892" lon="7.831079142325615"><ele>245.25</ele><time>2026-05-03T17:17:54.969Z</time></trkpt><trkpt lat="45.46591926786086" lon="7.831010042139335"><ele>245.0</ele><time>2026-05-03T17:17:55.969Z</time></trkpt><trkpt lat="45.46581624512812" lon="7.830915215874981"><ele>245.00000000000003</ele><time>2026-05-03T17:17:56.969Z</time></trkpt><trkpt lat="45.46571820053037" lon="7.830849095750582"><ele>245.0</ele><time>2026-05-03T17:17:57.969Z</time></trkpt><trkpt lat="45.465621154016475" lon="7.830810379123481"><ele>245.0</ele><time>2026-05-03T17:17:58.969Z</time></trkpt><trkpt lat="45.46555257156617" lon="7.830769850540655"><ele>245.0</ele><time>2026-05-03T17:17:59.969Z</time></trkpt><trkpt lat="45.465484341436316" lon="7.830765312745494"><ele>245.00000000000003</ele><time>2026-05-03T17:18:00.969Z</time></trkpt><trkpt lat="45.46542836341007" lon="7.830817824552672"><ele>245.0</ele><time>2026-05-03T17:18:01.969Z</time></trkpt><trkpt lat="45.465395629728185" lon="7.830923124975263"><ele>244.75</ele><time>2026-05-03T17:18:02.969Z</time></trkpt><trkpt lat="45.46537529754856" lon="7.8310543189264745"><ele>244.5</ele><time>2026-05-03T17:18:03.969Z</time></trkpt><trkpt lat="45.46536218738302" lon="7.831211477877787"><ele>244.25</ele><time>2026-05-03T17:18:04.969Z</time></trkpt><trkpt lat="45.46533859782416" lon="7.831376270134248"><ele>244.0</ele><time>2026-05-03T17:18:05.969Z</time></trkpt><trkpt lat="45.46529929575409" lon="7.831554185787219"><ele>244.0</ele><time>2026-05-03T17:18:06.969Z</time></trkpt><trkpt lat="45.465261246407515" lon="7.831740991369397"><ele>244.0</ele><time>2026-05-03T17:18:07.969Z</time></trkpt><trkpt lat="45.46523745055537" lon="7.831959733485764"><ele>244.0</ele><time>2026-05-03T17:18:08.969Z</time></trkpt><trkpt lat="45.46525885259543" lon="7.832205980804027"><ele>243.66666666666666</ele><time>2026-05-03T17:18:09.969Z</time></trkpt><trkpt lat="45.4652994771564" lon="7.832434784852702"><ele>243.33333333333331</ele><time>2026-05-03T17:18:10.969Z</time></trkpt><trkpt lat="45.46537858843218" lon="7.832649196399336"><ele>243.0</ele><time>2026-05-03T17:18:11.969Z</time></trkpt><trkpt lat="45.46547565593858" lon="7.832885067846684"><ele>243.66666666666669</ele><time>2026-05-03T17:18:12.969Z</time></trkpt><trkpt lat="45.465562405606626" lon="7.833135141270997"><ele>244.33333333333334</ele><time>2026-05-03T17:18:13.969Z</time></trkpt><trkpt lat="45.46561214460968" lon="7.833405623681136"><ele>245.0</ele><time>2026-05-03T17:18:14.969Z</time></trkpt><trkpt lat="45.465642732017606" lon="7.833701469496388"><ele>245.0</ele><time>2026-05-03T17:18:15.969Z</time></trkpt><trkpt lat="45.465657806055574" lon="7.834004917238185"><ele>245.0</ele><time>2026-05-03T17:18:16.97Z</time></trkpt><trkpt lat="45.46565530107373" lon="7.834288495652846"><ele>245.0</ele><time>2026-05-03T17:18:17.97Z</time></trkpt><trkpt lat="45.465643803632126" lon="7.8345687030122395"><ele>245.0</ele><time>2026-05-03T17:18:18.97Z</time></trkpt><trkpt lat="45.465621209786015" lon="7.83486920885346"><ele>245.0</ele><time>2026-05-03T17:18:19.97Z</time></trkpt><trkpt lat="45.465586576924906" lon="7.835131912727847"><ele>245.0</ele><time>2026-05-03T17:18:20.97Z</time></trkpt><trkpt lat="45.465545268239836" lon="7.835392243754715"><ele>245.25</ele><time>2026-05-03T17:18:21.97Z</time></trkpt><trkpt lat="45.46550240419934" lon="7.835610606852397"><ele>245.5</ele><time>2026-05-03T17:18:22.97Z</time></trkpt><trkpt lat="45.465453402793806" lon="7.83578274873835"><ele>245.75</ele><time>2026-05-03T17:18:23.97Z</time></trkpt><trkpt lat="45.465399959953565" lon="7.835924200191708"><ele>246.0</ele><time>2026-05-03T17:18:24.97Z</time></trkpt><trkpt lat="45.465349945185025" lon="7.835984983131654"><ele>245.5</ele><time>2026-05-03T17:18:25.97Z</time></trkpt><trkpt lat="45.465292930632906" lon="7.8360347070737415"><ele>245.0</ele><time>2026-05-03T17:18:26.97Z</time></trkpt><trkpt lat="45.465254294081106" lon="7.836214338132841"><ele>244.5</ele><time>2026-05-03T17:18:28.97Z</time></trkpt><trkpt lat="45.46525284735181" lon="7.8363920208088915"><ele>244.0</ele><time>2026-05-03T17:18:29.97Z</time></trkpt><trkpt lat="45.46519073658065" lon="7.8365956266880366"><ele>244.0</ele><time>2026-05-03T17:18:30.967Z</time></trkpt><trkpt lat="45.46508345463983" lon="7.836831300950083"><ele>244.0</ele><time>2026-05-03T17:18:31.966Z</time></trkpt><trkpt lat="45.46498448588565" lon="7.837054020032957"><ele>244.0</ele><time>2026-05-03T17:18:32.966Z</time></trkpt><trkpt lat="45.46489257156531" lon="7.837199717620352"><ele>244.0</ele><time>2026-05-03T17:18:33.966Z</time></trkpt><trkpt lat="45.46480380389706" lon="7.837305195363669"><ele>244.0</ele><time>2026-05-03T17:18:34.967Z</time></trkpt><trkpt lat="45.46473188434977" lon="7.837384905687716"><ele>244.0</ele><time>2026-05-03T17:18:35.967Z</time></trkpt><trkpt lat="45.46466582212763" lon="7.837507802046507"><ele>244.0</ele><time>2026-05-03T17:18:36.967Z</time></trkpt><trkpt lat="45.464578905066276" lon="7.83766463042778"><ele>244.33333333333331</ele><time>2026-05-03T17:18:37.967Z</time></trkpt><trkpt lat="45.464465746916154" lon="7.837838910497569"><ele>244.66666666666669</ele><time>2026-05-03T17:18:38.967Z</time></trkpt><trkpt lat="45.46434466774556" lon="7.83801664725235"><ele>245.0</ele><time>2026-05-03T17:18:39.966Z</time></trkpt><trkpt lat="45.46422072169934" lon="7.838187132944437"><ele>245.0</ele><time>2026-05-03T17:18:40.967Z</time></trkpt><trkpt lat="45.46411448888674" lon="7.838338085726206"><ele>245.0</ele><time>2026-05-03T17:18:41.967Z</time></trkpt><trkpt lat="45.46401703823306" lon="7.838510165825384"><ele>245.0</ele><time>2026-05-03T17:18:42.967Z</time></trkpt><trkpt lat="45.46393968532025" lon="7.838686714886195"><ele>245.0</ele><time>2026-05-03T17:18:43.967Z</time></trkpt><trkpt lat="45.4638799619283" lon="7.838838609010882"><ele>245.0</ele><time>2026-05-03T17:18:44.967Z</time></trkpt><trkpt lat="45.46380344827416" lon="7.839010932739717"><ele>245.0</ele><time>2026-05-03T17:18:45.967Z</time></trkpt><trkpt lat="45.46372924635977" lon="7.839198291680573"><ele>245.0</ele><time>2026-05-03T17:18:46.967Z</time></trkpt><trkpt lat="45.463661155630014" lon="7.8394062434843415"><ele>244.66666666666669</ele><time>2026-05-03T17:18:47.967Z</time></trkpt><trkpt lat="45.463618262469886" lon="7.83962619662965"><ele>244.33333333333331</ele><time>2026-05-03T17:18:48.967Z</time></trkpt><trkpt lat="45.463572275770325" lon="7.839856136087319"><ele>244.0</ele><time>2026-05-03T17:18:49.967Z</time></trkpt><trkpt lat="45.46352095973797" lon="7.840079720874239"><ele>244.0</ele><time>2026-05-03T17:18:50.967Z</time></trkpt><trkpt lat="45.463465016805856" lon="7.840308805465754"><ele>244.0</ele><time>2026-05-03T17:18:51.967Z</time></trkpt><trkpt lat="45.46341253659364" lon="7.840529806558854"><ele>244.0</ele><time>2026-05-03T17:18:52.967Z</time></trkpt><trkpt lat="45.4633572154793" lon="7.840740840171485"><ele>244.0</ele><time>2026-05-03T17:18:53.967Z</time></trkpt><trkpt lat="45.46329833837727" lon="7.840951998742797"><ele>244.0</ele><time>2026-05-03T17:18:54.967Z</time></trkpt><trkpt lat="45.46325034008117" lon="7.841157344968729"><ele>244.0</ele><time>2026-05-03T17:18:55.967Z</time></trkpt><trkpt lat="45.4632176310874" lon="7.841364090617393"><ele>244.0</ele><time>2026-05-03T17:18:56.967Z</time></trkpt><trkpt lat="45.46321186121012" lon="7.841567640010113"><ele>244.0</ele><time>2026-05-03T17:18:57.967Z</time></trkpt><trkpt lat="45.46324172751993" lon="7.841754492460583"><ele>244.0</ele><time>2026-05-03T17:18:58.967Z</time></trkpt><trkpt lat="45.46328351066924" lon="7.841934381142785"><ele>244.0</ele><time>2026-05-03T17:18:59.967Z</time></trkpt><trkpt lat="45.463332752825956" lon="7.842119259617705"><ele>244.0</ele><time>2026-05-03T17:19:00.967Z</time></trkpt><trkpt lat="45.463383991996906" lon="7.842282675595828"><ele>243.99999999999997</ele><time>2026-05-03T17:19:01.967Z</time></trkpt><trkpt lat="45.46345656847014" lon="7.842400605119945"><ele>243.99999999999997</ele><time>2026-05-03T17:19:02.967Z</time></trkpt><trkpt lat="45.46353248289867" lon="7.842507466186796"><ele>244.0</ele><time>2026-05-03T17:19:03.967Z</time></trkpt><trkpt lat="45.46360715034915" lon="7.842600470135573"><ele>244.0</ele><time>2026-05-03T17:19:04.968Z</time></trkpt><trkpt lat="45.4636736102162" lon="7.842677450493583"><ele>244.16666666666666</ele><time>2026-05-03T17:19:05.968Z</time></trkpt><trkpt lat="45.463725720050974" lon="7.842737743068668"><ele>244.33333333333331</ele><time>2026-05-03T17:19:06.968Z</time></trkpt><trkpt lat="45.46372211417129" lon="7.842868105591119"><ele>244.5</ele><time>2026-05-03T17:19:09.968Z</time></trkpt><trkpt lat="45.46364722765843" lon="7.842944328755449"><ele>244.66666666666669</ele><time>2026-05-03T17:19:11.968Z</time></trkpt><trkpt lat="45.46359607958693" lon="7.843001571601039"><ele>244.83333333333334</ele><time>2026-05-03T17:19:12.968Z</time></trkpt><trkpt lat="45.4635441014873" lon="7.843071164393632"><ele>245.0</ele><time>2026-05-03T17:19:13.968Z</time></trkpt><trkpt lat="45.46350101635729" lon="7.84316502551456"><ele>245.00000000000003</ele><time>2026-05-03T17:19:14.968Z</time></trkpt><trkpt lat="45.463461845619264" lon="7.843273516437196"><ele>245.0</ele><time>2026-05-03T17:19:15.968Z</time></trkpt><trkpt lat="45.463428459620886" lon="7.843387288373728"><ele>245.0</ele><time>2026-05-03T17:19:16.968Z</time></trkpt><trkpt lat="45.46339711757406" lon="7.843492197384075"><ele>245.0</ele><time>2026-05-03T17:19:17.968Z</time></trkpt><trkpt lat="45.46336454264865" lon="7.843615862632794"><ele>245.00000000000003</ele><time>2026-05-03T17:19:18.968Z</time></trkpt><trkpt lat="45.46333268118225" lon="7.84375775443128"><ele>245.0</ele><time>2026-05-03T17:19:19.968Z</time></trkpt><trkpt lat="45.46330269066109" lon="7.8439099973510515"><ele>245.0</ele><time>2026-05-03T17:19:20.968Z</time></trkpt><trkpt lat="45.46327038616953" lon="7.844062564156591"><ele>245.0</ele><time>2026-05-03T17:19:21.968Z</time></trkpt><trkpt lat="45.46324491348178" lon="7.844206272211746"><ele>245.0</ele><time>2026-05-03T17:19:22.968Z</time></trkpt><trkpt lat="45.463229417744834" lon="7.844360844884939"><ele>245.0</ele><time>2026-05-03T17:19:23.968Z</time></trkpt><trkpt lat="45.46321982111288" lon="7.8444919142264995"><ele>245.0</ele><time>2026-05-03T17:19:24.968Z</time></trkpt><trkpt lat="45.463222016279644" lon="7.84459521958628"><ele>244.83333333333334</ele><time>2026-05-03T17:19:25.968Z</time></trkpt><trkpt lat="45.46321813781434" lon="7.8447006008188245"><ele>244.66666666666669</ele><time>2026-05-03T17:19:26.968Z</time></trkpt><trkpt lat="45.463216871237954" lon="7.84480748588254"><ele>244.5</ele><time>2026-05-03T17:19:27.968Z</time></trkpt><trkpt lat="45.46319186113786" lon="7.844971336244312"><ele>244.33333333333331</ele><time>2026-05-03T17:19:29.968Z</time></trkpt><trkpt lat="45.46318486271723" lon="7.845086474688373"><ele>244.16666666666666</ele><time>2026-05-03T17:19:31.968Z</time></trkpt><trkpt lat="45.463179351886076" lon="7.845190308292022"><ele>244.0</ele><time>2026-05-03T17:19:33.968Z</time></trkpt><trkpt lat="45.46319834141088" lon="7.84503902809583"><ele>243.99999999999997</ele><time>2026-05-03T17:19:39.968Z</time></trkpt><trkpt lat="45.46321226489614" lon="7.844899181095031"><ele>244.0</ele><time>2026-05-03T17:19:40.968Z</time></trkpt><trkpt lat="45.46320618505966" lon="7.8447843763858724"><ele>244.0</ele><time>2026-05-03T17:19:41.968Z</time></trkpt><trkpt lat="45.46321310061059" lon="7.844684132154065"><ele>244.0</ele><time>2026-05-03T17:19:42.968Z</time></trkpt><trkpt lat="45.4632293603563" lon="7.84458895242901"><ele>243.99999999999997</ele><time>2026-05-03T17:19:43.968Z</time></trkpt><trkpt lat="45.46324109947246" lon="7.844485332315765"><ele>244.0</ele><time>2026-05-03T17:19:44.968Z</time></trkpt><trkpt lat="45.463258316912246" lon="7.8443781831382555"><ele>244.1428571428571</ele><time>2026-05-03T17:19:45.968Z</time></trkpt><trkpt lat="45.46326789282891" lon="7.844274059733378"><ele>244.28571428571428</ele><time>2026-05-03T17:19:46.968Z</time></trkpt><trkpt lat="45.46327768626616" lon="7.84417835154072"><ele>244.42857142857142</ele><time>2026-05-03T17:19:47.969Z</time></trkpt><trkpt lat="45.46329059060764" lon="7.8440754298925635"><ele>244.57142857142856</ele><time>2026-05-03T17:19:48.969Z</time></trkpt><trkpt lat="45.463307636794774" lon="7.843982065873383"><ele>244.71428571428572</ele><time>2026-05-03T17:19:49.969Z</time></trkpt><trkpt lat="45.463323423230875" lon="7.8438831231445665"><ele>244.85714285714286</ele><time>2026-05-03T17:19:50.969Z</time></trkpt><trkpt lat="45.463344228318284" lon="7.843788119896802"><ele>245.0</ele><time>2026-05-03T17:19:51.969Z</time></trkpt><trkpt lat="45.463365435465185" lon="7.843699441760891"><ele>245.0</ele><time>2026-05-03T17:19:52.969Z</time></trkpt><trkpt lat="45.46339319485458" lon="7.843601117090331"><ele>245.0</ele><time>2026-05-03T17:19:53.969Z</time></trkpt><trkpt lat="45.463416976887736" lon="7.843505933825315"><ele>245.0</ele><time>2026-05-03T17:19:54.969Z</time></trkpt><trkpt lat="45.463444545830335" lon="7.843414822148372"><ele>245.0</ele><time>2026-05-03T17:19:55.969Z</time></trkpt><trkpt lat="45.46347305863994" lon="7.843323538614484"><ele>245.0</ele><time>2026-05-03T17:19:56.969Z</time></trkpt><trkpt lat="45.46350579113181" lon="7.843232401626535"><ele>245.0</ele><time>2026-05-03T17:19:57.969Z</time></trkpt><trkpt lat="45.4635409067178" lon="7.843133494579087"><ele>245.0</ele><time>2026-05-03T17:19:58.969Z</time></trkpt><trkpt lat="45.463586390352354" lon="7.843036961035216"><ele>245.00000000000003</ele><time>2026-05-03T17:19:59.969Z</time></trkpt><trkpt lat="45.46362510264873" lon="7.842956627552382"><ele>245.0</ele><time>2026-05-03T17:20:00.969Z</time></trkpt><trkpt lat="45.46366663684684" lon="7.842878345424512"><ele>245.0</ele><time>2026-05-03T17:20:01.969Z</time></trkpt><trkpt lat="45.46373805163512" lon="7.8427801360966285"><ele>245.0</ele><time>2026-05-03T17:20:03.969Z</time></trkpt><trkpt lat="45.46363751313123" lon="7.8428220798026675"><ele>245.00000000000003</ele><time>2026-05-03T17:20:34.97Z</time></trkpt><trkpt lat="45.463576499320425" lon="7.8428938544056725"><ele>245.0</ele><time>2026-05-03T17:20:36.966Z</time></trkpt><trkpt lat="45.46350756622905" lon="7.843004985313273"><ele>245.0</ele><time>2026-05-03T17:20:38.965Z</time></trkpt><trkpt lat="45.46348105432449" lon="7.843092535191377"><ele>245.0</ele><time>2026-05-03T17:20:39.965Z</time></trkpt><trkpt lat="45.46344498713159" lon="7.8431873415435085"><ele>245.0</ele><time>2026-05-03T17:20:40.965Z</time></trkpt><trkpt lat="45.4633895609166" lon="7.843347743349586"><ele>245.0</ele><time>2026-05-03T17:20:41.965Z</time></trkpt><trkpt lat="45.463386405168265" lon="7.8434888730188"><ele>245.0</ele><time>2026-05-03T17:20:42.966Z</time></trkpt><trkpt lat="45.463337318100436" lon="7.843607958332503"><ele>245.0</ele><time>2026-05-03T17:20:43.966Z</time></trkpt><trkpt lat="45.4633075493176" lon="7.843735439760894"><ele>245.0</ele><time>2026-05-03T17:20:44.966Z</time></trkpt><trkpt lat="45.46327272916079" lon="7.843876349499181"><ele>245.0</ele><time>2026-05-03T17:20:45.965Z</time></trkpt><trkpt lat="45.463244535230295" lon="7.844033502890206"><ele>245.0</ele><time>2026-05-03T17:20:46.966Z</time></trkpt><trkpt lat="45.4632219875427" lon="7.8441881049858"><ele>245.0</ele><time>2026-05-03T17:20:47.966Z</time></trkpt><trkpt lat="45.46320023277882" lon="7.844342194643005"><ele>244.75</ele><time>2026-05-03T17:20:48.965Z</time></trkpt><trkpt lat="45.4631981214589" lon="7.8444993409082295"><ele>244.5</ele><time>2026-05-03T17:20:49.966Z</time></trkpt><trkpt lat="45.463181832260354" lon="7.844664346607927"><ele>244.25</ele><time>2026-05-03T17:20:50.966Z</time></trkpt><trkpt lat="45.46318910277839" lon="7.844835922699463"><ele>244.0</ele><time>2026-05-03T17:20:51.966Z</time></trkpt><trkpt lat="45.46318275477789" lon="7.845008341802304"><ele>243.5</ele><time>2026-05-03T17:20:52.966Z</time></trkpt><trkpt lat="45.46317655700261" lon="7.845184587033631"><ele>243.0</ele><time>2026-05-03T17:20:53.966Z</time></trkpt><trkpt lat="45.46317090157041" lon="7.845345409654414"><ele>242.5</ele><time>2026-05-03T17:20:54.966Z</time></trkpt><trkpt lat="45.46316468092593" lon="7.845522305441484"><ele>242.0</ele><time>2026-05-03T17:20:55.966Z</time></trkpt><trkpt lat="45.463158718008245" lon="7.845691872140887"><ele>242.0</ele><time>2026-05-03T17:20:56.966Z</time></trkpt><trkpt lat="45.46315289032947" lon="7.845857593713548"><ele>242.0</ele><time>2026-05-03T17:20:57.966Z</time></trkpt><trkpt lat="45.463146843374616" lon="7.846029549392774"><ele>242.0</ele><time>2026-05-03T17:20:58.966Z</time></trkpt><trkpt lat="45.463141449046766" lon="7.846182947278073"><ele>242.0</ele><time>2026-05-03T17:20:59.966Z</time></trkpt><trkpt lat="45.463135714541025" lon="7.846344726299014"><ele>241.8</ele><time>2026-05-03T17:21:00.966Z</time></trkpt><trkpt lat="45.46313014476371" lon="7.846497302499747"><ele>241.6</ele><time>2026-05-03T17:21:01.966Z</time></trkpt><trkpt lat="45.46312572285307" lon="7.846650036962868"><ele>241.40000000000003</ele><time>2026-05-03T17:21:02.966Z</time></trkpt><trkpt lat="45.46307785390697" lon="7.84679122078202"><ele>241.20000000000002</ele><time>2026-05-03T17:21:03.966Z</time></trkpt><trkpt lat="45.46305350320668" lon="7.846920184912002"><ele>241.0</ele><time>2026-05-03T17:21:04.966Z</time></trkpt><trkpt lat="45.46304818620018" lon="7.847055468292669"><ele>241.0</ele><time>2026-05-03T17:21:05.966Z</time></trkpt><trkpt lat="45.46308077936733" lon="7.847176137222071"><ele>241.00000000000003</ele><time>2026-05-03T17:21:06.966Z</time></trkpt><trkpt lat="45.463117596330406" lon="7.8472994372148355"><ele>241.00000000000003</ele><time>2026-05-03T17:21:07.966Z</time></trkpt><trkpt lat="45.46312855600657" lon="7.8474144335528475"><ele>241.0</ele><time>2026-05-03T17:21:08.966Z</time></trkpt><trkpt lat="45.46317435549409" lon="7.8474974929091434"><ele>241.0</ele><time>2026-05-03T17:21:09.966Z</time></trkpt><trkpt lat="45.46303012939821" lon="7.847658137427884"><ele>241.25</ele><time>2026-05-03T17:21:10.966Z</time></trkpt><trkpt lat="45.46301024632443" lon="7.847819664887855"><ele>241.5</ele><time>2026-05-03T17:21:11.967Z</time></trkpt><trkpt lat="45.46298879793636" lon="7.848003049712102"><ele>241.75</ele><time>2026-05-03T17:21:12.967Z</time></trkpt><trkpt lat="45.4629427665264" lon="7.8482115986811065"><ele>242.0</ele><time>2026-05-03T17:21:13.967Z</time></trkpt><trkpt lat="45.46290573306875" lon="7.848405179966377"><ele>242.25</ele><time>2026-05-03T17:21:14.967Z</time></trkpt><trkpt lat="45.462874652679226" lon="7.848591909858734"><ele>242.5</ele><time>2026-05-03T17:21:15.967Z</time></trkpt><trkpt lat="45.46285016193377" lon="7.848770336291857"><ele>242.75</ele><time>2026-05-03T17:21:16.967Z</time></trkpt><trkpt lat="45.46282665220693" lon="7.8489481167979"><ele>243.0</ele><time>2026-05-03T17:21:17.967Z</time></trkpt><trkpt lat="45.46278635775291" lon="7.8491529009037855"><ele>242.5</ele><time>2026-05-03T17:21:18.967Z</time></trkpt><trkpt lat="45.46275355941579" lon="7.849352844319711"><ele>242.0</ele><time>2026-05-03T17:21:19.967Z</time></trkpt><trkpt lat="45.4627216902733" lon="7.849550130586955"><ele>241.5</ele><time>2026-05-03T17:21:20.967Z</time></trkpt><trkpt lat="45.46269062626195" lon="7.849755899901186"><ele>241.0</ele><time>2026-05-03T17:21:21.967Z</time></trkpt><trkpt lat="45.46265585934977" lon="7.8499542801189115"><ele>241.5</ele><time>2026-05-03T17:21:22.967Z</time></trkpt><trkpt lat="45.46262626934703" lon="7.850142419163527"><ele>242.0</ele><time>2026-05-03T17:21:23.967Z</time></trkpt><trkpt lat="45.46259565845224" lon="7.850325609249958"><ele>242.5</ele><time>2026-05-03T17:21:24.967Z</time></trkpt><trkpt lat="45.46256200119732" lon="7.850501818240258"><ele>243.0</ele><time>2026-05-03T17:21:25.967Z</time></trkpt><trkpt lat="45.462542656452364" lon="7.850635477313991"><ele>243.0</ele><time>2026-05-03T17:21:26.967Z</time></trkpt><trkpt lat="45.46252965486866" lon="7.850770786168317"><ele>243.0</ele><time>2026-05-03T17:21:27.967Z</time></trkpt><trkpt lat="45.46250107005817" lon="7.85091720621643"><ele>243.0</ele><time>2026-05-03T17:21:28.967Z</time></trkpt><trkpt lat="45.46248823008651" lon="7.851053227794807"><ele>243.0</ele><time>2026-05-03T17:21:29.967Z</time></trkpt><trkpt lat="45.462486450514874" lon="7.851171107946119"><ele>243.0</ele><time>2026-05-03T17:21:30.967Z</time></trkpt><trkpt lat="45.46245838708827" lon="7.851285554450676"><ele>243.16666666666666</ele><time>2026-05-03T17:21:31.967Z</time></trkpt><trkpt lat="45.46241443911663" lon="7.851428518866045"><ele>243.33333333333331</ele><time>2026-05-03T17:21:33.967Z</time></trkpt><trkpt lat="45.462387306824844" lon="7.851522119715659"><ele>243.5</ele><time>2026-05-03T17:21:34.967Z</time></trkpt><trkpt lat="45.462384831266775" lon="7.8516293860444915"><ele>243.66666666666666</ele><time>2026-05-03T17:21:35.967Z</time></trkpt><trkpt lat="45.46236585264365" lon="7.851745193930888"><ele>243.83333333333331</ele><time>2026-05-03T17:21:36.967Z</time></trkpt><trkpt lat="45.46234673089409" lon="7.851859776238101"><ele>244.0</ele><time>2026-05-03T17:21:37.967Z</time></trkpt><trkpt lat="45.46234499702107" lon="7.851968224037335"><ele>243.6</ele><time>2026-05-03T17:21:38.967Z</time></trkpt><trkpt lat="45.46242337427193" lon="7.852054557158239"><ele>243.2</ele><time>2026-05-03T17:21:42.967Z</time></trkpt><trkpt lat="45.46252488290384" lon="7.852104377029584"><ele>242.79999999999998</ele><time>2026-05-03T17:21:43.967Z</time></trkpt><trkpt lat="45.462636385678955" lon="7.852157867562561"><ele>242.39999999999998</ele><time>2026-05-03T17:21:44.967Z</time></trkpt><trkpt lat="45.46273552667738" lon="7.852227773193479"><ele>242.0</ele><time>2026-05-03T17:21:45.967Z</time></trkpt><trkpt lat="45.46282963139558" lon="7.852280213839912"><ele>242.0</ele><time>2026-05-03T17:21:46.967Z</time></trkpt><trkpt lat="45.46293144894081" lon="7.8523061341604485"><ele>242.0</ele><time>2026-05-03T17:21:47.967Z</time></trkpt><trkpt lat="45.46303034823613" lon="7.852355408646132"><ele>242.0</ele><time>2026-05-03T17:21:48.967Z</time></trkpt><trkpt lat="45.46313228434358" lon="7.852407986919304"><ele>242.0</ele><time>2026-05-03T17:21:49.967Z</time></trkpt><trkpt lat="45.46323320438123" lon="7.852456157227047"><ele>242.0</ele><time>2026-05-03T17:21:50.967Z</time></trkpt><trkpt lat="45.46335209284558" lon="7.852481384115795"><ele>241.83333333333334</ele><time>2026-05-03T17:21:51.967Z</time></trkpt><trkpt lat="45.46344491366388" lon="7.852544886907207"><ele>241.66666666666669</ele><time>2026-05-03T17:21:52.967Z</time></trkpt><trkpt lat="45.463506320752174" lon="7.852611610172805"><ele>241.5</ele><time>2026-05-03T17:21:53.967Z</time></trkpt><trkpt lat="45.463527303661785" lon="7.852721390745537"><ele>241.33333333333331</ele><time>2026-05-03T17:21:54.968Z</time></trkpt><trkpt lat="45.46350370493405" lon="7.852819044397573"><ele>241.16666666666666</ele><time>2026-05-03T17:21:55.968Z</time></trkpt><trkpt lat="45.463556590973326" lon="7.852868459915416"><ele>241.0</ele><time>2026-05-03T17:21:56.968Z</time></trkpt><trkpt lat="45.46363336908726" lon="7.852932798281213"><ele>241.0</ele><time>2026-05-03T17:21:58.968Z</time></trkpt><trkpt lat="45.463686840338134" lon="7.852982432357938"><ele>241.00000000000003</ele><time>2026-05-03T17:21:59.968Z</time></trkpt><trkpt lat="45.463779846614166" lon="7.853120316965178"><ele>241.00000000000003</ele><time>2026-05-03T17:22:01.968Z</time></trkpt><trkpt lat="45.46381085921994" lon="7.853256129704869"><ele>241.0</ele><time>2026-05-03T17:22:02.968Z</time></trkpt><trkpt lat="45.46384742101577" lon="7.853397664459021"><ele>241.0</ele><time>2026-05-03T17:22:03.968Z</time></trkpt><trkpt lat="45.46384055147322" lon="7.853552152832304"><ele>241.0</ele><time>2026-05-03T17:22:04.968Z</time></trkpt><trkpt lat="45.463798732989055" lon="7.853707184231999"><ele>241.00000000000003</ele><time>2026-05-03T17:22:05.968Z</time></trkpt><trkpt lat="45.46373398203727" lon="7.853849828306581"><ele>241.00000000000003</ele><time>2026-05-03T17:22:06.968Z</time></trkpt><trkpt lat="45.46369071476982" lon="7.853981675980295"><ele>241.0</ele><time>2026-05-03T17:22:07.968Z</time></trkpt><trkpt lat="45.46364692228239" lon="7.8541003801658915"><ele>241.0</ele><time>2026-05-03T17:22:08.968Z</time></trkpt><trkpt lat="45.46361143705917" lon="7.854238562495589"><ele>241.20000000000002</ele><time>2026-05-03T17:22:09.968Z</time></trkpt><trkpt lat="45.46356786217502" lon="7.8543691983054655"><ele>241.40000000000003</ele><time>2026-05-03T17:22:10.968Z</time></trkpt><trkpt lat="45.46351778814486" lon="7.854508285330763"><ele>241.6</ele><time>2026-05-03T17:22:11.968Z</time></trkpt><trkpt lat="45.463484815042364" lon="7.8546549589454795"><ele>241.8</ele><time>2026-05-03T17:22:12.968Z</time></trkpt><trkpt lat="45.463454606619024" lon="7.8547788725486"><ele>242.0</ele><time>2026-05-03T17:22:13.968Z</time></trkpt><trkpt lat="45.46342801882821" lon="7.854913624728936"><ele>242.00000000000003</ele><time>2026-05-03T17:22:14.968Z</time></trkpt><trkpt lat="45.463401805275204" lon="7.855041172970013"><ele>242.0</ele><time>2026-05-03T17:22:15.969Z</time></trkpt><trkpt lat="45.46337325332561" lon="7.855167790813402"><ele>242.0</ele><time>2026-05-03T17:22:16.969Z</time></trkpt><trkpt lat="45.46334402557781" lon="7.85529058274752"><ele>242.0</ele><time>2026-05-03T17:22:17.97Z</time></trkpt><trkpt lat="45.46332159803641" lon="7.855403403363453"><ele>242.00000000000003</ele><time>2026-05-03T17:22:18.97Z</time></trkpt><trkpt lat="45.4633004921113" lon="7.855502972162412"><ele>242.0</ele><time>2026-05-03T17:22:19.971Z</time></trkpt><trkpt lat="45.463268878588956" lon="7.855585716814571"><ele>242.50000000000003</ele><time>2026-05-03T17:22:20.971Z</time></trkpt><trkpt lat="45.46324929991152" lon="7.85567403095112"><ele>243.0</ele><time>2026-05-03T17:22:21.971Z</time></trkpt><trkpt lat="45.46324357819302" lon="7.855766317273093"><ele>243.5</ele><time>2026-05-03T17:22:22.972Z</time></trkpt><trkpt lat="45.46320792775638" lon="7.855857260604929"><ele>244.0</ele><time>2026-05-03T17:22:23.972Z</time></trkpt><trkpt lat="45.46320255896278" lon="7.85594898479177"><ele>244.50000000000003</ele><time>2026-05-03T17:22:24.973Z</time></trkpt><trkpt lat="45.4631508261063" lon="7.856110153258225"><ele>245.0</ele><time>2026-05-03T17:22:26.973Z</time></trkpt><trkpt lat="45.46314523073504" lon="7.856206781902672"><ele>245.8</ele><time>2026-05-03T17:22:27.974Z</time></trkpt><trkpt lat="45.46310375139108" lon="7.856372434006616"><ele>246.6</ele><time>2026-05-03T17:22:29.974Z</time></trkpt><trkpt lat="45.46306965499577" lon="7.856538424373251"><ele>247.39999999999998</ele><time>2026-05-03T17:22:31.975Z</time></trkpt><trkpt lat="45.46305209757913" lon="7.856636001805558"><ele>248.2</ele><time>2026-05-03T17:22:32.975Z</time></trkpt><trkpt lat="45.46302639310935" lon="7.856744948246071"><ele>249.0</ele><time>2026-05-03T17:22:33.975Z</time></trkpt><trkpt lat="45.463003332575845" lon="7.85684718790725"><ele>249.5</ele><time>2026-05-03T17:22:34.975Z</time></trkpt><trkpt lat="45.46299307035924" lon="7.856960514448303"><ele>250.0</ele><time>2026-05-03T17:22:35.975Z</time></trkpt><trkpt lat="45.46300564398374" lon="7.857060756693557"><ele>250.5</ele><time>2026-05-03T17:22:36.976Z</time></trkpt><trkpt lat="45.463034720624144" lon="7.857161821658481"><ele>251.0</ele><time>2026-05-03T17:22:37.976Z</time></trkpt><trkpt lat="45.463067393850736" lon="7.8573036642532905"><ele>251.5</ele><time>2026-05-03T17:22:39.976Z</time></trkpt><trkpt lat="45.4630268872823" lon="7.857379584287689"><ele>252.0</ele><time>2026-05-03T17:22:43.972Z</time></trkpt><trkpt lat="45.462967547489995" lon="7.857470505230858"><ele>252.0</ele><time>2026-05-03T17:22:45.973Z</time></trkpt><trkpt lat="45.46301403959463" lon="7.8575733594843085"><ele>252.0</ele><time>2026-05-03T17:22:48.973Z</time></trkpt><trkpt lat="45.46298487669666" lon="7.857700640359749"><ele>252.0</ele><time>2026-05-03T17:22:50.973Z</time></trkpt><trkpt lat="45.46297538312983" lon="7.857828090056771"><ele>252.0</ele><time>2026-05-03T17:22:52.972Z</time></trkpt><trkpt lat="45.462987971160835" lon="7.857944490143125"><ele>252.0</ele><time>2026-05-03T17:22:59.973Z</time></trkpt><trkpt lat="45.46291466388266" lon="7.857916501894921"><ele>252.0</ele><time>2026-05-03T17:23:05.974Z</time></trkpt><trkpt lat="45.462852693124795" lon="7.857887813896329"><ele>253.39999999999998</ele><time>2026-05-03T17:23:07.974Z</time></trkpt><trkpt lat="45.46279676931215" lon="7.8579592699647955"><ele>254.79999999999998</ele><time>2026-05-03T17:23:09.974Z</time></trkpt><trkpt lat="45.462751679561414" lon="7.858074164901199"><ele>256.2</ele><time>2026-05-03T17:23:11.974Z</time></trkpt><trkpt lat="45.462717150105306" lon="7.858149882755308"><ele>257.59999999999997</ele><time>2026-05-03T17:23:12.974Z</time></trkpt><trkpt lat="45.46264730102405" lon="7.858289050399216"><ele>259.0</ele><time>2026-05-03T17:23:14.974Z</time></trkpt><trkpt lat="45.46261692852312" lon="7.858427704632308"><ele>257.5</ele><time>2026-05-03T17:23:16.974Z</time></trkpt><trkpt lat="45.46262290785038" lon="7.858543372638093"><ele>256.0</ele><time>2026-05-03T17:23:17.974Z</time></trkpt><trkpt lat="45.46261581041165" lon="7.8586548468601265"><ele>254.5</ele><time>2026-05-03T17:23:18.974Z</time></trkpt><trkpt lat="45.46260187147542" lon="7.8587822441005"><ele>253.0</ele><time>2026-05-03T17:23:20.974Z</time></trkpt><trkpt lat="45.46253961117726" lon="7.858922564581812"><ele>251.49999999999997</ele><time>2026-05-03T17:23:22.974Z</time></trkpt><trkpt lat="45.46250230601036" lon="7.858997839373309"><ele>250.0</ele><time>2026-05-03T17:23:23.974Z</time></trkpt><trkpt lat="45.46245343312471" lon="7.859062470828786"><ele>249.99999999999997</ele><time>2026-05-03T17:23:24.974Z</time></trkpt><trkpt lat="45.462370444362676" lon="7.859194000120848"><ele>250.0</ele><time>2026-05-03T17:23:26.974Z</time></trkpt><trkpt lat="45.46232681603748" lon="7.85927400493819"><ele>250.0</ele><time>2026-05-03T17:23:27.974Z</time></trkpt><trkpt lat="45.46229580368205" lon="7.85935485264544"><ele>250.0</ele><time>2026-05-03T17:23:28.974Z</time></trkpt><trkpt lat="45.46224504733274" lon="7.85948754982817"><ele>249.99999999999997</ele><time>2026-05-03T17:23:30.974Z</time></trkpt><trkpt lat="45.46220821307091" lon="7.8595640343169615"><ele>250.0</ele><time>2026-05-03T17:23:31.974Z</time></trkpt><trkpt lat="45.46214280077979" lon="7.859679567882306"><ele>249.2</ele><time>2026-05-03T17:23:33.975Z</time></trkpt><trkpt lat="45.46207038788896" lon="7.859760163887322"><ele>248.4</ele><time>2026-05-03T17:23:35.975Z</time></trkpt><trkpt lat="45.462008177054074" lon="7.859862977199602"><ele>247.60000000000002</ele><time>2026-05-03T17:23:37.975Z</time></trkpt><trkpt lat="45.46194495288399" lon="7.859977251967885"><ele>246.8</ele><time>2026-05-03T17:23:39.975Z</time></trkpt><trkpt lat="45.461878922952735" lon="7.860093552831787"><ele>246.0</ele><time>2026-05-03T17:23:41.975Z</time></trkpt><trkpt lat="45.46180781429942" lon="7.86021174500301"><ele>245.20000000000002</ele><time>2026-05-03T17:23:43.975Z</time></trkpt><trkpt lat="45.46173146066892" lon="7.8603219402517315"><ele>244.40000000000003</ele><time>2026-05-03T17:23:45.975Z</time></trkpt><trkpt lat="45.461679270109116" lon="7.860433160736678"><ele>243.6</ele><time>2026-05-03T17:23:47.975Z</time></trkpt><trkpt lat="45.461634781780994" lon="7.860557854700897"><ele>242.8</ele><time>2026-05-03T17:23:49.975Z</time></trkpt><trkpt lat="45.46156563407883" lon="7.860709860296688"><ele>242.0</ele><time>2026-05-03T17:23:51.975Z</time></trkpt><trkpt lat="45.461543813118716" lon="7.860869798360526"><ele>241.85714285714283</ele><time>2026-05-03T17:23:53.975Z</time></trkpt><trkpt lat="45.46152558929054" lon="7.860984274633248"><ele>241.7142857142857</ele><time>2026-05-03T17:23:54.975Z</time></trkpt><trkpt lat="45.461515276601745" lon="7.8610797927389315"><ele>241.57142857142856</ele><time>2026-05-03T17:23:55.975Z</time></trkpt><trkpt lat="45.461494558731076" lon="7.861181661772984"><ele>241.42857142857144</ele><time>2026-05-03T17:23:56.975Z</time></trkpt><trkpt lat="45.4614724135863" lon="7.861267192109831"><ele>241.2857142857143</ele><time>2026-05-03T17:23:57.975Z</time></trkpt><trkpt lat="45.46144636403732" lon="7.86136549076281"><ele>241.14285714285717</ele><time>2026-05-03T17:23:58.975Z</time></trkpt><trkpt lat="45.46142107865857" lon="7.861461560637605"><ele>241.0</ele><time>2026-05-03T17:23:59.975Z</time></trkpt><trkpt lat="45.461390971453966" lon="7.861556247767904"><ele>240.99999999999997</ele><time>2026-05-03T17:24:00.975Z</time></trkpt><trkpt lat="45.46135991968442" lon="7.861656427500228"><ele>241.0</ele><time>2026-05-03T17:24:01.975Z</time></trkpt><trkpt lat="45.46132270854687" lon="7.861762284089209"><ele>241.0</ele><time>2026-05-03T17:24:02.975Z</time></trkpt><trkpt lat="45.46128048247824" lon="7.861859106763393"><ele>241.0</ele><time>2026-05-03T17:24:03.975Z</time></trkpt><trkpt lat="45.46123843257392" lon="7.861958841351719"><ele>240.99999999999997</ele><time>2026-05-03T17:24:04.975Z</time></trkpt><trkpt lat="45.46118955767202" lon="7.862038370165859"><ele>241.0</ele><time>2026-05-03T17:24:05.975Z</time></trkpt><trkpt lat="45.461134697996265" lon="7.862124644882371"><ele>241.83333333333331</ele><time>2026-05-03T17:24:06.975Z</time></trkpt><trkpt lat="45.46107386951668" lon="7.86220129313281"><ele>242.66666666666666</ele><time>2026-05-03T17:24:07.975Z</time></trkpt><trkpt lat="45.46099321985983" lon="7.862278270797135"><ele>243.5</ele><time>2026-05-03T17:24:08.975Z</time></trkpt><trkpt lat="45.460914931590835" lon="7.8623435105003665"><ele>244.33333333333331</ele><time>2026-05-03T17:24:09.975Z</time></trkpt><trkpt lat="45.460836430725074" lon="7.862402475110641"><ele>245.16666666666666</ele><time>2026-05-03T17:24:10.976Z</time></trkpt><trkpt lat="45.46076222089494" lon="7.862474620532062"><ele>246.0</ele><time>2026-05-03T17:24:11.976Z</time></trkpt><trkpt lat="45.460686704249056" lon="7.862552066953233"><ele>247.16666666666666</ele><time>2026-05-03T17:24:12.976Z</time></trkpt><trkpt lat="45.46061971291255" lon="7.862635369403382"><ele>248.33333333333331</ele><time>2026-05-03T17:24:13.976Z</time></trkpt><trkpt lat="45.4605615937313" lon="7.862728019580052"><ele>249.5</ele><time>2026-05-03T17:24:14.976Z</time></trkpt><trkpt lat="45.46052673739756" lon="7.862824787570005"><ele>250.66666666666666</ele><time>2026-05-03T17:24:15.976Z</time></trkpt><trkpt lat="45.46050304507004" lon="7.862923863814866"><ele>251.83333333333331</ele><time>2026-05-03T17:24:16.976Z</time></trkpt><trkpt lat="45.46050824256133" lon="7.863042918588975"><ele>253.0</ele><time>2026-05-03T17:24:17.976Z</time></trkpt><trkpt lat="45.46052364846224" lon="7.863167841783947"><ele>252.99999999999997</ele><time>2026-05-03T17:24:18.976Z</time></trkpt><trkpt lat="45.46054481249231" lon="7.863309838355702"><ele>253.0</ele><time>2026-05-03T17:24:19.976Z</time></trkpt><trkpt lat="45.46059068941516" lon="7.863398297407376"><ele>253.0</ele><time>2026-05-03T17:24:20.976Z</time></trkpt><trkpt lat="45.460636494338104" lon="7.863492467759"><ele>253.0</ele><time>2026-05-03T17:24:21.976Z</time></trkpt><trkpt lat="45.46070806720774" lon="7.863555808808094"><ele>252.99999999999997</ele><time>2026-05-03T17:24:22.976Z</time></trkpt><trkpt lat="45.46079357209535" lon="7.863598580243802"><ele>253.0</ele><time>2026-05-03T17:24:23.976Z</time></trkpt><trkpt lat="45.46088695014761" lon="7.863630227849373"><ele>254.66666666666666</ele><time>2026-05-03T17:24:24.976Z</time></trkpt><trkpt lat="45.46097584361707" lon="7.863640516531388"><ele>256.3333333333333</ele><time>2026-05-03T17:24:25.976Z</time></trkpt><trkpt lat="45.46106227784964" lon="7.8636330989005385"><ele>258.0</ele><time>2026-05-03T17:24:26.976Z</time></trkpt><trkpt lat="45.46115388759794" lon="7.863628644671638"><ele>259.6666666666667</ele><time>2026-05-03T17:24:27.976Z</time></trkpt><trkpt lat="45.46122993323362" lon="7.863619751286732"><ele>261.33333333333337</ele><time>2026-05-03T17:24:28.976Z</time></trkpt><trkpt lat="45.46131161124076" lon="7.863612733387813"><ele>263.0</ele><time>2026-05-03T17:24:29.976Z</time></trkpt><trkpt lat="45.461390122024326" lon="7.863624858186556"><ele>263.0</ele><time>2026-05-03T17:24:30.976Z</time></trkpt><trkpt lat="45.46147533682489" lon="7.863648072294863"><ele>263.0</ele><time>2026-05-03T17:24:31.976Z</time></trkpt><trkpt lat="45.46155034693753" lon="7.8637028231670385"><ele>263.0</ele><time>2026-05-03T17:24:32.976Z</time></trkpt><trkpt lat="45.46162608272281" lon="7.863781383343367"><ele>263.0</ele><time>2026-05-03T17:24:33.976Z</time></trkpt><trkpt lat="45.4617074061304" lon="7.863854937630625"><ele>263.0</ele><time>2026-05-03T17:24:34.976Z</time></trkpt><trkpt lat="45.46177473020049" lon="7.8639358183048484"><ele>263.0</ele><time>2026-05-03T17:24:35.976Z</time></trkpt><trkpt lat="45.4618395204264" lon="7.8639974679988285"><ele>263.0</ele><time>2026-05-03T17:24:36.976Z</time></trkpt><trkpt lat="45.46190166443996" lon="7.864060728435543"><ele>263.0</ele><time>2026-05-03T17:24:37.976Z</time></trkpt><trkpt lat="45.4619482063986" lon="7.864122586911883"><ele>263.0</ele><time>2026-05-03T17:24:38.976Z</time></trkpt><trkpt lat="45.46200010247858" lon="7.864199679896214"><ele>263.0</ele><time>2026-05-03T17:24:39.976Z</time></trkpt><trkpt lat="45.4620688142545" lon="7.864255821239829"><ele>263.0</ele><time>2026-05-03T17:24:40.976Z</time></trkpt><trkpt lat="45.4621295415162" lon="7.864309540324847"><ele>263.0</ele><time>2026-05-03T17:24:41.976Z</time></trkpt><trkpt lat="45.46217530746097" lon="7.864382462995415"><ele>263.0</ele><time>2026-05-03T17:24:42.976Z</time></trkpt><trkpt lat="45.462210042258654" lon="7.86447226492826"><ele>260.83333333333337</ele><time>2026-05-03T17:24:43.976Z</time></trkpt><trkpt lat="45.46226699379131" lon="7.864575615719663"><ele>258.6666666666667</ele><time>2026-05-03T17:24:44.976Z</time></trkpt><trkpt lat="45.46231686917899" lon="7.864685628019089"><ele>256.5</ele><time>2026-05-03T17:24:45.976Z</time></trkpt><trkpt lat="45.46235255850882" lon="7.864792668225188"><ele>254.33333333333331</ele><time>2026-05-03T17:24:46.976Z</time></trkpt><trkpt lat="45.462403138858534" lon="7.864894268915009"><ele>252.16666666666666</ele><time>2026-05-03T17:24:47.976Z</time></trkpt><trkpt lat="45.46243934916469" lon="7.86500382466355"><ele>250.0</ele><time>2026-05-03T17:24:48.972Z</time></trkpt><trkpt lat="45.46246963029501" lon="7.8651358072746955"><ele>249.99999999999997</ele><time>2026-05-03T17:24:49.972Z</time></trkpt><trkpt lat="45.46248211143511" lon="7.865260761163271"><ele>250.0</ele><time>2026-05-03T17:24:50.972Z</time></trkpt><trkpt lat="45.46249071867296" lon="7.865369843181154"><ele>250.0</ele><time>2026-05-03T17:24:51.972Z</time></trkpt><trkpt lat="45.46249175999211" lon="7.865469599915536"><ele>250.0</ele><time>2026-05-03T17:24:52.971Z</time></trkpt><trkpt lat="45.462503929536624" lon="7.8655582524849015"><ele>249.99999999999997</ele><time>2026-05-03T17:24:53.971Z</time></trkpt><trkpt lat="45.46254660261835" lon="7.865740890457541"><ele>250.0</ele><time>2026-05-03T17:24:55.971Z</time></trkpt><trkpt lat="45.462591339021216" lon="7.865836448884253"><ele>250.8</ele><time>2026-05-03T17:24:56.971Z</time></trkpt><trkpt lat="45.46264962371647" lon="7.865966872003767"><ele>251.6</ele><time>2026-05-03T17:24:57.972Z</time></trkpt><trkpt lat="45.462727787881164" lon="7.866108633499339"><ele>252.39999999999998</ele><time>2026-05-03T17:24:58.972Z</time></trkpt><trkpt lat="45.462788781236114" lon="7.866238927136784"><ele>253.2</ele><time>2026-05-03T17:24:59.972Z</time></trkpt><trkpt lat="45.46282966483377" lon="7.866373937691195"><ele>254.0</ele><time>2026-05-03T17:25:00.972Z</time></trkpt><trkpt lat="45.4628827426168" lon="7.866528820183714"><ele>254.00000000000003</ele><time>2026-05-03T17:25:01.972Z</time></trkpt><trkpt lat="45.46292522132212" lon="7.866648443202594"><ele>254.0</ele><time>2026-05-03T17:25:02.972Z</time></trkpt><trkpt lat="45.46296287099941" lon="7.866765937829145"><ele>254.0</ele><time>2026-05-03T17:25:03.972Z</time></trkpt><trkpt lat="45.46299919782181" lon="7.866857333488333"><ele>254.0</ele><time>2026-05-03T17:25:04.972Z</time></trkpt><trkpt lat="45.463047395409745" lon="7.866934902763261"><ele>254.00000000000003</ele><time>2026-05-03T17:25:05.972Z</time></trkpt><trkpt lat="45.46309939140834" lon="7.866996396063144"><ele>254.0</ele><time>2026-05-03T17:25:06.972Z</time></trkpt><trkpt lat="45.463156412300066" lon="7.867057805986982"><ele>252.66666666666669</ele><time>2026-05-03T17:25:07.972Z</time></trkpt><trkpt lat="45.46321718499165" lon="7.867117758588199"><ele>251.33333333333334</ele><time>2026-05-03T17:25:08.972Z</time></trkpt><trkpt lat="45.46328184690747" lon="7.867184849195401"><ele>250.0</ele><time>2026-05-03T17:25:09.972Z</time></trkpt><trkpt lat="45.46332629053183" lon="7.8672689714108825"><ele>248.66666666666669</ele><time>2026-05-03T17:25:10.972Z</time></trkpt><trkpt lat="45.46335276226051" lon="7.867455774926019"><ele>247.33333333333334</ele><time>2026-05-03T17:25:12.972Z</time></trkpt><trkpt lat="45.46336512159224" lon="7.867557517531962"><ele>246.0</ele><time>2026-05-03T17:25:13.972Z</time></trkpt><trkpt lat="45.46338791986742" lon="7.867669773316752"><ele>246.0</ele><time>2026-05-03T17:25:14.972Z</time></trkpt><trkpt lat="45.46341686320391" lon="7.867768518530887"><ele>246.0</ele><time>2026-05-03T17:25:15.973Z</time></trkpt><trkpt lat="45.4634496765377" lon="7.867877481247465"><ele>246.0</ele><time>2026-05-03T17:25:16.973Z</time></trkpt><trkpt lat="45.46348092835149" lon="7.867993142984875"><ele>246.0</ele><time>2026-05-03T17:25:17.973Z</time></trkpt><trkpt lat="45.46351931296361" lon="7.8681031331553015"><ele>246.0</ele><time>2026-05-03T17:25:18.973Z</time></trkpt><trkpt lat="45.46355834741203" lon="7.868214646984945"><ele>246.0</ele><time>2026-05-03T17:25:19.973Z</time></trkpt><trkpt lat="45.463578227309" lon="7.8683204347318965"><ele>246.0</ele><time>2026-05-03T17:25:20.973Z</time></trkpt><trkpt lat="45.463572093856065" lon="7.868413679875407"><ele>246.0</ele><time>2026-05-03T17:25:21.973Z</time></trkpt><trkpt lat="45.46348238411614" lon="7.868563883956969"><ele>246.0</ele><time>2026-05-03T17:25:22.973Z</time></trkpt><trkpt lat="45.46351055423251" lon="7.868664558576363"><ele>246.0</ele><time>2026-05-03T17:25:23.973Z</time></trkpt><trkpt lat="45.46353656928046" lon="7.868767935164749"><ele>246.0</ele><time>2026-05-03T17:25:24.973Z</time></trkpt><trkpt lat="45.46356370689761" lon="7.868873690555383"><ele>246.0</ele><time>2026-05-03T17:25:25.973Z</time></trkpt><trkpt lat="45.463607865298535" lon="7.868995549409091"><ele>246.5</ele><time>2026-05-03T17:25:26.973Z</time></trkpt><trkpt lat="45.463668164462085" lon="7.8691085214485295"><ele>247.0</ele><time>2026-05-03T17:25:27.973Z</time></trkpt><trkpt lat="45.463717640735254" lon="7.869191873267501"><ele>247.5</ele><time>2026-05-03T17:25:28.973Z</time></trkpt><trkpt lat="45.46374134367718" lon="7.869284735490441"><ele>248.0</ele><time>2026-05-03T17:25:29.973Z</time></trkpt><trkpt lat="45.46382022082105" lon="7.869392219462646"><ele>248.5</ele><time>2026-05-03T17:25:31.973Z</time></trkpt><trkpt lat="45.46387958072492" lon="7.869476380717213"><ele>249.0</ele><time>2026-05-03T17:25:33.973Z</time></trkpt><trkpt lat="45.46391705760915" lon="7.869577466255636"><ele>249.0</ele><time>2026-05-03T17:25:44.973Z</time></trkpt><trkpt lat="45.463995194823845" lon="7.869676332351165"><ele>248.99999999999997</ele><time>2026-05-03T17:25:48.973Z</time></trkpt><trkpt lat="45.464075420618286" lon="7.869742647163928"><ele>248.99999999999997</ele><time>2026-05-03T17:27:08.972Z</time></trkpt><trkpt lat="45.46415205758318" lon="7.869780544273282"><ele>249.0</ele><time>2026-05-03T17:27:10.972Z</time></trkpt><trkpt lat="45.464237355664864" lon="7.869808192100272"><ele>249.0</ele><time>2026-05-03T17:27:12.972Z</time></trkpt><trkpt lat="45.46432252692288" lon="7.8698471365490414"><ele>249.0</ele><time>2026-05-03T17:27:14.972Z</time></trkpt><trkpt lat="45.46438286717627" lon="7.869957421710508"><ele>249.0</ele><time>2026-05-03T17:27:16.972Z</time></trkpt><trkpt lat="45.46439909028355" lon="7.870053346680932"><ele>249.0</ele><time>2026-05-03T17:27:17.972Z</time></trkpt><trkpt lat="45.46443679740195" lon="7.870200645424889"><ele>249.0</ele><time>2026-05-03T17:27:19.972Z</time></trkpt><trkpt lat="45.464442662016175" lon="7.870297526778568"><ele>249.0</ele><time>2026-05-03T17:27:20.972Z</time></trkpt><trkpt lat="45.46447039632334" lon="7.870437284758758"><ele>249.0</ele><time>2026-05-03T17:27:22.972Z</time></trkpt><trkpt lat="45.46445119272475" lon="7.870568146719162"><ele>249.39999999999998</ele><time>2026-05-03T17:27:24.972Z</time></trkpt><trkpt lat="45.464427935809326" lon="7.870667184046863"><ele>249.79999999999998</ele><time>2026-05-03T17:27:27.972Z</time></trkpt><trkpt lat="45.46435152273314" lon="7.870770215919155"><ele>250.20000000000002</ele><time>2026-05-03T17:27:30.972Z</time></trkpt><trkpt lat="45.46433378288105" lon="7.870861799045089"><ele>250.60000000000002</ele><time>2026-05-03T17:27:32.972Z</time></trkpt><trkpt lat="45.4642501804808" lon="7.870998715466866"><ele>251.0</ele><time>2026-05-03T17:27:34.972Z</time></trkpt><trkpt lat="45.464153698370936" lon="7.8710669667328865"><ele>251.0</ele><time>2026-05-03T17:27:36.972Z</time></trkpt><trkpt lat="45.46409644459494" lon="7.871133341066125"><ele>251.00000000000003</ele><time>2026-05-03T17:27:37.972Z</time></trkpt><trkpt lat="45.46404219105785" lon="7.871198208778864"><ele>251.00000000000003</ele><time>2026-05-03T17:27:38.972Z</time></trkpt><trkpt lat="45.46398524384462" lon="7.871347850004427"><ele>251.0</ele><time>2026-05-03T17:27:40.972Z</time></trkpt><trkpt lat="45.46394856470881" lon="7.871437618645782"><ele>251.0</ele><time>2026-05-03T17:27:42.972Z</time></trkpt><trkpt lat="45.46387190956309" lon="7.87158714642547"><ele>251.00000000000003</ele><time>2026-05-03T17:27:44.972Z</time></trkpt><trkpt lat="45.46382139609278" lon="7.871654334497258"><ele>251.0</ele><time>2026-05-03T17:27:45.973Z</time></trkpt><trkpt lat="45.46376726682318" lon="7.871704077803231"><ele>251.0</ele><time>2026-05-03T17:27:46.973Z</time></trkpt><trkpt lat="45.46369264265766" lon="7.871847488242563"><ele>251.0</ele><time>2026-05-03T17:27:48.973Z</time></trkpt><trkpt lat="45.463646030028016" lon="7.871916074427184"><ele>251.00000000000003</ele><time>2026-05-03T17:27:49.973Z</time></trkpt><trkpt lat="45.46360199191817" lon="7.872001131798982"><ele>251.0</ele><time>2026-05-03T17:27:50.973Z</time></trkpt><trkpt lat="45.46352411977563" lon="7.8721408264742365"><ele>250.66666666666669</ele><time>2026-05-03T17:27:52.973Z</time></trkpt><trkpt lat="45.46347664484891" lon="7.872214027688777"><ele>250.33333333333334</ele><time>2026-05-03T17:27:53.973Z</time></trkpt><trkpt lat="45.4634193222874" lon="7.872338959280432"><ele>250.0</ele><time>2026-05-03T17:27:55.973Z</time></trkpt><trkpt lat="45.46337326410416" lon="7.872401934627377"><ele>249.66666666666669</ele><time>2026-05-03T17:27:56.973Z</time></trkpt><trkpt lat="45.463303267265076" lon="7.87244222174338"><ele>249.33333333333334</ele><time>2026-05-03T17:27:57.973Z</time></trkpt><trkpt lat="45.46321075896287" lon="7.872504673427686"><ele>249.0</ele><time>2026-05-03T17:27:59.973Z</time></trkpt><trkpt lat="45.463106348157815" lon="7.872503128160201"><ele>249.0</ele><time>2026-05-03T17:28:01.973Z</time></trkpt><trkpt lat="45.46302072241188" lon="7.872537497213318"><ele>248.99999999999997</ele><time>2026-05-03T17:28:03.973Z</time></trkpt><trkpt lat="45.46295242890328" lon="7.872602556258227"><ele>248.99999999999997</ele><time>2026-05-03T17:28:07.973Z</time></trkpt><trkpt lat="45.462916804046124" lon="7.872685416214647"><ele>249.0</ele><time>2026-05-03T17:28:09.973Z</time></trkpt><trkpt lat="45.46283796093179" lon="7.8727379562659605"><ele>249.0</ele><time>2026-05-03T17:28:11.973Z</time></trkpt><trkpt lat="45.462808948153295" lon="7.872945630314934"><ele>249.0</ele><time>2026-05-03T17:28:15.973Z</time></trkpt><trkpt lat="45.46287009583668" lon="7.873044280559964"><ele>249.0</ele><time>2026-05-03T17:28:16.973Z</time></trkpt><trkpt lat="45.46290823711137" lon="7.873124787966011"><ele>249.0</ele><time>2026-05-03T17:28:17.973Z</time></trkpt><trkpt lat="45.46294090019013" lon="7.873206699969971"><ele>249.0</ele><time>2026-05-03T17:28:18.973Z</time></trkpt><trkpt lat="45.46298996883558" lon="7.873335499166754"><ele>249.0</ele><time>2026-05-03T17:28:20.973Z</time></trkpt><trkpt lat="45.462957070823755" lon="7.873473962088159"><ele>249.0</ele><time>2026-05-03T17:28:23.973Z</time></trkpt><trkpt lat="45.46294655721568" lon="7.873578717736015"><ele>249.0</ele><time>2026-05-03T17:28:24.973Z</time></trkpt><trkpt lat="45.46287268291211" lon="7.8736807713890355"><ele>249.0</ele><time>2026-05-03T17:28:25.974Z</time></trkpt><trkpt lat="45.462809438593695" lon="7.873777038654121"><ele>249.0</ele><time>2026-05-03T17:28:26.974Z</time></trkpt><trkpt lat="45.46277600410358" lon="7.873883004085828"><ele>249.0</ele><time>2026-05-03T17:28:27.974Z</time></trkpt><trkpt lat="45.462746324332876" lon="7.873973853254552"><ele>249.0</ele><time>2026-05-03T17:28:28.974Z</time></trkpt><trkpt lat="45.462673687837636" lon="7.874074243847047"><ele>249.0</ele><time>2026-05-03T17:28:29.974Z</time></trkpt><trkpt lat="45.46261882423512" lon="7.874133572424059"><ele>249.0</ele><time>2026-05-03T17:28:30.974Z</time></trkpt><trkpt lat="45.46259844931496" lon="7.874231500944479"><ele>249.0</ele><time>2026-05-03T17:28:32.974Z</time></trkpt><trkpt lat="45.46270848891083" lon="7.874409036117733"><ele>249.0</ele><time>2026-05-03T17:28:34.974Z</time></trkpt><trkpt lat="45.462763623471034" lon="7.874535487817513"><ele>249.0</ele><time>2026-05-03T17:28:35.974Z</time></trkpt><trkpt lat="45.46284505715469" lon="7.874643501220412"><ele>247.5</ele><time>2026-05-03T17:28:36.974Z</time></trkpt><trkpt lat="45.46291580882133" lon="7.874777495266539"><ele>246.0</ele><time>2026-05-03T17:28:37.974Z</time></trkpt><trkpt lat="45.4630373954581" lon="7.874848068193012"><ele>244.5</ele><time>2026-05-03T17:28:38.974Z</time></trkpt><trkpt lat="45.463137680824836" lon="7.874926157200109"><ele>243.0</ele><time>2026-05-03T17:28:39.974Z</time></trkpt><trkpt lat="45.463231963574216" lon="7.874998682008103"><ele>241.25</ele><time>2026-05-03T17:28:40.974Z</time></trkpt><trkpt lat="45.463299342529304" lon="7.875136081708955"><ele>239.5</ele><time>2026-05-03T17:28:41.974Z</time></trkpt><trkpt lat="45.46332091161082" lon="7.875314342995114"><ele>237.75</ele><time>2026-05-03T17:28:42.974Z</time></trkpt><trkpt lat="45.4632577873108" lon="7.8755085922860975"><ele>236.0</ele><time>2026-05-03T17:28:43.974Z</time></trkpt><trkpt lat="45.46318377740207" lon="7.8756319740109"><ele>236.0</ele><time>2026-05-03T17:28:44.974Z</time></trkpt><trkpt lat="45.46313390243897" lon="7.875787558834753"><ele>236.0</ele><time>2026-05-03T17:28:45.974Z</time></trkpt><trkpt lat="45.46308204885851" lon="7.875955023890642"><ele>236.0</ele><time>2026-05-03T17:28:46.974Z</time></trkpt><trkpt lat="45.46303778375203" lon="7.876137590105103"><ele>236.0</ele><time>2026-05-03T17:28:47.974Z</time></trkpt><trkpt lat="45.46300816802548" lon="7.876306355054408"><ele>236.25</ele><time>2026-05-03T17:28:48.974Z</time></trkpt><trkpt lat="45.462971410274434" lon="7.876498550111241"><ele>236.5</ele><time>2026-05-03T17:28:49.974Z</time></trkpt><trkpt lat="45.46293760949336" lon="7.876670209551489"><ele>236.75</ele><time>2026-05-03T17:28:50.974Z</time></trkpt><trkpt lat="45.46289418236945" lon="7.8768485847337395"><ele>237.0</ele><time>2026-05-03T17:28:51.974Z</time></trkpt><trkpt lat="45.46282289483744" lon="7.877017386227317"><ele>237.0</ele><time>2026-05-03T17:28:52.974Z</time></trkpt><trkpt lat="45.46275549232846" lon="7.8771677371009785"><ele>237.0</ele><time>2026-05-03T17:28:53.974Z</time></trkpt><trkpt lat="45.46268815027041" lon="7.877319487480987"><ele>237.0</ele><time>2026-05-03T17:28:54.974Z</time></trkpt><trkpt lat="45.46262958185287" lon="7.877455538704088"><ele>237.0</ele><time>2026-05-03T17:28:55.974Z</time></trkpt><trkpt lat="45.46255528654532" lon="7.877622431649631"><ele>236.75</ele><time>2026-05-03T17:28:56.974Z</time></trkpt><trkpt lat="45.46248662677294" lon="7.87777811743806"><ele>236.5</ele><time>2026-05-03T17:28:57.974Z</time></trkpt><trkpt lat="45.462427569750446" lon="7.877913776519259"><ele>236.25</ele><time>2026-05-03T17:28:58.974Z</time></trkpt><trkpt lat="45.462372467269326" lon="7.878055541939509"><ele>236.0</ele><time>2026-05-03T17:28:59.974Z</time></trkpt><trkpt lat="45.462259273594746" lon="7.878196399518097"><ele>236.0</ele><time>2026-05-03T17:29:00.971Z</time></trkpt><trkpt lat="45.46218945829751" lon="7.878368200614511"><ele>236.0</ele><time>2026-05-03T17:29:01.971Z</time></trkpt><trkpt lat="45.46211219116353" lon="7.878537131601193"><ele>236.0</ele><time>2026-05-03T17:29:02.971Z</time></trkpt><trkpt lat="45.46205151210403" lon="7.878708815462454"><ele>236.0</ele><time>2026-05-03T17:29:03.971Z</time></trkpt><trkpt lat="45.461994535054835" lon="7.87885279177783"><ele>236.83333333333334</ele><time>2026-05-03T17:29:04.971Z</time></trkpt><trkpt lat="45.4619298504875" lon="7.878974547800203"><ele>237.66666666666669</ele><time>2026-05-03T17:29:05.971Z</time></trkpt><trkpt lat="45.46186964120396" lon="7.8790701336331"><ele>238.5</ele><time>2026-05-03T17:29:06.971Z</time></trkpt><trkpt lat="45.46181427839158" lon="7.879138570611722"><ele>239.33333333333331</ele><time>2026-05-03T17:29:07.971Z</time></trkpt><trkpt lat="45.461763977852115" lon="7.8792230283968685"><ele>240.16666666666666</ele><time>2026-05-03T17:29:08.971Z</time></trkpt><trkpt lat="45.4617631059884" lon="7.8793290591806295"><ele>241.0</ele><time>2026-05-03T17:29:09.971Z</time></trkpt><trkpt lat="45.461849100779915" lon="7.879434951278015"><ele>241.0</ele><time>2026-05-03T17:29:10.971Z</time></trkpt><trkpt lat="45.46188631762461" lon="7.879584918717508"><ele>241.0</ele><time>2026-05-03T17:29:11.971Z</time></trkpt><trkpt lat="45.46193560085762" lon="7.879730394108393"><ele>241.0</ele><time>2026-05-03T17:29:12.971Z</time></trkpt><trkpt lat="45.4619750929826" lon="7.8798731811393745"><ele>241.0</ele><time>2026-05-03T17:29:13.97Z</time></trkpt><trkpt lat="45.462013659783146" lon="7.880035915122389"><ele>241.25</ele><time>2026-05-03T17:29:14.97Z</time></trkpt><trkpt lat="45.46205322490324" lon="7.8801967497068"><ele>241.5</ele><time>2026-05-03T17:29:15.97Z</time></trkpt><trkpt lat="45.462103007617095" lon="7.880365602738564"><ele>241.75</ele><time>2026-05-03T17:29:16.97Z</time></trkpt><trkpt lat="45.46213692847816" lon="7.8805433699907885"><ele>242.0</ele><time>2026-05-03T17:29:17.97Z</time></trkpt><trkpt lat="45.46219746240402" lon="7.880698824539221"><ele>240.39999999999998</ele><time>2026-05-03T17:29:18.97Z</time></trkpt><trkpt lat="45.462236901189954" lon="7.880859699279787"><ele>238.79999999999998</ele><time>2026-05-03T17:29:19.97Z</time></trkpt><trkpt lat="45.4622728528096" lon="7.881020522917379"><ele>237.2</ele><time>2026-05-03T17:29:20.97Z</time></trkpt><trkpt lat="45.462306520382704" lon="7.8811528345370965"><ele>235.6</ele><time>2026-05-03T17:29:21.97Z</time></trkpt><trkpt lat="45.462341726051534" lon="7.881286114213658"><ele>234.0</ele><time>2026-05-03T17:29:22.97Z</time></trkpt><trkpt lat="45.46236874340758" lon="7.881414747151264"><ele>234.0</ele><time>2026-05-03T17:29:23.97Z</time></trkpt><trkpt lat="45.462363815641986" lon="7.8815483634077745"><ele>234.0</ele><time>2026-05-03T17:29:24.97Z</time></trkpt><trkpt lat="45.462332352441145" lon="7.881679525461971"><ele>234.0</ele><time>2026-05-03T17:29:25.97Z</time></trkpt><trkpt lat="45.46231081267743" lon="7.881777611489608"><ele>234.0</ele><time>2026-05-03T17:29:26.97Z</time></trkpt><trkpt lat="45.462241406248545" lon="7.88182744581703"><ele>234.0</ele><time>2026-05-03T17:29:27.97Z</time></trkpt><trkpt lat="45.46219444849464" lon="7.8818954544371955"><ele>234.0</ele><time>2026-05-03T17:29:31.971Z</time></trkpt><trkpt lat="45.46211512410216" lon="7.882033852483881"><ele>234.0</ele><time>2026-05-03T17:29:33.971Z</time></trkpt><trkpt lat="45.46207524701427" lon="7.882103427585654"><ele>234.0</ele><time>2026-05-03T17:29:34.971Z</time></trkpt><trkpt lat="45.462037372237205" lon="7.8822022448122615"><ele>234.0</ele><time>2026-05-03T17:29:35.971Z</time></trkpt><trkpt lat="45.46199665753768" lon="7.882292846316157"><ele>234.0</ele><time>2026-05-03T17:29:36.971Z</time></trkpt><trkpt lat="45.46195094274205" lon="7.882394576369076"><ele>234.0</ele><time>2026-05-03T17:29:37.971Z</time></trkpt><trkpt lat="45.461939091679056" lon="7.88253531485172"><ele>234.0</ele><time>2026-05-03T17:29:38.971Z</time></trkpt><trkpt lat="45.461901221217786" lon="7.882654323838405"><ele>234.0</ele><time>2026-05-03T17:29:39.971Z</time></trkpt><trkpt lat="45.46187173393816" lon="7.882768836823223"><ele>234.0</ele><time>2026-05-03T17:29:40.971Z</time></trkpt><trkpt lat="45.46185680291126" lon="7.882873505651117"><ele>234.0</ele><time>2026-05-03T17:29:41.971Z</time></trkpt><trkpt lat="45.46185817841423" lon="7.882992577443303"><ele>234.0</ele><time>2026-05-03T17:29:42.971Z</time></trkpt><trkpt lat="45.46184712313344" lon="7.883113797801723"><ele>234.0</ele><time>2026-05-03T17:29:43.971Z</time></trkpt><trkpt lat="45.46181273026749" lon="7.8832175106622895"><ele>234.0</ele><time>2026-05-03T17:29:44.971Z</time></trkpt><trkpt lat="45.46178573564844" lon="7.88332111748776"><ele>234.0</ele><time>2026-05-03T17:29:45.971Z</time></trkpt><trkpt lat="45.46175737998883" lon="7.883409427013963"><ele>234.0</ele><time>2026-05-03T17:29:46.971Z</time></trkpt><trkpt lat="45.461704617245914" lon="7.883504598910553"><ele>234.0</ele><time>2026-05-03T17:29:48.971Z</time></trkpt><trkpt lat="45.461617703606514" lon="7.883631182539725"><ele>234.0</ele><time>2026-05-03T17:29:50.971Z</time></trkpt><trkpt lat="45.461562295001976" lon="7.883703878669178"><ele>234.0</ele><time>2026-05-03T17:29:51.971Z</time></trkpt><trkpt lat="45.4614863063671" lon="7.883786631197579"><ele>234.0</ele><time>2026-05-03T17:29:52.971Z</time></trkpt><trkpt lat="45.4614046325871" lon="7.883858059130786"><ele>234.16666666666666</ele><time>2026-05-03T17:29:53.971Z</time></trkpt><trkpt lat="45.46132674325248" lon="7.883901799992681"><ele>234.33333333333331</ele><time>2026-05-03T17:29:54.971Z</time></trkpt><trkpt lat="45.46124264217505" lon="7.883934133567534"><ele>234.5</ele><time>2026-05-03T17:29:55.971Z</time></trkpt><trkpt lat="45.46116501794877" lon="7.883955045202179"><ele>234.66666666666666</ele><time>2026-05-03T17:29:56.971Z</time></trkpt><trkpt lat="45.461092644714704" lon="7.8839655491158815"><ele>234.83333333333331</ele><time>2026-05-03T17:29:57.971Z</time></trkpt><trkpt lat="45.46102618785167" lon="7.883977596497268"><ele>235.0</ele><time>2026-05-03T17:29:58.971Z</time></trkpt><trkpt lat="45.460956183499" lon="7.884004323779279"><ele>234.0</ele><time>2026-05-03T17:29:59.971Z</time></trkpt><trkpt lat="45.46094824451998" lon="7.884697850675938"><ele>234.0</ele><time>2026-05-03T17:30:00.971Z</time></trkpt><trkpt lat="45.46092994008746" lon="7.884876404783034"><ele>234.0</ele><time>2026-05-03T17:30:01.971Z</time></trkpt><trkpt lat="45.46094343150215" lon="7.885048409839432"><ele>234.0</ele><time>2026-05-03T17:30:02.971Z</time></trkpt><trkpt lat="45.46097719796341" lon="7.885194590641822"><ele>234.0</ele><time>2026-05-03T17:30:03.971Z</time></trkpt><trkpt lat="45.4610264729505" lon="7.885318131408534"><ele>234.0</ele><time>2026-05-03T17:30:04.971Z</time></trkpt><trkpt lat="45.461051558338625" lon="7.885431517891461"><ele>234.00000000000003</ele><time>2026-05-03T17:30:05.971Z</time></trkpt><trkpt lat="45.46104281551632" lon="7.885547711219795"><ele>234.0</ele><time>2026-05-03T17:30:06.971Z</time></trkpt><trkpt lat="45.4610135899708" lon="7.8856352247531625"><ele>234.0</ele><time>2026-05-03T17:30:07.971Z</time></trkpt><trkpt lat="45.460975548339675" lon="7.885728826788895"><ele>234.00000000000003</ele><time>2026-05-03T17:30:09.972Z</time></trkpt><trkpt lat="45.460977717274154" lon="7.885827282648209"><ele>234.0</ele><time>2026-05-03T17:30:14.972Z</time></trkpt><trkpt lat="45.460950141450034" lon="7.885918874145199"><ele>234.0</ele><time>2026-05-03T17:30:17.972Z</time></trkpt><trkpt lat="45.46087348676607" lon="7.885967693329244"><ele>233.83333333333334</ele><time>2026-05-03T17:30:19.972Z</time></trkpt><trkpt lat="45.46079536602085" lon="7.886041473341541"><ele>233.66666666666669</ele><time>2026-05-03T17:30:20.972Z</time></trkpt><trkpt lat="45.460733310233955" lon="7.88610007635241"><ele>233.5</ele><time>2026-05-03T17:30:21.972Z</time></trkpt><trkpt lat="45.460664503818016" lon="7.886143620196669"><ele>233.33333333333334</ele><time>2026-05-03T17:30:22.972Z</time></trkpt><trkpt lat="45.460589456297996" lon="7.886174269243814"><ele>233.16666666666669</ele><time>2026-05-03T17:30:23.972Z</time></trkpt><trkpt lat="45.460520542029506" lon="7.886168530060688"><ele>233.0</ele><time>2026-05-03T17:30:24.972Z</time></trkpt><trkpt lat="45.46040038666219" lon="7.886198229093177"><ele>233.00000000000003</ele><time>2026-05-03T17:30:26.972Z</time></trkpt><trkpt lat="45.46033577361358" lon="7.886201940411979"><ele>233.0</ele><time>2026-05-03T17:30:27.972Z</time></trkpt><trkpt lat="45.460292023271016" lon="7.886072112158359"><ele>233.0</ele><time>2026-05-03T17:30:29.972Z</time></trkpt><trkpt lat="45.46022443691694" lon="7.8859834444367"><ele>233.0</ele><time>2026-05-03T17:30:31.972Z</time></trkpt><trkpt lat="45.46014219167997" lon="7.886031227196933"><ele>233.00000000000003</ele><time>2026-05-03T17:30:33.972Z</time></trkpt><trkpt lat="45.46011311149884" lon="7.88614416950174"><ele>233.0</ele><time>2026-05-03T17:30:34.972Z</time></trkpt><trkpt lat="45.460088755245884" lon="7.8862498905798555"><ele>233.0</ele><time>2026-05-03T17:30:35.972Z</time></trkpt><trkpt lat="45.46006266217241" lon="7.886372050900974"><ele>233.0</ele><time>2026-05-03T17:30:36.972Z</time></trkpt><trkpt lat="45.46002113797397" lon="7.886513848622754"><ele>233.0</ele><time>2026-05-03T17:30:37.972Z</time></trkpt><trkpt lat="45.45996577629317" lon="7.8866355764136244"><ele>233.0</ele><time>2026-05-03T17:30:38.972Z</time></trkpt><trkpt lat="45.45989643776992" lon="7.886758028670653"><ele>233.0</ele><time>2026-05-03T17:30:39.972Z</time></trkpt><trkpt lat="45.45982182319273" lon="7.88688411353135"><ele>232.75</ele><time>2026-05-03T17:30:40.972Z</time></trkpt><trkpt lat="45.45973179492747" lon="7.886998700350491"><ele>232.5</ele><time>2026-05-03T17:30:41.972Z</time></trkpt><trkpt lat="45.45962799359718" lon="7.887100809131813"><ele>232.25</ele><time>2026-05-03T17:30:42.972Z</time></trkpt><trkpt lat="45.45952038076178" lon="7.887187938535316"><ele>232.0</ele><time>2026-05-03T17:30:43.972Z</time></trkpt><trkpt lat="45.45941949524906" lon="7.887246604739586"><ele>232.0</ele><time>2026-05-03T17:30:44.972Z</time></trkpt><trkpt lat="45.45930644987498" lon="7.887272678985714"><ele>232.0</ele><time>2026-05-03T17:30:45.972Z</time></trkpt><trkpt lat="45.45919519164534" lon="7.887284515493013"><ele>232.0</ele><time>2026-05-03T17:30:46.972Z</time></trkpt><trkpt lat="45.45909169793613" lon="7.887259768749346"><ele>232.0</ele><time>2026-05-03T17:30:47.972Z</time></trkpt><trkpt lat="45.45898699094319" lon="7.887204166064458"><ele>232.0</ele><time>2026-05-03T17:30:48.972Z</time></trkpt><trkpt lat="45.4588966844576" lon="7.887119854922102"><ele>232.0</ele><time>2026-05-03T17:30:49.973Z</time></trkpt><trkpt lat="45.458823032140025" lon="7.887011967576082"><ele>232.0</ele><time>2026-05-03T17:30:50.973Z</time></trkpt><trkpt lat="45.45876577761322" lon="7.886889902189252"><ele>232.0</ele><time>2026-05-03T17:30:51.973Z</time></trkpt><trkpt lat="45.4587258834385" lon="7.8867580008014375"><ele>232.0</ele><time>2026-05-03T17:30:52.973Z</time></trkpt><trkpt lat="45.45870574305143" lon="7.8866362068607945"><ele>232.0</ele><time>2026-05-03T17:30:53.973Z</time></trkpt><trkpt lat="45.45869980695494" lon="7.886507889267769"><ele>232.0</ele><time>2026-05-03T17:30:54.973Z</time></trkpt><trkpt lat="45.45871295342626" lon="7.886367834661748"><ele>232.0</ele><time>2026-05-03T17:30:55.973Z</time></trkpt><trkpt lat="45.45874715457788" lon="7.886220857826263"><ele>232.0</ele><time>2026-05-03T17:30:56.973Z</time></trkpt><trkpt lat="45.458806652246544" lon="7.886078398524968"><ele>232.0</ele><time>2026-05-03T17:30:57.973Z</time></trkpt><trkpt lat="45.458881122740536" lon="7.885950589854103"><ele>232.0</ele><time>2026-05-03T17:30:58.973Z</time></trkpt><trkpt lat="45.45895750140299" lon="7.8858345575115605"><ele>232.33333333333331</ele><time>2026-05-03T17:30:59.973Z</time></trkpt><trkpt lat="45.45902591839103" lon="7.885742886387834"><ele>232.66666666666666</ele><time>2026-05-03T17:31:00.973Z</time></trkpt><trkpt lat="45.45909576914776" lon="7.885671339188619"><ele>233.0</ele><time>2026-05-03T17:31:01.973Z</time></trkpt><trkpt lat="45.45914830079082" lon="7.885621751563019"><ele>233.33333333333331</ele><time>2026-05-03T17:31:02.973Z</time></trkpt><trkpt lat="45.459217646735475" lon="7.885599676204132"><ele>233.66666666666666</ele><time>2026-05-03T17:31:03.973Z</time></trkpt><trkpt lat="45.45930506899611" lon="7.885581864508257"><ele>234.0</ele><time>2026-05-03T17:31:04.973Z</time></trkpt><trkpt lat="45.459404131107036" lon="7.885589259412243"><ele>234.0</ele><time>2026-05-03T17:31:05.973Z</time></trkpt><trkpt lat="45.45952414280188" lon="7.885626253551674"><ele>234.0</ele><time>2026-05-03T17:31:06.969Z</time></trkpt><trkpt lat="45.45965291131089" lon="7.885669874929823"><ele>234.0</ele><time>2026-05-03T17:31:07.969Z</time></trkpt><trkpt lat="45.45979062722228" lon="7.885712176347391"><ele>234.0</ele><time>2026-05-03T17:31:08.969Z</time></trkpt><trkpt lat="45.45992886837938" lon="7.885746135697578"><ele>234.0</ele><time>2026-05-03T17:31:09.969Z</time></trkpt><trkpt lat="45.46007584324349" lon="7.885791145849127"><ele>234.0</ele><time>2026-05-03T17:31:10.969Z</time></trkpt><trkpt lat="45.460224370636844" lon="7.885837190457606"><ele>234.0</ele><time>2026-05-03T17:31:11.969Z</time></trkpt><trkpt lat="45.460368542402115" lon="7.885884452119657"><ele>233.5</ele><time>2026-05-03T17:31:12.969Z</time></trkpt><trkpt lat="45.46051350799376" lon="7.885935708239144"><ele>233.0</ele><time>2026-05-03T17:31:13.969Z</time></trkpt><trkpt lat="45.46065592765429" lon="7.885984068046445"><ele>232.5</ele><time>2026-05-03T17:31:14.969Z</time></trkpt><trkpt lat="45.46079919860257" lon="7.886029482813935"><ele>232.0</ele><time>2026-05-03T17:31:15.969Z</time></trkpt><trkpt lat="45.46093791394502" lon="7.886072529012217"><ele>232.0</ele><time>2026-05-03T17:31:16.969Z</time></trkpt><trkpt lat="45.461071573796126" lon="7.886116648001529"><ele>232.0</ele><time>2026-05-03T17:31:17.969Z</time></trkpt><trkpt lat="45.46121130827709" lon="7.886168447672733"><ele>232.0</ele><time>2026-05-03T17:31:18.969Z</time></trkpt><trkpt lat="45.46134514196771" lon="7.886217715094379"><ele>232.0</ele><time>2026-05-03T17:31:19.969Z</time></trkpt><trkpt lat="45.461479874280755" lon="7.886263116182051"><ele>231.25</ele><time>2026-05-03T17:31:20.969Z</time></trkpt><trkpt lat="45.461608000057105" lon="7.886306917230481"><ele>230.5</ele><time>2026-05-03T17:31:21.969Z</time></trkpt><trkpt lat="45.46174872377322" lon="7.886356703495854"><ele>229.75</ele><time>2026-05-03T17:31:22.969Z</time></trkpt><trkpt lat="45.46189140682723" lon="7.886400953876307"><ele>229.0</ele><time>2026-05-03T17:31:23.969Z</time></trkpt><trkpt lat="45.46203125969906" lon="7.8864418155686415"><ele>229.5</ele><time>2026-05-03T17:31:24.969Z</time></trkpt><trkpt lat="45.46216751291174" lon="7.886488755632537"><ele>230.0</ele><time>2026-05-03T17:31:25.969Z</time></trkpt><trkpt lat="45.46229982766639" lon="7.886538228615063"><ele>230.5</ele><time>2026-05-03T17:31:26.969Z</time></trkpt><trkpt lat="45.462430592198984" lon="7.886585240781876"><ele>231.0</ele><time>2026-05-03T17:31:27.969Z</time></trkpt><trkpt lat="45.46256124464735" lon="7.886629899227352"><ele>231.0</ele><time>2026-05-03T17:31:28.969Z</time></trkpt><trkpt lat="45.46269979711885" lon="7.886676964466735"><ele>231.0</ele><time>2026-05-03T17:31:29.969Z</time></trkpt><trkpt lat="45.46283239689336" lon="7.886738217937917"><ele>231.0</ele><time>2026-05-03T17:31:30.969Z</time></trkpt><trkpt lat="45.46295948304624" lon="7.886798966076478"><ele>231.0</ele><time>2026-05-03T17:31:31.969Z</time></trkpt><trkpt lat="45.46308822903799" lon="7.88687668462255"><ele>231.5</ele><time>2026-05-03T17:31:32.969Z</time></trkpt><trkpt lat="45.46320144518535" lon="7.886971629742687"><ele>232.0</ele><time>2026-05-03T17:31:33.969Z</time></trkpt><trkpt lat="45.46329868846729" lon="7.887089367325765"><ele>232.5</ele><time>2026-05-03T17:31:34.969Z</time></trkpt><trkpt lat="45.463394030799314" lon="7.887236062431623"><ele>233.0</ele><time>2026-05-03T17:31:35.969Z</time></trkpt><trkpt lat="45.4635043119904" lon="7.887369980370881"><ele>233.0</ele><time>2026-05-03T17:31:36.969Z</time></trkpt><trkpt lat="45.463616266249296" lon="7.887496963051789"><ele>233.0</ele><time>2026-05-03T17:31:37.969Z</time></trkpt><trkpt lat="45.46373109346099" lon="7.88761601598566"><ele>233.0</ele><time>2026-05-03T17:31:38.969Z</time></trkpt><trkpt lat="45.463840087399745" lon="7.8877315785443765"><ele>233.0</ele><time>2026-05-03T17:31:39.969Z</time></trkpt><trkpt lat="45.463943391987634" lon="7.887839035359096"><ele>233.0</ele><time>2026-05-03T17:31:40.969Z</time></trkpt><trkpt lat="45.4640492954459" lon="7.887945752216983"><ele>233.0</ele><time>2026-05-03T17:31:41.969Z</time></trkpt><trkpt lat="45.46414641127456" lon="7.888050563902123"><ele>233.0</ele><time>2026-05-03T17:31:42.969Z</time></trkpt><trkpt lat="45.46424781952411" lon="7.888146213965645"><ele>233.0</ele><time>2026-05-03T17:31:43.969Z</time></trkpt><trkpt lat="45.46434130447592" lon="7.888212678232585"><ele>233.0</ele><time>2026-05-03T17:31:44.969Z</time></trkpt><trkpt lat="45.464435717497935" lon="7.888193661975214"><ele>233.0</ele><time>2026-05-03T17:31:45.969Z</time></trkpt><trkpt lat="45.46450973619966" lon="7.888168195900689"><ele>233.0</ele><time>2026-05-03T17:31:46.969Z</time></trkpt><trkpt lat="45.46457356029067" lon="7.888112196039416"><ele>233.0</ele><time>2026-05-03T17:31:47.969Z</time></trkpt><trkpt lat="45.464708169213814" lon="7.887857765688342"><ele>233.75</ele><time>2026-05-03T17:31:49.969Z</time></trkpt><trkpt lat="45.46475938760038" lon="7.887645898350419"><ele>234.5</ele><time>2026-05-03T17:31:50.969Z</time></trkpt><trkpt lat="45.46480823828441" lon="7.88746385107637"><ele>235.25</ele><time>2026-05-03T17:31:51.969Z</time></trkpt><trkpt lat="45.46486261299946" lon="7.887302430285579"><ele>236.0</ele><time>2026-05-03T17:31:52.969Z</time></trkpt><trkpt lat="45.464914476647365" lon="7.887138952332548"><ele>236.0</ele><time>2026-05-03T17:31:53.969Z</time></trkpt><trkpt lat="45.46495809128268" lon="7.886989916800454"><ele>236.00000000000003</ele><time>2026-05-03T17:31:54.969Z</time></trkpt><trkpt lat="45.46501122335385" lon="7.886843280363012"><ele>236.00000000000003</ele><time>2026-05-03T17:31:55.969Z</time></trkpt><trkpt lat="45.46505663978625" lon="7.886729184758214"><ele>236.0</ele><time>2026-05-03T17:31:56.969Z</time></trkpt><trkpt lat="45.465107340318106" lon="7.886654860840497"><ele>236.0</ele><time>2026-05-03T17:31:57.969Z</time></trkpt><trkpt lat="45.465226333733014" lon="7.886556052759667"><ele>236.0</ele><time>2026-05-03T17:31:59.97Z</time></trkpt><trkpt lat="45.46518115046445" lon="7.886923170313244"><ele>236.0</ele><time>2026-05-03T17:32:02.97Z</time></trkpt><trkpt lat="45.46515210520233" lon="7.887029801995623"><ele>236.0</ele><time>2026-05-03T17:32:03.97Z</time></trkpt><trkpt lat="45.465113568402415" lon="7.887135864403372"><ele>236.0</ele><time>2026-05-03T17:32:04.97Z</time></trkpt><trkpt lat="45.46507840132337" lon="7.887259404665656"><ele>236.0</ele><time>2026-05-03T17:32:05.97Z</time></trkpt><trkpt lat="45.46503970643285" lon="7.88738581677826"><ele>236.00000000000003</ele><time>2026-05-03T17:32:06.97Z</time></trkpt><trkpt lat="45.465015194592084" lon="7.887513503805875"><ele>236.00000000000003</ele><time>2026-05-03T17:32:07.97Z</time></trkpt><trkpt lat="45.464937494421356" lon="7.88762448290817"><ele>236.0</ele><time>2026-05-03T17:32:08.97Z</time></trkpt><trkpt lat="45.464893546894125" lon="7.887758415209267"><ele>236.0</ele><time>2026-05-03T17:32:09.97Z</time></trkpt><trkpt lat="45.4648568334856" lon="7.887894118073091"><ele>236.0</ele><time>2026-05-03T17:32:10.97Z</time></trkpt><trkpt lat="45.46482112738673" lon="7.8880382247932275"><ele>236.00000000000003</ele><time>2026-05-03T17:32:11.97Z</time></trkpt><trkpt lat="45.46477597701212" lon="7.888163589649726"><ele>236.00000000000003</ele><time>2026-05-03T17:32:12.97Z</time></trkpt><trkpt lat="45.46468573409167" lon="7.88822424257547"><ele>236.0</ele><time>2026-05-03T17:32:13.97Z</time></trkpt><trkpt lat="45.46459768738955" lon="7.8882585602018445"><ele>236.0</ele><time>2026-05-03T17:32:14.97Z</time></trkpt><trkpt lat="45.4644967031867" lon="7.888322139366467"><ele>235.5</ele><time>2026-05-03T17:32:15.97Z</time></trkpt><trkpt lat="45.46437201359561" lon="7.888409710562711"><ele>235.0</ele><time>2026-05-03T17:32:16.97Z</time></trkpt><trkpt lat="45.4642589266335" lon="7.888493091142771"><ele>234.5</ele><time>2026-05-03T17:32:17.97Z</time></trkpt><trkpt lat="45.46413832739202" lon="7.888565249568884"><ele>234.0</ele><time>2026-05-03T17:32:18.97Z</time></trkpt><trkpt lat="45.46403816466655" lon="7.88860816581565"><ele>234.0</ele><time>2026-05-03T17:32:19.97Z</time></trkpt><trkpt lat="45.46396758633883" lon="7.888725954686572"><ele>233.99999999999997</ele><time>2026-05-03T17:32:20.97Z</time></trkpt><trkpt lat="45.463908694347055" lon="7.888813184627022"><ele>233.99999999999997</ele><time>2026-05-03T17:32:21.97Z</time></trkpt><trkpt lat="45.46393427767662" lon="7.889021931715607"><ele>234.0</ele><time>2026-05-03T17:32:22.97Z</time></trkpt><trkpt lat="45.463915727623956" lon="7.889159678882209"><ele>234.0</ele><time>2026-05-03T17:32:23.97Z</time></trkpt><trkpt lat="45.46388583612059" lon="7.88929095450104"><ele>234.0</ele><time>2026-05-03T17:32:24.97Z</time></trkpt><trkpt lat="45.46386426668863" lon="7.889412862655665"><ele>233.99999999999997</ele><time>2026-05-03T17:32:25.97Z</time></trkpt><trkpt lat="45.46382620404362" lon="7.88953749926029"><ele>233.99999999999997</ele><time>2026-05-03T17:32:26.97Z</time></trkpt><trkpt lat="45.46380360773774" lon="7.889659645848672"><ele>234.0</ele><time>2026-05-03T17:32:27.97Z</time></trkpt><trkpt lat="45.463774002097026" lon="7.889773114189981"><ele>234.0</ele><time>2026-05-03T17:32:28.97Z</time></trkpt><trkpt lat="45.46373082650887" lon="7.889973678681392"><ele>233.5</ele><time>2026-05-03T17:32:30.97Z</time></trkpt><trkpt lat="45.46367367083793" lon="7.8901134032940625"><ele>233.0</ele><time>2026-05-03T17:32:31.97Z</time></trkpt><trkpt lat="45.46362621769356" lon="7.890265133737921"><ele>232.5</ele><time>2026-05-03T17:32:32.97Z</time></trkpt><trkpt lat="45.46358004093" lon="7.890412314013128"><ele>232.0</ele><time>2026-05-03T17:32:33.97Z</time></trkpt><trkpt lat="45.463535472968864" lon="7.890552548264551"><ele>232.0</ele><time>2026-05-03T17:32:34.97Z</time></trkpt><trkpt lat="45.46349799410347" lon="7.890706308920966"><ele>232.0</ele><time>2026-05-03T17:32:35.97Z</time></trkpt><trkpt lat="45.46345526735624" lon="7.890854385870527"><ele>232.0</ele><time>2026-05-03T17:32:36.97Z</time></trkpt><trkpt lat="45.463412072798924" lon="7.890994222876289"><ele>232.0</ele><time>2026-05-03T17:32:37.97Z</time></trkpt><trkpt lat="45.4633550656028" lon="7.891115357890805"><ele>232.0</ele><time>2026-05-03T17:32:38.971Z</time></trkpt><trkpt lat="45.46330848347483" lon="7.891260681239168"><ele>232.0</ele><time>2026-05-03T17:32:39.971Z</time></trkpt><trkpt lat="45.46327190668522" lon="7.891427136443171"><ele>232.0</ele><time>2026-05-03T17:32:40.971Z</time></trkpt><trkpt lat="45.46320272710459" lon="7.8916326492269775"><ele>232.0</ele><time>2026-05-03T17:32:41.971Z</time></trkpt><trkpt lat="45.46312864646026" lon="7.891864289765286"><ele>231.5</ele><time>2026-05-03T17:32:42.971Z</time></trkpt><trkpt lat="45.46355536187342" lon="7.891994309771826"><ele>231.0</ele><time>2026-05-03T17:32:43.971Z</time></trkpt><trkpt lat="45.4636296152134" lon="7.892188470171993"><ele>231.0</ele><time>2026-05-03T17:32:44.971Z</time></trkpt><trkpt lat="45.46366981076466" lon="7.8923640298352"><ele>231.0</ele><time>2026-05-03T17:32:45.971Z</time></trkpt><trkpt lat="45.4636932244214" lon="7.892558607450835"><ele>231.0</ele><time>2026-05-03T17:32:46.971Z</time></trkpt><trkpt lat="45.46370138209271" lon="7.8927528523640635"><ele>231.0</ele><time>2026-05-03T17:32:47.971Z</time></trkpt><trkpt lat="45.46368042744004" lon="7.892944703697908"><ele>231.0</ele><time>2026-05-03T17:32:48.971Z</time></trkpt><trkpt lat="45.46366562410702" lon="7.893135182595672"><ele>231.0</ele><time>2026-05-03T17:32:49.971Z</time></trkpt><trkpt lat="45.46364559371961" lon="7.893307654780853"><ele>231.0</ele><time>2026-05-03T17:32:50.971Z</time></trkpt><trkpt lat="45.46362493104572" lon="7.893474675798399"><ele>231.0</ele><time>2026-05-03T17:32:51.971Z</time></trkpt><trkpt lat="45.46360157103075" lon="7.893600798037675"><ele>231.0</ele><time>2026-05-03T17:32:52.971Z</time></trkpt><trkpt lat="45.463569193565775" lon="7.893723962913269"><ele>231.00000000000003</ele><time>2026-05-03T17:32:53.971Z</time></trkpt><trkpt lat="45.463563253786205" lon="7.8938144983549225"><ele>231.00000000000003</ele><time>2026-05-03T17:32:54.971Z</time></trkpt><trkpt lat="45.46358549138668" lon="7.893913621666039"><ele>231.0</ele><time>2026-05-03T17:32:55.971Z</time></trkpt><trkpt lat="45.46365237208634" lon="7.893919806533631"><ele>231.0</ele><time>2026-05-03T17:32:56.971Z</time></trkpt><trkpt lat="45.46379028226245" lon="7.893798428108224"><ele>231.0</ele><time>2026-05-03T17:32:58.971Z</time></trkpt><trkpt lat="45.4638641042763" lon="7.893771302215173"><ele>231.0</ele><time>2026-05-03T17:32:59.971Z</time></trkpt><trkpt lat="45.46392894995936" lon="7.893787341591203"><ele>231.0</ele><time>2026-05-03T17:33:00.971Z</time></trkpt><trkpt lat="45.46396922801205" lon="7.89385834577779"><ele>231.0</ele><time>2026-05-03T17:33:01.971Z</time></trkpt><trkpt lat="45.463982979952945" lon="7.893950931892152"><ele>231.0</ele><time>2026-05-03T17:33:02.971Z</time></trkpt><trkpt lat="45.46399136419142" lon="7.894126571017708"><ele>231.0</ele><time>2026-05-03T17:33:03.971Z</time></trkpt><trkpt lat="45.464024125421254" lon="7.894268179748901"><ele>231.0</ele><time>2026-05-03T17:33:04.971Z</time></trkpt><trkpt lat="45.46405060873551" lon="7.8944607982899555"><ele>231.0</ele><time>2026-05-03T17:33:05.971Z</time></trkpt><trkpt lat="45.464088142542124" lon="7.894709205306916"><ele>231.0</ele><time>2026-05-03T17:33:06.971Z</time></trkpt><trkpt lat="45.46412398380042" lon="7.8949180934765995"><ele>232.0</ele><time>2026-05-03T17:33:07.971Z</time></trkpt><trkpt lat="45.464158713373926" lon="7.895131085836959"><ele>233.0</ele><time>2026-05-03T17:33:08.971Z</time></trkpt><trkpt lat="45.464196415115985" lon="7.895357428687664"><ele>234.0</ele><time>2026-05-03T17:33:09.971Z</time></trkpt><trkpt lat="45.46423688074177" lon="7.8955862401537225"><ele>234.0</ele><time>2026-05-03T17:33:10.971Z</time></trkpt><trkpt lat="45.46428304283548" lon="7.895804877014824"><ele>234.0</ele><time>2026-05-03T17:33:11.971Z</time></trkpt><trkpt lat="45.46432015235983" lon="7.896028902150778"><ele>234.0</ele><time>2026-05-03T17:33:12.967Z</time></trkpt><trkpt lat="45.464356709063104" lon="7.896261403466568"><ele>233.75</ele><time>2026-05-03T17:33:13.968Z</time></trkpt><trkpt lat="45.464377912165425" lon="7.896472788461616"><ele>233.5</ele><time>2026-05-03T17:33:14.968Z</time></trkpt><trkpt lat="45.464409444070554" lon="7.896663443768544"><ele>233.25</ele><time>2026-05-03T17:33:15.968Z</time></trkpt><trkpt lat="45.46444475322278" lon="7.896842098117668"><ele>233.0</ele><time>2026-05-03T17:33:16.968Z</time></trkpt><trkpt lat="45.46447455624693" lon="7.896997579732277"><ele>232.60000000000002</ele><time>2026-05-03T17:33:17.968Z</time></trkpt><trkpt lat="45.46449625633936" lon="7.897106826306991"><ele>232.20000000000002</ele><time>2026-05-03T17:33:18.967Z</time></trkpt><trkpt lat="45.46444953660692" lon="7.897220599352537"><ele>231.8</ele><time>2026-05-03T17:33:20.968Z</time></trkpt><trkpt lat="45.464388699455554" lon="7.897248117536445"><ele>231.4</ele><time>2026-05-03T17:33:21.968Z</time></trkpt><trkpt lat="45.46429643033859" lon="7.89730818379546"><ele>231.0</ele><time>2026-05-03T17:33:22.967Z</time></trkpt><trkpt lat="45.46419176698916" lon="7.897383576381517"><ele>231.0</ele><time>2026-05-03T17:33:23.967Z</time></trkpt><trkpt lat="45.464078749484905" lon="7.897466074639067"><ele>231.0</ele><time>2026-05-03T17:33:24.967Z</time></trkpt><trkpt lat="45.463966113963494" lon="7.89754617599695"><ele>231.0</ele><time>2026-05-03T17:33:25.968Z</time></trkpt><trkpt lat="45.46383965612957" lon="7.89763590832592"><ele>231.0</ele><time>2026-05-03T17:33:26.968Z</time></trkpt><trkpt lat="45.46370761635549" lon="7.897738426295102"><ele>231.5</ele><time>2026-05-03T17:33:27.968Z</time></trkpt><trkpt lat="45.46357282118348" lon="7.897841482420998"><ele>232.0</ele><time>2026-05-03T17:33:28.968Z</time></trkpt><trkpt lat="45.46346256140254" lon="7.897935843300488"><ele>232.5</ele><time>2026-05-03T17:33:29.968Z</time></trkpt><trkpt lat="45.463350812615076" lon="7.898030759042191"><ele>233.0</ele><time>2026-05-03T17:33:30.968Z</time></trkpt><trkpt lat="45.46324784406121" lon="7.898125980040043"><ele>233.0</ele><time>2026-05-03T17:33:31.968Z</time></trkpt><trkpt lat="45.46316705283555" lon="7.898187066859175"><ele>233.0</ele><time>2026-05-03T17:33:32.968Z</time></trkpt><trkpt lat="45.46310200178951" lon="7.898274938756491"><ele>233.0</ele><time>2026-05-03T17:33:34.968Z</time></trkpt><trkpt lat="45.46314265844502" lon="7.8983711792720355"><ele>233.0</ele><time>2026-05-03T17:33:35.968Z</time></trkpt><trkpt lat="45.46321646754976" lon="7.898494539454706"><ele>233.0</ele><time>2026-05-03T17:33:36.968Z</time></trkpt><trkpt lat="45.46329058931236" lon="7.898640510721466"><ele>232.75</ele><time>2026-05-03T17:33:37.968Z</time></trkpt><trkpt lat="45.4633707865157" lon="7.898804603512968"><ele>232.5</ele><time>2026-05-03T17:33:38.968Z</time></trkpt><trkpt lat="45.463436347413584" lon="7.898978823793311"><ele>232.25</ele><time>2026-05-03T17:33:39.968Z</time></trkpt><trkpt lat="45.46349807532934" lon="7.899166041750018"><ele>232.0</ele><time>2026-05-03T17:33:40.968Z</time></trkpt><trkpt lat="45.46357182348562" lon="7.899329889946513"><ele>232.0</ele><time>2026-05-03T17:33:41.968Z</time></trkpt><trkpt lat="45.46363615310118" lon="7.899474214370601"><ele>232.0</ele><time>2026-05-03T17:33:42.968Z</time></trkpt><trkpt lat="45.46367823132673" lon="7.899586570103158"><ele>232.0</ele><time>2026-05-03T17:33:43.968Z</time></trkpt><trkpt lat="45.46370100015734" lon="7.899680192516267"><ele>232.0</ele><time>2026-05-03T17:33:44.968Z</time></trkpt><trkpt lat="45.46358538947892" lon="7.899800115830437"><ele>232.0</ele><time>2026-05-03T17:33:46.968Z</time></trkpt><trkpt lat="45.46348935549417" lon="7.89985324086063"><ele>232.0</ele><time>2026-05-03T17:33:47.968Z</time></trkpt><trkpt lat="45.46336521418801" lon="7.899943322974918"><ele>232.0</ele><time>2026-05-03T17:33:48.969Z</time></trkpt><trkpt lat="45.463257146920135" lon="7.900050328852334"><ele>232.0</ele><time>2026-05-03T17:33:49.969Z</time></trkpt><trkpt lat="45.46316291045486" lon="7.90013781104611"><ele>232.0</ele><time>2026-05-03T17:33:50.969Z</time></trkpt><trkpt lat="45.46308843339024" lon="7.900202062670138"><ele>232.0</ele><time>2026-05-03T17:33:51.969Z</time></trkpt><trkpt lat="45.4630693540406" lon="7.900350976199869"><ele>232.0</ele><time>2026-05-03T17:33:53.969Z</time></trkpt><trkpt lat="45.46311680441055" lon="7.900426618370728"><ele>232.0</ele><time>2026-05-03T17:33:54.969Z</time></trkpt><trkpt lat="45.463190353023776" lon="7.900495689465049"><ele>232.0</ele><time>2026-05-03T17:33:55.969Z</time></trkpt><trkpt lat="45.46324801385925" lon="7.90059416822135"><ele>232.0</ele><time>2026-05-03T17:33:56.969Z</time></trkpt><trkpt lat="45.46331944765917" lon="7.900734967738135"><ele>232.0</ele><time>2026-05-03T17:33:57.969Z</time></trkpt><trkpt lat="45.46340023700985" lon="7.900890139167051"><ele>232.0</ele><time>2026-05-03T17:33:58.969Z</time></trkpt><trkpt lat="45.46348251786502" lon="7.90105492091127"><ele>232.0</ele><time>2026-05-03T17:33:59.969Z</time></trkpt><trkpt lat="45.46356175126071" lon="7.901218987282731"><ele>232.0</ele><time>2026-05-03T17:34:00.969Z</time></trkpt><trkpt lat="45.46361945027758" lon="7.9013761239478475"><ele>232.39999999999998</ele><time>2026-05-03T17:34:01.969Z</time></trkpt><trkpt lat="45.463634471964944" lon="7.901520954715304"><ele>232.79999999999998</ele><time>2026-05-03T17:34:02.969Z</time></trkpt><trkpt lat="45.463637758186955" lon="7.901683576452923"><ele>233.2</ele><time>2026-05-03T17:34:03.969Z</time></trkpt><trkpt lat="45.463649040141966" lon="7.901841120064459"><ele>233.6</ele><time>2026-05-03T17:34:04.969Z</time></trkpt><trkpt lat="45.46368576180815" lon="7.9019859614936365"><ele>234.0</ele><time>2026-05-03T17:34:05.969Z</time></trkpt><trkpt lat="45.463738869053095" lon="7.902111223544371"><ele>234.0</ele><time>2026-05-03T17:34:06.969Z</time></trkpt><trkpt lat="45.46379328979383" lon="7.902198855351618"><ele>234.0</ele><time>2026-05-03T17:34:07.969Z</time></trkpt><trkpt lat="45.463819880510904" lon="7.902317368654898"><ele>234.0</ele><time>2026-05-03T17:34:09.969Z</time></trkpt><trkpt lat="45.46377476568468" lon="7.902383826509925"><ele>234.0</ele><time>2026-05-03T17:34:11.969Z</time></trkpt><trkpt lat="45.46372485749878" lon="7.902445944577649"><ele>234.0</ele><time>2026-05-03T17:34:12.969Z</time></trkpt><trkpt lat="45.46366996706819" lon="7.902508411944191"><ele>234.0</ele><time>2026-05-03T17:34:13.969Z</time></trkpt><trkpt lat="45.463605330235175" lon="7.902584475288894"><ele>234.39999999999998</ele><time>2026-05-03T17:34:14.969Z</time></trkpt><trkpt lat="45.46352508668033" lon="7.9026598963966"><ele>234.79999999999998</ele><time>2026-05-03T17:34:15.969Z</time></trkpt><trkpt lat="45.463449512258116" lon="7.902730837038038"><ele>235.20000000000002</ele><time>2026-05-03T17:34:16.969Z</time></trkpt><trkpt lat="45.463365657889256" lon="7.90279420338066"><ele>235.60000000000002</ele><time>2026-05-03T17:34:17.969Z</time></trkpt><trkpt lat="45.463280969482504" lon="7.902863577388192"><ele>236.0</ele><time>2026-05-03T17:34:18.969Z</time></trkpt><trkpt lat="45.46317983950404" lon="7.9029429741161215"><ele>236.0</ele><time>2026-05-03T17:34:19.969Z</time></trkpt><trkpt lat="45.46308793001307" lon="7.903018976359981"><ele>236.00000000000003</ele><time>2026-05-03T17:34:20.969Z</time></trkpt><trkpt lat="45.46299393090731" lon="7.903084506600781"><ele>236.00000000000003</ele><time>2026-05-03T17:34:21.969Z</time></trkpt><trkpt lat="45.4628923759365" lon="7.903144192237533"><ele>236.0</ele><time>2026-05-03T17:34:22.969Z</time></trkpt><trkpt lat="45.4627892229769" lon="7.903194462653726"><ele>236.0</ele><time>2026-05-03T17:34:23.969Z</time></trkpt><trkpt lat="45.462683099513676" lon="7.903241455505143"><ele>236.0</ele><time>2026-05-03T17:34:24.969Z</time></trkpt><trkpt lat="45.46257970538283" lon="7.903283434911989"><ele>236.00000000000003</ele><time>2026-05-03T17:34:25.969Z</time></trkpt><trkpt lat="45.46247497047012" lon="7.903324097283527"><ele>236.00000000000003</ele><time>2026-05-03T17:34:26.969Z</time></trkpt><trkpt lat="45.46236886538399" lon="7.9033638817889065"><ele>236.0</ele><time>2026-05-03T17:34:27.969Z</time></trkpt><trkpt lat="45.462268246996956" lon="7.903415057713714"><ele>236.0</ele><time>2026-05-03T17:34:28.97Z</time></trkpt><trkpt lat="45.46217238449811" lon="7.903463122417243"><ele>236.0</ele><time>2026-05-03T17:34:29.97Z</time></trkpt><trkpt lat="45.46207612869786" lon="7.903526198619665"><ele>236.00000000000003</ele><time>2026-05-03T17:34:30.97Z</time></trkpt><trkpt lat="45.46197984809552" lon="7.9036003082710735"><ele>236.00000000000003</ele><time>2026-05-03T17:34:31.97Z</time></trkpt><trkpt lat="45.46188821749887" lon="7.903678557763564"><ele>236.0</ele><time>2026-05-03T17:34:32.97Z</time></trkpt><trkpt lat="45.46180036980847" lon="7.903770841798278"><ele>236.0</ele><time>2026-05-03T17:34:33.97Z</time></trkpt><trkpt lat="45.461708624305516" lon="7.903860831696495"><ele>236.00000000000003</ele><time>2026-05-03T17:34:34.97Z</time></trkpt><trkpt lat="45.46162080101805" lon="7.903939657252337"><ele>236.0</ele><time>2026-05-03T17:34:35.97Z</time></trkpt><trkpt lat="45.46154179295279" lon="7.9040219420436495"><ele>236.0</ele><time>2026-05-03T17:34:36.97Z</time></trkpt><trkpt lat="45.46145888221321" lon="7.90408924227017"><ele>236.0</ele><time>2026-05-03T17:34:37.97Z</time></trkpt><trkpt lat="45.46139125029104" lon="7.904155542659516"><ele>236.00000000000003</ele><time>2026-05-03T17:34:38.97Z</time></trkpt><trkpt lat="45.46133445942939" lon="7.904214426092733"><ele>236.0</ele><time>2026-05-03T17:34:39.97Z</time></trkpt><trkpt lat="45.46139650489821" lon="7.9043188141298435"><ele>236.00000000000003</ele><time>2026-05-03T17:34:43.97Z</time></trkpt><trkpt lat="45.46145482713227" lon="7.904357745473124"><ele>236.0</ele><time>2026-05-03T17:34:44.97Z</time></trkpt><trkpt lat="45.461528596673055" lon="7.904413924826101"><ele>236.0</ele><time>2026-05-03T17:34:46.97Z</time></trkpt><trkpt lat="45.46147424334543" lon="7.904498831814004"><ele>236.0</ele><time>2026-05-03T17:34:48.97Z</time></trkpt><trkpt lat="45.46134450019654" lon="7.904522786114197"><ele>236.00000000000003</ele><time>2026-05-03T17:34:50.97Z</time></trkpt><trkpt lat="45.461291098062986" lon="7.904588928314123"><ele>236.0</ele><time>2026-05-03T17:34:54.97Z</time></trkpt><trkpt lat="45.46139491172327" lon="7.90482703512668"><ele>236.0</ele><time>2026-05-03T17:34:55.97Z</time></trkpt><trkpt lat="45.46144915804373" lon="7.904974317626846"><ele>236.00000000000003</ele><time>2026-05-03T17:34:57.97Z</time></trkpt><trkpt lat="45.4614990266276" lon="7.905107548256815"><ele>236.00000000000003</ele><time>2026-05-03T17:34:59.97Z</time></trkpt><trkpt lat="45.46155396854964" lon="7.905229723919321"><ele>236.0</ele><time>2026-05-03T17:35:01.97Z</time></trkpt><trkpt lat="45.46159755542232" lon="7.905360724092289"><ele>236.0</ele><time>2026-05-03T17:35:03.97Z</time></trkpt><trkpt lat="45.461670550137164" lon="7.9055003349048"><ele>236.20000000000002</ele><time>2026-05-03T17:35:05.97Z</time></trkpt><trkpt lat="45.461744294585685" lon="7.905637466051424"><ele>236.40000000000003</ele><time>2026-05-03T17:35:07.97Z</time></trkpt><trkpt lat="45.46178028735679" lon="7.9057117430238595"><ele>236.6</ele><time>2026-05-03T17:35:08.971Z</time></trkpt><trkpt lat="45.46183438006762" lon="7.9058430452965816"><ele>236.8</ele><time>2026-05-03T17:35:10.971Z</time></trkpt><trkpt lat="45.46177351464257" lon="7.905965548844989"><ele>237.0</ele><time>2026-05-03T17:35:13.971Z</time></trkpt><trkpt lat="45.46170995788506" lon="7.906012890333654"><ele>237.33333333333334</ele><time>2026-05-03T17:35:14.971Z</time></trkpt><trkpt lat="45.461644031763804" lon="7.906069246379591"><ele>237.66666666666669</ele><time>2026-05-03T17:35:15.971Z</time></trkpt><trkpt lat="45.461568915666" lon="7.906124582552082"><ele>238.0</ele><time>2026-05-03T17:35:16.971Z</time></trkpt><trkpt lat="45.46150114247937" lon="7.906176902296237"><ele>238.33333333333334</ele><time>2026-05-03T17:35:17.971Z</time></trkpt><trkpt lat="45.461435235545466" lon="7.906225842804809"><ele>238.66666666666669</ele><time>2026-05-03T17:35:18.967Z</time></trkpt><trkpt lat="45.461377707055064" lon="7.9062747561429765"><ele>239.0</ele><time>2026-05-03T17:35:19.967Z</time></trkpt><trkpt lat="45.46134649433638" lon="7.9064077046568135"><ele>239.0</ele><time>2026-05-03T17:35:21.967Z</time></trkpt><trkpt lat="45.46140710857372" lon="7.906566124705547"><ele>238.99999999999997</ele><time>2026-05-03T17:35:23.967Z</time></trkpt><trkpt lat="45.461438712361975" lon="7.90667301454153"><ele>238.99999999999997</ele><time>2026-05-03T17:35:24.967Z</time></trkpt><trkpt lat="45.461458923070914" lon="7.906781648734262"><ele>239.0</ele><time>2026-05-03T17:35:25.966Z</time></trkpt><trkpt lat="45.46148148429244" lon="7.906872477585273"><ele>239.0</ele><time>2026-05-03T17:35:26.966Z</time></trkpt><trkpt lat="45.46151510673391" lon="7.907036744782398"><ele>238.0</ele><time>2026-05-03T17:35:28.966Z</time></trkpt><trkpt lat="45.46153262056758" lon="7.907168184198033"><ele>238.0</ele><time>2026-05-03T17:35:30.967Z</time></trkpt><trkpt lat="45.46155031060772" lon="7.907276106003981"><ele>238.0</ele><time>2026-05-03T17:35:32.966Z</time></trkpt></trkseg></trk></gpx>